<?xml version='1.0' encoding='UTF-8'?><gpx version="1.1" creator="JPX - https://github.com/jenetics/jpx" xmlns="http://www.topografix.com/GPX/1/1"><trk><trkseg><trkpt lat="45.89620186688617" lon="13.381306204918289"><ele>25.999999999999996</ele><time>2026-04-04T10:58:35.365Z</time></trkpt><trkpt lat="45.89609864419472" lon="13.381335728141373"><ele>26.0</ele><time>2026-04-04T11:01:46.999Z</time></trkpt><trkpt lat="45.89616664467248" lon="13.381315905468533"><ele>26.0</ele><time>2026-04-04T11:02:12Z</time></trkpt><trkpt lat="45.89610499201956" lon="13.381290482949602"><ele>26.0</ele><time>2026-04-04T11:02:20Z</time></trkpt><trkpt lat="45.89602932594026" lon="13.381326195970084"><ele>25.999999999999996</ele><time>2026-04-04T11:02:22Z</time></trkpt><trkpt lat="45.89593482390249" lon="13.381344777052075"><ele>26.0</ele><time>2026-04-04T11:02:25Z</time></trkpt><trkpt lat="45.895882848683904" lon="13.381408395160978"><ele>26.142857142857142</ele><time>2026-04-04T11:02:27Z</time></trkpt><trkpt lat="45.895863417656045" lon="13.38149832050764"><ele>26.28571428571429</ele><time>2026-04-04T11:02:29Z</time></trkpt><trkpt lat="45.89585038531102" lon="13.381595477444048"><ele>26.42857142857143</ele><time>2026-04-04T11:02:31Z</time></trkpt><trkpt lat="45.895830209082206" lon="13.381683581503863"><ele>26.57142857142857</ele><time>2026-04-04T11:02:33Z</time></trkpt><trkpt lat="45.89581271220709" lon="13.381782694937545"><ele>26.714285714285715</ele><time>2026-04-04T11:02:35Z</time></trkpt><trkpt lat="45.89579224506083" lon="13.381888822568976"><ele>26.857142857142858</ele><time>2026-04-04T11:02:37Z</time></trkpt><trkpt lat="45.89577445894911" lon="13.38198475597522"><ele>27.0</ele><time>2026-04-04T11:02:39Z</time></trkpt><trkpt lat="45.89577866104563" lon="13.382077147779212"><ele>27.0</ele><time>2026-04-04T11:02:42Z</time></trkpt><trkpt lat="45.89583705973604" lon="13.382136213838526"><ele>27.0</ele><time>2026-04-04T11:02:44Z</time></trkpt><trkpt lat="45.895900989392835" lon="13.382125647692398"><ele>27.0</ele><time>2026-04-04T11:02:45Z</time></trkpt><trkpt lat="45.895969385748316" lon="13.382084849005532"><ele>27.0</ele><time>2026-04-04T11:02:46Z</time></trkpt><trkpt lat="45.89604952415807" lon="13.382039617900835"><ele>27.0</ele><time>2026-04-04T11:02:47Z</time></trkpt><trkpt lat="45.89614454982381" lon="13.38199772613233"><ele>27.0</ele><time>2026-04-04T11:02:48Z</time></trkpt><trkpt lat="45.896254568928384" lon="13.381948677219961"><ele>26.75</ele><time>2026-04-04T11:02:49Z</time></trkpt><trkpt lat="45.89637720953579" lon="13.381893357840998"><ele>26.5</ele><time>2026-04-04T11:02:50Z</time></trkpt><trkpt lat="45.89650167470412" lon="13.381830684476874"><ele>26.25</ele><time>2026-04-04T11:02:51Z</time></trkpt><trkpt lat="45.896630751222375" lon="13.381769822496253"><ele>26.0</ele><time>2026-04-04T11:02:52Z</time></trkpt><trkpt lat="45.89676480257097" lon="13.381705022865102"><ele>26.0</ele><time>2026-04-04T11:02:53Z</time></trkpt><trkpt lat="45.89690498207995" lon="13.38163997485615"><ele>26.0</ele><time>2026-04-04T11:02:54Z</time></trkpt><trkpt lat="45.89704971137195" lon="13.38157971607414"><ele>26.0</ele><time>2026-04-04T11:02:55Z</time></trkpt><trkpt lat="45.897201961895064" lon="13.381517704752373"><ele>26.0</ele><time>2026-04-04T11:02:56Z</time></trkpt><trkpt lat="45.897365739022" lon="13.381448055852772"><ele>26.0</ele><time>2026-04-04T11:02:57Z</time></trkpt><trkpt lat="45.89753931259473" lon="13.381375682468034"><ele>26.0</ele><time>2026-04-04T11:02:58Z</time></trkpt><trkpt lat="45.897721044622735" lon="13.381303340006292"><ele>26.0</ele><time>2026-04-04T11:02:59Z</time></trkpt><trkpt lat="45.897905673296954" lon="13.381228551763723"><ele>26.0</ele><time>2026-04-04T11:03:00Z</time></trkpt><trkpt lat="45.89809676895152" lon="13.381149042877265"><ele>26.0</ele><time>2026-04-04T11:03:01Z</time></trkpt><trkpt lat="45.8982900796811" lon="13.381067193682561"><ele>25.333333333333332</ele><time>2026-04-04T11:03:02Z</time></trkpt><trkpt lat="45.898490018967" lon="13.380987706398876"><ele>24.666666666666664</ele><time>2026-04-04T11:03:03Z</time></trkpt><trkpt lat="45.89869292714568" lon="13.380907922483246"><ele>24.0</ele><time>2026-04-04T11:03:04Z</time></trkpt><trkpt lat="45.89889580568482" lon="13.380828457204428"><ele>24.0</ele><time>2026-04-04T11:03:05Z</time></trkpt><trkpt lat="45.89909623859127" lon="13.380753947077592"><ele>24.0</ele><time>2026-04-04T11:03:06Z</time></trkpt><trkpt lat="45.89929440813455" lon="13.380686371450007"><ele>24.0</ele><time>2026-04-04T11:03:07Z</time></trkpt><trkpt lat="45.89949487541012" lon="13.38063565821863"><ele>24.666666666666664</ele><time>2026-04-04T11:03:08Z</time></trkpt><trkpt lat="45.89969688277039" lon="13.380599203562129"><ele>25.333333333333332</ele><time>2026-04-04T11:03:09Z</time></trkpt><trkpt lat="45.89989794439134" lon="13.380567856794054"><ele>26.0</ele><time>2026-04-04T11:03:10Z</time></trkpt><trkpt lat="45.90009821941733" lon="13.3805382401238"><ele>26.0</ele><time>2026-04-04T11:03:11Z</time></trkpt><trkpt lat="45.900294248890845" lon="13.380512594574883"><ele>26.0</ele><time>2026-04-04T11:03:12Z</time></trkpt><trkpt lat="45.900488598764774" lon="13.38048790268896"><ele>26.0</ele><time>2026-04-04T11:03:13Z</time></trkpt><trkpt lat="45.90068854837385" lon="13.380461601299118"><ele>26.0</ele><time>2026-04-04T11:03:14Z</time></trkpt><trkpt lat="45.90089295294924" lon="13.380431074677317"><ele>26.0</ele><time>2026-04-04T11:03:15Z</time></trkpt><trkpt lat="45.901100357666586" lon="13.380403914429593"><ele>26.0</ele><time>2026-04-04T11:03:16Z</time></trkpt><trkpt lat="45.901307142024606" lon="13.380372086786451"><ele>26.0</ele><time>2026-04-04T11:03:17Z</time></trkpt><trkpt lat="45.90151390326217" lon="13.380339692154198"><ele>26.0</ele><time>2026-04-04T11:03:18Z</time></trkpt><trkpt lat="45.90172151424334" lon="13.380308375192234"><ele>26.0</ele><time>2026-04-04T11:03:19Z</time></trkpt><trkpt lat="45.90192917589567" lon="13.38027425261541"><ele>26.0</ele><time>2026-04-04T11:03:20Z</time></trkpt><trkpt lat="45.902134685858286" lon="13.380230741581007"><ele>26.0</ele><time>2026-04-04T11:03:21Z</time></trkpt><trkpt lat="45.90234408899479" lon="13.380181096213697"><ele>26.0</ele><time>2026-04-04T11:03:22Z</time></trkpt><trkpt lat="45.90255402304473" lon="13.380131321627974"><ele>26.333333333333332</ele><time>2026-04-04T11:03:23Z</time></trkpt><trkpt lat="45.90276935334423" lon="13.380082305221173"><ele>26.666666666666664</ele><time>2026-04-04T11:03:24Z</time></trkpt><trkpt lat="45.902987560902865" lon="13.380037459669813"><ele>27.0</ele><time>2026-04-04T11:03:25Z</time></trkpt><trkpt lat="45.90320661644326" lon="13.379986875343475"><ele>27.0</ele><time>2026-04-04T11:03:26Z</time></trkpt><trkpt lat="45.903431456932886" lon="13.379938502323943"><ele>27.0</ele><time>2026-04-04T11:03:27Z</time></trkpt><trkpt lat="45.90365807885616" lon="13.379886008592393"><ele>27.0</ele><time>2026-04-04T11:03:28Z</time></trkpt><trkpt lat="45.90389060835443" lon="13.379837429685667"><ele>27.0</ele><time>2026-04-04T11:03:29Z</time></trkpt><trkpt lat="45.904124420745866" lon="13.379788870160459"><ele>27.0</ele><time>2026-04-04T11:03:30Z</time></trkpt><trkpt lat="45.904361592616254" lon="13.37974101627239"><ele>27.0</ele><time>2026-04-04T11:03:31Z</time></trkpt><trkpt lat="45.90460060017509" lon="13.379690125026608"><ele>26.5</ele><time>2026-04-04T11:03:32Z</time></trkpt><trkpt lat="45.90484133725069" lon="13.379647646296334"><ele>26.0</ele><time>2026-04-04T11:03:33Z</time></trkpt><trkpt lat="45.90508244608455" lon="13.379615390743254"><ele>27.0</ele><time>2026-04-04T11:03:33.999Z</time></trkpt><trkpt lat="45.905320544068864" lon="13.379587795049517"><ele>28.0</ele><time>2026-04-04T11:03:34.999Z</time></trkpt><trkpt lat="45.905558236006414" lon="13.379562114908804"><ele>28.0</ele><time>2026-04-04T11:03:35.999Z</time></trkpt><trkpt lat="45.90579275564106" lon="13.379530559833185"><ele>28.0</ele><time>2026-04-04T11:03:36.999Z</time></trkpt><trkpt lat="45.90602899874278" lon="13.379498647790756"><ele>28.5</ele><time>2026-04-04T11:03:37.999Z</time></trkpt><trkpt lat="45.90626346117728" lon="13.379466132341044"><ele>29.0</ele><time>2026-04-04T11:03:38.999Z</time></trkpt><trkpt lat="45.90649984781611" lon="13.3794336021966"><ele>29.0</ele><time>2026-04-04T11:03:39.999Z</time></trkpt><trkpt lat="45.906735121971394" lon="13.379397270225741"><ele>29.0</ele><time>2026-04-04T11:03:40.999Z</time></trkpt><trkpt lat="45.906969212663824" lon="13.379345489305301"><ele>29.0</ele><time>2026-04-04T11:03:41.999Z</time></trkpt><trkpt lat="45.90720094769559" lon="13.379262860410643"><ele>29.0</ele><time>2026-04-04T11:03:42.999Z</time></trkpt><trkpt lat="45.90743166357189" lon="13.379160556866907"><ele>29.0</ele><time>2026-04-04T11:03:43.999Z</time></trkpt><trkpt lat="45.907664785398865" lon="13.379058501401188"><ele>29.0</ele><time>2026-04-04T11:03:44.999Z</time></trkpt><trkpt lat="45.90789907990856" lon="13.378963911066144"><ele>29.0</ele><time>2026-04-04T11:03:45.999Z</time></trkpt><trkpt lat="45.90813660279867" lon="13.37888893755162"><ele>29.0</ele><time>2026-04-04T11:03:46.999Z</time></trkpt><trkpt lat="45.908374793325834" lon="13.378826567906206"><ele>29.0</ele><time>2026-04-04T11:03:47.999Z</time></trkpt><trkpt lat="45.90861209770386" lon="13.378780424694561"><ele>29.0</ele><time>2026-04-04T11:03:48.999Z</time></trkpt><trkpt lat="45.908849323381695" lon="13.378745914382433"><ele>29.0</ele><time>2026-04-04T11:03:49.999Z</time></trkpt><trkpt lat="45.90908584350877" lon="13.378719436617894"><ele>29.0</ele><time>2026-04-04T11:03:50.999Z</time></trkpt><trkpt lat="45.90932087583862" lon="13.378690477274493"><ele>28.5</ele><time>2026-04-04T11:03:51.999Z</time></trkpt><trkpt lat="45.90955641848274" lon="13.378674012072244"><ele>28.0</ele><time>2026-04-04T11:03:52.999Z</time></trkpt><trkpt lat="45.90979073961809" lon="13.378671461599708"><ele>28.0</ele><time>2026-04-04T11:03:53.999Z</time></trkpt><trkpt lat="45.91002156848678" lon="13.378685006884051"><ele>28.0</ele><time>2026-04-04T11:03:54.999Z</time></trkpt><trkpt lat="45.91025425128622" lon="13.378703272102985"><ele>29.0</ele><time>2026-04-04T11:03:55.999Z</time></trkpt><trkpt lat="45.91048393045565" lon="13.378724732610296"><ele>30.0</ele><time>2026-04-04T11:03:56.999Z</time></trkpt><trkpt lat="45.91070811191029" lon="13.378741297096287"><ele>30.333333333333336</ele><time>2026-04-04T11:03:57.999Z</time></trkpt><trkpt lat="45.91092469392968" lon="13.378726749294083"><ele>30.666666666666668</ele><time>2026-04-04T11:03:58.999Z</time></trkpt><trkpt lat="45.911137911116505" lon="13.378671095956896"><ele>31.0</ele><time>2026-04-04T11:03:59.999Z</time></trkpt><trkpt lat="45.911345059482315" lon="13.378572900375001"><ele>31.0</ele><time>2026-04-04T11:04:00.999Z</time></trkpt><trkpt lat="45.91154795304445" lon="13.378455585772771"><ele>31.0</ele><time>2026-04-04T11:04:01.999Z</time></trkpt><trkpt lat="45.911738867720615" lon="13.378309566115462"><ele>31.0</ele><time>2026-04-04T11:04:02.999Z</time></trkpt><trkpt lat="45.91191445796784" lon="13.37813318399964"><ele>31.333333333333336</ele><time>2026-04-04T11:04:03.999Z</time></trkpt><trkpt lat="45.91208479626192" lon="13.377946160728099"><ele>31.666666666666664</ele><time>2026-04-04T11:04:04.999Z</time></trkpt><trkpt lat="45.91225095024073" lon="13.377765806927885"><ele>32.0</ele><time>2026-04-04T11:04:05.999Z</time></trkpt><trkpt lat="45.91241678781379" lon="13.377594083512497"><ele>32.33333333333333</ele><time>2026-04-04T11:04:06.999Z</time></trkpt><trkpt lat="45.91257756281385" lon="13.377425638102483"><ele>32.666666666666664</ele><time>2026-04-04T11:04:07.999Z</time></trkpt><trkpt lat="45.91273080780469" lon="13.377260413649468"><ele>33.0</ele><time>2026-04-04T11:04:08.999Z</time></trkpt><trkpt lat="45.91287696440723" lon="13.377104625410427"><ele>33.0</ele><time>2026-04-04T11:04:09.999Z</time></trkpt><trkpt lat="45.91301057446225" lon="13.376974441942947"><ele>33.0</ele><time>2026-04-04T11:04:10.999Z</time></trkpt><trkpt lat="45.91314178630705" lon="13.376892114338427"><ele>33.0</ele><time>2026-04-04T11:04:11.999Z</time></trkpt><trkpt lat="45.91327723459607" lon="13.376839336990292"><ele>33.0</ele><time>2026-04-04T11:04:12.999Z</time></trkpt><trkpt lat="45.91343074631314" lon="13.376798336225589"><ele>33.0</ele><time>2026-04-04T11:04:14Z</time></trkpt><trkpt lat="45.913588676992866" lon="13.37673875464958"><ele>33.0</ele><time>2026-04-04T11:04:15Z</time></trkpt><trkpt lat="45.913755135673796" lon="13.376673187013948"><ele>33.0</ele><time>2026-04-04T11:04:16Z</time></trkpt><trkpt lat="45.91392762012833" lon="13.376597039722515"><ele>33.0</ele><time>2026-04-04T11:04:17Z</time></trkpt><trkpt lat="45.91410576739239" lon="13.376517156063619"><ele>33.0</ele><time>2026-04-04T11:04:18Z</time></trkpt><trkpt lat="45.91429092679195" lon="13.376452979566299"><ele>33.0</ele><time>2026-04-04T11:04:19Z</time></trkpt><trkpt lat="45.914478934516204" lon="13.376412320267846"><ele>33.0</ele><time>2026-04-04T11:04:20Z</time></trkpt><trkpt lat="45.91466837848107" lon="13.376378668911032"><ele>33.0</ele><time>2026-04-04T11:04:21Z</time></trkpt><trkpt lat="45.91485956315683" lon="13.376342707281742"><ele>33.0</ele><time>2026-04-04T11:04:22Z</time></trkpt><trkpt lat="45.91505979973512" lon="13.376305264935295"><ele>33.333333333333336</ele><time>2026-04-04T11:04:23Z</time></trkpt><trkpt lat="45.91526360087006" lon="13.37626698421881"><ele>33.66666666666667</ele><time>2026-04-04T11:04:24Z</time></trkpt><trkpt lat="45.91547384786458" lon="13.376233603115915"><ele>34.0</ele><time>2026-04-04T11:04:25Z</time></trkpt><trkpt lat="45.91568074770992" lon="13.376203789161558"><ele>34.0</ele><time>2026-04-04T11:04:26Z</time></trkpt><trkpt lat="45.91589019151177" lon="13.376191512048138"><ele>34.0</ele><time>2026-04-04T11:04:27Z</time></trkpt><trkpt lat="45.91610197067903" lon="13.376184866991938"><ele>34.0</ele><time>2026-04-04T11:04:28Z</time></trkpt><trkpt lat="45.91631220788837" lon="13.376188248368933"><ele>33.66666666666667</ele><time>2026-04-04T11:04:29Z</time></trkpt><trkpt lat="45.91652301445554" lon="13.376190184151012"><ele>33.333333333333336</ele><time>2026-04-04T11:04:30Z</time></trkpt><trkpt lat="45.916734596722755" lon="13.37617549242418"><ele>33.0</ele><time>2026-04-04T11:04:31Z</time></trkpt><trkpt lat="45.916948115680654" lon="13.37614596641725"><ele>32.666666666666664</ele><time>2026-04-04T11:04:32Z</time></trkpt><trkpt lat="45.91716182205137" lon="13.376099361606238"><ele>32.33333333333333</ele><time>2026-04-04T11:04:33Z</time></trkpt><trkpt lat="45.9173736397357" lon="13.376057590529356"><ele>32.0</ele><time>2026-04-04T11:04:34Z</time></trkpt><trkpt lat="45.917585735304" lon="13.376021981452231"><ele>32.0</ele><time>2026-04-04T11:04:35Z</time></trkpt><trkpt lat="45.91779369047294" lon="13.375984094266611"><ele>32.0</ele><time>2026-04-04T11:04:36Z</time></trkpt><trkpt lat="45.91800456257254" lon="13.375947435856196"><ele>32.0</ele><time>2026-04-04T11:04:37Z</time></trkpt><trkpt lat="45.91821117831073" lon="13.375909199186045"><ele>32.0</ele><time>2026-04-04T11:04:38Z</time></trkpt><trkpt lat="45.91841741853896" lon="13.375865653516335"><ele>32.0</ele><time>2026-04-04T11:04:39Z</time></trkpt><trkpt lat="45.91862161027923" lon="13.375806564548135"><ele>32.0</ele><time>2026-04-04T11:04:40Z</time></trkpt><trkpt lat="45.91881622557451" lon="13.375716280066827"><ele>32.0</ele><time>2026-04-04T11:04:41Z</time></trkpt><trkpt lat="45.91899742892326" lon="13.375575560738529"><ele>32.0</ele><time>2026-04-04T11:04:42Z</time></trkpt><trkpt lat="45.91917524386656" lon="13.375431115661758"><ele>32.0</ele><time>2026-04-04T11:04:43Z</time></trkpt><trkpt lat="45.919345878996204" lon="13.375268925752565"><ele>31.666666666666664</ele><time>2026-04-04T11:04:44Z</time></trkpt><trkpt lat="45.91951142571084" lon="13.375097382665432"><ele>31.333333333333336</ele><time>2026-04-04T11:04:45Z</time></trkpt><trkpt lat="45.91967347627596" lon="13.374925683098503"><ele>31.0</ele><time>2026-04-04T11:04:46Z</time></trkpt><trkpt lat="45.91983557016771" lon="13.37475997365681"><ele>31.0</ele><time>2026-04-04T11:04:47Z</time></trkpt><trkpt lat="45.91999661456205" lon="13.374593162097323"><ele>31.0</ele><time>2026-04-04T11:04:48Z</time></trkpt><trkpt lat="45.92015286008463" lon="13.374430999072704"><ele>31.0</ele><time>2026-04-04T11:04:49Z</time></trkpt><trkpt lat="45.920307825407505" lon="13.3742792376362"><ele>31.333333333333336</ele><time>2026-04-04T11:04:50Z</time></trkpt><trkpt lat="45.920462223311496" lon="13.374137240146682"><ele>31.666666666666664</ele><time>2026-04-04T11:04:51Z</time></trkpt><trkpt lat="45.92061744929203" lon="13.374004636501162"><ele>32.0</ele><time>2026-04-04T11:04:52Z</time></trkpt><trkpt lat="45.92077203190584" lon="13.373876054054461"><ele>32.0</ele><time>2026-04-04T11:04:53Z</time></trkpt><trkpt lat="45.92091113798654" lon="13.373756179499974"><ele>32.0</ele><time>2026-04-04T11:04:54Z</time></trkpt><trkpt lat="45.92103477118097" lon="13.373650256654361"><ele>32.0</ele><time>2026-04-04T11:04:55Z</time></trkpt><trkpt lat="45.92114815725652" lon="13.37355738136031"><ele>32.0</ele><time>2026-04-04T11:04:56Z</time></trkpt><trkpt lat="45.92123137734942" lon="13.373501290767187"><ele>31.999999999999996</ele><time>2026-04-04T11:04:57Z</time></trkpt><trkpt lat="45.92129616293198" lon="13.373474230396985"><ele>32.0</ele><time>2026-04-04T11:04:58Z</time></trkpt><trkpt lat="45.92136438918809" lon="13.37346916504348"><ele>32.0</ele><time>2026-04-04T11:05:00Z</time></trkpt><trkpt lat="45.92147409834783" lon="13.373502846423184"><ele>32.0</ele><time>2026-04-04T11:05:03Z</time></trkpt><trkpt lat="45.92154228954331" lon="13.373522229002939"><ele>31.999999999999996</ele><time>2026-04-04T11:05:04Z</time></trkpt><trkpt lat="45.92163126559252" lon="13.373536356793906"><ele>32.0</ele><time>2026-04-04T11:05:05Z</time></trkpt><trkpt lat="45.921738791421284" lon="13.373588501143455"><ele>32.0</ele><time>2026-04-04T11:05:06Z</time></trkpt><trkpt lat="45.921852957471415" lon="13.373691551645335"><ele>32.0</ele><time>2026-04-04T11:05:07Z</time></trkpt><trkpt lat="45.9219762484444" lon="13.373793799098063"><ele>32.0</ele><time>2026-04-04T11:05:08Z</time></trkpt><trkpt lat="45.92208461680403" lon="13.373977125578435"><ele>32.0</ele><time>2026-04-04T11:05:09Z</time></trkpt><trkpt lat="45.92221249770429" lon="13.374150401958769"><ele>32.0</ele><time>2026-04-04T11:05:10Z</time></trkpt><trkpt lat="45.92234413450976" lon="13.374334454853562"><ele>32.0</ele><time>2026-04-04T11:05:11Z</time></trkpt><trkpt lat="45.92248328042843" lon="13.374530141309117"><ele>32.0</ele><time>2026-04-04T11:05:12Z</time></trkpt><trkpt lat="45.9226254371958" lon="13.374740470573142"><ele>32.666666666666664</ele><time>2026-04-04T11:05:13Z</time></trkpt><trkpt lat="45.92276781744137" lon="13.374957109612236"><ele>33.333333333333336</ele><time>2026-04-04T11:05:14Z</time></trkpt><trkpt lat="45.92291403372485" lon="13.375181108909766"><ele>34.0</ele><time>2026-04-04T11:05:15Z</time></trkpt><trkpt lat="45.92306305151462" lon="13.375413403257546"><ele>34.0</ele><time>2026-04-04T11:05:16Z</time></trkpt><trkpt lat="45.92321591920509" lon="13.375648478507921"><ele>34.0</ele><time>2026-04-04T11:05:17Z</time></trkpt><trkpt lat="45.923372882476414" lon="13.37588646973723"><ele>35.0</ele><time>2026-04-04T11:05:18Z</time></trkpt><trkpt lat="45.92353345532152" lon="13.37612778183593"><ele>36.0</ele><time>2026-04-04T11:05:19Z</time></trkpt><trkpt lat="45.923694795992986" lon="13.37637426075291"><ele>36.0</ele><time>2026-04-04T11:05:20Z</time></trkpt><trkpt lat="45.92385753206651" lon="13.376626673069808"><ele>36.0</ele><time>2026-04-04T11:05:21Z</time></trkpt><trkpt lat="45.92402003185339" lon="13.37688133291788"><ele>36.0</ele><time>2026-04-04T11:05:22Z</time></trkpt><trkpt lat="45.92418623687901" lon="13.377138225689052"><ele>36.0</ele><time>2026-04-04T11:05:23Z</time></trkpt><trkpt lat="45.92435449276056" lon="13.37739477593817"><ele>34.0</ele><time>2026-04-04T11:05:24Z</time></trkpt><trkpt lat="45.924523467653096" lon="13.377645278670212"><ele>32.0</ele><time>2026-04-04T11:05:25Z</time></trkpt><trkpt lat="45.9246886375647" lon="13.377898127943327"><ele>33.5</ele><time>2026-04-04T11:05:26Z</time></trkpt><trkpt lat="45.924852726400786" lon="13.378158912033442"><ele>35.0</ele><time>2026-04-04T11:05:27Z</time></trkpt><trkpt lat="45.925020125614715" lon="13.378424339937522"><ele>35.0</ele><time>2026-04-04T11:05:28Z</time></trkpt><trkpt lat="45.925193635393605" lon="13.37869366758914"><ele>35.0</ele><time>2026-04-04T11:05:29Z</time></trkpt><trkpt lat="45.9253680603396" lon="13.378963648016217"><ele>35.0</ele><time>2026-04-04T11:05:30Z</time></trkpt><trkpt lat="45.925546967465905" lon="13.379236538009762"><ele>35.0</ele><time>2026-04-04T11:05:31Z</time></trkpt><trkpt lat="45.92572757805115" lon="13.379510369341466"><ele>34.5</ele><time>2026-04-04T11:05:32Z</time></trkpt><trkpt lat="45.92590471798026" lon="13.379779965718743"><ele>34.0</ele><time>2026-04-04T11:05:33Z</time></trkpt><trkpt lat="45.9260800703943" lon="13.380047377886083"><ele>34.0</ele><time>2026-04-04T11:05:34Z</time></trkpt><trkpt lat="45.92625264944065" lon="13.38030969742205"><ele>34.0</ele><time>2026-04-04T11:05:35Z</time></trkpt><trkpt lat="45.92642310529253" lon="13.380570550493728"><ele>34.5</ele><time>2026-04-04T11:05:36Z</time></trkpt><trkpt lat="45.92658606115641" lon="13.380822656490588"><ele>35.0</ele><time>2026-04-04T11:05:36.999Z</time></trkpt><trkpt lat="45.92674193227822" lon="13.381062265320013"><ele>35.0</ele><time>2026-04-04T11:05:37.999Z</time></trkpt><trkpt lat="45.92689197383064" lon="13.381288591052693"><ele>35.0</ele><time>2026-04-04T11:05:38.999Z</time></trkpt><trkpt lat="45.92703450000151" lon="13.38150804148578"><ele>35.0</ele><time>2026-04-04T11:05:39.999Z</time></trkpt><trkpt lat="45.92716848785358" lon="13.381719918983011"><ele>35.0</ele><time>2026-04-04T11:05:40.999Z</time></trkpt><trkpt lat="45.927298615753074" lon="13.381922980650135"><ele>35.0</ele><time>2026-04-04T11:05:41.999Z</time></trkpt><trkpt lat="45.92742626212436" lon="13.38212125136565"><ele>35.0</ele><time>2026-04-04T11:05:42.999Z</time></trkpt><trkpt lat="45.927543962762144" lon="13.382309301486579"><ele>35.0</ele><time>2026-04-04T11:05:43.999Z</time></trkpt><trkpt lat="45.92764483398683" lon="13.38248173371973"><ele>35.0</ele><time>2026-04-04T11:05:44.999Z</time></trkpt><trkpt lat="45.92772520079092" lon="13.382630343656201"><ele>35.0</ele><time>2026-04-04T11:05:45.999Z</time></trkpt><trkpt lat="45.92778874581537" lon="13.38277176998304"><ele>35.0</ele><time>2026-04-04T11:05:46.999Z</time></trkpt><trkpt lat="45.92783476862367" lon="13.382903803736873"><ele>35.2</ele><time>2026-04-04T11:05:47.999Z</time></trkpt><trkpt lat="45.92785013439014" lon="13.383038446052478"><ele>35.4</ele><time>2026-04-04T11:05:48.999Z</time></trkpt><trkpt lat="45.92785444628503" lon="13.383167953288217"><ele>35.6</ele><time>2026-04-04T11:05:49.999Z</time></trkpt><trkpt lat="45.92789674641371" lon="13.38329078681194"><ele>35.8</ele><time>2026-04-04T11:05:50.999Z</time></trkpt><trkpt lat="45.92796969520179" lon="13.383392193626186"><ele>36.0</ele><time>2026-04-04T11:05:51.999Z</time></trkpt><trkpt lat="45.92806188365462" lon="13.383470343756665"><ele>36.0</ele><time>2026-04-04T11:05:52.999Z</time></trkpt><trkpt lat="45.92814539741758" lon="13.383560475500998"><ele>36.0</ele><time>2026-04-04T11:05:53.999Z</time></trkpt><trkpt lat="45.9282271964625" lon="13.383685378520747"><ele>36.0</ele><time>2026-04-04T11:05:54.999Z</time></trkpt><trkpt lat="45.92832551577486" lon="13.383821475865615"><ele>36.0</ele><time>2026-04-04T11:05:55.999Z</time></trkpt><trkpt lat="45.9284289344881" lon="13.383984788309888"><ele>36.0</ele><time>2026-04-04T11:05:56.999Z</time></trkpt><trkpt lat="45.928536108243954" lon="13.384174650107402"><ele>36.0</ele><time>2026-04-04T11:05:57.999Z</time></trkpt><trkpt lat="45.92864687426384" lon="13.384372689674958"><ele>36.0</ele><time>2026-04-04T11:05:58.999Z</time></trkpt><trkpt lat="45.92875940698301" lon="13.384588575339324"><ele>36.0</ele><time>2026-04-04T11:05:59.999Z</time></trkpt><trkpt lat="45.928873977075895" lon="13.384818700274847"><ele>36.0</ele><time>2026-04-04T11:06:00.999Z</time></trkpt><trkpt lat="45.92899434110435" lon="13.385058541919447"><ele>36.0</ele><time>2026-04-04T11:06:01.999Z</time></trkpt><trkpt lat="45.92911831198378" lon="13.385304589115577"><ele>36.333333333333336</ele><time>2026-04-04T11:06:02.999Z</time></trkpt><trkpt lat="45.92923507724905" lon="13.385534106363645"><ele>36.66666666666667</ele><time>2026-04-04T11:06:03.999Z</time></trkpt><trkpt lat="45.92934897197657" lon="13.385762216063886"><ele>37.0</ele><time>2026-04-04T11:06:04.999Z</time></trkpt><trkpt lat="45.92946185499254" lon="13.385988223942848"><ele>37.0</ele><time>2026-04-04T11:06:05.999Z</time></trkpt><trkpt lat="45.92957437093011" lon="13.386215405662972"><ele>37.0</ele><time>2026-04-04T11:06:06.999Z</time></trkpt><trkpt lat="45.929687065662684" lon="13.386439975608909"><ele>37.0</ele><time>2026-04-04T11:06:07.999Z</time></trkpt><trkpt lat="45.92979949807833" lon="13.386666185837496"><ele>36.66666666666667</ele><time>2026-04-04T11:06:08.999Z</time></trkpt><trkpt lat="45.9299114978746" lon="13.386890852033734"><ele>36.333333333333336</ele><time>2026-04-04T11:06:09.999Z</time></trkpt><trkpt lat="45.93002285504124" lon="13.38711201608098"><ele>36.0</ele><time>2026-04-04T11:06:10.999Z</time></trkpt><trkpt lat="45.93013111027717" lon="13.387331118718762"><ele>36.0</ele><time>2026-04-04T11:06:11.999Z</time></trkpt><trkpt lat="45.930238029148555" lon="13.387546913202787"><ele>36.0</ele><time>2026-04-04T11:06:12.999Z</time></trkpt><trkpt lat="45.93035074864372" lon="13.387767807927636"><ele>36.0</ele><time>2026-04-04T11:06:13.999Z</time></trkpt><trkpt lat="45.93047294976844" lon="13.387990668322486"><ele>36.333333333333336</ele><time>2026-04-04T11:06:14.999Z</time></trkpt><trkpt lat="45.930608643209894" lon="13.388182691055007"><ele>36.66666666666667</ele><time>2026-04-04T11:06:15.999Z</time></trkpt><trkpt lat="45.93076644149478" lon="13.38834288447197"><ele>37.0</ele><time>2026-04-04T11:06:16.999Z</time></trkpt><trkpt lat="45.93093906893364" lon="13.388477417418384"><ele>37.0</ele><time>2026-04-04T11:06:17.999Z</time></trkpt><trkpt lat="45.93112198768403" lon="13.388586687536288"><ele>37.0</ele><time>2026-04-04T11:06:18.999Z</time></trkpt><trkpt lat="45.93130903066023" lon="13.388690523653398"><ele>37.0</ele><time>2026-04-04T11:06:20Z</time></trkpt><trkpt lat="45.93149464633016" lon="13.388800602700286"><ele>37.0</ele><time>2026-04-04T11:06:21Z</time></trkpt><trkpt lat="45.931676250066594" lon="13.388909600066066"><ele>37.0</ele><time>2026-04-04T11:06:22Z</time></trkpt><trkpt lat="45.93185398437148" lon="13.389011051075265"><ele>37.0</ele><time>2026-04-04T11:06:23Z</time></trkpt><trkpt lat="45.93203153976033" lon="13.389113846274062"><ele>37.0</ele><time>2026-04-04T11:06:24Z</time></trkpt><trkpt lat="45.93221171877626" lon="13.389219835373886"><ele>37.0</ele><time>2026-04-04T11:06:25Z</time></trkpt><trkpt lat="45.93239399934019" lon="13.389321430484268"><ele>37.0</ele><time>2026-04-04T11:06:26Z</time></trkpt><trkpt lat="45.9325769149756" lon="13.389422141397601"><ele>37.0</ele><time>2026-04-04T11:06:27Z</time></trkpt><trkpt lat="45.93276101878334" lon="13.389525395599444"><ele>37.0</ele><time>2026-04-04T11:06:28Z</time></trkpt><trkpt lat="45.93294852454977" lon="13.389636181381858"><ele>37.0</ele><time>2026-04-04T11:06:29Z</time></trkpt><trkpt lat="45.93313937235574" lon="13.389749897738017"><ele>37.0</ele><time>2026-04-04T11:06:30Z</time></trkpt><trkpt lat="45.93333503885666" lon="13.389849744429943"><ele>37.0</ele><time>2026-04-04T11:06:31Z</time></trkpt><trkpt lat="45.933536618052955" lon="13.389918917071745"><ele>37.0</ele><time>2026-04-04T11:06:32Z</time></trkpt><trkpt lat="45.93374461335151" lon="13.389974856461057"><ele>36.66666666666667</ele><time>2026-04-04T11:06:33Z</time></trkpt><trkpt lat="45.93395657219321" lon="13.39003108778875"><ele>36.333333333333336</ele><time>2026-04-04T11:06:34Z</time></trkpt><trkpt lat="45.93416730407792" lon="13.390088209998247"><ele>36.0</ele><time>2026-04-04T11:06:35Z</time></trkpt><trkpt lat="45.934382041870165" lon="13.390139113624457"><ele>36.666666666666664</ele><time>2026-04-04T11:06:36Z</time></trkpt><trkpt lat="45.93459883474061" lon="13.390192418292166"><ele>37.33333333333333</ele><time>2026-04-04T11:06:37Z</time></trkpt><trkpt lat="45.93481905661161" lon="13.390248518574246"><ele>38.0</ele><time>2026-04-04T11:06:38Z</time></trkpt><trkpt lat="45.93504194709027" lon="13.390304954488764"><ele>38.5</ele><time>2026-04-04T11:06:39Z</time></trkpt><trkpt lat="45.93526430518812" lon="13.390363654678268"><ele>39.0</ele><time>2026-04-04T11:06:40Z</time></trkpt><trkpt lat="45.935489565198694" lon="13.390418757672274"><ele>39.0</ele><time>2026-04-04T11:06:41Z</time></trkpt><trkpt lat="45.93571804338731" lon="13.39047781404695"><ele>39.0</ele><time>2026-04-04T11:06:42Z</time></trkpt><trkpt lat="45.93594772240242" lon="13.390533874179773"><ele>37.5</ele><time>2026-04-04T11:06:43Z</time></trkpt><trkpt lat="45.93617959790682" lon="13.3905938403051"><ele>36.0</ele><time>2026-04-04T11:06:44Z</time></trkpt><trkpt lat="45.9364079724372" lon="13.390653209792"><ele>36.0</ele><time>2026-04-04T11:06:45Z</time></trkpt><trkpt lat="45.93663306634783" lon="13.390708427276095"><ele>36.0</ele><time>2026-04-04T11:06:46Z</time></trkpt><trkpt lat="45.936857925151095" lon="13.39076306385002"><ele>37.5</ele><time>2026-04-04T11:06:47Z</time></trkpt><trkpt lat="45.937081327567256" lon="13.390817564561376"><ele>39.0</ele><time>2026-04-04T11:06:48Z</time></trkpt><trkpt lat="45.937303936234976" lon="13.390874186300751"><ele>39.0</ele><time>2026-04-04T11:06:49Z</time></trkpt><trkpt lat="45.937525251301835" lon="13.39092915359372"><ele>39.0</ele><time>2026-04-04T11:06:50Z</time></trkpt><trkpt lat="45.93774330035361" lon="13.390983875335806"><ele>39.0</ele><time>2026-04-04T11:06:51Z</time></trkpt><trkpt lat="45.93795991662307" lon="13.391037689424525"><ele>39.666666666666664</ele><time>2026-04-04T11:06:52Z</time></trkpt><trkpt lat="45.93817645779816" lon="13.39109177288052"><ele>40.33333333333333</ele><time>2026-04-04T11:06:53Z</time></trkpt><trkpt lat="45.938393117843795" lon="13.391147228110112"><ele>41.0</ele><time>2026-04-04T11:06:54Z</time></trkpt><trkpt lat="45.938609609315996" lon="13.391200049488312"><ele>41.0</ele><time>2026-04-04T11:06:55Z</time></trkpt><trkpt lat="45.938826578799045" lon="13.391251205405752"><ele>41.0</ele><time>2026-04-04T11:06:56Z</time></trkpt><trkpt lat="45.93904409269506" lon="13.391302441974906"><ele>41.0</ele><time>2026-04-04T11:06:57Z</time></trkpt><trkpt lat="45.93926035567517" lon="13.391358691646593"><ele>41.0</ele><time>2026-04-04T11:06:58Z</time></trkpt><trkpt lat="45.939471688634946" lon="13.391415935463476"><ele>41.0</ele><time>2026-04-04T11:06:59Z</time></trkpt><trkpt lat="45.9396841804081" lon="13.391471708289336"><ele>41.0</ele><time>2026-04-04T11:07:00Z</time></trkpt><trkpt lat="45.9398957577528" lon="13.39153156721603"><ele>41.33333333333333</ele><time>2026-04-04T11:07:01Z</time></trkpt><trkpt lat="45.94010775071696" lon="13.391593268668501"><ele>41.666666666666664</ele><time>2026-04-04T11:07:02Z</time></trkpt><trkpt lat="45.94031993329455" lon="13.39166367638606"><ele>42.0</ele><time>2026-04-04T11:07:03Z</time></trkpt><trkpt lat="45.940528048272554" lon="13.391741435013774"><ele>42.0</ele><time>2026-04-04T11:07:04Z</time></trkpt><trkpt lat="45.940734716860746" lon="13.391829292174094"><ele>42.0</ele><time>2026-04-04T11:07:05Z</time></trkpt><trkpt lat="45.94094426262078" lon="13.391931748528911"><ele>42.0</ele><time>2026-04-04T11:07:06Z</time></trkpt><trkpt lat="45.94115618379425" lon="13.392048131827503"><ele>42.5</ele><time>2026-04-04T11:07:07Z</time></trkpt><trkpt lat="45.941370067496" lon="13.392169153077411"><ele>43.0</ele><time>2026-04-04T11:07:08Z</time></trkpt><trkpt lat="45.941586371456616" lon="13.392294702159328"><ele>44.0</ele><time>2026-04-04T11:07:09Z</time></trkpt><trkpt lat="45.941804813481326" lon="13.392419178911423"><ele>45.0</ele><time>2026-04-04T11:07:10Z</time></trkpt><trkpt lat="45.94202482321803" lon="13.392540132051046"><ele>45.0</ele><time>2026-04-04T11:07:11Z</time></trkpt><trkpt lat="45.94224549257492" lon="13.392661833006466"><ele>45.0</ele><time>2026-04-04T11:07:12Z</time></trkpt><trkpt lat="45.942468081216624" lon="13.392785835851074"><ele>45.0</ele><time>2026-04-04T11:07:13Z</time></trkpt><trkpt lat="45.94269315506868" lon="13.392914383856416"><ele>45.0</ele><time>2026-04-04T11:07:14Z</time></trkpt><trkpt lat="45.94292027331323" lon="13.393046200925538"><ele>43.5</ele><time>2026-04-04T11:07:15Z</time></trkpt><trkpt lat="45.94314752762073" lon="13.393177145717953"><ele>42.0</ele><time>2026-04-04T11:07:16Z</time></trkpt><trkpt lat="45.94337474632095" lon="13.393308436274442"><ele>43.0</ele><time>2026-04-04T11:07:17Z</time></trkpt><trkpt lat="45.94360109762096" lon="13.39343837582676"><ele>44.0</ele><time>2026-04-04T11:07:18Z</time></trkpt><trkpt lat="45.943828115415336" lon="13.393565689627824"><ele>44.0</ele><time>2026-04-04T11:07:19Z</time></trkpt><trkpt lat="45.94405429010472" lon="13.393694530378163"><ele>44.0</ele><time>2026-04-04T11:07:20Z</time></trkpt><trkpt lat="45.944278811698815" lon="13.393821951360543"><ele>44.0</ele><time>2026-04-04T11:07:21Z</time></trkpt><trkpt lat="45.94450038932577" lon="13.393951474083826"><ele>44.0</ele><time>2026-04-04T11:07:22Z</time></trkpt><trkpt lat="45.94471965202959" lon="13.394080354436362"><ele>44.0</ele><time>2026-04-04T11:07:23Z</time></trkpt><trkpt lat="45.944937733281314" lon="13.39420856101586"><ele>44.0</ele><time>2026-04-04T11:07:24Z</time></trkpt><trkpt lat="45.945155102403206" lon="13.394330927977311"><ele>45.0</ele><time>2026-04-04T11:07:25Z</time></trkpt><trkpt lat="45.94537357944513" lon="13.394445667977847"><ele>46.0</ele><time>2026-04-04T11:07:26Z</time></trkpt><trkpt lat="45.94559589663063" lon="13.394539076454837"><ele>46.0</ele><time>2026-04-04T11:07:27Z</time></trkpt><trkpt lat="45.9458238482125" lon="13.394602459835014"><ele>46.0</ele><time>2026-04-04T11:07:28Z</time></trkpt><trkpt lat="45.946055015136274" lon="13.39464472865806"><ele>46.0</ele><time>2026-04-04T11:07:29Z</time></trkpt><trkpt lat="45.94628449059141" lon="13.394680361693036"><ele>46.0</ele><time>2026-04-04T11:07:30Z</time></trkpt><trkpt lat="45.94651392859469" lon="13.394718375252504"><ele>46.5</ele><time>2026-04-04T11:07:31Z</time></trkpt><trkpt lat="45.94674361646181" lon="13.394757605378507"><ele>47.0</ele><time>2026-04-04T11:07:32Z</time></trkpt><trkpt lat="45.94697494054874" lon="13.39479577394909"><ele>47.0</ele><time>2026-04-04T11:07:33Z</time></trkpt><trkpt lat="45.947207739612296" lon="13.394837491702742"><ele>47.0</ele><time>2026-04-04T11:07:34Z</time></trkpt><trkpt lat="45.9474407723034" lon="13.394877677828926"><ele>46.5</ele><time>2026-04-04T11:07:35Z</time></trkpt><trkpt lat="45.947674329837085" lon="13.39491493100867"><ele>46.0</ele><time>2026-04-04T11:07:36Z</time></trkpt><trkpt lat="45.94791060079148" lon="13.394949272992923"><ele>46.0</ele><time>2026-04-04T11:07:37Z</time></trkpt><trkpt lat="45.94815085025786" lon="13.394975557007633"><ele>46.0</ele><time>2026-04-04T11:07:38Z</time></trkpt><trkpt lat="45.94839625943539" lon="13.39498102145034"><ele>45.5</ele><time>2026-04-04T11:07:39Z</time></trkpt><trkpt lat="45.948653696173416" lon="13.39495500596024"><ele>45.0</ele><time>2026-04-04T11:07:40Z</time></trkpt><trkpt lat="45.94892760899759" lon="13.394906409938589"><ele>45.5</ele><time>2026-04-04T11:07:41Z</time></trkpt><trkpt lat="45.94921340486306" lon="13.394854741895715"><ele>46.0</ele><time>2026-04-04T11:07:41.999Z</time></trkpt><trkpt lat="45.94950711655999" lon="13.394798947501096"><ele>46.0</ele><time>2026-04-04T11:07:42.999Z</time></trkpt><trkpt lat="45.949807829035706" lon="13.394746288266544"><ele>46.0</ele><time>2026-04-04T11:07:43.999Z</time></trkpt><trkpt lat="45.95011201327064" lon="13.394695494386344"><ele>46.0</ele><time>2026-04-04T11:07:44.999Z</time></trkpt><trkpt lat="45.95041572359431" lon="13.394641481082658"><ele>46.0</ele><time>2026-04-04T11:07:45.999Z</time></trkpt><trkpt lat="45.95071877755843" lon="13.394585224149806"><ele>46.5</ele><time>2026-04-04T11:07:46.999Z</time></trkpt><trkpt lat="45.95102120520265" lon="13.394533777891231"><ele>47.0</ele><time>2026-04-04T11:07:47.999Z</time></trkpt><trkpt lat="45.951313747777235" lon="13.39447929283525"><ele>47.0</ele><time>2026-04-04T11:07:48.999Z</time></trkpt><trkpt lat="45.95159791784439" lon="13.394433080192675"><ele>47.0</ele><time>2026-04-04T11:07:49.999Z</time></trkpt><trkpt lat="45.95187309070468" lon="13.394385949857934"><ele>48.0</ele><time>2026-04-04T11:07:50.999Z</time></trkpt><trkpt lat="45.95214200220109" lon="13.394337174356782"><ele>49.0</ele><time>2026-04-04T11:07:51.999Z</time></trkpt><trkpt lat="45.95240466979" lon="13.394296117248864"><ele>47.0</ele><time>2026-04-04T11:07:52.999Z</time></trkpt><trkpt lat="45.95265929895795" lon="13.394275024171963"><ele>45.0</ele><time>2026-04-04T11:07:53.999Z</time></trkpt><trkpt lat="45.952912807353684" lon="13.394285767033224"><ele>45.0</ele><time>2026-04-04T11:07:54.999Z</time></trkpt><trkpt lat="45.95316133437962" lon="13.394335885170111"><ele>45.0</ele><time>2026-04-04T11:07:55.999Z</time></trkpt><trkpt lat="45.95340444930915" lon="13.39441397274558"><ele>47.0</ele><time>2026-04-04T11:07:56.999Z</time></trkpt><trkpt lat="45.95364455177917" lon="13.394496437079171"><ele>49.0</ele><time>2026-04-04T11:07:57.999Z</time></trkpt><trkpt lat="45.95388309081001" lon="13.394579289706122"><ele>49.0</ele><time>2026-04-04T11:07:58.999Z</time></trkpt><trkpt lat="45.95411252460235" lon="13.39466050578157"><ele>49.0</ele><time>2026-04-04T11:07:59.999Z</time></trkpt><trkpt lat="45.95433629901457" lon="13.394739514907776"><ele>49.0</ele><time>2026-04-04T11:08:00.999Z</time></trkpt><trkpt lat="45.95455387214482" lon="13.394819309058152"><ele>49.0</ele><time>2026-04-04T11:08:01.999Z</time></trkpt><trkpt lat="45.954765689153156" lon="13.39491139491952"><ele>49.0</ele><time>2026-04-04T11:08:02.999Z</time></trkpt><trkpt lat="45.95496578164224" lon="13.394986303423607"><ele>49.666666666666664</ele><time>2026-04-04T11:08:03.999Z</time></trkpt><trkpt lat="45.95516641621461" lon="13.395048572274481"><ele>50.33333333333333</ele><time>2026-04-04T11:08:04.999Z</time></trkpt><trkpt lat="45.95536431022117" lon="13.395105172375105"><ele>51.0</ele><time>2026-04-04T11:08:05.999Z</time></trkpt><trkpt lat="45.95555593848424" lon="13.39516656938518"><ele>51.0</ele><time>2026-04-04T11:08:06.999Z</time></trkpt><trkpt lat="45.95573989650021" lon="13.395225314108467"><ele>51.0</ele><time>2026-04-04T11:08:07.999Z</time></trkpt><trkpt lat="45.95591545160253" lon="13.3952689500985"><ele>51.0</ele><time>2026-04-04T11:08:08.999Z</time></trkpt><trkpt lat="45.95611811638497" lon="13.395309224957536"><ele>50.0</ele><time>2026-04-04T11:08:09.999Z</time></trkpt><trkpt lat="45.95634701198074" lon="13.395394632038752"><ele>49.0</ele><time>2026-04-04T11:08:10.999Z</time></trkpt><trkpt lat="45.95660906785074" lon="13.395457873813712"><ele>50.0</ele><time>2026-04-04T11:08:11.999Z</time></trkpt><trkpt lat="45.95688566763752" lon="13.395568031429237"><ele>51.0</ele><time>2026-04-04T11:08:12.999Z</time></trkpt><trkpt lat="45.957178618812875" lon="13.395674284569951"><ele>51.0</ele><time>2026-04-04T11:08:13.999Z</time></trkpt><trkpt lat="45.9574904006592" lon="13.395771731874767"><ele>51.0</ele><time>2026-04-04T11:08:14.999Z</time></trkpt><trkpt lat="45.95780258517216" lon="13.395874849864237"><ele>51.0</ele><time>2026-04-04T11:08:15.999Z</time></trkpt><trkpt lat="45.95810774443089" lon="13.395978205216537"><ele>51.0</ele><time>2026-04-04T11:08:16.999Z</time></trkpt><trkpt lat="45.95840671829819" lon="13.396082296824476"><ele>51.0</ele><time>2026-04-04T11:08:17.999Z</time></trkpt><trkpt lat="45.95869676351439" lon="13.396173112383496"><ele>51.0</ele><time>2026-04-04T11:08:18.999Z</time></trkpt><trkpt lat="45.958980911039944" lon="13.396265672489532"><ele>49.5</ele><time>2026-04-04T11:08:19.999Z</time></trkpt><trkpt lat="45.95925935130459" lon="13.396355988283794"><ele>48.0</ele><time>2026-04-04T11:08:20.999Z</time></trkpt><trkpt lat="45.95952972516589" lon="13.396437439474594"><ele>48.0</ele><time>2026-04-04T11:08:21.999Z</time></trkpt><trkpt lat="45.95979387425165" lon="13.396505491045984"><ele>48.0</ele><time>2026-04-04T11:08:22.999Z</time></trkpt><trkpt lat="45.96003650422231" lon="13.396564685570077"><ele>49.0</ele><time>2026-04-04T11:08:23.999Z</time></trkpt><trkpt lat="45.96026598328304" lon="13.39662286694231"><ele>50.0</ele><time>2026-04-04T11:08:24.999Z</time></trkpt><trkpt lat="45.96048138125268" lon="13.396679733347419"><ele>50.0</ele><time>2026-04-04T11:08:26Z</time></trkpt><trkpt lat="45.96068888443337" lon="13.396733148072448"><ele>50.0</ele><time>2026-04-04T11:08:27Z</time></trkpt><trkpt lat="45.96088642403638" lon="13.39678424643489"><ele>50.0</ele><time>2026-04-04T11:08:28Z</time></trkpt><trkpt lat="45.961075158223686" lon="13.396832930845335"><ele>51.0</ele><time>2026-04-04T11:08:29Z</time></trkpt><trkpt lat="45.961251383894144" lon="13.396881632423836"><ele>52.0</ele><time>2026-04-04T11:08:30Z</time></trkpt><trkpt lat="45.96143286321617" lon="13.396926926478672"><ele>53.0</ele><time>2026-04-04T11:08:31Z</time></trkpt><trkpt lat="45.96161083915183" lon="13.39697760997139"><ele>53.333333333333336</ele><time>2026-04-04T11:08:32Z</time></trkpt><trkpt lat="45.96178270399325" lon="13.397024978926492"><ele>53.66666666666667</ele><time>2026-04-04T11:08:33Z</time></trkpt><trkpt lat="45.96195051519064" lon="13.397067437640239"><ele>54.0</ele><time>2026-04-04T11:08:34Z</time></trkpt><trkpt lat="45.96211781289139" lon="13.397118979007194"><ele>54.0</ele><time>2026-04-04T11:08:35Z</time></trkpt><trkpt lat="45.9622871804277" lon="13.397168983024173"><ele>54.0</ele><time>2026-04-04T11:08:36Z</time></trkpt><trkpt lat="45.96246390166252" lon="13.397216031645904"><ele>54.0</ele><time>2026-04-04T11:08:37Z</time></trkpt><trkpt lat="45.962650052313734" lon="13.397261159530876"><ele>54.0</ele><time>2026-04-04T11:08:38Z</time></trkpt><trkpt lat="45.96283903820297" lon="13.397315729269625"><ele>54.0</ele><time>2026-04-04T11:08:39Z</time></trkpt><trkpt lat="45.963031380809795" lon="13.397380077738275"><ele>54.0</ele><time>2026-04-04T11:08:40Z</time></trkpt><trkpt lat="45.9632243201502" lon="13.397459108522032"><ele>54.33333333333333</ele><time>2026-04-04T11:08:41Z</time></trkpt><trkpt lat="45.96341578985933" lon="13.397547319340982"><ele>54.666666666666664</ele><time>2026-04-04T11:08:42Z</time></trkpt><trkpt lat="45.963607605077016" lon="13.397636221115844"><ele>55.0</ele><time>2026-04-04T11:08:43Z</time></trkpt><trkpt lat="45.96379518723244" lon="13.397722274169968"><ele>55.0</ele><time>2026-04-04T11:08:44Z</time></trkpt><trkpt lat="45.96398125354005" lon="13.397805796654985"><ele>55.0</ele><time>2026-04-04T11:08:45Z</time></trkpt><trkpt lat="45.964165166821324" lon="13.397884377639391"><ele>55.0</ele><time>2026-04-04T11:08:46Z</time></trkpt><trkpt lat="45.964345240447194" lon="13.397964639870334"><ele>55.0</ele><time>2026-04-04T11:08:47Z</time></trkpt><trkpt lat="45.96452027582134" lon="13.398044667630867"><ele>55.0</ele><time>2026-04-04T11:08:48Z</time></trkpt><trkpt lat="45.96469377969395" lon="13.398118812253047"><ele>55.0</ele><time>2026-04-04T11:08:49Z</time></trkpt><trkpt lat="45.96486632978466" lon="13.398188640839976"><ele>55.33333333333333</ele><time>2026-04-04T11:08:50Z</time></trkpt><trkpt lat="45.965039461446786" lon="13.39825255996016"><ele>55.66666666666667</ele><time>2026-04-04T11:08:51Z</time></trkpt><trkpt lat="45.965214264968964" lon="13.39830130889469"><ele>56.0</ele><time>2026-04-04T11:08:52Z</time></trkpt><trkpt lat="45.96539247017358" lon="13.398332908815076"><ele>56.0</ele><time>2026-04-04T11:08:53Z</time></trkpt><trkpt lat="45.96557072642398" lon="13.398356923334894"><ele>56.0</ele><time>2026-04-04T11:08:54Z</time></trkpt><trkpt lat="45.96575016205014" lon="13.39837721162261"><ele>56.0</ele><time>2026-04-04T11:08:55Z</time></trkpt><trkpt lat="45.96592862079417" lon="13.398398796437263"><ele>55.66666666666667</ele><time>2026-04-04T11:08:56Z</time></trkpt><trkpt lat="45.96610602752987" lon="13.398417771084018"><ele>55.33333333333333</ele><time>2026-04-04T11:08:57Z</time></trkpt><trkpt lat="45.96627960041147" lon="13.398438651754327"><ele>55.0</ele><time>2026-04-04T11:08:58Z</time></trkpt><trkpt lat="45.96644932297648" lon="13.398457184439698"><ele>55.0</ele><time>2026-04-04T11:08:59Z</time></trkpt><trkpt lat="45.96661331299216" lon="13.39847241061518"><ele>55.0</ele><time>2026-04-04T11:09:00Z</time></trkpt><trkpt lat="45.966774099229376" lon="13.398484085819971"><ele>55.0</ele><time>2026-04-04T11:09:01Z</time></trkpt><trkpt lat="45.966932890867675" lon="13.398490906104824"><ele>55.666666666666664</ele><time>2026-04-04T11:09:02Z</time></trkpt><trkpt lat="45.967094466660214" lon="13.3984827277609"><ele>56.33333333333333</ele><time>2026-04-04T11:09:03Z</time></trkpt><trkpt lat="45.96725627875672" lon="13.398462978125352"><ele>57.0</ele><time>2026-04-04T11:09:04Z</time></trkpt><trkpt lat="45.96741815403668" lon="13.398436085576948"><ele>57.33333333333333</ele><time>2026-04-04T11:09:05Z</time></trkpt><trkpt lat="45.96758161077266" lon="13.398402264323067"><ele>57.666666666666664</ele><time>2026-04-04T11:09:06Z</time></trkpt><trkpt lat="45.96774412820495" lon="13.398365599710917"><ele>58.0</ele><time>2026-04-04T11:09:07Z</time></trkpt><trkpt lat="45.967906115539925" lon="13.39832483873532"><ele>58.0</ele><time>2026-04-04T11:09:08Z</time></trkpt><trkpt lat="45.96806661455719" lon="13.398284721842678"><ele>58.0</ele><time>2026-04-04T11:09:09Z</time></trkpt><trkpt lat="45.96822592588137" lon="13.398247157575634"><ele>58.0</ele><time>2026-04-04T11:09:10Z</time></trkpt><trkpt lat="45.968378454351424" lon="13.398211297387164"><ele>58.0</ele><time>2026-04-04T11:09:11Z</time></trkpt><trkpt lat="45.968515209284604" lon="13.398178295709982"><ele>58.0</ele><time>2026-04-04T11:09:12Z</time></trkpt><trkpt lat="45.968647094340305" lon="13.398145561400522"><ele>58.0</ele><time>2026-04-04T11:09:13Z</time></trkpt><trkpt lat="45.968778857097256" lon="13.39811244272988"><ele>58.0</ele><time>2026-04-04T11:09:14Z</time></trkpt><trkpt lat="45.96890801913254" lon="13.398078982215214"><ele>58.0</ele><time>2026-04-04T11:09:15Z</time></trkpt><trkpt lat="45.96903724094708" lon="13.398050912639869"><ele>58.0</ele><time>2026-04-04T11:09:16Z</time></trkpt><trkpt lat="45.969165759268236" lon="13.398019347918122"><ele>58.0</ele><time>2026-04-04T11:09:17Z</time></trkpt><trkpt lat="45.96929469899483" lon="13.397992441517172"><ele>58.0</ele><time>2026-04-04T11:09:18Z</time></trkpt><trkpt lat="45.969422095361644" lon="13.397961313335639"><ele>58.4</ele><time>2026-04-04T11:09:19Z</time></trkpt><trkpt lat="45.96954362962391" lon="13.397925561065396"><ele>58.8</ele><time>2026-04-04T11:09:20Z</time></trkpt><trkpt lat="45.969651994685755" lon="13.397896581071043"><ele>59.2</ele><time>2026-04-04T11:09:21Z</time></trkpt><trkpt lat="45.96975028921885" lon="13.39786768124589"><ele>59.6</ele><time>2026-04-04T11:09:22Z</time></trkpt><trkpt lat="45.9698333371982" lon="13.397836954861548"><ele>60.0</ele><time>2026-04-04T11:09:23Z</time></trkpt><trkpt lat="45.96991029391932" lon="13.397814974520312"><ele>60.0</ele><time>2026-04-04T11:09:24Z</time></trkpt><trkpt lat="45.96999908246284" lon="13.397800392187603"><ele>60.0</ele><time>2026-04-04T11:09:25Z</time></trkpt><trkpt lat="45.97009950392351" lon="13.397778643375165"><ele>60.0</ele><time>2026-04-04T11:09:26Z</time></trkpt><trkpt lat="45.970215336051965" lon="13.39776499863807"><ele>60.0</ele><time>2026-04-04T11:09:27Z</time></trkpt><trkpt lat="45.970348659474055" lon="13.397763938391215"><ele>60.0</ele><time>2026-04-04T11:09:28Z</time></trkpt><trkpt lat="45.97048587832271" lon="13.397755938038127"><ele>60.0</ele><time>2026-04-04T11:09:29Z</time></trkpt><trkpt lat="45.970629236332286" lon="13.397744454274047"><ele>60.0</ele><time>2026-04-04T11:09:30Z</time></trkpt><trkpt lat="45.97077218481748" lon="13.39772829244711"><ele>60.0</ele><time>2026-04-04T11:09:31Z</time></trkpt><trkpt lat="45.97091401061175" lon="13.397714380255278"><ele>60.0</ele><time>2026-04-04T11:09:32Z</time></trkpt><trkpt lat="45.97104705483987" lon="13.397706279163348"><ele>60.25</ele><time>2026-04-04T11:09:33Z</time></trkpt><trkpt lat="45.971176879539854" lon="13.397699067711452"><ele>60.5</ele><time>2026-04-04T11:09:34Z</time></trkpt><trkpt lat="45.97130506813374" lon="13.397689241893069"><ele>60.75</ele><time>2026-04-04T11:09:35Z</time></trkpt><trkpt lat="45.97142869188226" lon="13.397675427568952"><ele>61.0</ele><time>2026-04-04T11:09:36Z</time></trkpt><trkpt lat="45.97155098473823" lon="13.397678524969521"><ele>61.0</ele><time>2026-04-04T11:09:37Z</time></trkpt><trkpt lat="45.97167482389187" lon="13.397674857159785"><ele>61.0</ele><time>2026-04-04T11:09:38Z</time></trkpt><trkpt lat="45.97180034295431" lon="13.397661655224907"><ele>61.0</ele><time>2026-04-04T11:09:39Z</time></trkpt><trkpt lat="45.971920522586544" lon="13.397654539602872"><ele>61.0</ele><time>2026-04-04T11:09:40Z</time></trkpt><trkpt lat="45.972028920781234" lon="13.39764343915668"><ele>61.0</ele><time>2026-04-04T11:09:41Z</time></trkpt><trkpt lat="45.97212824256452" lon="13.397642646947244"><ele>60.99999999999999</ele><time>2026-04-04T11:09:42Z</time></trkpt><trkpt lat="45.97222761883584" lon="13.397650895035657"><ele>60.99999999999999</ele><time>2026-04-04T11:09:43Z</time></trkpt><trkpt lat="45.972329324249586" lon="13.397682125382984"><ele>61.0</ele><time>2026-04-04T11:09:44Z</time></trkpt><trkpt lat="45.972422878409255" lon="13.397740617014675"><ele>61.0</ele><time>2026-04-04T11:09:44.999Z</time></trkpt><trkpt lat="45.97250516461657" lon="13.397818715698119"><ele>61.166666666666664</ele><time>2026-04-04T11:09:45.999Z</time></trkpt><trkpt lat="45.972581118257196" lon="13.397928045255625"><ele>61.33333333333333</ele><time>2026-04-04T11:09:46.999Z</time></trkpt><trkpt lat="45.972641259513786" lon="13.397961848199117"><ele>61.5</ele><time>2026-04-04T11:09:47.999Z</time></trkpt><trkpt lat="45.97271632176241" lon="13.397970195197136"><ele>61.66666666666667</ele><time>2026-04-04T11:09:48.999Z</time></trkpt><trkpt lat="45.97279207993102" lon="13.397914018128745"><ele>61.833333333333336</ele><time>2026-04-04T11:09:49.999Z</time></trkpt><trkpt lat="45.9728548184527" lon="13.397817060958475"><ele>62.0</ele><time>2026-04-04T11:09:50.999Z</time></trkpt><trkpt lat="45.9728968656591" lon="13.397699685553649"><ele>62.0</ele><time>2026-04-04T11:09:51.999Z</time></trkpt><trkpt lat="45.97294459822208" lon="13.397607418722712"><ele>62.0</ele><time>2026-04-04T11:09:52.999Z</time></trkpt><trkpt lat="45.97302032172175" lon="13.39753859848914"><ele>62.0</ele><time>2026-04-04T11:09:53.999Z</time></trkpt><trkpt lat="45.973130851858826" lon="13.397518238687665"><ele>62.0</ele><time>2026-04-04T11:09:54.999Z</time></trkpt><trkpt lat="45.97325823359293" lon="13.397522557663835"><ele>62.0</ele><time>2026-04-04T11:09:55.999Z</time></trkpt><trkpt lat="45.973395627787795" lon="13.397489021820377"><ele>62.0</ele><time>2026-04-04T11:09:56.999Z</time></trkpt><trkpt lat="45.97352786947224" lon="13.39745008435743"><ele>62.0</ele><time>2026-04-04T11:09:57.999Z</time></trkpt><trkpt lat="45.97366330127534" lon="13.397417312761432"><ele>62.0</ele><time>2026-04-04T11:09:58.999Z</time></trkpt><trkpt lat="45.973810601993804" lon="13.39737923008504"><ele>62.0</ele><time>2026-04-04T11:09:59.999Z</time></trkpt><trkpt lat="45.97396617904763" lon="13.39734256107738"><ele>62.0</ele><time>2026-04-04T11:10:00.999Z</time></trkpt><trkpt lat="45.97412845546113" lon="13.39730658929136"><ele>62.0</ele><time>2026-04-04T11:10:01.999Z</time></trkpt><trkpt lat="45.97428784988375" lon="13.39727439834089"><ele>62.0</ele><time>2026-04-04T11:10:02.999Z</time></trkpt><trkpt lat="45.97442156797428" lon="13.397247881543109"><ele>62.0</ele><time>2026-04-04T11:10:03.999Z</time></trkpt><trkpt lat="45.97454090975219" lon="13.397225051031162"><ele>62.0</ele><time>2026-04-04T11:10:04.999Z</time></trkpt><trkpt lat="45.97464738884543" lon="13.397206659095083"><ele>62.0</ele><time>2026-04-04T11:10:05.999Z</time></trkpt><trkpt lat="45.974744565827805" lon="13.397186897296919"><ele>62.0</ele><time>2026-04-04T11:10:06.999Z</time></trkpt><trkpt lat="45.9748243581026" lon="13.397170158616962"><ele>62.0</ele><time>2026-04-04T11:10:07.999Z</time></trkpt><trkpt lat="45.97489233001352" lon="13.397156767088303"><ele>62.0</ele><time>2026-04-04T11:10:08.999Z</time></trkpt><trkpt lat="45.97501565768746" lon="13.39715654497392"><ele>62.0</ele><time>2026-04-04T11:10:10.999Z</time></trkpt><trkpt lat="45.97507988177052" lon="13.397165187442319"><ele>62.0</ele><time>2026-04-04T11:10:11.999Z</time></trkpt><trkpt lat="45.975158392726016" lon="13.397155764535322"><ele>62.0</ele><time>2026-04-04T11:10:12.999Z</time></trkpt><trkpt lat="45.97526549723982" lon="13.397094834509614"><ele>62.0</ele><time>2026-04-04T11:10:13.999Z</time></trkpt><trkpt lat="45.97541312098798" lon="13.397051909266176"><ele>62.0</ele><time>2026-04-04T11:10:14.999Z</time></trkpt><trkpt lat="45.97558844794555" lon="13.397016472030565"><ele>62.0</ele><time>2026-04-04T11:10:15.999Z</time></trkpt><trkpt lat="45.97578758979422" lon="13.396989874984714"><ele>62.0</ele><time>2026-04-04T11:10:16.999Z</time></trkpt><trkpt lat="45.97598706929316" lon="13.396979295106132"><ele>62.333333333333336</ele><time>2026-04-04T11:10:17.999Z</time></trkpt><trkpt lat="45.97618453914295" lon="13.396979317070253"><ele>62.66666666666667</ele><time>2026-04-04T11:10:18.999Z</time></trkpt><trkpt lat="45.97638680565217" lon="13.396969696100204"><ele>63.0</ele><time>2026-04-04T11:10:19.999Z</time></trkpt><trkpt lat="45.976584715063446" lon="13.396961201030035"><ele>63.33333333333333</ele><time>2026-04-04T11:10:20.999Z</time></trkpt><trkpt lat="45.976781998847606" lon="13.396956883345773"><ele>63.666666666666664</ele><time>2026-04-04T11:10:21.999Z</time></trkpt><trkpt lat="45.97697704063851" lon="13.39692769808749"><ele>64.0</ele><time>2026-04-04T11:10:22.999Z</time></trkpt><trkpt lat="45.97717269939073" lon="13.396912898484237"><ele>64.0</ele><time>2026-04-04T11:10:23.999Z</time></trkpt><trkpt lat="45.97734757037887" lon="13.396881247683048"><ele>64.0</ele><time>2026-04-04T11:10:24.999Z</time></trkpt><trkpt lat="45.97752499400821" lon="13.396849173379287"><ele>64.0</ele><time>2026-04-04T11:10:25.999Z</time></trkpt><trkpt lat="45.97770265997128" lon="13.396818110086123"><ele>63.666666666666664</ele><time>2026-04-04T11:10:26.999Z</time></trkpt><trkpt lat="45.97787054333683" lon="13.396787966636188"><ele>63.33333333333333</ele><time>2026-04-04T11:10:27.999Z</time></trkpt><trkpt lat="45.9780217128334" lon="13.396759165826776"><ele>63.0</ele><time>2026-04-04T11:10:28.999Z</time></trkpt><trkpt lat="45.978159041557625" lon="13.396738138690441"><ele>63.0</ele><time>2026-04-04T11:10:29.999Z</time></trkpt><trkpt lat="45.978285180887404" lon="13.39674350943044"><ele>63.0</ele><time>2026-04-04T11:10:30.999Z</time></trkpt><trkpt lat="45.978411124794036" lon="13.396771868840904"><ele>63.0</ele><time>2026-04-04T11:10:32Z</time></trkpt><trkpt lat="45.97853465607573" lon="13.396826523771324"><ele>63.0</ele><time>2026-04-04T11:10:33Z</time></trkpt><trkpt lat="45.97865214877952" lon="13.396907596566738"><ele>63.0</ele><time>2026-04-04T11:10:34Z</time></trkpt><trkpt lat="45.97876233331869" lon="13.396999026068304"><ele>63.0</ele><time>2026-04-04T11:10:35Z</time></trkpt><trkpt lat="45.978849990856" lon="13.397130630313129"><ele>63.0</ele><time>2026-04-04T11:10:36Z</time></trkpt><trkpt lat="45.978946975436266" lon="13.397242407066349"><ele>63.0</ele><time>2026-04-04T11:10:37Z</time></trkpt><trkpt lat="45.97902987790502" lon="13.397372906830494"><ele>63.0</ele><time>2026-04-04T11:10:38Z</time></trkpt><trkpt lat="45.979106043710985" lon="13.397487507961282"><ele>63.0</ele><time>2026-04-04T11:10:39Z</time></trkpt><trkpt lat="45.979169420372145" lon="13.397588445963047"><ele>63.0</ele><time>2026-04-04T11:10:40Z</time></trkpt><trkpt lat="45.97922339721227" lon="13.39769014405276"><ele>63.0</ele><time>2026-04-04T11:10:41Z</time></trkpt><trkpt lat="45.97928279940968" lon="13.39778329181768"><ele>63.0</ele><time>2026-04-04T11:10:42Z</time></trkpt><trkpt lat="45.97933584617165" lon="13.397856924352599"><ele>63.2</ele><time>2026-04-04T11:10:43Z</time></trkpt><trkpt lat="45.97941198993698" lon="13.397883876509855"><ele>63.4</ele><time>2026-04-04T11:10:44Z</time></trkpt><trkpt lat="45.9794863512154" lon="13.397912805922495"><ele>63.60000000000001</ele><time>2026-04-04T11:10:45Z</time></trkpt><trkpt lat="45.97957646363341" lon="13.397899762121964"><ele>63.800000000000004</ele><time>2026-04-04T11:10:46Z</time></trkpt><trkpt lat="45.97968511778173" lon="13.397923864164454"><ele>64.0</ele><time>2026-04-04T11:10:47Z</time></trkpt><trkpt lat="45.9798154209114" lon="13.39798793924744"><ele>63.33333333333333</ele><time>2026-04-04T11:10:48Z</time></trkpt><trkpt lat="45.97995839003923" lon="13.39806655678867"><ele>62.66666666666667</ele><time>2026-04-04T11:10:49Z</time></trkpt><trkpt lat="45.98011882332553" lon="13.398145325114344"><ele>62.0</ele><time>2026-04-04T11:10:50Z</time></trkpt><trkpt lat="45.98027924614004" lon="13.398239294261725"><ele>61.333333333333336</ele><time>2026-04-04T11:10:51Z</time></trkpt><trkpt lat="45.98042622708319" lon="13.398358487585407"><ele>60.66666666666667</ele><time>2026-04-04T11:10:52Z</time></trkpt><trkpt lat="45.98055791554442" lon="13.398504704875647"><ele>60.0</ele><time>2026-04-04T11:10:53Z</time></trkpt><trkpt lat="45.9806757707009" lon="13.398667603424308"><ele>60.33333333333333</ele><time>2026-04-04T11:10:54Z</time></trkpt><trkpt lat="45.98078535784782" lon="13.398849642736677"><ele>60.666666666666664</ele><time>2026-04-04T11:10:55Z</time></trkpt><trkpt lat="45.980900890173636" lon="13.399037182236482"><ele>61.0</ele><time>2026-04-04T11:10:56Z</time></trkpt><trkpt lat="45.98101393161967" lon="13.399241516719258"><ele>61.0</ele><time>2026-04-04T11:10:57Z</time></trkpt><trkpt lat="45.9811302680233" lon="13.399453340774807"><ele>61.0</ele><time>2026-04-04T11:10:58Z</time></trkpt><trkpt lat="45.98123648363887" lon="13.39963937882014"><ele>61.0</ele><time>2026-04-04T11:10:59Z</time></trkpt><trkpt lat="45.98132393069456" lon="13.39979514394345"><ele>61.0</ele><time>2026-04-04T11:11:00Z</time></trkpt><trkpt lat="45.98139360284986" lon="13.3999134418802"><ele>60.99999999999999</ele><time>2026-04-04T11:11:01Z</time></trkpt><trkpt lat="45.981452278504904" lon="13.40001192428606"><ele>60.99999999999999</ele><time>2026-04-04T11:11:02Z</time></trkpt><trkpt lat="45.981507048132485" lon="13.400110322964224"><ele>61.0</ele><time>2026-04-04T11:11:03Z</time></trkpt><trkpt lat="45.98155923302393" lon="13.400205272065985"><ele>61.0</ele><time>2026-04-04T11:11:04Z</time></trkpt><trkpt lat="45.98162002624336" lon="13.400308742190859"><ele>60.75</ele><time>2026-04-04T11:11:05Z</time></trkpt><trkpt lat="45.981691663146975" lon="13.400430712697151"><ele>60.5</ele><time>2026-04-04T11:11:06Z</time></trkpt><trkpt lat="45.98178006128676" lon="13.400558546257267"><ele>60.25</ele><time>2026-04-04T11:11:07Z</time></trkpt><trkpt lat="45.98188683459655" lon="13.400680394027342"><ele>60.0</ele><time>2026-04-04T11:11:08Z</time></trkpt><trkpt lat="45.9820126641442" lon="13.40079258776196"><ele>61.0</ele><time>2026-04-04T11:11:09Z</time></trkpt><trkpt lat="45.98214879553621" lon="13.400891611589298"><ele>62.0</ele><time>2026-04-04T11:11:10Z</time></trkpt><trkpt lat="45.98229425663112" lon="13.400963956394737"><ele>63.0</ele><time>2026-04-04T11:11:11Z</time></trkpt><trkpt lat="45.98245867895295" lon="13.401002218150468"><ele>61.66666666666667</ele><time>2026-04-04T11:11:12Z</time></trkpt><trkpt lat="45.98263203400264" lon="13.401016867911869"><ele>60.333333333333336</ele><time>2026-04-04T11:11:13Z</time></trkpt><trkpt lat="45.98280926138403" lon="13.400983204689481"><ele>59.0</ele><time>2026-04-04T11:11:14Z</time></trkpt><trkpt lat="45.98298905259436" lon="13.400941096048555"><ele>59.0</ele><time>2026-04-04T11:11:15Z</time></trkpt><trkpt lat="45.98317448362543" lon="13.400905268443472"><ele>59.0</ele><time>2026-04-04T11:11:16Z</time></trkpt><trkpt lat="45.983362528734794" lon="13.400869449636303"><ele>59.0</ele><time>2026-04-04T11:11:17Z</time></trkpt><trkpt lat="45.98355253665778" lon="13.400831686419192"><ele>58.66666666666667</ele><time>2026-04-04T11:11:18Z</time></trkpt><trkpt lat="45.983741440014384" lon="13.400792626144323"><ele>58.33333333333333</ele><time>2026-04-04T11:11:19Z</time></trkpt><trkpt lat="45.98393190866334" lon="13.400754010874246"><ele>58.0</ele><time>2026-04-04T11:11:20Z</time></trkpt><trkpt lat="45.98412328470279" lon="13.400714839478136"><ele>58.0</ele><time>2026-04-04T11:11:21Z</time></trkpt><trkpt lat="45.98431352594309" lon="13.400676420879918"><ele>58.0</ele><time>2026-04-04T11:11:22Z</time></trkpt><trkpt lat="45.98450439103495" lon="13.400636716159205"><ele>58.0</ele><time>2026-04-04T11:11:23Z</time></trkpt><trkpt lat="45.984695715417715" lon="13.400597955966061"><ele>58.0</ele><time>2026-04-04T11:11:24Z</time></trkpt><trkpt lat="45.98488554387917" lon="13.400560006139806"><ele>58.0</ele><time>2026-04-04T11:11:25Z</time></trkpt><trkpt lat="45.985073009871485" lon="13.40052483121564"><ele>58.0</ele><time>2026-04-04T11:11:26Z</time></trkpt><trkpt lat="45.98524994826568" lon="13.400490905972974"><ele>58.5</ele><time>2026-04-04T11:11:27Z</time></trkpt><trkpt lat="45.98541030771821" lon="13.400454599170512"><ele>59.0</ele><time>2026-04-04T11:11:28Z</time></trkpt><trkpt lat="45.98555718122208" lon="13.400420219644888"><ele>59.5</ele><time>2026-04-04T11:11:29Z</time></trkpt><trkpt lat="45.98569145501987" lon="13.400393379242756"><ele>60.0</ele><time>2026-04-04T11:11:30Z</time></trkpt><trkpt lat="45.98581753145701" lon="13.40036500541012"><ele>60.6</ele><time>2026-04-04T11:11:31Z</time></trkpt><trkpt lat="45.98592680500529" lon="13.400338293921989"><ele>61.2</ele><time>2026-04-04T11:11:32Z</time></trkpt><trkpt lat="45.986014464331326" lon="13.400321158310698"><ele>61.8</ele><time>2026-04-04T11:11:33Z</time></trkpt><trkpt lat="45.986116980306306" lon="13.400307880239522"><ele>62.4</ele><time>2026-04-04T11:11:35Z</time></trkpt><trkpt lat="45.98618340945652" lon="13.400325930594876"><ele>63.0</ele><time>2026-04-04T11:11:44Z</time></trkpt><trkpt lat="45.986271954278564" lon="13.40035374235629"><ele>63.0</ele><time>2026-04-04T11:11:47Z</time></trkpt><trkpt lat="45.98637208149998" lon="13.400214918411043"><ele>63.0</ele><time>2026-04-04T11:11:48.999Z</time></trkpt><trkpt lat="45.986413847432196" lon="13.400074538379888"><ele>63.0</ele><time>2026-04-04T11:11:49.999Z</time></trkpt><trkpt lat="45.98648039747955" lon="13.399934609851885"><ele>63.0</ele><time>2026-04-04T11:11:50.999Z</time></trkpt><trkpt lat="45.98657289147329" lon="13.399783195524652"><ele>63.66666666666667</ele><time>2026-04-04T11:11:51.999Z</time></trkpt><trkpt lat="45.98668201095549" lon="13.399627857139695"><ele>64.33333333333334</ele><time>2026-04-04T11:11:52.999Z</time></trkpt><trkpt lat="45.98679877154908" lon="13.39946658214848"><ele>65.0</ele><time>2026-04-04T11:11:53.999Z</time></trkpt><trkpt lat="45.98691022060505" lon="13.399324248237319"><ele>65.0</ele><time>2026-04-04T11:11:54.999Z</time></trkpt><trkpt lat="45.98701825238133" lon="13.399194637612903"><ele>65.0</ele><time>2026-04-04T11:11:55.999Z</time></trkpt><trkpt lat="45.987121594227446" lon="13.399066414998796"><ele>65.0</ele><time>2026-04-04T11:11:56.999Z</time></trkpt><trkpt lat="45.98722346596206" lon="13.39893885385997"><ele>65.0</ele><time>2026-04-04T11:11:57.999Z</time></trkpt><trkpt lat="45.987330826782056" lon="13.39881290454563"><ele>64.5</ele><time>2026-04-04T11:11:58.999Z</time></trkpt><trkpt lat="45.98744303357544" lon="13.39868818963798"><ele>64.0</ele><time>2026-04-04T11:11:59.999Z</time></trkpt><trkpt lat="45.987554622239905" lon="13.39856171068529"><ele>63.5</ele><time>2026-04-04T11:12:00.999Z</time></trkpt><trkpt lat="45.98766881571938" lon="13.398440956583123"><ele>63.0</ele><time>2026-04-04T11:12:01.999Z</time></trkpt><trkpt lat="45.987781151204544" lon="13.398327339845872"><ele>63.0</ele><time>2026-04-04T11:12:02.999Z</time></trkpt><trkpt lat="45.987893211265614" lon="13.398219623726428"><ele>63.0</ele><time>2026-04-04T11:12:03.999Z</time></trkpt><trkpt lat="45.98800638782349" lon="13.398123852485684"><ele>63.0</ele><time>2026-04-04T11:12:04.999Z</time></trkpt><trkpt lat="45.988121652056144" lon="13.398037711800065"><ele>63.0</ele><time>2026-04-04T11:12:05.999Z</time></trkpt><trkpt lat="45.988236199610945" lon="13.397953313947973"><ele>63.25</ele><time>2026-04-04T11:12:06.999Z</time></trkpt><trkpt lat="45.988352460692916" lon="13.397873839751892"><ele>63.5</ele><time>2026-04-04T11:12:07.999Z</time></trkpt><trkpt lat="45.98847072502646" lon="13.397798211286542"><ele>63.75</ele><time>2026-04-04T11:12:08.999Z</time></trkpt><trkpt lat="45.98859063567519" lon="13.397721846604883"><ele>64.0</ele><time>2026-04-04T11:12:09.999Z</time></trkpt><trkpt lat="45.9887167986802" lon="13.39764891375194"><ele>64.0</ele><time>2026-04-04T11:12:10.999Z</time></trkpt><trkpt lat="45.988844124989036" lon="13.397574183845256"><ele>64.0</ele><time>2026-04-04T11:12:11.999Z</time></trkpt><trkpt lat="45.98897248343695" lon="13.39749974701518"><ele>64.0</ele><time>2026-04-04T11:12:12.999Z</time></trkpt><trkpt lat="45.98910544025493" lon="13.397433195830388"><ele>64.0</ele><time>2026-04-04T11:12:13.999Z</time></trkpt><trkpt lat="45.989239923386386" lon="13.397373093423143"><ele>63.75</ele><time>2026-04-04T11:12:14.999Z</time></trkpt><trkpt lat="45.98937763605758" lon="13.397326240125025"><ele>63.5</ele><time>2026-04-04T11:12:15.999Z</time></trkpt><trkpt lat="45.989518209697664" lon="13.397289926866394"><ele>63.25</ele><time>2026-04-04T11:12:16.999Z</time></trkpt><trkpt lat="45.98965642799903" lon="13.397255569093499"><ele>63.0</ele><time>2026-04-04T11:12:17.999Z</time></trkpt><trkpt lat="45.98979427950377" lon="13.397220533106408"><ele>63.0</ele><time>2026-04-04T11:12:18.999Z</time></trkpt><trkpt lat="45.9899325845569" lon="13.397191416244974"><ele>63.0</ele><time>2026-04-04T11:12:19.999Z</time></trkpt><trkpt lat="45.990070467093474" lon="13.397161472759324"><ele>63.0</ele><time>2026-04-04T11:12:20.999Z</time></trkpt><trkpt lat="45.99020346887957" lon="13.397104822809688"><ele>63.0</ele><time>2026-04-04T11:12:21.999Z</time></trkpt><trkpt lat="45.99032910262761" lon="13.397024498873735"><ele>63.25</ele><time>2026-04-04T11:12:22.999Z</time></trkpt><trkpt lat="45.990440424773496" lon="13.396914412080921"><ele>63.5</ele><time>2026-04-04T11:12:23.999Z</time></trkpt><trkpt lat="45.99053880678999" lon="13.396776535454448"><ele>63.75</ele><time>2026-04-04T11:12:24.999Z</time></trkpt><trkpt lat="45.990620406217936" lon="13.39662292108906"><ele>64.0</ele><time>2026-04-04T11:12:25.999Z</time></trkpt><trkpt lat="45.990690729318715" lon="13.396454957706858"><ele>63.75</ele><time>2026-04-04T11:12:26.999Z</time></trkpt><trkpt lat="45.990757169722194" lon="13.396281336992446"><ele>63.5</ele><time>2026-04-04T11:12:27.999Z</time></trkpt><trkpt lat="45.99082216630394" lon="13.39610541177428"><ele>63.25</ele><time>2026-04-04T11:12:28.999Z</time></trkpt><trkpt lat="45.99089140487961" lon="13.395924529195046"><ele>63.0</ele><time>2026-04-04T11:12:29.999Z</time></trkpt><trkpt lat="45.9909619469255" lon="13.395740370615911"><ele>63.5</ele><time>2026-04-04T11:12:30.999Z</time></trkpt><trkpt lat="45.9910304278768" lon="13.39555006170961"><ele>64.0</ele><time>2026-04-04T11:12:31.999Z</time></trkpt><trkpt lat="45.991103234483944" lon="13.39536353916829"><ele>64.5</ele><time>2026-04-04T11:12:32.999Z</time></trkpt><trkpt lat="45.9911790491985" lon="13.395174702701"><ele>65.0</ele><time>2026-04-04T11:12:33.999Z</time></trkpt><trkpt lat="45.99124995342795" lon="13.394982385894671"><ele>65.0</ele><time>2026-04-04T11:12:34.999Z</time></trkpt><trkpt lat="45.99133511630516" lon="13.39480033506583"><ele>65.0</ele><time>2026-04-04T11:12:35.999Z</time></trkpt><trkpt lat="45.99143554310995" lon="13.394630345363778"><ele>65.0</ele><time>2026-04-04T11:12:36.999Z</time></trkpt><trkpt lat="45.991523143615666" lon="13.39444688911965"><ele>65.33333333333334</ele><time>2026-04-04T11:12:38Z</time></trkpt><trkpt lat="45.99161522562002" lon="13.39426387928056"><ele>65.66666666666667</ele><time>2026-04-04T11:12:39Z</time></trkpt><trkpt lat="45.99171345064437" lon="13.394089347003039"><ele>66.0</ele><time>2026-04-04T11:12:40Z</time></trkpt><trkpt lat="45.99180792424157" lon="13.39391113207124"><ele>66.25</ele><time>2026-04-04T11:12:41Z</time></trkpt><trkpt lat="45.99189989793945" lon="13.393731300047843"><ele>66.5</ele><time>2026-04-04T11:12:42Z</time></trkpt><trkpt lat="45.991990468290346" lon="13.393558932441817"><ele>66.75</ele><time>2026-04-04T11:12:43Z</time></trkpt><trkpt lat="45.99207648061837" lon="13.393400793463703"><ele>67.0</ele><time>2026-04-04T11:12:44Z</time></trkpt><trkpt lat="45.99216094160554" lon="13.393256756637113"><ele>67.0</ele><time>2026-04-04T11:12:45Z</time></trkpt><trkpt lat="45.992250184044146" lon="13.393122582773572"><ele>67.0</ele><time>2026-04-04T11:12:46Z</time></trkpt><trkpt lat="45.99234445090105" lon="13.39300132508529"><ele>67.0</ele><time>2026-04-04T11:12:47Z</time></trkpt><trkpt lat="45.992425697036275" lon="13.392909259496731"><ele>67.0</ele><time>2026-04-04T11:12:48Z</time></trkpt><trkpt lat="45.992492192334524" lon="13.392839107442613"><ele>67.0</ele><time>2026-04-04T11:12:49Z</time></trkpt><trkpt lat="45.99254691812803" lon="13.392786604792668"><ele>67.33333333333333</ele><time>2026-04-04T11:12:50Z</time></trkpt><trkpt lat="45.99262012509501" lon="13.392719443337912"><ele>67.66666666666666</ele><time>2026-04-04T11:12:52Z</time></trkpt><trkpt lat="45.992690902670084" lon="13.392637817647513"><ele>68.0</ele><time>2026-04-04T11:13:44Z</time></trkpt><trkpt lat="45.99274756028305" lon="13.3925913307471"><ele>68.33333333333333</ele><time>2026-04-04T11:13:45Z</time></trkpt><trkpt lat="45.992821936603576" lon="13.392530500612617"><ele>68.66666666666667</ele><time>2026-04-04T11:13:46Z</time></trkpt><trkpt lat="45.99291173499768" lon="13.392442780784915"><ele>69.0</ele><time>2026-04-04T11:13:47Z</time></trkpt><trkpt lat="45.9930224085693" lon="13.392345054663936"><ele>69.0</ele><time>2026-04-04T11:13:48Z</time></trkpt><trkpt lat="45.99313979644459" lon="13.392249569527257"><ele>69.0</ele><time>2026-04-04T11:13:49Z</time></trkpt><trkpt lat="45.99324623645632" lon="13.392162290000956"><ele>69.0</ele><time>2026-04-04T11:13:50Z</time></trkpt><trkpt lat="45.99335270795988" lon="13.392083029339828"><ele>69.0</ele><time>2026-04-04T11:13:51Z</time></trkpt><trkpt lat="45.99347407827168" lon="13.391999458404907"><ele>69.33333333333333</ele><time>2026-04-04T11:13:51.999Z</time></trkpt><trkpt lat="45.99360974249282" lon="13.391914290783612"><ele>69.66666666666666</ele><time>2026-04-04T11:13:52.999Z</time></trkpt><trkpt lat="45.9937522450865" lon="13.391827983271163"><ele>70.0</ele><time>2026-04-04T11:13:53.999Z</time></trkpt><trkpt lat="45.993895924797286" lon="13.391747754277876"><ele>70.0</ele><time>2026-04-04T11:13:54.999Z</time></trkpt><trkpt lat="45.994034902343294" lon="13.391684283475763"><ele>70.0</ele><time>2026-04-04T11:13:55.999Z</time></trkpt><trkpt lat="45.99417276461913" lon="13.391625740913966"><ele>70.0</ele><time>2026-04-04T11:13:56.999Z</time></trkpt><trkpt lat="45.99431163119132" lon="13.391553322961446"><ele>70.0</ele><time>2026-04-04T11:13:57.999Z</time></trkpt><trkpt lat="45.99445250160214" lon="13.39146366773515"><ele>70.0</ele><time>2026-04-04T11:13:58.999Z</time></trkpt><trkpt lat="45.994594347984744" lon="13.39134986639845"><ele>70.0</ele><time>2026-04-04T11:13:59.999Z</time></trkpt><trkpt lat="45.99472878832408" lon="13.39123523501751"><ele>70.0</ele><time>2026-04-04T11:14:00.999Z</time></trkpt><trkpt lat="45.994864314105676" lon="13.391134217988121"><ele>70.0</ele><time>2026-04-04T11:14:01.999Z</time></trkpt><trkpt lat="45.99500041890025" lon="13.391071816092563"><ele>70.0</ele><time>2026-04-04T11:14:02.999Z</time></trkpt><trkpt lat="45.99515047473032" lon="13.391029765674567"><ele>70.0</ele><time>2026-04-04T11:14:03.999Z</time></trkpt><trkpt lat="45.99531206944762" lon="13.390976796470587"><ele>70.0</ele><time>2026-04-04T11:14:04.999Z</time></trkpt><trkpt lat="45.995484450628304" lon="13.390923383888031"><ele>70.0</ele><time>2026-04-04T11:14:05.999Z</time></trkpt><trkpt lat="45.99566699057912" lon="13.390876731405104"><ele>70.0</ele><time>2026-04-04T11:14:06.999Z</time></trkpt><trkpt lat="45.995858014198824" lon="13.39083286050148"><ele>70.0</ele><time>2026-04-04T11:14:07.999Z</time></trkpt><trkpt lat="45.996048425427716" lon="13.390789993351115"><ele>70.0</ele><time>2026-04-04T11:14:08.999Z</time></trkpt><trkpt lat="45.99624408824796" lon="13.390754428910899"><ele>70.0</ele><time>2026-04-04T11:14:09.999Z</time></trkpt><trkpt lat="45.996437902667836" lon="13.390733569328479"><ele>70.0</ele><time>2026-04-04T11:14:10.999Z</time></trkpt><trkpt lat="45.99663060078509" lon="13.390716449190364"><ele>70.0</ele><time>2026-04-04T11:14:11.999Z</time></trkpt><trkpt lat="45.99681854831235" lon="13.390707210468328"><ele>70.0</ele><time>2026-04-04T11:14:12.999Z</time></trkpt><trkpt lat="45.997005986289885" lon="13.390699369742958"><ele>70.33333333333333</ele><time>2026-04-04T11:14:13.999Z</time></trkpt><trkpt lat="45.99719240956772" lon="13.390703688607722"><ele>70.66666666666667</ele><time>2026-04-04T11:14:14.999Z</time></trkpt><trkpt lat="45.99738311753003" lon="13.390729840894279"><ele>71.0</ele><time>2026-04-04T11:14:15.999Z</time></trkpt><trkpt lat="45.99757381705797" lon="13.390782147845622"><ele>71.33333333333334</ele><time>2026-04-04T11:14:16.999Z</time></trkpt><trkpt lat="45.997759841516874" lon="13.390861807172442"><ele>71.66666666666667</ele><time>2026-04-04T11:14:17.999Z</time></trkpt><trkpt lat="45.9979429729295" lon="13.390955481862433"><ele>72.0</ele><time>2026-04-04T11:14:18.999Z</time></trkpt><trkpt lat="45.99813204717005" lon="13.391057484629725"><ele>72.0</ele><time>2026-04-04T11:14:19.999Z</time></trkpt><trkpt lat="45.99832833952458" lon="13.391158251352673"><ele>72.0</ele><time>2026-04-04T11:14:20.999Z</time></trkpt><trkpt lat="45.99853029614641" lon="13.391265187604674"><ele>72.0</ele><time>2026-04-04T11:14:21.999Z</time></trkpt><trkpt lat="45.99873867765078" lon="13.391372112115363"><ele>72.0</ele><time>2026-04-04T11:14:22.999Z</time></trkpt><trkpt lat="45.99894478081733" lon="13.391457230417206"><ele>72.0</ele><time>2026-04-04T11:14:23.999Z</time></trkpt><trkpt lat="45.999148953734654" lon="13.391507650731395"><ele>72.0</ele><time>2026-04-04T11:14:24.999Z</time></trkpt><trkpt lat="45.99935130774805" lon="13.391543808563833"><ele>72.0</ele><time>2026-04-04T11:14:25.999Z</time></trkpt><trkpt lat="45.99954966073073" lon="13.39157982592229"><ele>72.0</ele><time>2026-04-04T11:14:26.999Z</time></trkpt><trkpt lat="45.999747004859415" lon="13.391616158909276"><ele>72.0</ele><time>2026-04-04T11:14:27.999Z</time></trkpt><trkpt lat="45.999945381045606" lon="13.391652608022154"><ele>72.0</ele><time>2026-04-04T11:14:28.999Z</time></trkpt><trkpt lat="46.000151797563944" lon="13.391694016371796"><ele>72.0</ele><time>2026-04-04T11:14:29.999Z</time></trkpt><trkpt lat="46.00036582958621" lon="13.391733691272247"><ele>72.0</ele><time>2026-04-04T11:14:30.999Z</time></trkpt><trkpt lat="46.0005886634795" lon="13.39177645022877"><ele>72.0</ele><time>2026-04-04T11:14:31.999Z</time></trkpt><trkpt lat="46.000817662055944" lon="13.391821649204184"><ele>72.0</ele><time>2026-04-04T11:14:32.999Z</time></trkpt><trkpt lat="46.00105495531605" lon="13.391860222199236"><ele>71.5</ele><time>2026-04-04T11:14:33.999Z</time></trkpt><trkpt lat="46.00129674589539" lon="13.391893371555895"><ele>71.0</ele><time>2026-04-04T11:14:34.999Z</time></trkpt><trkpt lat="46.00154416271274" lon="13.391913845562566"><ele>72.0</ele><time>2026-04-04T11:14:35.999Z</time></trkpt><trkpt lat="46.001789671046055" lon="13.39192413355214"><ele>73.0</ele><time>2026-04-04T11:14:36.999Z</time></trkpt><trkpt lat="46.00202734877199" lon="13.391935084298275"><ele>73.0</ele><time>2026-04-04T11:14:37.999Z</time></trkpt><trkpt lat="46.00225799349825" lon="13.391948042270036"><ele>73.0</ele><time>2026-04-04T11:14:38.999Z</time></trkpt><trkpt lat="46.00248392180549" lon="13.391955458242064"><ele>73.0</ele><time>2026-04-04T11:14:39.999Z</time></trkpt><trkpt lat="46.00270954935837" lon="13.391947499477688"><ele>73.0</ele><time>2026-04-04T11:14:40.999Z</time></trkpt><trkpt lat="46.002938569878225" lon="13.391915109643955"><ele>73.0</ele><time>2026-04-04T11:14:41.999Z</time></trkpt><trkpt lat="46.00316679383271" lon="13.391872155798628"><ele>73.0</ele><time>2026-04-04T11:14:43Z</time></trkpt><trkpt lat="46.003379848686606" lon="13.391829916079786"><ele>73.0</ele><time>2026-04-04T11:14:44Z</time></trkpt><trkpt lat="46.003585990620024" lon="13.391791680510867"><ele>73.33333333333333</ele><time>2026-04-04T11:14:45Z</time></trkpt><trkpt lat="46.003787877449426" lon="13.391757265301539"><ele>73.66666666666667</ele><time>2026-04-04T11:14:46Z</time></trkpt><trkpt lat="46.00398869195661" lon="13.391737526362734"><ele>74.0</ele><time>2026-04-04T11:14:47Z</time></trkpt><trkpt lat="46.004187079114864" lon="13.391736376592801"><ele>75.0</ele><time>2026-04-04T11:14:48Z</time></trkpt><trkpt lat="46.00442200041481" lon="13.391749650017905"><ele>76.0</ele><time>2026-04-04T11:14:49Z</time></trkpt><trkpt lat="46.004707426790326" lon="13.391812555729313"><ele>75.5</ele><time>2026-04-04T11:14:50Z</time></trkpt><trkpt lat="46.005038167780434" lon="13.391859771652534"><ele>75.0</ele><time>2026-04-04T11:14:51Z</time></trkpt><trkpt lat="46.00539150146885" lon="13.391904413804872"><ele>75.0</ele><time>2026-04-04T11:14:52Z</time></trkpt><trkpt lat="46.00573682716206" lon="13.39195578588515"><ele>75.0</ele><time>2026-04-04T11:14:53Z</time></trkpt><trkpt lat="46.00607604756138" lon="13.391975085270476"><ele>75.5</ele><time>2026-04-04T11:14:54Z</time></trkpt><trkpt lat="46.00641362498242" lon="13.391958196707574"><ele>76.0</ele><time>2026-04-04T11:14:55Z</time></trkpt><trkpt lat="46.006744191614764" lon="13.391898865452058"><ele>76.0</ele><time>2026-04-04T11:14:56Z</time></trkpt><trkpt lat="46.007069717146216" lon="13.391811550365835"><ele>76.0</ele><time>2026-04-04T11:14:57Z</time></trkpt><trkpt lat="46.0073888082846" lon="13.39169385734899"><ele>76.5</ele><time>2026-04-04T11:14:58Z</time></trkpt><trkpt lat="46.0076985596884" lon="13.391534496021078"><ele>77.0</ele><time>2026-04-04T11:14:59Z</time></trkpt><trkpt lat="46.008003987148335" lon="13.391346832896268"><ele>77.5</ele><time>2026-04-04T11:15:00Z</time></trkpt><trkpt lat="46.008296459532446" lon="13.391120507474502"><ele>78.0</ele><time>2026-04-04T11:15:01Z</time></trkpt><trkpt lat="46.00857900944454" lon="13.3908675716513"><ele>79.5</ele><time>2026-04-04T11:15:02Z</time></trkpt><trkpt lat="46.008858926055346" lon="13.39060671272924"><ele>81.0</ele><time>2026-04-04T11:15:03Z</time></trkpt><trkpt lat="46.009135636372626" lon="13.390353511319784"><ele>80.5</ele><time>2026-04-04T11:15:04Z</time></trkpt><trkpt lat="46.00940686930671" lon="13.390103429042643"><ele>80.0</ele><time>2026-04-04T11:15:05Z</time></trkpt><trkpt lat="46.009672666354035" lon="13.389855225418515"><ele>80.0</ele><time>2026-04-04T11:15:06Z</time></trkpt><trkpt lat="46.00993183666181" lon="13.389609214222306"><ele>80.0</ele><time>2026-04-04T11:15:07Z</time></trkpt><trkpt lat="46.01018119896627" lon="13.389363661985874"><ele>80.5</ele><time>2026-04-04T11:15:08Z</time></trkpt><trkpt lat="46.010418950307994" lon="13.38912848817253"><ele>81.0</ele><time>2026-04-04T11:15:09Z</time></trkpt><trkpt lat="46.01065152786424" lon="13.388908449645466"><ele>81.5</ele><time>2026-04-04T11:15:10Z</time></trkpt><trkpt lat="46.01088584049228" lon="13.388704739089437"><ele>82.0</ele><time>2026-04-04T11:15:11Z</time></trkpt><trkpt lat="46.01112882019782" lon="13.388531157173402"><ele>82.0</ele><time>2026-04-04T11:15:12Z</time></trkpt><trkpt lat="46.011383624801645" lon="13.38839197850372"><ele>82.0</ele><time>2026-04-04T11:15:13Z</time></trkpt><trkpt lat="46.011646785462105" lon="13.388274928701104"><ele>82.0</ele><time>2026-04-04T11:15:14Z</time></trkpt><trkpt lat="46.011918127449945" lon="13.388180045545953"><ele>82.0</ele><time>2026-04-04T11:15:15Z</time></trkpt><trkpt lat="46.01219520476787" lon="13.388112347987898"><ele>82.0</ele><time>2026-04-04T11:15:16Z</time></trkpt><trkpt lat="46.01247647321359" lon="13.38806019155009"><ele>82.0</ele><time>2026-04-04T11:15:17Z</time></trkpt><trkpt lat="46.01276239367091" lon="13.38803035885094"><ele>79.5</ele><time>2026-04-04T11:15:18Z</time></trkpt><trkpt lat="46.01304838553181" lon="13.388009184585377"><ele>77.0</ele><time>2026-04-04T11:15:19Z</time></trkpt><trkpt lat="46.01333708776387" lon="13.387988450205567"><ele>77.0</ele><time>2026-04-04T11:15:20Z</time></trkpt><trkpt lat="46.01362564018476" lon="13.38796645708466"><ele>77.0</ele><time>2026-04-04T11:15:21Z</time></trkpt><trkpt lat="46.01391390050511" lon="13.387942323506085"><ele>76.5</ele><time>2026-04-04T11:15:22Z</time></trkpt><trkpt lat="46.01420484500597" lon="13.387918890375234"><ele>76.0</ele><time>2026-04-04T11:15:23Z</time></trkpt><trkpt lat="46.01449400477165" lon="13.387891331202804"><ele>76.0</ele><time>2026-04-04T11:15:24Z</time></trkpt><trkpt lat="46.0147814754561" lon="13.38786591968989"><ele>76.0</ele><time>2026-04-04T11:15:25Z</time></trkpt><trkpt lat="46.01506472254985" lon="13.387843805671912"><ele>76.5</ele><time>2026-04-04T11:15:26Z</time></trkpt><trkpt lat="46.01534855831205" lon="13.387820617902545"><ele>77.0</ele><time>2026-04-04T11:15:27Z</time></trkpt><trkpt lat="46.01563118130105" lon="13.387797429189606"><ele>77.0</ele><time>2026-04-04T11:15:28Z</time></trkpt><trkpt lat="46.01591336172757" lon="13.387774355284366"><ele>77.0</ele><time>2026-04-04T11:15:29Z</time></trkpt><trkpt lat="46.016190879679606" lon="13.387756007346415"><ele>77.0</ele><time>2026-04-04T11:15:30Z</time></trkpt><trkpt lat="46.016468708976596" lon="13.387754476870553"><ele>77.0</ele><time>2026-04-04T11:15:31Z</time></trkpt><trkpt lat="46.01674348721212" lon="13.387782631559114"><ele>78.5</ele><time>2026-04-04T11:15:32Z</time></trkpt><trkpt lat="46.01701672636501" lon="13.3878386704334"><ele>80.0</ele><time>2026-04-04T11:15:33Z</time></trkpt><trkpt lat="46.017285620655166" lon="13.387916410287925"><ele>80.0</ele><time>2026-04-04T11:15:34Z</time></trkpt><trkpt lat="46.01754785397205" lon="13.3880267810505"><ele>80.0</ele><time>2026-04-04T11:15:35Z</time></trkpt><trkpt lat="46.01780805010189" lon="13.388160740804151"><ele>80.0</ele><time>2026-04-04T11:15:36Z</time></trkpt><trkpt lat="46.01806267700619" lon="13.38831569165624"><ele>80.0</ele><time>2026-04-04T11:15:37Z</time></trkpt><trkpt lat="46.01831024477989" lon="13.388495006639893"><ele>81.0</ele><time>2026-04-04T11:15:38Z</time></trkpt><trkpt lat="46.018551572416676" lon="13.388695914793546"><ele>82.0</ele><time>2026-04-04T11:15:39Z</time></trkpt><trkpt lat="46.018782599255395" lon="13.38892263787219"><ele>82.0</ele><time>2026-04-04T11:15:40Z</time></trkpt><trkpt lat="46.019002000453554" lon="13.389178629509424"><ele>82.0</ele><time>2026-04-04T11:15:41Z</time></trkpt><trkpt lat="46.01921098822154" lon="13.38945865190298"><ele>82.5</ele><time>2026-04-04T11:15:42Z</time></trkpt><trkpt lat="46.01940719136963" lon="13.389760187545726"><ele>83.0</ele><time>2026-04-04T11:15:43Z</time></trkpt><trkpt lat="46.01959181016633" lon="13.390079809602378"><ele>83.0</ele><time>2026-04-04T11:15:44Z</time></trkpt><trkpt lat="46.01976325226293" lon="13.390420305362658"><ele>83.0</ele><time>2026-04-04T11:15:45Z</time></trkpt><trkpt lat="46.0199236997158" lon="13.390769419981181"><ele>82.5</ele><time>2026-04-04T11:15:46Z</time></trkpt><trkpt lat="46.020084375333546" lon="13.391119706597467"><ele>82.0</ele><time>2026-04-04T11:15:47Z</time></trkpt><trkpt lat="46.02024408595446" lon="13.391466322805975"><ele>82.0</ele><time>2026-04-04T11:15:48Z</time></trkpt><trkpt lat="46.020398333749036" lon="13.391798123728881"><ele>82.0</ele><time>2026-04-04T11:15:49Z</time></trkpt><trkpt lat="46.02054164883756" lon="13.392108007342397"><ele>83.0</ele><time>2026-04-04T11:15:50Z</time></trkpt><trkpt lat="46.020675478213036" lon="13.392386146689637"><ele>84.0</ele><time>2026-04-04T11:15:51Z</time></trkpt><trkpt lat="46.020799996160044" lon="13.392643802540297"><ele>84.0</ele><time>2026-04-04T11:15:51.999Z</time></trkpt><trkpt lat="46.02089819156604" lon="13.392897222096446"><ele>84.0</ele><time>2026-04-04T11:15:52.999Z</time></trkpt><trkpt lat="46.02099855682223" lon="13.393122448959081"><ele>84.0</ele><time>2026-04-04T11:15:53.999Z</time></trkpt><trkpt lat="46.02109649628686" lon="13.393342231424729"><ele>85.0</ele><time>2026-04-04T11:15:54.999Z</time></trkpt><trkpt lat="46.02119745681787" lon="13.393568794484349"><ele>86.0</ele><time>2026-04-04T11:15:55.999Z</time></trkpt><trkpt lat="46.02131662516829" lon="13.393788453706417"><ele>87.0</ele><time>2026-04-04T11:15:56.999Z</time></trkpt><trkpt lat="46.0214345814777" lon="13.394025706443099"><ele>87.66666666666667</ele><time>2026-04-04T11:15:57.999Z</time></trkpt><trkpt lat="46.02156028262345" lon="13.394260420862466"><ele>88.33333333333334</ele><time>2026-04-04T11:15:58.999Z</time></trkpt><trkpt lat="46.02169752515072" lon="13.39448433579094"><ele>89.0</ele><time>2026-04-04T11:15:59.999Z</time></trkpt><trkpt lat="46.02185438804057" lon="13.3946855379449"><ele>89.33333333333334</ele><time>2026-04-04T11:16:00.999Z</time></trkpt><trkpt lat="46.02202535545086" lon="13.394866518365058"><ele>89.66666666666667</ele><time>2026-04-04T11:16:01.999Z</time></trkpt><trkpt lat="46.02220693074833" lon="13.39503053592291"><ele>90.0</ele><time>2026-04-04T11:16:02.999Z</time></trkpt><trkpt lat="46.022397354026204" lon="13.395175767216916"><ele>90.66666666666667</ele><time>2026-04-04T11:16:03.999Z</time></trkpt><trkpt lat="46.02259344486464" lon="13.395296821084289"><ele>91.33333333333334</ele><time>2026-04-04T11:16:04.999Z</time></trkpt><trkpt lat="46.02279246195835" lon="13.395385078470015"><ele>92.0</ele><time>2026-04-04T11:16:05.999Z</time></trkpt><trkpt lat="46.022972490969686" lon="13.395453468872372"><ele>91.33333333333334</ele><time>2026-04-04T11:16:06.999Z</time></trkpt><trkpt lat="46.02313982529178" lon="13.39551584959392"><ele>90.66666666666667</ele><time>2026-04-04T11:16:07.999Z</time></trkpt><trkpt lat="46.02329622096091" lon="13.39557415802232"><ele>90.0</ele><time>2026-04-04T11:16:08.999Z</time></trkpt><trkpt lat="46.02345370157286" lon="13.395631042927981"><ele>91.33333333333333</ele><time>2026-04-04T11:16:09.999Z</time></trkpt><trkpt lat="46.02362111884123" lon="13.395691289865338"><ele>92.66666666666666</ele><time>2026-04-04T11:16:10.999Z</time></trkpt><trkpt lat="46.02379538746261" lon="13.395754632876189"><ele>94.0</ele><time>2026-04-04T11:16:11.999Z</time></trkpt><trkpt lat="46.023982428544336" lon="13.39582039579706"><ele>94.33333333333333</ele><time>2026-04-04T11:16:12.999Z</time></trkpt><trkpt lat="46.024177715622606" lon="13.395889178714063"><ele>94.66666666666667</ele><time>2026-04-04T11:16:13.999Z</time></trkpt><trkpt lat="46.02437526146233" lon="13.395958643580276"><ele>95.0</ele><time>2026-04-04T11:16:14.999Z</time></trkpt><trkpt lat="46.02456287951332" lon="13.396024086455188"><ele>95.0</ele><time>2026-04-04T11:16:15.999Z</time></trkpt><trkpt lat="46.02474644163245" lon="13.396089675624788"><ele>95.0</ele><time>2026-04-04T11:16:16.999Z</time></trkpt><trkpt lat="46.02492330910587" lon="13.396154417564695"><ele>95.0</ele><time>2026-04-04T11:16:17.999Z</time></trkpt><trkpt lat="46.02509842366469" lon="13.396214805281065"><ele>94.66666666666667</ele><time>2026-04-04T11:16:18.999Z</time></trkpt><trkpt lat="46.02527747920789" lon="13.396274667980459"><ele>94.33333333333333</ele><time>2026-04-04T11:16:19.999Z</time></trkpt><trkpt lat="46.02546011783417" lon="13.39633878546781"><ele>94.0</ele><time>2026-04-04T11:16:20.999Z</time></trkpt><trkpt lat="46.0256454489762" lon="13.396406957363222"><ele>93.66666666666666</ele><time>2026-04-04T11:16:21.999Z</time></trkpt><trkpt lat="46.02582511412836" lon="13.396472532778127"><ele>93.33333333333333</ele><time>2026-04-04T11:16:22.999Z</time></trkpt><trkpt lat="46.02601669640917" lon="13.3965381346462"><ele>93.0</ele><time>2026-04-04T11:16:23.999Z</time></trkpt><trkpt lat="46.026221379193" lon="13.396599113548119"><ele>93.0</ele><time>2026-04-04T11:16:24.999Z</time></trkpt><trkpt lat="46.02644132626838" lon="13.39669886573476"><ele>93.0</ele><time>2026-04-04T11:16:25.999Z</time></trkpt><trkpt lat="46.02667487559071" lon="13.396783396039423"><ele>95.0</ele><time>2026-04-04T11:16:26.999Z</time></trkpt><trkpt lat="46.026925192637684" lon="13.396850799254254"><ele>97.0</ele><time>2026-04-04T11:16:27.999Z</time></trkpt><trkpt lat="46.02717274235285" lon="13.396950543213173"><ele>97.0</ele><time>2026-04-04T11:16:28.999Z</time></trkpt><trkpt lat="46.02742507655538" lon="13.397048580255024"><ele>97.0</ele><time>2026-04-04T11:16:29.999Z</time></trkpt><trkpt lat="46.02768041533551" lon="13.39714223126464"><ele>97.5</ele><time>2026-04-04T11:16:30.999Z</time></trkpt><trkpt lat="46.02793571680735" lon="13.397235702959415"><ele>98.0</ele><time>2026-04-04T11:16:31.999Z</time></trkpt><trkpt lat="46.02819109502329" lon="13.397326654050632"><ele>98.5</ele><time>2026-04-04T11:16:32.999Z</time></trkpt><trkpt lat="46.02844379014552" lon="13.39741818331007"><ele>99.0</ele><time>2026-04-04T11:16:33.999Z</time></trkpt><trkpt lat="46.02869359344856" lon="13.39751069432491"><ele>99.0</ele><time>2026-04-04T11:16:34.999Z</time></trkpt><trkpt lat="46.02894124602891" lon="13.397598477477736"><ele>99.0</ele><time>2026-04-04T11:16:35.999Z</time></trkpt><trkpt lat="46.02918372296188" lon="13.3976869186122"><ele>98.5</ele><time>2026-04-04T11:16:36.999Z</time></trkpt><trkpt lat="46.02942342108653" lon="13.397773325956539"><ele>98.0</ele><time>2026-04-04T11:16:37.999Z</time></trkpt><trkpt lat="46.0296609332757" lon="13.397854415627993"><ele>98.0</ele><time>2026-04-04T11:16:38.999Z</time></trkpt><trkpt lat="46.029893679743324" lon="13.397941728423223"><ele>98.0</ele><time>2026-04-04T11:16:39.999Z</time></trkpt><trkpt lat="46.0301239528315" lon="13.398037864254812"><ele>97.5</ele><time>2026-04-04T11:16:40.999Z</time></trkpt><trkpt lat="46.03034986402848" lon="13.398140760087804"><ele>97.0</ele><time>2026-04-04T11:16:41.999Z</time></trkpt><trkpt lat="46.03057366163309" lon="13.398242897009132"><ele>97.0</ele><time>2026-04-04T11:16:42.999Z</time></trkpt><trkpt lat="46.0307966279715" lon="13.398343246749103"><ele>97.0</ele><time>2026-04-04T11:16:43.999Z</time></trkpt><trkpt lat="46.03101784239029" lon="13.398443078454187"><ele>95.5</ele><time>2026-04-04T11:16:44.999Z</time></trkpt><trkpt lat="46.0312356529373" lon="13.398551047358238"><ele>94.0</ele><time>2026-04-04T11:16:45.999Z</time></trkpt><trkpt lat="46.03144970174088" lon="13.398670858567483"><ele>94.5</ele><time>2026-04-04T11:16:46.999Z</time></trkpt><trkpt lat="46.031657636096945" lon="13.398805083204405"><ele>95.0</ele><time>2026-04-04T11:16:48Z</time></trkpt><trkpt lat="46.031859068018186" lon="13.39895430475011"><ele>95.0</ele><time>2026-04-04T11:16:49Z</time></trkpt><trkpt lat="46.03205495519372" lon="13.399113857978845"><ele>95.0</ele><time>2026-04-04T11:16:50Z</time></trkpt><trkpt lat="46.03225343392631" lon="13.399267643243688"><ele>95.0</ele><time>2026-04-04T11:16:51Z</time></trkpt><trkpt lat="46.03245313681657" lon="13.399421147023677"><ele>95.0</ele><time>2026-04-04T11:16:52Z</time></trkpt><trkpt lat="46.03265428312051" lon="13.399571328549268"><ele>97.0</ele><time>2026-04-04T11:16:53Z</time></trkpt><trkpt lat="46.032859154524175" lon="13.399717407733126"><ele>99.0</ele><time>2026-04-04T11:16:54Z</time></trkpt><trkpt lat="46.033069960713135" lon="13.399848549575637"><ele>99.0</ele><time>2026-04-04T11:16:55Z</time></trkpt><trkpt lat="46.03329472769453" lon="13.399948213100771"><ele>99.0</ele><time>2026-04-04T11:16:56Z</time></trkpt><trkpt lat="46.033525947274114" lon="13.400029263389271"><ele>98.5</ele><time>2026-04-04T11:16:57Z</time></trkpt><trkpt lat="46.03375917414989" lon="13.400119796790147"><ele>98.0</ele><time>2026-04-04T11:16:58Z</time></trkpt><trkpt lat="46.03398909706389" lon="13.400236636840393"><ele>98.0</ele><time>2026-04-04T11:16:59Z</time></trkpt><trkpt lat="46.03421484305144" lon="13.400375373594976"><ele>98.0</ele><time>2026-04-04T11:17:00Z</time></trkpt><trkpt lat="46.03443614957828" lon="13.400522077523913"><ele>99.0</ele><time>2026-04-04T11:17:01Z</time></trkpt><trkpt lat="46.03465454664342" lon="13.400672054469556"><ele>100.0</ele><time>2026-04-04T11:17:02Z</time></trkpt><trkpt lat="46.03486992464476" lon="13.400817880444352"><ele>100.0</ele><time>2026-04-04T11:17:03Z</time></trkpt><trkpt lat="46.03508107826023" lon="13.400966433396555"><ele>100.0</ele><time>2026-04-04T11:17:04Z</time></trkpt><trkpt lat="46.03528005630429" lon="13.401137382395724"><ele>100.0</ele><time>2026-04-04T11:17:05Z</time></trkpt><trkpt lat="46.03546282146836" lon="13.401340840393273"><ele>100.0</ele><time>2026-04-04T11:17:06Z</time></trkpt><trkpt lat="46.03563109420437" lon="13.40157124246374"><ele>100.0</ele><time>2026-04-04T11:17:07Z</time></trkpt><trkpt lat="46.03579933434829" lon="13.40180818348458"><ele>100.0</ele><time>2026-04-04T11:17:08Z</time></trkpt><trkpt lat="46.03597065577631" lon="13.402043666817976"><ele>99.5</ele><time>2026-04-04T11:17:09Z</time></trkpt><trkpt lat="46.03614554012195" lon="13.402277585792453"><ele>99.0</ele><time>2026-04-04T11:17:10Z</time></trkpt><trkpt lat="46.03632011871624" lon="13.402513093161923"><ele>99.0</ele><time>2026-04-04T11:17:11Z</time></trkpt><trkpt lat="46.03649506781991" lon="13.4027481636471"><ele>99.0</ele><time>2026-04-04T11:17:12Z</time></trkpt><trkpt lat="46.03667256395394" lon="13.402977187440923"><ele>98.0</ele><time>2026-04-04T11:17:13Z</time></trkpt><trkpt lat="46.03685525186346" lon="13.40319590393013"><ele>97.0</ele><time>2026-04-04T11:17:14Z</time></trkpt><trkpt lat="46.03704538715904" lon="13.403395625589694"><ele>97.0</ele><time>2026-04-04T11:17:15Z</time></trkpt><trkpt lat="46.03724498211997" lon="13.403567675203496"><ele>97.0</ele><time>2026-04-04T11:17:16Z</time></trkpt><trkpt lat="46.037454258769564" lon="13.403707762035959"><ele>97.5</ele><time>2026-04-04T11:17:17Z</time></trkpt><trkpt lat="46.03767151143091" lon="13.40381232558912"><ele>98.0</ele><time>2026-04-04T11:17:18Z</time></trkpt><trkpt lat="46.037890516471684" lon="13.403910563220498"><ele>99.5</ele><time>2026-04-04T11:17:19Z</time></trkpt><trkpt lat="46.03810648797643" lon="13.404020104014098"><ele>101.0</ele><time>2026-04-04T11:17:20Z</time></trkpt><trkpt lat="46.03832303691611" lon="13.404123000140801"><ele>102.0</ele><time>2026-04-04T11:17:21Z</time></trkpt><trkpt lat="46.038539449779385" lon="13.404223291327469"><ele>103.0</ele><time>2026-04-04T11:17:22Z</time></trkpt><trkpt lat="46.03875568272577" lon="13.404323891019722"><ele>103.0</ele><time>2026-04-04T11:17:23Z</time></trkpt><trkpt lat="46.03897167447724" lon="13.404425655562767"><ele>103.0</ele><time>2026-04-04T11:17:24Z</time></trkpt><trkpt lat="46.039186101373716" lon="13.404528171065245"><ele>103.0</ele><time>2026-04-04T11:17:25Z</time></trkpt><trkpt lat="46.039400148340924" lon="13.404632044991542"><ele>103.0</ele><time>2026-04-04T11:17:26Z</time></trkpt><trkpt lat="46.03961354168534" lon="13.404734463308765"><ele>103.0</ele><time>2026-04-04T11:17:27Z</time></trkpt><trkpt lat="46.03982365625656" lon="13.404834283645368"><ele>103.0</ele><time>2026-04-04T11:17:28Z</time></trkpt><trkpt lat="46.040030544048946" lon="13.404934338442283"><ele>103.0</ele><time>2026-04-04T11:17:29Z</time></trkpt><trkpt lat="46.040229743810215" lon="13.40505365586246"><ele>102.66666666666667</ele><time>2026-04-04T11:17:30Z</time></trkpt><trkpt lat="46.04041432694673" lon="13.40521027875773"><ele>102.33333333333334</ele><time>2026-04-04T11:17:31Z</time></trkpt><trkpt lat="46.04058460518818" lon="13.40539330141519"><ele>102.0</ele><time>2026-04-04T11:17:32Z</time></trkpt><trkpt lat="46.04075315298045" lon="13.405581815584332"><ele>102.66666666666666</ele><time>2026-04-04T11:17:33Z</time></trkpt><trkpt lat="46.04092479261895" lon="13.405767154045833"><ele>103.33333333333333</ele><time>2026-04-04T11:17:34Z</time></trkpt><trkpt lat="46.04109437000132" lon="13.405951782264806"><ele>104.0</ele><time>2026-04-04T11:17:35Z</time></trkpt><trkpt lat="46.04126918745431" lon="13.406115564685068"><ele>104.0</ele><time>2026-04-04T11:17:36Z</time></trkpt><trkpt lat="46.04145380687598" lon="13.40624058035831"><ele>104.0</ele><time>2026-04-04T11:17:37Z</time></trkpt><trkpt lat="46.04164992598125" lon="13.406315823089624"><ele>104.0</ele><time>2026-04-04T11:17:38Z</time></trkpt><trkpt lat="46.041861460958884" lon="13.406339489309754"><ele>104.33333333333333</ele><time>2026-04-04T11:17:39Z</time></trkpt><trkpt lat="46.04207922334742" lon="13.406366896342371"><ele>104.66666666666666</ele><time>2026-04-04T11:17:40Z</time></trkpt><trkpt lat="46.042303661983055" lon="13.406410277994107"><ele>105.0</ele><time>2026-04-04T11:17:41Z</time></trkpt><trkpt lat="46.04253509090558" lon="13.406440186430084"><ele>105.0</ele><time>2026-04-04T11:17:42Z</time></trkpt><trkpt lat="46.04276973738721" lon="13.406477092099404"><ele>105.0</ele><time>2026-04-04T11:17:43Z</time></trkpt><trkpt lat="46.04300808248772" lon="13.40651852639522"><ele>105.0</ele><time>2026-04-04T11:17:44Z</time></trkpt><trkpt lat="46.04324540527655" lon="13.4065595717113"><ele>105.0</ele><time>2026-04-04T11:17:45Z</time></trkpt><trkpt lat="46.04348296078753" lon="13.406597371846075"><ele>104.5</ele><time>2026-04-04T11:17:46Z</time></trkpt><trkpt lat="46.04371976631008" lon="13.406632615770146"><ele>104.0</ele><time>2026-04-04T11:17:47Z</time></trkpt><trkpt lat="46.04395233488423" lon="13.406668215389953"><ele>104.5</ele><time>2026-04-04T11:17:48Z</time></trkpt><trkpt lat="46.04418078923203" lon="13.406714177993292"><ele>105.0</ele><time>2026-04-04T11:17:49Z</time></trkpt><trkpt lat="46.04440131761289" lon="13.406781439822646"><ele>105.0</ele><time>2026-04-04T11:17:50Z</time></trkpt><trkpt lat="46.04461567331624" lon="13.406855935227401"><ele>105.0</ele><time>2026-04-04T11:17:51Z</time></trkpt><trkpt lat="46.04482704383882" lon="13.406921698776147"><ele>105.0</ele><time>2026-04-04T11:17:52Z</time></trkpt><trkpt lat="46.04502828150863" lon="13.406986415521876"><ele>106.33333333333334</ele><time>2026-04-04T11:17:53Z</time></trkpt><trkpt lat="46.04521560023515" lon="13.407047114724044"><ele>107.66666666666667</ele><time>2026-04-04T11:17:54Z</time></trkpt><trkpt lat="46.045389004304184" lon="13.407101854361434"><ele>109.0</ele><time>2026-04-04T11:17:55Z</time></trkpt><trkpt lat="46.04555383509188" lon="13.40715773101771"><ele>108.33333333333334</ele><time>2026-04-04T11:17:55.999Z</time></trkpt><trkpt lat="46.04571130052088" lon="13.407208835428511"><ele>107.66666666666666</ele><time>2026-04-04T11:17:56.999Z</time></trkpt><trkpt lat="46.04586572696266" lon="13.407259109057426"><ele>107.0</ele><time>2026-04-04T11:17:57.999Z</time></trkpt><trkpt lat="46.04601091831455" lon="13.407307016468875"><ele>106.5</ele><time>2026-04-04T11:17:58.999Z</time></trkpt><trkpt lat="46.04614198001845" lon="13.4073478310936"><ele>106.0</ele><time>2026-04-04T11:17:59.999Z</time></trkpt><trkpt lat="46.046269682725054" lon="13.407386978971411"><ele>105.5</ele><time>2026-04-04T11:18:00.999Z</time></trkpt><trkpt lat="46.04639480649594" lon="13.407429067299491"><ele>105.0</ele><time>2026-04-04T11:18:01.999Z</time></trkpt><trkpt lat="46.04651577250865" lon="13.407471855825339"><ele>105.0</ele><time>2026-04-04T11:18:02.999Z</time></trkpt><trkpt lat="46.046630844952965" lon="13.407505584641843"><ele>105.0</ele><time>2026-04-04T11:18:03.999Z</time></trkpt><trkpt lat="46.04673337100031" lon="13.407531195710616"><ele>105.0</ele><time>2026-04-04T11:18:04.999Z</time></trkpt><trkpt lat="46.04682732211909" lon="13.40756242979132"><ele>105.0</ele><time>2026-04-04T11:18:05.999Z</time></trkpt><trkpt lat="46.04689726793277" lon="13.40759297064844"><ele>105.0</ele><time>2026-04-04T11:18:06.999Z</time></trkpt><trkpt lat="46.04699672091732" lon="13.40768732208553"><ele>105.0</ele><time>2026-04-04T11:18:08.999Z</time></trkpt><trkpt lat="46.04703865708608" lon="13.407765378076588"><ele>105.0</ele><time>2026-04-04T11:18:09.999Z</time></trkpt><trkpt lat="46.047159644023104" lon="13.407822432114116"><ele>105.0</ele><time>2026-04-04T11:18:11.999Z</time></trkpt><trkpt lat="46.04723450941788" lon="13.40783675713811"><ele>105.0</ele><time>2026-04-04T11:18:12.999Z</time></trkpt><trkpt lat="46.0473509347026" lon="13.407855276514477"><ele>105.0</ele><time>2026-04-04T11:18:13.999Z</time></trkpt><trkpt lat="46.04748841815846" lon="13.407909835856096"><ele>106.33333333333334</ele><time>2026-04-04T11:18:14.999Z</time></trkpt><trkpt lat="46.04764515118946" lon="13.40799596214613"><ele>107.66666666666667</ele><time>2026-04-04T11:18:15.999Z</time></trkpt><trkpt lat="46.04782187484367" lon="13.408087824723212"><ele>109.0</ele><time>2026-04-04T11:18:16.999Z</time></trkpt><trkpt lat="46.04800991007371" lon="13.408194429874777"><ele>109.0</ele><time>2026-04-04T11:18:17.999Z</time></trkpt><trkpt lat="46.04821176182605" lon="13.408309487999981"><ele>109.0</ele><time>2026-04-04T11:18:18.999Z</time></trkpt><trkpt lat="46.048424885241886" lon="13.40842634753677"><ele>109.0</ele><time>2026-04-04T11:18:19.999Z</time></trkpt><trkpt lat="46.04864482355561" lon="13.408547720322522"><ele>110.0</ele><time>2026-04-04T11:18:20.999Z</time></trkpt><trkpt lat="46.04887598702518" lon="13.408666563409556"><ele>111.0</ele><time>2026-04-04T11:18:21.999Z</time></trkpt><trkpt lat="46.049109482849005" lon="13.408806615498374"><ele>110.0</ele><time>2026-04-04T11:18:22.999Z</time></trkpt><trkpt lat="46.04935470109885" lon="13.408932663151276"><ele>109.0</ele><time>2026-04-04T11:18:23.999Z</time></trkpt><trkpt lat="46.04961025126158" lon="13.40904492286888"><ele>109.0</ele><time>2026-04-04T11:18:24.999Z</time></trkpt><trkpt lat="46.04987431861901" lon="13.409137296442019"><ele>109.0</ele><time>2026-04-04T11:18:25.999Z</time></trkpt><trkpt lat="46.0501380237129" lon="13.409246792545366"><ele>108.5</ele><time>2026-04-04T11:18:26.999Z</time></trkpt><trkpt lat="46.050403259412114" lon="13.409351476790855"><ele>108.0</ele><time>2026-04-04T11:18:27.999Z</time></trkpt><trkpt lat="46.05066319802448" lon="13.409458511348376"><ele>108.0</ele><time>2026-04-04T11:18:28.999Z</time></trkpt><trkpt lat="46.05091637805415" lon="13.409567331618879"><ele>108.0</ele><time>2026-04-04T11:18:29.999Z</time></trkpt><trkpt lat="46.05116051380245" lon="13.409687293836877"><ele>108.0</ele><time>2026-04-04T11:18:30.999Z</time></trkpt><trkpt lat="46.05139472057613" lon="13.409823741853177"><ele>108.0</ele><time>2026-04-04T11:18:31.999Z</time></trkpt><trkpt lat="46.05161987444913" lon="13.409973791575638"><ele>109.0</ele><time>2026-04-04T11:18:32.999Z</time></trkpt><trkpt lat="46.05184369610488" lon="13.410121254730813"><ele>110.0</ele><time>2026-04-04T11:18:33.999Z</time></trkpt><trkpt lat="46.05206686000463" lon="13.410261850297237"><ele>110.0</ele><time>2026-04-04T11:18:34.999Z</time></trkpt><trkpt lat="46.052290093674905" lon="13.410401310454159"><ele>110.0</ele><time>2026-04-04T11:18:35.999Z</time></trkpt><trkpt lat="46.05251265262776" lon="13.410539273657001"><ele>110.5</ele><time>2026-04-04T11:18:36.999Z</time></trkpt><trkpt lat="46.052733054712135" lon="13.410678386159748"><ele>111.0</ele><time>2026-04-04T11:18:37.999Z</time></trkpt><trkpt lat="46.05295068107694" lon="13.41081847656697"><ele>111.0</ele><time>2026-04-04T11:18:38.999Z</time></trkpt><trkpt lat="46.05316729819428" lon="13.410954883293353"><ele>111.0</ele><time>2026-04-04T11:18:39.999Z</time></trkpt><trkpt lat="46.05338276783499" lon="13.411086497679074"><ele>111.5</ele><time>2026-04-04T11:18:40.999Z</time></trkpt><trkpt lat="46.0535985197621" lon="13.411219636566239"><ele>112.0</ele><time>2026-04-04T11:18:41.999Z</time></trkpt><trkpt lat="46.05381001364551" lon="13.411356179041679"><ele>111.0</ele><time>2026-04-04T11:18:42.999Z</time></trkpt><trkpt lat="46.0540197876113" lon="13.411493829418303"><ele>110.0</ele><time>2026-04-04T11:18:43.999Z</time></trkpt><trkpt lat="46.05423187686386" lon="13.411627165780581"><ele>110.0</ele><time>2026-04-04T11:18:44.999Z</time></trkpt><trkpt lat="46.05444370904345" lon="13.411759952964644"><ele>110.0</ele><time>2026-04-04T11:18:45.999Z</time></trkpt><trkpt lat="46.05465466254753" lon="13.411903692729801"><ele>110.0</ele><time>2026-04-04T11:18:46.999Z</time></trkpt><trkpt lat="46.05486163251536" lon="13.412067835802116"><ele>110.0</ele><time>2026-04-04T11:18:47.999Z</time></trkpt><trkpt lat="46.05505801557117" lon="13.412264127247166"><ele>108.5</ele><time>2026-04-04T11:18:48.999Z</time></trkpt><trkpt lat="46.05524914459612" lon="13.412477974432527"><ele>107.0</ele><time>2026-04-04T11:18:49.999Z</time></trkpt><trkpt lat="46.055443228574326" lon="13.41269389509315"><ele>107.0</ele><time>2026-04-04T11:18:50.999Z</time></trkpt><trkpt lat="46.05564137826182" lon="13.412912261340194"><ele>107.0</ele><time>2026-04-04T11:18:51.999Z</time></trkpt><trkpt lat="46.055840897315846" lon="13.413131495398327"><ele>108.0</ele><time>2026-04-04T11:18:52.999Z</time></trkpt><trkpt lat="46.056039768239366" lon="13.41334931525746"><ele>109.0</ele><time>2026-04-04T11:18:54Z</time></trkpt><trkpt lat="46.05623621195593" lon="13.413568138864896"><ele>109.0</ele><time>2026-04-04T11:18:55Z</time></trkpt><trkpt lat="46.05643487154468" lon="13.413782710476156"><ele>109.0</ele><time>2026-04-04T11:18:56Z</time></trkpt><trkpt lat="46.056640086137776" lon="13.413981378805644"><ele>110.0</ele><time>2026-04-04T11:18:57Z</time></trkpt><trkpt lat="46.05685263278775" lon="13.41416342085892"><ele>111.0</ele><time>2026-04-04T11:18:58Z</time></trkpt><trkpt lat="46.057070397401134" lon="13.414332503896196"><ele>111.0</ele><time>2026-04-04T11:18:59Z</time></trkpt><trkpt lat="46.05728881862735" lon="13.414500369700571"><ele>111.0</ele><time>2026-04-04T11:19:00Z</time></trkpt><trkpt lat="46.057507875310705" lon="13.41467186089904"><ele>112.0</ele><time>2026-04-04T11:19:01Z</time></trkpt><trkpt lat="46.05773196208393" lon="13.414834719791694"><ele>113.0</ele><time>2026-04-04T11:19:02Z</time></trkpt><trkpt lat="46.05796440317893" lon="13.41497878222018"><ele>113.0</ele><time>2026-04-04T11:19:03Z</time></trkpt><trkpt lat="46.05820440909571" lon="13.415106059782572"><ele>113.0</ele><time>2026-04-04T11:19:04Z</time></trkpt><trkpt lat="46.05844902128999" lon="13.415227936918722"><ele>114.0</ele><time>2026-04-04T11:19:05Z</time></trkpt><trkpt lat="46.058692063512446" lon="13.415354396711026"><ele>115.0</ele><time>2026-04-04T11:19:06Z</time></trkpt><trkpt lat="46.0589328588147" lon="13.415485379034466"><ele>114.5</ele><time>2026-04-04T11:19:07Z</time></trkpt><trkpt lat="46.059171956100435" lon="13.415618607108447"><ele>114.0</ele><time>2026-04-04T11:19:08Z</time></trkpt><trkpt lat="46.05940954331816" lon="13.415750848638236"><ele>114.0</ele><time>2026-04-04T11:19:09Z</time></trkpt><trkpt lat="46.059646247100666" lon="13.415883879485225"><ele>114.0</ele><time>2026-04-04T11:19:10Z</time></trkpt><trkpt lat="46.05988190487287" lon="13.416023605513804"><ele>114.0</ele><time>2026-04-04T11:19:11Z</time></trkpt><trkpt lat="46.06011504304378" lon="13.416173140181673"><ele>114.0</ele><time>2026-04-04T11:19:12Z</time></trkpt><trkpt lat="46.0603438526661" lon="13.416332088061075"><ele>112.5</ele><time>2026-04-04T11:19:13Z</time></trkpt><trkpt lat="46.06057194084817" lon="13.416489802101061"><ele>111.0</ele><time>2026-04-04T11:19:14Z</time></trkpt><trkpt lat="46.06080160335245" lon="13.416640194087048"><ele>111.0</ele><time>2026-04-04T11:19:15Z</time></trkpt><trkpt lat="46.061030394547835" lon="13.416783759466751"><ele>111.0</ele><time>2026-04-04T11:19:16Z</time></trkpt><trkpt lat="46.06125846018881" lon="13.416921922163798"><ele>111.0</ele><time>2026-04-04T11:19:17Z</time></trkpt><trkpt lat="46.061490294738924" lon="13.417045779281743"><ele>111.0</ele><time>2026-04-04T11:19:18Z</time></trkpt><trkpt lat="46.06172614482243" lon="13.417152737156075"><ele>112.5</ele><time>2026-04-04T11:19:19Z</time></trkpt><trkpt lat="46.061968406155124" lon="13.41724194401652"><ele>114.0</ele><time>2026-04-04T11:19:20Z</time></trkpt><trkpt lat="46.06221050170431" lon="13.417334068865877"><ele>115.0</ele><time>2026-04-04T11:19:21Z</time></trkpt><trkpt lat="46.062453658178434" lon="13.417433483268413"><ele>116.0</ele><time>2026-04-04T11:19:22Z</time></trkpt><trkpt lat="46.06269882086009" lon="13.417525977277757"><ele>116.0</ele><time>2026-04-04T11:19:23Z</time></trkpt><trkpt lat="46.062946812426766" lon="13.417605094831897"><ele>116.0</ele><time>2026-04-04T11:19:24Z</time></trkpt><trkpt lat="46.06319680511521" lon="13.417677957390756"><ele>115.5</ele><time>2026-04-04T11:19:25Z</time></trkpt><trkpt lat="46.0634480857987" lon="13.417747517562034"><ele>115.0</ele><time>2026-04-04T11:19:26Z</time></trkpt><trkpt lat="46.06370102404987" lon="13.417814469137719"><ele>115.0</ele><time>2026-04-04T11:19:27Z</time></trkpt><trkpt lat="46.0639544694986" lon="13.417882560374682"><ele>115.0</ele><time>2026-04-04T11:19:28Z</time></trkpt><trkpt lat="46.06420607396562" lon="13.417949622656625"><ele>115.0</ele><time>2026-04-04T11:19:29Z</time></trkpt><trkpt lat="46.06445576695916" lon="13.418014665990135"><ele>115.0</ele><time>2026-04-04T11:19:30Z</time></trkpt><trkpt lat="46.06470379979234" lon="13.418082896235084"><ele>116.0</ele><time>2026-04-04T11:19:31Z</time></trkpt><trkpt lat="46.064952079194796" lon="13.418149003126748"><ele>117.0</ele><time>2026-04-04T11:19:32Z</time></trkpt><trkpt lat="46.065200522935164" lon="13.418214281898614"><ele>117.0</ele><time>2026-04-04T11:19:33Z</time></trkpt><trkpt lat="46.06545102906641" lon="13.418277655901763"><ele>117.0</ele><time>2026-04-04T11:19:34Z</time></trkpt><trkpt lat="46.06570370877972" lon="13.418345640000522"><ele>117.5</ele><time>2026-04-04T11:19:35Z</time></trkpt><trkpt lat="46.06595821256163" lon="13.41841479176218"><ele>118.0</ele><time>2026-04-04T11:19:36Z</time></trkpt><trkpt lat="46.06621245242515" lon="13.41848171340672"><ele>118.0</ele><time>2026-04-04T11:19:37Z</time></trkpt><trkpt lat="46.0664669980947" lon="13.418546924751004"><ele>118.0</ele><time>2026-04-04T11:19:38Z</time></trkpt><trkpt lat="46.06672289760872" lon="13.418611543234025"><ele>118.5</ele><time>2026-04-04T11:19:39Z</time></trkpt><trkpt lat="46.06697861363482" lon="13.418677123346916"><ele>119.0</ele><time>2026-04-04T11:19:40Z</time></trkpt><trkpt lat="46.067234851931964" lon="13.418743619209573"><ele>119.5</ele><time>2026-04-04T11:19:41Z</time></trkpt><trkpt lat="46.06749196300582" lon="13.418807974245077"><ele>120.0</ele><time>2026-04-04T11:19:42Z</time></trkpt><trkpt lat="46.06774852228771" lon="13.418876496912496"><ele>120.0</ele><time>2026-04-04T11:19:43Z</time></trkpt><trkpt lat="46.06800573713306" lon="13.41894708462006"><ele>120.0</ele><time>2026-04-04T11:19:44Z</time></trkpt><trkpt lat="46.068262852834465" lon="13.419015457494188"><ele>120.5</ele><time>2026-04-04T11:19:45Z</time></trkpt><trkpt lat="46.0685210286022" lon="13.419083501207025"><ele>121.0</ele><time>2026-04-04T11:19:46Z</time></trkpt><trkpt lat="46.06877690082233" lon="13.419153463529737"><ele>121.0</ele><time>2026-04-04T11:19:47Z</time></trkpt><trkpt lat="46.069032650545" lon="13.419219409474664"><ele>121.0</ele><time>2026-04-04T11:19:48Z</time></trkpt><trkpt lat="46.069289265890916" lon="13.419283105218364"><ele>120.5</ele><time>2026-04-04T11:19:49Z</time></trkpt><trkpt lat="46.06954414452895" lon="13.41935135409765"><ele>120.0</ele><time>2026-04-04T11:19:50Z</time></trkpt><trkpt lat="46.069798750981136" lon="13.41941773616606"><ele>120.0</ele><time>2026-04-04T11:19:51Z</time></trkpt><trkpt lat="46.070053809383445" lon="13.419484830685562"><ele>120.0</ele><time>2026-04-04T11:19:52Z</time></trkpt><trkpt lat="46.07030472593331" lon="13.419558092431458"><ele>120.0</ele><time>2026-04-04T11:19:53Z</time></trkpt><trkpt lat="46.07055545916156" lon="13.419641598708926"><ele>120.0</ele><time>2026-04-04T11:19:54Z</time></trkpt><trkpt lat="46.070804252930905" lon="13.419736298243146"><ele>121.5</ele><time>2026-04-04T11:19:55Z</time></trkpt><trkpt lat="46.071048762658876" lon="13.419838004378402"><ele>123.0</ele><time>2026-04-04T11:19:56Z</time></trkpt><trkpt lat="46.071292204107486" lon="13.419946704815528"><ele>123.0</ele><time>2026-04-04T11:19:57Z</time></trkpt><trkpt lat="46.07153422104205" lon="13.420057716976451"><ele>123.0</ele><time>2026-04-04T11:19:58Z</time></trkpt><trkpt lat="46.07177422451063" lon="13.420172382581198"><ele>122.5</ele><time>2026-04-04T11:19:59Z</time></trkpt><trkpt lat="46.072015520486666" lon="13.420288086096988"><ele>122.0</ele><time>2026-04-04T11:20:00Z</time></trkpt><trkpt lat="46.07225661790937" lon="13.420397824883704"><ele>122.5</ele><time>2026-04-04T11:20:00.999Z</time></trkpt><trkpt lat="46.07250150734362" lon="13.420490223553205"><ele>123.0</ele><time>2026-04-04T11:20:01.999Z</time></trkpt><trkpt lat="46.07275004009123" lon="13.420563980905388"><ele>123.0</ele><time>2026-04-04T11:20:02.999Z</time></trkpt><trkpt lat="46.07300314130608" lon="13.420623839600482"><ele>123.0</ele><time>2026-04-04T11:20:03.999Z</time></trkpt><trkpt lat="46.07325685792556" lon="13.420680620974034"><ele>123.0</ele><time>2026-04-04T11:20:04.999Z</time></trkpt><trkpt lat="46.07351084721152" lon="13.420740009445264"><ele>123.0</ele><time>2026-04-04T11:20:05.999Z</time></trkpt><trkpt lat="46.073766125443136" lon="13.420802949242407"><ele>123.0</ele><time>2026-04-04T11:20:06.999Z</time></trkpt><trkpt lat="46.074021814199746" lon="13.420866833705087"><ele>123.0</ele><time>2026-04-04T11:20:07.999Z</time></trkpt><trkpt lat="46.07427925970849" lon="13.42093913014274"><ele>123.5</ele><time>2026-04-04T11:20:08.999Z</time></trkpt><trkpt lat="46.074539497859305" lon="13.421014277755019"><ele>124.0</ele><time>2026-04-04T11:20:09.999Z</time></trkpt><trkpt lat="46.074801125399624" lon="13.421084487978144"><ele>124.5</ele><time>2026-04-04T11:20:10.999Z</time></trkpt><trkpt lat="46.07506533094231" lon="13.421147907824416"><ele>125.0</ele><time>2026-04-04T11:20:11.999Z</time></trkpt><trkpt lat="46.07532710914327" lon="13.421207870927272"><ele>125.0</ele><time>2026-04-04T11:20:12.999Z</time></trkpt><trkpt lat="46.07558513907487" lon="13.42126757039612"><ele>125.0</ele><time>2026-04-04T11:20:13.999Z</time></trkpt><trkpt lat="46.07583968299924" lon="13.421326461227688"><ele>125.0</ele><time>2026-04-04T11:20:14.999Z</time></trkpt><trkpt lat="46.07609174046451" lon="13.421380255404351"><ele>125.0</ele><time>2026-04-04T11:20:15.999Z</time></trkpt><trkpt lat="46.07634194591024" lon="13.421427999282868"><ele>125.0</ele><time>2026-04-04T11:20:16.999Z</time></trkpt><trkpt lat="46.07659048005993" lon="13.42146633926288"><ele>125.0</ele><time>2026-04-04T11:20:17.999Z</time></trkpt><trkpt lat="46.07683898398024" lon="13.421498002279936"><ele>125.5</ele><time>2026-04-04T11:20:18.999Z</time></trkpt><trkpt lat="46.077086251602026" lon="13.421527343816091"><ele>126.0</ele><time>2026-04-04T11:20:19.999Z</time></trkpt><trkpt lat="46.077332476585866" lon="13.421551406260535"><ele>125.5</ele><time>2026-04-04T11:20:20.999Z</time></trkpt><trkpt lat="46.07757852009257" lon="13.421573442470399"><ele>125.0</ele><time>2026-04-04T11:20:21.999Z</time></trkpt><trkpt lat="46.07782528071526" lon="13.421591814440026"><ele>125.0</ele><time>2026-04-04T11:20:22.999Z</time></trkpt><trkpt lat="46.07807236189285" lon="13.421602276654747"><ele>125.0</ele><time>2026-04-04T11:20:23.999Z</time></trkpt><trkpt lat="46.07831824236357" lon="13.421609466643076"><ele>126.0</ele><time>2026-04-04T11:20:24.999Z</time></trkpt><trkpt lat="46.07856394940163" lon="13.421625266006918"><ele>127.0</ele><time>2026-04-04T11:20:25.999Z</time></trkpt><trkpt lat="46.07880800350139" lon="13.421648005831608"><ele>127.0</ele><time>2026-04-04T11:20:26.999Z</time></trkpt><trkpt lat="46.079052172642626" lon="13.421682186014968"><ele>127.0</ele><time>2026-04-04T11:20:27.999Z</time></trkpt><trkpt lat="46.07929062755406" lon="13.421731787741317"><ele>126.5</ele><time>2026-04-04T11:20:28.999Z</time></trkpt><trkpt lat="46.07952256046261" lon="13.421814545423148"><ele>126.0</ele><time>2026-04-04T11:20:29.999Z</time></trkpt><trkpt lat="46.07974874227474" lon="13.421926266280915"><ele>126.0</ele><time>2026-04-04T11:20:30.999Z</time></trkpt><trkpt lat="46.07996782527499" lon="13.422066602370101"><ele>126.0</ele><time>2026-04-04T11:20:31.999Z</time></trkpt><trkpt lat="46.0801817052357" lon="13.422226343487415"><ele>126.5</ele><time>2026-04-04T11:20:32.999Z</time></trkpt><trkpt lat="46.080389128826866" lon="13.422401759764556"><ele>127.0</ele><time>2026-04-04T11:20:33.999Z</time></trkpt><trkpt lat="46.08058332118215" lon="13.422596222961229"><ele>127.0</ele><time>2026-04-04T11:20:34.999Z</time></trkpt><trkpt lat="46.08076262401829" lon="13.422806087382515"><ele>127.0</ele><time>2026-04-04T11:20:35.999Z</time></trkpt><trkpt lat="46.080931650254094" lon="13.42302722119573"><ele>126.66666666666667</ele><time>2026-04-04T11:20:36.999Z</time></trkpt><trkpt lat="46.081094991030675" lon="13.423252388538218"><ele>126.33333333333334</ele><time>2026-04-04T11:20:37.999Z</time></trkpt><trkpt lat="46.08124610710345" lon="13.423469048263177"><ele>126.0</ele><time>2026-04-04T11:20:38.999Z</time></trkpt><trkpt lat="46.08138899131521" lon="13.423675642830592"><ele>126.0</ele><time>2026-04-04T11:20:39.999Z</time></trkpt><trkpt lat="46.08152870574699" lon="13.423892251955412"><ele>126.0</ele><time>2026-04-04T11:20:40.999Z</time></trkpt><trkpt lat="46.08166749036662" lon="13.4241126064326"><ele>126.0</ele><time>2026-04-04T11:20:41.999Z</time></trkpt><trkpt lat="46.08180734899349" lon="13.424329847201635"><ele>127.0</ele><time>2026-04-04T11:20:42.999Z</time></trkpt><trkpt lat="46.08194710420838" lon="13.42454484672776"><ele>128.0</ele><time>2026-04-04T11:20:43.999Z</time></trkpt><trkpt lat="46.08208706414291" lon="13.424760091269045"><ele>129.0</ele><time>2026-04-04T11:20:44.999Z</time></trkpt><trkpt lat="46.08222725229812" lon="13.424974107324568"><ele>129.0</ele><time>2026-04-04T11:20:45.999Z</time></trkpt><trkpt lat="46.082368201167164" lon="13.425189122368925"><ele>129.0</ele><time>2026-04-04T11:20:46.999Z</time></trkpt><trkpt lat="46.08250929531439" lon="13.425409134919605"><ele>129.0</ele><time>2026-04-04T11:20:47.999Z</time></trkpt><trkpt lat="46.08264937218" lon="13.425632653061665"><ele>128.33333333333334</ele><time>2026-04-04T11:20:48.999Z</time></trkpt><trkpt lat="46.0827917277243" lon="13.425854726153814"><ele>127.66666666666667</ele><time>2026-04-04T11:20:49.999Z</time></trkpt><trkpt lat="46.082933575680606" lon="13.426074732200155"><ele>127.0</ele><time>2026-04-04T11:20:50.999Z</time></trkpt><trkpt lat="46.083070786492314" lon="13.426285614658326"><ele>127.33333333333334</ele><time>2026-04-04T11:20:51.999Z</time></trkpt><trkpt lat="46.08319918452645" lon="13.426476595508896"><ele>127.66666666666666</ele><time>2026-04-04T11:20:52.999Z</time></trkpt><trkpt lat="46.08332242067576" lon="13.42666123644236"><ele>128.0</ele><time>2026-04-04T11:20:53.999Z</time></trkpt><trkpt lat="46.08344257438455" lon="13.42684102933859"><ele>128.0</ele><time>2026-04-04T11:20:54.999Z</time></trkpt><trkpt lat="46.083560432316645" lon="13.4270183953479"><ele>128.0</ele><time>2026-04-04T11:20:55.999Z</time></trkpt><trkpt lat="46.08367425460399" lon="13.427195516619683"><ele>128.0</ele><time>2026-04-04T11:20:56.999Z</time></trkpt><trkpt lat="46.083786219402704" lon="13.427371699606109"><ele>128.0</ele><time>2026-04-04T11:20:57.999Z</time></trkpt><trkpt lat="46.083902045003036" lon="13.427543488774512"><ele>128.0</ele><time>2026-04-04T11:20:58.999Z</time></trkpt><trkpt lat="46.08402188438341" lon="13.427714341581568"><ele>128.0</ele><time>2026-04-04T11:21:00Z</time></trkpt><trkpt lat="46.084138117195856" lon="13.427892622335373"><ele>127.66666666666666</ele><time>2026-04-04T11:21:01Z</time></trkpt><trkpt lat="46.084252431642184" lon="13.428075504285296"><ele>127.33333333333334</ele><time>2026-04-04T11:21:02Z</time></trkpt><trkpt lat="46.08437007634497" lon="13.428255347927172"><ele>127.0</ele><time>2026-04-04T11:21:03Z</time></trkpt><trkpt lat="46.08448791206269" lon="13.428434542671084"><ele>127.0</ele><time>2026-04-04T11:21:04Z</time></trkpt><trkpt lat="46.084606933975785" lon="13.428615442444833"><ele>127.0</ele><time>2026-04-04T11:21:05Z</time></trkpt><trkpt lat="46.08472408540947" lon="13.42879333046607"><ele>127.0</ele><time>2026-04-04T11:21:06Z</time></trkpt><trkpt lat="46.08483895728509" lon="13.428965291372235"><ele>128.0</ele><time>2026-04-04T11:21:07Z</time></trkpt><trkpt lat="46.08495015998563" lon="13.429135422638359"><ele>129.0</ele><time>2026-04-04T11:21:08Z</time></trkpt><trkpt lat="46.08504739189725" lon="13.429287987387996"><ele>130.0</ele><time>2026-04-04T11:21:09Z</time></trkpt><trkpt lat="46.08513683568074" lon="13.42943047168963"><ele>131.0</ele><time>2026-04-04T11:21:10Z</time></trkpt><trkpt lat="46.08521728857301" lon="13.429568267956443"><ele>131.4</ele><time>2026-04-04T11:21:11Z</time></trkpt><trkpt lat="46.08529150575152" lon="13.429707524099555"><ele>131.8</ele><time>2026-04-04T11:21:12Z</time></trkpt><trkpt lat="46.08536075909765" lon="13.429850074308616"><ele>132.20000000000002</ele><time>2026-04-04T11:21:13Z</time></trkpt><trkpt lat="46.0854225139534" lon="13.429975625963722"><ele>132.6</ele><time>2026-04-04T11:21:14Z</time></trkpt><trkpt lat="46.085477587471956" lon="13.430087717515311"><ele>133.0</ele><time>2026-04-04T11:21:15Z</time></trkpt><trkpt lat="46.08553182650387" lon="13.430197312921988"><ele>133.0</ele><time>2026-04-04T11:21:16Z</time></trkpt><trkpt lat="46.08558302316672" lon="13.43030499239836"><ele>133.0</ele><time>2026-04-04T11:21:17Z</time></trkpt><trkpt lat="46.08562575563254" lon="13.430404167535757"><ele>133.0</ele><time>2026-04-04T11:21:18Z</time></trkpt><trkpt lat="46.0856611075729" lon="13.43051619724607"><ele>133.0</ele><time>2026-04-04T11:21:19Z</time></trkpt><trkpt lat="46.085685549451" lon="13.43064364655283"><ele>133.0</ele><time>2026-04-04T11:21:20Z</time></trkpt><trkpt lat="46.085712508947644" lon="13.430766522400255"><ele>133.0</ele><time>2026-04-04T11:21:21Z</time></trkpt><trkpt lat="46.08571852544575" lon="13.430890226695828"><ele>133.0</ele><time>2026-04-04T11:21:22Z</time></trkpt><trkpt lat="46.08568582998896" lon="13.431012233121569"><ele>133.0</ele><time>2026-04-04T11:21:23Z</time></trkpt><trkpt lat="46.085632262926644" lon="13.43109570479514"><ele>133.0</ele><time>2026-04-04T11:21:24Z</time></trkpt><trkpt lat="46.08559085298288" lon="13.431177969436149"><ele>133.0</ele><time>2026-04-04T11:21:25Z</time></trkpt><trkpt lat="46.085579480035044" lon="13.431284185489453"><ele>133.0</ele><time>2026-04-04T11:21:26Z</time></trkpt><trkpt lat="46.08558755973302" lon="13.431397849596058"><ele>133.0</ele><time>2026-04-04T11:21:27Z</time></trkpt><trkpt lat="46.08560997583048" lon="13.431498050387475"><ele>133.0</ele><time>2026-04-04T11:21:28Z</time></trkpt><trkpt lat="46.08557393312963" lon="13.431596585863026"><ele>133.0</ele><time>2026-04-04T11:21:29Z</time></trkpt><trkpt lat="46.085519521744644" lon="13.43175445336549"><ele>133.0</ele><time>2026-04-04T11:21:31Z</time></trkpt><trkpt lat="46.085466941898595" lon="13.431897510807195"><ele>133.0</ele><time>2026-04-04T11:21:33Z</time></trkpt><trkpt lat="46.08540749383348" lon="13.432036325427497"><ele>133.0</ele><time>2026-04-04T11:21:35Z</time></trkpt><trkpt lat="46.08534259204363" lon="13.432133903848186"><ele>133.0</ele><time>2026-04-04T11:21:37Z</time></trkpt><trkpt lat="46.08530355769359" lon="13.432216134181674"><ele>133.0</ele><time>2026-04-04T11:21:39Z</time></trkpt><trkpt lat="46.08528191777286" lon="13.432308177848459"><ele>133.0</ele><time>2026-04-04T11:22:52.999Z</time></trkpt><trkpt lat="46.08533392030262" lon="13.432250117651567"><ele>133.0</ele><time>2026-04-04T11:22:55.999Z</time></trkpt><trkpt lat="46.085367434480005" lon="13.432138172412927"><ele>133.0</ele><time>2026-04-04T11:22:56.999Z</time></trkpt><trkpt lat="46.08544309429783" lon="13.432020387974825"><ele>133.0</ele><time>2026-04-04T11:22:57.999Z</time></trkpt><trkpt lat="46.08550200532702" lon="13.431855454995665"><ele>133.0</ele><time>2026-04-04T11:22:58.999Z</time></trkpt><trkpt lat="46.0855458824741" lon="13.431729644198562"><ele>133.0</ele><time>2026-04-04T11:22:59.999Z</time></trkpt><trkpt lat="46.08558822452997" lon="13.431629884074548"><ele>133.0</ele><time>2026-04-04T11:23:00.999Z</time></trkpt><trkpt lat="46.08564266420516" lon="13.431558057040212"><ele>133.0</ele><time>2026-04-04T11:23:01.999Z</time></trkpt><trkpt lat="46.08571272657504" lon="13.431500192842835"><ele>133.0</ele><time>2026-04-04T11:23:02.999Z</time></trkpt><trkpt lat="46.08579465670829" lon="13.431453029820645"><ele>133.0</ele><time>2026-04-04T11:23:03.999Z</time></trkpt><trkpt lat="46.085873313149904" lon="13.431442413948444"><ele>133.0</ele><time>2026-04-04T11:23:05Z</time></trkpt><trkpt lat="46.08595497267522" lon="13.431493562897876"><ele>133.0</ele><time>2026-04-04T11:23:06Z</time></trkpt><trkpt lat="46.086035440776435" lon="13.431610608973594"><ele>133.0</ele><time>2026-04-04T11:23:07Z</time></trkpt><trkpt lat="46.08611757372781" lon="13.431784341506006"><ele>133.0</ele><time>2026-04-04T11:23:08Z</time></trkpt><trkpt lat="46.08620457065293" lon="13.431983058326297"><ele>133.0</ele><time>2026-04-04T11:23:09Z</time></trkpt><trkpt lat="46.0862939424468" lon="13.432206442679998"><ele>133.0</ele><time>2026-04-04T11:23:10Z</time></trkpt><trkpt lat="46.08639061167259" lon="13.432437281179048"><ele>133.0</ele><time>2026-04-04T11:23:11Z</time></trkpt><trkpt lat="46.08648869162676" lon="13.432669329152533"><ele>133.0</ele><time>2026-04-04T11:23:12Z</time></trkpt><trkpt lat="46.08657954163046" lon="13.432891666360884"><ele>133.0</ele><time>2026-04-04T11:23:13Z</time></trkpt><trkpt lat="46.08666670826822" lon="13.433099139523943"><ele>133.0</ele><time>2026-04-04T11:23:14Z</time></trkpt><trkpt lat="46.08674968182861" lon="13.433297143701008"><ele>133.66666666666669</ele><time>2026-04-04T11:23:15Z</time></trkpt><trkpt lat="46.08682867674127" lon="13.433486670868792"><ele>134.33333333333334</ele><time>2026-04-04T11:23:16Z</time></trkpt><trkpt lat="46.08690776414203" lon="13.433677883664618"><ele>135.0</ele><time>2026-04-04T11:23:17Z</time></trkpt><trkpt lat="46.08698784562795" lon="13.43387176630437"><ele>135.0</ele><time>2026-04-04T11:23:18Z</time></trkpt><trkpt lat="46.08707018181452" lon="13.434060832289216"><ele>135.0</ele><time>2026-04-04T11:23:19Z</time></trkpt><trkpt lat="46.08714702845594" lon="13.434238724334243"><ele>135.0</ele><time>2026-04-04T11:23:20Z</time></trkpt><trkpt lat="46.087214097229506" lon="13.43439710047607"><ele>135.0</ele><time>2026-04-04T11:23:21Z</time></trkpt><trkpt lat="46.08727607178944" lon="13.434548952040668"><ele>135.0</ele><time>2026-04-04T11:23:22Z</time></trkpt><trkpt lat="46.087326212235354" lon="13.434686362547078"><ele>135.0</ele><time>2026-04-04T11:23:23Z</time></trkpt><trkpt lat="46.087365845889565" lon="13.434804555801838"><ele>135.0</ele><time>2026-04-04T11:23:24Z</time></trkpt><trkpt lat="46.0874003007814" lon="13.434892296340132"><ele>135.0</ele><time>2026-04-04T11:23:25Z</time></trkpt><trkpt lat="46.087449667060625" lon="13.434998976851732"><ele>135.0</ele><time>2026-04-04T11:23:27Z</time></trkpt><trkpt lat="46.08752666474483" lon="13.435099930934825"><ele>135.4</ele><time>2026-04-04T11:23:37Z</time></trkpt><trkpt lat="46.087579311742886" lon="13.43519535243496"><ele>135.8</ele><time>2026-04-04T11:23:38Z</time></trkpt><trkpt lat="46.0876244505341" lon="13.435337341140007"><ele>136.2</ele><time>2026-04-04T11:23:39Z</time></trkpt><trkpt lat="46.08768161417896" lon="13.435498099397718"><ele>136.6</ele><time>2026-04-04T11:23:40Z</time></trkpt><trkpt lat="46.08775404720267" lon="13.435645891294156"><ele>137.0</ele><time>2026-04-04T11:23:41Z</time></trkpt><trkpt lat="46.0878363138639" lon="13.435781869492429"><ele>137.0</ele><time>2026-04-04T11:23:42Z</time></trkpt><trkpt lat="46.08794156939042" lon="13.43591268205498"><ele>137.0</ele><time>2026-04-04T11:23:43Z</time></trkpt><trkpt lat="46.0880543408491" lon="13.436054245875365"><ele>137.0</ele><time>2026-04-04T11:23:44Z</time></trkpt><trkpt lat="46.08816804193513" lon="13.4362029137545"><ele>137.0</ele><time>2026-04-04T11:23:45Z</time></trkpt><trkpt lat="46.088289510447794" lon="13.436340015327621"><ele>137.33333333333331</ele><time>2026-04-04T11:23:46Z</time></trkpt><trkpt lat="46.08842076660334" lon="13.436462212002983"><ele>137.66666666666666</ele><time>2026-04-04T11:23:47Z</time></trkpt><trkpt lat="46.088562317015" lon="13.43656198979715"><ele>138.0</ele><time>2026-04-04T11:23:48Z</time></trkpt><trkpt lat="46.088699370882985" lon="13.43667340807144"><ele>138.0</ele><time>2026-04-04T11:23:49Z</time></trkpt><trkpt lat="46.088837263605484" lon="13.436754441377293"><ele>138.0</ele><time>2026-04-04T11:23:50Z</time></trkpt><trkpt lat="46.08896327512358" lon="13.43682552522917"><ele>138.0</ele><time>2026-04-04T11:23:51Z</time></trkpt><trkpt lat="46.08907157479673" lon="13.436890583081398"><ele>138.0</ele><time>2026-04-04T11:23:52Z</time></trkpt><trkpt lat="46.08916029708915" lon="13.436953897949886"><ele>138.0</ele><time>2026-04-04T11:23:53Z</time></trkpt><trkpt lat="46.08922806080452" lon="13.43700334983456"><ele>138.0</ele><time>2026-04-04T11:23:54Z</time></trkpt><trkpt lat="46.089295841514144" lon="13.437052779735367"><ele>138.0</ele><time>2026-04-04T11:23:56Z</time></trkpt><trkpt lat="46.089364947314685" lon="13.437153805443579"><ele>138.0</ele><time>2026-04-04T11:23:58Z</time></trkpt><trkpt lat="46.089298100584905" lon="13.437482019738434"><ele>138.4</ele><time>2026-04-04T11:24:00Z</time></trkpt><trkpt lat="46.08927882673042" lon="13.437646372890535"><ele>138.8</ele><time>2026-04-04T11:24:01Z</time></trkpt><trkpt lat="46.089279242323336" lon="13.437804979776567"><ele>139.2</ele><time>2026-04-04T11:24:02Z</time></trkpt><trkpt lat="46.089241611367555" lon="13.437944809640022"><ele>139.6</ele><time>2026-04-04T11:24:03Z</time></trkpt><trkpt lat="46.08919273555076" lon="13.438070104912176"><ele>140.0</ele><time>2026-04-04T11:24:04Z</time></trkpt><trkpt lat="46.08914275607971" lon="13.438183958991546"><ele>140.0</ele><time>2026-04-04T11:24:05Z</time></trkpt><trkpt lat="46.089077663951365" lon="13.438262338834045"><ele>140.0</ele><time>2026-04-04T11:24:06Z</time></trkpt><trkpt lat="46.08904250379721" lon="13.438344278504987"><ele>140.0</ele><time>2026-04-04T11:24:06.999Z</time></trkpt><trkpt lat="46.089017381670836" lon="13.438442087619155"><ele>140.0</ele><time>2026-04-04T11:24:08.999Z</time></trkpt><trkpt lat="46.08920441692583" lon="13.438575072746922"><ele>140.0</ele><time>2026-04-04T11:24:09.999Z</time></trkpt><trkpt lat="46.08932610929054" lon="13.438612283678555"><ele>140.0</ele><time>2026-04-04T11:24:10.999Z</time></trkpt><trkpt lat="46.08946295414656" lon="13.438660980962151"><ele>140.0</ele><time>2026-04-04T11:24:11.999Z</time></trkpt><trkpt lat="46.08960830087536" lon="13.438660416431834"><ele>140.0</ele><time>2026-04-04T11:24:12.999Z</time></trkpt><trkpt lat="46.08972453534425" lon="13.43861447576084"><ele>140.0</ele><time>2026-04-04T11:24:13.999Z</time></trkpt><trkpt lat="46.08981704660262" lon="13.438580195339929"><ele>140.0</ele><time>2026-04-04T11:24:14.999Z</time></trkpt><trkpt lat="46.08988399390422" lon="13.438537217834106"><ele>140.0</ele><time>2026-04-04T11:24:15.999Z</time></trkpt><trkpt lat="46.090026526298786" lon="13.438762749708516"><ele>140.0</ele><time>2026-04-04T11:24:17.999Z</time></trkpt><trkpt lat="46.09007460086641" lon="13.438930743995135"><ele>140.0</ele><time>2026-04-04T11:24:18.999Z</time></trkpt><trkpt lat="46.09012856710065" lon="13.43911948723178"><ele>139.66666666666666</ele><time>2026-04-04T11:24:19.999Z</time></trkpt><trkpt lat="46.09019457440543" lon="13.43932787272519"><ele>139.33333333333334</ele><time>2026-04-04T11:24:20.999Z</time></trkpt><trkpt lat="46.09025898029683" lon="13.439566206948358"><ele>139.0</ele><time>2026-04-04T11:24:21.999Z</time></trkpt><trkpt lat="46.090326188901244" lon="13.43981429316094"><ele>139.0</ele><time>2026-04-04T11:24:22.999Z</time></trkpt><trkpt lat="46.09039313028173" lon="13.440072035049166"><ele>139.0</ele><time>2026-04-04T11:24:23.999Z</time></trkpt><trkpt lat="46.09045626938853" lon="13.440327566827003"><ele>139.0</ele><time>2026-04-04T11:24:24.999Z</time></trkpt><trkpt lat="46.09051483280729" lon="13.440581581399185"><ele>138.33333333333334</ele><time>2026-04-04T11:24:25.999Z</time></trkpt><trkpt lat="46.09056907817091" lon="13.440833156036163"><ele>137.66666666666666</ele><time>2026-04-04T11:24:26.999Z</time></trkpt><trkpt lat="46.09062159056837" lon="13.44107914080944"><ele>137.0</ele><time>2026-04-04T11:24:27.999Z</time></trkpt><trkpt lat="46.090675339338034" lon="13.441322924401657"><ele>137.0</ele><time>2026-04-04T11:24:28.999Z</time></trkpt><trkpt lat="46.09072857919977" lon="13.441564598209547"><ele>137.0</ele><time>2026-04-04T11:24:29.999Z</time></trkpt><trkpt lat="46.09077824444098" lon="13.441803670055567"><ele>137.0</ele><time>2026-04-04T11:24:30.999Z</time></trkpt><trkpt lat="46.090828125630054" lon="13.442042099017332"><ele>137.33333333333331</ele><time>2026-04-04T11:24:31.999Z</time></trkpt><trkpt lat="46.09088024289743" lon="13.44228188061273"><ele>137.66666666666666</ele><time>2026-04-04T11:24:32.999Z</time></trkpt><trkpt lat="46.090938162653124" lon="13.442522368370602"><ele>138.0</ele><time>2026-04-04T11:24:33.999Z</time></trkpt><trkpt lat="46.09100225227369" lon="13.442759369697075"><ele>138.33333333333334</ele><time>2026-04-04T11:24:34.999Z</time></trkpt><trkpt lat="46.09107329937163" lon="13.442987665958329"><ele>138.66666666666669</ele><time>2026-04-04T11:24:35.999Z</time></trkpt><trkpt lat="46.09114497853321" lon="13.443213055118973"><ele>139.0</ele><time>2026-04-04T11:24:36.999Z</time></trkpt><trkpt lat="46.09121664291836" lon="13.443446404135225"><ele>139.0</ele><time>2026-04-04T11:24:37.999Z</time></trkpt><trkpt lat="46.09129030985063" lon="13.443684874043315"><ele>139.0</ele><time>2026-04-04T11:24:38.999Z</time></trkpt><trkpt lat="46.091359824562886" lon="13.443930841849701"><ele>139.0</ele><time>2026-04-04T11:24:39.999Z</time></trkpt><trkpt lat="46.09142561860963" lon="13.444180287415936"><ele>138.66666666666669</ele><time>2026-04-04T11:24:40.999Z</time></trkpt><trkpt lat="46.091481538009354" lon="13.444435082264498"><ele>138.33333333333334</ele><time>2026-04-04T11:24:41.999Z</time></trkpt><trkpt lat="46.09152157814785" lon="13.444695267836604"><ele>138.0</ele><time>2026-04-04T11:24:42.999Z</time></trkpt><trkpt lat="46.0915593161293" lon="13.444952422322942"><ele>139.0</ele><time>2026-04-04T11:24:43.999Z</time></trkpt><trkpt lat="46.0915934066085" lon="13.445205635792217"><ele>140.0</ele><time>2026-04-04T11:24:44.999Z</time></trkpt><trkpt lat="46.09162232971353" lon="13.44544202339319"><ele>141.0</ele><time>2026-04-04T11:24:45.999Z</time></trkpt><trkpt lat="46.09164500466504" lon="13.445659730804643"><ele>141.0</ele><time>2026-04-04T11:24:46.999Z</time></trkpt><trkpt lat="46.09167860958111" lon="13.445865750761245"><ele>141.0</ele><time>2026-04-04T11:24:47.999Z</time></trkpt><trkpt lat="46.09172051715729" lon="13.446061155337322"><ele>141.0</ele><time>2026-04-04T11:24:48.999Z</time></trkpt><trkpt lat="46.09177079314449" lon="13.446243911810813"><ele>141.0</ele><time>2026-04-04T11:24:49.999Z</time></trkpt><trkpt lat="46.09183185097407" lon="13.446420008135785"><ele>141.25</ele><time>2026-04-04T11:24:50.999Z</time></trkpt><trkpt lat="46.09191196917789" lon="13.446576910847424"><ele>141.5</ele><time>2026-04-04T11:24:51.999Z</time></trkpt><trkpt lat="46.092016947580944" lon="13.446702919328294"><ele>141.75</ele><time>2026-04-04T11:24:52.999Z</time></trkpt><trkpt lat="46.09214511902741" lon="13.44679168765769"><ele>142.0</ele><time>2026-04-04T11:24:53.999Z</time></trkpt><trkpt lat="46.09227441202099" lon="13.446875460336557"><ele>142.0</ele><time>2026-04-04T11:24:54.999Z</time></trkpt><trkpt lat="46.09238500530577" lon="13.447010331642758"><ele>142.0</ele><time>2026-04-04T11:24:55.999Z</time></trkpt><trkpt lat="46.09247649300743" lon="13.447199468370107"><ele>142.0</ele><time>2026-04-04T11:24:56.999Z</time></trkpt><trkpt lat="46.09257741264429" lon="13.447397767683379"><ele>141.33333333333334</ele><time>2026-04-04T11:24:57.999Z</time></trkpt><trkpt lat="46.09269038293526" lon="13.447597997964657"><ele>140.66666666666666</ele><time>2026-04-04T11:24:58.999Z</time></trkpt><trkpt lat="46.09279101018003" lon="13.447796112717917"><ele>140.0</ele><time>2026-04-04T11:24:59.999Z</time></trkpt><trkpt lat="46.0928954274808" lon="13.447997477628492"><ele>142.33333333333331</ele><time>2026-04-04T11:25:00.999Z</time></trkpt><trkpt lat="46.09300232433209" lon="13.448198208999036"><ele>144.66666666666666</ele><time>2026-04-04T11:25:01.999Z</time></trkpt><trkpt lat="46.09310118383714" lon="13.448403405413703"><ele>147.0</ele><time>2026-04-04T11:25:02.999Z</time></trkpt><trkpt lat="46.09319401411909" lon="13.448609814977356"><ele>141.66666666666666</ele><time>2026-04-04T11:25:03.999Z</time></trkpt><trkpt lat="46.09328768207367" lon="13.448816265656395"><ele>136.33333333333331</ele><time>2026-04-04T11:25:04.999Z</time></trkpt><trkpt lat="46.09338138689434" lon="13.449012316429977"><ele>131.0</ele><time>2026-04-04T11:25:05.999Z</time></trkpt><trkpt lat="46.093471596348806" lon="13.449206567367566"><ele>131.0</ele><time>2026-04-04T11:25:06.999Z</time></trkpt><trkpt lat="46.09356523883485" lon="13.449396010083266"><ele>131.0</ele><time>2026-04-04T11:25:07.999Z</time></trkpt><trkpt lat="46.093670757967914" lon="13.4495722806422"><ele>131.0</ele><time>2026-04-04T11:25:08.999Z</time></trkpt><trkpt lat="46.09378891578262" lon="13.44972954879287"><ele>132.33333333333331</ele><time>2026-04-04T11:25:10Z</time></trkpt><trkpt lat="46.09391118040882" lon="13.449875127239569"><ele>133.66666666666666</ele><time>2026-04-04T11:25:11Z</time></trkpt><trkpt lat="46.09403115082405" lon="13.450018610511567"><ele>135.0</ele><time>2026-04-04T11:25:12Z</time></trkpt><trkpt lat="46.094144942886736" lon="13.450160206425371"><ele>135.5</ele><time>2026-04-04T11:25:13Z</time></trkpt><trkpt lat="46.09425897669684" lon="13.450296817301615"><ele>136.0</ele><time>2026-04-04T11:25:14Z</time></trkpt><trkpt lat="46.094369889251865" lon="13.450429086508398"><ele>136.5</ele><time>2026-04-04T11:25:15Z</time></trkpt><trkpt lat="46.094479889365594" lon="13.45056381610563"><ele>137.0</ele><time>2026-04-04T11:25:16Z</time></trkpt><trkpt lat="46.09459191377266" lon="13.450701015185897"><ele>137.0</ele><time>2026-04-04T11:25:17Z</time></trkpt><trkpt lat="46.09470636967516" lon="13.450836537781246"><ele>137.0</ele><time>2026-04-04T11:25:18Z</time></trkpt><trkpt lat="46.0948259226655" lon="13.450974318419926"><ele>137.0</ele><time>2026-04-04T11:25:19Z</time></trkpt><trkpt lat="46.094947371950596" lon="13.451117481445412"><ele>137.66666666666666</ele><time>2026-04-04T11:25:20Z</time></trkpt><trkpt lat="46.09506878206647" lon="13.45126838652908"><ele>138.33333333333334</ele><time>2026-04-04T11:25:21Z</time></trkpt><trkpt lat="46.095181886488426" lon="13.45142232484758"><ele>139.0</ele><time>2026-04-04T11:25:22Z</time></trkpt><trkpt lat="46.0952850268907" lon="13.45158145372129"><ele>139.0</ele><time>2026-04-04T11:25:23Z</time></trkpt><trkpt lat="46.09538225477969" lon="13.45174717927315"><ele>139.0</ele><time>2026-04-04T11:25:24Z</time></trkpt><trkpt lat="46.095479550865726" lon="13.451916585608716"><ele>139.0</ele><time>2026-04-04T11:25:25Z</time></trkpt><trkpt lat="46.095573597174955" lon="13.452092560920903"><ele>139.0</ele><time>2026-04-04T11:25:26Z</time></trkpt><trkpt lat="46.095653319678675" lon="13.452289636046988"><ele>139.0</ele><time>2026-04-04T11:25:27Z</time></trkpt><trkpt lat="46.09576811161157" lon="13.452449829686083"><ele>139.0</ele><time>2026-04-04T11:25:28Z</time></trkpt><trkpt lat="46.09587677304855" lon="13.452613523117083"><ele>139.33333333333334</ele><time>2026-04-04T11:25:29Z</time></trkpt><trkpt lat="46.09599428244709" lon="13.452774684419065"><ele>139.66666666666666</ele><time>2026-04-04T11:25:30Z</time></trkpt><trkpt lat="46.09611069967092" lon="13.452942112345392"><ele>140.0</ele><time>2026-04-04T11:25:31Z</time></trkpt><trkpt lat="46.096220940048255" lon="13.453118153315932"><ele>140.0</ele><time>2026-04-04T11:25:32Z</time></trkpt><trkpt lat="46.096322949549034" lon="13.453307556939606"><ele>140.0</ele><time>2026-04-04T11:25:33Z</time></trkpt><trkpt lat="46.09641923084827" lon="13.453503953672822"><ele>140.0</ele><time>2026-04-04T11:25:34Z</time></trkpt><trkpt lat="46.096513527517274" lon="13.453700110510672"><ele>140.0</ele><time>2026-04-04T11:25:35Z</time></trkpt><trkpt lat="46.09660988156058" lon="13.453893318566104"><ele>140.0</ele><time>2026-04-04T11:25:36Z</time></trkpt><trkpt lat="46.096707251624494" lon="13.454087179168454"><ele>140.0</ele><time>2026-04-04T11:25:37Z</time></trkpt><trkpt lat="46.0968062023956" lon="13.454283243213167"><ele>140.0</ele><time>2026-04-04T11:25:38Z</time></trkpt><trkpt lat="46.096902472056556" lon="13.454481691559106"><ele>140.0</ele><time>2026-04-04T11:25:39Z</time></trkpt><trkpt lat="46.09699572874006" lon="13.454678719626477"><ele>140.0</ele><time>2026-04-04T11:25:40Z</time></trkpt><trkpt lat="46.0970769611096" lon="13.45488562784759"><ele>140.33333333333331</ele><time>2026-04-04T11:25:41Z</time></trkpt><trkpt lat="46.09716214073862" lon="13.45509526197181"><ele>140.66666666666666</ele><time>2026-04-04T11:25:42Z</time></trkpt><trkpt lat="46.09724444196623" lon="13.45531584894739"><ele>141.0</ele><time>2026-04-04T11:25:43Z</time></trkpt><trkpt lat="46.0973309825158" lon="13.455539399421422"><ele>141.0</ele><time>2026-04-04T11:25:44Z</time></trkpt><trkpt lat="46.09741693308957" lon="13.455761804365123"><ele>141.0</ele><time>2026-04-04T11:25:45Z</time></trkpt><trkpt lat="46.09750056899683" lon="13.45598706847747"><ele>141.0</ele><time>2026-04-04T11:25:46Z</time></trkpt><trkpt lat="46.097583596435626" lon="13.456208731669905"><ele>141.0</ele><time>2026-04-04T11:25:47Z</time></trkpt><trkpt lat="46.09766728891567" lon="13.456432176839005"><ele>141.0</ele><time>2026-04-04T11:25:48Z</time></trkpt><trkpt lat="46.09775002945632" lon="13.456661101903926"><ele>141.0</ele><time>2026-04-04T11:25:49Z</time></trkpt><trkpt lat="46.097827181057596" lon="13.456903918116764"><ele>140.66666666666666</ele><time>2026-04-04T11:25:50Z</time></trkpt><trkpt lat="46.097883240236186" lon="13.45718044530774"><ele>140.33333333333331</ele><time>2026-04-04T11:25:51Z</time></trkpt><trkpt lat="46.097950722124125" lon="13.457468264392098"><ele>140.0</ele><time>2026-04-04T11:25:52Z</time></trkpt><trkpt lat="46.09802255658497" lon="13.45776349473074"><ele>140.0</ele><time>2026-04-04T11:25:53Z</time></trkpt><trkpt lat="46.098098700199024" lon="13.458072134793731"><ele>140.0</ele><time>2026-04-04T11:25:54Z</time></trkpt><trkpt lat="46.098173786376876" lon="13.458390160906912"><ele>140.0</ele><time>2026-04-04T11:25:55Z</time></trkpt><trkpt lat="46.09824721424891" lon="13.45870632453043"><ele>140.0</ele><time>2026-04-04T11:25:56Z</time></trkpt><trkpt lat="46.09832159772413" lon="13.459017448022859"><ele>141.0</ele><time>2026-04-04T11:25:57Z</time></trkpt><trkpt lat="46.09839911923805" lon="13.45934420256574"><ele>142.0</ele><time>2026-04-04T11:25:58Z</time></trkpt><trkpt lat="46.09848274544257" lon="13.459692381353287"><ele>142.5</ele><time>2026-04-04T11:25:59Z</time></trkpt><trkpt lat="46.098575968259205" lon="13.46007113217835"><ele>143.0</ele><time>2026-04-04T11:26:00Z</time></trkpt><trkpt lat="46.09869715284229" lon="13.460515827403396"><ele>143.5</ele><time>2026-04-04T11:26:01Z</time></trkpt><trkpt lat="46.098838212635" lon="13.460997246688333"><ele>144.0</ele><time>2026-04-04T11:26:02Z</time></trkpt><trkpt lat="46.09897888809333" lon="13.461422850795977"><ele>144.5</ele><time>2026-04-04T11:26:03Z</time></trkpt><trkpt lat="46.099090805732075" lon="13.461826848816122"><ele>145.0</ele><time>2026-04-04T11:26:04Z</time></trkpt><trkpt lat="46.09921445984696" lon="13.462206451076883"><ele>145.5</ele><time>2026-04-04T11:26:05Z</time></trkpt><trkpt lat="46.099347889190554" lon="13.462562077872407"><ele>146.0</ele><time>2026-04-04T11:26:05.999Z</time></trkpt><trkpt lat="46.099485097036684" lon="13.462897058549094"><ele>146.5</ele><time>2026-04-04T11:26:06.999Z</time></trkpt><trkpt lat="46.09962687629576" lon="13.463212609839587"><ele>147.0</ele><time>2026-04-04T11:26:07.999Z</time></trkpt><trkpt lat="46.09977597956353" lon="13.463511876323876"><ele>146.5</ele><time>2026-04-04T11:26:08.999Z</time></trkpt><trkpt lat="46.09993356011062" lon="13.463795160857114"><ele>146.0</ele><time>2026-04-04T11:26:09.999Z</time></trkpt><trkpt lat="46.1000883110888" lon="13.464076538509243"><ele>146.0</ele><time>2026-04-04T11:26:10.999Z</time></trkpt><trkpt lat="46.10023850641608" lon="13.46435842300077"><ele>146.0</ele><time>2026-04-04T11:26:11.999Z</time></trkpt><trkpt lat="46.1003877292148" lon="13.464635520211354"><ele>145.0</ele><time>2026-04-04T11:26:12.999Z</time></trkpt><trkpt lat="46.100536163689924" lon="13.464916894683846"><ele>144.0</ele><time>2026-04-04T11:26:13.999Z</time></trkpt><trkpt lat="46.10068801715202" lon="13.465197494461005"><ele>144.0</ele><time>2026-04-04T11:26:14.999Z</time></trkpt><trkpt lat="46.10083873477416" lon="13.465479329463465"><ele>144.0</ele><time>2026-04-04T11:26:15.999Z</time></trkpt><trkpt lat="46.1009875141507" lon="13.465766029805856"><ele>144.0</ele><time>2026-04-04T11:26:16.999Z</time></trkpt><trkpt lat="46.101137501380656" lon="13.46605198591768"><ele>144.0</ele><time>2026-04-04T11:26:17.999Z</time></trkpt><trkpt lat="46.101282038968684" lon="13.466345892932454"><ele>144.0</ele><time>2026-04-04T11:26:18.999Z</time></trkpt><trkpt lat="46.10141318109695" lon="13.46665363434314"><ele>144.0</ele><time>2026-04-04T11:26:19.999Z</time></trkpt><trkpt lat="46.10154296009933" lon="13.466964390183886"><ele>145.0</ele><time>2026-04-04T11:26:20.999Z</time></trkpt><trkpt lat="46.101678212073594" lon="13.467269545087644"><ele>146.0</ele><time>2026-04-04T11:26:21.999Z</time></trkpt><trkpt lat="46.10180710969007" lon="13.467580384484663"><ele>146.0</ele><time>2026-04-04T11:26:22.999Z</time></trkpt><trkpt lat="46.10193661787117" lon="13.467889771796726"><ele>146.0</ele><time>2026-04-04T11:26:23.999Z</time></trkpt><trkpt lat="46.102071983835394" lon="13.468192134277118"><ele>146.0</ele><time>2026-04-04T11:26:24.999Z</time></trkpt><trkpt lat="46.10220414207338" lon="13.46849499601144"><ele>146.0</ele><time>2026-04-04T11:26:25.999Z</time></trkpt><trkpt lat="46.1023290881539" lon="13.468797363222578"><ele>146.0</ele><time>2026-04-04T11:26:26.999Z</time></trkpt><trkpt lat="46.10245225061047" lon="13.469088629949587"><ele>146.0</ele><time>2026-04-04T11:26:27.999Z</time></trkpt><trkpt lat="46.10257974274722" lon="13.46936625215455"><ele>146.0</ele><time>2026-04-04T11:26:28.999Z</time></trkpt><trkpt lat="46.102716184238076" lon="13.46962728168836"><ele>146.0</ele><time>2026-04-04T11:26:29.999Z</time></trkpt><trkpt lat="46.10287488686657" lon="13.469866798730319"><ele>146.0</ele><time>2026-04-04T11:26:30.999Z</time></trkpt><trkpt lat="46.10305428937826" lon="13.47008960429766"><ele>146.0</ele><time>2026-04-04T11:26:31.999Z</time></trkpt><trkpt lat="46.103240026546096" lon="13.470302603858006"><ele>146.5</ele><time>2026-04-04T11:26:32.999Z</time></trkpt><trkpt lat="46.10342310664943" lon="13.470516732846782"><ele>147.0</ele><time>2026-04-04T11:26:33.999Z</time></trkpt><trkpt lat="46.10361080496689" lon="13.470712735682744"><ele>147.0</ele><time>2026-04-04T11:26:34.999Z</time></trkpt><trkpt lat="46.10381619020632" lon="13.470866876493046"><ele>147.0</ele><time>2026-04-04T11:26:35.999Z</time></trkpt><trkpt lat="46.1040320122091" lon="13.47100550854685"><ele>147.0</ele><time>2026-04-04T11:26:36.999Z</time></trkpt><trkpt lat="46.10423223676503" lon="13.471147609391608"><ele>147.0</ele><time>2026-04-04T11:26:37.999Z</time></trkpt><trkpt lat="46.10442003372343" lon="13.471286436175737"><ele>147.0</ele><time>2026-04-04T11:26:38.999Z</time></trkpt><trkpt lat="46.10458724473153" lon="13.471405584747782"><ele>147.0</ele><time>2026-04-04T11:26:39.999Z</time></trkpt><trkpt lat="46.104742820465106" lon="13.471519709145461"><ele>147.0</ele><time>2026-04-04T11:26:40.999Z</time></trkpt><trkpt lat="46.10488281300475" lon="13.4716504175922"><ele>147.0</ele><time>2026-04-04T11:26:41.999Z</time></trkpt><trkpt lat="46.10500878564917" lon="13.471814189880755"><ele>146.66666666666666</ele><time>2026-04-04T11:26:42.999Z</time></trkpt><trkpt lat="46.105126982206876" lon="13.472018474029522"><ele>146.33333333333331</ele><time>2026-04-04T11:26:43.999Z</time></trkpt><trkpt lat="46.10523868787256" lon="13.472241402824471"><ele>146.0</ele><time>2026-04-04T11:26:44.999Z</time></trkpt><trkpt lat="46.10535085751343" lon="13.472467844210001"><ele>146.0</ele><time>2026-04-04T11:26:45.999Z</time></trkpt><trkpt lat="46.10546347224921" lon="13.472693227151641"><ele>146.0</ele><time>2026-04-04T11:26:46.999Z</time></trkpt><trkpt lat="46.10557583785783" lon="13.47291889904984"><ele>146.0</ele><time>2026-04-04T11:26:47.999Z</time></trkpt><trkpt lat="46.10568292643179" lon="13.473141827715024"><ele>144.0</ele><time>2026-04-04T11:26:48.999Z</time></trkpt><trkpt lat="46.10578348442683" lon="13.473355559467432"><ele>142.0</ele><time>2026-04-04T11:26:49.999Z</time></trkpt><trkpt lat="46.1058837979217" lon="13.473552216699215"><ele>140.0</ele><time>2026-04-04T11:26:50.999Z</time></trkpt><trkpt lat="46.1060008075345" lon="13.47373397365708"><ele>143.33333333333331</ele><time>2026-04-04T11:26:51.999Z</time></trkpt><trkpt lat="46.10614044106385" lon="13.473894398964733"><ele>146.66666666666666</ele><time>2026-04-04T11:26:52.999Z</time></trkpt><trkpt lat="46.10629816861957" lon="13.474023174318463"><ele>150.0</ele><time>2026-04-04T11:26:53.999Z</time></trkpt><trkpt lat="46.10647440091259" lon="13.47412337452155"><ele>146.0</ele><time>2026-04-04T11:26:54.999Z</time></trkpt><trkpt lat="46.106668955617096" lon="13.474191018395349"><ele>142.0</ele><time>2026-04-04T11:26:55.999Z</time></trkpt><trkpt lat="46.10688107268169" lon="13.474222039063768"><ele>138.0</ele><time>2026-04-04T11:26:56.999Z</time></trkpt><trkpt lat="46.10710952259773" lon="13.474247845808186"><ele>138.0</ele><time>2026-04-04T11:26:57.999Z</time></trkpt><trkpt lat="46.10736415022942" lon="13.474278530256369"><ele>138.0</ele><time>2026-04-04T11:26:58.999Z</time></trkpt><trkpt lat="46.10763388357101" lon="13.47431679365236"><ele>135.5</ele><time>2026-04-04T11:26:59.999Z</time></trkpt><trkpt lat="46.107902475335095" lon="13.474352398256228"><ele>133.0</ele><time>2026-04-04T11:27:00.999Z</time></trkpt><trkpt lat="46.10815013372677" lon="13.474384983398744"><ele>132.66666666666669</ele><time>2026-04-04T11:27:01.999Z</time></trkpt><trkpt lat="46.108370394871265" lon="13.474415923249575"><ele>132.33333333333334</ele><time>2026-04-04T11:27:02.999Z</time></trkpt><trkpt lat="46.10856328374412" lon="13.474441498083253"><ele>132.0</ele><time>2026-04-04T11:27:03.999Z</time></trkpt><trkpt lat="46.10872650214943" lon="13.474466675805473"><ele>132.0</ele><time>2026-04-04T11:27:04.999Z</time></trkpt><trkpt lat="46.108866627331224" lon="13.474500380730017"><ele>132.0</ele><time>2026-04-04T11:27:05.999Z</time></trkpt><trkpt lat="46.108988286971865" lon="13.474552024996527"><ele>132.0</ele><time>2026-04-04T11:27:06.999Z</time></trkpt><trkpt lat="46.109104402700204" lon="13.474626251312753"><ele>132.0</ele><time>2026-04-04T11:27:07.999Z</time></trkpt><trkpt lat="46.10922829996926" lon="13.474728045696267"><ele>131.66666666666666</ele><time>2026-04-04T11:27:08.999Z</time></trkpt><trkpt lat="46.10936345380967" lon="13.474856273236632"><ele>131.33333333333331</ele><time>2026-04-04T11:27:09.999Z</time></trkpt><trkpt lat="46.10950334856665" lon="13.474999728145418"><ele>131.0</ele><time>2026-04-04T11:27:10.999Z</time></trkpt><trkpt lat="46.10964910706445" lon="13.475148622671986"><ele>131.0</ele><time>2026-04-04T11:27:11.999Z</time></trkpt><trkpt lat="46.109799057168075" lon="13.475295218954857"><ele>131.0</ele><time>2026-04-04T11:27:12.999Z</time></trkpt><trkpt lat="46.10994107002286" lon="13.475445733033796"><ele>131.0</ele><time>2026-04-04T11:27:13.999Z</time></trkpt><trkpt lat="46.11007876116915" lon="13.475588406324732"><ele>132.5</ele><time>2026-04-04T11:27:15Z</time></trkpt><trkpt lat="46.11020787730877" lon="13.475710411467224"><ele>134.0</ele><time>2026-04-04T11:27:16Z</time></trkpt><trkpt lat="46.11031329446615" lon="13.475814204931307"><ele>135.5</ele><time>2026-04-04T11:27:17Z</time></trkpt><trkpt lat="46.11038511212139" lon="13.475939022388097"><ele>137.0</ele><time>2026-04-04T11:27:18Z</time></trkpt><trkpt lat="46.11041469449146" lon="13.476126583801229"><ele>136.5</ele><time>2026-04-04T11:27:19Z</time></trkpt><trkpt lat="46.11047053646234" lon="13.476312953978102"><ele>136.0</ele><time>2026-04-04T11:27:20Z</time></trkpt><trkpt lat="46.11051747910639" lon="13.47648361378179"><ele>135.5</ele><time>2026-04-04T11:27:21Z</time></trkpt><trkpt lat="46.11058366897533" lon="13.476627622053563"><ele>135.0</ele><time>2026-04-04T11:27:22Z</time></trkpt><trkpt lat="46.11069734202275" lon="13.476736161878264"><ele>137.66666666666666</ele><time>2026-04-04T11:27:23Z</time></trkpt><trkpt lat="46.11082842365009" lon="13.476844815854653"><ele>140.33333333333331</ele><time>2026-04-04T11:27:24Z</time></trkpt><trkpt lat="46.11096580606563" lon="13.476968053928612"><ele>143.0</ele><time>2026-04-04T11:27:25Z</time></trkpt><trkpt lat="46.11111452473031" lon="13.477090771870543"><ele>142.0</ele><time>2026-04-04T11:27:26Z</time></trkpt><trkpt lat="46.11126297039717" lon="13.477195933572512"><ele>141.0</ele><time>2026-04-04T11:27:27Z</time></trkpt><trkpt lat="46.11140047533959" lon="13.477260594124504"><ele>140.0</ele><time>2026-04-04T11:27:28Z</time></trkpt><trkpt lat="46.111525251695916" lon="13.477307624395442"><ele>139.0</ele><time>2026-04-04T11:27:29Z</time></trkpt><trkpt lat="46.111629170974844" lon="13.477353308222634"><ele>140.5</ele><time>2026-04-04T11:27:30Z</time></trkpt><trkpt lat="46.111707088527666" lon="13.477388413652312"><ele>142.0</ele><time>2026-04-04T11:27:31Z</time></trkpt><trkpt lat="46.11178012410694" lon="13.477434639373287"><ele>143.5</ele><time>2026-04-04T11:27:33Z</time></trkpt><trkpt lat="46.11186871009696" lon="13.477464045461728"><ele>145.0</ele><time>2026-04-04T11:27:45Z</time></trkpt><trkpt lat="46.111898416620335" lon="13.477376763032026"><ele>146.5</ele><time>2026-04-04T11:27:46Z</time></trkpt><trkpt lat="46.111952207140554" lon="13.477276980284106"><ele>148.0</ele><time>2026-04-04T11:27:48Z</time></trkpt><trkpt lat="46.11208258670893" lon="13.477376582790761"><ele>148.0</ele><time>2026-04-04T11:27:49Z</time></trkpt><trkpt lat="46.11217511512427" lon="13.477408432413688"><ele>148.0</ele><time>2026-04-04T11:27:50Z</time></trkpt><trkpt lat="46.11228728120464" lon="13.477448516061159"><ele>148.0</ele><time>2026-04-04T11:27:51Z</time></trkpt><trkpt lat="46.11242477651935" lon="13.477504803696515"><ele>148.0</ele><time>2026-04-04T11:27:52Z</time></trkpt><trkpt lat="46.11257941461954" lon="13.477554473806196"><ele>148.0</ele><time>2026-04-04T11:27:53Z</time></trkpt><trkpt lat="46.112749292822144" lon="13.477611204190563"><ele>148.0</ele><time>2026-04-04T11:27:54Z</time></trkpt><trkpt lat="46.11292830549526" lon="13.477691449442979"><ele>148.0</ele><time>2026-04-04T11:27:55Z</time></trkpt><trkpt lat="46.11311485359809" lon="13.477798958833596"><ele>147.66666666666669</ele><time>2026-04-04T11:27:56Z</time></trkpt><trkpt lat="46.113297908267576" lon="13.477932246736803"><ele>147.33333333333334</ele><time>2026-04-04T11:27:57Z</time></trkpt><trkpt lat="46.113470411000904" lon="13.478095243142223"><ele>147.0</ele><time>2026-04-04T11:27:58Z</time></trkpt><trkpt lat="46.11363807877556" lon="13.478268358430022"><ele>147.0</ele><time>2026-04-04T11:27:59Z</time></trkpt><trkpt lat="46.11380277042104" lon="13.478440701033303"><ele>147.0</ele><time>2026-04-04T11:28:00Z</time></trkpt><trkpt lat="46.113962136150946" lon="13.478618834666543"><ele>147.0</ele><time>2026-04-04T11:28:01Z</time></trkpt><trkpt lat="46.11410506472118" lon="13.478814753856495"><ele>148.66666666666666</ele><time>2026-04-04T11:28:02Z</time></trkpt><trkpt lat="46.11423745126103" lon="13.47901705973943"><ele>150.33333333333331</ele><time>2026-04-04T11:28:03Z</time></trkpt><trkpt lat="46.114377139287484" lon="13.479208519044192"><ele>152.0</ele><time>2026-04-04T11:28:04Z</time></trkpt><trkpt lat="46.114529355796755" lon="13.479385585781708"><ele>152.0</ele><time>2026-04-04T11:28:05Z</time></trkpt><trkpt lat="46.11469269029815" lon="13.479546952223101"><ele>152.0</ele><time>2026-04-04T11:28:06Z</time></trkpt><trkpt lat="46.11486425649798" lon="13.479698390733963"><ele>152.0</ele><time>2026-04-04T11:28:07Z</time></trkpt><trkpt lat="46.11503895994585" lon="13.479848489187862"><ele>151.66666666666666</ele><time>2026-04-04T11:28:08Z</time></trkpt><trkpt lat="46.11521332730852" lon="13.480001100975008"><ele>151.33333333333334</ele><time>2026-04-04T11:28:08.999Z</time></trkpt><trkpt lat="46.11538938349758" lon="13.48015101194127"><ele>151.0</ele><time>2026-04-04T11:28:09.999Z</time></trkpt><trkpt lat="46.11556676167444" lon="13.480301235087369"><ele>150.66666666666669</ele><time>2026-04-04T11:28:10.999Z</time></trkpt><trkpt lat="46.11574410440338" lon="13.48044807655052"><ele>150.33333333333334</ele><time>2026-04-04T11:28:11.999Z</time></trkpt><trkpt lat="46.115921945582194" lon="13.480592932198489"><ele>150.0</ele><time>2026-04-04T11:28:12.999Z</time></trkpt><trkpt lat="46.11609636933304" lon="13.480740643236725"><ele>150.0</ele><time>2026-04-04T11:28:13.999Z</time></trkpt><trkpt lat="46.11627105565943" lon="13.480889440182573"><ele>150.0</ele><time>2026-04-04T11:28:14.999Z</time></trkpt><trkpt lat="46.11644541133473" lon="13.481038681039319"><ele>150.0</ele><time>2026-04-04T11:28:15.999Z</time></trkpt><trkpt lat="46.11662116622829" lon="13.481190087187212"><ele>150.66666666666666</ele><time>2026-04-04T11:28:16.999Z</time></trkpt><trkpt lat="46.116795607458926" lon="13.481340581018959"><ele>151.33333333333331</ele><time>2026-04-04T11:28:17.999Z</time></trkpt><trkpt lat="46.116974160608684" lon="13.481482830951062"><ele>152.0</ele><time>2026-04-04T11:28:18.999Z</time></trkpt><trkpt lat="46.11716089198656" lon="13.481600129063573"><ele>152.0</ele><time>2026-04-04T11:28:19.999Z</time></trkpt><trkpt lat="46.117356333041364" lon="13.481682785038982"><ele>152.0</ele><time>2026-04-04T11:28:20.999Z</time></trkpt><trkpt lat="46.11755962090543" lon="13.481729640918244"><ele>152.0</ele><time>2026-04-04T11:28:21.999Z</time></trkpt><trkpt lat="46.117768759220155" lon="13.48174398351234"><ele>151.66666666666666</ele><time>2026-04-04T11:28:22.999Z</time></trkpt><trkpt lat="46.117981360847345" lon="13.481729771667592"><ele>151.33333333333334</ele><time>2026-04-04T11:28:23.999Z</time></trkpt><trkpt lat="46.1181968762183" lon="13.481710381907208"><ele>151.0</ele><time>2026-04-04T11:28:24.999Z</time></trkpt><trkpt lat="46.11841318171863" lon="13.481690641918144"><ele>150.66666666666669</ele><time>2026-04-04T11:28:25.999Z</time></trkpt><trkpt lat="46.118631447105514" lon="13.481679998421493"><ele>150.33333333333334</ele><time>2026-04-04T11:28:26.999Z</time></trkpt><trkpt lat="46.11885098840213" lon="13.48167872044195"><ele>150.0</ele><time>2026-04-04T11:28:27.999Z</time></trkpt><trkpt lat="46.11907205553732" lon="13.481692081629621"><ele>151.0</ele><time>2026-04-04T11:28:28.999Z</time></trkpt><trkpt lat="46.119292610092174" lon="13.481733002631074"><ele>152.0</ele><time>2026-04-04T11:28:29.999Z</time></trkpt><trkpt lat="46.119513122466856" lon="13.48178319598855"><ele>153.0</ele><time>2026-04-04T11:28:30.999Z</time></trkpt><trkpt lat="46.11973414834069" lon="13.481828538772705"><ele>153.66666666666666</ele><time>2026-04-04T11:28:31.999Z</time></trkpt><trkpt lat="46.11995528207646" lon="13.48186908021271"><ele>154.33333333333331</ele><time>2026-04-04T11:28:32.999Z</time></trkpt><trkpt lat="46.1201774353705" lon="13.48190754761949"><ele>155.0</ele><time>2026-04-04T11:28:33.999Z</time></trkpt><trkpt lat="46.12039669547698" lon="13.481943637717084"><ele>155.0</ele><time>2026-04-04T11:28:34.999Z</time></trkpt><trkpt lat="46.120613272920416" lon="13.481978796051632"><ele>155.0</ele><time>2026-04-04T11:28:35.999Z</time></trkpt><trkpt lat="46.120825973606834" lon="13.482011948062722"><ele>155.0</ele><time>2026-04-04T11:28:36.999Z</time></trkpt><trkpt lat="46.12103171059343" lon="13.48204103924728"><ele>156.0</ele><time>2026-04-04T11:28:37.999Z</time></trkpt><trkpt lat="46.12123042985299" lon="13.482066348214046"><ele>157.0</ele><time>2026-04-04T11:28:38.999Z</time></trkpt><trkpt lat="46.121421322469274" lon="13.482089913357477"><ele>158.0</ele><time>2026-04-04T11:28:39.999Z</time></trkpt><trkpt lat="46.12160997567997" lon="13.482117903416569"><ele>158.66666666666666</ele><time>2026-04-04T11:28:40.999Z</time></trkpt><trkpt lat="46.12179611826034" lon="13.482149268764273"><ele>159.33333333333334</ele><time>2026-04-04T11:28:41.999Z</time></trkpt><trkpt lat="46.121981144805815" lon="13.482187672045749"><ele>160.0</ele><time>2026-04-04T11:28:42.999Z</time></trkpt><trkpt lat="46.122159569955855" lon="13.482245309921995"><ele>160.0</ele><time>2026-04-04T11:28:43.999Z</time></trkpt><trkpt lat="46.12233136412326" lon="13.482322668902725"><ele>160.0</ele><time>2026-04-04T11:28:44.999Z</time></trkpt><trkpt lat="46.12249872889564" lon="13.48240331591581"><ele>160.0</ele><time>2026-04-04T11:28:45.999Z</time></trkpt><trkpt lat="46.122666537282015" lon="13.482487119885016"><ele>159.66666666666669</ele><time>2026-04-04T11:28:46.999Z</time></trkpt><trkpt lat="46.12283431409037" lon="13.482570562777541"><ele>159.33333333333334</ele><time>2026-04-04T11:28:47.999Z</time></trkpt><trkpt lat="46.12300239630527" lon="13.482653966692707"><ele>159.0</ele><time>2026-04-04T11:28:48.999Z</time></trkpt><trkpt lat="46.12316696349306" lon="13.482749700338616"><ele>158.66666666666666</ele><time>2026-04-04T11:28:49.999Z</time></trkpt><trkpt lat="46.12332517003108" lon="13.482871188053767"><ele>158.33333333333331</ele><time>2026-04-04T11:28:50.999Z</time></trkpt><trkpt lat="46.1234780513949" lon="13.483016074517403"><ele>158.0</ele><time>2026-04-04T11:28:51.999Z</time></trkpt><trkpt lat="46.12363278413914" lon="13.48315867334688"><ele>158.33333333333331</ele><time>2026-04-04T11:28:52.999Z</time></trkpt><trkpt lat="46.12379380361462" lon="13.483291378836736"><ele>158.66666666666666</ele><time>2026-04-04T11:28:53.999Z</time></trkpt><trkpt lat="46.12395613529904" lon="13.483428155033836"><ele>159.0</ele><time>2026-04-04T11:28:54.999Z</time></trkpt><trkpt lat="46.124117656579564" lon="13.483561397235622"><ele>159.0</ele><time>2026-04-04T11:28:55.999Z</time></trkpt><trkpt lat="46.12428721044126" lon="13.483664811159372"><ele>159.0</ele><time>2026-04-04T11:28:56.999Z</time></trkpt><trkpt lat="46.12446596281321" lon="13.483728346753912"><ele>159.0</ele><time>2026-04-04T11:28:57.999Z</time></trkpt><trkpt lat="46.124649209861175" lon="13.483773396898789"><ele>160.33333333333334</ele><time>2026-04-04T11:28:58.999Z</time></trkpt><trkpt lat="46.124829530522376" lon="13.483811146132233"><ele>161.66666666666669</ele><time>2026-04-04T11:28:59.999Z</time></trkpt><trkpt lat="46.12500572716027" lon="13.48383702672001"><ele>163.0</ele><time>2026-04-04T11:29:00.999Z</time></trkpt><trkpt lat="46.12516739092389" lon="13.483859319870556"><ele>164.0</ele><time>2026-04-04T11:29:01.999Z</time></trkpt><trkpt lat="46.12531619637403" lon="13.48389927118496"><ele>165.0</ele><time>2026-04-04T11:29:02.999Z</time></trkpt><trkpt lat="46.125451524823816" lon="13.483975762540659"><ele>166.0</ele><time>2026-04-04T11:29:03.999Z</time></trkpt><trkpt lat="46.12557879083598" lon="13.48407647703092"><ele>167.0</ele><time>2026-04-04T11:29:04.999Z</time></trkpt><trkpt lat="46.12570475304397" lon="13.484144309494818"><ele>167.5</ele><time>2026-04-04T11:29:05.999Z</time></trkpt><trkpt lat="46.12581062593006" lon="13.48431539659184"><ele>168.0</ele><time>2026-04-04T11:29:06.999Z</time></trkpt><trkpt lat="46.12592288803645" lon="13.484442891244454"><ele>168.5</ele><time>2026-04-04T11:29:07.999Z</time></trkpt><trkpt lat="46.12602647854826" lon="13.4845572210195"><ele>169.0</ele><time>2026-04-04T11:29:08.999Z</time></trkpt><trkpt lat="46.126116282037366" lon="13.484668002567897"><ele>170.0</ele><time>2026-04-04T11:29:09.999Z</time></trkpt><trkpt lat="46.12621064010128" lon="13.48476148938634"><ele>171.0</ele><time>2026-04-04T11:29:10.999Z</time></trkpt><trkpt lat="46.126312484364135" lon="13.484839814809497"><ele>172.0</ele><time>2026-04-04T11:29:11.999Z</time></trkpt><trkpt lat="46.126428565003486" lon="13.484896965178665"><ele>173.0</ele><time>2026-04-04T11:29:12.999Z</time></trkpt><trkpt lat="46.126549155476816" lon="13.484951585567492"><ele>172.2</ele><time>2026-04-04T11:29:13.999Z</time></trkpt><trkpt lat="46.12666356505896" lon="13.485013212686477"><ele>171.4</ele><time>2026-04-04T11:29:14.999Z</time></trkpt><trkpt lat="46.12677100854327" lon="13.485068052628847"><ele>170.6</ele><time>2026-04-04T11:29:15.999Z</time></trkpt><trkpt lat="46.126874493912695" lon="13.485114341567018"><ele>169.79999999999998</ele><time>2026-04-04T11:29:16.999Z</time></trkpt><trkpt lat="46.126969513578686" lon="13.485156737358816"><ele>169.0</ele><time>2026-04-04T11:29:17.999Z</time></trkpt><trkpt lat="46.127058179535936" lon="13.485200715233049"><ele>169.0</ele><time>2026-04-04T11:29:18.999Z</time></trkpt><trkpt lat="46.12714001363403" lon="13.485240606117639"><ele>169.0</ele><time>2026-04-04T11:29:19.999Z</time></trkpt><trkpt lat="46.12721750033378" lon="13.485277390878167"><ele>169.0</ele><time>2026-04-04T11:29:21Z</time></trkpt><trkpt lat="46.12729152567384" lon="13.485317159107563"><ele>169.0</ele><time>2026-04-04T11:29:22Z</time></trkpt><trkpt lat="46.12736827708814" lon="13.485358673392032"><ele>169.0</ele><time>2026-04-04T11:29:23Z</time></trkpt><trkpt lat="46.12744830887715" lon="13.485395247689986"><ele>169.0</ele><time>2026-04-04T11:29:24Z</time></trkpt><trkpt lat="46.12752961980521" lon="13.485431720392507"><ele>169.33333333333334</ele><time>2026-04-04T11:29:25Z</time></trkpt><trkpt lat="46.127611489917044" lon="13.485470604188102"><ele>169.66666666666669</ele><time>2026-04-04T11:29:26Z</time></trkpt><trkpt lat="46.12769412819791" lon="13.485508974490504"><ele>170.0</ele><time>2026-04-04T11:29:27Z</time></trkpt><trkpt lat="46.127776972048046" lon="13.485550547869886"><ele>170.33333333333334</ele><time>2026-04-04T11:29:28Z</time></trkpt><trkpt lat="46.12786165600181" lon="13.485592706613827"><ele>170.66666666666666</ele><time>2026-04-04T11:29:29Z</time></trkpt><trkpt lat="46.12794866665377" lon="13.485631205038837"><ele>171.0</ele><time>2026-04-04T11:29:30Z</time></trkpt><trkpt lat="46.12803629540187" lon="13.485667755378126"><ele>171.0</ele><time>2026-04-04T11:29:31Z</time></trkpt><trkpt lat="46.12812464916129" lon="13.485705879060818"><ele>171.0</ele><time>2026-04-04T11:29:32Z</time></trkpt><trkpt lat="46.12821220735361" lon="13.485741902245973"><ele>171.0</ele><time>2026-04-04T11:29:33Z</time></trkpt><trkpt lat="46.12830036029255" lon="13.485780123672141"><ele>171.0</ele><time>2026-04-04T11:29:34Z</time></trkpt><trkpt lat="46.128383662274615" lon="13.485822952705268"><ele>171.0</ele><time>2026-04-04T11:29:35Z</time></trkpt><trkpt lat="46.12845918845941" lon="13.485861737891723"><ele>171.0</ele><time>2026-04-04T11:29:36Z</time></trkpt><trkpt lat="46.12852872724877" lon="13.48589746120316"><ele>170.8</ele><time>2026-04-04T11:29:37Z</time></trkpt><trkpt lat="46.12859171827646" lon="13.485932821700764"><ele>170.60000000000002</ele><time>2026-04-04T11:29:38Z</time></trkpt><trkpt lat="46.128702400419115" lon="13.485998404427148"><ele>170.4</ele><time>2026-04-04T11:29:40Z</time></trkpt><trkpt lat="46.128810369761084" lon="13.486057550452935"><ele>170.2</ele><time>2026-04-04T11:29:42Z</time></trkpt><trkpt lat="46.12891487295064" lon="13.486126393905877"><ele>170.0</ele><time>2026-04-04T11:29:44Z</time></trkpt><trkpt lat="46.12901840757783" lon="13.486202794409264"><ele>170.33333333333331</ele><time>2026-04-04T11:29:46Z</time></trkpt><trkpt lat="46.12912681719391" lon="13.486281889495086"><ele>170.66666666666666</ele><time>2026-04-04T11:29:48Z</time></trkpt><trkpt lat="46.12918565706009" lon="13.48632186715962"><ele>171.0</ele><time>2026-04-04T11:29:49Z</time></trkpt><trkpt lat="46.12924936939914" lon="13.486368969823843"><ele>171.33333333333334</ele><time>2026-04-04T11:29:50Z</time></trkpt><trkpt lat="46.12932017840462" lon="13.486413471771378"><ele>171.66666666666669</ele><time>2026-04-04T11:29:51Z</time></trkpt><trkpt lat="46.12940335033596" lon="13.486450168909828"><ele>172.0</ele><time>2026-04-04T11:29:52Z</time></trkpt><trkpt lat="46.12949183553721" lon="13.486468985551598"><ele>172.0</ele><time>2026-04-04T11:29:53Z</time></trkpt><trkpt lat="46.12958622964243" lon="13.486461085000416"><ele>172.0</ele><time>2026-04-04T11:29:54Z</time></trkpt><trkpt lat="46.12968240969601" lon="13.486442638222536"><ele>172.0</ele><time>2026-04-04T11:29:55Z</time></trkpt><trkpt lat="46.12978260679302" lon="13.486428635541404"><ele>172.0</ele><time>2026-04-04T11:29:56Z</time></trkpt><trkpt lat="46.12988370526321" lon="13.486394944007921"><ele>172.0</ele><time>2026-04-04T11:29:57Z</time></trkpt><trkpt lat="46.12998615622148" lon="13.486372911402766"><ele>172.0</ele><time>2026-04-04T11:29:58Z</time></trkpt><trkpt lat="46.13009142980968" lon="13.486344408793219"><ele>172.0</ele><time>2026-04-04T11:29:59Z</time></trkpt><trkpt lat="46.130183520027444" lon="13.48631185175516"><ele>172.0</ele><time>2026-04-04T11:30:00Z</time></trkpt><trkpt lat="46.130262120845615" lon="13.486280248313127"><ele>172.0</ele><time>2026-04-04T11:30:01Z</time></trkpt><trkpt lat="46.130330183668136" lon="13.486244544091846"><ele>172.0</ele><time>2026-04-04T11:30:02Z</time></trkpt><trkpt lat="46.13038818531674" lon="13.486207877024043"><ele>172.0</ele><time>2026-04-04T11:30:03Z</time></trkpt><trkpt lat="46.13044638696291" lon="13.486170541152381"><ele>172.16666666666669</ele><time>2026-04-04T11:30:04Z</time></trkpt><trkpt lat="46.13050981635731" lon="13.48613093529055"><ele>172.33333333333334</ele><time>2026-04-04T11:30:05Z</time></trkpt><trkpt lat="46.13057551358083" lon="13.486082628665168"><ele>172.5</ele><time>2026-04-04T11:30:06Z</time></trkpt><trkpt lat="46.13064453470586" lon="13.48603035281422"><ele>172.66666666666666</ele><time>2026-04-04T11:30:07Z</time></trkpt><trkpt lat="46.130726968090265" lon="13.485973438690449"><ele>172.83333333333331</ele><time>2026-04-04T11:30:08Z</time></trkpt><trkpt lat="46.1308216191297" lon="13.485903340551085"><ele>173.0</ele><time>2026-04-04T11:30:09Z</time></trkpt><trkpt lat="46.13092689253427" lon="13.48582867474956"><ele>173.0</ele><time>2026-04-04T11:30:10Z</time></trkpt><trkpt lat="46.13104552575262" lon="13.48575324933771"><ele>173.0</ele><time>2026-04-04T11:30:11Z</time></trkpt><trkpt lat="46.13117925119288" lon="13.485669988652708"><ele>173.0</ele><time>2026-04-04T11:30:12Z</time></trkpt><trkpt lat="46.13132955847916" lon="13.485594523920444"><ele>173.0</ele><time>2026-04-04T11:30:13Z</time></trkpt><trkpt lat="46.13149644678677" lon="13.485518154380857"><ele>173.0</ele><time>2026-04-04T11:30:13.999Z</time></trkpt><trkpt lat="46.13167458799742" lon="13.485440950296898"><ele>173.0</ele><time>2026-04-04T11:30:14.999Z</time></trkpt><trkpt lat="46.1318530545395" lon="13.485356375188735"><ele>173.0</ele><time>2026-04-04T11:30:15.999Z</time></trkpt><trkpt lat="46.13202776852425" lon="13.485276817792645"><ele>172.66666666666666</ele><time>2026-04-04T11:30:16.999Z</time></trkpt><trkpt lat="46.132203592660964" lon="13.485203740180323"><ele>172.33333333333334</ele><time>2026-04-04T11:30:17.999Z</time></trkpt><trkpt lat="46.132377739238414" lon="13.485126268889251"><ele>172.0</ele><time>2026-04-04T11:30:18.999Z</time></trkpt><trkpt lat="46.1325535134021" lon="13.485049236421403"><ele>172.0</ele><time>2026-04-04T11:30:19.999Z</time></trkpt><trkpt lat="46.13272847083997" lon="13.48497017283417"><ele>172.0</ele><time>2026-04-04T11:30:20.999Z</time></trkpt><trkpt lat="46.132906500363255" lon="13.484907723849059"><ele>172.0</ele><time>2026-04-04T11:30:21.999Z</time></trkpt><trkpt lat="46.13309562833439" lon="13.48487049828127"><ele>172.0</ele><time>2026-04-04T11:30:22.999Z</time></trkpt><trkpt lat="46.13329462797103" lon="13.48487499163431"><ele>172.0</ele><time>2026-04-04T11:30:23.999Z</time></trkpt><trkpt lat="46.13349824729551" lon="13.484896824953319"><ele>172.0</ele><time>2026-04-04T11:30:24.999Z</time></trkpt><trkpt lat="46.133702091906166" lon="13.484927601000283"><ele>172.0</ele><time>2026-04-04T11:30:25.999Z</time></trkpt><trkpt lat="46.1339069756915" lon="13.484966657110386"><ele>172.0</ele><time>2026-04-04T11:30:26.999Z</time></trkpt><trkpt lat="46.13411046763511" lon="13.485009813739884"><ele>172.0</ele><time>2026-04-04T11:30:27.999Z</time></trkpt><trkpt lat="46.134316894486815" lon="13.485053283863444"><ele>172.66666666666669</ele><time>2026-04-04T11:30:28.999Z</time></trkpt><trkpt lat="46.1345260909224" lon="13.485095331969825"><ele>173.33333333333334</ele><time>2026-04-04T11:30:29.999Z</time></trkpt><trkpt lat="46.13474039544698" lon="13.485138061146344"><ele>174.0</ele><time>2026-04-04T11:30:30.999Z</time></trkpt><trkpt lat="46.13495754822996" lon="13.485179495198134"><ele>172.33333333333334</ele><time>2026-04-04T11:30:31.999Z</time></trkpt><trkpt lat="46.13517849875873" lon="13.485223465097706"><ele>170.66666666666669</ele><time>2026-04-04T11:30:32.999Z</time></trkpt><trkpt lat="46.13540257096266" lon="13.48526869108401"><ele>169.0</ele><time>2026-04-04T11:30:33.999Z</time></trkpt><trkpt lat="46.1356283165565" lon="13.485317276707827"><ele>168.66666666666669</ele><time>2026-04-04T11:30:34.999Z</time></trkpt><trkpt lat="46.13585041764165" lon="13.485372090578972"><ele>168.33333333333334</ele><time>2026-04-04T11:30:35.999Z</time></trkpt><trkpt lat="46.13606908577936" lon="13.4854324050672"><ele>168.0</ele><time>2026-04-04T11:30:36.999Z</time></trkpt><trkpt lat="46.13628435224794" lon="13.485503433927057"><ele>169.66666666666666</ele><time>2026-04-04T11:30:37.999Z</time></trkpt><trkpt lat="46.136499806359" lon="13.485583730903462"><ele>171.33333333333331</ele><time>2026-04-04T11:30:38.999Z</time></trkpt><trkpt lat="46.136716087853294" lon="13.485668655470494"><ele>173.0</ele><time>2026-04-04T11:30:39.999Z</time></trkpt><trkpt lat="46.13693587086193" lon="13.485760494640187"><ele>173.0</ele><time>2026-04-04T11:30:40.999Z</time></trkpt><trkpt lat="46.137156793719214" lon="13.485858210427773"><ele>173.0</ele><time>2026-04-04T11:30:41.999Z</time></trkpt><trkpt lat="46.13737632986246" lon="13.485960743698623"><ele>173.0</ele><time>2026-04-04T11:30:42.999Z</time></trkpt><trkpt lat="46.137597548573545" lon="13.486066479969784"><ele>173.0</ele><time>2026-04-04T11:30:43.999Z</time></trkpt><trkpt lat="46.13782090933787" lon="13.486174254618941"><ele>174.5</ele><time>2026-04-04T11:30:44.999Z</time></trkpt><trkpt lat="46.13804604219558" lon="13.48627792428062"><ele>176.0</ele><time>2026-04-04T11:30:45.999Z</time></trkpt><trkpt lat="46.13827430942558" lon="13.486371076222726"><ele>176.0</ele><time>2026-04-04T11:30:46.999Z</time></trkpt><trkpt lat="46.13850705585978" lon="13.486435002305907"><ele>176.0</ele><time>2026-04-04T11:30:47.999Z</time></trkpt><trkpt lat="46.13874262861896" lon="13.486476815670859"><ele>176.0</ele><time>2026-04-04T11:30:48.999Z</time></trkpt><trkpt lat="46.13897638475059" lon="13.486515191214373"><ele>176.0</ele><time>2026-04-04T11:30:49.999Z</time></trkpt><trkpt lat="46.13920562685388" lon="13.48655340271394"><ele>177.5</ele><time>2026-04-04T11:30:50.999Z</time></trkpt><trkpt lat="46.139435122469585" lon="13.486595159485844"><ele>179.0</ele><time>2026-04-04T11:30:51.999Z</time></trkpt><trkpt lat="46.13966329169068" lon="13.486631967683131"><ele>176.5</ele><time>2026-04-04T11:30:52.999Z</time></trkpt><trkpt lat="46.139893830240744" lon="13.486661440958065"><ele>174.0</ele><time>2026-04-04T11:30:53.999Z</time></trkpt><trkpt lat="46.14012498179989" lon="13.486675113827909"><ele>174.0</ele><time>2026-04-04T11:30:54.999Z</time></trkpt><trkpt lat="46.140352737856155" lon="13.486681866449"><ele>174.0</ele><time>2026-04-04T11:30:55.999Z</time></trkpt><trkpt lat="46.14057560024048" lon="13.486684964705008"><ele>175.33333333333334</ele><time>2026-04-04T11:30:56.999Z</time></trkpt><trkpt lat="46.14079284438275" lon="13.486687483082036"><ele>176.66666666666669</ele><time>2026-04-04T11:30:57.999Z</time></trkpt><trkpt lat="46.14100475839654" lon="13.486668123698758"><ele>178.0</ele><time>2026-04-04T11:30:58.999Z</time></trkpt><trkpt lat="46.14121532367841" lon="13.486620754901503"><ele>178.0</ele><time>2026-04-04T11:30:59.999Z</time></trkpt><trkpt lat="46.14142520150958" lon="13.486547308648877"><ele>178.0</ele><time>2026-04-04T11:31:00.999Z</time></trkpt><trkpt lat="46.14163799658169" lon="13.486517682426845"><ele>178.0</ele><time>2026-04-04T11:31:01.999Z</time></trkpt><trkpt lat="46.14183824451261" lon="13.486381996060064"><ele>178.0</ele><time>2026-04-04T11:31:02.999Z</time></trkpt><trkpt lat="46.142041228333355" lon="13.48631477682692"><ele>178.0</ele><time>2026-04-04T11:31:03.999Z</time></trkpt><trkpt lat="46.14223873663826" lon="13.486265063386941"><ele>178.0</ele><time>2026-04-04T11:31:04.999Z</time></trkpt><trkpt lat="46.142432507522415" lon="13.48623651707281"><ele>178.66666666666669</ele><time>2026-04-04T11:31:05.999Z</time></trkpt><trkpt lat="46.142627905651395" lon="13.48623636023084"><ele>179.33333333333334</ele><time>2026-04-04T11:31:06.999Z</time></trkpt><trkpt lat="46.142824487344214" lon="13.48626313581386"><ele>180.0</ele><time>2026-04-04T11:31:07.999Z</time></trkpt><trkpt lat="46.14301814170661" lon="13.486324658516944"><ele>180.0</ele><time>2026-04-04T11:31:08.999Z</time></trkpt><trkpt lat="46.143207143438794" lon="13.486447466788972"><ele>180.0</ele><time>2026-04-04T11:31:09.999Z</time></trkpt><trkpt lat="46.14340371732034" lon="13.486594891646968"><ele>180.0</ele><time>2026-04-04T11:31:10.999Z</time></trkpt><trkpt lat="46.14361138367404" lon="13.4867221534527"><ele>180.33333333333334</ele><time>2026-04-04T11:31:11.999Z</time></trkpt><trkpt lat="46.14380685149296" lon="13.486851710709113"><ele>180.66666666666669</ele><time>2026-04-04T11:31:12.999Z</time></trkpt><trkpt lat="46.143993409350344" lon="13.486985017578204"><ele>181.0</ele><time>2026-04-04T11:31:13.999Z</time></trkpt><trkpt lat="46.14416703744606" lon="13.487105397499757"><ele>181.66666666666669</ele><time>2026-04-04T11:31:14.999Z</time></trkpt><trkpt lat="46.144331423727095" lon="13.487237277211308"><ele>182.33333333333334</ele><time>2026-04-04T11:31:15.999Z</time></trkpt><trkpt lat="46.14448245859803" lon="13.487388678746118"><ele>183.0</ele><time>2026-04-04T11:31:16.999Z</time></trkpt><trkpt lat="46.14461428186615" lon="13.487557087838002"><ele>183.0</ele><time>2026-04-04T11:31:17.999Z</time></trkpt><trkpt lat="46.14473854279121" lon="13.48771882787816"><ele>183.0</ele><time>2026-04-04T11:31:18.999Z</time></trkpt><trkpt lat="46.1448598627067" lon="13.487871712633133"><ele>183.0</ele><time>2026-04-04T11:31:19.999Z</time></trkpt><trkpt lat="46.14497769133298" lon="13.488017040190968"><ele>183.25</ele><time>2026-04-04T11:31:20.999Z</time></trkpt><trkpt lat="46.14508534584579" lon="13.488145397252254"><ele>183.5</ele><time>2026-04-04T11:31:21.999Z</time></trkpt><trkpt lat="46.1451909188266" lon="13.488257982407838"><ele>183.75</ele><time>2026-04-04T11:31:22.999Z</time></trkpt><trkpt lat="46.14529794192519" lon="13.488359216014183"><ele>184.0</ele><time>2026-04-04T11:31:23.999Z</time></trkpt><trkpt lat="46.145408373909305" lon="13.488459630198683"><ele>184.0</ele><time>2026-04-04T11:31:24.999Z</time></trkpt><trkpt lat="46.14552631914457" lon="13.488555838024439"><ele>184.0</ele><time>2026-04-04T11:31:25.999Z</time></trkpt><trkpt lat="46.145652524098985" lon="13.488634548446962"><ele>184.0</ele><time>2026-04-04T11:31:27Z</time></trkpt><trkpt lat="46.145781293172135" lon="13.488691989530906"><ele>184.0</ele><time>2026-04-04T11:31:28Z</time></trkpt><trkpt lat="46.14590248945557" lon="13.488741422698522"><ele>184.25</ele><time>2026-04-04T11:31:29Z</time></trkpt><trkpt lat="46.14601751298336" lon="13.48879198850145"><ele>184.5</ele><time>2026-04-04T11:31:30Z</time></trkpt><trkpt lat="46.14612869043637" lon="13.488843020007964"><ele>184.75</ele><time>2026-04-04T11:31:31Z</time></trkpt><trkpt lat="46.14624115684911" lon="13.488890223769715"><ele>185.0</ele><time>2026-04-04T11:31:32Z</time></trkpt><trkpt lat="46.146352277906516" lon="13.488937419115171"><ele>185.0</ele><time>2026-04-04T11:31:33Z</time></trkpt><trkpt lat="46.146462076649875" lon="13.488989832774683"><ele>185.0</ele><time>2026-04-04T11:31:34Z</time></trkpt><trkpt lat="46.14657510214993" lon="13.489040121228625"><ele>185.0</ele><time>2026-04-04T11:31:35Z</time></trkpt><trkpt lat="46.146693849251996" lon="13.489091029955013"><ele>185.0</ele><time>2026-04-04T11:31:36Z</time></trkpt><trkpt lat="46.14681119542605" lon="13.489141974118436"><ele>185.4</ele><time>2026-04-04T11:31:37Z</time></trkpt><trkpt lat="46.14692603311117" lon="13.489181690639322"><ele>185.8</ele><time>2026-04-04T11:31:38Z</time></trkpt><trkpt lat="46.14703679595274" lon="13.48920554836012"><ele>186.2</ele><time>2026-04-04T11:31:39Z</time></trkpt><trkpt lat="46.14714447863289" lon="13.48921540867839"><ele>186.6</ele><time>2026-04-04T11:31:40Z</time></trkpt><trkpt lat="46.14724830200624" lon="13.489219079414498"><ele>187.0</ele><time>2026-04-04T11:31:41Z</time></trkpt><trkpt lat="46.147350077598475" lon="13.489222761981447"><ele>188.0</ele><time>2026-04-04T11:31:42Z</time></trkpt><trkpt lat="46.14745220022996" lon="13.489223006673951"><ele>189.0</ele><time>2026-04-04T11:31:43Z</time></trkpt><trkpt lat="46.147554817461526" lon="13.48920823477433"><ele>190.0</ele><time>2026-04-04T11:31:44Z</time></trkpt><trkpt lat="46.14765752896812" lon="13.489180366742815"><ele>191.0</ele><time>2026-04-04T11:31:45Z</time></trkpt><trkpt lat="46.14776182787718" lon="13.489147101206228"><ele>192.0</ele><time>2026-04-04T11:31:46Z</time></trkpt><trkpt lat="46.14786834518429" lon="13.489110331715327"><ele>192.0</ele><time>2026-04-04T11:31:47Z</time></trkpt><trkpt lat="46.147980883085246" lon="13.489070138736977"><ele>192.0</ele><time>2026-04-04T11:31:48Z</time></trkpt><trkpt lat="46.14810190384701" lon="13.4890236746501"><ele>192.0</ele><time>2026-04-04T11:31:49Z</time></trkpt><trkpt lat="46.148230372233215" lon="13.48897190108055"><ele>192.0</ele><time>2026-04-04T11:31:50Z</time></trkpt><trkpt lat="46.14836309617286" lon="13.488926497195813"><ele>191.75</ele><time>2026-04-04T11:31:51Z</time></trkpt><trkpt lat="46.148498805801026" lon="13.48889217145471"><ele>191.5</ele><time>2026-04-04T11:31:52Z</time></trkpt><trkpt lat="46.14863905366472" lon="13.488867210147077"><ele>191.25</ele><time>2026-04-04T11:31:53Z</time></trkpt><trkpt lat="46.14878349823299" lon="13.48885414566934"><ele>191.0</ele><time>2026-04-04T11:31:54Z</time></trkpt><trkpt lat="46.14893001864317" lon="13.48884844423954"><ele>190.75</ele><time>2026-04-04T11:31:55Z</time></trkpt><trkpt lat="46.149073767173164" lon="13.488843993162725"><ele>190.5</ele><time>2026-04-04T11:31:56Z</time></trkpt><trkpt lat="46.14921482111598" lon="13.488838528734705"><ele>190.25</ele><time>2026-04-04T11:31:57Z</time></trkpt><trkpt lat="46.14935561300636" lon="13.488830919005393"><ele>190.0</ele><time>2026-04-04T11:31:58Z</time></trkpt><trkpt lat="46.149495545850115" lon="13.488821569973192"><ele>190.0</ele><time>2026-04-04T11:31:59Z</time></trkpt><trkpt lat="46.14963925385917" lon="13.488818822772219"><ele>190.0</ele><time>2026-04-04T11:32:00Z</time></trkpt><trkpt lat="46.149783775301714" lon="13.488818885830147"><ele>190.0</ele><time>2026-04-04T11:32:01Z</time></trkpt><trkpt lat="46.14992704485384" lon="13.488833131451917"><ele>190.0</ele><time>2026-04-04T11:32:02Z</time></trkpt><trkpt lat="46.15007289440702" lon="13.488865431858219"><ele>190.25</ele><time>2026-04-04T11:32:03Z</time></trkpt><trkpt lat="46.1502147823534" lon="13.488914543207747"><ele>190.5</ele><time>2026-04-04T11:32:04Z</time></trkpt><trkpt lat="46.15035372950623" lon="13.488968592489318"><ele>190.75</ele><time>2026-04-04T11:32:05Z</time></trkpt><trkpt lat="46.150492855695994" lon="13.4890253705341"><ele>191.0</ele><time>2026-04-04T11:32:06Z</time></trkpt><trkpt lat="46.15063190853912" lon="13.489086699616267"><ele>191.0</ele><time>2026-04-04T11:32:07Z</time></trkpt><trkpt lat="46.15076871925839" lon="13.489147081626903"><ele>191.0</ele><time>2026-04-04T11:32:08Z</time></trkpt><trkpt lat="46.150901904896465" lon="13.489211938289824"><ele>191.0</ele><time>2026-04-04T11:32:09Z</time></trkpt><trkpt lat="46.151029604983236" lon="13.489274108951992"><ele>191.0</ele><time>2026-04-04T11:32:10Z</time></trkpt><trkpt lat="46.15114959877178" lon="13.489331389645251"><ele>191.0</ele><time>2026-04-04T11:32:11Z</time></trkpt><trkpt lat="46.15126388261062" lon="13.489377300355196"><ele>191.0</ele><time>2026-04-04T11:32:12Z</time></trkpt><trkpt lat="46.151377337581586" lon="13.48941527991301"><ele>191.0</ele><time>2026-04-04T11:32:13Z</time></trkpt><trkpt lat="46.15149568800411" lon="13.489434971445393"><ele>191.0</ele><time>2026-04-04T11:32:14Z</time></trkpt><trkpt lat="46.151617360962504" lon="13.489429053867115"><ele>191.5</ele><time>2026-04-04T11:32:15Z</time></trkpt><trkpt lat="46.15174274085487" lon="13.489409909141052"><ele>192.0</ele><time>2026-04-04T11:32:16Z</time></trkpt><trkpt lat="46.151867303768704" lon="13.489374402056086"><ele>192.5</ele><time>2026-04-04T11:32:16.999Z</time></trkpt><trkpt lat="46.15199459855524" lon="13.489324737586939"><ele>193.0</ele><time>2026-04-04T11:32:17.999Z</time></trkpt><trkpt lat="46.15211570045471" lon="13.4892836493623"><ele>193.0</ele><time>2026-04-04T11:32:18.999Z</time></trkpt><trkpt lat="46.15224081093011" lon="13.489246317477036"><ele>193.0</ele><time>2026-04-04T11:32:19.999Z</time></trkpt><trkpt lat="46.15236828273663" lon="13.489205755680047"><ele>193.0</ele><time>2026-04-04T11:32:20.999Z</time></trkpt><trkpt lat="46.152493714876826" lon="13.489160544843445"><ele>193.0</ele><time>2026-04-04T11:32:21.999Z</time></trkpt><trkpt lat="46.15261404561782" lon="13.489116465807783"><ele>193.75</ele><time>2026-04-04T11:32:22.999Z</time></trkpt><trkpt lat="46.152732455289666" lon="13.489068673826653"><ele>194.5</ele><time>2026-04-04T11:32:23.999Z</time></trkpt><trkpt lat="46.152852045886576" lon="13.489014674816127"><ele>195.25</ele><time>2026-04-04T11:32:24.999Z</time></trkpt><trkpt lat="46.15297061124048" lon="13.488952254167966"><ele>196.0</ele><time>2026-04-04T11:32:25.999Z</time></trkpt><trkpt lat="46.15308534643329" lon="13.488878881987711"><ele>196.0</ele><time>2026-04-04T11:32:26.999Z</time></trkpt><trkpt lat="46.15319823669481" lon="13.488799052807053"><ele>196.0</ele><time>2026-04-04T11:32:27.999Z</time></trkpt><trkpt lat="46.15330533544943" lon="13.48872963591088"><ele>196.0</ele><time>2026-04-04T11:32:28.999Z</time></trkpt><trkpt lat="46.153407326707736" lon="13.488672112661378"><ele>196.0</ele><time>2026-04-04T11:32:29.999Z</time></trkpt><trkpt lat="46.15351236968392" lon="13.488624301285773"><ele>194.60000000000002</ele><time>2026-04-04T11:32:30.999Z</time></trkpt><trkpt lat="46.15362230097373" lon="13.488594896967406"><ele>193.2</ele><time>2026-04-04T11:32:31.999Z</time></trkpt><trkpt lat="46.15372612589632" lon="13.48858420029997"><ele>191.8</ele><time>2026-04-04T11:32:32.999Z</time></trkpt><trkpt lat="46.153826554262395" lon="13.488571496353496"><ele>190.39999999999998</ele><time>2026-04-04T11:32:33.999Z</time></trkpt><trkpt lat="46.153935276178686" lon="13.48856082643107"><ele>189.0</ele><time>2026-04-04T11:32:34.999Z</time></trkpt><trkpt lat="46.15405138411151" lon="13.48856710277894"><ele>188.0</ele><time>2026-04-04T11:32:35.999Z</time></trkpt><trkpt lat="46.15417418576258" lon="13.48858523620943"><ele>187.0</ele><time>2026-04-04T11:32:36.999Z</time></trkpt><trkpt lat="46.15430119414511" lon="13.488608827194353"><ele>186.0</ele><time>2026-04-04T11:32:37.999Z</time></trkpt><trkpt lat="46.15443231280195" lon="13.488635979769068"><ele>185.0</ele><time>2026-04-04T11:32:38.999Z</time></trkpt><trkpt lat="46.15456554584077" lon="13.48865876786085"><ele>185.0</ele><time>2026-04-04T11:32:39.999Z</time></trkpt><trkpt lat="46.154699851627676" lon="13.488665076710907"><ele>185.0</ele><time>2026-04-04T11:32:40.999Z</time></trkpt><trkpt lat="46.15483663492682" lon="13.488672404493169"><ele>185.0</ele><time>2026-04-04T11:32:41.999Z</time></trkpt><trkpt lat="46.15497664126367" lon="13.488679699992609"><ele>185.0</ele><time>2026-04-04T11:32:42.999Z</time></trkpt><trkpt lat="46.155119257170064" lon="13.488682930883499"><ele>182.66666666666666</ele><time>2026-04-04T11:32:43.999Z</time></trkpt><trkpt lat="46.15526446658216" lon="13.488690945471367"><ele>180.33333333333334</ele><time>2026-04-04T11:32:44.999Z</time></trkpt><trkpt lat="46.155415951729495" lon="13.488695429987311"><ele>178.0</ele><time>2026-04-04T11:32:45.999Z</time></trkpt><trkpt lat="46.15557834270178" lon="13.48869287035862"><ele>177.33333333333334</ele><time>2026-04-04T11:32:46.999Z</time></trkpt><trkpt lat="46.155755591241295" lon="13.488673462023625"><ele>176.66666666666666</ele><time>2026-04-04T11:32:47.999Z</time></trkpt><trkpt lat="46.155935258691784" lon="13.48864364695999"><ele>176.0</ele><time>2026-04-04T11:32:48.999Z</time></trkpt><trkpt lat="46.15612089180131" lon="13.488585827540495"><ele>176.0</ele><time>2026-04-04T11:32:49.999Z</time></trkpt><trkpt lat="46.15630687153268" lon="13.488520641364104"><ele>176.0</ele><time>2026-04-04T11:32:50.999Z</time></trkpt><trkpt lat="46.156490386701954" lon="13.488454779094068"><ele>176.0</ele><time>2026-04-04T11:32:51.999Z</time></trkpt><trkpt lat="46.15667945098228" lon="13.488379563860194"><ele>175.66666666666666</ele><time>2026-04-04T11:32:52.999Z</time></trkpt><trkpt lat="46.156875720014774" lon="13.488304931172392"><ele>175.33333333333334</ele><time>2026-04-04T11:32:53.999Z</time></trkpt><trkpt lat="46.15706100299812" lon="13.488241711911092"><ele>175.0</ele><time>2026-04-04T11:32:54.999Z</time></trkpt><trkpt lat="46.157227859251265" lon="13.488184957536959"><ele>175.66666666666669</ele><time>2026-04-04T11:32:55.999Z</time></trkpt><trkpt lat="46.15738268996938" lon="13.488136056249358"><ele>176.33333333333334</ele><time>2026-04-04T11:32:56.999Z</time></trkpt><trkpt lat="46.15753299858845" lon="13.488089735592078"><ele>177.0</ele><time>2026-04-04T11:32:57.999Z</time></trkpt><trkpt lat="46.15767024149716" lon="13.48804430433762"><ele>177.0</ele><time>2026-04-04T11:32:58.999Z</time></trkpt><trkpt lat="46.15780027957324" lon="13.487998837690737"><ele>177.0</ele><time>2026-04-04T11:32:59.999Z</time></trkpt><trkpt lat="46.1579344484105" lon="13.487961837987667"><ele>177.0</ele><time>2026-04-04T11:33:00.999Z</time></trkpt><trkpt lat="46.158075309845515" lon="13.487942797159327"><ele>177.0</ele><time>2026-04-04T11:33:01.999Z</time></trkpt><trkpt lat="46.15822643295731" lon="13.48794769202556"><ele>178.25</ele><time>2026-04-04T11:33:02.999Z</time></trkpt><trkpt lat="46.15838150387328" lon="13.487970216809611"><ele>179.5</ele><time>2026-04-04T11:33:03.999Z</time></trkpt><trkpt lat="46.15852904919385" lon="13.487992086668408"><ele>180.75</ele><time>2026-04-04T11:33:04.999Z</time></trkpt><trkpt lat="46.158674122256095" lon="13.488004280961453"><ele>182.0</ele><time>2026-04-04T11:33:05.999Z</time></trkpt><trkpt lat="46.15883188191875" lon="13.488015767718737"><ele>182.0</ele><time>2026-04-04T11:33:06.999Z</time></trkpt><trkpt lat="46.1590066659397" lon="13.488019906419327"><ele>182.0</ele><time>2026-04-04T11:33:07.999Z</time></trkpt><trkpt lat="46.15920038423995" lon="13.488001004353613"><ele>182.0</ele><time>2026-04-04T11:33:08.999Z</time></trkpt><trkpt lat="46.15941701888887" lon="13.487974625966581"><ele>182.66666666666666</ele><time>2026-04-04T11:33:09.999Z</time></trkpt><trkpt lat="46.159639762806414" lon="13.487946072806096"><ele>183.33333333333334</ele><time>2026-04-04T11:33:10.999Z</time></trkpt><trkpt lat="46.15986314545873" lon="13.487920670934857"><ele>184.0</ele><time>2026-04-04T11:33:11.999Z</time></trkpt><trkpt lat="46.16008027781182" lon="13.487899312225435"><ele>180.0</ele><time>2026-04-04T11:33:12.999Z</time></trkpt><trkpt lat="46.16029492280091" lon="13.487873617391674"><ele>176.0</ele><time>2026-04-04T11:33:13.999Z</time></trkpt><trkpt lat="46.16050224388276" lon="13.487836593930682"><ele>172.0</ele><time>2026-04-04T11:33:14.999Z</time></trkpt><trkpt lat="46.160709199067554" lon="13.48782082430148"><ele>172.0</ele><time>2026-04-04T11:33:15.999Z</time></trkpt><trkpt lat="46.16091666065894" lon="13.48784110225772"><ele>172.0</ele><time>2026-04-04T11:33:16.999Z</time></trkpt><trkpt lat="46.16112533674935" lon="13.487879224585301"><ele>172.0</ele><time>2026-04-04T11:33:17.999Z</time></trkpt><trkpt lat="46.16134099189746" lon="13.487933219249886"><ele>181.0</ele><time>2026-04-04T11:33:18.999Z</time></trkpt><trkpt lat="46.161559497325214" lon="13.488004963668828"><ele>190.0</ele><time>2026-04-04T11:33:19.999Z</time></trkpt><trkpt lat="46.16178842968757" lon="13.488070273352998"><ele>190.0</ele><time>2026-04-04T11:33:20.999Z</time></trkpt><trkpt lat="46.162027237899025" lon="13.488121213257795"><ele>190.0</ele><time>2026-04-04T11:33:21.999Z</time></trkpt><trkpt lat="46.16227155997389" lon="13.488179867999822"><ele>184.5</ele><time>2026-04-04T11:33:22.999Z</time></trkpt><trkpt lat="46.16251788476281" lon="13.488239421956981"><ele>179.0</ele><time>2026-04-04T11:33:23.999Z</time></trkpt><trkpt lat="46.16276114693569" lon="13.488294731011395"><ele>179.0</ele><time>2026-04-04T11:33:24.999Z</time></trkpt><trkpt lat="46.16299742050856" lon="13.488344396322217"><ele>179.0</ele><time>2026-04-04T11:33:25.999Z</time></trkpt><trkpt lat="46.163226984768194" lon="13.488391757282868"><ele>178.33333333333331</ele><time>2026-04-04T11:33:26.999Z</time></trkpt><trkpt lat="46.16345197896438" lon="13.48843519111876"><ele>177.66666666666666</ele><time>2026-04-04T11:33:27.999Z</time></trkpt><trkpt lat="46.1636727070514" lon="13.488474751073936"><ele>177.0</ele><time>2026-04-04T11:33:28.999Z</time></trkpt><trkpt lat="46.163887673217516" lon="13.488514189393989"><ele>175.66666666666666</ele><time>2026-04-04T11:33:29.999Z</time></trkpt><trkpt lat="46.16409499623302" lon="13.488556540262145"><ele>174.33333333333331</ele><time>2026-04-04T11:33:30.999Z</time></trkpt><trkpt lat="46.164297666735415" lon="13.488608955876947"><ele>173.0</ele><time>2026-04-04T11:33:32Z</time></trkpt><trkpt lat="46.16449455075192" lon="13.48869598327711"><ele>175.33333333333331</ele><time>2026-04-04T11:33:33Z</time></trkpt><trkpt lat="46.16468875943288" lon="13.488821538598964"><ele>177.66666666666666</ele><time>2026-04-04T11:33:34Z</time></trkpt><trkpt lat="46.16488712470152" lon="13.48896015964459"><ele>180.0</ele><time>2026-04-04T11:33:35Z</time></trkpt><trkpt lat="46.165084746359035" lon="13.489081853201348"><ele>180.0</ele><time>2026-04-04T11:33:36Z</time></trkpt><trkpt lat="46.165270476940414" lon="13.48919781801749"><ele>180.0</ele><time>2026-04-04T11:33:37Z</time></trkpt><trkpt lat="46.16544629205184" lon="13.489307467154454"><ele>180.0</ele><time>2026-04-04T11:33:38Z</time></trkpt><trkpt lat="46.16562228834512" lon="13.489413533393886"><ele>179.0</ele><time>2026-04-04T11:33:39Z</time></trkpt><trkpt lat="46.165795072340394" lon="13.489491818617404"><ele>178.0</ele><time>2026-04-04T11:33:40Z</time></trkpt><trkpt lat="46.165970113751484" lon="13.489544843612869"><ele>177.0</ele><time>2026-04-04T11:33:41Z</time></trkpt><trkpt lat="46.16613813789295" lon="13.489571412793463"><ele>177.0</ele><time>2026-04-04T11:33:42Z</time></trkpt><trkpt lat="46.16631234678929" lon="13.489557648805572"><ele>177.0</ele><time>2026-04-04T11:33:43Z</time></trkpt><trkpt lat="46.1664885308815" lon="13.489479308886342"><ele>177.0</ele><time>2026-04-04T11:33:44Z</time></trkpt><trkpt lat="46.16666229143893" lon="13.48936247191999"><ele>176.33333333333334</ele><time>2026-04-04T11:33:45Z</time></trkpt><trkpt lat="46.166832121045076" lon="13.489226425923999"><ele>175.66666666666669</ele><time>2026-04-04T11:33:46Z</time></trkpt><trkpt lat="46.166993881575266" lon="13.48910314443969"><ele>175.0</ele><time>2026-04-04T11:33:47Z</time></trkpt><trkpt lat="46.16715887538267" lon="13.48900349813538"><ele>175.0</ele><time>2026-04-04T11:33:48Z</time></trkpt><trkpt lat="46.167329554635174" lon="13.488928464043486"><ele>175.0</ele><time>2026-04-04T11:33:49Z</time></trkpt><trkpt lat="46.16750830107199" lon="13.488898970291348"><ele>175.0</ele><time>2026-04-04T11:33:50Z</time></trkpt><trkpt lat="46.167688669608786" lon="13.488928691344965"><ele>175.33333333333334</ele><time>2026-04-04T11:33:51Z</time></trkpt><trkpt lat="46.16784715106403" lon="13.488983230740661"><ele>175.66666666666666</ele><time>2026-04-04T11:33:52Z</time></trkpt><trkpt lat="46.167994825487405" lon="13.489064924624246"><ele>176.0</ele><time>2026-04-04T11:33:53Z</time></trkpt><trkpt lat="46.168130041554406" lon="13.489187895079874"><ele>177.33333333333331</ele><time>2026-04-04T11:33:54Z</time></trkpt><trkpt lat="46.16826635054309" lon="13.489312205342236"><ele>178.66666666666666</ele><time>2026-04-04T11:33:55Z</time></trkpt><trkpt lat="46.16840651445212" lon="13.489410138215904"><ele>180.0</ele><time>2026-04-04T11:33:56Z</time></trkpt><trkpt lat="46.168553947014594" lon="13.489468462664055"><ele>180.0</ele><time>2026-04-04T11:33:57Z</time></trkpt><trkpt lat="46.16870558201667" lon="13.489492663226597"><ele>180.0</ele><time>2026-04-04T11:33:58Z</time></trkpt><trkpt lat="46.16885515264569" lon="13.489513510109106"><ele>180.0</ele><time>2026-04-04T11:33:59Z</time></trkpt><trkpt lat="46.1690007217088" lon="13.489534959167752"><ele>180.0</ele><time>2026-04-04T11:34:00Z</time></trkpt><trkpt lat="46.16914078933744" lon="13.489542487556163"><ele>180.0</ele><time>2026-04-04T11:34:01Z</time></trkpt><trkpt lat="46.169276386185246" lon="13.489522592275543"><ele>180.0</ele><time>2026-04-04T11:34:02Z</time></trkpt><trkpt lat="46.16939384951238" lon="13.489474401448977"><ele>180.0</ele><time>2026-04-04T11:34:03Z</time></trkpt><trkpt lat="46.169502960163065" lon="13.48942205231964"><ele>180.0</ele><time>2026-04-04T11:34:04Z</time></trkpt><trkpt lat="46.16960641708988" lon="13.489380343116634"><ele>180.0</ele><time>2026-04-04T11:34:05Z</time></trkpt><trkpt lat="46.169703754393964" lon="13.48934469585284"><ele>180.0</ele><time>2026-04-04T11:34:06Z</time></trkpt><trkpt lat="46.16979065952182" lon="13.489309302462406"><ele>180.0</ele><time>2026-04-04T11:34:07Z</time></trkpt><trkpt lat="46.16986487844844" lon="13.489276805674585"><ele>180.0</ele><time>2026-04-04T11:34:08Z</time></trkpt><trkpt lat="46.169926044298435" lon="13.489249119421478"><ele>180.0</ele><time>2026-04-04T11:34:09Z</time></trkpt><trkpt lat="46.17002101296927" lon="13.489200696998253"><ele>180.0</ele><time>2026-04-04T11:34:11Z</time></trkpt><trkpt lat="46.170114323966395" lon="13.489146970688283"><ele>180.33333333333334</ele><time>2026-04-04T11:34:13Z</time></trkpt><trkpt lat="46.17021415651549" lon="13.489091327656187"><ele>180.66666666666666</ele><time>2026-04-04T11:34:15Z</time></trkpt><trkpt lat="46.170272676761314" lon="13.489055909784037"><ele>181.0</ele><time>2026-04-04T11:34:16Z</time></trkpt><trkpt lat="46.17034424166424" lon="13.489020209640739"><ele>181.33333333333331</ele><time>2026-04-04T11:34:17Z</time></trkpt><trkpt lat="46.17042397241277" lon="13.488983246557456"><ele>181.66666666666666</ele><time>2026-04-04T11:34:18Z</time></trkpt><trkpt lat="46.170505957808565" lon="13.488926104746245"><ele>182.0</ele><time>2026-04-04T11:34:18.999Z</time></trkpt><trkpt lat="46.17059821019208" lon="13.488853319763512"><ele>181.75</ele><time>2026-04-04T11:34:19.999Z</time></trkpt><trkpt lat="46.17070219640037" lon="13.488772268439165"><ele>181.5</ele><time>2026-04-04T11:34:20.999Z</time></trkpt><trkpt lat="46.17081409476006" lon="13.488672085966527"><ele>181.25</ele><time>2026-04-04T11:34:21.999Z</time></trkpt><trkpt lat="46.1709188984918" lon="13.488554390994437"><ele>181.0</ele><time>2026-04-04T11:34:22.999Z</time></trkpt><trkpt lat="46.17102639675979" lon="13.488426767813326"><ele>181.0</ele><time>2026-04-04T11:34:23.999Z</time></trkpt><trkpt lat="46.17113463542421" lon="13.488293770179627"><ele>181.0</ele><time>2026-04-04T11:34:24.999Z</time></trkpt><trkpt lat="46.171236189888724" lon="13.488154796537547"><ele>181.0</ele><time>2026-04-04T11:34:25.999Z</time></trkpt><trkpt lat="46.171336895516816" lon="13.488013379149086"><ele>181.0</ele><time>2026-04-04T11:34:26.999Z</time></trkpt><trkpt lat="46.171442358473335" lon="13.487882555303491"><ele>182.0</ele><time>2026-04-04T11:34:27.999Z</time></trkpt><trkpt lat="46.17154947200182" lon="13.487761056359997"><ele>183.0</ele><time>2026-04-04T11:34:28.999Z</time></trkpt><trkpt lat="46.1716530256246" lon="13.487636136838042"><ele>184.0</ele><time>2026-04-04T11:34:29.999Z</time></trkpt><trkpt lat="46.17175859580732" lon="13.487509199102849"><ele>185.0</ele><time>2026-04-04T11:34:30.999Z</time></trkpt><trkpt lat="46.171869756194155" lon="13.487386773846193"><ele>185.0</ele><time>2026-04-04T11:34:31.999Z</time></trkpt><trkpt lat="46.171979901962885" lon="13.487251000086502"><ele>185.0</ele><time>2026-04-04T11:34:32.999Z</time></trkpt><trkpt lat="46.17209891124455" lon="13.487104389783235"><ele>185.0</ele><time>2026-04-04T11:34:33.999Z</time></trkpt><trkpt lat="46.17222593498434" lon="13.486949375717204"><ele>188.0</ele><time>2026-04-04T11:34:34.999Z</time></trkpt><trkpt lat="46.172357818633" lon="13.486789328795785"><ele>191.0</ele><time>2026-04-04T11:34:35.999Z</time></trkpt><trkpt lat="46.17248880675942" lon="13.486625981326883"><ele>194.0</ele><time>2026-04-04T11:34:36.999Z</time></trkpt><trkpt lat="46.17260865435771" lon="13.48647708881152"><ele>194.0</ele><time>2026-04-04T11:34:37.999Z</time></trkpt><trkpt lat="46.17271587686459" lon="13.486353521922016"><ele>194.0</ele><time>2026-04-04T11:34:38.999Z</time></trkpt><trkpt lat="46.1728180436037" lon="13.48622902243227"><ele>194.0</ele><time>2026-04-04T11:34:39.999Z</time></trkpt><trkpt lat="46.17291719368146" lon="13.486099517552567"><ele>194.0</ele><time>2026-04-04T11:34:40.999Z</time></trkpt><trkpt lat="46.17300774790627" lon="13.485969070301943"><ele>191.75</ele><time>2026-04-04T11:34:41.999Z</time></trkpt><trkpt lat="46.1730849980931" lon="13.485842754499492"><ele>189.5</ele><time>2026-04-04T11:34:42.999Z</time></trkpt><trkpt lat="46.17314394203882" lon="13.485696044412302"><ele>187.25</ele><time>2026-04-04T11:34:43.999Z</time></trkpt><trkpt lat="46.173181439008616" lon="13.485533034002971"><ele>185.0</ele><time>2026-04-04T11:34:44.999Z</time></trkpt><trkpt lat="46.1731966124337" lon="13.485360749782501"><ele>185.0</ele><time>2026-04-04T11:34:45.999Z</time></trkpt><trkpt lat="46.173193545689216" lon="13.485185212059164"><ele>185.0</ele><time>2026-04-04T11:34:46.999Z</time></trkpt><trkpt lat="46.17318242935914" lon="13.485007995230184"><ele>185.0</ele><time>2026-04-04T11:34:47.999Z</time></trkpt><trkpt lat="46.17317999549911" lon="13.484829696249898"><ele>185.0</ele><time>2026-04-04T11:34:48.999Z</time></trkpt><trkpt lat="46.17318554782778" lon="13.48467875130863"><ele>184.66666666666666</ele><time>2026-04-04T11:34:49.999Z</time></trkpt><trkpt lat="46.17319644380093" lon="13.484547576424543"><ele>184.33333333333331</ele><time>2026-04-04T11:34:50.999Z</time></trkpt><trkpt lat="46.173211876200504" lon="13.484443516510687"><ele>184.0</ele><time>2026-04-04T11:34:51.999Z</time></trkpt><trkpt lat="46.17322492911738" lon="13.484346242565163"><ele>183.66666666666666</ele><time>2026-04-04T11:34:52.999Z</time></trkpt><trkpt lat="46.17324184115923" lon="13.48421553595689"><ele>183.33333333333334</ele><time>2026-04-04T11:34:53.999Z</time></trkpt><trkpt lat="46.17326848642759" lon="13.484046184951044"><ele>183.0</ele><time>2026-04-04T11:34:54.999Z</time></trkpt><trkpt lat="46.173303161525766" lon="13.483848735313739"><ele>182.33333333333334</ele><time>2026-04-04T11:34:55.999Z</time></trkpt><trkpt lat="46.17334239990963" lon="13.483621646174448"><ele>181.66666666666669</ele><time>2026-04-04T11:34:56.999Z</time></trkpt><trkpt lat="46.17338158935862" lon="13.48337848951506"><ele>181.0</ele><time>2026-04-04T11:34:57.999Z</time></trkpt><trkpt lat="46.173423404294866" lon="13.483143746289208"><ele>181.0</ele><time>2026-04-04T11:34:58.999Z</time></trkpt><trkpt lat="46.173481353084924" lon="13.482940230591534"><ele>181.0</ele><time>2026-04-04T11:34:59.999Z</time></trkpt><trkpt lat="46.17356654263328" lon="13.482747122375027"><ele>181.0</ele><time>2026-04-04T11:35:00.999Z</time></trkpt><trkpt lat="46.17368147184949" lon="13.48254753817869"><ele>181.33333333333334</ele><time>2026-04-04T11:35:01.999Z</time></trkpt><trkpt lat="46.17381499815809" lon="13.482340826620987"><ele>181.66666666666666</ele><time>2026-04-04T11:35:02.999Z</time></trkpt><trkpt lat="46.17396334379742" lon="13.482135468290009"><ele>182.0</ele><time>2026-04-04T11:35:03.999Z</time></trkpt><trkpt lat="46.174130340764776" lon="13.481950187610275"><ele>182.33333333333331</ele><time>2026-04-04T11:35:04.999Z</time></trkpt><trkpt lat="46.17431464421876" lon="13.481779915493345"><ele>182.66666666666666</ele><time>2026-04-04T11:35:05.999Z</time></trkpt><trkpt lat="46.17451036120639" lon="13.48161396461035"><ele>183.0</ele><time>2026-04-04T11:35:06.999Z</time></trkpt><trkpt lat="46.17471250060083" lon="13.481449628006185"><ele>183.0</ele><time>2026-04-04T11:35:07.999Z</time></trkpt><trkpt lat="46.17492550856622" lon="13.481286827726732"><ele>183.0</ele><time>2026-04-04T11:35:08.999Z</time></trkpt><trkpt lat="46.17514354750063" lon="13.481120103750259"><ele>183.0</ele><time>2026-04-04T11:35:09.999Z</time></trkpt><trkpt lat="46.175364460284854" lon="13.480952445075879"><ele>183.0</ele><time>2026-04-04T11:35:10.999Z</time></trkpt><trkpt lat="46.175591901650066" lon="13.480792658893327"><ele>188.5</ele><time>2026-04-04T11:35:11.999Z</time></trkpt><trkpt lat="46.17582299771761" lon="13.48063303458323"><ele>194.0</ele><time>2026-04-04T11:35:12.999Z</time></trkpt><trkpt lat="46.17605340210769" lon="13.480472136358188"><ele>188.0</ele><time>2026-04-04T11:35:13.999Z</time></trkpt><trkpt lat="46.17627854334135" lon="13.480317035751034"><ele>182.0</ele><time>2026-04-04T11:35:14.999Z</time></trkpt><trkpt lat="46.17650347577381" lon="13.480171595491022"><ele>188.5</ele><time>2026-04-04T11:35:15.999Z</time></trkpt><trkpt lat="46.17672098787677" lon="13.480020113524303"><ele>195.0</ele><time>2026-04-04T11:35:16.999Z</time></trkpt><trkpt lat="46.176931274635194" lon="13.479845129672217"><ele>195.0</ele><time>2026-04-04T11:35:17.999Z</time></trkpt><trkpt lat="46.17714487329414" lon="13.479666146159547"><ele>195.0</ele><time>2026-04-04T11:35:18.999Z</time></trkpt><trkpt lat="46.17737159325681" lon="13.479512447459506"><ele>189.0</ele><time>2026-04-04T11:35:19.999Z</time></trkpt><trkpt lat="46.177603958778285" lon="13.47936811674691"><ele>183.0</ele><time>2026-04-04T11:35:20.999Z</time></trkpt><trkpt lat="46.177838322113686" lon="13.479217673918718"><ele>183.0</ele><time>2026-04-04T11:35:21.999Z</time></trkpt><trkpt lat="46.17806590424703" lon="13.479073801628068"><ele>183.0</ele><time>2026-04-04T11:35:22.999Z</time></trkpt><trkpt lat="46.178274198700635" lon="13.478949075385344"><ele>183.33333333333334</ele><time>2026-04-04T11:35:23.999Z</time></trkpt><trkpt lat="46.17845845317742" lon="13.478841186129372"><ele>183.66666666666669</ele><time>2026-04-04T11:35:24.999Z</time></trkpt><trkpt lat="46.1786242721519" lon="13.478742280550918"><ele>184.0</ele><time>2026-04-04T11:35:25.999Z</time></trkpt><trkpt lat="46.178770474155314" lon="13.478651851307887"><ele>184.0</ele><time>2026-04-04T11:35:26.999Z</time></trkpt><trkpt lat="46.178904781582915" lon="13.47857018126756"><ele>184.0</ele><time>2026-04-04T11:35:27.999Z</time></trkpt><trkpt lat="46.17903211589696" lon="13.478497642345035"><ele>184.0</ele><time>2026-04-04T11:35:28.999Z</time></trkpt><trkpt lat="46.17915891720983" lon="13.47842587910699"><ele>184.0</ele><time>2026-04-04T11:35:29.999Z</time></trkpt><trkpt lat="46.17927271855304" lon="13.478360673602998"><ele>185.0</ele><time>2026-04-04T11:35:30.999Z</time></trkpt><trkpt lat="46.17937682339858" lon="13.478297369351505"><ele>186.0</ele><time>2026-04-04T11:35:31.999Z</time></trkpt><trkpt lat="46.17947944722364" lon="13.478237723257388"><ele>187.0</ele><time>2026-04-04T11:35:32.999Z</time></trkpt><trkpt lat="46.17957361315555" lon="13.47818037077184"><ele>188.0</ele><time>2026-04-04T11:35:33.999Z</time></trkpt><trkpt lat="46.17968433686691" lon="13.47809768020618"><ele>188.0</ele><time>2026-04-04T11:35:34.999Z</time></trkpt><trkpt lat="46.17981859108101" lon="13.478013632789027"><ele>188.0</ele><time>2026-04-04T11:35:35.999Z</time></trkpt><trkpt lat="46.179984964889364" lon="13.477952774867028"><ele>188.0</ele><time>2026-04-04T11:35:36.999Z</time></trkpt><trkpt lat="46.180150985119276" lon="13.477858620367872"><ele>188.0</ele><time>2026-04-04T11:35:38Z</time></trkpt><trkpt lat="46.18030071504853" lon="13.477761070004503"><ele>188.0</ele><time>2026-04-04T11:35:39Z</time></trkpt><trkpt lat="46.18043965111236" lon="13.47769244456833"><ele>188.0</ele><time>2026-04-04T11:35:40Z</time></trkpt><trkpt lat="46.18058040986284" lon="13.477647922962573"><ele>188.33333333333331</ele><time>2026-04-04T11:35:41Z</time></trkpt><trkpt lat="46.180727576512204" lon="13.477631674395807"><ele>188.66666666666666</ele><time>2026-04-04T11:35:42Z</time></trkpt><trkpt lat="46.18087805609813" lon="13.477634620456463"><ele>189.0</ele><time>2026-04-04T11:35:43Z</time></trkpt><trkpt lat="46.1810301479008" lon="13.477652861852427"><ele>189.0</ele><time>2026-04-04T11:35:44Z</time></trkpt><trkpt lat="46.18118493511222" lon="13.477690552591971"><ele>189.0</ele><time>2026-04-04T11:35:45Z</time></trkpt><trkpt lat="46.18134212237525" lon="13.47773544552528"><ele>189.0</ele><time>2026-04-04T11:35:46Z</time></trkpt><trkpt lat="46.18150345814913" lon="13.477772101089924"><ele>189.0</ele><time>2026-04-04T11:35:47Z</time></trkpt><trkpt lat="46.18167314228475" lon="13.477794429579292"><ele>189.0</ele><time>2026-04-04T11:35:48Z</time></trkpt><trkpt lat="46.18184827620753" lon="13.4778014144561"><ele>189.0</ele><time>2026-04-04T11:35:49Z</time></trkpt><trkpt lat="46.18202839674161" lon="13.477788414517741"><ele>189.0</ele><time>2026-04-04T11:35:50Z</time></trkpt><trkpt lat="46.182212674351966" lon="13.477765201027719"><ele>189.0</ele><time>2026-04-04T11:35:51Z</time></trkpt><trkpt lat="46.182399612557845" lon="13.477718946886386"><ele>189.0</ele><time>2026-04-04T11:35:52Z</time></trkpt><trkpt lat="46.1825922093907" lon="13.47765108247268"><ele>190.66666666666669</ele><time>2026-04-04T11:35:53Z</time></trkpt><trkpt lat="46.18278781463853" lon="13.477587621521609"><ele>192.33333333333334</ele><time>2026-04-04T11:35:54Z</time></trkpt><trkpt lat="46.182985581973014" lon="13.477529609806117"><ele>194.0</ele><time>2026-04-04T11:35:55Z</time></trkpt><trkpt lat="46.183180105901656" lon="13.47747342093976"><ele>197.33333333333334</ele><time>2026-04-04T11:35:56Z</time></trkpt><trkpt lat="46.183370386470386" lon="13.477397928130227"><ele>200.66666666666669</ele><time>2026-04-04T11:35:57Z</time></trkpt><trkpt lat="46.183561860586664" lon="13.477289511042835"><ele>204.0</ele><time>2026-04-04T11:35:58Z</time></trkpt><trkpt lat="46.18374893570293" lon="13.477153007451474"><ele>200.66666666666669</ele><time>2026-04-04T11:35:59Z</time></trkpt><trkpt lat="46.18393575829427" lon="13.477000401546974"><ele>197.33333333333334</ele><time>2026-04-04T11:36:00Z</time></trkpt><trkpt lat="46.18412983681851" lon="13.47684585199391"><ele>194.0</ele><time>2026-04-04T11:36:01Z</time></trkpt><trkpt lat="46.18432790576134" lon="13.476699526979855"><ele>194.0</ele><time>2026-04-04T11:36:02Z</time></trkpt><trkpt lat="46.1845278071652" lon="13.476552003081418"><ele>194.0</ele><time>2026-04-04T11:36:03Z</time></trkpt><trkpt lat="46.184728227023044" lon="13.476388261013108"><ele>196.5</ele><time>2026-04-04T11:36:04Z</time></trkpt><trkpt lat="46.184923671374655" lon="13.476215400495992"><ele>199.0</ele><time>2026-04-04T11:36:05Z</time></trkpt><trkpt lat="46.18511553741922" lon="13.4760462206426"><ele>199.0</ele><time>2026-04-04T11:36:06Z</time></trkpt><trkpt lat="46.18530291435299" lon="13.475883515066707"><ele>199.0</ele><time>2026-04-04T11:36:07Z</time></trkpt><trkpt lat="46.18548375025106" lon="13.47573042552991"><ele>199.0</ele><time>2026-04-04T11:36:08Z</time></trkpt><trkpt lat="46.1856573682067" lon="13.475579312328778"><ele>200.0</ele><time>2026-04-04T11:36:09Z</time></trkpt><trkpt lat="46.18582278611138" lon="13.475426902925733"><ele>201.0</ele><time>2026-04-04T11:36:10Z</time></trkpt><trkpt lat="46.18597858758099" lon="13.475257869331651"><ele>202.0</ele><time>2026-04-04T11:36:11Z</time></trkpt><trkpt lat="46.186122417391765" lon="13.475054060579017"><ele>202.0</ele><time>2026-04-04T11:36:12Z</time></trkpt><trkpt lat="46.18625543973506" lon="13.474819449210806"><ele>202.0</ele><time>2026-04-04T11:36:13Z</time></trkpt><trkpt lat="46.18638982227938" lon="13.474572949250401"><ele>202.0</ele><time>2026-04-04T11:36:14Z</time></trkpt><trkpt lat="46.186528818820655" lon="13.474338477311882"><ele>203.0</ele><time>2026-04-04T11:36:15Z</time></trkpt><trkpt lat="46.18667087355283" lon="13.474112129305345"><ele>204.0</ele><time>2026-04-04T11:36:16Z</time></trkpt><trkpt lat="46.18682480190614" lon="13.473896010021775"><ele>205.0</ele><time>2026-04-04T11:36:17Z</time></trkpt><trkpt lat="46.18698786604971" lon="13.473686131172405"><ele>205.33333333333331</ele><time>2026-04-04T11:36:18Z</time></trkpt><trkpt lat="46.187149615258264" lon="13.473475010402835"><ele>205.66666666666669</ele><time>2026-04-04T11:36:19Z</time></trkpt><trkpt lat="46.187314354419456" lon="13.473273654622808"><ele>206.0</ele><time>2026-04-04T11:36:20Z</time></trkpt><trkpt lat="46.18748558432927" lon="13.47308857352938"><ele>204.66666666666669</ele><time>2026-04-04T11:36:21Z</time></trkpt><trkpt lat="46.18765709354538" lon="13.472910060259151"><ele>203.33333333333331</ele><time>2026-04-04T11:36:22Z</time></trkpt><trkpt lat="46.18783928219591" lon="13.47275035561423"><ele>202.0</ele><time>2026-04-04T11:36:23Z</time></trkpt><trkpt lat="46.18802477809754" lon="13.472594838378312"><ele>203.33333333333331</ele><time>2026-04-04T11:36:23.999Z</time></trkpt><trkpt lat="46.188213921754816" lon="13.472437364657276"><ele>204.66666666666669</ele><time>2026-04-04T11:36:24.999Z</time></trkpt><trkpt lat="46.18840326182364" lon="13.472280702175281"><ele>206.0</ele><time>2026-04-04T11:36:25.999Z</time></trkpt><trkpt lat="46.188594570555495" lon="13.47212766116866"><ele>205.0</ele><time>2026-04-04T11:36:26.999Z</time></trkpt><trkpt lat="46.18878988176933" lon="13.471983831737205"><ele>204.0</ele><time>2026-04-04T11:36:27.999Z</time></trkpt><trkpt lat="46.188987859400314" lon="13.471842709086554"><ele>203.0</ele><time>2026-04-04T11:36:28.999Z</time></trkpt><trkpt lat="46.1891854677044" lon="13.471703300935467"><ele>205.33333333333334</ele><time>2026-04-04T11:36:29.999Z</time></trkpt><trkpt lat="46.18936718962457" lon="13.471571909449612"><ele>207.66666666666669</ele><time>2026-04-04T11:36:30.999Z</time></trkpt><trkpt lat="46.1895364421206" lon="13.471449957689904"><ele>210.0</ele><time>2026-04-04T11:36:31.999Z</time></trkpt><trkpt lat="46.18971090715078" lon="13.471337950703798"><ele>208.0</ele><time>2026-04-04T11:36:32.999Z</time></trkpt><trkpt lat="46.18990122832905" lon="13.471247928793451"><ele>206.0</ele><time>2026-04-04T11:36:33.999Z</time></trkpt><trkpt lat="46.19011088271498" lon="13.471198177981131"><ele>204.0</ele><time>2026-04-04T11:36:34.999Z</time></trkpt><trkpt lat="46.19032667012509" lon="13.471151196548501"><ele>204.0</ele><time>2026-04-04T11:36:35.999Z</time></trkpt><trkpt lat="46.19054591205226" lon="13.471092865378042"><ele>204.0</ele><time>2026-04-04T11:36:36.999Z</time></trkpt><trkpt lat="46.19076082175036" lon="13.471039435001858"><ele>204.0</ele><time>2026-04-04T11:36:37.999Z</time></trkpt><trkpt lat="46.19097350808597" lon="13.471016426625265"><ele>203.33333333333331</ele><time>2026-04-04T11:36:38.999Z</time></trkpt><trkpt lat="46.19117782140613" lon="13.47101263236756"><ele>202.66666666666666</ele><time>2026-04-04T11:36:39.999Z</time></trkpt><trkpt lat="46.191382205475215" lon="13.47100648309164"><ele>202.0</ele><time>2026-04-04T11:36:40.999Z</time></trkpt><trkpt lat="46.191587422563074" lon="13.470971693943794"><ele>203.33333333333331</ele><time>2026-04-04T11:36:41.999Z</time></trkpt><trkpt lat="46.191793007986256" lon="13.470913867033254"><ele>204.66666666666669</ele><time>2026-04-04T11:36:42.999Z</time></trkpt><trkpt lat="46.19199461413921" lon="13.470808172856117"><ele>206.0</ele><time>2026-04-04T11:36:43.999Z</time></trkpt><trkpt lat="46.19219600705874" lon="13.47067796896961"><ele>201.5</ele><time>2026-04-04T11:36:44.999Z</time></trkpt><trkpt lat="46.19241769052583" lon="13.470525696064472"><ele>197.0</ele><time>2026-04-04T11:36:45.999Z</time></trkpt><trkpt lat="46.19261443277433" lon="13.470394579384896"><ele>197.0</ele><time>2026-04-04T11:36:46.999Z</time></trkpt><trkpt lat="46.192799197095695" lon="13.470282809962622"><ele>197.0</ele><time>2026-04-04T11:36:47.999Z</time></trkpt><trkpt lat="46.192988180969934" lon="13.470175376057448"><ele>197.0</ele><time>2026-04-04T11:36:48.999Z</time></trkpt><trkpt lat="46.1931805426365" lon="13.470074360725574"><ele>198.66666666666669</ele><time>2026-04-04T11:36:49.999Z</time></trkpt><trkpt lat="46.193403286327715" lon="13.469966588199833"><ele>200.33333333333331</ele><time>2026-04-04T11:36:50.999Z</time></trkpt><trkpt lat="46.19357657419391" lon="13.469854769322659"><ele>202.0</ele><time>2026-04-04T11:36:51.999Z</time></trkpt><trkpt lat="46.19378301352193" lon="13.469808650501566"><ele>202.0</ele><time>2026-04-04T11:36:52.999Z</time></trkpt><trkpt lat="46.19399650952027" lon="13.469776926918584"><ele>202.0</ele><time>2026-04-04T11:36:53.999Z</time></trkpt><trkpt lat="46.19421434454036" lon="13.46977411844404"><ele>202.0</ele><time>2026-04-04T11:36:54.999Z</time></trkpt><trkpt lat="46.19442615562946" lon="13.469766671758455"><ele>203.0</ele><time>2026-04-04T11:36:55.999Z</time></trkpt><trkpt lat="46.19463099427496" lon="13.46976817229122"><ele>204.0</ele><time>2026-04-04T11:36:56.999Z</time></trkpt><trkpt lat="46.194825923125784" lon="13.469797003272268"><ele>205.0</ele><time>2026-04-04T11:36:57.999Z</time></trkpt><trkpt lat="46.19501426513518" lon="13.469853944479413"><ele>205.66666666666666</ele><time>2026-04-04T11:36:58.999Z</time></trkpt><trkpt lat="46.195198101302346" lon="13.469941297275518"><ele>206.33333333333331</ele><time>2026-04-04T11:36:59.999Z</time></trkpt><trkpt lat="46.19537762434588" lon="13.470049943160996"><ele>207.0</ele><time>2026-04-04T11:37:00.999Z</time></trkpt><trkpt lat="46.19556234438253" lon="13.470127809356"><ele>206.0</ele><time>2026-04-04T11:37:01.999Z</time></trkpt><trkpt lat="46.19573644573223" lon="13.470279324688597"><ele>205.0</ele><time>2026-04-04T11:37:02.999Z</time></trkpt><trkpt lat="46.19592040109842" lon="13.470364887056233"><ele>204.0</ele><time>2026-04-04T11:37:03.999Z</time></trkpt><trkpt lat="46.19610367930922" lon="13.470454069218103"><ele>207.66666666666669</ele><time>2026-04-04T11:37:04.999Z</time></trkpt><trkpt lat="46.196294496173856" lon="13.470514609662422"><ele>211.33333333333334</ele><time>2026-04-04T11:37:05.999Z</time></trkpt><trkpt lat="46.196488575677286" lon="13.470547385625062"><ele>215.0</ele><time>2026-04-04T11:37:06.999Z</time></trkpt><trkpt lat="46.19669829275113" lon="13.470569572704443"><ele>215.0</ele><time>2026-04-04T11:37:07.999Z</time></trkpt><trkpt lat="46.196902957324426" lon="13.470565020564813"><ele>215.0</ele><time>2026-04-04T11:37:08.999Z</time></trkpt><trkpt lat="46.197082194949786" lon="13.470526412721552"><ele>215.0</ele><time>2026-04-04T11:37:09.999Z</time></trkpt><trkpt lat="46.19728455436105" lon="13.470537383259973"><ele>214.66666666666669</ele><time>2026-04-04T11:37:10.999Z</time></trkpt><trkpt lat="46.19748486775864" lon="13.470477122198115"><ele>214.33333333333331</ele><time>2026-04-04T11:37:11.999Z</time></trkpt><trkpt lat="46.1976734857041" lon="13.47041901782334"><ele>214.0</ele><time>2026-04-04T11:37:12.999Z</time></trkpt><trkpt lat="46.197864545254575" lon="13.470438697113805"><ele>214.0</ele><time>2026-04-04T11:37:13.999Z</time></trkpt><trkpt lat="46.198058751258735" lon="13.470465449396025"><ele>214.0</ele><time>2026-04-04T11:37:14.999Z</time></trkpt><trkpt lat="46.19825143732065" lon="13.470520562432133"><ele>214.0</ele><time>2026-04-04T11:37:15.999Z</time></trkpt><trkpt lat="46.198441036854675" lon="13.470610589162755"><ele>213.0</ele><time>2026-04-04T11:37:16.999Z</time></trkpt><trkpt lat="46.19862418169276" lon="13.470720696033005"><ele>212.0</ele><time>2026-04-04T11:37:17.999Z</time></trkpt><trkpt lat="46.19879271335226" lon="13.470858284834165"><ele>211.0</ele><time>2026-04-04T11:37:18.999Z</time></trkpt><trkpt lat="46.198944228122464" lon="13.47101463944324"><ele>208.0</ele><time>2026-04-04T11:37:19.999Z</time></trkpt><trkpt lat="46.19910836837293" lon="13.471141469678885"><ele>205.0</ele><time>2026-04-04T11:37:20.999Z</time></trkpt><trkpt lat="46.19928403049261" lon="13.471228976686383"><ele>202.0</ele><time>2026-04-04T11:37:21.999Z</time></trkpt><trkpt lat="46.19946794527461" lon="13.471267549240471"><ele>206.66666666666666</ele><time>2026-04-04T11:37:22.999Z</time></trkpt><trkpt lat="46.19965455287311" lon="13.471278442925112"><ele>211.33333333333331</ele><time>2026-04-04T11:37:23.999Z</time></trkpt><trkpt lat="46.199833618395324" lon="13.471285652928202"><ele>216.0</ele><time>2026-04-04T11:37:24.999Z</time></trkpt><trkpt lat="46.19999735500015" lon="13.471280454208632"><ele>216.0</ele><time>2026-04-04T11:37:25.999Z</time></trkpt><trkpt lat="46.20015026808893" lon="13.471276030362722"><ele>216.0</ele><time>2026-04-04T11:37:26.999Z</time></trkpt><trkpt lat="46.200296208329604" lon="13.471299424993402"><ele>216.0</ele><time>2026-04-04T11:37:27.999Z</time></trkpt><trkpt lat="46.20044378949027" lon="13.471348719053225"><ele>216.0</ele><time>2026-04-04T11:37:28.999Z</time></trkpt><trkpt lat="46.20058936017447" lon="13.47142504987215"><ele>216.0</ele><time>2026-04-04T11:37:29.999Z</time></trkpt><trkpt lat="46.200734880247914" lon="13.471526696883569"><ele>216.0</ele><time>2026-04-04T11:37:30.999Z</time></trkpt><trkpt lat="46.20089222986973" lon="13.471622293370801"><ele>213.66666666666669</ele><time>2026-04-04T11:37:31.999Z</time></trkpt><trkpt lat="46.20106025461928" lon="13.471705759290808"><ele>211.33333333333334</ele><time>2026-04-04T11:37:32.999Z</time></trkpt><trkpt lat="46.20122572695718" lon="13.471809915931612"><ele>209.0</ele><time>2026-04-04T11:37:33.999Z</time></trkpt><trkpt lat="46.20139386963754" lon="13.471916095753663"><ele>209.66666666666669</ele><time>2026-04-04T11:37:34.999Z</time></trkpt><trkpt lat="46.20156361657307" lon="13.472017376066098"><ele>210.33333333333331</ele><time>2026-04-04T11:37:35.999Z</time></trkpt><trkpt lat="46.20173101963082" lon="13.472126430680351"><ele>211.0</ele><time>2026-04-04T11:37:36.999Z</time></trkpt><trkpt lat="46.201902211839865" lon="13.472262008466942"><ele>211.0</ele><time>2026-04-04T11:37:37.999Z</time></trkpt><trkpt lat="46.20207784240336" lon="13.472421394187688"><ele>211.0</ele><time>2026-04-04T11:37:38.999Z</time></trkpt><trkpt lat="46.20225968782264" lon="13.472587150780525"><ele>211.0</ele><time>2026-04-04T11:37:39.999Z</time></trkpt><trkpt lat="46.20244630738744" lon="13.472751528402028"><ele>209.66666666666666</ele><time>2026-04-04T11:37:40.999Z</time></trkpt><trkpt lat="46.2026350582634" lon="13.472914515675193"><ele>208.33333333333331</ele><time>2026-04-04T11:37:41.999Z</time></trkpt><trkpt lat="46.20281896504811" lon="13.473068420329986"><ele>207.0</ele><time>2026-04-04T11:37:42.999Z</time></trkpt><trkpt lat="46.20299054510336" lon="13.473239295036448"><ele>208.0</ele><time>2026-04-04T11:37:44Z</time></trkpt><trkpt lat="46.20314384633212" lon="13.473440262329712"><ele>209.0</ele><time>2026-04-04T11:37:45Z</time></trkpt><trkpt lat="46.203284381805545" lon="13.473654800681025"><ele>210.0</ele><time>2026-04-04T11:37:46Z</time></trkpt><trkpt lat="46.203402573889996" lon="13.473878309886087"><ele>213.66666666666669</ele><time>2026-04-04T11:37:47Z</time></trkpt><trkpt lat="46.2034953098337" lon="13.47413540111691"><ele>217.33333333333334</ele><time>2026-04-04T11:37:48Z</time></trkpt><trkpt lat="46.203581252039086" lon="13.474417733396864"><ele>221.0</ele><time>2026-04-04T11:37:49Z</time></trkpt><trkpt lat="46.203672916218885" lon="13.474710768077768"><ele>226.0</ele><time>2026-04-04T11:37:50Z</time></trkpt><trkpt lat="46.20376016345754" lon="13.47502899259122"><ele>231.0</ele><time>2026-04-04T11:37:51Z</time></trkpt><trkpt lat="46.203854978201235" lon="13.475358777943372"><ele>241.0</ele><time>2026-04-04T11:37:52Z</time></trkpt><trkpt lat="46.20395605976058" lon="13.475703938794751"><ele>251.0</ele><time>2026-04-04T11:37:53Z</time></trkpt><trkpt lat="46.204051257702616" lon="13.476022733268524"><ele>241.66666666666669</ele><time>2026-04-04T11:37:54Z</time></trkpt><trkpt lat="46.204141085472195" lon="13.476295583993808"><ele>232.33333333333331</ele><time>2026-04-04T11:37:55Z</time></trkpt><trkpt lat="46.204224395260134" lon="13.476542556076204"><ele>223.0</ele><time>2026-04-04T11:37:56Z</time></trkpt><trkpt lat="46.20427940128746" lon="13.476768785711279"><ele>223.0</ele><time>2026-04-04T11:37:57Z</time></trkpt><trkpt lat="46.20431353415471" lon="13.47698363824287"><ele>223.0</ele><time>2026-04-04T11:37:58Z</time></trkpt><trkpt lat="46.20439252570776" lon="13.47719054265981"><ele>223.0</ele><time>2026-04-04T11:37:59Z</time></trkpt><trkpt lat="46.20452571145432" lon="13.47737550927785"><ele>222.66666666666666</ele><time>2026-04-04T11:38:00Z</time></trkpt><trkpt lat="46.204697696658414" lon="13.477533368025746"><ele>222.33333333333331</ele><time>2026-04-04T11:38:01Z</time></trkpt><trkpt lat="46.204877840604944" lon="13.477737770264653"><ele>222.0</ele><time>2026-04-04T11:38:02Z</time></trkpt><trkpt lat="46.20503974534969" lon="13.477987196066492"><ele>222.0</ele><time>2026-04-04T11:38:03Z</time></trkpt><trkpt lat="46.20517075617932" lon="13.478203736063312"><ele>222.0</ele><time>2026-04-04T11:38:04Z</time></trkpt><trkpt lat="46.205277632799" lon="13.47839967546172"><ele>222.0</ele><time>2026-04-04T11:38:05Z</time></trkpt><trkpt lat="46.20536085248971" lon="13.478632724639386"><ele>232.0</ele><time>2026-04-04T11:38:06Z</time></trkpt><trkpt lat="46.205426163026324" lon="13.478904029423305"><ele>242.0</ele><time>2026-04-04T11:38:07Z</time></trkpt><trkpt lat="46.2054990391337" lon="13.479186351612634"><ele>252.0</ele><time>2026-04-04T11:38:08Z</time></trkpt><trkpt lat="46.205586386090566" lon="13.479477871368914"><ele>240.66666666666669</ele><time>2026-04-04T11:38:09Z</time></trkpt><trkpt lat="46.20566711048304" lon="13.479776433143597"><ele>229.33333333333334</ele><time>2026-04-04T11:38:10Z</time></trkpt><trkpt lat="46.20576080118371" lon="13.480040958607036"><ele>218.0</ele><time>2026-04-04T11:38:11Z</time></trkpt><trkpt lat="46.20585196453024" lon="13.480288774439115"><ele>222.0</ele><time>2026-04-04T11:38:12Z</time></trkpt><trkpt lat="46.20590933740941" lon="13.480556175937082"><ele>226.0</ele><time>2026-04-04T11:38:13Z</time></trkpt><trkpt lat="46.20596055220148" lon="13.480822671959986"><ele>230.0</ele><time>2026-04-04T11:38:14Z</time></trkpt><trkpt lat="46.206042351258375" lon="13.481087398929454"><ele>236.5</ele><time>2026-04-04T11:38:15Z</time></trkpt><trkpt lat="46.2061541115138" lon="13.481360314023803"><ele>243.0</ele><time>2026-04-04T11:38:16Z</time></trkpt><trkpt lat="46.20627670554236" lon="13.481646359548183"><ele>243.0</ele><time>2026-04-04T11:38:17Z</time></trkpt><trkpt lat="46.20640145683915" lon="13.481945353743543"><ele>243.0</ele><time>2026-04-04T11:38:18Z</time></trkpt><trkpt lat="46.206531978234096" lon="13.482251539770568"><ele>228.5</ele><time>2026-04-04T11:38:19Z</time></trkpt><trkpt lat="46.206678022320276" lon="13.482543926547896"><ele>214.0</ele><time>2026-04-04T11:38:20Z</time></trkpt><trkpt lat="46.206842254868576" lon="13.482807648816602"><ele>217.0</ele><time>2026-04-04T11:38:21Z</time></trkpt><trkpt lat="46.20698638759039" lon="13.48305168166798"><ele>220.0</ele><time>2026-04-04T11:38:22Z</time></trkpt><trkpt lat="46.20710881706332" lon="13.48331879472053"><ele>223.0</ele><time>2026-04-04T11:38:23Z</time></trkpt><trkpt lat="46.207220707643934" lon="13.483603646981646"><ele>230.5</ele><time>2026-04-04T11:38:24Z</time></trkpt><trkpt lat="46.207322889073446" lon="13.483906236226268"><ele>238.0</ele><time>2026-04-04T11:38:25Z</time></trkpt><trkpt lat="46.20742120791163" lon="13.484216529268332"><ele>222.5</ele><time>2026-04-04T11:38:26Z</time></trkpt><trkpt lat="46.20753543294947" lon="13.484520209146476"><ele>207.0</ele><time>2026-04-04T11:38:26.999Z</time></trkpt><trkpt lat="46.20766062849742" lon="13.484815940970988"><ele>207.0</ele><time>2026-04-04T11:38:27.999Z</time></trkpt><trkpt lat="46.20778458244527" lon="13.485106836061782"><ele>207.0</ele><time>2026-04-04T11:38:28.999Z</time></trkpt><trkpt lat="46.207903487851645" lon="13.48539129657464"><ele>207.66666666666669</ele><time>2026-04-04T11:38:29.999Z</time></trkpt><trkpt lat="46.20801538245198" lon="13.485660796278632"><ele>208.33333333333334</ele><time>2026-04-04T11:38:30.999Z</time></trkpt><trkpt lat="46.208118813765005" lon="13.485916574770815"><ele>209.0</ele><time>2026-04-04T11:38:31.999Z</time></trkpt><trkpt lat="46.208203704113636" lon="13.486166238924913"><ele>208.33333333333334</ele><time>2026-04-04T11:38:32.999Z</time></trkpt><trkpt lat="46.20823586091449" lon="13.486414182164827"><ele>207.66666666666669</ele><time>2026-04-04T11:38:33.999Z</time></trkpt><trkpt lat="46.20824755717874" lon="13.486667781046748"><ele>207.0</ele><time>2026-04-04T11:38:34.999Z</time></trkpt><trkpt lat="46.2082331044291" lon="13.486948402695269"><ele>208.33333333333331</ele><time>2026-04-04T11:38:35.999Z</time></trkpt><trkpt lat="46.2082251749732" lon="13.487228124905696"><ele>209.66666666666666</ele><time>2026-04-04T11:38:36.999Z</time></trkpt><trkpt lat="46.208213380300386" lon="13.487471095260384"><ele>211.0</ele><time>2026-04-04T11:38:37.999Z</time></trkpt><trkpt lat="46.20823906432352" lon="13.487695956224234"><ele>211.0</ele><time>2026-04-04T11:38:38.999Z</time></trkpt><trkpt lat="46.20830619901693" lon="13.487915755135203"><ele>211.0</ele><time>2026-04-04T11:38:39.999Z</time></trkpt><trkpt lat="46.20841515726887" lon="13.488117981897338"><ele>211.0</ele><time>2026-04-04T11:38:40.999Z</time></trkpt><trkpt lat="46.20855839552914" lon="13.488308932399326"><ele>212.66666666666666</ele><time>2026-04-04T11:38:41.999Z</time></trkpt><trkpt lat="46.20870781296449" lon="13.488518581323486"><ele>214.33333333333331</ele><time>2026-04-04T11:38:42.999Z</time></trkpt><trkpt lat="46.20885828866914" lon="13.488741577798338"><ele>216.0</ele><time>2026-04-04T11:38:43.999Z</time></trkpt><trkpt lat="46.20900796529008" lon="13.48897172053154"><ele>216.0</ele><time>2026-04-04T11:38:44.999Z</time></trkpt><trkpt lat="46.209157425350874" lon="13.489202440382746"><ele>216.0</ele><time>2026-04-04T11:38:45.999Z</time></trkpt><trkpt lat="46.20931396937906" lon="13.48942944709603"><ele>216.0</ele><time>2026-04-04T11:38:46.999Z</time></trkpt><trkpt lat="46.20948382904473" lon="13.48964636723515"><ele>214.5</ele><time>2026-04-04T11:38:47.999Z</time></trkpt><trkpt lat="46.20966842584828" lon="13.489838494637171"><ele>213.0</ele><time>2026-04-04T11:38:48.999Z</time></trkpt><trkpt lat="46.20986786624679" lon="13.490000381342943"><ele>213.0</ele><time>2026-04-04T11:38:49.999Z</time></trkpt><trkpt lat="46.21006927201042" lon="13.490161571222632"><ele>213.0</ele><time>2026-04-04T11:38:50.999Z</time></trkpt><trkpt lat="46.21025833825318" lon="13.490339270948706"><ele>213.66666666666669</ele><time>2026-04-04T11:38:51.999Z</time></trkpt><trkpt lat="46.21043308474288" lon="13.490530569874878"><ele>214.33333333333334</ele><time>2026-04-04T11:38:52.999Z</time></trkpt><trkpt lat="46.210598367564046" lon="13.490735988495487"><ele>215.0</ele><time>2026-04-04T11:38:53.999Z</time></trkpt><trkpt lat="46.2107514323272" lon="13.490953972501822"><ele>215.0</ele><time>2026-04-04T11:38:54.999Z</time></trkpt><trkpt lat="46.21090372541492" lon="13.491172890358149"><ele>215.0</ele><time>2026-04-04T11:38:55.999Z</time></trkpt><trkpt lat="46.21105405837557" lon="13.49139045654147"><ele>215.0</ele><time>2026-04-04T11:38:56.999Z</time></trkpt><trkpt lat="46.211207384472665" lon="13.491602113676723"><ele>217.0</ele><time>2026-04-04T11:38:57.999Z</time></trkpt><trkpt lat="46.21135988391428" lon="13.491811695998134"><ele>219.0</ele><time>2026-04-04T11:38:58.999Z</time></trkpt><trkpt lat="46.21151144550686" lon="13.492018211480236"><ele>221.0</ele><time>2026-04-04T11:38:59.999Z</time></trkpt><trkpt lat="46.211664783222226" lon="13.492220535737601"><ele>231.0</ele><time>2026-04-04T11:39:00.999Z</time></trkpt><trkpt lat="46.21181549626261" lon="13.49242197635049"><ele>241.0</ele><time>2026-04-04T11:39:01.999Z</time></trkpt><trkpt lat="46.21196699444303" lon="13.492621805766017"><ele>251.0</ele><time>2026-04-04T11:39:02.999Z</time></trkpt><trkpt lat="46.21212470651019" lon="13.492815706788694"><ele>244.0</ele><time>2026-04-04T11:39:03.999Z</time></trkpt><trkpt lat="46.21228087911907" lon="13.493013820558343"><ele>237.0</ele><time>2026-04-04T11:39:04.999Z</time></trkpt><trkpt lat="46.21243021749594" lon="13.493225959247189"><ele>230.0</ele><time>2026-04-04T11:39:05.999Z</time></trkpt><trkpt lat="46.212574109519664" lon="13.493450973207075"><ele>230.0</ele><time>2026-04-04T11:39:06.999Z</time></trkpt><trkpt lat="46.21271751819092" lon="13.493675657939367"><ele>230.0</ele><time>2026-04-04T11:39:07.999Z</time></trkpt><trkpt lat="46.21286322163762" lon="13.49388961690108"><ele>230.0</ele><time>2026-04-04T11:39:08.999Z</time></trkpt><trkpt lat="46.213014609467486" lon="13.49408933368955"><ele>226.0</ele><time>2026-04-04T11:39:09.999Z</time></trkpt><trkpt lat="46.21317519677297" lon="13.494265960208603"><ele>222.0</ele><time>2026-04-04T11:39:10.999Z</time></trkpt><trkpt lat="46.21334024676108" lon="13.494427736576142"><ele>218.0</ele><time>2026-04-04T11:39:11.999Z</time></trkpt><trkpt lat="46.21350586135116" lon="13.494581674288773"><ele>228.33333333333334</ele><time>2026-04-04T11:39:12.999Z</time></trkpt><trkpt lat="46.21366434163213" lon="13.494746151720836"><ele>238.66666666666669</ele><time>2026-04-04T11:39:13.999Z</time></trkpt><trkpt lat="46.213819403971584" lon="13.494913643851245"><ele>249.0</ele><time>2026-04-04T11:39:14.999Z</time></trkpt><trkpt lat="46.213987557531226" lon="13.495056835662936"><ele>241.66666666666669</ele><time>2026-04-04T11:39:15.999Z</time></trkpt><trkpt lat="46.21416702430631" lon="13.495176514441214"><ele>234.33333333333334</ele><time>2026-04-04T11:39:16.999Z</time></trkpt><trkpt lat="46.21434499508286" lon="13.495280179441842"><ele>227.0</ele><time>2026-04-04T11:39:17.999Z</time></trkpt><trkpt lat="46.21451019656199" lon="13.495358364574296"><ele>230.33333333333334</ele><time>2026-04-04T11:39:18.999Z</time></trkpt><trkpt lat="46.214679172732566" lon="13.49542373393982"><ele>233.66666666666669</ele><time>2026-04-04T11:39:19.999Z</time></trkpt><trkpt lat="46.21485613889066" lon="13.495473658401885"><ele>237.0</ele><time>2026-04-04T11:39:20.999Z</time></trkpt><trkpt lat="46.215038044144535" lon="13.495505705083595"><ele>237.0</ele><time>2026-04-04T11:39:21.999Z</time></trkpt><trkpt lat="46.215220025049504" lon="13.495530857967465"><ele>237.0</ele><time>2026-04-04T11:39:22.999Z</time></trkpt><trkpt lat="46.215401997878644" lon="13.495550233186474"><ele>237.0</ele><time>2026-04-04T11:39:23.999Z</time></trkpt><trkpt lat="46.215580460758204" lon="13.495563926106854"><ele>238.66666666666669</ele><time>2026-04-04T11:39:24.999Z</time></trkpt><trkpt lat="46.21575198810554" lon="13.495582985925628"><ele>240.33333333333334</ele><time>2026-04-04T11:39:25.999Z</time></trkpt><trkpt lat="46.215916524085486" lon="13.495601329589297"><ele>242.0</ele><time>2026-04-04T11:39:26.999Z</time></trkpt><trkpt lat="46.2160799738376" lon="13.495615906094754"><ele>242.0</ele><time>2026-04-04T11:39:27.999Z</time></trkpt><trkpt lat="46.21624280834686" lon="13.495627255241798"><ele>242.0</ele><time>2026-04-04T11:39:28.999Z</time></trkpt><trkpt lat="46.21640549476661" lon="13.495647106884944"><ele>242.0</ele><time>2026-04-04T11:39:29.999Z</time></trkpt><trkpt lat="46.216560083034416" lon="13.495694749293147"><ele>240.0</ele><time>2026-04-04T11:39:30.999Z</time></trkpt><trkpt lat="46.21669877912616" lon="13.495781330411635"><ele>238.0</ele><time>2026-04-04T11:39:31.999Z</time></trkpt><trkpt lat="46.21680943766648" lon="13.495899408423401"><ele>236.0</ele><time>2026-04-04T11:39:32.999Z</time></trkpt><trkpt lat="46.21689297430175" lon="13.496036789833767"><ele>234.0</ele><time>2026-04-04T11:39:33.999Z</time></trkpt><trkpt lat="46.216969538572705" lon="13.496188134902068"><ele>237.5</ele><time>2026-04-04T11:39:34.999Z</time></trkpt><trkpt lat="46.21703766745776" lon="13.496348977434783"><ele>241.0</ele><time>2026-04-04T11:39:35.999Z</time></trkpt><trkpt lat="46.217103550430615" lon="13.496504730000174"><ele>244.5</ele><time>2026-04-04T11:39:36.999Z</time></trkpt><trkpt lat="46.21716455437726" lon="13.49664161390928"><ele>248.0</ele><time>2026-04-04T11:39:37.999Z</time></trkpt><trkpt lat="46.2172230019537" lon="13.496775291222582"><ele>248.00000000000003</ele><time>2026-04-04T11:39:38.999Z</time></trkpt><trkpt lat="46.21727809864276" lon="13.496892707950032"><ele>248.0</ele><time>2026-04-04T11:39:39.999Z</time></trkpt><trkpt lat="46.217329509718176" lon="13.49699252428663"><ele>248.0</ele><time>2026-04-04T11:39:40.999Z</time></trkpt><trkpt lat="46.21737590163669" lon="13.497084468998017"><ele>248.0</ele><time>2026-04-04T11:39:41.999Z</time></trkpt><trkpt lat="46.21742304466119" lon="13.497188164278114"><ele>248.00000000000003</ele><time>2026-04-04T11:39:42.999Z</time></trkpt><trkpt lat="46.21747304265289" lon="13.497305162744718"><ele>248.0</ele><time>2026-04-04T11:39:43.999Z</time></trkpt><trkpt lat="46.21753531009384" lon="13.497426819556958"><ele>248.25</ele><time>2026-04-04T11:39:44.999Z</time></trkpt><trkpt lat="46.21760003730579" lon="13.497572254658412"><ele>248.5</ele><time>2026-04-04T11:39:45.999Z</time></trkpt><trkpt lat="46.21766851165815" lon="13.497737556128985"><ele>248.75</ele><time>2026-04-04T11:39:46.999Z</time></trkpt><trkpt lat="46.217750354231505" lon="13.497910324018044"><ele>249.0</ele><time>2026-04-04T11:39:47.999Z</time></trkpt><trkpt lat="46.217835597822514" lon="13.49809127355031"><ele>249.0</ele><time>2026-04-04T11:39:48.999Z</time></trkpt><trkpt lat="46.21791729957426" lon="13.498273134279886"><ele>249.0</ele><time>2026-04-04T11:39:50Z</time></trkpt><trkpt lat="46.217997602694794" lon="13.49845542497855"><ele>249.0</ele><time>2026-04-04T11:39:51Z</time></trkpt><trkpt lat="46.21807940581335" lon="13.498640768392686"><ele>247.5</ele><time>2026-04-04T11:39:52Z</time></trkpt><trkpt lat="46.21816112799565" lon="13.498821286371616"><ele>246.0</ele><time>2026-04-04T11:39:53Z</time></trkpt><trkpt lat="46.21823894923577" lon="13.499002283571702"><ele>244.5</ele><time>2026-04-04T11:39:54Z</time></trkpt><trkpt lat="46.21830739624717" lon="13.499189452307018"><ele>243.0</ele><time>2026-04-04T11:39:55Z</time></trkpt><trkpt lat="46.218368411661295" lon="13.499377866633214"><ele>243.0</ele><time>2026-04-04T11:39:56Z</time></trkpt><trkpt lat="46.21842777183108" lon="13.49955749551648"><ele>243.0</ele><time>2026-04-04T11:39:57Z</time></trkpt><trkpt lat="46.21849078337472" lon="13.499728288542272"><ele>243.0</ele><time>2026-04-04T11:39:58Z</time></trkpt><trkpt lat="46.21855679165069" lon="13.499897435822454"><ele>243.0</ele><time>2026-04-04T11:39:59Z</time></trkpt><trkpt lat="46.218629229334354" lon="13.500059437255718"><ele>244.25</ele><time>2026-04-04T11:40:00Z</time></trkpt><trkpt lat="46.21871406954849" lon="13.500209952510048"><ele>245.5</ele><time>2026-04-04T11:40:01Z</time></trkpt><trkpt lat="46.21881188262241" lon="13.500348902102619"><ele>246.75</ele><time>2026-04-04T11:40:02Z</time></trkpt><trkpt lat="46.2189079634068" lon="13.500492379025001"><ele>248.0</ele><time>2026-04-04T11:40:03Z</time></trkpt><trkpt lat="46.21900601391699" lon="13.500640251260908"><ele>248.0</ele><time>2026-04-04T11:40:04Z</time></trkpt><trkpt lat="46.21910600497799" lon="13.500785610507835"><ele>248.0</ele><time>2026-04-04T11:40:05Z</time></trkpt><trkpt lat="46.21920081297478" lon="13.500927164181974"><ele>248.0</ele><time>2026-04-04T11:40:06Z</time></trkpt><trkpt lat="46.21930002845173" lon="13.50105354296343"><ele>248.0</ele><time>2026-04-04T11:40:07Z</time></trkpt><trkpt lat="46.219413214785504" lon="13.501158986761"><ele>248.0</ele><time>2026-04-04T11:40:08Z</time></trkpt><trkpt lat="46.219539782712886" lon="13.501245741591067"><ele>248.0</ele><time>2026-04-04T11:40:09Z</time></trkpt><trkpt lat="46.21967722946513" lon="13.501321178303934"><ele>248.0</ele><time>2026-04-04T11:40:10Z</time></trkpt><trkpt lat="46.21982219927704" lon="13.5013832254864"><ele>248.0</ele><time>2026-04-04T11:40:11Z</time></trkpt><trkpt lat="46.21997868741152" lon="13.501408597532864"><ele>256.0</ele><time>2026-04-04T11:40:12Z</time></trkpt><trkpt lat="46.22014016738682" lon="13.501400326532861"><ele>264.0</ele><time>2026-04-04T11:40:13Z</time></trkpt><trkpt lat="46.220298133967894" lon="13.501386892807268"><ele>272.0</ele><time>2026-04-04T11:40:14Z</time></trkpt><trkpt lat="46.22044627668214" lon="13.501392078991902"><ele>272.0</ele><time>2026-04-04T11:40:15Z</time></trkpt><trkpt lat="46.22059335890366" lon="13.501431170873364"><ele>272.0</ele><time>2026-04-04T11:40:16Z</time></trkpt><trkpt lat="46.220743186785484" lon="13.501494331419252"><ele>272.0</ele><time>2026-04-04T11:40:17Z</time></trkpt><trkpt lat="46.220892279849494" lon="13.501591128415358"><ele>269.0</ele><time>2026-04-04T11:40:18Z</time></trkpt><trkpt lat="46.22104463293857" lon="13.501689716271493"><ele>266.0</ele><time>2026-04-04T11:40:19Z</time></trkpt><trkpt lat="46.221194177272466" lon="13.501771127515488"><ele>263.0</ele><time>2026-04-04T11:40:20Z</time></trkpt><trkpt lat="46.221335662066956" lon="13.501844146863574"><ele>263.0</ele><time>2026-04-04T11:40:21Z</time></trkpt><trkpt lat="46.22146212115195" lon="13.50192486363082"><ele>263.0</ele><time>2026-04-04T11:40:22Z</time></trkpt><trkpt lat="46.22156697385146" lon="13.502028582858895"><ele>263.0</ele><time>2026-04-04T11:40:23Z</time></trkpt><trkpt lat="46.221653935791544" lon="13.502145734287161"><ele>263.0</ele><time>2026-04-04T11:40:24Z</time></trkpt><trkpt lat="46.2217498191032" lon="13.502224846863285"><ele>258.5</ele><time>2026-04-04T11:40:25Z</time></trkpt><trkpt lat="46.221858850885944" lon="13.5022603665113"><ele>254.0</ele><time>2026-04-04T11:40:26Z</time></trkpt><trkpt lat="46.22198090117603" lon="13.502229318166394"><ele>249.5</ele><time>2026-04-04T11:40:27Z</time></trkpt><trkpt lat="46.22210530244848" lon="13.502127731038437"><ele>245.0</ele><time>2026-04-04T11:40:28Z</time></trkpt><trkpt lat="46.22223127575204" lon="13.501999017976077"><ele>246.33333333333334</ele><time>2026-04-04T11:40:29Z</time></trkpt><trkpt lat="46.222375477258204" lon="13.501882087096238"><ele>247.66666666666669</ele><time>2026-04-04T11:40:30Z</time></trkpt><trkpt lat="46.22253545358413" lon="13.501779101533486"><ele>249.0</ele><time>2026-04-04T11:40:31Z</time></trkpt><trkpt lat="46.22269534285297" lon="13.50166185175394"><ele>249.0</ele><time>2026-04-04T11:40:31.999Z</time></trkpt><trkpt lat="46.22286141378632" lon="13.501562548953157"><ele>249.0</ele><time>2026-04-04T11:40:32.999Z</time></trkpt><trkpt lat="46.22304184195937" lon="13.501487298231963"><ele>249.0</ele><time>2026-04-04T11:40:33.999Z</time></trkpt><trkpt lat="46.223226425722494" lon="13.501409048591727"><ele>245.66666666666669</ele><time>2026-04-04T11:40:34.999Z</time></trkpt><trkpt lat="46.22340979618972" lon="13.501295690855855"><ele>242.33333333333334</ele><time>2026-04-04T11:40:35.999Z</time></trkpt><trkpt lat="46.223597633745676" lon="13.501184246299651"><ele>239.0</ele><time>2026-04-04T11:40:36.999Z</time></trkpt><trkpt lat="46.22378692446275" lon="13.501074209510668"><ele>239.0</ele><time>2026-04-04T11:40:37.999Z</time></trkpt><trkpt lat="46.22397108867695" lon="13.5009633760195"><ele>239.0</ele><time>2026-04-04T11:40:38.999Z</time></trkpt><trkpt lat="46.224151105771384" lon="13.500859891806037"><ele>239.0</ele><time>2026-04-04T11:40:39.999Z</time></trkpt><trkpt lat="46.22432082787997" lon="13.500759912606549"><ele>242.66666666666669</ele><time>2026-04-04T11:40:40.999Z</time></trkpt><trkpt lat="46.22448745947173" lon="13.500663536406678"><ele>246.33333333333331</ele><time>2026-04-04T11:40:41.999Z</time></trkpt><trkpt lat="46.22464967295137" lon="13.500572681691942"><ele>250.0</ele><time>2026-04-04T11:40:42.999Z</time></trkpt><trkpt lat="46.22480086575672" lon="13.500486212178647"><ele>246.66666666666666</ele><time>2026-04-04T11:40:43.999Z</time></trkpt><trkpt lat="46.22495265656388" lon="13.500407384581088"><ele>243.33333333333331</ele><time>2026-04-04T11:40:44.999Z</time></trkpt><trkpt lat="46.225113125003226" lon="13.500352607614406"><ele>240.0</ele><time>2026-04-04T11:40:45.999Z</time></trkpt><trkpt lat="46.22528300182597" lon="13.50033236607727"><ele>240.0</ele><time>2026-04-04T11:40:46.999Z</time></trkpt><trkpt lat="46.22546321656551" lon="13.500346932436646"><ele>240.0</ele><time>2026-04-04T11:40:47.999Z</time></trkpt><trkpt lat="46.225657909165704" lon="13.50038033703785"><ele>240.0</ele><time>2026-04-04T11:40:48.999Z</time></trkpt><trkpt lat="46.22585955380848" lon="13.50040919379165"><ele>239.0</ele><time>2026-04-04T11:40:49.999Z</time></trkpt><trkpt lat="46.22606889290331" lon="13.500432652841756"><ele>238.0</ele><time>2026-04-04T11:40:50.999Z</time></trkpt><trkpt lat="46.22628068117892" lon="13.50043241867708"><ele>237.0</ele><time>2026-04-04T11:40:51.999Z</time></trkpt><trkpt lat="46.22648863843589" lon="13.500416141712066"><ele>237.0</ele><time>2026-04-04T11:40:52.999Z</time></trkpt><trkpt lat="46.22669249249584" lon="13.500402154965409"><ele>237.0</ele><time>2026-04-04T11:40:53.999Z</time></trkpt><trkpt lat="46.226892544419755" lon="13.500398289717149"><ele>237.0</ele><time>2026-04-04T11:40:54.999Z</time></trkpt><trkpt lat="46.227088908285296" lon="13.500414281493779"><ele>240.66666666666669</ele><time>2026-04-04T11:40:55.999Z</time></trkpt><trkpt lat="46.227276372373936" lon="13.500456060730775"><ele>244.33333333333334</ele><time>2026-04-04T11:40:56.999Z</time></trkpt><trkpt lat="46.2274624262512" lon="13.500524754408321"><ele>248.0</ele><time>2026-04-04T11:40:57.999Z</time></trkpt><trkpt lat="46.22764599271071" lon="13.500625021981868"><ele>248.0</ele><time>2026-04-04T11:40:58.999Z</time></trkpt><trkpt lat="46.22782790167435" lon="13.50075058325515"><ele>248.0</ele><time>2026-04-04T11:40:59.999Z</time></trkpt><trkpt lat="46.22801688432414" lon="13.50086579215039"><ele>248.0</ele><time>2026-04-04T11:41:00.999Z</time></trkpt><trkpt lat="46.228213667801434" lon="13.500960668075109"><ele>245.33333333333334</ele><time>2026-04-04T11:41:01.999Z</time></trkpt><trkpt lat="46.228417924120315" lon="13.501034229410815"><ele>242.66666666666669</ele><time>2026-04-04T11:41:02.999Z</time></trkpt><trkpt lat="46.22862817335372" lon="13.501084953374807"><ele>240.0</ele><time>2026-04-04T11:41:03.999Z</time></trkpt><trkpt lat="46.22884055821412" lon="13.501119546530427"><ele>237.33333333333331</ele><time>2026-04-04T11:41:04.999Z</time></trkpt><trkpt lat="46.229056990495444" lon="13.501137787509224"><ele>234.66666666666666</ele><time>2026-04-04T11:41:05.999Z</time></trkpt><trkpt lat="46.22927623704036" lon="13.501139583780104"><ele>232.0</ele><time>2026-04-04T11:41:06.999Z</time></trkpt><trkpt lat="46.22949578134498" lon="13.50112230312473"><ele>232.0</ele><time>2026-04-04T11:41:07.999Z</time></trkpt><trkpt lat="46.22971281471517" lon="13.501085808464827"><ele>232.0</ele><time>2026-04-04T11:41:08.999Z</time></trkpt><trkpt lat="46.22992128821708" lon="13.501030991854499"><ele>232.0</ele><time>2026-04-04T11:41:09.999Z</time></trkpt><trkpt lat="46.230118473457196" lon="13.500984841944542"><ele>231.66666666666666</ele><time>2026-04-04T11:41:10.999Z</time></trkpt><trkpt lat="46.230320305475296" lon="13.500983684024241"><ele>231.33333333333331</ele><time>2026-04-04T11:41:11.999Z</time></trkpt><trkpt lat="46.23052560733119" lon="13.501014625977698"><ele>231.0</ele><time>2026-04-04T11:41:12.999Z</time></trkpt><trkpt lat="46.2307212194679" lon="13.501085245292012"><ele>232.0</ele><time>2026-04-04T11:41:13.999Z</time></trkpt><trkpt lat="46.23091762688179" lon="13.501196921839403"><ele>233.0</ele><time>2026-04-04T11:41:14.999Z</time></trkpt><trkpt lat="46.231115833665626" lon="13.501314143871591"><ele>234.0</ele><time>2026-04-04T11:41:15.999Z</time></trkpt><trkpt lat="46.231319832526445" lon="13.50142037492782"><ele>236.0</ele><time>2026-04-04T11:41:16.999Z</time></trkpt><trkpt lat="46.23153646394138" lon="13.501504217954917"><ele>238.0</ele><time>2026-04-04T11:41:17.999Z</time></trkpt><trkpt lat="46.2317557372907" lon="13.50157259692271"><ele>240.0</ele><time>2026-04-04T11:41:18.999Z</time></trkpt><trkpt lat="46.231979188927205" lon="13.501620647685796"><ele>240.0</ele><time>2026-04-04T11:41:19.999Z</time></trkpt><trkpt lat="46.232208279589976" lon="13.501642464981831"><ele>240.0</ele><time>2026-04-04T11:41:20.999Z</time></trkpt><trkpt lat="46.23244311632746" lon="13.501637995284938"><ele>240.66666666666669</ele><time>2026-04-04T11:41:21.999Z</time></trkpt><trkpt lat="46.232672399727015" lon="13.501622424846472"><ele>241.33333333333334</ele><time>2026-04-04T11:41:22.999Z</time></trkpt><trkpt lat="46.23288043218644" lon="13.501608446809742"><ele>242.0</ele><time>2026-04-04T11:41:23.999Z</time></trkpt><trkpt lat="46.233079986522625" lon="13.501616918091466"><ele>242.0</ele><time>2026-04-04T11:41:24.999Z</time></trkpt><trkpt lat="46.23327677980328" lon="13.501657289777352"><ele>242.0</ele><time>2026-04-04T11:41:25.999Z</time></trkpt><trkpt lat="46.233476312848865" lon="13.501747073443878"><ele>242.0</ele><time>2026-04-04T11:41:26.999Z</time></trkpt><trkpt lat="46.23368174959127" lon="13.50184661180958"><ele>242.0</ele><time>2026-04-04T11:41:27.999Z</time></trkpt><trkpt lat="46.233895915410436" lon="13.501940933074476"><ele>242.0</ele><time>2026-04-04T11:41:28.999Z</time></trkpt><trkpt lat="46.23410952654017" lon="13.502048735501768"><ele>251.66666666666669</ele><time>2026-04-04T11:41:29.999Z</time></trkpt><trkpt lat="46.23431927600066" lon="13.502148775417432"><ele>261.3333333333333</ele><time>2026-04-04T11:41:30.999Z</time></trkpt><trkpt lat="46.23451427389479" lon="13.502227897190087"><ele>271.0</ele><time>2026-04-04T11:41:31.999Z</time></trkpt><trkpt lat="46.234708869753774" lon="13.502288704726393"><ele>269.3333333333333</ele><time>2026-04-04T11:41:32.999Z</time></trkpt><trkpt lat="46.23490616101059" lon="13.502322839500165"><ele>267.6666666666667</ele><time>2026-04-04T11:41:33.999Z</time></trkpt><trkpt lat="46.235102057401726" lon="13.502319536517117"><ele>266.0</ele><time>2026-04-04T11:41:34.999Z</time></trkpt><trkpt lat="46.235295741821155" lon="13.502283981146629"><ele>266.0</ele><time>2026-04-04T11:41:35.999Z</time></trkpt><trkpt lat="46.23548343300723" lon="13.502220446920601"><ele>266.0</ele><time>2026-04-04T11:41:36.999Z</time></trkpt><trkpt lat="46.23566531277082" lon="13.50213903564541"><ele>266.0</ele><time>2026-04-04T11:41:37.999Z</time></trkpt><trkpt lat="46.23584462159675" lon="13.502075426508208"><ele>266.6666666666667</ele><time>2026-04-04T11:41:38.999Z</time></trkpt><trkpt lat="46.23602471128095" lon="13.502048527464645"><ele>267.3333333333333</ele><time>2026-04-04T11:41:39.999Z</time></trkpt><trkpt lat="46.23620707283049" lon="13.502056808538077"><ele>268.0</ele><time>2026-04-04T11:41:40.999Z</time></trkpt><trkpt lat="46.23639364830145" lon="13.502092223191841"><ele>268.0</ele><time>2026-04-04T11:41:41.999Z</time></trkpt><trkpt lat="46.23658256281459" lon="13.502126798096832"><ele>268.0</ele><time>2026-04-04T11:41:42.999Z</time></trkpt><trkpt lat="46.23677309332686" lon="13.502163279910643"><ele>268.0</ele><time>2026-04-04T11:41:43.999Z</time></trkpt><trkpt lat="46.23696427401342" lon="13.502194836057667"><ele>268.0</ele><time>2026-04-04T11:41:44.999Z</time></trkpt><trkpt lat="46.23715236135878" lon="13.502229434274176"><ele>268.0</ele><time>2026-04-04T11:41:45.999Z</time></trkpt><trkpt lat="46.237342499731305" lon="13.502265696740805"><ele>268.0</ele><time>2026-04-04T11:41:46.999Z</time></trkpt><trkpt lat="46.237537684986236" lon="13.502305098257468"><ele>262.0</ele><time>2026-04-04T11:41:47.999Z</time></trkpt><trkpt lat="46.23773509143052" lon="13.50234454509966"><ele>256.0</ele><time>2026-04-04T11:41:48.999Z</time></trkpt><trkpt lat="46.237938495670505" lon="13.502385006715743"><ele>250.0</ele><time>2026-04-04T11:41:49.999Z</time></trkpt><trkpt lat="46.238147723567835" lon="13.502422075805901"><ele>247.66666666666666</ele><time>2026-04-04T11:41:50.999Z</time></trkpt><trkpt lat="46.23835984069361" lon="13.502459892438432"><ele>245.33333333333331</ele><time>2026-04-04T11:41:51.999Z</time></trkpt><trkpt lat="46.2385688599012" lon="13.502501783813047"><ele>243.0</ele><time>2026-04-04T11:41:52.999Z</time></trkpt><trkpt lat="46.238768864222465" lon="13.502549260876474"><ele>243.0</ele><time>2026-04-04T11:41:53.999Z</time></trkpt><trkpt lat="46.23896207279743" lon="13.502613716614372"><ele>243.0</ele><time>2026-04-04T11:41:54.999Z</time></trkpt><trkpt lat="46.23915340264803" lon="13.502703436483436"><ele>243.0</ele><time>2026-04-04T11:41:56Z</time></trkpt><trkpt lat="46.239345083544286" lon="13.502800222782836"><ele>242.66666666666669</ele><time>2026-04-04T11:41:57Z</time></trkpt><trkpt lat="46.23953327211142" lon="13.502895328835272"><ele>242.33333333333334</ele><time>2026-04-04T11:41:58Z</time></trkpt><trkpt lat="46.239719623474606" lon="13.50299722583213"><ele>242.0</ele><time>2026-04-04T11:41:59Z</time></trkpt><trkpt lat="46.23990000375857" lon="13.503112489609792"><ele>246.66666666666669</ele><time>2026-04-04T11:42:00Z</time></trkpt><trkpt lat="46.24007502292252" lon="13.50325762236113"><ele>251.33333333333331</ele><time>2026-04-04T11:42:01Z</time></trkpt><trkpt lat="46.24024002794944" lon="13.50343579955423"><ele>256.0</ele><time>2026-04-04T11:42:02Z</time></trkpt><trkpt lat="46.24039786705638" lon="13.503631611522888"><ele>252.66666666666666</ele><time>2026-04-04T11:42:03Z</time></trkpt><trkpt lat="46.240552333809575" lon="13.503831545022042"><ele>249.33333333333331</ele><time>2026-04-04T11:42:04Z</time></trkpt><trkpt lat="46.24069945977412" lon="13.504035517973959"><ele>246.0</ele><time>2026-04-04T11:42:05Z</time></trkpt><trkpt lat="46.24083247785847" lon="13.504251945436527"><ele>246.0</ele><time>2026-04-04T11:42:06Z</time></trkpt><trkpt lat="46.24095098386449" lon="13.50447601929673"><ele>246.0</ele><time>2026-04-04T11:42:07Z</time></trkpt><trkpt lat="46.24105323030796" lon="13.50471980168953"><ele>246.0</ele><time>2026-04-04T11:42:08Z</time></trkpt><trkpt lat="46.2411441943391" lon="13.504975515661851"><ele>255.33333333333331</ele><time>2026-04-04T11:42:09Z</time></trkpt><trkpt lat="46.24121866620338" lon="13.505240019666434"><ele>264.66666666666663</ele><time>2026-04-04T11:42:10Z</time></trkpt><trkpt lat="46.24129415807102" lon="13.505498216401396"><ele>274.0</ele><time>2026-04-04T11:42:11Z</time></trkpt><trkpt lat="46.24136011271893" lon="13.50576105132066"><ele>265.66666666666663</ele><time>2026-04-04T11:42:12Z</time></trkpt><trkpt lat="46.24141965421171" lon="13.506020051884263"><ele>257.3333333333333</ele><time>2026-04-04T11:42:13Z</time></trkpt><trkpt lat="46.24147621225263" lon="13.506279176327128"><ele>249.0</ele><time>2026-04-04T11:42:14Z</time></trkpt><trkpt lat="46.24153974054842" lon="13.50653010382419"><ele>249.0</ele><time>2026-04-04T11:42:15Z</time></trkpt><trkpt lat="46.24161420617516" lon="13.506776689258134"><ele>249.0</ele><time>2026-04-04T11:42:16Z</time></trkpt><trkpt lat="46.24170532084755" lon="13.507014009313115"><ele>249.0</ele><time>2026-04-04T11:42:17Z</time></trkpt><trkpt lat="46.24180380673109" lon="13.507244382884164"><ele>253.0</ele><time>2026-04-04T11:42:18Z</time></trkpt><trkpt lat="46.241901141079225" lon="13.507466248558465"><ele>257.0</ele><time>2026-04-04T11:42:19Z</time></trkpt><trkpt lat="46.24199968066543" lon="13.507690652510625"><ele>261.0</ele><time>2026-04-04T11:42:20Z</time></trkpt><trkpt lat="46.24209590989714" lon="13.50791166500182"><ele>255.33333333333331</ele><time>2026-04-04T11:42:21Z</time></trkpt><trkpt lat="46.242189816121865" lon="13.508126826262728"><ele>249.66666666666666</ele><time>2026-04-04T11:42:22Z</time></trkpt><trkpt lat="46.24228952878459" lon="13.508334401913809"><ele>244.0</ele><time>2026-04-04T11:42:23Z</time></trkpt><trkpt lat="46.24239500669847" lon="13.508532264771107"><ele>244.0</ele><time>2026-04-04T11:42:24Z</time></trkpt><trkpt lat="46.24249851042408" lon="13.50872340552353"><ele>244.0</ele><time>2026-04-04T11:42:25Z</time></trkpt><trkpt lat="46.24259714103397" lon="13.508899577408837"><ele>244.0</ele><time>2026-04-04T11:42:26Z</time></trkpt><trkpt lat="46.2426894911579" lon="13.50908306740386"><ele>250.33333333333331</ele><time>2026-04-04T11:42:27Z</time></trkpt><trkpt lat="46.24276687799626" lon="13.509289121898433"><ele>256.6666666666667</ele><time>2026-04-04T11:42:28Z</time></trkpt><trkpt lat="46.24283149891082" lon="13.509514991577044"><ele>263.0</ele><time>2026-04-04T11:42:29Z</time></trkpt><trkpt lat="46.24288718194269" lon="13.50975150051025"><ele>279.6666666666667</ele><time>2026-04-04T11:42:30Z</time></trkpt><trkpt lat="46.242944399330746" lon="13.509988883040236"><ele>296.3333333333333</ele><time>2026-04-04T11:42:31Z</time></trkpt><trkpt lat="46.2429984121993" lon="13.5102137374201"><ele>313.0</ele><time>2026-04-04T11:42:32Z</time></trkpt><trkpt lat="46.243051878429654" lon="13.510433421254735"><ele>328.3333333333333</ele><time>2026-04-04T11:42:33Z</time></trkpt><trkpt lat="46.24310766739728" lon="13.510646376606074"><ele>343.6666666666667</ele><time>2026-04-04T11:42:34Z</time></trkpt><trkpt lat="46.24317160142628" lon="13.51085350702519"><ele>359.0</ele><time>2026-04-04T11:42:34.999Z</time></trkpt><trkpt lat="46.243247944093575" lon="13.511044659598932"><ele>326.6666666666667</ele><time>2026-04-04T11:42:35.999Z</time></trkpt><trkpt lat="46.24333934530042" lon="13.51121963689219"><ele>294.3333333333333</ele><time>2026-04-04T11:42:36.999Z</time></trkpt><trkpt lat="46.24344760983149" lon="13.511379359281932"><ele>262.0</ele><time>2026-04-04T11:42:37.999Z</time></trkpt><trkpt lat="46.24356065038015" lon="13.511547133323637"><ele>262.0</ele><time>2026-04-04T11:42:38.999Z</time></trkpt><trkpt lat="46.24366686383363" lon="13.51173807281004"><ele>262.0</ele><time>2026-04-04T11:42:39.999Z</time></trkpt><trkpt lat="46.243761834595034" lon="13.511953731430575"><ele>262.0</ele><time>2026-04-04T11:42:40.999Z</time></trkpt><trkpt lat="46.24384667073544" lon="13.512183112453574"><ele>261.66666666666663</ele><time>2026-04-04T11:42:41.999Z</time></trkpt><trkpt lat="46.24392448732578" lon="13.512418763573152"><ele>261.3333333333333</ele><time>2026-04-04T11:42:42.999Z</time></trkpt><trkpt lat="46.24399136735742" lon="13.51265982407791"><ele>261.0</ele><time>2026-04-04T11:42:43.999Z</time></trkpt><trkpt lat="46.24404524308889" lon="13.512908856927513"><ele>260.0</ele><time>2026-04-04T11:42:44.999Z</time></trkpt><trkpt lat="46.24408068590453" lon="13.513164408279314"><ele>259.0</ele><time>2026-04-04T11:42:45.999Z</time></trkpt><trkpt lat="46.24410450689982" lon="13.51341964013671"><ele>258.0</ele><time>2026-04-04T11:42:46.999Z</time></trkpt><trkpt lat="46.2441291511499" lon="13.513666719942313"><ele>257.3333333333333</ele><time>2026-04-04T11:42:47.999Z</time></trkpt><trkpt lat="46.24416941718788" lon="13.513902666048706"><ele>256.66666666666663</ele><time>2026-04-04T11:42:48.999Z</time></trkpt><trkpt lat="46.244225418918646" lon="13.514109568809815"><ele>256.0</ele><time>2026-04-04T11:42:49.999Z</time></trkpt><trkpt lat="46.24428273965396" lon="13.514299890617812"><ele>256.0</ele><time>2026-04-04T11:42:50.999Z</time></trkpt><trkpt lat="46.24432366539227" lon="13.514504090219337"><ele>256.0</ele><time>2026-04-04T11:42:51.999Z</time></trkpt><trkpt lat="46.24434800405179" lon="13.514719520189301"><ele>256.0</ele><time>2026-04-04T11:42:52.999Z</time></trkpt><trkpt lat="46.2443769019841" lon="13.514939632597073"><ele>255.0</ele><time>2026-04-04T11:42:53.999Z</time></trkpt><trkpt lat="46.24441683525438" lon="13.515163054010975"><ele>254.0</ele><time>2026-04-04T11:42:54.999Z</time></trkpt><trkpt lat="46.24446089507942" lon="13.515393647745041"><ele>253.0</ele><time>2026-04-04T11:42:55.999Z</time></trkpt><trkpt lat="46.244496752580616" lon="13.515629258213991"><ele>252.33333333333331</ele><time>2026-04-04T11:42:56.999Z</time></trkpt><trkpt lat="46.24452384145349" lon="13.515866494917534"><ele>251.66666666666669</ele><time>2026-04-04T11:42:57.999Z</time></trkpt><trkpt lat="46.24455115390132" lon="13.51610277322689"><ele>251.0</ele><time>2026-04-04T11:42:58.999Z</time></trkpt><trkpt lat="46.24459048517028" lon="13.51634100383119"><ele>250.33333333333334</ele><time>2026-04-04T11:42:59.999Z</time></trkpt><trkpt lat="46.2446393456949" lon="13.516584814080682"><ele>249.66666666666669</ele><time>2026-04-04T11:43:00.999Z</time></trkpt><trkpt lat="46.2446982360814" lon="13.516831308846607"><ele>249.0</ele><time>2026-04-04T11:43:01.999Z</time></trkpt><trkpt lat="46.24476974936111" lon="13.517080972430632"><ele>247.66666666666669</ele><time>2026-04-04T11:43:02.999Z</time></trkpt><trkpt lat="46.244858069604184" lon="13.517331461079038"><ele>246.33333333333334</ele><time>2026-04-04T11:43:03.999Z</time></trkpt><trkpt lat="46.244956969124765" lon="13.517583573402467"><ele>245.0</ele><time>2026-04-04T11:43:04.999Z</time></trkpt><trkpt lat="46.24505547310505" lon="13.517847542620508"><ele>245.33333333333334</ele><time>2026-04-04T11:43:05.999Z</time></trkpt><trkpt lat="46.245148591185874" lon="13.518121200513198"><ele>245.66666666666669</ele><time>2026-04-04T11:43:06.999Z</time></trkpt><trkpt lat="46.24523697316393" lon="13.518402871564186"><ele>246.0</ele><time>2026-04-04T11:43:07.999Z</time></trkpt><trkpt lat="46.24531646522878" lon="13.51869729498866"><ele>247.33333333333331</ele><time>2026-04-04T11:43:08.999Z</time></trkpt><trkpt lat="46.24537922973531" lon="13.51900136422638"><ele>248.66666666666666</ele><time>2026-04-04T11:43:09.999Z</time></trkpt><trkpt lat="46.24542862292198" lon="13.519305630688171"><ele>250.0</ele><time>2026-04-04T11:43:10.999Z</time></trkpt><trkpt lat="46.245470846537984" lon="13.519607009608913"><ele>251.33333333333331</ele><time>2026-04-04T11:43:11.999Z</time></trkpt><trkpt lat="46.24551050015807" lon="13.51989917611613"><ele>252.66666666666669</ele><time>2026-04-04T11:43:12.999Z</time></trkpt><trkpt lat="46.245546920916496" lon="13.520188742837748"><ele>254.0</ele><time>2026-04-04T11:43:13.999Z</time></trkpt><trkpt lat="46.245583455799846" lon="13.520473307045679"><ele>254.0</ele><time>2026-04-04T11:43:14.999Z</time></trkpt><trkpt lat="46.2456197052404" lon="13.52075000431146"><ele>254.0</ele><time>2026-04-04T11:43:15.999Z</time></trkpt><trkpt lat="46.24564660648619" lon="13.521012076268812"><ele>254.0</ele><time>2026-04-04T11:43:16.999Z</time></trkpt><trkpt lat="46.24565481295411" lon="13.52127271302798"><ele>254.0</ele><time>2026-04-04T11:43:17.999Z</time></trkpt><trkpt lat="46.24563766099268" lon="13.521537903763704"><ele>254.0</ele><time>2026-04-04T11:43:18.999Z</time></trkpt><trkpt lat="46.24560455909016" lon="13.52180337726359"><ele>254.0</ele><time>2026-04-04T11:43:19.999Z</time></trkpt><trkpt lat="46.245565177007386" lon="13.522065733599673"><ele>253.66666666666669</ele><time>2026-04-04T11:43:20.999Z</time></trkpt><trkpt lat="46.24553301196206" lon="13.52233092585121"><ele>253.33333333333331</ele><time>2026-04-04T11:43:21.999Z</time></trkpt><trkpt lat="46.24551180222199" lon="13.522599148864089"><ele>253.0</ele><time>2026-04-04T11:43:22.999Z</time></trkpt><trkpt lat="46.245503074660434" lon="13.522868982070387"><ele>252.0</ele><time>2026-04-04T11:43:23.999Z</time></trkpt><trkpt lat="46.24550492410071" lon="13.523139511660366"><ele>251.0</ele><time>2026-04-04T11:43:24.999Z</time></trkpt><trkpt lat="46.24551618487844" lon="13.52340970601493"><ele>250.0</ele><time>2026-04-04T11:43:25.999Z</time></trkpt><trkpt lat="46.245541554706584" lon="13.52367844156142"><ele>250.33333333333331</ele><time>2026-04-04T11:43:26.999Z</time></trkpt><trkpt lat="46.24557556938099" lon="13.523947104564764"><ele>250.66666666666669</ele><time>2026-04-04T11:43:27.999Z</time></trkpt><trkpt lat="46.24561419523859" lon="13.52421825762039"><ele>251.0</ele><time>2026-04-04T11:43:28.999Z</time></trkpt><trkpt lat="46.245650246835844" lon="13.524490800435027"><ele>250.33333333333334</ele><time>2026-04-04T11:43:29.999Z</time></trkpt><trkpt lat="46.24567543258831" lon="13.524763513897103"><ele>249.66666666666669</ele><time>2026-04-04T11:43:30.999Z</time></trkpt><trkpt lat="46.245686210480024" lon="13.525034922108041"><ele>249.0</ele><time>2026-04-04T11:43:31.999Z</time></trkpt><trkpt lat="46.24568556738567" lon="13.525301782735587"><ele>249.0</ele><time>2026-04-04T11:43:32.999Z</time></trkpt><trkpt lat="46.245675792230955" lon="13.525566108934514"><ele>249.0</ele><time>2026-04-04T11:43:33.999Z</time></trkpt><trkpt lat="46.245650796610576" lon="13.525825805885635"><ele>249.0</ele><time>2026-04-04T11:43:34.999Z</time></trkpt><trkpt lat="46.2456308472597" lon="13.526078232493473"><ele>249.66666666666669</ele><time>2026-04-04T11:43:35.999Z</time></trkpt><trkpt lat="46.2456313106331" lon="13.526324791773277"><ele>250.33333333333334</ele><time>2026-04-04T11:43:36.999Z</time></trkpt><trkpt lat="46.245646172202264" lon="13.526566851832612"><ele>251.0</ele><time>2026-04-04T11:43:37.999Z</time></trkpt><trkpt lat="46.245673810356394" lon="13.526797200130725"><ele>251.0</ele><time>2026-04-04T11:43:38.999Z</time></trkpt><trkpt lat="46.245695771688965" lon="13.527004120530519"><ele>251.0</ele><time>2026-04-04T11:43:39.999Z</time></trkpt><trkpt lat="46.245712722024976" lon="13.527195291762947"><ele>251.0</ele><time>2026-04-04T11:43:40.999Z</time></trkpt><trkpt lat="46.245729585108386" lon="13.527347362520223"><ele>251.0</ele><time>2026-04-04T11:43:41.999Z</time></trkpt><trkpt lat="46.245748117725846" lon="13.527476221653263"><ele>250.83333333333334</ele><time>2026-04-04T11:43:42.999Z</time></trkpt><trkpt lat="46.24576659743091" lon="13.527583187864145"><ele>250.66666666666669</ele><time>2026-04-04T11:43:43.999Z</time></trkpt><trkpt lat="46.245777413017244" lon="13.527682814269093"><ele>250.5</ele><time>2026-04-04T11:43:44.999Z</time></trkpt><trkpt lat="46.245773843528035" lon="13.527775766162845"><ele>250.33333333333331</ele><time>2026-04-04T11:43:45.999Z</time></trkpt><trkpt lat="46.24576217582154" lon="13.52786791398142"><ele>250.16666666666666</ele><time>2026-04-04T11:43:46.999Z</time></trkpt><trkpt lat="46.24578565441747" lon="13.528025161493535"><ele>250.0</ele><time>2026-04-04T11:43:48.999Z</time></trkpt><trkpt lat="46.245890635908104" lon="13.528095812827633"><ele>249.99999999999997</ele><time>2026-04-04T11:43:50.999Z</time></trkpt><trkpt lat="46.24598215309087" lon="13.527999224114984"><ele>250.0</ele><time>2026-04-04T11:43:52.999Z</time></trkpt><trkpt lat="46.246005104096135" lon="13.527890169979381"><ele>250.0</ele><time>2026-04-04T11:43:53.999Z</time></trkpt><trkpt lat="46.246050940425135" lon="13.527798017441379"><ele>250.0</ele><time>2026-04-04T11:43:54.999Z</time></trkpt><trkpt lat="46.24610977612552" lon="13.527752713093145"><ele>249.99999999999997</ele><time>2026-04-04T11:43:55.999Z</time></trkpt><trkpt lat="46.24621284106207" lon="13.527701302366214"><ele>250.0</ele><time>2026-04-04T11:43:57.999Z</time></trkpt><trkpt lat="46.24625528236879" lon="13.52759703530846"><ele>250.6</ele><time>2026-04-04T11:43:59.999Z</time></trkpt><trkpt lat="46.24618872901941" lon="13.527597290522145"><ele>251.2</ele><time>2026-04-04T11:46:07Z</time></trkpt><trkpt lat="46.24611195344665" lon="13.52767530504478"><ele>251.8</ele><time>2026-04-04T11:46:09Z</time></trkpt><trkpt lat="46.246026061027834" lon="13.52772057318074"><ele>252.4</ele><time>2026-04-04T11:46:11Z</time></trkpt><trkpt lat="46.24592553551199" lon="13.527731602409393"><ele>253.0</ele><time>2026-04-04T11:46:14Z</time></trkpt><trkpt lat="46.245807948841744" lon="13.527761763282816"><ele>252.4</ele><time>2026-04-04T11:46:16Z</time></trkpt><trkpt lat="46.24574381638146" lon="13.527914193818086"><ele>251.8</ele><time>2026-04-04T11:46:18Z</time></trkpt><trkpt lat="46.245767058145546" lon="13.528031864417017"><ele>251.2</ele><time>2026-04-04T11:46:19Z</time></trkpt><trkpt lat="46.24580153182707" lon="13.528167610255066"><ele>250.6</ele><time>2026-04-04T11:46:20Z</time></trkpt><trkpt lat="46.24581660555158" lon="13.528340022945796"><ele>250.0</ele><time>2026-04-04T11:46:21Z</time></trkpt><trkpt lat="46.24582790926656" lon="13.528537100409102"><ele>249.66666666666666</ele><time>2026-04-04T11:46:22Z</time></trkpt><trkpt lat="46.245845642543934" lon="13.528755790275586"><ele>249.33333333333331</ele><time>2026-04-04T11:46:23Z</time></trkpt><trkpt lat="46.24585849846098" lon="13.528992568824206"><ele>249.0</ele><time>2026-04-04T11:46:24Z</time></trkpt><trkpt lat="46.245867248801346" lon="13.529244206311487"><ele>249.0</ele><time>2026-04-04T11:46:25Z</time></trkpt><trkpt lat="46.24587123952128" lon="13.529513022521412"><ele>249.0</ele><time>2026-04-04T11:46:26Z</time></trkpt><trkpt lat="46.24587984614801" lon="13.529791278042506"><ele>249.0</ele><time>2026-04-04T11:46:27Z</time></trkpt><trkpt lat="46.2458893385543" lon="13.530079944370746"><ele>248.66666666666669</ele><time>2026-04-04T11:46:28Z</time></trkpt><trkpt lat="46.24589488010228" lon="13.530371805917161"><ele>248.33333333333334</ele><time>2026-04-04T11:46:29Z</time></trkpt><trkpt lat="46.24590198640303" lon="13.530666902269962"><ele>248.0</ele><time>2026-04-04T11:46:30Z</time></trkpt><trkpt lat="46.24591286417639" lon="13.530961574530528"><ele>247.66666666666669</ele><time>2026-04-04T11:46:31Z</time></trkpt><trkpt lat="46.24592058499533" lon="13.531253976728076"><ele>247.33333333333331</ele><time>2026-04-04T11:46:32Z</time></trkpt><trkpt lat="46.24592482228786" lon="13.531544309125186"><ele>247.0</ele><time>2026-04-04T11:46:33Z</time></trkpt><trkpt lat="46.24593183816617" lon="13.531835264792324"><ele>246.33333333333331</ele><time>2026-04-04T11:46:34Z</time></trkpt><trkpt lat="46.24594271397137" lon="13.532121710041718"><ele>245.66666666666669</ele><time>2026-04-04T11:46:35Z</time></trkpt><trkpt lat="46.245955467655946" lon="13.532405512764909"><ele>245.0</ele><time>2026-04-04T11:46:35.999Z</time></trkpt><trkpt lat="46.24596335290333" lon="13.53268695674104"><ele>245.0</ele><time>2026-04-04T11:46:36.999Z</time></trkpt><trkpt lat="46.2459702910413" lon="13.532964444101053"><ele>245.0</ele><time>2026-04-04T11:46:37.999Z</time></trkpt><trkpt lat="46.24597894668394" lon="13.533239286696542"><ele>245.0</ele><time>2026-04-04T11:46:38.999Z</time></trkpt><trkpt lat="46.24598577094201" lon="13.533507220522656"><ele>244.66666666666669</ele><time>2026-04-04T11:46:39.999Z</time></trkpt><trkpt lat="46.24599270932849" lon="13.533770260295574"><ele>244.33333333333331</ele><time>2026-04-04T11:46:40.999Z</time></trkpt><trkpt lat="46.246002089270014" lon="13.53402730014712"><ele>244.0</ele><time>2026-04-04T11:46:41.999Z</time></trkpt><trkpt lat="46.246016621294814" lon="13.534280609167686"><ele>244.0</ele><time>2026-04-04T11:46:42.999Z</time></trkpt><trkpt lat="46.246034944207516" lon="13.53453236768458"><ele>244.0</ele><time>2026-04-04T11:46:43.999Z</time></trkpt><trkpt lat="46.24603573311583" lon="13.53478550520334"><ele>244.0</ele><time>2026-04-04T11:46:44.999Z</time></trkpt><trkpt lat="46.24605912989344" lon="13.535033889591858"><ele>243.33333333333331</ele><time>2026-04-04T11:46:45.999Z</time></trkpt><trkpt lat="46.24610159979171" lon="13.535276731770638"><ele>242.66666666666669</ele><time>2026-04-04T11:46:46.999Z</time></trkpt><trkpt lat="46.24613120847852" lon="13.535526469221413"><ele>242.0</ele><time>2026-04-04T11:46:47.999Z</time></trkpt><trkpt lat="46.24616340458777" lon="13.535781445291537"><ele>241.0</ele><time>2026-04-04T11:46:48.999Z</time></trkpt><trkpt lat="46.24619886580581" lon="13.536042488985597"><ele>240.0</ele><time>2026-04-04T11:46:49.999Z</time></trkpt><trkpt lat="46.24624041457206" lon="13.53630949835065"><ele>239.0</ele><time>2026-04-04T11:46:50.999Z</time></trkpt><trkpt lat="46.24628491796538" lon="13.536583632387305"><ele>239.0</ele><time>2026-04-04T11:46:51.999Z</time></trkpt><trkpt lat="46.24632884536247" lon="13.536861778675501"><ele>239.0</ele><time>2026-04-04T11:46:52.999Z</time></trkpt><trkpt lat="46.24637273689171" lon="13.537144630462072"><ele>239.0</ele><time>2026-04-04T11:46:53.999Z</time></trkpt><trkpt lat="46.246419163610405" lon="13.53742720058769"><ele>239.33333333333334</ele><time>2026-04-04T11:46:54.999Z</time></trkpt><trkpt lat="46.246463475527" lon="13.537707475709123"><ele>239.66666666666669</ele><time>2026-04-04T11:46:55.999Z</time></trkpt><trkpt lat="46.24650836067733" lon="13.537977586118057"><ele>240.0</ele><time>2026-04-04T11:46:56.999Z</time></trkpt><trkpt lat="46.246556409400256" lon="13.538240055074418"><ele>240.0</ele><time>2026-04-04T11:46:57.999Z</time></trkpt><trkpt lat="46.24658413450921" lon="13.538499580527315"><ele>240.0</ele><time>2026-04-04T11:46:58.999Z</time></trkpt><trkpt lat="46.24662216629655" lon="13.538749399631525"><ele>240.0</ele><time>2026-04-04T11:46:59.999Z</time></trkpt><trkpt lat="46.24665468595469" lon="13.53899539827816"><ele>240.33333333333331</ele><time>2026-04-04T11:47:00.999Z</time></trkpt><trkpt lat="46.24668081847279" lon="13.539243141910788"><ele>240.66666666666666</ele><time>2026-04-04T11:47:01.999Z</time></trkpt><trkpt lat="46.24671456355006" lon="13.539494925172887"><ele>241.0</ele><time>2026-04-04T11:47:02.999Z</time></trkpt><trkpt lat="46.2467087348016" lon="13.539757526925388"><ele>241.66666666666666</ele><time>2026-04-04T11:47:03.999Z</time></trkpt><trkpt lat="46.246716973536735" lon="13.540025947841821"><ele>242.33333333333331</ele><time>2026-04-04T11:47:04.999Z</time></trkpt><trkpt lat="46.24673092241873" lon="13.540303503034423"><ele>243.0</ele><time>2026-04-04T11:47:05.999Z</time></trkpt><trkpt lat="46.24675903669293" lon="13.540582534420183"><ele>243.0</ele><time>2026-04-04T11:47:06.999Z</time></trkpt><trkpt lat="46.24680858516782" lon="13.540862696073452"><ele>243.0</ele><time>2026-04-04T11:47:07.999Z</time></trkpt><trkpt lat="46.246869540314734" lon="13.541141195903817"><ele>243.0</ele><time>2026-04-04T11:47:08.999Z</time></trkpt><trkpt lat="46.246932926826176" lon="13.541420172468296"><ele>242.33333333333331</ele><time>2026-04-04T11:47:09.999Z</time></trkpt><trkpt lat="46.24699919137811" lon="13.541703462430144"><ele>241.66666666666666</ele><time>2026-04-04T11:47:10.999Z</time></trkpt><trkpt lat="46.2470673279307" lon="13.541988987545881"><ele>241.0</ele><time>2026-04-04T11:47:11.999Z</time></trkpt><trkpt lat="46.24714713093404" lon="13.542271795843904"><ele>242.0</ele><time>2026-04-04T11:47:12.999Z</time></trkpt><trkpt lat="46.247215376408164" lon="13.542564410326996"><ele>243.0</ele><time>2026-04-04T11:47:13.999Z</time></trkpt><trkpt lat="46.2472863035881" lon="13.542858845481303"><ele>244.0</ele><time>2026-04-04T11:47:14.999Z</time></trkpt><trkpt lat="46.24735531695208" lon="13.54315867360846"><ele>244.0</ele><time>2026-04-04T11:47:15.999Z</time></trkpt><trkpt lat="46.24742029885291" lon="13.543459518164184"><ele>244.0</ele><time>2026-04-04T11:47:16.999Z</time></trkpt><trkpt lat="46.247478817575086" lon="13.543757252659622"><ele>244.0</ele><time>2026-04-04T11:47:17.999Z</time></trkpt><trkpt lat="46.24752662102803" lon="13.544055812497382"><ele>242.66666666666666</ele><time>2026-04-04T11:47:18.999Z</time></trkpt><trkpt lat="46.24755731610475" lon="13.544355532364573"><ele>241.33333333333331</ele><time>2026-04-04T11:47:19.999Z</time></trkpt><trkpt lat="46.24757535872381" lon="13.544651898984675"><ele>240.0</ele><time>2026-04-04T11:47:20.999Z</time></trkpt><trkpt lat="46.24758573061805" lon="13.544946957279734"><ele>239.66666666666669</ele><time>2026-04-04T11:47:21.999Z</time></trkpt><trkpt lat="46.24758304745783" lon="13.545240119921058"><ele>239.33333333333334</ele><time>2026-04-04T11:47:22.999Z</time></trkpt><trkpt lat="46.247551975815234" lon="13.545529094341058"><ele>239.0</ele><time>2026-04-04T11:47:23.999Z</time></trkpt><trkpt lat="46.24752196168103" lon="13.54581352246431"><ele>238.66666666666669</ele><time>2026-04-04T11:47:24.999Z</time></trkpt><trkpt lat="46.247483953519136" lon="13.546096285908336"><ele>238.33333333333331</ele><time>2026-04-04T11:47:25.999Z</time></trkpt><trkpt lat="46.24743800970505" lon="13.546373767986328"><ele>238.0</ele><time>2026-04-04T11:47:26.999Z</time></trkpt><trkpt lat="46.24738948776095" lon="13.546646877002829"><ele>237.33333333333331</ele><time>2026-04-04T11:47:27.999Z</time></trkpt><trkpt lat="46.247339065017826" lon="13.546916867873328"><ele>236.66666666666669</ele><time>2026-04-04T11:47:28.999Z</time></trkpt><trkpt lat="46.24729595706238" lon="13.547190801003408"><ele>236.0</ele><time>2026-04-04T11:47:29.999Z</time></trkpt><trkpt lat="46.247263121559186" lon="13.547465895487875"><ele>236.0</ele><time>2026-04-04T11:47:30.999Z</time></trkpt><trkpt lat="46.24723617208016" lon="13.547741198946705"><ele>236.0</ele><time>2026-04-04T11:47:31.999Z</time></trkpt><trkpt lat="46.24721098010399" lon="13.548012158021322"><ele>236.0</ele><time>2026-04-04T11:47:32.999Z</time></trkpt><trkpt lat="46.24718713940086" lon="13.548272879575714"><ele>236.0</ele><time>2026-04-04T11:47:33.999Z</time></trkpt><trkpt lat="46.24716496119988" lon="13.548517468657995"><ele>236.0</ele><time>2026-04-04T11:47:34.999Z</time></trkpt><trkpt lat="46.247160173560324" lon="13.548755025656302"><ele>236.0</ele><time>2026-04-04T11:47:35.999Z</time></trkpt><trkpt lat="46.2471435291025" lon="13.548982155225753"><ele>236.0</ele><time>2026-04-04T11:47:36.999Z</time></trkpt><trkpt lat="46.24714006535104" lon="13.54919815012757"><ele>236.0</ele><time>2026-04-04T11:47:37.999Z</time></trkpt><trkpt lat="46.24716431509611" lon="13.549404663562058"><ele>236.0</ele><time>2026-04-04T11:47:38.999Z</time></trkpt><trkpt lat="46.247220427467674" lon="13.549625225024453"><ele>236.66666666666669</ele><time>2026-04-04T11:47:39.999Z</time></trkpt><trkpt lat="46.2472841582856" lon="13.549863270874129"><ele>237.33333333333331</ele><time>2026-04-04T11:47:40.999Z</time></trkpt><trkpt lat="46.24737109920907" lon="13.550103089571959"><ele>238.0</ele><time>2026-04-04T11:47:41.999Z</time></trkpt><trkpt lat="46.24747139001523" lon="13.550339028705583"><ele>239.33333333333331</ele><time>2026-04-04T11:47:42.999Z</time></trkpt><trkpt lat="46.24754004351518" lon="13.550604132434437"><ele>240.66666666666669</ele><time>2026-04-04T11:47:43.999Z</time></trkpt><trkpt lat="46.24759940967538" lon="13.55087336148155"><ele>242.0</ele><time>2026-04-04T11:47:44.999Z</time></trkpt><trkpt lat="46.24764263450485" lon="13.551150790409142"><ele>241.33333333333334</ele><time>2026-04-04T11:47:45.999Z</time></trkpt><trkpt lat="46.2476820241402" lon="13.551441217365179"><ele>240.66666666666669</ele><time>2026-04-04T11:47:46.999Z</time></trkpt><trkpt lat="46.24772504117453" lon="13.55173655657034"><ele>240.0</ele><time>2026-04-04T11:47:47.999Z</time></trkpt><trkpt lat="46.247767972097286" lon="13.552035890793572"><ele>239.33333333333331</ele><time>2026-04-04T11:47:48.999Z</time></trkpt><trkpt lat="46.24780751025094" lon="13.552338015662718"><ele>238.66666666666666</ele><time>2026-04-04T11:47:49.999Z</time></trkpt><trkpt lat="46.24785007279992" lon="13.55264422264052"><ele>238.0</ele><time>2026-04-04T11:47:50.999Z</time></trkpt><trkpt lat="46.247897217852895" lon="13.55295113419929"><ele>238.0</ele><time>2026-04-04T11:47:51.999Z</time></trkpt><trkpt lat="46.24795529037979" lon="13.553251691451564"><ele>238.0</ele><time>2026-04-04T11:47:52.999Z</time></trkpt><trkpt lat="46.24803005513824" lon="13.55354479536319"><ele>238.0</ele><time>2026-04-04T11:47:53.999Z</time></trkpt><trkpt lat="46.248115179965744" lon="13.55382852143564"><ele>240.0</ele><time>2026-04-04T11:47:54.999Z</time></trkpt><trkpt lat="46.24820496874452" lon="13.55410731435835"><ele>242.0</ele><time>2026-04-04T11:47:55.999Z</time></trkpt><trkpt lat="46.24829339866986" lon="13.55438143716083"><ele>244.0</ele><time>2026-04-04T11:47:56.999Z</time></trkpt><trkpt lat="46.24837601214351" lon="13.554650838274396"><ele>244.0</ele><time>2026-04-04T11:47:57.999Z</time></trkpt><trkpt lat="46.248450924771845" lon="13.554918441805393"><ele>244.0</ele><time>2026-04-04T11:47:58.999Z</time></trkpt><trkpt lat="46.24851539013203" lon="13.555174463976577"><ele>244.0</ele><time>2026-04-04T11:47:59.999Z</time></trkpt><trkpt lat="46.248565670326634" lon="13.555428540104955"><ele>243.66666666666666</ele><time>2026-04-04T11:48:00.999Z</time></trkpt><trkpt lat="46.24858595475417" lon="13.555687230212033"><ele>243.33333333333331</ele><time>2026-04-04T11:48:01.999Z</time></trkpt><trkpt lat="46.2486168454827" lon="13.555947117739217"><ele>243.0</ele><time>2026-04-04T11:48:02.999Z</time></trkpt><trkpt lat="46.248659980368686" lon="13.556214159935438"><ele>241.33333333333331</ele><time>2026-04-04T11:48:03.999Z</time></trkpt><trkpt lat="46.248690531396875" lon="13.556490957169832"><ele>239.66666666666666</ele><time>2026-04-04T11:48:04.999Z</time></trkpt><trkpt lat="46.24872420349506" lon="13.556772959152852"><ele>238.0</ele><time>2026-04-04T11:48:05.999Z</time></trkpt><trkpt lat="46.24874159323105" lon="13.5570662219017"><ele>238.0</ele><time>2026-04-04T11:48:06.999Z</time></trkpt><trkpt lat="46.248773946126185" lon="13.557361235634401"><ele>238.0</ele><time>2026-04-04T11:48:07.999Z</time></trkpt><trkpt lat="46.24882482592411" lon="13.557657166863825"><ele>238.0</ele><time>2026-04-04T11:48:08.999Z</time></trkpt><trkpt lat="46.24885661865076" lon="13.557961089101294"><ele>238.0</ele><time>2026-04-04T11:48:09.999Z</time></trkpt><trkpt lat="46.24889064799244" lon="13.55826960021979"><ele>238.0</ele><time>2026-04-04T11:48:10.999Z</time></trkpt><trkpt lat="46.248925337679125" lon="13.558579694281741"><ele>238.0</ele><time>2026-04-04T11:48:11.999Z</time></trkpt><trkpt lat="46.24896331044604" lon="13.558888575014757"><ele>241.66666666666666</ele><time>2026-04-04T11:48:13Z</time></trkpt><trkpt lat="46.24900191850518" lon="13.559197630672411"><ele>245.33333333333331</ele><time>2026-04-04T11:48:14Z</time></trkpt><trkpt lat="46.249020865417144" lon="13.559505611489808"><ele>249.0</ele><time>2026-04-04T11:48:15Z</time></trkpt><trkpt lat="46.24905593552397" lon="13.559808285517043"><ele>249.0</ele><time>2026-04-04T11:48:16Z</time></trkpt><trkpt lat="46.24910446850818" lon="13.560101222321363"><ele>249.0</ele><time>2026-04-04T11:48:17Z</time></trkpt><trkpt lat="46.24913396157599" lon="13.560396636902937"><ele>249.0</ele><time>2026-04-04T11:48:18Z</time></trkpt><trkpt lat="46.24916808020346" lon="13.560687997287497"><ele>247.66666666666669</ele><time>2026-04-04T11:48:19Z</time></trkpt><trkpt lat="46.24920196754896" lon="13.560977428219994"><ele>246.33333333333334</ele><time>2026-04-04T11:48:20Z</time></trkpt><trkpt lat="46.24923254262984" lon="13.561266590088195"><ele>245.0</ele><time>2026-04-04T11:48:21Z</time></trkpt><trkpt lat="46.24926279888569" lon="13.561551557257058"><ele>244.66666666666669</ele><time>2026-04-04T11:48:22Z</time></trkpt><trkpt lat="46.2492924042894" lon="13.561822669006236"><ele>244.33333333333331</ele><time>2026-04-04T11:48:23Z</time></trkpt><trkpt lat="46.249321531660094" lon="13.562072131115983"><ele>244.0</ele><time>2026-04-04T11:48:24Z</time></trkpt><trkpt lat="46.24934908238499" lon="13.56230809007504"><ele>243.0</ele><time>2026-04-04T11:48:25Z</time></trkpt><trkpt lat="46.249376073811845" lon="13.56253764675289"><ele>242.0</ele><time>2026-04-04T11:48:26Z</time></trkpt><trkpt lat="46.24940339531612" lon="13.562778438489003"><ele>241.0</ele><time>2026-04-04T11:48:27Z</time></trkpt><trkpt lat="46.24943522993907" lon="13.56302767255919"><ele>240.66666666666666</ele><time>2026-04-04T11:48:28Z</time></trkpt><trkpt lat="46.249472903365664" lon="13.563282211816563"><ele>240.33333333333331</ele><time>2026-04-04T11:48:29Z</time></trkpt><trkpt lat="46.24951599887093" lon="13.563537296072894"><ele>240.0</ele><time>2026-04-04T11:48:30Z</time></trkpt><trkpt lat="46.24956035686016" lon="13.563790961721905"><ele>238.33333333333331</ele><time>2026-04-04T11:48:31Z</time></trkpt><trkpt lat="46.24960578767449" lon="13.564043183162523"><ele>236.66666666666666</ele><time>2026-04-04T11:48:32Z</time></trkpt><trkpt lat="46.249651016555056" lon="13.564293095858414"><ele>235.0</ele><time>2026-04-04T11:48:33Z</time></trkpt><trkpt lat="46.24969485661068" lon="13.564540515371057"><ele>235.0</ele><time>2026-04-04T11:48:34Z</time></trkpt><trkpt lat="46.2497371893654" lon="13.564791006090656"><ele>235.0</ele><time>2026-04-04T11:48:35Z</time></trkpt><trkpt lat="46.24978124204058" lon="13.565039301403267"><ele>235.0</ele><time>2026-04-04T11:48:36Z</time></trkpt><trkpt lat="46.24982260656313" lon="13.56528662399976"><ele>239.0</ele><time>2026-04-04T11:48:37Z</time></trkpt><trkpt lat="46.24985589030523" lon="13.565535352298104"><ele>243.0</ele><time>2026-04-04T11:48:38Z</time></trkpt><trkpt lat="46.24987776620695" lon="13.56579118863208"><ele>247.0</ele><time>2026-04-04T11:48:39Z</time></trkpt><trkpt lat="46.24988893097604" lon="13.566054756242293"><ele>249.0</ele><time>2026-04-04T11:48:39.999Z</time></trkpt><trkpt lat="46.24988737323298" lon="13.56632480263033"><ele>251.0</ele><time>2026-04-04T11:48:40.999Z</time></trkpt><trkpt lat="46.24987042827337" lon="13.56660012252894"><ele>253.0</ele><time>2026-04-04T11:48:41.999Z</time></trkpt><trkpt lat="46.24984208407366" lon="13.566882376328644"><ele>254.33333333333331</ele><time>2026-04-04T11:48:42.999Z</time></trkpt><trkpt lat="46.249813990790905" lon="13.56718107529222"><ele>255.66666666666669</ele><time>2026-04-04T11:48:43.999Z</time></trkpt><trkpt lat="46.24978742572867" lon="13.56749581053098"><ele>257.0</ele><time>2026-04-04T11:48:44.999Z</time></trkpt><trkpt lat="46.24975765524318" lon="13.567828031105925"><ele>247.5</ele><time>2026-04-04T11:48:45.999Z</time></trkpt><trkpt lat="46.249724407212156" lon="13.568171877439896"><ele>238.0</ele><time>2026-04-04T11:48:46.999Z</time></trkpt><trkpt lat="46.24968926822123" lon="13.568513084218518"><ele>239.5</ele><time>2026-04-04T11:48:47.999Z</time></trkpt><trkpt lat="46.24965835398499" lon="13.56884583225659"><ele>241.0</ele><time>2026-04-04T11:48:48.999Z</time></trkpt><trkpt lat="46.24963098969603" lon="13.56916789171705"><ele>241.0</ele><time>2026-04-04T11:48:49.999Z</time></trkpt><trkpt lat="46.249599987020474" lon="13.569478979455436"><ele>241.0</ele><time>2026-04-04T11:48:50.999Z</time></trkpt><trkpt lat="46.249557315928605" lon="13.569780517187029"><ele>241.0</ele><time>2026-04-04T11:48:51.999Z</time></trkpt><trkpt lat="46.24950292891515" lon="13.570077823334811"><ele>242.0</ele><time>2026-04-04T11:48:52.999Z</time></trkpt><trkpt lat="46.24944580215276" lon="13.570368071913329"><ele>243.0</ele><time>2026-04-04T11:48:53.999Z</time></trkpt><trkpt lat="46.24939122439208" lon="13.570647352813452"><ele>244.0</ele><time>2026-04-04T11:48:54.999Z</time></trkpt><trkpt lat="46.249335329548316" lon="13.570920694757245"><ele>246.0</ele><time>2026-04-04T11:48:55.999Z</time></trkpt><trkpt lat="46.24927742074206" lon="13.571193129480907"><ele>248.0</ele><time>2026-04-04T11:48:56.999Z</time></trkpt><trkpt lat="46.24922258077121" lon="13.571463983684533"><ele>250.0</ele><time>2026-04-04T11:48:57.999Z</time></trkpt><trkpt lat="46.24917118157934" lon="13.571733518134229"><ele>250.0</ele><time>2026-04-04T11:48:58.999Z</time></trkpt><trkpt lat="46.24910115189249" lon="13.571994026451067"><ele>250.0</ele><time>2026-04-04T11:48:59.999Z</time></trkpt><trkpt lat="46.249047811186095" lon="13.572259844359131"><ele>250.0</ele><time>2026-04-04T11:49:00.999Z</time></trkpt><trkpt lat="46.24899521271523" lon="13.572523306620527"><ele>245.66666666666666</ele><time>2026-04-04T11:49:01.999Z</time></trkpt><trkpt lat="46.24894284084171" lon="13.572785633873336"><ele>241.33333333333331</ele><time>2026-04-04T11:49:02.999Z</time></trkpt><trkpt lat="46.24889023939951" lon="13.573044059996528"><ele>237.0</ele><time>2026-04-04T11:49:03.999Z</time></trkpt><trkpt lat="46.24885628525065" lon="13.573300597442078"><ele>236.66666666666669</ele><time>2026-04-04T11:49:04.999Z</time></trkpt><trkpt lat="46.24880582554209" lon="13.57354197506131"><ele>236.33333333333334</ele><time>2026-04-04T11:49:05.999Z</time></trkpt><trkpt lat="46.248755572079325" lon="13.573780474796102"><ele>236.0</ele><time>2026-04-04T11:49:06.999Z</time></trkpt><trkpt lat="46.248705339717986" lon="13.574016596473962"><ele>236.0</ele><time>2026-04-04T11:49:07.999Z</time></trkpt><trkpt lat="46.24865773398987" lon="13.574247747873331"><ele>236.0</ele><time>2026-04-04T11:49:08.999Z</time></trkpt><trkpt lat="46.24861063591063" lon="13.574475755004489"><ele>236.0</ele><time>2026-04-04T11:49:09.999Z</time></trkpt><trkpt lat="46.24856538483717" lon="13.57470007969006"><ele>235.66666666666669</ele><time>2026-04-04T11:49:10.999Z</time></trkpt><trkpt lat="46.24852034057765" lon="13.574919375123418"><ele>235.33333333333331</ele><time>2026-04-04T11:49:11.999Z</time></trkpt><trkpt lat="46.2484754435475" lon="13.575135751521703"><ele>235.0</ele><time>2026-04-04T11:49:12.999Z</time></trkpt><trkpt lat="46.24843073561517" lon="13.575348676870519"><ele>235.25</ele><time>2026-04-04T11:49:13.999Z</time></trkpt><trkpt lat="46.24838987227242" lon="13.575559396365767"><ele>235.5</ele><time>2026-04-04T11:49:14.999Z</time></trkpt><trkpt lat="46.248349920588396" lon="13.57576853272426"><ele>235.75</ele><time>2026-04-04T11:49:15.999Z</time></trkpt><trkpt lat="46.248294412676294" lon="13.57595407662771"><ele>236.0</ele><time>2026-04-04T11:49:16.999Z</time></trkpt><trkpt lat="46.24825623258966" lon="13.5761395403833"><ele>236.25</ele><time>2026-04-04T11:49:17.999Z</time></trkpt><trkpt lat="46.248218832175816" lon="13.576323850203249"><ele>236.5</ele><time>2026-04-04T11:49:18.999Z</time></trkpt><trkpt lat="46.24818225661188" lon="13.576505872186985"><ele>236.75</ele><time>2026-04-04T11:49:19.999Z</time></trkpt><trkpt lat="46.24814551715603" lon="13.576686384090015"><ele>237.0</ele><time>2026-04-04T11:49:20.999Z</time></trkpt><trkpt lat="46.2481092689904" lon="13.576864936798563"><ele>237.5</ele><time>2026-04-04T11:49:21.999Z</time></trkpt><trkpt lat="46.248073101480486" lon="13.577041000971661"><ele>238.0</ele><time>2026-04-04T11:49:22.999Z</time></trkpt><trkpt lat="46.248038021788254" lon="13.577211769624975"><ele>238.5</ele><time>2026-04-04T11:49:23.999Z</time></trkpt><trkpt lat="46.24800326424045" lon="13.577370904255742"><ele>239.0</ele><time>2026-04-04T11:49:24.999Z</time></trkpt><trkpt lat="46.24798334118844" lon="13.577528446711735"><ele>239.0</ele><time>2026-04-04T11:49:25.999Z</time></trkpt><trkpt lat="46.24794746468531" lon="13.577666222720515"><ele>238.99999999999997</ele><time>2026-04-04T11:49:26.999Z</time></trkpt><trkpt lat="46.2478925005382" lon="13.577787310037056"><ele>238.99999999999997</ele><time>2026-04-04T11:49:27.999Z</time></trkpt><trkpt lat="46.247846652072994" lon="13.577921381301868"><ele>239.0</ele><time>2026-04-04T11:49:28.999Z</time></trkpt><trkpt lat="46.24780412084893" lon="13.578054138971718"><ele>239.0</ele><time>2026-04-04T11:49:29.999Z</time></trkpt><trkpt lat="46.24776323488918" lon="13.578182164766384"><ele>239.16666666666669</ele><time>2026-04-04T11:49:30.999Z</time></trkpt><trkpt lat="46.24772629816712" lon="13.578307463225292"><ele>239.33333333333334</ele><time>2026-04-04T11:49:31.999Z</time></trkpt><trkpt lat="46.24769368130311" lon="13.578427102957189"><ele>239.5</ele><time>2026-04-04T11:49:32.999Z</time></trkpt><trkpt lat="46.2476798949184" lon="13.57855154909363"><ele>239.66666666666669</ele><time>2026-04-04T11:49:33.999Z</time></trkpt><trkpt lat="46.24765090611738" lon="13.578665584261216"><ele>239.83333333333334</ele><time>2026-04-04T11:49:34.999Z</time></trkpt><trkpt lat="46.24763039489619" lon="13.57877981268487"><ele>240.0</ele><time>2026-04-04T11:49:35.999Z</time></trkpt><trkpt lat="46.24761626582304" lon="13.578885635942155"><ele>239.5</ele><time>2026-04-04T11:49:36.999Z</time></trkpt><trkpt lat="46.24760682961445" lon="13.578979870658824"><ele>239.0</ele><time>2026-04-04T11:49:37.999Z</time></trkpt><trkpt lat="46.24758634224704" lon="13.579115062337243"><ele>238.5</ele><time>2026-04-04T11:49:39.999Z</time></trkpt><trkpt lat="46.24749092445914" lon="13.579211353955978"><ele>238.0</ele><time>2026-04-04T11:49:41.999Z</time></trkpt><trkpt lat="46.24742506468216" lon="13.579258615804875"><ele>237.5</ele><time>2026-04-04T11:49:42.999Z</time></trkpt><trkpt lat="46.24736181122377" lon="13.579307962474076"><ele>237.0</ele><time>2026-04-04T11:49:43.999Z</time></trkpt><trkpt lat="46.24730026989864" lon="13.57933112953581"><ele>237.1428571428571</ele><time>2026-04-04T11:49:44.999Z</time></trkpt><trkpt lat="46.24723064881897" lon="13.579328572162076"><ele>237.28571428571428</ele><time>2026-04-04T11:49:45.999Z</time></trkpt><trkpt lat="46.24715482923757" lon="13.579321339962629"><ele>237.42857142857142</ele><time>2026-04-04T11:49:46.999Z</time></trkpt><trkpt lat="46.24708272718803" lon="13.579311197690506"><ele>237.57142857142856</ele><time>2026-04-04T11:49:47.999Z</time></trkpt><trkpt lat="46.24701063552988" lon="13.579301556689641"><ele>237.71428571428572</ele><time>2026-04-04T11:49:48.999Z</time></trkpt><trkpt lat="46.24694044010332" lon="13.579291819082087"><ele>237.85714285714286</ele><time>2026-04-04T11:49:49.999Z</time></trkpt><trkpt lat="46.24687197444479" lon="13.579282367435608"><ele>238.0</ele><time>2026-04-04T11:49:50.999Z</time></trkpt><trkpt lat="46.24680078833968" lon="13.57926645415534"><ele>238.0</ele><time>2026-04-04T11:49:51.999Z</time></trkpt><trkpt lat="46.24672818460733" lon="13.57924699329684"><ele>238.0</ele><time>2026-04-04T11:49:52.999Z</time></trkpt><trkpt lat="46.24665662150202" lon="13.579222990721744"><ele>238.0</ele><time>2026-04-04T11:49:53.999Z</time></trkpt><trkpt lat="46.24658926680718" lon="13.579188701541943"><ele>238.0</ele><time>2026-04-04T11:49:54.999Z</time></trkpt><trkpt lat="46.24651980925194" lon="13.57914881608941"><ele>238.0</ele><time>2026-04-04T11:49:55.999Z</time></trkpt><trkpt lat="46.24645140525228" lon="13.579109910583547"><ele>238.0</ele><time>2026-04-04T11:49:56.999Z</time></trkpt><trkpt lat="46.24637336665575" lon="13.579073992945753"><ele>238.0</ele><time>2026-04-04T11:49:57.999Z</time></trkpt><trkpt lat="46.24629418271788" lon="13.579038793307044"><ele>237.99999999999997</ele><time>2026-04-04T11:49:58.999Z</time></trkpt><trkpt lat="46.246212608568605" lon="13.579003557961354"><ele>238.0</ele><time>2026-04-04T11:49:59.999Z</time></trkpt><trkpt lat="46.24613084938169" lon="13.578969242803153"><ele>238.0</ele><time>2026-04-04T11:50:00.999Z</time></trkpt><trkpt lat="46.24604980276041" lon="13.578933512395427"><ele>238.0</ele><time>2026-04-04T11:50:01.999Z</time></trkpt><trkpt lat="46.24597532143315" lon="13.578885416616016"><ele>237.99999999999997</ele><time>2026-04-04T11:50:02.999Z</time></trkpt><trkpt lat="46.24589708696275" lon="13.578823451692498"><ele>238.0</ele><time>2026-04-04T11:50:03.999Z</time></trkpt><trkpt lat="46.2458182073908" lon="13.57875667861718"><ele>238.0</ele><time>2026-04-04T11:50:04.999Z</time></trkpt><trkpt lat="46.24573614637991" lon="13.578688112827772"><ele>238.0</ele><time>2026-04-04T11:50:05.999Z</time></trkpt><trkpt lat="46.24565285858966" lon="13.578615846523036"><ele>238.0</ele><time>2026-04-04T11:50:06.999Z</time></trkpt><trkpt lat="46.24555723887584" lon="13.57856139816932"><ele>238.0</ele><time>2026-04-04T11:50:07.999Z</time></trkpt><trkpt lat="46.24546982982581" lon="13.578485875744919"><ele>238.0</ele><time>2026-04-04T11:50:08.999Z</time></trkpt><trkpt lat="46.24538679974564" lon="13.578397343615906"><ele>237.4</ele><time>2026-04-04T11:50:09.999Z</time></trkpt><trkpt lat="46.24528201206398" lon="13.57836434584159"><ele>236.8</ele><time>2026-04-04T11:50:10.999Z</time></trkpt><trkpt lat="46.245178902624744" lon="13.578378524119136"><ele>236.2</ele><time>2026-04-04T11:50:11.999Z</time></trkpt><trkpt lat="46.24507876280045" lon="13.578428866954683"><ele>235.6</ele><time>2026-04-04T11:50:12.999Z</time></trkpt><trkpt lat="46.244994587503" lon="13.578506185068516"><ele>235.0</ele><time>2026-04-04T11:50:13.999Z</time></trkpt><trkpt lat="46.24491809439455" lon="13.578601511946749"><ele>235.0</ele><time>2026-04-04T11:50:14.999Z</time></trkpt><trkpt lat="46.244845673138634" lon="13.578697243328117"><ele>235.0</ele><time>2026-04-04T11:50:15.999Z</time></trkpt><trkpt lat="46.24476700231048" lon="13.578801235822231"><ele>235.0</ele><time>2026-04-04T11:50:16.999Z</time></trkpt><trkpt lat="46.244683387210436" lon="13.57891411020528"><ele>235.0</ele><time>2026-04-04T11:50:17.999Z</time></trkpt><trkpt lat="46.24459610112278" lon="13.57903331739245"><ele>235.0</ele><time>2026-04-04T11:50:19Z</time></trkpt><trkpt lat="46.24450067548877" lon="13.579153139008938"><ele>235.0</ele><time>2026-04-04T11:50:20Z</time></trkpt><trkpt lat="46.244406184967026" lon="13.579283282414192"><ele>235.0</ele><time>2026-04-04T11:50:21Z</time></trkpt><trkpt lat="46.244308734429914" lon="13.579417502699368"><ele>235.0</ele><time>2026-04-04T11:50:22Z</time></trkpt><trkpt lat="46.244208964923104" lon="13.579554916941007"><ele>235.0</ele><time>2026-04-04T11:50:23Z</time></trkpt><trkpt lat="46.244109201541285" lon="13.579692322746801"><ele>234.75</ele><time>2026-04-04T11:50:24Z</time></trkpt><trkpt lat="46.244010489279766" lon="13.579830871410914"><ele>234.5</ele><time>2026-04-04T11:50:25Z</time></trkpt><trkpt lat="46.24391380419422" lon="13.579967039021431"><ele>234.25</ele><time>2026-04-04T11:50:26Z</time></trkpt><trkpt lat="46.2438201411464" lon="13.580098950509546"><ele>234.0</ele><time>2026-04-04T11:50:27Z</time></trkpt><trkpt lat="46.24372855452428" lon="13.580224511524648"><ele>232.0</ele><time>2026-04-04T11:50:28Z</time></trkpt><trkpt lat="46.243638757318315" lon="13.580344634227567"><ele>230.0</ele><time>2026-04-04T11:50:29Z</time></trkpt><trkpt lat="46.24355211779468" lon="13.580460643078707"><ele>228.0</ele><time>2026-04-04T11:50:30Z</time></trkpt><trkpt lat="46.24347023462855" lon="13.580569964168474"><ele>226.0</ele><time>2026-04-04T11:50:31Z</time></trkpt><trkpt lat="46.2433862696678" lon="13.580678691248274"><ele>225.99999999999997</ele><time>2026-04-04T11:50:32Z</time></trkpt><trkpt lat="46.24330702978268" lon="13.580780014421087"><ele>226.0</ele><time>2026-04-04T11:50:33Z</time></trkpt><trkpt lat="46.24324226024779" lon="13.580885933876353"><ele>226.0</ele><time>2026-04-04T11:50:34Z</time></trkpt><trkpt lat="46.24317132666249" lon="13.58095677809143"><ele>226.0</ele><time>2026-04-04T11:50:35Z</time></trkpt><trkpt lat="46.24309942698849" lon="13.581012099315274"><ele>225.99999999999997</ele><time>2026-04-04T11:50:36Z</time></trkpt><trkpt lat="46.24302807701989" lon="13.581051475890202"><ele>226.0</ele><time>2026-04-04T11:50:37Z</time></trkpt><trkpt lat="46.242959710886204" lon="13.581112702102962"><ele>224.20000000000002</ele><time>2026-04-04T11:50:38Z</time></trkpt><trkpt lat="46.242913215319554" lon="13.581217264176752"><ele>222.40000000000003</ele><time>2026-04-04T11:50:39Z</time></trkpt><trkpt lat="46.24287493300498" lon="13.581342167826007"><ele>220.6</ele><time>2026-04-04T11:50:40Z</time></trkpt><trkpt lat="46.242828827771795" lon="13.581468053356183"><ele>218.8</ele><time>2026-04-04T11:50:41Z</time></trkpt><trkpt lat="46.24275172567917" lon="13.581561744991376"><ele>217.0</ele><time>2026-04-04T11:50:42Z</time></trkpt><trkpt lat="46.24268600120394" lon="13.58166977357187"><ele>216.99999999999997</ele><time>2026-04-04T11:50:43Z</time></trkpt><trkpt lat="46.24261479552375" lon="13.58176504591422"><ele>217.0</ele><time>2026-04-04T11:50:44Z</time></trkpt><trkpt lat="46.24254512534159" lon="13.58185782498624"><ele>217.0</ele><time>2026-04-04T11:50:45Z</time></trkpt><trkpt lat="46.24248710531098" lon="13.581958395088282"><ele>217.0</ele><time>2026-04-04T11:50:45.999Z</time></trkpt><trkpt lat="46.24242703828039" lon="13.582034934432738"><ele>216.99999999999997</ele><time>2026-04-04T11:50:46.999Z</time></trkpt><trkpt lat="46.24237126921858" lon="13.582103979642808"><ele>217.0</ele><time>2026-04-04T11:50:47.999Z</time></trkpt><trkpt lat="46.24231795057811" lon="13.582161666083028"><ele>217.39999999999998</ele><time>2026-04-04T11:50:48.999Z</time></trkpt><trkpt lat="46.242220735357435" lon="13.582254655391841"><ele>217.79999999999998</ele><time>2026-04-04T11:50:50.999Z</time></trkpt><trkpt lat="46.242115702748194" lon="13.58228474648571"><ele>218.2</ele><time>2026-04-04T11:50:52.999Z</time></trkpt><trkpt lat="46.24200774526594" lon="13.582280014813152"><ele>218.6</ele><time>2026-04-04T11:50:54.999Z</time></trkpt><trkpt lat="46.24192785580467" lon="13.58225676650289"><ele>219.0</ele><time>2026-04-04T11:50:56.999Z</time></trkpt><trkpt lat="46.24185307138017" lon="13.582278156319502"><ele>219.0</ele><time>2026-04-04T11:50:58.999Z</time></trkpt><trkpt lat="46.24183134086054" lon="13.582366598279812"><ele>219.0</ele><time>2026-04-04T11:53:29.999Z</time></trkpt><trkpt lat="46.24182854668001" lon="13.582467772704705"><ele>219.0</ele><time>2026-04-04T11:53:38.999Z</time></trkpt><trkpt lat="46.24172158189228" lon="13.582619379503965"><ele>219.0</ele><time>2026-04-04T11:54:10.999Z</time></trkpt><trkpt lat="46.241776743295674" lon="13.582509156571609"><ele>219.0</ele><time>2026-04-04T11:54:15.999Z</time></trkpt><trkpt lat="46.241837436186174" lon="13.582480639113854"><ele>219.0</ele><time>2026-04-04T11:54:22.999Z</time></trkpt><trkpt lat="46.24186433310745" lon="13.582392747033138"><ele>219.0</ele><time>2026-04-04T11:54:29.999Z</time></trkpt><trkpt lat="46.241793948787084" lon="13.582376851394228"><ele>219.0</ele><time>2026-04-04T11:56:12.999Z</time></trkpt><trkpt lat="46.241746773405445" lon="13.582453170681278"><ele>219.0</ele><time>2026-04-04T11:56:14.999Z</time></trkpt><trkpt lat="46.24178530553586" lon="13.582556548069153"><ele>219.0</ele><time>2026-04-04T11:56:17.999Z</time></trkpt><trkpt lat="46.24175145951836" lon="13.582662859572565"><ele>219.0</ele><time>2026-04-04T11:56:19.999Z</time></trkpt><trkpt lat="46.241682466349395" lon="13.582754060937937"><ele>219.0</ele><time>2026-04-04T11:56:21.999Z</time></trkpt><trkpt lat="46.24162429679827" lon="13.582857084444061"><ele>219.2</ele><time>2026-04-04T11:56:23.999Z</time></trkpt><trkpt lat="46.2415691030323" lon="13.582973414510258"><ele>219.39999999999998</ele><time>2026-04-04T11:56:25.999Z</time></trkpt><trkpt lat="46.241533968980676" lon="13.583098637717521"><ele>219.6</ele><time>2026-04-04T11:56:27.999Z</time></trkpt><trkpt lat="46.24151927371977" lon="13.58324430636788"><ele>219.8</ele><time>2026-04-04T11:56:30.999Z</time></trkpt><trkpt lat="46.241470860819625" lon="13.583335919351669"><ele>220.0</ele><time>2026-04-04T11:56:31.999Z</time></trkpt><trkpt lat="46.24137136167087" lon="13.583437258878538"><ele>219.33333333333331</ele><time>2026-04-04T11:56:32.999Z</time></trkpt><trkpt lat="46.24124432143782" lon="13.583529714696038"><ele>218.66666666666669</ele><time>2026-04-04T11:56:33.999Z</time></trkpt><trkpt lat="46.241093598125296" lon="13.58361165646828"><ele>218.0</ele><time>2026-04-04T11:56:34.999Z</time></trkpt><trkpt lat="46.240920725036034" lon="13.583686911807932"><ele>217.33333333333334</ele><time>2026-04-04T11:56:35.999Z</time></trkpt><trkpt lat="46.24073449625635" lon="13.583768263387153"><ele>216.66666666666669</ele><time>2026-04-04T11:56:37Z</time></trkpt><trkpt lat="46.24053352946477" lon="13.583851312048699"><ele>216.0</ele><time>2026-04-04T11:56:38Z</time></trkpt><trkpt lat="46.240319624623154" lon="13.583919187911384"><ele>213.5</ele><time>2026-04-04T11:56:39Z</time></trkpt><trkpt lat="46.240095468254616" lon="13.583959306564232"><ele>211.0</ele><time>2026-04-04T11:56:40Z</time></trkpt><trkpt lat="46.23987142457743" lon="13.583971492818717"><ele>211.0</ele><time>2026-04-04T11:56:41Z</time></trkpt><trkpt lat="46.2396522690252" lon="13.583962957617564"><ele>211.0</ele><time>2026-04-04T11:56:42Z</time></trkpt><trkpt lat="46.23945092253601" lon="13.583855890296407"><ele>211.0</ele><time>2026-04-04T11:56:43Z</time></trkpt><trkpt lat="46.23924568866778" lon="13.58376744201783"><ele>211.0</ele><time>2026-04-04T11:56:44Z</time></trkpt><trkpt lat="46.23904519649375" lon="13.583682624372972"><ele>211.0</ele><time>2026-04-04T11:56:45Z</time></trkpt><trkpt lat="46.238852245669676" lon="13.583631952430862"><ele>211.0</ele><time>2026-04-04T11:56:46Z</time></trkpt><trkpt lat="46.23866020553014" lon="13.583621075976088"><ele>211.33333333333331</ele><time>2026-04-04T11:56:47Z</time></trkpt><trkpt lat="46.23847596085564" lon="13.583665880578204"><ele>211.66666666666669</ele><time>2026-04-04T11:56:48Z</time></trkpt><trkpt lat="46.238303082744956" lon="13.583771524795937"><ele>212.0</ele><time>2026-04-04T11:56:49Z</time></trkpt><trkpt lat="46.23814144886112" lon="13.583914650446022"><ele>214.0</ele><time>2026-04-04T11:56:50Z</time></trkpt><trkpt lat="46.23798555475534" lon="13.584066046774579"><ele>216.0</ele><time>2026-04-04T11:56:51Z</time></trkpt><trkpt lat="46.23783655002514" lon="13.584222569757857"><ele>218.0</ele><time>2026-04-04T11:56:52Z</time></trkpt><trkpt lat="46.23769443958552" lon="13.584379711996437"><ele>217.33333333333334</ele><time>2026-04-04T11:56:53Z</time></trkpt><trkpt lat="46.23755678001337" lon="13.584539702515933"><ele>216.66666666666669</ele><time>2026-04-04T11:56:54Z</time></trkpt><trkpt lat="46.23742370837975" lon="13.584698117007328"><ele>216.0</ele><time>2026-04-04T11:56:55Z</time></trkpt><trkpt lat="46.23729186461206" lon="13.584855069891871"><ele>217.66666666666669</ele><time>2026-04-04T11:56:56Z</time></trkpt><trkpt lat="46.23716623072226" lon="13.585011239027883"><ele>219.33333333333334</ele><time>2026-04-04T11:56:56.999Z</time></trkpt><trkpt lat="46.23704509346364" lon="13.585163519375186"><ele>221.0</ele><time>2026-04-04T11:56:57.999Z</time></trkpt><trkpt lat="46.236921184890754" lon="13.585314732524886"><ele>219.66666666666669</ele><time>2026-04-04T11:56:58.999Z</time></trkpt><trkpt lat="46.23680859550156" lon="13.58550752456355"><ele>218.33333333333331</ele><time>2026-04-04T11:56:59.999Z</time></trkpt><trkpt lat="46.23671004217305" lon="13.585714072071072"><ele>217.0</ele><time>2026-04-04T11:57:00.999Z</time></trkpt><trkpt lat="46.23660704740734" lon="13.585914646930302"><ele>217.0</ele><time>2026-04-04T11:57:01.999Z</time></trkpt><trkpt lat="46.23650018842401" lon="13.586110710016175"><ele>217.0</ele><time>2026-04-04T11:57:02.999Z</time></trkpt><trkpt lat="46.236382737555594" lon="13.586298710254452"><ele>217.0</ele><time>2026-04-04T11:57:03.999Z</time></trkpt><trkpt lat="46.23626470769556" lon="13.58648510655722"><ele>216.66666666666666</ele><time>2026-04-04T11:57:04.999Z</time></trkpt><trkpt lat="46.23614776644128" lon="13.586667977285167"><ele>216.33333333333331</ele><time>2026-04-04T11:57:05.999Z</time></trkpt><trkpt lat="46.23603252479825" lon="13.586848158951977"><ele>216.0</ele><time>2026-04-04T11:57:06.999Z</time></trkpt><trkpt lat="46.23591730819931" lon="13.587026802584697"><ele>215.0</ele><time>2026-04-04T11:57:07.999Z</time></trkpt><trkpt lat="46.23580173863684" lon="13.58719865335863"><ele>214.0</ele><time>2026-04-04T11:57:08.999Z</time></trkpt><trkpt lat="46.23568473215028" lon="13.587362579612892"><ele>213.0</ele><time>2026-04-04T11:57:09.999Z</time></trkpt><trkpt lat="46.235566282276764" lon="13.587522074459644"><ele>213.0</ele><time>2026-04-04T11:57:10.999Z</time></trkpt><trkpt lat="46.235446674543844" lon="13.587679299132427"><ele>213.0</ele><time>2026-04-04T11:57:11.999Z</time></trkpt><trkpt lat="46.23532721818777" lon="13.58783469443481"><ele>213.0</ele><time>2026-04-04T11:57:12.999Z</time></trkpt><trkpt lat="46.235206776942455" lon="13.58798859527819"><ele>212.0</ele><time>2026-04-04T11:57:13.999Z</time></trkpt><trkpt lat="46.23508557912482" lon="13.588142720021185"><ele>211.0</ele><time>2026-04-04T11:57:14.999Z</time></trkpt><trkpt lat="46.234965356260176" lon="13.588295605183403"><ele>210.0</ele><time>2026-04-04T11:57:15.999Z</time></trkpt><trkpt lat="46.23484599256141" lon="13.588447603164502"><ele>210.33333333333331</ele><time>2026-04-04T11:57:16.999Z</time></trkpt><trkpt lat="46.23472867640305" lon="13.588597296101613"><ele>210.66666666666666</ele><time>2026-04-04T11:57:17.999Z</time></trkpt><trkpt lat="46.23461351831806" lon="13.588744235542066"><ele>211.0</ele><time>2026-04-04T11:57:18.999Z</time></trkpt><trkpt lat="46.23450041375407" lon="13.588888554742732"><ele>211.0</ele><time>2026-04-04T11:57:19.999Z</time></trkpt><trkpt lat="46.23438888234252" lon="13.589030871244143"><ele>211.0</ele><time>2026-04-04T11:57:20.999Z</time></trkpt><trkpt lat="46.234279394697076" lon="13.589170588100039"><ele>211.0</ele><time>2026-04-04T11:57:21.999Z</time></trkpt><trkpt lat="46.234171487068544" lon="13.589308290538225"><ele>211.0</ele><time>2026-04-04T11:57:22.999Z</time></trkpt><trkpt lat="46.23406428989688" lon="13.589441357048385"><ele>211.0</ele><time>2026-04-04T11:57:23.999Z</time></trkpt><trkpt lat="46.23395852462598" lon="13.589573827163518"><ele>211.0</ele><time>2026-04-04T11:57:24.999Z</time></trkpt><trkpt lat="46.233852070764485" lon="13.589705970616448"><ele>211.0</ele><time>2026-04-04T11:57:25.999Z</time></trkpt><trkpt lat="46.233744676829666" lon="13.589839193827077"><ele>211.0</ele><time>2026-04-04T11:57:26.999Z</time></trkpt><trkpt lat="46.23363605909447" lon="13.58997393517363"><ele>211.0</ele><time>2026-04-04T11:57:27.999Z</time></trkpt><trkpt lat="46.23352643582917" lon="13.590110780551484"><ele>211.0</ele><time>2026-04-04T11:57:28.999Z</time></trkpt><trkpt lat="46.23341764374645" lon="13.590248456090777"><ele>211.0</ele><time>2026-04-04T11:57:29.999Z</time></trkpt><trkpt lat="46.233308197315615" lon="13.590386904567932"><ele>211.0</ele><time>2026-04-04T11:57:30.999Z</time></trkpt><trkpt lat="46.23319690684941" lon="13.590525559745707"><ele>211.66666666666666</ele><time>2026-04-04T11:57:31.999Z</time></trkpt><trkpt lat="46.23308593154202" lon="13.590671152227786"><ele>212.33333333333331</ele><time>2026-04-04T11:57:32.999Z</time></trkpt><trkpt lat="46.232972103223794" lon="13.590822340236672"><ele>213.0</ele><time>2026-04-04T11:57:33.999Z</time></trkpt><trkpt lat="46.2328625022862" lon="13.590975576443057"><ele>213.0</ele><time>2026-04-04T11:57:34.999Z</time></trkpt><trkpt lat="46.23275833469197" lon="13.591130844729292"><ele>213.0</ele><time>2026-04-04T11:57:35.999Z</time></trkpt><trkpt lat="46.23266093329904" lon="13.591299305557248"><ele>213.0</ele><time>2026-04-04T11:57:36.999Z</time></trkpt><trkpt lat="46.2325724331714" lon="13.591477376177279"><ele>213.0</ele><time>2026-04-04T11:57:37.999Z</time></trkpt><trkpt lat="46.23249365872294" lon="13.591661139366288"><ele>213.0</ele><time>2026-04-04T11:57:38.999Z</time></trkpt><trkpt lat="46.23241676492984" lon="13.591839982752518"><ele>213.0</ele><time>2026-04-04T11:57:39.999Z</time></trkpt><trkpt lat="46.2323395468768" lon="13.592014928312325"><ele>213.0</ele><time>2026-04-04T11:57:40.999Z</time></trkpt><trkpt lat="46.23226258634348" lon="13.592184090552418"><ele>213.5</ele><time>2026-04-04T11:57:41.999Z</time></trkpt><trkpt lat="46.232178532428875" lon="13.592340571941754"><ele>214.0</ele><time>2026-04-04T11:57:42.999Z</time></trkpt><trkpt lat="46.232084906574805" lon="13.592480945016442"><ele>214.5</ele><time>2026-04-04T11:57:43.999Z</time></trkpt><trkpt lat="46.231987567203724" lon="13.592609860222428"><ele>215.0</ele><time>2026-04-04T11:57:44.999Z</time></trkpt><trkpt lat="46.231896051988755" lon="13.592746032527861"><ele>214.5</ele><time>2026-04-04T11:57:45.999Z</time></trkpt><trkpt lat="46.2318118014312" lon="13.59287481001116"><ele>214.0</ele><time>2026-04-04T11:57:46.999Z</time></trkpt><trkpt lat="46.231739530957576" lon="13.593016120956882"><ele>213.5</ele><time>2026-04-04T11:57:47.999Z</time></trkpt><trkpt lat="46.23166589182332" lon="13.593153086856242"><ele>213.0</ele><time>2026-04-04T11:57:48.999Z</time></trkpt><trkpt lat="46.23159319879235" lon="13.5932916062709"><ele>213.0</ele><time>2026-04-04T11:57:49.999Z</time></trkpt><trkpt lat="46.23152296312473" lon="13.593435909398112"><ele>213.0</ele><time>2026-04-04T11:57:50.999Z</time></trkpt><trkpt lat="46.23145929157684" lon="13.593568482055147"><ele>213.0</ele><time>2026-04-04T11:57:51.999Z</time></trkpt><trkpt lat="46.231398320216115" lon="13.59369355012605"><ele>213.0</ele><time>2026-04-04T11:57:52.999Z</time></trkpt><trkpt lat="46.23133070207582" lon="13.5938267449984"><ele>212.75</ele><time>2026-04-04T11:57:53.999Z</time></trkpt><trkpt lat="46.231252865489125" lon="13.593978786721058"><ele>212.5</ele><time>2026-04-04T11:57:54.999Z</time></trkpt><trkpt lat="46.23116460697639" lon="13.594144945546857"><ele>212.25</ele><time>2026-04-04T11:57:55.999Z</time></trkpt><trkpt lat="46.23106954782522" lon="13.594325665472526"><ele>212.0</ele><time>2026-04-04T11:57:56.999Z</time></trkpt><trkpt lat="46.230969193716646" lon="13.594516452075055"><ele>211.33333333333334</ele><time>2026-04-04T11:57:57.999Z</time></trkpt><trkpt lat="46.23086394226185" lon="13.594715400422118"><ele>210.66666666666669</ele><time>2026-04-04T11:57:58.999Z</time></trkpt><trkpt lat="46.230787806319576" lon="13.594942695335751"><ele>210.0</ele><time>2026-04-04T11:57:59.999Z</time></trkpt><trkpt lat="46.2306815776496" lon="13.595130453933843"><ele>209.66666666666669</ele><time>2026-04-04T11:58:00.999Z</time></trkpt><trkpt lat="46.23055750683756" lon="13.595287832121446"><ele>209.33333333333334</ele><time>2026-04-04T11:58:01.999Z</time></trkpt><trkpt lat="46.23040635196365" lon="13.595393736202833"><ele>209.0</ele><time>2026-04-04T11:58:02.999Z</time></trkpt><trkpt lat="46.23023276702061" lon="13.595437255500276"><ele>209.0</ele><time>2026-04-04T11:58:03.999Z</time></trkpt><trkpt lat="46.230051965457136" lon="13.59546267795145"><ele>209.0</ele><time>2026-04-04T11:58:04.999Z</time></trkpt><trkpt lat="46.229860577143256" lon="13.595452782400976"><ele>209.0</ele><time>2026-04-04T11:58:05.999Z</time></trkpt><trkpt lat="46.22966838934659" lon="13.59548645158251"><ele>209.66666666666669</ele><time>2026-04-04T11:58:06.999Z</time></trkpt><trkpt lat="46.229472124128684" lon="13.595520981154804"><ele>210.33333333333331</ele><time>2026-04-04T11:58:07.999Z</time></trkpt><trkpt lat="46.22927693021136" lon="13.59555320106034"><ele>211.0</ele><time>2026-04-04T11:58:08.999Z</time></trkpt><trkpt lat="46.229078083583325" lon="13.59557554171713"><ele>212.0</ele><time>2026-04-04T11:58:09.999Z</time></trkpt><trkpt lat="46.228877352449324" lon="13.595588984624893"><ele>213.0</ele><time>2026-04-04T11:58:10.999Z</time></trkpt><trkpt lat="46.22867625524219" lon="13.595608731988168"><ele>214.0</ele><time>2026-04-04T11:58:11.999Z</time></trkpt><trkpt lat="46.22847763812853" lon="13.595650124172142"><ele>214.0</ele><time>2026-04-04T11:58:12.999Z</time></trkpt><trkpt lat="46.22827981332164" lon="13.595725119331158"><ele>214.0</ele><time>2026-04-04T11:58:13.999Z</time></trkpt><trkpt lat="46.22809125980333" lon="13.595828943256818"><ele>214.0</ele><time>2026-04-04T11:58:14.999Z</time></trkpt><trkpt lat="46.22790896884127" lon="13.595970813792887"><ele>211.33333333333331</ele><time>2026-04-04T11:58:15.999Z</time></trkpt><trkpt lat="46.22773465188582" lon="13.596123710575803"><ele>208.66666666666669</ele><time>2026-04-04T11:58:16.999Z</time></trkpt><trkpt lat="46.22756119389216" lon="13.596278511978475"><ele>206.0</ele><time>2026-04-04T11:58:17.999Z</time></trkpt><trkpt lat="46.22738530132868" lon="13.596432754394776"><ele>208.33333333333334</ele><time>2026-04-04T11:58:18.999Z</time></trkpt><trkpt lat="46.22720688131134" lon="13.596589213222613"><ele>210.66666666666669</ele><time>2026-04-04T11:58:19.999Z</time></trkpt><trkpt lat="46.22702845467069" lon="13.59674526002189"><ele>213.0</ele><time>2026-04-04T11:58:20.999Z</time></trkpt><trkpt lat="46.22684730154532" lon="13.596904321251614"><ele>214.0</ele><time>2026-04-04T11:58:21.999Z</time></trkpt><trkpt lat="46.22667746074512" lon="13.597085203552409"><ele>215.0</ele><time>2026-04-04T11:58:22.999Z</time></trkpt><trkpt lat="46.22651557367323" lon="13.597275296825984"><ele>216.0</ele><time>2026-04-04T11:58:23.999Z</time></trkpt><trkpt lat="46.22635806035679" lon="13.59746969529263"><ele>216.0</ele><time>2026-04-04T11:58:24.999Z</time></trkpt><trkpt lat="46.2262012514194" lon="13.597661484064952"><ele>216.0</ele><time>2026-04-04T11:58:25.999Z</time></trkpt><trkpt lat="46.226051953253304" lon="13.597880418911348"><ele>216.0</ele><time>2026-04-04T11:58:26.999Z</time></trkpt><trkpt lat="46.2259371158906" lon="13.598131505139685"><ele>215.0</ele><time>2026-04-04T11:58:27.999Z</time></trkpt><trkpt lat="46.22583990407444" lon="13.598397868892059"><ele>214.0</ele><time>2026-04-04T11:58:28.999Z</time></trkpt><trkpt lat="46.22574418219387" lon="13.598668299808587"><ele>213.0</ele><time>2026-04-04T11:58:29.999Z</time></trkpt><trkpt lat="46.2256396347005" lon="13.59893443822122"><ele>213.0</ele><time>2026-04-04T11:58:30.999Z</time></trkpt><trkpt lat="46.225532192887066" lon="13.599200784487799"><ele>213.0</ele><time>2026-04-04T11:58:31.999Z</time></trkpt><trkpt lat="46.225421653898465" lon="13.599469426835126"><ele>213.0</ele><time>2026-04-04T11:58:32.999Z</time></trkpt><trkpt lat="46.22530997556211" lon="13.599740248636955"><ele>212.0</ele><time>2026-04-04T11:58:33.999Z</time></trkpt><trkpt lat="46.225197576935244" lon="13.600013217922124"><ele>211.0</ele><time>2026-04-04T11:58:34.999Z</time></trkpt><trkpt lat="46.22508469839307" lon="13.600285635454465"><ele>210.0</ele><time>2026-04-04T11:58:35.999Z</time></trkpt><trkpt lat="46.22497200605067" lon="13.600559173855276"><ele>212.66666666666669</ele><time>2026-04-04T11:58:36.999Z</time></trkpt><trkpt lat="46.22485600122479" lon="13.600826897129897"><ele>215.33333333333334</ele><time>2026-04-04T11:58:37.999Z</time></trkpt><trkpt lat="46.224712422569546" lon="13.601064854578372"><ele>218.0</ele><time>2026-04-04T11:58:38.999Z</time></trkpt><trkpt lat="46.22455037418273" lon="13.601297572959714"><ele>208.0</ele><time>2026-04-04T11:58:39.999Z</time></trkpt><trkpt lat="46.22437878503131" lon="13.60153959328236"><ele>198.0</ele><time>2026-04-04T11:58:40.999Z</time></trkpt><trkpt lat="46.224203310526065" lon="13.60178709360304"><ele>194.5</ele><time>2026-04-04T11:58:42Z</time></trkpt><trkpt lat="46.22402472724133" lon="13.602038269563792"><ele>191.0</ele><time>2026-04-04T11:58:43Z</time></trkpt><trkpt lat="46.223844854987085" lon="13.602296657601197"><ele>190.5</ele><time>2026-04-04T11:58:44Z</time></trkpt><trkpt lat="46.22365960747691" lon="13.602556335179662"><ele>190.0</ele><time>2026-04-04T11:58:45Z</time></trkpt><trkpt lat="46.22347420825631" lon="13.60282230288223"><ele>189.5</ele><time>2026-04-04T11:58:46Z</time></trkpt><trkpt lat="46.22328650715563" lon="13.603086412672518"><ele>189.0</ele><time>2026-04-04T11:58:47Z</time></trkpt><trkpt lat="46.223098487345496" lon="13.603352045878417"><ele>189.0</ele><time>2026-04-04T11:58:48Z</time></trkpt><trkpt lat="46.222911399403515" lon="13.603617199184471"><ele>189.0</ele><time>2026-04-04T11:58:49Z</time></trkpt><trkpt lat="46.222724280090645" lon="13.603884429318969"><ele>189.5</ele><time>2026-04-04T11:58:50Z</time></trkpt><trkpt lat="46.22253723927501" lon="13.604151547514002"><ele>190.0</ele><time>2026-04-04T11:58:51Z</time></trkpt><trkpt lat="46.22234882123554" lon="13.604418886672976"><ele>195.0</ele><time>2026-04-04T11:58:52Z</time></trkpt><trkpt lat="46.22215812179145" lon="13.60468557930748"><ele>200.0</ele><time>2026-04-04T11:58:53Z</time></trkpt><trkpt lat="46.22196887686348" lon="13.604951581574731"><ele>200.0</ele><time>2026-04-04T11:58:54Z</time></trkpt><trkpt lat="46.22178373117122" lon="13.60521675078581"><ele>200.0</ele><time>2026-04-04T11:58:55Z</time></trkpt><trkpt lat="46.22160127629795" lon="13.605478065896875"><ele>202.5</ele><time>2026-04-04T11:58:56Z</time></trkpt><trkpt lat="46.22142062602639" lon="13.605736796810271"><ele>205.0</ele><time>2026-04-04T11:58:57Z</time></trkpt><trkpt lat="46.221243872999494" lon="13.605989947257898"><ele>201.0</ele><time>2026-04-04T11:58:57.999Z</time></trkpt><trkpt lat="46.221070608802485" lon="13.606237526068606"><ele>197.0</ele><time>2026-04-04T11:58:58.999Z</time></trkpt><trkpt lat="46.220898348250195" lon="13.606477108065672"><ele>197.0</ele><time>2026-04-04T11:58:59.999Z</time></trkpt><trkpt lat="46.22073205290182" lon="13.606710794254669"><ele>197.0</ele><time>2026-04-04T11:59:00.999Z</time></trkpt><trkpt lat="46.22057946234599" lon="13.606926787216285"><ele>197.0</ele><time>2026-04-04T11:59:01.999Z</time></trkpt><trkpt lat="46.220438571635874" lon="13.607130406183785"><ele>198.66666666666669</ele><time>2026-04-04T11:59:02.999Z</time></trkpt><trkpt lat="46.220311295716336" lon="13.607311690795765"><ele>200.33333333333331</ele><time>2026-04-04T11:59:03.999Z</time></trkpt><trkpt lat="46.220186689420316" lon="13.607473241196956"><ele>202.0</ele><time>2026-04-04T11:59:04.999Z</time></trkpt><trkpt lat="46.22004487959287" lon="13.607585602605578"><ele>202.0</ele><time>2026-04-04T11:59:05.999Z</time></trkpt><trkpt lat="46.219889587764534" lon="13.607699854731177"><ele>202.0</ele><time>2026-04-04T11:59:06.999Z</time></trkpt><trkpt lat="46.219734319600455" lon="13.607806414855535"><ele>202.0</ele><time>2026-04-04T11:59:07.999Z</time></trkpt><trkpt lat="46.219572119167935" lon="13.607886382964464"><ele>198.66666666666666</ele><time>2026-04-04T11:59:08.999Z</time></trkpt><trkpt lat="46.21941789896718" lon="13.60798088999571"><ele>195.33333333333331</ele><time>2026-04-04T11:59:09.999Z</time></trkpt><trkpt lat="46.219267501695" lon="13.608090228093074"><ele>192.0</ele><time>2026-04-04T11:59:10.999Z</time></trkpt><trkpt lat="46.219119831693384" lon="13.608220471776736"><ele>193.0</ele><time>2026-04-04T11:59:11.999Z</time></trkpt><trkpt lat="46.218977377761036" lon="13.608374824179775"><ele>194.0</ele><time>2026-04-04T11:59:12.999Z</time></trkpt><trkpt lat="46.21884551061765" lon="13.60855556641534"><ele>195.0</ele><time>2026-04-04T11:59:13.999Z</time></trkpt><trkpt lat="46.21872237499461" lon="13.608754565853799"><ele>195.0</ele><time>2026-04-04T11:59:14.999Z</time></trkpt><trkpt lat="46.21859973414889" lon="13.608961740141371"><ele>195.0</ele><time>2026-04-04T11:59:15.999Z</time></trkpt><trkpt lat="46.21847387821366" lon="13.609159088905104"><ele>195.0</ele><time>2026-04-04T11:59:16.999Z</time></trkpt><trkpt lat="46.218338360033705" lon="13.609331462449726"><ele>195.0</ele><time>2026-04-04T11:59:17.999Z</time></trkpt><trkpt lat="46.218182761905" lon="13.609472910368478"><ele>195.0</ele><time>2026-04-04T11:59:18.999Z</time></trkpt><trkpt lat="46.21801199756882" lon="13.609592716425439"><ele>195.0</ele><time>2026-04-04T11:59:19.999Z</time></trkpt><trkpt lat="46.21784027576457" lon="13.609720763969232"><ele>195.33333333333331</ele><time>2026-04-04T11:59:20.999Z</time></trkpt><trkpt lat="46.21766444928513" lon="13.60985159855103"><ele>195.66666666666666</ele><time>2026-04-04T11:59:21.999Z</time></trkpt><trkpt lat="46.21748239177485" lon="13.609990253266297"><ele>196.0</ele><time>2026-04-04T11:59:22.999Z</time></trkpt><trkpt lat="46.217296000646925" lon="13.61013223524903"><ele>195.33333333333331</ele><time>2026-04-04T11:59:23.999Z</time></trkpt><trkpt lat="46.21710172971168" lon="13.610273601043378"><ele>194.66666666666669</ele><time>2026-04-04T11:59:24.999Z</time></trkpt><trkpt lat="46.216902687810794" lon="13.610415728145634"><ele>194.0</ele><time>2026-04-04T11:59:25.999Z</time></trkpt><trkpt lat="46.21669882284827" lon="13.610556468612382"><ele>194.0</ele><time>2026-04-04T11:59:26.999Z</time></trkpt><trkpt lat="46.21649307408384" lon="13.61069366196203"><ele>194.0</ele><time>2026-04-04T11:59:27.999Z</time></trkpt><trkpt lat="46.216289468438326" lon="13.610830506626735"><ele>195.0</ele><time>2026-04-04T11:59:28.999Z</time></trkpt><trkpt lat="46.21609543124728" lon="13.6109745798295"><ele>196.0</ele><time>2026-04-04T11:59:29.999Z</time></trkpt><trkpt lat="46.21591584954902" lon="13.611133337949331"><ele>197.0</ele><time>2026-04-04T11:59:30.999Z</time></trkpt><trkpt lat="46.21575535204949" lon="13.611330476018468"><ele>204.66666666666669</ele><time>2026-04-04T11:59:31.999Z</time></trkpt><trkpt lat="46.215616487217986" lon="13.611567047487753"><ele>212.33333333333331</ele><time>2026-04-04T11:59:32.999Z</time></trkpt><trkpt lat="46.215493259708545" lon="13.611829785842483"><ele>220.0</ele><time>2026-04-04T11:59:33.999Z</time></trkpt><trkpt lat="46.21538935988937" lon="13.61210758987759"><ele>220.0</ele><time>2026-04-04T11:59:34.999Z</time></trkpt><trkpt lat="46.21530295892296" lon="13.612381876033085"><ele>220.0</ele><time>2026-04-04T11:59:35.999Z</time></trkpt><trkpt lat="46.215227363904454" lon="13.612632283202013"><ele>220.0</ele><time>2026-04-04T11:59:36.999Z</time></trkpt><trkpt lat="46.215132268740675" lon="13.612862910743337"><ele>223.33333333333331</ele><time>2026-04-04T11:59:37.999Z</time></trkpt><trkpt lat="46.215003604482035" lon="13.61307975174641"><ele>226.66666666666669</ele><time>2026-04-04T11:59:38.999Z</time></trkpt><trkpt lat="46.21485851578009" lon="13.613289298268521"><ele>230.0</ele><time>2026-04-04T11:59:39.999Z</time></trkpt><trkpt lat="46.2146987637904" lon="13.613492378382604"><ele>224.33333333333334</ele><time>2026-04-04T11:59:40.999Z</time></trkpt><trkpt lat="46.21454164317246" lon="13.613702881661565"><ele>218.66666666666669</ele><time>2026-04-04T11:59:41.999Z</time></trkpt><trkpt lat="46.214392282959324" lon="13.613934119429546"><ele>213.0</ele><time>2026-04-04T11:59:42.999Z</time></trkpt><trkpt lat="46.21424758900955" lon="13.614172048459979"><ele>213.0</ele><time>2026-04-04T11:59:43.999Z</time></trkpt><trkpt lat="46.21411504280455" lon="13.614421712837718"><ele>213.0</ele><time>2026-04-04T11:59:44.999Z</time></trkpt><trkpt lat="46.21399527439518" lon="13.614680324415671"><ele>213.0</ele><time>2026-04-04T11:59:45.999Z</time></trkpt><trkpt lat="46.213890813048494" lon="13.614949632967704"><ele>219.33333333333331</ele><time>2026-04-04T11:59:46.999Z</time></trkpt><trkpt lat="46.213803739036344" lon="13.61522991736328"><ele>225.66666666666666</ele><time>2026-04-04T11:59:47.999Z</time></trkpt><trkpt lat="46.213728437293135" lon="13.615516854477809"><ele>232.0</ele><time>2026-04-04T11:59:48.999Z</time></trkpt><trkpt lat="46.21365501408952" lon="13.615805059819007"><ele>232.0</ele><time>2026-04-04T11:59:49.999Z</time></trkpt><trkpt lat="46.21358050391385" lon="13.616087047277729"><ele>232.0</ele><time>2026-04-04T11:59:50.999Z</time></trkpt><trkpt lat="46.21351237980989" lon="13.616369708278116"><ele>232.0</ele><time>2026-04-04T11:59:51.999Z</time></trkpt><trkpt lat="46.21345800981514" lon="13.616653969341577"><ele>226.66666666666666</ele><time>2026-04-04T11:59:52.999Z</time></trkpt><trkpt lat="46.21342443191766" lon="13.616936560456821"><ele>221.33333333333331</ele><time>2026-04-04T11:59:53.999Z</time></trkpt><trkpt lat="46.21339713098652" lon="13.617198088387141"><ele>216.0</ele><time>2026-04-04T11:59:54.999Z</time></trkpt><trkpt lat="46.2133504142686" lon="13.617453189118097"><ele>210.66666666666669</ele><time>2026-04-04T11:59:55.999Z</time></trkpt><trkpt lat="46.21326947048886" lon="13.617691713922449"><ele>205.33333333333334</ele><time>2026-04-04T11:59:56.999Z</time></trkpt><trkpt lat="46.213155530989525" lon="13.617917581171712"><ele>200.0</ele><time>2026-04-04T11:59:57.999Z</time></trkpt><trkpt lat="46.21303874457322" lon="13.6181498946343"><ele>206.33333333333334</ele><time>2026-04-04T11:59:58.999Z</time></trkpt><trkpt lat="46.21292967476663" lon="13.618396946495517"><ele>212.66666666666669</ele><time>2026-04-04T11:59:59.999Z</time></trkpt><trkpt lat="46.21283143519586" lon="13.618659238539285"><ele>219.0</ele><time>2026-04-04T12:00:00.999Z</time></trkpt><trkpt lat="46.21274031082681" lon="13.61892448126497"><ele>219.0</ele><time>2026-04-04T12:00:01.999Z</time></trkpt><trkpt lat="46.21264796946224" lon="13.619187617820442"><ele>219.0</ele><time>2026-04-04T12:00:02.999Z</time></trkpt><trkpt lat="46.21254893165047" lon="13.619443546097983"><ele>219.0</ele><time>2026-04-04T12:00:03.999Z</time></trkpt><trkpt lat="46.21243861647835" lon="13.619695448625777"><ele>216.66666666666669</ele><time>2026-04-04T12:00:04.999Z</time></trkpt><trkpt lat="46.212320379222355" lon="13.619941501325808"><ele>214.33333333333334</ele><time>2026-04-04T12:00:05.999Z</time></trkpt><trkpt lat="46.21219324441647" lon="13.620180080205667"><ele>212.0</ele><time>2026-04-04T12:00:06.999Z</time></trkpt><trkpt lat="46.2120612060044" lon="13.620405640499603"><ele>212.0</ele><time>2026-04-04T12:00:07.999Z</time></trkpt><trkpt lat="46.21193686352883" lon="13.620619249530245"><ele>212.0</ele><time>2026-04-04T12:00:08.999Z</time></trkpt><trkpt lat="46.211828792449815" lon="13.620854194623012"><ele>212.0</ele><time>2026-04-04T12:00:09.999Z</time></trkpt><trkpt lat="46.21173971581109" lon="13.621118289304768"><ele>207.0</ele><time>2026-04-04T12:00:10.999Z</time></trkpt><trkpt lat="46.21166574462833" lon="13.621395355805117"><ele>202.0</ele><time>2026-04-04T12:00:11.999Z</time></trkpt><trkpt lat="46.21160138601477" lon="13.621670508983556"><ele>197.0</ele><time>2026-04-04T12:00:12.999Z</time></trkpt><trkpt lat="46.211499654601596" lon="13.62192050940602"><ele>211.0</ele><time>2026-04-04T12:00:13.999Z</time></trkpt><trkpt lat="46.21143331923093" lon="13.622181774140534"><ele>225.0</ele><time>2026-04-04T12:00:14.999Z</time></trkpt><trkpt lat="46.211366543223264" lon="13.622440352859064"><ele>239.0</ele><time>2026-04-04T12:00:15.999Z</time></trkpt><trkpt lat="46.21129950263009" lon="13.62269571720245"><ele>231.33333333333334</ele><time>2026-04-04T12:00:16.999Z</time></trkpt><trkpt lat="46.211235468731644" lon="13.622939628742703"><ele>223.66666666666669</ele><time>2026-04-04T12:00:17.999Z</time></trkpt><trkpt lat="46.211172603991756" lon="13.62317562318354"><ele>216.0</ele><time>2026-04-04T12:00:18.999Z</time></trkpt><trkpt lat="46.21108903651641" lon="13.623386640821098"><ele>216.0</ele><time>2026-04-04T12:00:19.999Z</time></trkpt><trkpt lat="46.21098890960856" lon="13.623592222051336"><ele>216.0</ele><time>2026-04-04T12:00:20.999Z</time></trkpt><trkpt lat="46.21087566332546" lon="13.623801071445271"><ele>216.0</ele><time>2026-04-04T12:00:21.999Z</time></trkpt><trkpt lat="46.210760064986516" lon="13.624011061580752"><ele>218.33333333333331</ele><time>2026-04-04T12:00:22.999Z</time></trkpt><trkpt lat="46.2106468962319" lon="13.624220031725496"><ele>220.66666666666666</ele><time>2026-04-04T12:00:23.999Z</time></trkpt><trkpt lat="46.210543222657925" lon="13.624419757336705"><ele>223.0</ele><time>2026-04-04T12:00:24.999Z</time></trkpt><trkpt lat="46.21044755372661" lon="13.624640093287033"><ele>223.0</ele><time>2026-04-04T12:00:25.999Z</time></trkpt><trkpt lat="46.210392928005575" lon="13.624913956865493"><ele>223.0</ele><time>2026-04-04T12:00:26.999Z</time></trkpt><trkpt lat="46.210340441409876" lon="13.625182679221828"><ele>223.0</ele><time>2026-04-04T12:00:27.999Z</time></trkpt><trkpt lat="46.210288679596964" lon="13.625441108051145"><ele>221.0</ele><time>2026-04-04T12:00:28.999Z</time></trkpt><trkpt lat="46.210238073521055" lon="13.6256937665529"><ele>219.0</ele><time>2026-04-04T12:00:29.999Z</time></trkpt><trkpt lat="46.21018912546676" lon="13.62594240362227"><ele>217.0</ele><time>2026-04-04T12:00:30.999Z</time></trkpt><trkpt lat="46.21014234920174" lon="13.626183677610324"><ele>214.66666666666666</ele><time>2026-04-04T12:00:31.999Z</time></trkpt><trkpt lat="46.210147451584" lon="13.626432177690246"><ele>212.33333333333331</ele><time>2026-04-04T12:00:32.999Z</time></trkpt><trkpt lat="46.21014710157262" lon="13.626681684909153"><ele>210.0</ele><time>2026-04-04T12:00:33.999Z</time></trkpt><trkpt lat="46.210135857581335" lon="13.62694226278023"><ele>210.33333333333331</ele><time>2026-04-04T12:00:34.999Z</time></trkpt><trkpt lat="46.210139347536725" lon="13.62721241221685"><ele>210.66666666666666</ele><time>2026-04-04T12:00:35.999Z</time></trkpt><trkpt lat="46.21015070000805" lon="13.627486686641948"><ele>211.0</ele><time>2026-04-04T12:00:36.999Z</time></trkpt><trkpt lat="46.21017108473341" lon="13.627766716860434"><ele>213.66666666666666</ele><time>2026-04-04T12:00:37.999Z</time></trkpt><trkpt lat="46.21019876333517" lon="13.6280466789294"><ele>216.33333333333331</ele><time>2026-04-04T12:00:38.999Z</time></trkpt><trkpt lat="46.21025001082388" lon="13.628322614965839"><ele>219.0</ele><time>2026-04-04T12:00:39.999Z</time></trkpt><trkpt lat="46.21027050927072" lon="13.628605522490396"><ele>220.33333333333331</ele><time>2026-04-04T12:00:40.999Z</time></trkpt><trkpt lat="46.21030657061888" lon="13.628884595992153"><ele>221.66666666666666</ele><time>2026-04-04T12:00:41.999Z</time></trkpt><trkpt lat="46.21034251295415" lon="13.629162748436674"><ele>223.0</ele><time>2026-04-04T12:00:42.999Z</time></trkpt><trkpt lat="46.21039171324017" lon="13.629434721210705"><ele>222.0</ele><time>2026-04-04T12:00:43.999Z</time></trkpt><trkpt lat="46.210421994598754" lon="13.629709042618236"><ele>221.0</ele><time>2026-04-04T12:00:44.999Z</time></trkpt><trkpt lat="46.21045543334457" lon="13.629980560796621"><ele>220.0</ele><time>2026-04-04T12:00:45.998Z</time></trkpt><trkpt lat="46.21048978502222" lon="13.630245742734994"><ele>218.33333333333331</ele><time>2026-04-04T12:00:46.998Z</time></trkpt><trkpt lat="46.21050929467263" lon="13.630511981122229"><ele>216.66666666666669</ele><time>2026-04-04T12:00:48Z</time></trkpt><trkpt lat="46.21049288368285" lon="13.63078012857729"><ele>215.0</ele><time>2026-04-04T12:00:49Z</time></trkpt><trkpt lat="46.210482908889325" lon="13.631049049347649"><ele>212.66666666666669</ele><time>2026-04-04T12:00:49.999Z</time></trkpt><trkpt lat="46.21046559520717" lon="13.631323679258552"><ele>210.33333333333331</ele><time>2026-04-04T12:00:51Z</time></trkpt><trkpt lat="46.21042424970167" lon="13.631597476396612"><ele>208.0</ele><time>2026-04-04T12:00:52Z</time></trkpt><trkpt lat="46.21037695261087" lon="13.631871313168787"><ele>204.0</ele><time>2026-04-04T12:00:52.999Z</time></trkpt><trkpt lat="46.210326232801194" lon="13.632144372363333"><ele>200.0</ele><time>2026-04-04T12:00:53.999Z</time></trkpt><trkpt lat="46.21027029612808" lon="13.63241859217412"><ele>196.0</ele><time>2026-04-04T12:00:55Z</time></trkpt><trkpt lat="46.210217789983695" lon="13.632693965458877"><ele>193.0</ele><time>2026-04-04T12:00:55.999Z</time></trkpt><trkpt lat="46.210160446275204" lon="13.632969053244091"><ele>190.0</ele><time>2026-04-04T12:00:56.999Z</time></trkpt><trkpt lat="46.21009140102985" lon="13.633233464487915"><ele>187.0</ele><time>2026-04-04T12:00:58Z</time></trkpt><trkpt lat="46.21001607316809" lon="13.63347556651778"><ele>187.33333333333334</ele><time>2026-04-04T12:00:58.999Z</time></trkpt><trkpt lat="46.20992555506933" lon="13.633693468022402"><ele>187.66666666666666</ele><time>2026-04-04T12:00:59.999Z</time></trkpt><trkpt lat="46.20982947888162" lon="13.633905297848"><ele>188.0</ele><time>2026-04-04T12:01:01Z</time></trkpt><trkpt lat="46.20972599285889" lon="13.63409466838631"><ele>190.0</ele><time>2026-04-04T12:01:01.999Z</time></trkpt><trkpt lat="46.209621170959174" lon="13.634268014323512"><ele>192.0</ele><time>2026-04-04T12:01:02.999Z</time></trkpt><trkpt lat="46.20952577322539" lon="13.634426022694171"><ele>194.0</ele><time>2026-04-04T12:01:03.999Z</time></trkpt><trkpt lat="46.209436144867794" lon="13.634577647534552"><ele>196.0</ele><time>2026-04-04T12:01:04.999Z</time></trkpt><trkpt lat="46.20935799000041" lon="13.634721643401358"><ele>196.0</ele><time>2026-04-04T12:01:05.999Z</time></trkpt><trkpt lat="46.209301757238855" lon="13.63484538074366"><ele>196.0</ele><time>2026-04-04T12:01:06.999Z</time></trkpt><trkpt lat="46.2092610121475" lon="13.634936700268291"><ele>196.0</ele><time>2026-04-04T12:01:07.999Z</time></trkpt><trkpt lat="46.20922549805668" lon="13.635019157607148"><ele>196.0</ele><time>2026-04-04T12:01:09.999Z</time></trkpt><trkpt lat="46.20920192836805" lon="13.635107119494942"><ele>196.0</ele><time>2026-04-04T12:01:16.999Z</time></trkpt><trkpt lat="46.20937170521467" lon="13.635215677047603"><ele>196.0</ele><time>2026-04-04T12:01:17.999Z</time></trkpt><trkpt lat="46.209459152042946" lon="13.635241840230806"><ele>196.0</ele><time>2026-04-04T12:01:18.999Z</time></trkpt><trkpt lat="46.209564464094434" lon="13.635284504026655"><ele>196.0</ele><time>2026-04-04T12:01:19.999Z</time></trkpt><trkpt lat="46.20969914013421" lon="13.63531605200374"><ele>196.0</ele><time>2026-04-04T12:01:20.999Z</time></trkpt><trkpt lat="46.20985217078547" lon="13.635353860567415"><ele>191.33333333333331</ele><time>2026-04-04T12:01:21.999Z</time></trkpt><trkpt lat="46.21002195314517" lon="13.635379863667012"><ele>186.66666666666666</ele><time>2026-04-04T12:01:22.999Z</time></trkpt><trkpt lat="46.210197826921004" lon="13.635416054640885"><ele>182.0</ele><time>2026-04-04T12:01:23.999Z</time></trkpt><trkpt lat="46.210365765695585" lon="13.635451312459672"><ele>182.0</ele><time>2026-04-04T12:01:24.999Z</time></trkpt><trkpt lat="46.210526056745664" lon="13.635467730624503"><ele>182.0</ele><time>2026-04-04T12:01:25.999Z</time></trkpt><trkpt lat="46.21067805957946" lon="13.635487053709966"><ele>182.0</ele><time>2026-04-04T12:01:26.999Z</time></trkpt><trkpt lat="46.21081359896243" lon="13.635507842311313"><ele>181.6</ele><time>2026-04-04T12:01:27.999Z</time></trkpt><trkpt lat="46.21094105758103" lon="13.635525787288367"><ele>181.2</ele><time>2026-04-04T12:01:28.999Z</time></trkpt><trkpt lat="46.2110557438265" lon="13.635535195831919"><ele>180.8</ele><time>2026-04-04T12:01:29.999Z</time></trkpt><trkpt lat="46.211146351687816" lon="13.635553085696513"><ele>180.4</ele><time>2026-04-04T12:01:30.999Z</time></trkpt><trkpt lat="46.211203663250195" lon="13.635596134635238"><ele>180.0</ele><time>2026-04-04T12:01:31.999Z</time></trkpt><trkpt lat="46.21122482426977" lon="13.635770106221186"><ele>180.0</ele><time>2026-04-04T12:01:33.999Z</time></trkpt><trkpt lat="46.21123630011225" lon="13.635885903779364"><ele>180.0</ele><time>2026-04-04T12:01:34.999Z</time></trkpt><trkpt lat="46.21123291321487" lon="13.636028090453697"><ele>180.0</ele><time>2026-04-04T12:01:35.999Z</time></trkpt><trkpt lat="46.21125268486555" lon="13.636197541082014"><ele>180.0</ele><time>2026-04-04T12:01:36.999Z</time></trkpt><trkpt lat="46.21128876730802" lon="13.636343369461512"><ele>180.0</ele><time>2026-04-04T12:01:37.999Z</time></trkpt><trkpt lat="46.21133238961972" lon="13.63644660563736"><ele>180.0</ele><time>2026-04-04T12:01:38.999Z</time></trkpt><trkpt lat="46.211401566725314" lon="13.636509986805763"><ele>180.0</ele><time>2026-04-04T12:01:39.999Z</time></trkpt><trkpt lat="46.211490448757715" lon="13.63652648273168"><ele>180.0</ele><time>2026-04-04T12:01:40.999Z</time></trkpt><trkpt lat="46.211596957388664" lon="13.636518995083568"><ele>180.0</ele><time>2026-04-04T12:01:41.999Z</time></trkpt><trkpt lat="46.21172165854613" lon="13.63651960059107"><ele>180.0</ele><time>2026-04-04T12:01:42.999Z</time></trkpt><trkpt lat="46.21185950511748" lon="13.636530718049213"><ele>182.75</ele><time>2026-04-04T12:01:43.999Z</time></trkpt><trkpt lat="46.211997241696466" lon="13.636539764465663"><ele>185.5</ele><time>2026-04-04T12:01:44.999Z</time></trkpt><trkpt lat="46.21212132854545" lon="13.636594075828134"><ele>188.25</ele><time>2026-04-04T12:01:45.999Z</time></trkpt><trkpt lat="46.212236059941525" lon="13.636645043353223"><ele>191.0</ele><time>2026-04-04T12:01:46.999Z</time></trkpt><trkpt lat="46.21233525746268" lon="13.636693569213268"><ele>193.4</ele><time>2026-04-04T12:01:47.999Z</time></trkpt><trkpt lat="46.21242546358216" lon="13.636719202604601"><ele>195.8</ele><time>2026-04-04T12:01:48.999Z</time></trkpt><trkpt lat="46.21253120985002" lon="13.636735412128829"><ele>198.20000000000002</ele><time>2026-04-04T12:01:49.999Z</time></trkpt><trkpt lat="46.212636049260865" lon="13.636729972948016"><ele>200.60000000000002</ele><time>2026-04-04T12:01:50.999Z</time></trkpt><trkpt lat="46.212733800349824" lon="13.63669524621095"><ele>203.0</ele><time>2026-04-04T12:01:51.999Z</time></trkpt><trkpt lat="46.21282619380373" lon="13.636719523753804"><ele>203.00000000000003</ele><time>2026-04-04T12:01:52.999Z</time></trkpt><trkpt lat="46.2129085182657" lon="13.636732012639051"><ele>203.0</ele><time>2026-04-04T12:01:53.999Z</time></trkpt><trkpt lat="46.21298851284096" lon="13.63675481661125"><ele>203.0</ele><time>2026-04-04T12:01:54.999Z</time></trkpt><trkpt lat="46.21306864947076" lon="13.63677396434317"><ele>203.0</ele><time>2026-04-04T12:01:55.999Z</time></trkpt><trkpt lat="46.213145746673206" lon="13.636798629723364"><ele>203.00000000000003</ele><time>2026-04-04T12:01:56.999Z</time></trkpt><trkpt lat="46.213208233283375" lon="13.636831989814853"><ele>203.0</ele><time>2026-04-04T12:01:57.999Z</time></trkpt><trkpt lat="46.21326710395453" lon="13.636885229152998"><ele>204.0</ele><time>2026-04-04T12:01:58.999Z</time></trkpt><trkpt lat="46.213324859014094" lon="13.636961910345077"><ele>205.0</ele><time>2026-04-04T12:01:59.999Z</time></trkpt><trkpt lat="46.21338247422465" lon="13.637021863031187"><ele>206.0</ele><time>2026-04-04T12:02:00.999Z</time></trkpt><trkpt lat="46.21346855311662" lon="13.637065295250771"><ele>207.0</ele><time>2026-04-04T12:02:02.999Z</time></trkpt><trkpt lat="46.21351931152568" lon="13.63722548460959"><ele>208.0</ele><time>2026-04-04T12:02:04.999Z</time></trkpt><trkpt lat="46.21355962453736" lon="13.637338002758984"><ele>207.99999999999997</ele><time>2026-04-04T12:02:05.999Z</time></trkpt><trkpt lat="46.21361339431139" lon="13.637405916373096"><ele>208.0</ele><time>2026-04-04T12:02:06.999Z</time></trkpt><trkpt lat="46.21367118038692" lon="13.637462397349918"><ele>208.0</ele><time>2026-04-04T12:02:08.999Z</time></trkpt><trkpt lat="46.21375242911205" lon="13.63748117176241"><ele>208.0</ele><time>2026-04-04T12:02:11.999Z</time></trkpt><trkpt lat="46.2137837297294" lon="13.637323779097716"><ele>207.99999999999997</ele><time>2026-04-04T12:02:12.999Z</time></trkpt><trkpt lat="46.21377854218085" lon="13.637221544701811"><ele>208.0</ele><time>2026-04-04T12:02:13.999Z</time></trkpt><trkpt lat="46.21377549165519" lon="13.63710708987412"><ele>208.0</ele><time>2026-04-04T12:02:14.999Z</time></trkpt><trkpt lat="46.2137435125807" lon="13.63697674247477"><ele>208.0</ele><time>2026-04-04T12:02:15.999Z</time></trkpt><trkpt lat="46.21369304511326" lon="13.636831953987173"><ele>208.0</ele><time>2026-04-04T12:02:16.999Z</time></trkpt><trkpt lat="46.21366153836444" lon="13.636677453442454"><ele>208.0</ele><time>2026-04-04T12:02:17.999Z</time></trkpt><trkpt lat="46.213628582646386" lon="13.636530172341347"><ele>208.0</ele><time>2026-04-04T12:02:18.999Z</time></trkpt><trkpt lat="46.21360434861616" lon="13.636393757745502"><ele>208.2</ele><time>2026-04-04T12:02:19.999Z</time></trkpt><trkpt lat="46.21360180653898" lon="13.636253409411204"><ele>208.4</ele><time>2026-04-04T12:02:20.999Z</time></trkpt><trkpt lat="46.21362389798427" lon="13.636106693358304"><ele>208.6</ele><time>2026-04-04T12:02:21.999Z</time></trkpt><trkpt lat="46.213653178735875" lon="13.635949192822846"><ele>208.79999999999998</ele><time>2026-04-04T12:02:22.999Z</time></trkpt><trkpt lat="46.2136616385579" lon="13.635778457540514"><ele>209.0</ele><time>2026-04-04T12:02:24Z</time></trkpt><trkpt lat="46.21364300422426" lon="13.635612130458071"><ele>209.0</ele><time>2026-04-04T12:02:25Z</time></trkpt><trkpt lat="46.21362308611816" lon="13.635455153132495"><ele>209.0</ele><time>2026-04-04T12:02:26Z</time></trkpt><trkpt lat="46.21359239706147" lon="13.635289026051108"><ele>209.0</ele><time>2026-04-04T12:02:27Z</time></trkpt><trkpt lat="46.21354008341964" lon="13.635112860276042"><ele>209.0</ele><time>2026-04-04T12:02:28Z</time></trkpt><trkpt lat="46.21348563791857" lon="13.634919007649376"><ele>208.75</ele><time>2026-04-04T12:02:29Z</time></trkpt><trkpt lat="46.21343472040309" lon="13.634724938087253"><ele>208.5</ele><time>2026-04-04T12:02:30Z</time></trkpt><trkpt lat="46.21339458123369" lon="13.634544826288012"><ele>208.25</ele><time>2026-04-04T12:02:31Z</time></trkpt><trkpt lat="46.213362766761996" lon="13.63437954444793"><ele>208.0</ele><time>2026-04-04T12:02:32Z</time></trkpt><trkpt lat="46.21334480743632" lon="13.634230044095485"><ele>207.8</ele><time>2026-04-04T12:02:33Z</time></trkpt><trkpt lat="46.21334491638743" lon="13.634091258601742"><ele>207.60000000000002</ele><time>2026-04-04T12:02:34Z</time></trkpt><trkpt lat="46.21336626274796" lon="13.633961589492372"><ele>207.39999999999998</ele><time>2026-04-04T12:02:35Z</time></trkpt><trkpt lat="46.21341422542698" lon="13.633848228073724"><ele>207.2</ele><time>2026-04-04T12:02:36Z</time></trkpt><trkpt lat="46.2134908718218" lon="13.633754505356015"><ele>207.0</ele><time>2026-04-04T12:02:37Z</time></trkpt><trkpt lat="46.21357396328258" lon="13.633664032737832"><ele>206.8</ele><time>2026-04-04T12:02:38Z</time></trkpt><trkpt lat="46.21363442734026" lon="13.63355672434755"><ele>206.6</ele><time>2026-04-04T12:02:39Z</time></trkpt><trkpt lat="46.21366218752833" lon="13.633426872157637"><ele>206.4</ele><time>2026-04-04T12:02:40Z</time></trkpt><trkpt lat="46.213648670449885" lon="13.633288416310512"><ele>206.20000000000002</ele><time>2026-04-04T12:02:41Z</time></trkpt><trkpt lat="46.21359695667942" lon="13.633156690953808"><ele>206.0</ele><time>2026-04-04T12:02:42Z</time></trkpt><trkpt lat="46.21350607385573" lon="13.633044734106104"><ele>206.0</ele><time>2026-04-04T12:02:43Z</time></trkpt><trkpt lat="46.213407876213" lon="13.632907035433872"><ele>206.0</ele><time>2026-04-04T12:02:44Z</time></trkpt><trkpt lat="46.21331144433753" lon="13.632792690065527"><ele>206.0</ele><time>2026-04-04T12:02:45Z</time></trkpt><trkpt lat="46.21322669648214" lon="13.632691626492676"><ele>206.0</ele><time>2026-04-04T12:02:46Z</time></trkpt><trkpt lat="46.21316977915424" lon="13.632542223280899"><ele>205.0</ele><time>2026-04-04T12:02:47Z</time></trkpt><trkpt lat="46.213126479314525" lon="13.632365479166536"><ele>204.0</ele><time>2026-04-04T12:02:47.999Z</time></trkpt><trkpt lat="46.21309780474893" lon="13.632163273035788"><ele>203.0</ele><time>2026-04-04T12:02:48.999Z</time></trkpt><trkpt lat="46.21309508203019" lon="13.631943877840124"><ele>202.0</ele><time>2026-04-04T12:02:49.999Z</time></trkpt><trkpt lat="46.21310338781294" lon="13.63170125296984"><ele>202.0</ele><time>2026-04-04T12:02:50.999Z</time></trkpt><trkpt lat="46.21311395235111" lon="13.63144293653351"><ele>202.0</ele><time>2026-04-04T12:02:51.999Z</time></trkpt><trkpt lat="46.21311106896621" lon="13.631167911001148"><ele>202.0</ele><time>2026-04-04T12:02:52.999Z</time></trkpt><trkpt lat="46.213092695885265" lon="13.63090205577257"><ele>201.66666666666666</ele><time>2026-04-04T12:02:54Z</time></trkpt><trkpt lat="46.213075208410324" lon="13.630645951702542"><ele>201.33333333333331</ele><time>2026-04-04T12:02:55Z</time></trkpt><trkpt lat="46.21306719886908" lon="13.630396773727263"><ele>201.0</ele><time>2026-04-04T12:02:56Z</time></trkpt><trkpt lat="46.2130369159238" lon="13.630142888837057"><ele>201.0</ele><time>2026-04-04T12:02:57Z</time></trkpt><trkpt lat="46.213005530158696" lon="13.629870486688716"><ele>201.0</ele><time>2026-04-04T12:02:58Z</time></trkpt><trkpt lat="46.21294645702708" lon="13.629612500155824"><ele>201.0</ele><time>2026-04-04T12:02:59Z</time></trkpt><trkpt lat="46.21290275357807" lon="13.629365327658451"><ele>201.0</ele><time>2026-04-04T12:03:00Z</time></trkpt><trkpt lat="46.212853409099786" lon="13.629141472462727"><ele>201.0</ele><time>2026-04-04T12:03:01Z</time></trkpt><trkpt lat="46.212792495485296" lon="13.628918153888268"><ele>201.0</ele><time>2026-04-04T12:03:02Z</time></trkpt><trkpt lat="46.212740588653276" lon="13.628719006729135"><ele>201.0</ele><time>2026-04-04T12:03:03Z</time></trkpt><trkpt lat="46.21270832335595" lon="13.628501764017049"><ele>201.0</ele><time>2026-04-04T12:03:04Z</time></trkpt><trkpt lat="46.21270512600282" lon="13.628277355817652"><ele>201.0</ele><time>2026-04-04T12:03:05Z</time></trkpt><trkpt lat="46.21274071431337" lon="13.628051121774924"><ele>201.0</ele><time>2026-04-04T12:03:06Z</time></trkpt><trkpt lat="46.21281549477821" lon="13.627816047224098"><ele>201.0</ele><time>2026-04-04T12:03:07Z</time></trkpt><trkpt lat="46.21290227873004" lon="13.627562837550338"><ele>201.0</ele><time>2026-04-04T12:03:08Z</time></trkpt><trkpt lat="46.21298486140345" lon="13.627293658366012"><ele>200.66666666666669</ele><time>2026-04-04T12:03:09Z</time></trkpt><trkpt lat="46.213059232494395" lon="13.62703823842956"><ele>200.33333333333334</ele><time>2026-04-04T12:03:10Z</time></trkpt><trkpt lat="46.21311593373073" lon="13.626809154188823"><ele>200.0</ele><time>2026-04-04T12:03:11Z</time></trkpt><trkpt lat="46.213169495925776" lon="13.626589248146242"><ele>201.66666666666669</ele><time>2026-04-04T12:03:12Z</time></trkpt><trkpt lat="46.21324686408117" lon="13.62637577469763"><ele>203.33333333333331</ele><time>2026-04-04T12:03:13Z</time></trkpt><trkpt lat="46.21335395014518" lon="13.626162581414992"><ele>205.0</ele><time>2026-04-04T12:03:14Z</time></trkpt><trkpt lat="46.21348102814715" lon="13.625943668210486"><ele>205.0</ele><time>2026-04-04T12:03:15Z</time></trkpt><trkpt lat="46.21361542644201" lon="13.62570108866368"><ele>205.0</ele><time>2026-04-04T12:03:16Z</time></trkpt><trkpt lat="46.21375682346805" lon="13.625436704524592"><ele>205.0</ele><time>2026-04-04T12:03:17Z</time></trkpt><trkpt lat="46.213899621634766" lon="13.625163897639778"><ele>205.5</ele><time>2026-04-04T12:03:18Z</time></trkpt><trkpt lat="46.21404010947661" lon="13.624877743944252"><ele>206.0</ele><time>2026-04-04T12:03:19Z</time></trkpt><trkpt lat="46.21417148523235" lon="13.624599069858734"><ele>205.0</ele><time>2026-04-04T12:03:20Z</time></trkpt><trkpt lat="46.21429536250688" lon="13.62433363235532"><ele>204.0</ele><time>2026-04-04T12:03:21Z</time></trkpt><trkpt lat="46.21440697471345" lon="13.624069917534545"><ele>203.0</ele><time>2026-04-04T12:03:22Z</time></trkpt><trkpt lat="46.214508836921205" lon="13.623788553202894"><ele>202.33333333333334</ele><time>2026-04-04T12:03:23Z</time></trkpt><trkpt lat="46.21459734470849" lon="13.623501671640154"><ele>201.66666666666669</ele><time>2026-04-04T12:03:24Z</time></trkpt><trkpt lat="46.21468279265783" lon="13.62321765070125"><ele>201.0</ele><time>2026-04-04T12:03:25Z</time></trkpt><trkpt lat="46.214779739764666" lon="13.622948736420605"><ele>202.0</ele><time>2026-04-04T12:03:26Z</time></trkpt><trkpt lat="46.21489778878072" lon="13.622704893388727"><ele>203.0</ele><time>2026-04-04T12:03:27Z</time></trkpt><trkpt lat="46.21502580075439" lon="13.622468766127627"><ele>204.0</ele><time>2026-04-04T12:03:28Z</time></trkpt><trkpt lat="46.21514153395699" lon="13.622213385428775"><ele>202.66666666666669</ele><time>2026-04-04T12:03:29Z</time></trkpt><trkpt lat="46.21525545589889" lon="13.621951378322104"><ele>201.33333333333334</ele><time>2026-04-04T12:03:30Z</time></trkpt><trkpt lat="46.21538329756273" lon="13.621703512027839"><ele>200.0</ele><time>2026-04-04T12:03:31Z</time></trkpt><trkpt lat="46.215511435129855" lon="13.621460548495817"><ele>200.0</ele><time>2026-04-04T12:03:32Z</time></trkpt><trkpt lat="46.21564176197051" lon="13.62122332293731"><ele>200.0</ele><time>2026-04-04T12:03:33Z</time></trkpt><trkpt lat="46.21577507035494" lon="13.620997041446143"><ele>200.0</ele><time>2026-04-04T12:03:34Z</time></trkpt><trkpt lat="46.21590736882668" lon="13.620778340940793"><ele>199.66666666666669</ele><time>2026-04-04T12:03:35Z</time></trkpt><trkpt lat="46.21603566774299" lon="13.620556081409706"><ele>199.33333333333331</ele><time>2026-04-04T12:03:36Z</time></trkpt><trkpt lat="46.216159953066175" lon="13.620336182074873"><ele>199.0</ele><time>2026-04-04T12:03:37Z</time></trkpt><trkpt lat="46.216280783114044" lon="13.62013013217172"><ele>199.0</ele><time>2026-04-04T12:03:38Z</time></trkpt><trkpt lat="46.21641300419556" lon="13.619937764581339"><ele>199.0</ele><time>2026-04-04T12:03:39Z</time></trkpt><trkpt lat="46.21656518115692" lon="13.619752662875406"><ele>199.0</ele><time>2026-04-04T12:03:40Z</time></trkpt><trkpt lat="46.21672634102111" lon="13.619562698017269"><ele>199.66666666666666</ele><time>2026-04-04T12:03:41Z</time></trkpt><trkpt lat="46.21688899682646" lon="13.619359266309763"><ele>200.33333333333331</ele><time>2026-04-04T12:03:42Z</time></trkpt><trkpt lat="46.21705235047712" lon="13.619152772879527"><ele>201.0</ele><time>2026-04-04T12:03:43Z</time></trkpt><trkpt lat="46.21721226239572" lon="13.618949035578485"><ele>200.33333333333331</ele><time>2026-04-04T12:03:44Z</time></trkpt><trkpt lat="46.21736615584804" lon="13.61875553003574"><ele>199.66666666666666</ele><time>2026-04-04T12:03:45Z</time></trkpt><trkpt lat="46.21751956522329" lon="13.618568963469324"><ele>199.0</ele><time>2026-04-04T12:03:46Z</time></trkpt><trkpt lat="46.21767502067415" lon="13.618388361154286"><ele>199.0</ele><time>2026-04-04T12:03:47Z</time></trkpt><trkpt lat="46.21783571736676" lon="13.618211225476724"><ele>199.0</ele><time>2026-04-04T12:03:48Z</time></trkpt><trkpt lat="46.2179994198078" lon="13.618048950290472"><ele>199.0</ele><time>2026-04-04T12:03:49Z</time></trkpt><trkpt lat="46.21815589605801" lon="13.61790227852151"><ele>198.66666666666666</ele><time>2026-04-04T12:03:50Z</time></trkpt><trkpt lat="46.21830247696339" lon="13.617765026737104"><ele>198.33333333333331</ele><time>2026-04-04T12:03:51Z</time></trkpt><trkpt lat="46.21844418506819" lon="13.61762463251068"><ele>198.0</ele><time>2026-04-04T12:03:52Z</time></trkpt><trkpt lat="46.21857239654799" lon="13.617494567737237"><ele>198.0</ele><time>2026-04-04T12:03:53Z</time></trkpt><trkpt lat="46.21869859738102" lon="13.617400246784094"><ele>198.0</ele><time>2026-04-04T12:03:54Z</time></trkpt><trkpt lat="46.21881665747428" lon="13.617292000584476"><ele>198.0</ele><time>2026-04-04T12:03:55Z</time></trkpt><trkpt lat="46.21896509044091" lon="13.61722994971707"><ele>198.0</ele><time>2026-04-04T12:03:56Z</time></trkpt><trkpt lat="46.21911749019342" lon="13.617201259484071"><ele>200.0</ele><time>2026-04-04T12:03:57Z</time></trkpt><trkpt lat="46.2192836730077" lon="13.617204121444615"><ele>202.0</ele><time>2026-04-04T12:03:58Z</time></trkpt><trkpt lat="46.21946727262619" lon="13.617227105837664"><ele>204.0</ele><time>2026-04-04T12:03:59Z</time></trkpt><trkpt lat="46.219660881154226" lon="13.617245417988837"><ele>203.66666666666669</ele><time>2026-04-04T12:04:00Z</time></trkpt><trkpt lat="46.219866808894984" lon="13.617253994402795"><ele>203.33333333333334</ele><time>2026-04-04T12:04:01Z</time></trkpt><trkpt lat="46.22007048951849" lon="13.617268695979995"><ele>203.0</ele><time>2026-04-04T12:04:02Z</time></trkpt><trkpt lat="46.22027712531692" lon="13.617252207943256"><ele>203.0</ele><time>2026-04-04T12:04:03Z</time></trkpt><trkpt lat="46.22048504962516" lon="13.617189654580073"><ele>203.0</ele><time>2026-04-04T12:04:04Z</time></trkpt><trkpt lat="46.22069655340939" lon="13.61709924622837"><ele>203.0</ele><time>2026-04-04T12:04:05Z</time></trkpt><trkpt lat="46.22090343978477" lon="13.617009387808098"><ele>201.0</ele><time>2026-04-04T12:04:06Z</time></trkpt><trkpt lat="46.22109535581623" lon="13.616943143289342"><ele>199.0</ele><time>2026-04-04T12:04:07Z</time></trkpt><trkpt lat="46.221274953540345" lon="13.616914912123066"><ele>197.0</ele><time>2026-04-04T12:04:08Z</time></trkpt><trkpt lat="46.22143903966561" lon="13.616902607207944"><ele>199.0</ele><time>2026-04-04T12:04:09Z</time></trkpt><trkpt lat="46.22159253268862" lon="13.616857891441386"><ele>201.0</ele><time>2026-04-04T12:04:10Z</time></trkpt><trkpt lat="46.22172494565447" lon="13.61676717435847"><ele>203.0</ele><time>2026-04-04T12:04:11Z</time></trkpt><trkpt lat="46.22184644263699" lon="13.616630050996951"><ele>203.0</ele><time>2026-04-04T12:04:12Z</time></trkpt><trkpt lat="46.22194804634872" lon="13.61646025765434"><ele>203.0</ele><time>2026-04-04T12:04:13Z</time></trkpt><trkpt lat="46.22205972132168" lon="13.61630033647194"><ele>203.0</ele><time>2026-04-04T12:04:14Z</time></trkpt><trkpt lat="46.222186106195224" lon="13.616150450669888"><ele>200.66666666666669</ele><time>2026-04-04T12:04:15Z</time></trkpt><trkpt lat="46.22230650318606" lon="13.615961054656367"><ele>198.33333333333331</ele><time>2026-04-04T12:04:16Z</time></trkpt><trkpt lat="46.22241894046355" lon="13.615738359097477"><ele>196.0</ele><time>2026-04-04T12:04:17Z</time></trkpt><trkpt lat="46.22253438914081" lon="13.615518687032038"><ele>197.0</ele><time>2026-04-04T12:04:18Z</time></trkpt><trkpt lat="46.222646916599054" lon="13.615337497229026"><ele>198.0</ele><time>2026-04-04T12:04:19Z</time></trkpt><trkpt lat="46.222733794586574" lon="13.61515352073773"><ele>199.0</ele><time>2026-04-04T12:04:20Z</time></trkpt><trkpt lat="46.22279925769919" lon="13.61496462946822"><ele>199.0</ele><time>2026-04-04T12:04:21Z</time></trkpt><trkpt lat="46.22288437273637" lon="13.614805295525697"><ele>199.0</ele><time>2026-04-04T12:04:22Z</time></trkpt><trkpt lat="46.22298752680433" lon="13.61467949315664"><ele>199.0</ele><time>2026-04-04T12:04:23Z</time></trkpt><trkpt lat="46.223089478873625" lon="13.614591563412137"><ele>199.0</ele><time>2026-04-04T12:04:24Z</time></trkpt><trkpt lat="46.22321927110406" lon="13.614585329552833"><ele>197.0</ele><time>2026-04-04T12:04:25Z</time></trkpt><trkpt lat="46.22337431342729" lon="13.614573779101692"><ele>195.0</ele><time>2026-04-04T12:04:26Z</time></trkpt><trkpt lat="46.22354169177398" lon="13.614505747486247"><ele>193.0</ele><time>2026-04-04T12:04:27Z</time></trkpt><trkpt lat="46.22372224084696" lon="13.614427618540562"><ele>193.0</ele><time>2026-04-04T12:04:28Z</time></trkpt><trkpt lat="46.22390183253794" lon="13.614352483445675"><ele>193.0</ele><time>2026-04-04T12:04:29Z</time></trkpt><trkpt lat="46.22405978243844" lon="13.614271776076984"><ele>193.0</ele><time>2026-04-04T12:04:30Z</time></trkpt><trkpt lat="46.224212113455486" lon="13.614143720129041"><ele>195.66666666666666</ele><time>2026-04-04T12:04:31Z</time></trkpt><trkpt lat="46.22435921773007" lon="13.613979423715781"><ele>198.33333333333331</ele><time>2026-04-04T12:04:32Z</time></trkpt><trkpt lat="46.224506131992314" lon="13.613841425286186"><ele>201.0</ele><time>2026-04-04T12:04:33Z</time></trkpt><trkpt lat="46.22463480818411" lon="13.613695390910793"><ele>199.66666666666669</ele><time>2026-04-04T12:04:34Z</time></trkpt><trkpt lat="46.22477854279966" lon="13.6135882465181"><ele>198.33333333333334</ele><time>2026-04-04T12:04:35Z</time></trkpt><trkpt lat="46.22492307383826" lon="13.613488004914831"><ele>197.0</ele><time>2026-04-04T12:04:36Z</time></trkpt><trkpt lat="46.225067773629384" lon="13.613391849266838"><ele>197.0</ele><time>2026-04-04T12:04:37Z</time></trkpt><trkpt lat="46.225208352457074" lon="13.613289857034237"><ele>197.0</ele><time>2026-04-04T12:04:38Z</time></trkpt><trkpt lat="46.225335112655735" lon="13.613195169855118"><ele>197.0</ele><time>2026-04-04T12:04:39Z</time></trkpt><trkpt lat="46.22545428185048" lon="13.613118197389172"><ele>197.0</ele><time>2026-04-04T12:04:40Z</time></trkpt><trkpt lat="46.225570429768396" lon="13.613071798334165"><ele>198.75</ele><time>2026-04-04T12:04:41Z</time></trkpt><trkpt lat="46.22569530707345" lon="13.613109166239045"><ele>200.5</ele><time>2026-04-04T12:04:42Z</time></trkpt><trkpt lat="46.22584045451401" lon="13.613106155542996"><ele>202.25</ele><time>2026-04-04T12:04:43Z</time></trkpt><trkpt lat="46.2259951802851" lon="13.613132656158582"><ele>204.0</ele><time>2026-04-04T12:04:44Z</time></trkpt><trkpt lat="46.22616404450439" lon="13.613158998717356"><ele>204.0</ele><time>2026-04-04T12:04:45Z</time></trkpt><trkpt lat="46.22634445407218" lon="13.613212531046068"><ele>204.0</ele><time>2026-04-04T12:04:46Z</time></trkpt><trkpt lat="46.22653882776057" lon="13.613222985811044"><ele>204.0</ele><time>2026-04-04T12:04:47Z</time></trkpt><trkpt lat="46.22673743533291" lon="13.613258071059466"><ele>201.33333333333331</ele><time>2026-04-04T12:04:48Z</time></trkpt><trkpt lat="46.22692359736732" lon="13.613289175404491"><ele>198.66666666666666</ele><time>2026-04-04T12:04:49Z</time></trkpt><trkpt lat="46.22708906512833" lon="13.6133200239015"><ele>196.0</ele><time>2026-04-04T12:04:50Z</time></trkpt><trkpt lat="46.22724322710608" lon="13.613340148811226"><ele>197.33333333333331</ele><time>2026-04-04T12:04:51Z</time></trkpt><trkpt lat="46.22740180246993" lon="13.613328115586942"><ele>198.66666666666669</ele><time>2026-04-04T12:04:52Z</time></trkpt><trkpt lat="46.22755559759382" lon="13.613274773467115"><ele>200.0</ele><time>2026-04-04T12:04:53Z</time></trkpt><trkpt lat="46.2277068731048" lon="13.61317661379463"><ele>200.0</ele><time>2026-04-04T12:04:54Z</time></trkpt><trkpt lat="46.22785199941373" lon="13.613047293770743"><ele>200.0</ele><time>2026-04-04T12:04:54.999Z</time></trkpt><trkpt lat="46.22799260062766" lon="13.612907378831054"><ele>200.0</ele><time>2026-04-04T12:04:55.999Z</time></trkpt><trkpt lat="46.228130134657505" lon="13.612762128318172"><ele>198.33333333333334</ele><time>2026-04-04T12:04:56.999Z</time></trkpt><trkpt lat="46.22826542351906" lon="13.612615352910147"><ele>196.66666666666669</ele><time>2026-04-04T12:04:57.999Z</time></trkpt><trkpt lat="46.2283978027769" lon="13.612462483895731"><ele>195.0</ele><time>2026-04-04T12:04:58.999Z</time></trkpt><trkpt lat="46.22853652341262" lon="13.61230399109844"><ele>195.0</ele><time>2026-04-04T12:05:00Z</time></trkpt><trkpt lat="46.228686404134734" lon="13.612146853272915"><ele>195.0</ele><time>2026-04-04T12:05:01Z</time></trkpt><trkpt lat="46.22883576901086" lon="13.611987084681983"><ele>195.0</ele><time>2026-04-04T12:05:02Z</time></trkpt><trkpt lat="46.228984958917394" lon="13.611824114095365"><ele>194.33333333333331</ele><time>2026-04-04T12:05:03Z</time></trkpt><trkpt lat="46.229136236633444" lon="13.611663770179156"><ele>193.66666666666666</ele><time>2026-04-04T12:05:04Z</time></trkpt><trkpt lat="46.22928959120482" lon="13.61150289125727"><ele>193.0</ele><time>2026-04-04T12:05:05Z</time></trkpt><trkpt lat="46.229443496450166" lon="13.611334669805144"><ele>193.0</ele><time>2026-04-04T12:05:06Z</time></trkpt><trkpt lat="46.229611285634064" lon="13.611187355957071"><ele>193.0</ele><time>2026-04-04T12:05:07Z</time></trkpt><trkpt lat="46.22976476154845" lon="13.61099922460654"><ele>193.0</ele><time>2026-04-04T12:05:08Z</time></trkpt><trkpt lat="46.229931316277224" lon="13.610825525209954"><ele>193.0</ele><time>2026-04-04T12:05:09Z</time></trkpt><trkpt lat="46.23009787541849" lon="13.610644561749785"><ele>193.0</ele><time>2026-04-04T12:05:10Z</time></trkpt><trkpt lat="46.23026404350793" lon="13.610468680432712"><ele>193.0</ele><time>2026-04-04T12:05:11Z</time></trkpt><trkpt lat="46.23042364841207" lon="13.610297170906138"><ele>192.66666666666666</ele><time>2026-04-04T12:05:12Z</time></trkpt><trkpt lat="46.23057982284274" lon="13.610128426771906"><ele>192.33333333333331</ele><time>2026-04-04T12:05:13Z</time></trkpt><trkpt lat="46.230737263336565" lon="13.609969064189052"><ele>192.0</ele><time>2026-04-04T12:05:14Z</time></trkpt><trkpt lat="46.23089872259578" lon="13.609817167868814"><ele>192.33333333333331</ele><time>2026-04-04T12:05:15Z</time></trkpt><trkpt lat="46.23106463680606" lon="13.609669199833977"><ele>192.66666666666666</ele><time>2026-04-04T12:05:16Z</time></trkpt><trkpt lat="46.2312341644794" lon="13.609529979623789"><ele>193.0</ele><time>2026-04-04T12:05:17Z</time></trkpt><trkpt lat="46.231408020859064" lon="13.609398218405095"><ele>194.0</ele><time>2026-04-04T12:05:18Z</time></trkpt><trkpt lat="46.23158155705512" lon="13.60926544704037"><ele>195.0</ele><time>2026-04-04T12:05:19Z</time></trkpt><trkpt lat="46.231751961015696" lon="13.609124447131467"><ele>196.0</ele><time>2026-04-04T12:05:20Z</time></trkpt><trkpt lat="46.231921639564796" lon="13.608982841747787"><ele>196.0</ele><time>2026-04-04T12:05:21Z</time></trkpt><trkpt lat="46.23210007401326" lon="13.608870587998668"><ele>196.0</ele><time>2026-04-04T12:05:22Z</time></trkpt><trkpt lat="46.232259386035736" lon="13.608710355086725"><ele>196.0</ele><time>2026-04-04T12:05:23Z</time></trkpt><trkpt lat="46.23241360670398" lon="13.608550953014994"><ele>196.33333333333331</ele><time>2026-04-04T12:05:24Z</time></trkpt><trkpt lat="46.23255167217088" lon="13.608357296582792"><ele>196.66666666666669</ele><time>2026-04-04T12:05:25Z</time></trkpt><trkpt lat="46.23267931102249" lon="13.60814674685169"><ele>197.0</ele><time>2026-04-04T12:05:26Z</time></trkpt><trkpt lat="46.23279700953118" lon="13.607925536267732"><ele>195.66666666666669</ele><time>2026-04-04T12:05:27Z</time></trkpt><trkpt lat="46.232908273710855" lon="13.607699529505778"><ele>194.33333333333331</ele><time>2026-04-04T12:05:28Z</time></trkpt><trkpt lat="46.23302233461389" lon="13.607481038602403"><ele>193.0</ele><time>2026-04-04T12:05:29Z</time></trkpt><trkpt lat="46.23313370287595" lon="13.607264172371604"><ele>193.33333333333331</ele><time>2026-04-04T12:05:30Z</time></trkpt><trkpt lat="46.23323853298124" lon="13.607051239473982"><ele>193.66666666666669</ele><time>2026-04-04T12:05:31Z</time></trkpt><trkpt lat="46.2333376281442" lon="13.606854466157756"><ele>194.0</ele><time>2026-04-04T12:05:32Z</time></trkpt><trkpt lat="46.23342680434304" lon="13.606678974515896"><ele>194.0</ele><time>2026-04-04T12:05:33Z</time></trkpt><trkpt lat="46.23350417840791" lon="13.606514758476882"><ele>194.0</ele><time>2026-04-04T12:05:34Z</time></trkpt><trkpt lat="46.23357181654723" lon="13.606359184373051"><ele>194.0</ele><time>2026-04-04T12:05:35Z</time></trkpt><trkpt lat="46.23363908010398" lon="13.606215656654694"><ele>194.0</ele><time>2026-04-04T12:05:36Z</time></trkpt><trkpt lat="46.2337043207839" lon="13.606079698035938"><ele>194.0</ele><time>2026-04-04T12:05:37Z</time></trkpt><trkpt lat="46.233761301432224" lon="13.605958381905495"><ele>194.0</ele><time>2026-04-04T12:05:38Z</time></trkpt><trkpt lat="46.233832359308394" lon="13.605851953385754"><ele>194.0</ele><time>2026-04-04T12:05:39Z</time></trkpt><trkpt lat="46.23387276907492" lon="13.605730599886224"><ele>194.0</ele><time>2026-04-04T12:05:40Z</time></trkpt><trkpt lat="46.23392642026868" lon="13.605627292069416"><ele>194.0</ele><time>2026-04-04T12:05:41Z</time></trkpt><trkpt lat="46.233997081344796" lon="13.605538131399708"><ele>194.39999999999998</ele><time>2026-04-04T12:05:42Z</time></trkpt><trkpt lat="46.23406067521521" lon="13.605438769079129"><ele>194.8</ele><time>2026-04-04T12:05:43Z</time></trkpt><trkpt lat="46.234141737538245" lon="13.605357099107952"><ele>195.2</ele><time>2026-04-04T12:05:44Z</time></trkpt><trkpt lat="46.2342414403913" lon="13.605300144625255"><ele>195.60000000000002</ele><time>2026-04-04T12:05:45Z</time></trkpt><trkpt lat="46.23434433932129" lon="13.605257915745142"><ele>196.0</ele><time>2026-04-04T12:05:46Z</time></trkpt><trkpt lat="46.23446824302486" lon="13.6052393086182"><ele>196.0</ele><time>2026-04-04T12:05:47Z</time></trkpt><trkpt lat="46.234612427209946" lon="13.605236897310176"><ele>196.0</ele><time>2026-04-04T12:05:48Z</time></trkpt><trkpt lat="46.23477576587016" lon="13.605225729468001"><ele>196.0</ele><time>2026-04-04T12:05:49Z</time></trkpt><trkpt lat="46.23493259538136" lon="13.605227249150591"><ele>196.75</ele><time>2026-04-04T12:05:50Z</time></trkpt><trkpt lat="46.235076363003046" lon="13.605227416635687"><ele>197.5</ele><time>2026-04-04T12:05:51Z</time></trkpt><trkpt lat="46.23520212287048" lon="13.605220889508859"><ele>198.25</ele><time>2026-04-04T12:05:52Z</time></trkpt><trkpt lat="46.235314270600036" lon="13.605217588607566"><ele>199.0</ele><time>2026-04-04T12:05:53Z</time></trkpt><trkpt lat="46.23542376987142" lon="13.605229635123713"><ele>199.0</ele><time>2026-04-04T12:05:54Z</time></trkpt><trkpt lat="46.235531595576546" lon="13.60524170099585"><ele>199.0</ele><time>2026-04-04T12:05:55Z</time></trkpt><trkpt lat="46.235634658575634" lon="13.605285438552762"><ele>199.0</ele><time>2026-04-04T12:05:56Z</time></trkpt><trkpt lat="46.235736909758046" lon="13.605368016163874"><ele>199.0</ele><time>2026-04-04T12:05:57Z</time></trkpt><trkpt lat="46.235843097313385" lon="13.605468330676418"><ele>200.0</ele><time>2026-04-04T12:05:58Z</time></trkpt><trkpt lat="46.23595039072717" lon="13.60556661884045"><ele>201.0</ele><time>2026-04-04T12:05:59Z</time></trkpt><trkpt lat="46.23604460679567" lon="13.605684834200204"><ele>202.0</ele><time>2026-04-04T12:06:00Z</time></trkpt><trkpt lat="46.236149141687925" lon="13.605762244075395"><ele>203.0</ele><time>2026-04-04T12:06:01Z</time></trkpt><trkpt lat="46.236234906764324" lon="13.605860604325423"><ele>203.0</ele><time>2026-04-04T12:06:02Z</time></trkpt><trkpt lat="46.23631958519304" lon="13.60594892393181"><ele>203.0</ele><time>2026-04-04T12:06:03Z</time></trkpt><trkpt lat="46.23639336030628" lon="13.606047238785049"><ele>203.0</ele><time>2026-04-04T12:06:04Z</time></trkpt><trkpt lat="46.23650484388352" lon="13.606069040393399"><ele>203.0</ele><time>2026-04-04T12:06:05Z</time></trkpt><trkpt lat="46.23660876394644" lon="13.606089875834703"><ele>203.0</ele><time>2026-04-04T12:06:06Z</time></trkpt><trkpt lat="46.23671298689619" lon="13.606099039837897"><ele>203.0</ele><time>2026-04-04T12:06:07Z</time></trkpt><trkpt lat="46.23682094782303" lon="13.606102602785072"><ele>203.0</ele><time>2026-04-04T12:06:08Z</time></trkpt><trkpt lat="46.2369210544114" lon="13.606129161535389"><ele>203.0</ele><time>2026-04-04T12:06:09Z</time></trkpt><trkpt lat="46.23702172917675" lon="13.60611424402057"><ele>203.0</ele><time>2026-04-04T12:06:10Z</time></trkpt><trkpt lat="46.23712161445924" lon="13.606031221873137"><ele>203.0</ele><time>2026-04-04T12:06:11Z</time></trkpt><trkpt lat="46.23721913128595" lon="13.605972123562283"><ele>204.2</ele><time>2026-04-04T12:06:12Z</time></trkpt><trkpt lat="46.23730901894973" lon="13.605948428113882"><ele>205.4</ele><time>2026-04-04T12:06:13Z</time></trkpt><trkpt lat="46.23739732740469" lon="13.605977125370195"><ele>206.6</ele><time>2026-04-04T12:06:14Z</time></trkpt><trkpt lat="46.23748995768833" lon="13.605974827491321"><ele>207.79999999999998</ele><time>2026-04-04T12:06:15Z</time></trkpt><trkpt lat="46.23758261115077" lon="13.60598836494598"><ele>209.0</ele><time>2026-04-04T12:06:16Z</time></trkpt><trkpt lat="46.237683889110144" lon="13.605946813374834"><ele>209.0</ele><time>2026-04-04T12:06:17Z</time></trkpt><trkpt lat="46.23778604452485" lon="13.605895606194217"><ele>209.0</ele><time>2026-04-04T12:06:18Z</time></trkpt><trkpt lat="46.23788690559939" lon="13.60584220814077"><ele>209.0</ele><time>2026-04-04T12:06:19Z</time></trkpt><trkpt lat="46.237987809609855" lon="13.60578131570013"><ele>209.0</ele><time>2026-04-04T12:06:20Z</time></trkpt><trkpt lat="46.23807941946219" lon="13.605701037048126"><ele>209.0</ele><time>2026-04-04T12:06:21Z</time></trkpt><trkpt lat="46.238166595974334" lon="13.605606508077734"><ele>209.25</ele><time>2026-04-04T12:06:22Z</time></trkpt><trkpt lat="46.23825796983411" lon="13.605494406511538"><ele>209.5</ele><time>2026-04-04T12:06:23Z</time></trkpt><trkpt lat="46.23834368124891" lon="13.605353569208122"><ele>209.75</ele><time>2026-04-04T12:06:24Z</time></trkpt><trkpt lat="46.23842292814616" lon="13.60519118168526"><ele>210.0</ele><time>2026-04-04T12:06:25Z</time></trkpt><trkpt lat="46.23851931129097" lon="13.605022666299282"><ele>210.0</ele><time>2026-04-04T12:06:26Z</time></trkpt><trkpt lat="46.238634164194266" lon="13.604870297820748"><ele>210.0</ele><time>2026-04-04T12:06:27Z</time></trkpt><trkpt lat="46.23875305562827" lon="13.604709586944278"><ele>210.0</ele><time>2026-04-04T12:06:28Z</time></trkpt><trkpt lat="46.238866244567525" lon="13.604560303286574"><ele>211.33333333333331</ele><time>2026-04-04T12:06:29Z</time></trkpt><trkpt lat="46.238981471324216" lon="13.604419923893007"><ele>212.66666666666666</ele><time>2026-04-04T12:06:30Z</time></trkpt><trkpt lat="46.23909830800112" lon="13.604282859165956"><ele>214.0</ele><time>2026-04-04T12:06:31Z</time></trkpt><trkpt lat="46.23921625936409" lon="13.604141433188339"><ele>214.0</ele><time>2026-04-04T12:06:32Z</time></trkpt><trkpt lat="46.23933683008754" lon="13.603997776634824"><ele>214.0</ele><time>2026-04-04T12:06:33Z</time></trkpt><trkpt lat="46.23945481907925" lon="13.60383597547787"><ele>214.0</ele><time>2026-04-04T12:06:34Z</time></trkpt><trkpt lat="46.239567642434096" lon="13.60365106599493"><ele>210.66666666666666</ele><time>2026-04-04T12:06:35Z</time></trkpt><trkpt lat="46.23967674372487" lon="13.603448580729307"><ele>207.33333333333331</ele><time>2026-04-04T12:06:36Z</time></trkpt><trkpt lat="46.23978989668213" lon="13.603245009747244"><ele>204.0</ele><time>2026-04-04T12:06:37Z</time></trkpt><trkpt lat="46.2399065178396" lon="13.603042642461977"><ele>205.66666666666669</ele><time>2026-04-04T12:06:38Z</time></trkpt><trkpt lat="46.24002086185304" lon="13.60285294302714"><ele>207.33333333333334</ele><time>2026-04-04T12:06:39Z</time></trkpt><trkpt lat="46.24013325912483" lon="13.602676842069108"><ele>209.0</ele><time>2026-04-04T12:06:40Z</time></trkpt><trkpt lat="46.24023163252612" lon="13.60249805968674"><ele>209.0</ele><time>2026-04-04T12:06:41Z</time></trkpt><trkpt lat="46.240313091746934" lon="13.602317349389002"><ele>209.0</ele><time>2026-04-04T12:06:42Z</time></trkpt><trkpt lat="46.240373724081294" lon="13.602130721726168"><ele>209.0</ele><time>2026-04-04T12:06:43Z</time></trkpt><trkpt lat="46.24041392615098" lon="13.601926998965764"><ele>209.0</ele><time>2026-04-04T12:06:44Z</time></trkpt><trkpt lat="46.24045070589593" lon="13.60171801923443"><ele>207.75</ele><time>2026-04-04T12:06:45Z</time></trkpt><trkpt lat="46.2404988796493" lon="13.601522226511078"><ele>206.5</ele><time>2026-04-04T12:06:46Z</time></trkpt><trkpt lat="46.2405435289192" lon="13.601357268091915"><ele>205.25</ele><time>2026-04-04T12:06:47Z</time></trkpt><trkpt lat="46.24059328287616" lon="13.601229341876431"><ele>204.0</ele><time>2026-04-04T12:06:48Z</time></trkpt><trkpt lat="46.24066335501467" lon="13.601127419000438"><ele>208.5</ele><time>2026-04-04T12:06:49Z</time></trkpt><trkpt lat="46.240761949374814" lon="13.601025398801369"><ele>213.0</ele><time>2026-04-04T12:06:50Z</time></trkpt><trkpt lat="46.240862684246785" lon="13.600894956621255"><ele>217.5</ele><time>2026-04-04T12:06:51Z</time></trkpt><trkpt lat="46.24094500685235" lon="13.60073169485025"><ele>222.0</ele><time>2026-04-04T12:06:52Z</time></trkpt><trkpt lat="46.2410157628445" lon="13.600562511417182"><ele>222.0</ele><time>2026-04-04T12:06:53Z</time></trkpt><trkpt lat="46.24108944286548" lon="13.60040160593479"><ele>222.0</ele><time>2026-04-04T12:06:54Z</time></trkpt><trkpt lat="46.24112980585926" lon="13.600199319344823"><ele>222.0</ele><time>2026-04-04T12:06:55Z</time></trkpt><trkpt lat="46.24114324490532" lon="13.599972632364468"><ele>222.0</ele><time>2026-04-04T12:06:56Z</time></trkpt><trkpt lat="46.24115073883813" lon="13.599738434440386"><ele>218.66666666666669</ele><time>2026-04-04T12:06:57Z</time></trkpt><trkpt lat="46.24115985382055" lon="13.599508969985964"><ele>215.33333333333334</ele><time>2026-04-04T12:06:58Z</time></trkpt><trkpt lat="46.24120025189594" lon="13.59929415084572"><ele>212.0</ele><time>2026-04-04T12:06:59Z</time></trkpt><trkpt lat="46.24123944982254" lon="13.599086784383339"><ele>210.0</ele><time>2026-04-04T12:06:59.999Z</time></trkpt><trkpt lat="46.24126910189218" lon="13.598883794170725"><ele>208.0</ele><time>2026-04-04T12:07:00.999Z</time></trkpt><trkpt lat="46.24131460423945" lon="13.598668278180275"><ele>206.0</ele><time>2026-04-04T12:07:01.999Z</time></trkpt><trkpt lat="46.24133835866742" lon="13.598415864034763"><ele>204.66666666666669</ele><time>2026-04-04T12:07:02.999Z</time></trkpt><trkpt lat="46.24134141192189" lon="13.598146998767755"><ele>203.33333333333331</ele><time>2026-04-04T12:07:03.999Z</time></trkpt><trkpt lat="46.241357078736456" lon="13.59787851336035"><ele>202.0</ele><time>2026-04-04T12:07:04.999Z</time></trkpt><trkpt lat="46.24135852084135" lon="13.59761860755938"><ele>201.33333333333331</ele><time>2026-04-04T12:07:06Z</time></trkpt><trkpt lat="46.241372249530414" lon="13.597375297143104"><ele>200.66666666666669</ele><time>2026-04-04T12:07:07Z</time></trkpt><trkpt lat="46.241362084732415" lon="13.597138557505295"><ele>200.0</ele><time>2026-04-04T12:07:08Z</time></trkpt><trkpt lat="46.2413970503366" lon="13.596909985161082"><ele>199.33333333333334</ele><time>2026-04-04T12:07:09Z</time></trkpt><trkpt lat="46.24145640747477" lon="13.596700385117595"><ele>198.66666666666669</ele><time>2026-04-04T12:07:10Z</time></trkpt><trkpt lat="46.24154535572996" lon="13.596487701143056"><ele>198.0</ele><time>2026-04-04T12:07:11Z</time></trkpt><trkpt lat="46.24164276401487" lon="13.596262086635944"><ele>200.33333333333331</ele><time>2026-04-04T12:07:12Z</time></trkpt><trkpt lat="46.24174109911344" lon="13.596011895987475"><ele>202.66666666666666</ele><time>2026-04-04T12:07:13Z</time></trkpt><trkpt lat="46.24184684864201" lon="13.595744972824695"><ele>205.0</ele><time>2026-04-04T12:07:14Z</time></trkpt><trkpt lat="46.24195479244144" lon="13.595463744047782"><ele>204.33333333333331</ele><time>2026-04-04T12:07:15Z</time></trkpt><trkpt lat="46.24205154708861" lon="13.595174693717576"><ele>203.66666666666669</ele><time>2026-04-04T12:07:16Z</time></trkpt><trkpt lat="46.24213641204281" lon="13.594890840622371"><ele>203.0</ele><time>2026-04-04T12:07:17Z</time></trkpt><trkpt lat="46.24221795381705" lon="13.594618313962055"><ele>202.33333333333334</ele><time>2026-04-04T12:07:18Z</time></trkpt><trkpt lat="46.24229372833106" lon="13.594356082672633"><ele>201.66666666666669</ele><time>2026-04-04T12:07:19Z</time></trkpt><trkpt lat="46.242373914727565" lon="13.594101501508398"><ele>201.0</ele><time>2026-04-04T12:07:20Z</time></trkpt><trkpt lat="46.242467160324985" lon="13.593859348034051"><ele>203.0</ele><time>2026-04-04T12:07:21Z</time></trkpt><trkpt lat="46.242576554399974" lon="13.5936315033204"><ele>205.0</ele><time>2026-04-04T12:07:22Z</time></trkpt><trkpt lat="46.242699574822794" lon="13.593413371128706"><ele>207.0</ele><time>2026-04-04T12:07:23Z</time></trkpt><trkpt lat="46.24282082777917" lon="13.593206385037098"><ele>207.0</ele><time>2026-04-04T12:07:24Z</time></trkpt><trkpt lat="46.24294558326255" lon="13.59301144299761"><ele>207.0</ele><time>2026-04-04T12:07:25Z</time></trkpt><trkpt lat="46.243032963740546" lon="13.592778740141652"><ele>207.0</ele><time>2026-04-04T12:07:26Z</time></trkpt><trkpt lat="46.24312769299274" lon="13.592561567541528"><ele>209.33333333333331</ele><time>2026-04-04T12:07:27Z</time></trkpt><trkpt lat="46.24321775173433" lon="13.592370552282079"><ele>211.66666666666666</ele><time>2026-04-04T12:07:28Z</time></trkpt><trkpt lat="46.243312717326425" lon="13.592203991436271"><ele>214.0</ele><time>2026-04-04T12:07:29Z</time></trkpt><trkpt lat="46.243437081886725" lon="13.592025984131748"><ele>211.66666666666666</ele><time>2026-04-04T12:07:30Z</time></trkpt><trkpt lat="46.24358012431919" lon="13.591854256284869"><ele>209.33333333333331</ele><time>2026-04-04T12:07:31Z</time></trkpt><trkpt lat="46.2437302787434" lon="13.591671744191125"><ele>207.0</ele><time>2026-04-04T12:07:32Z</time></trkpt><trkpt lat="46.243889623600396" lon="13.5914857281436"><ele>209.66666666666669</ele><time>2026-04-04T12:07:33Z</time></trkpt><trkpt lat="46.24400580097558" lon="13.591250460930151"><ele>212.33333333333334</ele><time>2026-04-04T12:07:34Z</time></trkpt><trkpt lat="46.24413875272788" lon="13.591042665765784"><ele>215.0</ele><time>2026-04-04T12:07:35Z</time></trkpt><trkpt lat="46.244249122193715" lon="13.59082454792141"><ele>215.0</ele><time>2026-04-04T12:07:36Z</time></trkpt><trkpt lat="46.244345610717055" lon="13.590604628805071"><ele>215.0</ele><time>2026-04-04T12:07:37Z</time></trkpt><trkpt lat="46.244432154758435" lon="13.590402948593068"><ele>215.0</ele><time>2026-04-04T12:07:38Z</time></trkpt><trkpt lat="46.24451448825862" lon="13.590202283109711"><ele>216.66666666666669</ele><time>2026-04-04T12:07:39Z</time></trkpt><trkpt lat="46.244629243788374" lon="13.590028503470604"><ele>218.33333333333331</ele><time>2026-04-04T12:07:40Z</time></trkpt><trkpt lat="46.244751332249535" lon="13.589872312336045"><ele>220.0</ele><time>2026-04-04T12:07:41Z</time></trkpt><trkpt lat="46.24487795089834" lon="13.589721128858749"><ele>220.0</ele><time>2026-04-04T12:07:42Z</time></trkpt><trkpt lat="46.24500761888359" lon="13.58957475322336"><ele>220.0</ele><time>2026-04-04T12:07:43Z</time></trkpt><trkpt lat="46.2451428545105" lon="13.589427258355283"><ele>220.0</ele><time>2026-04-04T12:07:44Z</time></trkpt><trkpt lat="46.245284020712354" lon="13.58927404855458"><ele>216.0</ele><time>2026-04-04T12:07:45Z</time></trkpt><trkpt lat="46.245435317484024" lon="13.589125061818903"><ele>212.0</ele><time>2026-04-04T12:07:46Z</time></trkpt><trkpt lat="46.24559236082766" lon="13.588975445607863"><ele>208.0</ele><time>2026-04-04T12:07:47Z</time></trkpt><trkpt lat="46.245744446686444" lon="13.588830373667339"><ele>210.33333333333331</ele><time>2026-04-04T12:07:48Z</time></trkpt><trkpt lat="46.24588902481729" lon="13.588708850634763"><ele>212.66666666666669</ele><time>2026-04-04T12:07:49Z</time></trkpt><trkpt lat="46.24602159843543" lon="13.588595108991303"><ele>215.0</ele><time>2026-04-04T12:07:50Z</time></trkpt><trkpt lat="46.246145927592" lon="13.588444565843009"><ele>215.0</ele><time>2026-04-04T12:07:51Z</time></trkpt><trkpt lat="46.246266764451754" lon="13.588274382619861"><ele>215.0</ele><time>2026-04-04T12:07:52Z</time></trkpt><trkpt lat="46.24638335979527" lon="13.588109141248811"><ele>215.0</ele><time>2026-04-04T12:07:53Z</time></trkpt><trkpt lat="46.24648170112931" lon="13.58797147124409"><ele>214.0</ele><time>2026-04-04T12:07:54Z</time></trkpt><trkpt lat="46.24655678493072" lon="13.58785122667684"><ele>213.0</ele><time>2026-04-04T12:07:55Z</time></trkpt><trkpt lat="46.24661354825272" lon="13.587740575746215"><ele>212.0</ele><time>2026-04-04T12:07:56Z</time></trkpt><trkpt lat="46.24668215410869" lon="13.587653699740638"><ele>211.0</ele><time>2026-04-04T12:07:57Z</time></trkpt><trkpt lat="46.24672977346819" lon="13.587549393042758"><ele>210.0</ele><time>2026-04-04T12:07:58Z</time></trkpt><trkpt lat="46.246802598261084" lon="13.587483601855986"><ele>210.0</ele><time>2026-04-04T12:07:59Z</time></trkpt><trkpt lat="46.24688480510461" lon="13.587440959420466"><ele>210.0</ele><time>2026-04-04T12:08:00Z</time></trkpt><trkpt lat="46.246982501345194" lon="13.587420416352048"><ele>210.0</ele><time>2026-04-04T12:08:01Z</time></trkpt><trkpt lat="46.247097617150956" lon="13.587419875597474"><ele>210.0</ele><time>2026-04-04T12:08:02Z</time></trkpt><trkpt lat="46.24721611080812" lon="13.587391988919414"><ele>210.0</ele><time>2026-04-04T12:08:03Z</time></trkpt><trkpt lat="46.247331594787966" lon="13.587314827647123"><ele>211.75</ele><time>2026-04-04T12:08:04Z</time></trkpt><trkpt lat="46.247452717189866" lon="13.587233739419734"><ele>213.5</ele><time>2026-04-04T12:08:05Z</time></trkpt><trkpt lat="46.24756091440108" lon="13.587124305318984"><ele>215.25</ele><time>2026-04-04T12:08:06Z</time></trkpt><trkpt lat="46.24765395488399" lon="13.587006638183864"><ele>217.0</ele><time>2026-04-04T12:08:07Z</time></trkpt><trkpt lat="46.24774716683179" lon="13.586902749791873"><ele>217.0</ele><time>2026-04-04T12:08:08Z</time></trkpt><trkpt lat="46.24784259370578" lon="13.586802537367578"><ele>217.0</ele><time>2026-04-04T12:08:09Z</time></trkpt><trkpt lat="46.247930425452466" lon="13.586703277972614"><ele>217.0</ele><time>2026-04-04T12:08:10Z</time></trkpt><trkpt lat="46.24799922975936" lon="13.586619650496765"><ele>217.0</ele><time>2026-04-04T12:08:11Z</time></trkpt><trkpt lat="46.24805206634945" lon="13.58653438928333"><ele>217.0</ele><time>2026-04-04T12:08:12Z</time></trkpt><trkpt lat="46.24810247927058" lon="13.58647007647033"><ele>220.16666666666666</ele><time>2026-04-04T12:08:13Z</time></trkpt><trkpt lat="46.24816301197572" lon="13.586427482158815"><ele>223.33333333333331</ele><time>2026-04-04T12:08:14Z</time></trkpt><trkpt lat="46.248226378223755" lon="13.586403387685529"><ele>226.5</ele><time>2026-04-04T12:08:15Z</time></trkpt><trkpt lat="46.248323845253985" lon="13.586398750913515"><ele>229.66666666666669</ele><time>2026-04-04T12:08:17Z</time></trkpt><trkpt lat="46.24835575174208" lon="13.586179281582261"><ele>232.83333333333334</ele><time>2026-04-04T12:08:21Z</time></trkpt><trkpt lat="46.24835723923112" lon="13.586088038936243"><ele>236.0</ele><time>2026-04-04T12:08:22Z</time></trkpt><trkpt lat="46.248361044356734" lon="13.58594879139137"><ele>236.4</ele><time>2026-04-04T12:08:24Z</time></trkpt><trkpt lat="46.24825122325846" lon="13.58588694548046"><ele>236.8</ele><time>2026-04-04T12:08:25Z</time></trkpt><trkpt lat="46.24814933695994" lon="13.58590182490288"><ele>237.20000000000002</ele><time>2026-04-04T12:08:26Z</time></trkpt><trkpt lat="46.24804994825866" lon="13.585972825184355"><ele>237.60000000000002</ele><time>2026-04-04T12:08:27Z</time></trkpt><trkpt lat="46.24795542917281" lon="13.586049256183921"><ele>238.0</ele><time>2026-04-04T12:08:28Z</time></trkpt><trkpt lat="46.24784991956574" lon="13.586112369617624"><ele>238.0</ele><time>2026-04-04T12:08:29Z</time></trkpt><trkpt lat="46.247727362108904" lon="13.586145074637768"><ele>238.0</ele><time>2026-04-04T12:08:30Z</time></trkpt><trkpt lat="46.24760037790961" lon="13.586145776723177"><ele>238.0</ele><time>2026-04-04T12:08:31Z</time></trkpt><trkpt lat="46.24747207817133" lon="13.586117165404922"><ele>238.0</ele><time>2026-04-04T12:08:32Z</time></trkpt><trkpt lat="46.24733469426636" lon="13.586061345981786"><ele>239.66666666666666</ele><time>2026-04-04T12:08:33Z</time></trkpt><trkpt lat="46.247204515082984" lon="13.585948006545168"><ele>241.33333333333331</ele><time>2026-04-04T12:08:34Z</time></trkpt><trkpt lat="46.24705512799054" lon="13.58586629649304"><ele>243.0</ele><time>2026-04-04T12:08:35Z</time></trkpt><trkpt lat="46.246888076645234" lon="13.585846906201038"><ele>243.0</ele><time>2026-04-04T12:08:36Z</time></trkpt><trkpt lat="46.24672953517982" lon="13.585821144055963"><ele>243.0</ele><time>2026-04-04T12:08:37Z</time></trkpt><trkpt lat="46.24659050880554" lon="13.585778280355665"><ele>243.0</ele><time>2026-04-04T12:08:38Z</time></trkpt><trkpt lat="46.24647229628318" lon="13.585709092895017"><ele>243.0</ele><time>2026-04-04T12:08:39Z</time></trkpt><trkpt lat="46.24637600887503" lon="13.585643589369866"><ele>241.66666666666666</ele><time>2026-04-04T12:08:40Z</time></trkpt><trkpt lat="46.24628968683116" lon="13.585575369116716"><ele>240.33333333333331</ele><time>2026-04-04T12:08:41Z</time></trkpt><trkpt lat="46.24621935865697" lon="13.58551076752764"><ele>239.0</ele><time>2026-04-04T12:08:42Z</time></trkpt><trkpt lat="46.246159964326026" lon="13.585439765036561"><ele>237.66666666666666</ele><time>2026-04-04T12:08:43Z</time></trkpt><trkpt lat="46.24611167479727" lon="13.585335832907807"><ele>236.33333333333331</ele><time>2026-04-04T12:08:44Z</time></trkpt><trkpt lat="46.24607186982576" lon="13.585208769072834"><ele>235.0</ele><time>2026-04-04T12:08:45Z</time></trkpt><trkpt lat="46.24603299927227" lon="13.585060900060606"><ele>235.0</ele><time>2026-04-04T12:08:46Z</time></trkpt><trkpt lat="46.2460010324949" lon="13.584893759334394"><ele>235.0</ele><time>2026-04-04T12:08:47Z</time></trkpt><trkpt lat="46.2459641155832" lon="13.584717786598645"><ele>235.0</ele><time>2026-04-04T12:08:48Z</time></trkpt><trkpt lat="46.24592238303374" lon="13.584554436730723"><ele>235.0</ele><time>2026-04-04T12:08:49Z</time></trkpt><trkpt lat="46.24589114177637" lon="13.584432023162908"><ele>235.49999999999997</ele><time>2026-04-04T12:08:50Z</time></trkpt><trkpt lat="46.2458666404332" lon="13.584322709937181"><ele>236.0</ele><time>2026-04-04T12:08:51Z</time></trkpt><trkpt lat="46.245845871303324" lon="13.584221216055006"><ele>236.5</ele><time>2026-04-04T12:08:52Z</time></trkpt><trkpt lat="46.24583153274409" lon="13.5841212132478"><ele>237.0</ele><time>2026-04-04T12:08:53Z</time></trkpt><trkpt lat="46.24582477344235" lon="13.584011803648291"><ele>237.49999999999997</ele><time>2026-04-04T12:08:54Z</time></trkpt><trkpt lat="46.245846781071634" lon="13.583884716325377"><ele>238.0</ele><time>2026-04-04T12:08:55Z</time></trkpt><trkpt lat="46.245850833130156" lon="13.583736066891928"><ele>238.0</ele><time>2026-04-04T12:08:56Z</time></trkpt><trkpt lat="46.24584758497139" lon="13.58361635326793"><ele>238.0</ele><time>2026-04-04T12:08:57Z</time></trkpt><trkpt lat="46.245881381317254" lon="13.583500549847718"><ele>238.0</ele><time>2026-04-04T12:08:59Z</time></trkpt><trkpt lat="46.245944181866385" lon="13.583637594470382"><ele>238.0</ele><time>2026-04-04T12:09:02.999Z</time></trkpt><trkpt lat="46.245992790906676" lon="13.583730833797803"><ele>238.0</ele><time>2026-04-04T12:09:03.999Z</time></trkpt><trkpt lat="46.246039584543375" lon="13.583850966546544"><ele>238.0</ele><time>2026-04-04T12:09:04.999Z</time></trkpt><trkpt lat="46.24607656512203" lon="13.583969982010945"><ele>238.0</ele><time>2026-04-04T12:09:05.999Z</time></trkpt><trkpt lat="46.24606546750374" lon="13.584084931943861"><ele>238.0</ele><time>2026-04-04T12:09:06.999Z</time></trkpt><trkpt lat="46.24602670735819" lon="13.584166445090627"><ele>238.0</ele><time>2026-04-04T12:09:08.999Z</time></trkpt><trkpt lat="46.246050323376984" lon="13.58437750523818"><ele>238.0</ele><time>2026-04-04T12:09:12Z</time></trkpt><trkpt lat="46.246105420861625" lon="13.584510423074445"><ele>237.25</ele><time>2026-04-04T12:09:13Z</time></trkpt><trkpt lat="46.24614845372323" lon="13.584678805955043"><ele>236.5</ele><time>2026-04-04T12:09:14Z</time></trkpt><trkpt lat="46.24619847873818" lon="13.584864745188714"><ele>235.75</ele><time>2026-04-04T12:09:15Z</time></trkpt><trkpt lat="46.24626620696926" lon="13.585047424535666"><ele>235.0</ele><time>2026-04-04T12:09:16Z</time></trkpt><trkpt lat="46.24635095197214" lon="13.58519825580388"><ele>235.0</ele><time>2026-04-04T12:09:17Z</time></trkpt><trkpt lat="46.24645145183302" lon="13.585317578725737"><ele>235.0</ele><time>2026-04-04T12:09:18Z</time></trkpt><trkpt lat="46.24656301861099" lon="13.585411676390173"><ele>235.0</ele><time>2026-04-04T12:09:19Z</time></trkpt><trkpt lat="46.24668574638529" lon="13.585482561701243"><ele>235.0</ele><time>2026-04-04T12:09:20Z</time></trkpt><trkpt lat="46.24681817240298" lon="13.585531668489395"><ele>235.75</ele><time>2026-04-04T12:09:21Z</time></trkpt><trkpt lat="46.24695749548256" lon="13.585552292809332"><ele>236.5</ele><time>2026-04-04T12:09:22Z</time></trkpt><trkpt lat="46.24710322767081" lon="13.585547995480363"><ele>237.25</ele><time>2026-04-04T12:09:23Z</time></trkpt><trkpt lat="46.24726432379705" lon="13.585522981789605"><ele>238.0</ele><time>2026-04-04T12:09:24Z</time></trkpt><trkpt lat="46.247434566347096" lon="13.585523751819922"><ele>238.0</ele><time>2026-04-04T12:09:25Z</time></trkpt><trkpt lat="46.247613181384175" lon="13.5855528972033"><ele>238.0</ele><time>2026-04-04T12:09:26Z</time></trkpt><trkpt lat="46.24779572007856" lon="13.585569930251062"><ele>238.0</ele><time>2026-04-04T12:09:27Z</time></trkpt><trkpt lat="46.24797725712367" lon="13.585543618199614"><ele>238.0</ele><time>2026-04-04T12:09:28Z</time></trkpt><trkpt lat="46.24815172968542" lon="13.585481215658438"><ele>238.0</ele><time>2026-04-04T12:09:29Z</time></trkpt><trkpt lat="46.24831824766467" lon="13.585419624086384"><ele>238.0</ele><time>2026-04-04T12:09:30Z</time></trkpt><trkpt lat="46.248481641221794" lon="13.58540180962504"><ele>238.0</ele><time>2026-04-04T12:09:31Z</time></trkpt><trkpt lat="46.24863951521204" lon="13.585424560906718"><ele>238.0</ele><time>2026-04-04T12:09:32Z</time></trkpt><trkpt lat="46.24879092514514" lon="13.585483850145215"><ele>238.0</ele><time>2026-04-04T12:09:33Z</time></trkpt><trkpt lat="46.248929684522366" lon="13.585571675743642"><ele>239.66666666666666</ele><time>2026-04-04T12:09:34Z</time></trkpt><trkpt lat="46.24907172318772" lon="13.585630398417853"><ele>241.33333333333331</ele><time>2026-04-04T12:09:35Z</time></trkpt><trkpt lat="46.24922758371616" lon="13.585625425388692"><ele>243.0</ele><time>2026-04-04T12:09:36Z</time></trkpt><trkpt lat="46.249387696486515" lon="13.585590838323837"><ele>243.0</ele><time>2026-04-04T12:09:37Z</time></trkpt><trkpt lat="46.24955729302633" lon="13.585526164143227"><ele>243.0</ele><time>2026-04-04T12:09:38Z</time></trkpt><trkpt lat="46.24973447244089" lon="13.585463816286815"><ele>243.0</ele><time>2026-04-04T12:09:39Z</time></trkpt><trkpt lat="46.249913941560706" lon="13.585405334394904"><ele>239.33333333333331</ele><time>2026-04-04T12:09:40Z</time></trkpt><trkpt lat="46.25008978613761" lon="13.585346896332066"><ele>235.66666666666666</ele><time>2026-04-04T12:09:41Z</time></trkpt><trkpt lat="46.25025668114926" lon="13.585251760459435"><ele>232.0</ele><time>2026-04-04T12:09:42Z</time></trkpt><trkpt lat="46.25040699751706" lon="13.58510780456393"><ele>237.33333333333331</ele><time>2026-04-04T12:09:43Z</time></trkpt><trkpt lat="46.25053587618994" lon="13.58492429078097"><ele>242.66666666666669</ele><time>2026-04-04T12:09:44Z</time></trkpt><trkpt lat="46.250644971868326" lon="13.584731512985798"><ele>248.0</ele><time>2026-04-04T12:09:45Z</time></trkpt><trkpt lat="46.25075541110947" lon="13.58456641074319"><ele>258.6666666666667</ele><time>2026-04-04T12:09:46Z</time></trkpt><trkpt lat="46.25089145633679" lon="13.58443938487497"><ele>269.3333333333333</ele><time>2026-04-04T12:09:47Z</time></trkpt><trkpt lat="46.251052907205995" lon="13.584355065996599"><ele>280.0</ele><time>2026-04-04T12:09:48Z</time></trkpt><trkpt lat="46.2512317236884" lon="13.58430298880627"><ele>280.0</ele><time>2026-04-04T12:09:49Z</time></trkpt><trkpt lat="46.25141660518727" lon="13.584240623876076"><ele>280.0</ele><time>2026-04-04T12:09:50Z</time></trkpt><trkpt lat="46.25160330473842" lon="13.584136711381962"><ele>280.0</ele><time>2026-04-04T12:09:51Z</time></trkpt><trkpt lat="46.251786115282236" lon="13.583995983959397"><ele>274.0</ele><time>2026-04-04T12:09:52Z</time></trkpt><trkpt lat="46.25196268294911" lon="13.583852726794799"><ele>268.0</ele><time>2026-04-04T12:09:53Z</time></trkpt><trkpt lat="46.252149602821056" lon="13.583762549478335"><ele>262.0</ele><time>2026-04-04T12:09:54Z</time></trkpt><trkpt lat="46.252354427130506" lon="13.58370379949593"><ele>269.66666666666663</ele><time>2026-04-04T12:09:55Z</time></trkpt><trkpt lat="46.252550760542405" lon="13.583616831010689"><ele>277.3333333333333</ele><time>2026-04-04T12:09:56Z</time></trkpt><trkpt lat="46.25273299235722" lon="13.583467982992444"><ele>285.0</ele><time>2026-04-04T12:09:57Z</time></trkpt><trkpt lat="46.252906157620934" lon="13.583308843710379"><ele>285.0</ele><time>2026-04-04T12:09:58Z</time></trkpt><trkpt lat="46.2531148878882" lon="13.583243796319062"><ele>285.0</ele><time>2026-04-04T12:09:59Z</time></trkpt><trkpt lat="46.25331228777877" lon="13.58315289938592"><ele>285.0</ele><time>2026-04-04T12:10:00Z</time></trkpt><trkpt lat="46.253487073497226" lon="13.583100614729139"><ele>281.3333333333333</ele><time>2026-04-04T12:10:01Z</time></trkpt><trkpt lat="46.25365509554736" lon="13.583083787694541"><ele>277.66666666666663</ele><time>2026-04-04T12:10:02Z</time></trkpt><trkpt lat="46.253825840405604" lon="13.583115935267537"><ele>274.0</ele><time>2026-04-04T12:10:03Z</time></trkpt><trkpt lat="46.25400204097676" lon="13.58317829099614"><ele>271.66666666666663</ele><time>2026-04-04T12:10:04Z</time></trkpt><trkpt lat="46.25418043949264" lon="13.58321094254681"><ele>269.3333333333333</ele><time>2026-04-04T12:10:05Z</time></trkpt><trkpt lat="46.25435842276808" lon="13.583165614968625"><ele>267.0</ele><time>2026-04-04T12:10:06Z</time></trkpt><trkpt lat="46.25454157952317" lon="13.58309405861262"><ele>267.0</ele><time>2026-04-04T12:10:07Z</time></trkpt><trkpt lat="46.25473208971391" lon="13.582990569015896"><ele>267.0</ele><time>2026-04-04T12:10:08Z</time></trkpt><trkpt lat="46.25492779163212" lon="13.582920685681184"><ele>267.0</ele><time>2026-04-04T12:10:09Z</time></trkpt><trkpt lat="46.25512383090174" lon="13.582847677957925"><ele>279.3333333333333</ele><time>2026-04-04T12:10:10Z</time></trkpt><trkpt lat="46.25529935627841" lon="13.582787571574107"><ele>291.66666666666663</ele><time>2026-04-04T12:10:11Z</time></trkpt><trkpt lat="46.255450919857054" lon="13.582705467996744"><ele>304.0</ele><time>2026-04-04T12:10:12Z</time></trkpt><trkpt lat="46.25560048777163" lon="13.582631078268495"><ele>296.66666666666663</ele><time>2026-04-04T12:10:13Z</time></trkpt><trkpt lat="46.25575642138829" lon="13.58258652611762"><ele>289.3333333333333</ele><time>2026-04-04T12:10:14Z</time></trkpt><trkpt lat="46.25591728271533" lon="13.582592809714358"><ele>282.0</ele><time>2026-04-04T12:10:15Z</time></trkpt><trkpt lat="46.256078529128395" lon="13.582643556778603"><ele>282.0</ele><time>2026-04-04T12:10:16Z</time></trkpt><trkpt lat="46.25623166307025" lon="13.582737506968327"><ele>282.0</ele><time>2026-04-04T12:10:17Z</time></trkpt><trkpt lat="46.256370815652375" lon="13.582875286190317"><ele>282.0</ele><time>2026-04-04T12:10:18Z</time></trkpt><trkpt lat="46.25650314480733" lon="13.583050550080943"><ele>286.0</ele><time>2026-04-04T12:10:19Z</time></trkpt><trkpt lat="46.25663155962937" lon="13.583245672964166"><ele>290.0</ele><time>2026-04-04T12:10:20Z</time></trkpt><trkpt lat="46.25676484441242" lon="13.583439038680375"><ele>294.0</ele><time>2026-04-04T12:10:21Z</time></trkpt><trkpt lat="46.25688361616957" lon="13.583600396336104"><ele>289.3333333333333</ele><time>2026-04-04T12:10:22Z</time></trkpt><trkpt lat="46.25700451698067" lon="13.583734440206781"><ele>284.66666666666663</ele><time>2026-04-04T12:10:23Z</time></trkpt><trkpt lat="46.257146297141865" lon="13.58383744483672"><ele>280.0</ele><time>2026-04-04T12:10:24Z</time></trkpt><trkpt lat="46.25731233328313" lon="13.58389723384985"><ele>280.0</ele><time>2026-04-04T12:10:25Z</time></trkpt><trkpt lat="46.257495964338844" lon="13.583893125164446"><ele>280.0</ele><time>2026-04-04T12:10:26Z</time></trkpt><trkpt lat="46.25769862191364" lon="13.583859806267968"><ele>280.0</ele><time>2026-04-04T12:10:27Z</time></trkpt><trkpt lat="46.25789884216806" lon="13.583857524572371"><ele>280.0</ele><time>2026-04-04T12:10:28Z</time></trkpt><trkpt lat="46.25805845596339" lon="13.583881766086867"><ele>280.0</ele><time>2026-04-04T12:10:29Z</time></trkpt><trkpt lat="46.25820004303738" lon="13.583869084264954"><ele>280.0</ele><time>2026-04-04T12:10:30Z</time></trkpt><trkpt lat="46.258329707523124" lon="13.58379194717195"><ele>280.0</ele><time>2026-04-04T12:10:31Z</time></trkpt><trkpt lat="46.258439313658364" lon="13.583651509292658"><ele>291.0</ele><time>2026-04-04T12:10:32Z</time></trkpt><trkpt lat="46.25852613488657" lon="13.583458519772668"><ele>302.0</ele><time>2026-04-04T12:10:33Z</time></trkpt><trkpt lat="46.258605425718336" lon="13.583227986410332"><ele>313.0</ele><time>2026-04-04T12:10:34Z</time></trkpt><trkpt lat="46.258674302881566" lon="13.582969319357034"><ele>325.0</ele><time>2026-04-04T12:10:35Z</time></trkpt><trkpt lat="46.25872768074165" lon="13.582692004021528"><ele>337.0</ele><time>2026-04-04T12:10:36Z</time></trkpt><trkpt lat="46.25875575991871" lon="13.582403551607873"><ele>349.0</ele><time>2026-04-04T12:10:37Z</time></trkpt><trkpt lat="46.25876803681154" lon="13.582101383835088"><ele>355.66666666666663</ele><time>2026-04-04T12:10:38Z</time></trkpt><trkpt lat="46.25877536153761" lon="13.58179705676791"><ele>362.3333333333333</ele><time>2026-04-04T12:10:39Z</time></trkpt><trkpt lat="46.258808699033565" lon="13.581502355199255"><ele>369.0</ele><time>2026-04-04T12:10:40Z</time></trkpt><trkpt lat="46.258860291881554" lon="13.581207150120834"><ele>373.0</ele><time>2026-04-04T12:10:41Z</time></trkpt><trkpt lat="46.25891159097297" lon="13.580911685952511"><ele>377.0</ele><time>2026-04-04T12:10:42Z</time></trkpt><trkpt lat="46.258960258246226" lon="13.58061207180204"><ele>381.0</ele><time>2026-04-04T12:10:43Z</time></trkpt><trkpt lat="46.25900025276316" lon="13.580317714429281"><ele>358.3333333333333</ele><time>2026-04-04T12:10:44Z</time></trkpt><trkpt lat="46.25901486224108" lon="13.580049746427386"><ele>335.66666666666663</ele><time>2026-04-04T12:10:45Z</time></trkpt><trkpt lat="46.2590132387861" lon="13.579793364149882"><ele>313.0</ele><time>2026-04-04T12:10:46Z</time></trkpt><trkpt lat="46.259030130336434" lon="13.579558987070635"><ele>316.66666666666663</ele><time>2026-04-04T12:10:47Z</time></trkpt><trkpt lat="46.25907958642249" lon="13.57933356346781"><ele>320.3333333333333</ele><time>2026-04-04T12:10:48Z</time></trkpt><trkpt lat="46.2591572340619" lon="13.579125292168321"><ele>324.0</ele><time>2026-04-04T12:10:49Z</time></trkpt><trkpt lat="46.25924231096982" lon="13.578947592782201"><ele>324.0</ele><time>2026-04-04T12:10:50Z</time></trkpt><trkpt lat="46.25931827125284" lon="13.578790574711094"><ele>324.0</ele><time>2026-04-04T12:10:51Z</time></trkpt><trkpt lat="46.259405320265614" lon="13.578657236512438"><ele>324.0</ele><time>2026-04-04T12:10:52Z</time></trkpt><trkpt lat="46.25950632564575" lon="13.578546587879016"><ele>324.0</ele><time>2026-04-04T12:10:53Z</time></trkpt><trkpt lat="46.25962104326358" lon="13.578460456040188"><ele>324.3333333333333</ele><time>2026-04-04T12:10:54Z</time></trkpt><trkpt lat="46.25975818845023" lon="13.578400220950227"><ele>324.66666666666663</ele><time>2026-04-04T12:10:55Z</time></trkpt><trkpt lat="46.259913674648004" lon="13.578345191488141"><ele>325.0</ele><time>2026-04-04T12:10:56Z</time></trkpt><trkpt lat="46.26007863610323" lon="13.578297858098168"><ele>325.0</ele><time>2026-04-04T12:10:57Z</time></trkpt><trkpt lat="46.260254305030635" lon="13.57825380511809"><ele>325.0</ele><time>2026-04-04T12:10:58Z</time></trkpt><trkpt lat="46.26043192049938" lon="13.578185295146167"><ele>325.0</ele><time>2026-04-04T12:10:59Z</time></trkpt><trkpt lat="46.26059852449489" lon="13.578077993305484"><ele>321.66666666666663</ele><time>2026-04-04T12:11:00Z</time></trkpt><trkpt lat="46.26074625384404" lon="13.577931636137945"><ele>318.3333333333333</ele><time>2026-04-04T12:11:01Z</time></trkpt><trkpt lat="46.260872093391626" lon="13.577791725802651"><ele>315.0</ele><time>2026-04-04T12:11:02Z</time></trkpt><trkpt lat="46.261004650617444" lon="13.577685663280104"><ele>323.0</ele><time>2026-04-04T12:11:03Z</time></trkpt><trkpt lat="46.26114822342575" lon="13.577626445816929"><ele>331.0</ele><time>2026-04-04T12:11:03.999Z</time></trkpt><trkpt lat="46.261292144563974" lon="13.577631256168809"><ele>339.0</ele><time>2026-04-04T12:11:04.999Z</time></trkpt><trkpt lat="46.261433474568" lon="13.577678416366563"><ele>347.0</ele><time>2026-04-04T12:11:05.999Z</time></trkpt><trkpt lat="46.26156704642343" lon="13.577762478779166"><ele>337.33333333333337</ele><time>2026-04-04T12:11:06.999Z</time></trkpt><trkpt lat="46.261689093738696" lon="13.577892935761069"><ele>327.6666666666667</ele><time>2026-04-04T12:11:07.999Z</time></trkpt><trkpt lat="46.26180111241637" lon="13.578053474044765"><ele>318.0</ele><time>2026-04-04T12:11:08.999Z</time></trkpt><trkpt lat="46.26190755283851" lon="13.578230637654139"><ele>318.0</ele><time>2026-04-04T12:11:09.999Z</time></trkpt><trkpt lat="46.26201982056656" lon="13.578398393307426"><ele>318.0</ele><time>2026-04-04T12:11:10.999Z</time></trkpt><trkpt lat="46.2621498705797" lon="13.578527868366788"><ele>318.0</ele><time>2026-04-04T12:11:11.999Z</time></trkpt><trkpt lat="46.26229695957858" lon="13.578614247949462"><ele>325.0</ele><time>2026-04-04T12:11:12.999Z</time></trkpt><trkpt lat="46.262454685857165" lon="13.578650742499045"><ele>332.0</ele><time>2026-04-04T12:11:13.999Z</time></trkpt><trkpt lat="46.262617032810944" lon="13.578661644483757"><ele>339.0</ele><time>2026-04-04T12:11:14.999Z</time></trkpt><trkpt lat="46.26278188029924" lon="13.578603206188577"><ele>339.0</ele><time>2026-04-04T12:11:15.999Z</time></trkpt><trkpt lat="46.26292412651777" lon="13.578460343955138"><ele>339.0</ele><time>2026-04-04T12:11:16.999Z</time></trkpt><trkpt lat="46.26306698472537" lon="13.578303563937764"><ele>339.0</ele><time>2026-04-04T12:11:18Z</time></trkpt><trkpt lat="46.2632090284161" lon="13.578124341820036"><ele>334.3333333333333</ele><time>2026-04-04T12:11:19Z</time></trkpt><trkpt lat="46.263359845005326" lon="13.57793910658984"><ele>329.66666666666663</ele><time>2026-04-04T12:11:20Z</time></trkpt><trkpt lat="46.26351544419912" lon="13.577751737503052"><ele>325.0</ele><time>2026-04-04T12:11:21Z</time></trkpt><trkpt lat="46.26366787765095" lon="13.57754997381805"><ele>332.3333333333333</ele><time>2026-04-04T12:11:22Z</time></trkpt><trkpt lat="46.263807512874614" lon="13.577331390932514"><ele>339.6666666666667</ele><time>2026-04-04T12:11:23Z</time></trkpt><trkpt lat="46.26393664041236" lon="13.577110826256378"><ele>347.0</ele><time>2026-04-04T12:11:24Z</time></trkpt><trkpt lat="46.26407046320181" lon="13.576910641296822"><ele>347.0</ele><time>2026-04-04T12:11:25Z</time></trkpt><trkpt lat="46.26421932633783" lon="13.576740982946369"><ele>347.0</ele><time>2026-04-04T12:11:26Z</time></trkpt><trkpt lat="46.264362804579" lon="13.576562846733019"><ele>347.0</ele><time>2026-04-04T12:11:27Z</time></trkpt><trkpt lat="46.26448622974304" lon="13.576354622794966"><ele>345.0</ele><time>2026-04-04T12:11:28Z</time></trkpt><trkpt lat="46.26459899530623" lon="13.576138587500703"><ele>343.0</ele><time>2026-04-04T12:11:29Z</time></trkpt><trkpt lat="46.26472097953341" lon="13.575944301874122"><ele>341.0</ele><time>2026-04-04T12:11:30Z</time></trkpt><trkpt lat="46.26485301126848" lon="13.575771191840884"><ele>341.0</ele><time>2026-04-04T12:11:31Z</time></trkpt><trkpt lat="46.264983304037415" lon="13.575600204635418"><ele>341.0</ele><time>2026-04-04T12:11:32Z</time></trkpt><trkpt lat="46.2651128535199" lon="13.575427114811218"><ele>341.0</ele><time>2026-04-04T12:11:33Z</time></trkpt><trkpt lat="46.26524193391667" lon="13.575257077753058"><ele>351.0</ele><time>2026-04-04T12:11:34Z</time></trkpt><trkpt lat="46.26536799398312" lon="13.57509041199573"><ele>361.0</ele><time>2026-04-04T12:11:35Z</time></trkpt><trkpt lat="46.265491314022896" lon="13.574925266351467"><ele>371.0</ele><time>2026-04-04T12:11:36Z</time></trkpt><trkpt lat="46.26561150201833" lon="13.574762031169811"><ele>365.6666666666667</ele><time>2026-04-04T12:11:37Z</time></trkpt><trkpt lat="46.26573202054922" lon="13.574603162900509"><ele>360.3333333333333</ele><time>2026-04-04T12:11:38Z</time></trkpt><trkpt lat="46.265849363638516" lon="13.574444956507033"><ele>355.0</ele><time>2026-04-04T12:11:39Z</time></trkpt><trkpt lat="46.26596393231423" lon="13.574293269073685"><ele>355.0</ele><time>2026-04-04T12:11:40Z</time></trkpt><trkpt lat="46.26606707104784" lon="13.574154850691654"><ele>355.0</ele><time>2026-04-04T12:11:41Z</time></trkpt><trkpt lat="46.26616387765853" lon="13.574024624463476"><ele>355.0</ele><time>2026-04-04T12:11:42Z</time></trkpt><trkpt lat="46.266261560080196" lon="13.573896573248572"><ele>355.0</ele><time>2026-04-04T12:11:43Z</time></trkpt><trkpt lat="46.26635884270532" lon="13.573763722588241"><ele>353.25</ele><time>2026-04-04T12:11:44Z</time></trkpt><trkpt lat="46.26645537223897" lon="13.573632230150105"><ele>351.5</ele><time>2026-04-04T12:11:45Z</time></trkpt><trkpt lat="46.266554331667194" lon="13.573510130792984"><ele>349.75</ele><time>2026-04-04T12:11:46Z</time></trkpt><trkpt lat="46.26665890311531" lon="13.573399547699399"><ele>348.0</ele><time>2026-04-04T12:11:47Z</time></trkpt><trkpt lat="46.266766730691636" lon="13.573303175827695"><ele>348.0</ele><time>2026-04-04T12:11:48Z</time></trkpt><trkpt lat="46.26686715702187" lon="13.573221284090708"><ele>348.0</ele><time>2026-04-04T12:11:49Z</time></trkpt><trkpt lat="46.2669680680527" lon="13.573134655423573"><ele>348.0</ele><time>2026-04-04T12:11:50Z</time></trkpt><trkpt lat="46.267090704930624" lon="13.573082825880608"><ele>348.0</ele><time>2026-04-04T12:11:51Z</time></trkpt><trkpt lat="46.267218702417786" lon="13.573009570395607"><ele>345.25</ele><time>2026-04-04T12:11:52Z</time></trkpt><trkpt lat="46.267343668258754" lon="13.572916862854946"><ele>342.5</ele><time>2026-04-04T12:11:53Z</time></trkpt><trkpt lat="46.26746502567794" lon="13.572870871124186"><ele>339.75</ele><time>2026-04-04T12:11:54Z</time></trkpt><trkpt lat="46.26756908743072" lon="13.572809352791891"><ele>337.0</ele><time>2026-04-04T12:11:55Z</time></trkpt><trkpt lat="46.26765607923324" lon="13.572758882134536"><ele>337.8333333333333</ele><time>2026-04-04T12:11:56Z</time></trkpt><trkpt lat="46.267729820561705" lon="13.572715522000703"><ele>338.66666666666663</ele><time>2026-04-04T12:11:57Z</time></trkpt><trkpt lat="46.26783171202257" lon="13.57265420031455"><ele>339.5</ele><time>2026-04-04T12:11:59Z</time></trkpt><trkpt lat="46.26790121053019" lon="13.57261584303279"><ele>340.3333333333333</ele><time>2026-04-04T12:12:01Z</time></trkpt><trkpt lat="46.26796820271239" lon="13.57257618811735"><ele>341.1666666666667</ele><time>2026-04-04T12:12:04Z</time></trkpt><trkpt lat="46.268052999736184" lon="13.572537413932952"><ele>342.0</ele><time>2026-04-04T12:14:27Z</time></trkpt><trkpt lat="46.26818348647566" lon="13.572448731838614"><ele>342.0</ele><time>2026-04-04T12:14:29Z</time></trkpt><trkpt lat="46.26829385482103" lon="13.572367564852428"><ele>342.0</ele><time>2026-04-04T12:14:30Z</time></trkpt><trkpt lat="46.26840398016015" lon="13.572255070996949"><ele>342.0</ele><time>2026-04-04T12:14:31Z</time></trkpt><trkpt lat="46.26851249809208" lon="13.572108283747594"><ele>342.0</ele><time>2026-04-04T12:14:32Z</time></trkpt><trkpt lat="46.268607005123826" lon="13.57192528427277"><ele>353.0</ele><time>2026-04-04T12:14:33Z</time></trkpt><trkpt lat="46.26869368172256" lon="13.571733998322758"><ele>364.0</ele><time>2026-04-04T12:14:34Z</time></trkpt><trkpt lat="46.2687814186294" lon="13.571551354882272"><ele>375.0</ele><time>2026-04-04T12:14:35Z</time></trkpt><trkpt lat="46.268892932570765" lon="13.571398508377136"><ele>364.5</ele><time>2026-04-04T12:14:36Z</time></trkpt><trkpt lat="46.26901396502078" lon="13.571284095759438"><ele>354.0</ele><time>2026-04-04T12:14:37Z</time></trkpt><trkpt lat="46.269147138460205" lon="13.571222046702141"><ele>343.5</ele><time>2026-04-04T12:14:38Z</time></trkpt><trkpt lat="46.26929298044352" lon="13.571200886208365"><ele>333.0</ele><time>2026-04-04T12:14:39Z</time></trkpt><trkpt lat="46.269448351970716" lon="13.571195379178866"><ele>343.0</ele><time>2026-04-04T12:14:40Z</time></trkpt><trkpt lat="46.269604212408154" lon="13.571143581809904"><ele>353.0</ele><time>2026-04-04T12:14:41Z</time></trkpt><trkpt lat="46.269759220460436" lon="13.571055120446148"><ele>363.0</ele><time>2026-04-04T12:14:42Z</time></trkpt><trkpt lat="46.26991327800425" lon="13.570955943716495"><ele>363.0</ele><time>2026-04-04T12:14:43Z</time></trkpt><trkpt lat="46.27008088762683" lon="13.570883268981861"><ele>363.0</ele><time>2026-04-04T12:14:44Z</time></trkpt><trkpt lat="46.27026143123514" lon="13.570819317593282"><ele>363.0</ele><time>2026-04-04T12:14:45Z</time></trkpt><trkpt lat="46.270439246795235" lon="13.570747341900217"><ele>357.6666666666667</ele><time>2026-04-04T12:14:46Z</time></trkpt><trkpt lat="46.27061519066033" lon="13.570679865086548"><ele>352.33333333333337</ele><time>2026-04-04T12:14:47Z</time></trkpt><trkpt lat="46.2707726113835" lon="13.570622451072213"><ele>347.0</ele><time>2026-04-04T12:14:48Z</time></trkpt><trkpt lat="46.27092809302345" lon="13.57056150712821"><ele>347.0</ele><time>2026-04-04T12:14:49Z</time></trkpt><trkpt lat="46.27108110236634" lon="13.57049692194375"><ele>347.0</ele><time>2026-04-04T12:14:50Z</time></trkpt><trkpt lat="46.27124100890487" lon="13.570434878970026"><ele>347.0</ele><time>2026-04-04T12:14:51Z</time></trkpt><trkpt lat="46.27140678057866" lon="13.570373198977991"><ele>357.33333333333337</ele><time>2026-04-04T12:14:52Z</time></trkpt><trkpt lat="46.271566170387324" lon="13.570324151534951"><ele>367.6666666666667</ele><time>2026-04-04T12:14:53Z</time></trkpt><trkpt lat="46.271721430551075" lon="13.570312114599778"><ele>378.0</ele><time>2026-04-04T12:14:54Z</time></trkpt><trkpt lat="46.27188375114992" lon="13.570332107860112"><ele>368.0</ele><time>2026-04-04T12:14:55Z</time></trkpt><trkpt lat="46.27205088375057" lon="13.570389265222454"><ele>358.0</ele><time>2026-04-04T12:14:56Z</time></trkpt><trkpt lat="46.2722214136028" lon="13.57046542013405"><ele>348.0</ele><time>2026-04-04T12:14:57Z</time></trkpt><trkpt lat="46.27239935220016" lon="13.570549308510866"><ele>348.0</ele><time>2026-04-04T12:14:58Z</time></trkpt><trkpt lat="46.2725866261169" lon="13.57062754288558"><ele>348.0</ele><time>2026-04-04T12:14:59Z</time></trkpt><trkpt lat="46.27277653349526" lon="13.570703961740765"><ele>348.0</ele><time>2026-04-04T12:15:00Z</time></trkpt><trkpt lat="46.27294975862633" lon="13.570776491555772"><ele>348.0</ele><time>2026-04-04T12:15:01Z</time></trkpt><trkpt lat="46.27310212995394" lon="13.57084261840619"><ele>348.0</ele><time>2026-04-04T12:15:02Z</time></trkpt><trkpt lat="46.27324249028568" lon="13.570896083220038"><ele>348.0</ele><time>2026-04-04T12:15:03Z</time></trkpt><trkpt lat="46.273376083461734" lon="13.570909565154597"><ele>348.0</ele><time>2026-04-04T12:15:04Z</time></trkpt><trkpt lat="46.2735015706785" lon="13.570873031867867"><ele>350.75</ele><time>2026-04-04T12:15:05Z</time></trkpt><trkpt lat="46.27362564539944" lon="13.570796662481362"><ele>353.5</ele><time>2026-04-04T12:15:06Z</time></trkpt><trkpt lat="46.273740887077366" lon="13.570674222017843"><ele>356.25</ele><time>2026-04-04T12:15:07Z</time></trkpt><trkpt lat="46.27383438213759" lon="13.570525660088991"><ele>359.0</ele><time>2026-04-04T12:15:08Z</time></trkpt><trkpt lat="46.273910009932884" lon="13.570356244507854"><ele>356.75</ele><time>2026-04-04T12:15:09Z</time></trkpt><trkpt lat="46.27398168492193" lon="13.570177530145461"><ele>354.5</ele><time>2026-04-04T12:15:10Z</time></trkpt><trkpt lat="46.27405476459175" lon="13.56999088621341"><ele>352.25</ele><time>2026-04-04T12:15:11Z</time></trkpt><trkpt lat="46.274133784329386" lon="13.5697935352349"><ele>350.0</ele><time>2026-04-04T12:15:11.999Z</time></trkpt><trkpt lat="46.27422617890825" lon="13.569588915647397"><ele>355.6666666666667</ele><time>2026-04-04T12:15:12.999Z</time></trkpt><trkpt lat="46.274329905268026" lon="13.569372548620526"><ele>361.3333333333333</ele><time>2026-04-04T12:15:13.999Z</time></trkpt><trkpt lat="46.27443713355428" lon="13.569141261928037"><ele>367.0</ele><time>2026-04-04T12:15:14.999Z</time></trkpt><trkpt lat="46.27455497002092" lon="13.568907798861815"><ele>361.0</ele><time>2026-04-04T12:15:15.999Z</time></trkpt><trkpt lat="46.274679634636314" lon="13.568674799551015"><ele>355.0</ele><time>2026-04-04T12:15:16.999Z</time></trkpt><trkpt lat="46.27480743021161" lon="13.568439004992202"><ele>349.0</ele><time>2026-04-04T12:15:17.999Z</time></trkpt><trkpt lat="46.27493320499155" lon="13.568202049072813"><ele>349.0</ele><time>2026-04-04T12:15:18.999Z</time></trkpt><trkpt lat="46.275051309695705" lon="13.56795710069854"><ele>349.0</ele><time>2026-04-04T12:15:19.999Z</time></trkpt><trkpt lat="46.27515129587057" lon="13.56769069660586"><ele>349.0</ele><time>2026-04-04T12:15:20.999Z</time></trkpt><trkpt lat="46.27523105572022" lon="13.567404531161896"><ele>358.5</ele><time>2026-04-04T12:15:21.999Z</time></trkpt><trkpt lat="46.275299242245445" lon="13.567100457930447"><ele>368.0</ele><time>2026-04-04T12:15:22.999Z</time></trkpt><trkpt lat="46.27535979235745" lon="13.566781035339554"><ele>372.0</ele><time>2026-04-04T12:15:23.999Z</time></trkpt><trkpt lat="46.275426856408224" lon="13.56645030470087"><ele>376.0</ele><time>2026-04-04T12:15:24.999Z</time></trkpt><trkpt lat="46.27550163320653" lon="13.566118563864295"><ele>376.0</ele><time>2026-04-04T12:15:25.999Z</time></trkpt><trkpt lat="46.27556703186075" lon="13.565783439719784"><ele>376.0</ele><time>2026-04-04T12:15:26.999Z</time></trkpt><trkpt lat="46.275619093026435" lon="13.56544708476952"><ele>363.0</ele><time>2026-04-04T12:15:27.999Z</time></trkpt><trkpt lat="46.27565270642494" lon="13.565111754197266"><ele>350.0</ele><time>2026-04-04T12:15:28.999Z</time></trkpt><trkpt lat="46.27566668202002" lon="13.564777587702672"><ele>348.5</ele><time>2026-04-04T12:15:30Z</time></trkpt><trkpt lat="46.27567206568765" lon="13.564445847428122"><ele>347.0</ele><time>2026-04-04T12:15:31Z</time></trkpt><trkpt lat="46.27568312692383" lon="13.56411347474222"><ele>347.0</ele><time>2026-04-04T12:15:32Z</time></trkpt><trkpt lat="46.27571039224474" lon="13.563785327400758"><ele>347.0</ele><time>2026-04-04T12:15:33Z</time></trkpt><trkpt lat="46.275747485121734" lon="13.563464909913769"><ele>347.0</ele><time>2026-04-04T12:15:34Z</time></trkpt><trkpt lat="46.275790947124214" lon="13.563148603158352"><ele>347.0</ele><time>2026-04-04T12:15:35Z</time></trkpt><trkpt lat="46.2758420495889" lon="13.562839186167306"><ele>347.0</ele><time>2026-04-04T12:15:36Z</time></trkpt><trkpt lat="46.27589629281118" lon="13.562533286647326"><ele>347.6666666666667</ele><time>2026-04-04T12:15:37Z</time></trkpt><trkpt lat="46.27595290173721" lon="13.562232331989083"><ele>348.3333333333333</ele><time>2026-04-04T12:15:38Z</time></trkpt><trkpt lat="46.27601379831232" lon="13.561940267966525"><ele>349.0</ele><time>2026-04-04T12:15:39Z</time></trkpt><trkpt lat="46.276076007979185" lon="13.56165091381521"><ele>352.0</ele><time>2026-04-04T12:15:40Z</time></trkpt><trkpt lat="46.276132929915136" lon="13.561353514314764"><ele>355.0</ele><time>2026-04-04T12:15:41Z</time></trkpt><trkpt lat="46.27617776770971" lon="13.561045347161869"><ele>358.0</ele><time>2026-04-04T12:15:42Z</time></trkpt><trkpt lat="46.276213111790256" lon="13.560729114088142"><ele>363.0</ele><time>2026-04-04T12:15:43Z</time></trkpt><trkpt lat="46.276248605142115" lon="13.560407919187293"><ele>368.0</ele><time>2026-04-04T12:15:44Z</time></trkpt><trkpt lat="46.2762870724727" lon="13.560083490904306"><ele>367.6666666666667</ele><time>2026-04-04T12:15:45Z</time></trkpt><trkpt lat="46.27632554854013" lon="13.559762310454854"><ele>367.3333333333333</ele><time>2026-04-04T12:15:46Z</time></trkpt><trkpt lat="46.27636700604339" lon="13.559447417955294"><ele>367.0</ele><time>2026-04-04T12:15:47Z</time></trkpt><trkpt lat="46.27641115045507" lon="13.55913677612442"><ele>357.0</ele><time>2026-04-04T12:15:48Z</time></trkpt><trkpt lat="46.276460935330455" lon="13.558829976356355"><ele>347.0</ele><time>2026-04-04T12:15:49Z</time></trkpt><trkpt lat="46.27652026421788" lon="13.558531921934106"><ele>337.0</ele><time>2026-04-04T12:15:50Z</time></trkpt><trkpt lat="46.27659461867133" lon="13.558244240837269"><ele>337.0</ele><time>2026-04-04T12:15:51Z</time></trkpt><trkpt lat="46.276695393941765" lon="13.55796352430521"><ele>337.0</ele><time>2026-04-04T12:15:52Z</time></trkpt><trkpt lat="46.27681551202565" lon="13.557699325645727"><ele>337.0</ele><time>2026-04-04T12:15:53Z</time></trkpt><trkpt lat="46.276947385386045" lon="13.55744527363789"><ele>339.66666666666663</ele><time>2026-04-04T12:15:54Z</time></trkpt><trkpt lat="46.27709035339522" lon="13.55720738269367"><ele>342.3333333333333</ele><time>2026-04-04T12:15:55Z</time></trkpt><trkpt lat="46.2772440289899" lon="13.556978882684822"><ele>345.0</ele><time>2026-04-04T12:15:56Z</time></trkpt><trkpt lat="46.27739249167839" lon="13.556729573643084"><ele>345.5</ele><time>2026-04-04T12:15:57Z</time></trkpt><trkpt lat="46.27752864740397" lon="13.556451099104653"><ele>346.0</ele><time>2026-04-04T12:15:58Z</time></trkpt><trkpt lat="46.277644969027875" lon="13.556158502296656"><ele>346.0</ele><time>2026-04-04T12:15:59Z</time></trkpt><trkpt lat="46.277757717587015" lon="13.555875027128213"><ele>346.0</ele><time>2026-04-04T12:16:00Z</time></trkpt><trkpt lat="46.277874978479204" lon="13.5556159369785"><ele>346.0</ele><time>2026-04-04T12:16:01Z</time></trkpt><trkpt lat="46.27801890081603" lon="13.555394191427178"><ele>341.0</ele><time>2026-04-04T12:16:02Z</time></trkpt><trkpt lat="46.27814537784495" lon="13.555175678008428"><ele>336.0</ele><time>2026-04-04T12:16:03Z</time></trkpt><trkpt lat="46.27828681784303" lon="13.5550086524324"><ele>331.0</ele><time>2026-04-04T12:16:04Z</time></trkpt><trkpt lat="46.278442045028484" lon="13.554870838506549"><ele>331.0</ele><time>2026-04-04T12:16:05Z</time></trkpt><trkpt lat="46.27861375461982" lon="13.554776416302175"><ele>331.0</ele><time>2026-04-04T12:16:06Z</time></trkpt><trkpt lat="46.27877855415347" lon="13.55470976737969"><ele>331.0</ele><time>2026-04-04T12:16:07Z</time></trkpt><trkpt lat="46.27892326532188" lon="13.554627709464805"><ele>328.3333333333333</ele><time>2026-04-04T12:16:08Z</time></trkpt><trkpt lat="46.279047490873076" lon="13.554498677739067"><ele>325.6666666666667</ele><time>2026-04-04T12:16:09Z</time></trkpt><trkpt lat="46.279154086210866" lon="13.55434169154043"><ele>323.0</ele><time>2026-04-04T12:16:10Z</time></trkpt><trkpt lat="46.27924511812927" lon="13.554165083227762"><ele>323.0</ele><time>2026-04-04T12:16:11Z</time></trkpt><trkpt lat="46.27933141189749" lon="13.553986052946096"><ele>323.0</ele><time>2026-04-04T12:16:12Z</time></trkpt><trkpt lat="46.27941606045273" lon="13.55380733779549"><ele>323.0</ele><time>2026-04-04T12:16:13Z</time></trkpt><trkpt lat="46.27950507933092" lon="13.553628131335644"><ele>323.5</ele><time>2026-04-04T12:16:14Z</time></trkpt><trkpt lat="46.279594407750466" lon="13.553455608923779"><ele>324.0</ele><time>2026-04-04T12:16:15Z</time></trkpt><trkpt lat="46.27969247821269" lon="13.553298560343553"><ele>324.5</ele><time>2026-04-04T12:16:16Z</time></trkpt><trkpt lat="46.27979053798706" lon="13.553148611300635"><ele>325.0</ele><time>2026-04-04T12:16:17Z</time></trkpt><trkpt lat="46.2798570849359" lon="13.552965769868557"><ele>326.0</ele><time>2026-04-04T12:16:18Z</time></trkpt><trkpt lat="46.27989582460437" lon="13.55275526849438"><ele>327.0</ele><time>2026-04-04T12:16:19Z</time></trkpt><trkpt lat="46.27993351924304" lon="13.552535440986492"><ele>328.0</ele><time>2026-04-04T12:16:20Z</time></trkpt><trkpt lat="46.27997538132475" lon="13.552322604935043"><ele>328.0</ele><time>2026-04-04T12:16:21Z</time></trkpt><trkpt lat="46.28001311257748" lon="13.55210591910852"><ele>328.0</ele><time>2026-04-04T12:16:22Z</time></trkpt><trkpt lat="46.280052638869634" lon="13.551891313034144"><ele>328.0</ele><time>2026-04-04T12:16:23Z</time></trkpt><trkpt lat="46.28009505373005" lon="13.551679791791566"><ele>328.5</ele><time>2026-04-04T12:16:24Z</time></trkpt><trkpt lat="46.2801382844264" lon="13.55147392973555"><ele>329.0</ele><time>2026-04-04T12:16:25Z</time></trkpt><trkpt lat="46.28018823448798" lon="13.55127587353408"><ele>329.5</ele><time>2026-04-04T12:16:26Z</time></trkpt><trkpt lat="46.28025176591756" lon="13.551083922772397"><ele>330.0</ele><time>2026-04-04T12:16:27Z</time></trkpt><trkpt lat="46.28031653277592" lon="13.550894112799249"><ele>332.0</ele><time>2026-04-04T12:16:28Z</time></trkpt><trkpt lat="46.280384253523955" lon="13.550710227068025"><ele>334.0</ele><time>2026-04-04T12:16:29Z</time></trkpt><trkpt lat="46.28044737742595" lon="13.550526611425573"><ele>336.0</ele><time>2026-04-04T12:16:30Z</time></trkpt><trkpt lat="46.28050313409969" lon="13.550337202894084"><ele>338.0</ele><time>2026-04-04T12:16:31Z</time></trkpt><trkpt lat="46.28054153057789" lon="13.550146782698004"><ele>341.0</ele><time>2026-04-04T12:16:32Z</time></trkpt><trkpt lat="46.28054160346309" lon="13.549952255256628"><ele>344.0</ele><time>2026-04-04T12:16:33Z</time></trkpt><trkpt lat="46.280505835689304" lon="13.549755759967303"><ele>347.0</ele><time>2026-04-04T12:16:34Z</time></trkpt><trkpt lat="46.280448085430834" lon="13.549557170589765"><ele>350.0</ele><time>2026-04-04T12:16:35Z</time></trkpt><trkpt lat="46.280395811710626" lon="13.549352354871122"><ele>350.6666666666667</ele><time>2026-04-04T12:16:36Z</time></trkpt><trkpt lat="46.28036354047654" lon="13.549132485371102"><ele>351.3333333333333</ele><time>2026-04-04T12:16:37Z</time></trkpt><trkpt lat="46.28035204250946" lon="13.548903602387782"><ele>352.0</ele><time>2026-04-04T12:16:38Z</time></trkpt><trkpt lat="46.28037400999348" lon="13.548676519090082"><ele>352.0</ele><time>2026-04-04T12:16:39Z</time></trkpt><trkpt lat="46.28043772391041" lon="13.548454537426272"><ele>352.0</ele><time>2026-04-04T12:16:40Z</time></trkpt><trkpt lat="46.280529676065626" lon="13.548245949566045"><ele>352.0</ele><time>2026-04-04T12:16:41Z</time></trkpt><trkpt lat="46.280630155612414" lon="13.548036085314711"><ele>342.66666666666663</ele><time>2026-04-04T12:16:42Z</time></trkpt><trkpt lat="46.28073156271964" lon="13.547815241550298"><ele>333.3333333333333</ele><time>2026-04-04T12:16:43Z</time></trkpt><trkpt lat="46.28083144463428" lon="13.54758541142039"><ele>324.0</ele><time>2026-04-04T12:16:44Z</time></trkpt><trkpt lat="46.28091824908135" lon="13.547337304136558"><ele>324.0</ele><time>2026-04-04T12:16:45Z</time></trkpt><trkpt lat="46.28097661846499" lon="13.547072879840082"><ele>324.0</ele><time>2026-04-04T12:16:46Z</time></trkpt><trkpt lat="46.281003507860554" lon="13.546784751203392"><ele>324.0</ele><time>2026-04-04T12:16:47Z</time></trkpt><trkpt lat="46.28100560728565" lon="13.546478481358308"><ele>327.0</ele><time>2026-04-04T12:16:48Z</time></trkpt><trkpt lat="46.28100232485106" lon="13.546157607952976"><ele>330.0</ele><time>2026-04-04T12:16:49Z</time></trkpt><trkpt lat="46.28099886711393" lon="13.545809324093241"><ele>330.0</ele><time>2026-04-04T12:16:50Z</time></trkpt><trkpt lat="46.2809946150775" lon="13.54541894839961"><ele>330.0</ele><time>2026-04-04T12:16:51Z</time></trkpt><trkpt lat="46.28097784155019" lon="13.5449906000498"><ele>333.0</ele><time>2026-04-04T12:16:52Z</time></trkpt><trkpt lat="46.2809629912913" lon="13.544543420314902"><ele>336.0</ele><time>2026-04-04T12:16:53Z</time></trkpt><trkpt lat="46.28095109607294" lon="13.544092929834049"><ele>338.5</ele><time>2026-04-04T12:16:54Z</time></trkpt><trkpt lat="46.280939385991815" lon="13.543649328989643"><ele>341.0</ele><time>2026-04-04T12:16:55Z</time></trkpt><trkpt lat="46.28093096789028" lon="13.543208464089295"><ele>342.5</ele><time>2026-04-04T12:16:56Z</time></trkpt><trkpt lat="46.280934564059" lon="13.542769704753681"><ele>344.0</ele><time>2026-04-04T12:16:57Z</time></trkpt><trkpt lat="46.28096078484198" lon="13.542341802129645"><ele>345.5</ele><time>2026-04-04T12:16:58Z</time></trkpt><trkpt lat="46.28100784650178" lon="13.54192735046472"><ele>347.0</ele><time>2026-04-04T12:16:59Z</time></trkpt><trkpt lat="46.28106711721841" lon="13.541557617274998"><ele>347.0</ele><time>2026-04-04T12:17:00Z</time></trkpt><trkpt lat="46.2811524805292" lon="13.541229722352579"><ele>347.0</ele><time>2026-04-04T12:17:01Z</time></trkpt><trkpt lat="46.281260775944894" lon="13.540922207025575"><ele>347.0</ele><time>2026-04-04T12:17:02Z</time></trkpt><trkpt lat="46.28138616306215" lon="13.540629773906034"><ele>347.0</ele><time>2026-04-04T12:17:03Z</time></trkpt><trkpt lat="46.281518346694575" lon="13.540346961128856"><ele>347.0</ele><time>2026-04-04T12:17:04Z</time></trkpt><trkpt lat="46.28163844132621" lon="13.540057073361995"><ele>347.0</ele><time>2026-04-04T12:17:05Z</time></trkpt><trkpt lat="46.28173867322195" lon="13.539752793715637"><ele>352.0</ele><time>2026-04-04T12:17:06Z</time></trkpt><trkpt lat="46.28182989251903" lon="13.539448104622126"><ele>357.0</ele><time>2026-04-04T12:17:07Z</time></trkpt><trkpt lat="46.281923839882836" lon="13.539151260146875"><ele>357.0</ele><time>2026-04-04T12:17:08Z</time></trkpt><trkpt lat="46.282016904898704" lon="13.53886226827645"><ele>357.0</ele><time>2026-04-04T12:17:09Z</time></trkpt><trkpt lat="46.28210861910884" lon="13.538577249169723"><ele>357.0</ele><time>2026-04-04T12:17:10Z</time></trkpt><trkpt lat="46.28220817248471" lon="13.538306371721688"><ele>356.0</ele><time>2026-04-04T12:17:11Z</time></trkpt><trkpt lat="46.282321931964574" lon="13.538053826244925"><ele>355.0</ele><time>2026-04-04T12:17:12Z</time></trkpt><trkpt lat="46.282442968133644" lon="13.537840856961367"><ele>354.0</ele><time>2026-04-04T12:17:13Z</time></trkpt><trkpt lat="46.282587601008025" lon="13.53764548151271"><ele>352.3333333333333</ele><time>2026-04-04T12:17:14Z</time></trkpt><trkpt lat="46.28277197126832" lon="13.537507377712755"><ele>350.66666666666663</ele><time>2026-04-04T12:17:15Z</time></trkpt><trkpt lat="46.28296708792736" lon="13.537335463128372"><ele>349.0</ele><time>2026-04-04T12:17:15.999Z</time></trkpt><trkpt lat="46.2831687510882" lon="13.537141674114118"><ele>366.5</ele><time>2026-04-04T12:17:16.999Z</time></trkpt><trkpt lat="46.28335586471903" lon="13.536922883281905"><ele>384.0</ele><time>2026-04-04T12:17:17.999Z</time></trkpt><trkpt lat="46.28351850143184" lon="13.536726362508425"><ele>384.0</ele><time>2026-04-04T12:17:18.999Z</time></trkpt><trkpt lat="46.28365035850781" lon="13.536541412442016"><ele>384.0</ele><time>2026-04-04T12:17:19.999Z</time></trkpt><trkpt lat="46.2837500184294" lon="13.536327338227053"><ele>384.0</ele><time>2026-04-04T12:17:20.999Z</time></trkpt><trkpt lat="46.283821486746234" lon="13.536061134692247"><ele>387.0</ele><time>2026-04-04T12:17:21.999Z</time></trkpt><trkpt lat="46.28387841497173" lon="13.535779941362868"><ele>390.0</ele><time>2026-04-04T12:17:22.999Z</time></trkpt><trkpt lat="46.28396164270896" lon="13.535511680640465"><ele>393.0</ele><time>2026-04-04T12:17:23.999Z</time></trkpt><trkpt lat="46.28406959192145" lon="13.535258987381717"><ele>393.0</ele><time>2026-04-04T12:17:24.999Z</time></trkpt><trkpt lat="46.28419419455861" lon="13.53502526693823"><ele>393.0</ele><time>2026-04-04T12:17:25.999Z</time></trkpt><trkpt lat="46.28433278793769" lon="13.53482050673189"><ele>393.0</ele><time>2026-04-04T12:17:26.999Z</time></trkpt><trkpt lat="46.28446346282192" lon="13.534639809547274"><ele>389.0</ele><time>2026-04-04T12:17:27.999Z</time></trkpt><trkpt lat="46.28456732950313" lon="13.534451296374552"><ele>385.0</ele><time>2026-04-04T12:17:28.999Z</time></trkpt><trkpt lat="46.28474835239699" lon="13.534345253110331"><ele>381.0</ele><time>2026-04-04T12:17:29.999Z</time></trkpt><trkpt lat="46.28486081540775" lon="13.534151957280308"><ele>381.0</ele><time>2026-04-04T12:17:30.999Z</time></trkpt><trkpt lat="46.28496965138356" lon="13.533955103889445"><ele>381.0</ele><time>2026-04-04T12:17:31.999Z</time></trkpt><trkpt lat="46.28507303289082" lon="13.533749856674458"><ele>381.0</ele><time>2026-04-04T12:17:32.999Z</time></trkpt><trkpt lat="46.28516827823974" lon="13.533536844969264"><ele>393.66666666666663</ele><time>2026-04-04T12:17:33.999Z</time></trkpt><trkpt lat="46.28525049475654" lon="13.533311328387361"><ele>406.3333333333333</ele><time>2026-04-04T12:17:34.999Z</time></trkpt><trkpt lat="46.28534425212565" lon="13.533093956946843"><ele>419.0</ele><time>2026-04-04T12:17:36Z</time></trkpt><trkpt lat="46.2854562022426" lon="13.532905617361584"><ele>414.66666666666663</ele><time>2026-04-04T12:17:37Z</time></trkpt><trkpt lat="46.28555978224745" lon="13.532744609710955"><ele>410.33333333333337</ele><time>2026-04-04T12:17:38Z</time></trkpt><trkpt lat="46.285680637835455" lon="13.532616074143936"><ele>406.0</ele><time>2026-04-04T12:17:39Z</time></trkpt><trkpt lat="46.28583170225505" lon="13.532532663301266"><ele>406.0</ele><time>2026-04-04T12:17:40Z</time></trkpt><trkpt lat="46.285979313659524" lon="13.53244776549311"><ele>406.0</ele><time>2026-04-04T12:17:41Z</time></trkpt><trkpt lat="46.286105073037284" lon="13.532351234674387"><ele>406.0</ele><time>2026-04-04T12:17:42Z</time></trkpt><trkpt lat="46.28621492502583" lon="13.532221362711244"><ele>406.0</ele><time>2026-04-04T12:17:43Z</time></trkpt><trkpt lat="46.28630779240335" lon="13.532044883737889"><ele>401.33333333333337</ele><time>2026-04-04T12:17:44Z</time></trkpt><trkpt lat="46.2863866735891" lon="13.53184051544968"><ele>396.66666666666663</ele><time>2026-04-04T12:17:45Z</time></trkpt><trkpt lat="46.28646755237534" lon="13.531628650600847"><ele>392.0</ele><time>2026-04-04T12:17:46Z</time></trkpt><trkpt lat="46.28654656841259" lon="13.531404948715698"><ele>398.0</ele><time>2026-04-04T12:17:47Z</time></trkpt><trkpt lat="46.28659805558475" lon="13.531156819282103"><ele>404.0</ele><time>2026-04-04T12:17:48Z</time></trkpt><trkpt lat="46.2866430279272" lon="13.530900205022961"><ele>410.0</ele><time>2026-04-04T12:17:49Z</time></trkpt><trkpt lat="46.286687954461485" lon="13.530663183525622"><ele>410.0</ele><time>2026-04-04T12:17:50Z</time></trkpt><trkpt lat="46.28673152104726" lon="13.530440061976577"><ele>410.0</ele><time>2026-04-04T12:17:51Z</time></trkpt><trkpt lat="46.28675669007427" lon="13.530220092870863"><ele>410.0</ele><time>2026-04-04T12:17:52Z</time></trkpt><trkpt lat="46.286736036187435" lon="13.529996338317597"><ele>408.66666666666663</ele><time>2026-04-04T12:17:53Z</time></trkpt><trkpt lat="46.286689890676506" lon="13.529759946557546"><ele>407.33333333333337</ele><time>2026-04-04T12:17:54Z</time></trkpt><trkpt lat="46.286645525484495" lon="13.529509179425343"><ele>406.0</ele><time>2026-04-04T12:17:55Z</time></trkpt><trkpt lat="46.28658808410376" lon="13.52925950692491"><ele>406.0</ele><time>2026-04-04T12:17:56Z</time></trkpt><trkpt lat="46.28651198255571" lon="13.529040820125799"><ele>406.0</ele><time>2026-04-04T12:17:57Z</time></trkpt><trkpt lat="46.28644593311404" lon="13.528837909133339"><ele>406.0</ele><time>2026-04-04T12:17:58Z</time></trkpt><trkpt lat="46.28641093365175" lon="13.52861145515153"><ele>406.33333333333337</ele><time>2026-04-04T12:17:59Z</time></trkpt><trkpt lat="46.286433083483956" lon="13.528368057544684"><ele>406.66666666666663</ele><time>2026-04-04T12:18:00Z</time></trkpt><trkpt lat="46.28649979560252" lon="13.528118613785473"><ele>407.0</ele><time>2026-04-04T12:18:01Z</time></trkpt><trkpt lat="46.2865745520175" lon="13.527893123115662"><ele>407.0</ele><time>2026-04-04T12:18:02Z</time></trkpt><trkpt lat="46.2866121109547" lon="13.527675799717306"><ele>407.0</ele><time>2026-04-04T12:18:03Z</time></trkpt><trkpt lat="46.28662297870146" lon="13.527454783193422"><ele>407.0</ele><time>2026-04-04T12:18:04Z</time></trkpt><trkpt lat="46.28659096822949" lon="13.527229402938588"><ele>407.0</ele><time>2026-04-04T12:18:05Z</time></trkpt><trkpt lat="46.286541353925706" lon="13.52700358576511"><ele>407.0</ele><time>2026-04-04T12:18:06Z</time></trkpt><trkpt lat="46.28652614971782" lon="13.526795231615882"><ele>407.0</ele><time>2026-04-04T12:18:07Z</time></trkpt><trkpt lat="46.28655997090958" lon="13.526580408829329"><ele>407.0</ele><time>2026-04-04T12:18:08Z</time></trkpt><trkpt lat="46.28664637612152" lon="13.526394551038779"><ele>407.0</ele><time>2026-04-04T12:18:09Z</time></trkpt><trkpt lat="46.28675407339764" lon="13.526226222221723"><ele>407.0</ele><time>2026-04-04T12:18:10Z</time></trkpt><trkpt lat="46.286832800011574" lon="13.52603953646403"><ele>408.0</ele><time>2026-04-04T12:18:11Z</time></trkpt><trkpt lat="46.28687510549006" lon="13.52582603080428"><ele>409.0</ele><time>2026-04-04T12:18:12Z</time></trkpt><trkpt lat="46.28689785550244" lon="13.525592707494653"><ele>410.0</ele><time>2026-04-04T12:18:13Z</time></trkpt><trkpt lat="46.2869021854923" lon="13.52534422763526"><ele>410.0</ele><time>2026-04-04T12:18:14Z</time></trkpt><trkpt lat="46.286907147467566" lon="13.525083459103248"><ele>410.0</ele><time>2026-04-04T12:18:15Z</time></trkpt><trkpt lat="46.286920994002195" lon="13.524828077855746"><ele>410.0</ele><time>2026-04-04T12:18:16Z</time></trkpt><trkpt lat="46.286931418890774" lon="13.524601564709375"><ele>408.25</ele><time>2026-04-04T12:18:17Z</time></trkpt><trkpt lat="46.28694217306312" lon="13.524394786905626"><ele>406.5</ele><time>2026-04-04T12:18:18Z</time></trkpt><trkpt lat="46.2869460879851" lon="13.524203939596443"><ele>404.75</ele><time>2026-04-04T12:18:19Z</time></trkpt><trkpt lat="46.28692923432256" lon="13.524030206444099"><ele>403.0</ele><time>2026-04-04T12:18:20Z</time></trkpt><trkpt lat="46.28688293515892" lon="13.52387757596766"><ele>403.0</ele><time>2026-04-04T12:18:21Z</time></trkpt><trkpt lat="46.286802893208126" lon="13.523751093314798"><ele>403.0</ele><time>2026-04-04T12:18:22Z</time></trkpt><trkpt lat="46.28669141665643" lon="13.523656425887228"><ele>403.0</ele><time>2026-04-04T12:18:23Z</time></trkpt><trkpt lat="46.286555425330945" lon="13.523584914175286"><ele>403.0</ele><time>2026-04-04T12:18:24Z</time></trkpt><trkpt lat="46.28641260584847" lon="13.523518403757915"><ele>402.6666666666667</ele><time>2026-04-04T12:18:25Z</time></trkpt><trkpt lat="46.28628033766432" lon="13.523424709470586"><ele>402.33333333333337</ele><time>2026-04-04T12:18:26Z</time></trkpt><trkpt lat="46.28615548220947" lon="13.523305782081238"><ele>402.0</ele><time>2026-04-04T12:18:27Z</time></trkpt><trkpt lat="46.28603588617079" lon="13.523164967689278"><ele>402.0</ele><time>2026-04-04T12:18:28Z</time></trkpt><trkpt lat="46.28593301711676" lon="13.522994800595761"><ele>402.0</ele><time>2026-04-04T12:18:29Z</time></trkpt><trkpt lat="46.28584504049167" lon="13.522817021828637"><ele>402.0</ele><time>2026-04-04T12:18:30Z</time></trkpt><trkpt lat="46.2857530935584" lon="13.522668170379355"><ele>402.0</ele><time>2026-04-04T12:18:31Z</time></trkpt><trkpt lat="46.28563881190987" lon="13.522534934588831"><ele>398.75</ele><time>2026-04-04T12:18:32Z</time></trkpt><trkpt lat="46.28551434350604" lon="13.522423429258222"><ele>395.5</ele><time>2026-04-04T12:18:33Z</time></trkpt><trkpt lat="46.285390574482584" lon="13.52234481095577"><ele>392.25</ele><time>2026-04-04T12:18:34Z</time></trkpt><trkpt lat="46.28525648514458" lon="13.522297144562247"><ele>389.0</ele><time>2026-04-04T12:18:35Z</time></trkpt><trkpt lat="46.28511380557226" lon="13.52229262452313"><ele>389.0</ele><time>2026-04-04T12:18:36Z</time></trkpt><trkpt lat="46.28497294879699" lon="13.522328283170836"><ele>389.0</ele><time>2026-04-04T12:18:37Z</time></trkpt><trkpt lat="46.28484123118023" lon="13.522415575572202"><ele>389.0</ele><time>2026-04-04T12:18:38Z</time></trkpt><trkpt lat="46.28471594618523" lon="13.522548375034004"><ele>389.0</ele><time>2026-04-04T12:18:39Z</time></trkpt><trkpt lat="46.284586379118394" lon="13.522677169044384"><ele>390.3333333333333</ele><time>2026-04-04T12:18:40Z</time></trkpt><trkpt lat="46.28445549900784" lon="13.522792632636861"><ele>391.66666666666663</ele><time>2026-04-04T12:18:41Z</time></trkpt><trkpt lat="46.28432520177552" lon="13.522901861933093"><ele>393.0</ele><time>2026-04-04T12:18:42Z</time></trkpt><trkpt lat="46.28418790207566" lon="13.52297667838097"><ele>393.0</ele><time>2026-04-04T12:18:43Z</time></trkpt><trkpt lat="46.28403882586639" lon="13.523015414937102"><ele>393.0</ele><time>2026-04-04T12:18:44Z</time></trkpt><trkpt lat="46.28388884519623" lon="13.52302360512764"><ele>393.0</ele><time>2026-04-04T12:18:45Z</time></trkpt><trkpt lat="46.283740524279644" lon="13.523006838547882"><ele>390.0</ele><time>2026-04-04T12:18:46Z</time></trkpt><trkpt lat="46.2835958049445" lon="13.522972947661167"><ele>387.0</ele><time>2026-04-04T12:18:47Z</time></trkpt><trkpt lat="46.283453111656" lon="13.522921386761022"><ele>384.0</ele><time>2026-04-04T12:18:48Z</time></trkpt><trkpt lat="46.283316376967264" lon="13.522844055265116"><ele>381.0</ele><time>2026-04-04T12:18:49Z</time></trkpt><trkpt lat="46.28319374765452" lon="13.522727852817978"><ele>381.6666666666667</ele><time>2026-04-04T12:18:50Z</time></trkpt><trkpt lat="46.28309400251657" lon="13.522566904293765"><ele>382.33333333333337</ele><time>2026-04-04T12:18:51Z</time></trkpt><trkpt lat="46.28302398420576" lon="13.522366408039826"><ele>383.0</ele><time>2026-04-04T12:18:52Z</time></trkpt><trkpt lat="46.28297514460681" lon="13.522152015717037"><ele>383.6666666666667</ele><time>2026-04-04T12:18:53Z</time></trkpt><trkpt lat="46.28295192833661" lon="13.521921814646227"><ele>384.33333333333337</ele><time>2026-04-04T12:18:54Z</time></trkpt><trkpt lat="46.282928731514396" lon="13.521683287920636"><ele>385.0</ele><time>2026-04-04T12:18:55Z</time></trkpt><trkpt lat="46.282898750590775" lon="13.521440252652516"><ele>385.0</ele><time>2026-04-04T12:18:56Z</time></trkpt><trkpt lat="46.28286951309666" lon="13.521201220616103"><ele>385.0</ele><time>2026-04-04T12:18:57Z</time></trkpt><trkpt lat="46.28283727826716" lon="13.520972392944927"><ele>385.0</ele><time>2026-04-04T12:18:58Z</time></trkpt><trkpt lat="46.28281288831716" lon="13.520750087411646"><ele>385.0</ele><time>2026-04-04T12:18:59Z</time></trkpt><trkpt lat="46.28280172649376" lon="13.52052633026557"><ele>385.0</ele><time>2026-04-04T12:19:00Z</time></trkpt><trkpt lat="46.282808260382154" lon="13.520293852763755"><ele>385.0</ele><time>2026-04-04T12:19:01Z</time></trkpt><trkpt lat="46.282839155879756" lon="13.52005845429968"><ele>382.6666666666667</ele><time>2026-04-04T12:19:02Z</time></trkpt><trkpt lat="46.28289136870614" lon="13.519822430046815"><ele>380.33333333333337</ele><time>2026-04-04T12:19:03Z</time></trkpt><trkpt lat="46.28294801035863" lon="13.51958481555545"><ele>378.0</ele><time>2026-04-04T12:19:04Z</time></trkpt><trkpt lat="46.28300926697818" lon="13.519347292721553"><ele>376.6666666666667</ele><time>2026-04-04T12:19:05Z</time></trkpt><trkpt lat="46.283066547901996" lon="13.519106770297649"><ele>375.33333333333337</ele><time>2026-04-04T12:19:06Z</time></trkpt><trkpt lat="46.28312239627886" lon="13.518861983072236"><ele>374.0</ele><time>2026-04-04T12:19:07Z</time></trkpt><trkpt lat="46.28318269232622" lon="13.518610753536052"><ele>373.0</ele><time>2026-04-04T12:19:08Z</time></trkpt><trkpt lat="46.28324417120272" lon="13.518349200907158"><ele>372.0</ele><time>2026-04-04T12:19:09Z</time></trkpt><trkpt lat="46.28330640043121" lon="13.518084080827796"><ele>371.0</ele><time>2026-04-04T12:19:10Z</time></trkpt><trkpt lat="46.28337161859861" lon="13.517818124661096"><ele>370.6666666666667</ele><time>2026-04-04T12:19:11Z</time></trkpt><trkpt lat="46.283436159737654" lon="13.517558030563523"><ele>370.3333333333333</ele><time>2026-04-04T12:19:12Z</time></trkpt><trkpt lat="46.28349713269652" lon="13.517310193869676"><ele>370.0</ele><time>2026-04-04T12:19:13Z</time></trkpt><trkpt lat="46.28355618620789" lon="13.517069316317256"><ele>370.3333333333333</ele><time>2026-04-04T12:19:14Z</time></trkpt><trkpt lat="46.28361572733957" lon="13.516830477404337"><ele>370.6666666666667</ele><time>2026-04-04T12:19:15Z</time></trkpt><trkpt lat="46.28367398705799" lon="13.516597640171492"><ele>371.0</ele><time>2026-04-04T12:19:15.999Z</time></trkpt><trkpt lat="46.283730063464276" lon="13.516359556872828"><ele>372.33333333333337</ele><time>2026-04-04T12:19:16.999Z</time></trkpt><trkpt lat="46.28378573535863" lon="13.516110619611444"><ele>373.6666666666667</ele><time>2026-04-04T12:19:17.999Z</time></trkpt><trkpt lat="46.28384320817002" lon="13.515857026892236"><ele>375.0</ele><time>2026-04-04T12:19:18.999Z</time></trkpt><trkpt lat="46.28390288286946" lon="13.515602393070905"><ele>373.3333333333333</ele><time>2026-04-04T12:19:19.999Z</time></trkpt><trkpt lat="46.283962818865575" lon="13.515347348476382"><ele>371.66666666666663</ele><time>2026-04-04T12:19:20.999Z</time></trkpt><trkpt lat="46.284018654258354" lon="13.515092331172127"><ele>370.0</ele><time>2026-04-04T12:19:21.999Z</time></trkpt><trkpt lat="46.28407172466663" lon="13.514838673861638"><ele>370.0</ele><time>2026-04-04T12:19:22.999Z</time></trkpt><trkpt lat="46.28412898275995" lon="13.514591967202735"><ele>370.0</ele><time>2026-04-04T12:19:23.999Z</time></trkpt><trkpt lat="46.28419402952432" lon="13.514356733616527"><ele>370.0</ele><time>2026-04-04T12:19:24.999Z</time></trkpt><trkpt lat="46.284279705296086" lon="13.514125689757584"><ele>371.0</ele><time>2026-04-04T12:19:25.999Z</time></trkpt><trkpt lat="46.284382256568875" lon="13.513891042387055"><ele>372.0</ele><time>2026-04-04T12:19:26.999Z</time></trkpt><trkpt lat="46.284482662389394" lon="13.513649993554004"><ele>373.0</ele><time>2026-04-04T12:19:27.999Z</time></trkpt><trkpt lat="46.284578817350535" lon="13.513417259822772"><ele>373.3333333333333</ele><time>2026-04-04T12:19:28.999Z</time></trkpt><trkpt lat="46.284673732170944" lon="13.513194033840067"><ele>373.6666666666667</ele><time>2026-04-04T12:19:29.999Z</time></trkpt><trkpt lat="46.28477169365594" lon="13.51299367774858"><ele>374.0</ele><time>2026-04-04T12:19:30.999Z</time></trkpt><trkpt lat="46.28488931322701" lon="13.512808693779345"><ele>375.33333333333337</ele><time>2026-04-04T12:19:31.999Z</time></trkpt><trkpt lat="46.28502540219322" lon="13.512636299825378"><ele>376.6666666666667</ele><time>2026-04-04T12:19:32.999Z</time></trkpt><trkpt lat="46.28517313529941" lon="13.512466665860467"><ele>378.0</ele><time>2026-04-04T12:19:33.999Z</time></trkpt><trkpt lat="46.285326348923725" lon="13.51230614939749"><ele>378.0</ele><time>2026-04-04T12:19:34.999Z</time></trkpt><trkpt lat="46.28548219230325" lon="13.512166436244357"><ele>378.0</ele><time>2026-04-04T12:19:35.999Z</time></trkpt><trkpt lat="46.285635864985736" lon="13.512029914916335"><ele>378.0</ele><time>2026-04-04T12:19:36.999Z</time></trkpt><trkpt lat="46.285784298426634" lon="13.51187536796149"><ele>378.3333333333333</ele><time>2026-04-04T12:19:37.999Z</time></trkpt><trkpt lat="46.285925992263024" lon="13.511694422211862"><ele>378.66666666666663</ele><time>2026-04-04T12:19:38.999Z</time></trkpt><trkpt lat="46.2860573681124" lon="13.511486451193047"><ele>379.0</ele><time>2026-04-04T12:19:39.999Z</time></trkpt><trkpt lat="46.28617490986747" lon="13.511245015916835"><ele>378.3333333333333</ele><time>2026-04-04T12:19:40.999Z</time></trkpt><trkpt lat="46.286286580054586" lon="13.510984439030283"><ele>377.6666666666667</ele><time>2026-04-04T12:19:42Z</time></trkpt><trkpt lat="46.28639681048727" lon="13.510716676990315"><ele>377.0</ele><time>2026-04-04T12:19:43Z</time></trkpt><trkpt lat="46.28650800782442" lon="13.510451580916806"><ele>378.33333333333337</ele><time>2026-04-04T12:19:44Z</time></trkpt><trkpt lat="46.28662256805068" lon="13.510193703865056"><ele>379.6666666666667</ele><time>2026-04-04T12:19:45Z</time></trkpt><trkpt lat="46.28673453770152" lon="13.509941838913383"><ele>381.0</ele><time>2026-04-04T12:19:46Z</time></trkpt><trkpt lat="46.28684913354498" lon="13.509700794986607"><ele>382.66666666666663</ele><time>2026-04-04T12:19:47Z</time></trkpt><trkpt lat="46.28696997030193" lon="13.50946314232406"><ele>384.3333333333333</ele><time>2026-04-04T12:19:48Z</time></trkpt><trkpt lat="46.287095722760554" lon="13.509208977792648"><ele>386.0</ele><time>2026-04-04T12:19:49Z</time></trkpt><trkpt lat="46.287226160749235" lon="13.508940580620175"><ele>382.0</ele><time>2026-04-04T12:19:50Z</time></trkpt><trkpt lat="46.287378025449094" lon="13.508653658680565"><ele>378.0</ele><time>2026-04-04T12:19:51Z</time></trkpt><trkpt lat="46.287552516016966" lon="13.508314848845385"><ele>378.0</ele><time>2026-04-04T12:19:52Z</time></trkpt><trkpt lat="46.28773523502106" lon="13.507944914481289"><ele>378.0</ele><time>2026-04-04T12:19:53Z</time></trkpt><trkpt lat="46.287925536015834" lon="13.507591865963105"><ele>377.5</ele><time>2026-04-04T12:19:54Z</time></trkpt><trkpt lat="46.28809510433375" lon="13.507231024387838"><ele>377.0</ele><time>2026-04-04T12:19:55Z</time></trkpt><trkpt lat="46.28824091556964" lon="13.50686790161016"><ele>380.0</ele><time>2026-04-04T12:19:56Z</time></trkpt><trkpt lat="46.288375967881215" lon="13.506518842186878"><ele>383.0</ele><time>2026-04-04T12:19:57Z</time></trkpt><trkpt lat="46.28850678837625" lon="13.50619419200406"><ele>383.5</ele><time>2026-04-04T12:19:58Z</time></trkpt><trkpt lat="46.288632323409146" lon="13.50589592595307"><ele>384.0</ele><time>2026-04-04T12:19:59Z</time></trkpt><trkpt lat="46.288747238633064" lon="13.505609125424183"><ele>383.3333333333333</ele><time>2026-04-04T12:20:00Z</time></trkpt><trkpt lat="46.28885046625548" lon="13.50533461480927"><ele>382.66666666666663</ele><time>2026-04-04T12:20:01Z</time></trkpt><trkpt lat="46.288937912568386" lon="13.505076012726263"><ele>382.0</ele><time>2026-04-04T12:20:02Z</time></trkpt><trkpt lat="46.28900409129463" lon="13.504815637694943"><ele>378.66666666666663</ele><time>2026-04-04T12:20:03Z</time></trkpt><trkpt lat="46.289049194121844" lon="13.50454381723458"><ele>375.3333333333333</ele><time>2026-04-04T12:20:04Z</time></trkpt><trkpt lat="46.28907330420436" lon="13.504256593231867"><ele>372.0</ele><time>2026-04-04T12:20:05Z</time></trkpt><trkpt lat="46.28907969480694" lon="13.503954715347794"><ele>371.0</ele><time>2026-04-04T12:20:06Z</time></trkpt><trkpt lat="46.28905866301569" lon="13.503651153190283"><ele>370.0</ele><time>2026-04-04T12:20:07Z</time></trkpt><trkpt lat="46.28901406147118" lon="13.50337580663512"><ele>369.0</ele><time>2026-04-04T12:20:08Z</time></trkpt><trkpt lat="46.28895716358899" lon="13.503117840458081"><ele>374.0</ele><time>2026-04-04T12:20:09Z</time></trkpt><trkpt lat="46.288888811018275" lon="13.50286436762903"><ele>379.0</ele><time>2026-04-04T12:20:10Z</time></trkpt><trkpt lat="46.28881876815978" lon="13.502615250922771"><ele>384.0</ele><time>2026-04-04T12:20:11Z</time></trkpt><trkpt lat="46.28875522605761" lon="13.502367887826685"><ele>384.0</ele><time>2026-04-04T12:20:12Z</time></trkpt><trkpt lat="46.2887014869316" lon="13.502134231098832"><ele>384.0</ele><time>2026-04-04T12:20:13Z</time></trkpt><trkpt lat="46.28866635077084" lon="13.50190858248746"><ele>384.0</ele><time>2026-04-04T12:20:14Z</time></trkpt><trkpt lat="46.28865717198979" lon="13.501679187327431"><ele>386.33333333333337</ele><time>2026-04-04T12:20:15Z</time></trkpt><trkpt lat="46.28867018815996" lon="13.501443244415617"><ele>388.6666666666667</ele><time>2026-04-04T12:20:16Z</time></trkpt><trkpt lat="46.28871728538023" lon="13.501191887332716"><ele>391.0</ele><time>2026-04-04T12:20:17Z</time></trkpt><trkpt lat="46.2887895882768" lon="13.500950551416942"><ele>390.33333333333337</ele><time>2026-04-04T12:20:18Z</time></trkpt><trkpt lat="46.28889462228425" lon="13.500727952390468"><ele>389.66666666666663</ele><time>2026-04-04T12:20:19Z</time></trkpt><trkpt lat="46.28900678104367" lon="13.500513675003539"><ele>389.0</ele><time>2026-04-04T12:20:20Z</time></trkpt><trkpt lat="46.28912819970045" lon="13.500313314484233"><ele>389.0</ele><time>2026-04-04T12:20:21Z</time></trkpt><trkpt lat="46.2892692981656" lon="13.500149904186133"><ele>389.0</ele><time>2026-04-04T12:20:22Z</time></trkpt><trkpt lat="46.28942675447826" lon="13.500016206203156"><ele>389.0</ele><time>2026-04-04T12:20:23Z</time></trkpt><trkpt lat="46.28959099814492" lon="13.499894324895772"><ele>389.0</ele><time>2026-04-04T12:20:24Z</time></trkpt><trkpt lat="46.28974737895335" lon="13.4997758313132"><ele>389.0</ele><time>2026-04-04T12:20:25Z</time></trkpt><trkpt lat="46.289901596385135" lon="13.499658586707955"><ele>389.0</ele><time>2026-04-04T12:20:26Z</time></trkpt><trkpt lat="46.29004918958218" lon="13.499543693725181"><ele>388.3333333333333</ele><time>2026-04-04T12:20:27Z</time></trkpt><trkpt lat="46.29018881764477" lon="13.499437560937743"><ele>387.66666666666663</ele><time>2026-04-04T12:20:28Z</time></trkpt><trkpt lat="46.290324942988846" lon="13.499329365192507"><ele>387.0</ele><time>2026-04-04T12:20:29Z</time></trkpt><trkpt lat="46.290455812800246" lon="13.499212629005857"><ele>387.0</ele><time>2026-04-04T12:20:30Z</time></trkpt><trkpt lat="46.29058183265633" lon="13.49908850644966"><ele>387.0</ele><time>2026-04-04T12:20:31Z</time></trkpt><trkpt lat="46.2907010887293" lon="13.498953007053919"><ele>387.0</ele><time>2026-04-04T12:20:32Z</time></trkpt><trkpt lat="46.29081543621395" lon="13.498811137559589"><ele>386.66666666666663</ele><time>2026-04-04T12:20:33Z</time></trkpt><trkpt lat="46.29092961652067" lon="13.49866834683584"><ele>386.3333333333333</ele><time>2026-04-04T12:20:34Z</time></trkpt><trkpt lat="46.29104391079221" lon="13.498527466278379"><ele>386.0</ele><time>2026-04-04T12:20:35Z</time></trkpt><trkpt lat="46.2911602971855" lon="13.498389332696217"><ele>386.0</ele><time>2026-04-04T12:20:36Z</time></trkpt><trkpt lat="46.2912804603607" lon="13.49825694800977"><ele>386.0</ele><time>2026-04-04T12:20:37Z</time></trkpt><trkpt lat="46.291414023403405" lon="13.49815296600506"><ele>386.0</ele><time>2026-04-04T12:20:38Z</time></trkpt><trkpt lat="46.29155986254832" lon="13.498074008660899"><ele>385.3333333333333</ele><time>2026-04-04T12:20:39Z</time></trkpt><trkpt lat="46.29170497553816" lon="13.497999827950553"><ele>384.66666666666663</ele><time>2026-04-04T12:20:40Z</time></trkpt><trkpt lat="46.2918435174666" lon="13.497907893457342"><ele>384.0</ele><time>2026-04-04T12:20:41Z</time></trkpt><trkpt lat="46.29197354527151" lon="13.49778527360458"><ele>384.0</ele><time>2026-04-04T12:20:42Z</time></trkpt><trkpt lat="46.292095423994816" lon="13.49763928993097"><ele>384.0</ele><time>2026-04-04T12:20:43Z</time></trkpt><trkpt lat="46.29221685995945" lon="13.497485927756427"><ele>384.0</ele><time>2026-04-04T12:20:44Z</time></trkpt><trkpt lat="46.292338521695015" lon="13.497337887878134"><ele>380.3333333333333</ele><time>2026-04-04T12:20:45Z</time></trkpt><trkpt lat="46.29245117358361" lon="13.497167222133909"><ele>376.66666666666663</ele><time>2026-04-04T12:20:46Z</time></trkpt><trkpt lat="46.292540175801875" lon="13.4969521793975"><ele>373.0</ele><time>2026-04-04T12:20:47Z</time></trkpt><trkpt lat="46.29260748128841" lon="13.496706772875745"><ele>373.0</ele><time>2026-04-04T12:20:48Z</time></trkpt><trkpt lat="46.29267724573804" lon="13.496453782195209"><ele>373.0</ele><time>2026-04-04T12:20:49Z</time></trkpt><trkpt lat="46.292760879505" lon="13.496211185222712"><ele>373.0</ele><time>2026-04-04T12:20:50Z</time></trkpt><trkpt lat="46.29284480602123" lon="13.495975380199473"><ele>371.0</ele><time>2026-04-04T12:20:51Z</time></trkpt><trkpt lat="46.292935173789466" lon="13.495747597996386"><ele>369.0</ele><time>2026-04-04T12:20:52Z</time></trkpt><trkpt lat="46.29304176823641" lon="13.49553663655166"><ele>367.0</ele><time>2026-04-04T12:20:53Z</time></trkpt><trkpt lat="46.29316013897121" lon="13.49534293739772"><ele>367.0</ele><time>2026-04-04T12:20:54Z</time></trkpt><trkpt lat="46.29330239060735" lon="13.495187487619964"><ele>367.0</ele><time>2026-04-04T12:20:55Z</time></trkpt><trkpt lat="46.29346164818547" lon="13.495071676199872"><ele>367.0</ele><time>2026-04-04T12:20:56Z</time></trkpt><trkpt lat="46.293635418227844" lon="13.494983025447791"><ele>367.0</ele><time>2026-04-04T12:20:57Z</time></trkpt><trkpt lat="46.293816742216144" lon="13.494928545486236"><ele>367.0</ele><time>2026-04-04T12:20:58Z</time></trkpt><trkpt lat="46.294004824588676" lon="13.494910648188725"><ele>367.0</ele><time>2026-04-04T12:20:59Z</time></trkpt><trkpt lat="46.29417397865988" lon="13.494929964858692"><ele>362.0</ele><time>2026-04-04T12:21:00Z</time></trkpt><trkpt lat="46.29432805392622" lon="13.49495519820099"><ele>357.0</ele><time>2026-04-04T12:21:01Z</time></trkpt><trkpt lat="46.294474526974334" lon="13.494931685060331"><ele>352.0</ele><time>2026-04-04T12:21:02Z</time></trkpt><trkpt lat="46.29461059717704" lon="13.494849228645199"><ele>352.0</ele><time>2026-04-04T12:21:03Z</time></trkpt><trkpt lat="46.294732931396666" lon="13.494712074236284"><ele>352.0</ele><time>2026-04-04T12:21:04Z</time></trkpt><trkpt lat="46.29483783448287" lon="13.49452284876445"><ele>352.0</ele><time>2026-04-04T12:21:05Z</time></trkpt><trkpt lat="46.2949361196317" lon="13.494301709342365"><ele>352.0</ele><time>2026-04-04T12:21:06Z</time></trkpt><trkpt lat="46.29504051372123" lon="13.494067302636783"><ele>352.0</ele><time>2026-04-04T12:21:07Z</time></trkpt><trkpt lat="46.29514118377236" lon="13.493825805488298"><ele>352.0</ele><time>2026-04-04T12:21:08Z</time></trkpt><trkpt lat="46.295223318264135" lon="13.493569056752365"><ele>352.0</ele><time>2026-04-04T12:21:09Z</time></trkpt><trkpt lat="46.29530729417564" lon="13.493308817774217"><ele>352.0</ele><time>2026-04-04T12:21:10Z</time></trkpt><trkpt lat="46.29541233899945" lon="13.493066936558542"><ele>352.0</ele><time>2026-04-04T12:21:11Z</time></trkpt><trkpt lat="46.29554654200713" lon="13.49284680884972"><ele>351.0</ele><time>2026-04-04T12:21:12Z</time></trkpt><trkpt lat="46.29569999374456" lon="13.492648600935917"><ele>350.0</ele><time>2026-04-04T12:21:13Z</time></trkpt><trkpt lat="46.295855741149566" lon="13.492458674782306"><ele>349.0</ele><time>2026-04-04T12:21:14Z</time></trkpt><trkpt lat="46.296018824591556" lon="13.492275270932208"><ele>349.0</ele><time>2026-04-04T12:21:15Z</time></trkpt><trkpt lat="46.29618227228133" lon="13.492097102500134"><ele>349.0</ele><time>2026-04-04T12:21:16Z</time></trkpt><trkpt lat="46.29634637000369" lon="13.491932044636108"><ele>349.0</ele><time>2026-04-04T12:21:17Z</time></trkpt><trkpt lat="46.29651197085109" lon="13.491784126732822"><ele>348.66666666666663</ele><time>2026-04-04T12:21:18Z</time></trkpt><trkpt lat="46.29666239626399" lon="13.491623540046477"><ele>348.3333333333333</ele><time>2026-04-04T12:21:19Z</time></trkpt><trkpt lat="46.2967967955616" lon="13.491441314508979"><ele>348.0</ele><time>2026-04-04T12:21:19.999Z</time></trkpt><trkpt lat="46.29691957514095" lon="13.49124931879847"><ele>348.0</ele><time>2026-04-04T12:21:20.999Z</time></trkpt><trkpt lat="46.297022861652735" lon="13.491035679000046"><ele>348.0</ele><time>2026-04-04T12:21:21.999Z</time></trkpt><trkpt lat="46.29710115259043" lon="13.490806291779007"><ele>348.0</ele><time>2026-04-04T12:21:22.999Z</time></trkpt><trkpt lat="46.297147269997396" lon="13.49056198185212"><ele>349.6666666666667</ele><time>2026-04-04T12:21:23.999Z</time></trkpt><trkpt lat="46.297171237026724" lon="13.490302778843088"><ele>351.33333333333337</ele><time>2026-04-04T12:21:24.999Z</time></trkpt><trkpt lat="46.29718269726038" lon="13.49004328793981"><ele>353.0</ele><time>2026-04-04T12:21:25.999Z</time></trkpt><trkpt lat="46.29719703000381" lon="13.489788362751003"><ele>353.6666666666667</ele><time>2026-04-04T12:21:26.999Z</time></trkpt><trkpt lat="46.29722074791029" lon="13.489537197984344"><ele>354.3333333333333</ele><time>2026-04-04T12:21:27.999Z</time></trkpt><trkpt lat="46.29725394344231" lon="13.489285346939404"><ele>355.0</ele><time>2026-04-04T12:21:28.999Z</time></trkpt><trkpt lat="46.29730498633914" lon="13.489033733317797"><ele>349.66666666666663</ele><time>2026-04-04T12:21:29.999Z</time></trkpt><trkpt lat="46.29736436609658" lon="13.488784139593813"><ele>344.3333333333333</ele><time>2026-04-04T12:21:30.999Z</time></trkpt><trkpt lat="46.29743102199442" lon="13.488536939317417"><ele>339.0</ele><time>2026-04-04T12:21:31.999Z</time></trkpt><trkpt lat="46.2975099840209" lon="13.488294477101435"><ele>339.0</ele><time>2026-04-04T12:21:32.999Z</time></trkpt><trkpt lat="46.2975958687259" lon="13.488064325101666"><ele>339.0</ele><time>2026-04-04T12:21:33.999Z</time></trkpt><trkpt lat="46.29769514380095" lon="13.487846455395312"><ele>339.0</ele><time>2026-04-04T12:21:34.999Z</time></trkpt><trkpt lat="46.29780646114892" lon="13.48763816765825"><ele>339.6666666666667</ele><time>2026-04-04T12:21:35.999Z</time></trkpt><trkpt lat="46.297920831841076" lon="13.4874302513844"><ele>340.33333333333337</ele><time>2026-04-04T12:21:36.999Z</time></trkpt><trkpt lat="46.29804173473787" lon="13.487224441677046"><ele>341.0</ele><time>2026-04-04T12:21:37.999Z</time></trkpt><trkpt lat="46.29816660420435" lon="13.48701812775202"><ele>341.0</ele><time>2026-04-04T12:21:38.999Z</time></trkpt><trkpt lat="46.298296155859816" lon="13.486814625354587"><ele>341.0</ele><time>2026-04-04T12:21:39.999Z</time></trkpt><trkpt lat="46.29843472329825" lon="13.486620131190461"><ele>341.0</ele><time>2026-04-04T12:21:40.999Z</time></trkpt><trkpt lat="46.298577927848434" lon="13.486433133587006"><ele>342.33333333333337</ele><time>2026-04-04T12:21:41.999Z</time></trkpt><trkpt lat="46.29872082105708" lon="13.486249784905082"><ele>343.6666666666667</ele><time>2026-04-04T12:21:42.999Z</time></trkpt><trkpt lat="46.29886673638249" lon="13.486069518890078"><ele>345.0</ele><time>2026-04-04T12:21:43.999Z</time></trkpt><trkpt lat="46.29901659650539" lon="13.48589932298983"><ele>345.0</ele><time>2026-04-04T12:21:44.999Z</time></trkpt><trkpt lat="46.299171936356665" lon="13.485744769932799"><ele>345.0</ele><time>2026-04-04T12:21:45.999Z</time></trkpt><trkpt lat="46.29933140293101" lon="13.48560086371369"><ele>345.0</ele><time>2026-04-04T12:21:46.999Z</time></trkpt><trkpt lat="46.29949421533961" lon="13.48546856469817"><ele>346.0</ele><time>2026-04-04T12:21:48Z</time></trkpt><trkpt lat="46.29966132299768" lon="13.485361597883356"><ele>347.0</ele><time>2026-04-04T12:21:49Z</time></trkpt><trkpt lat="46.29983529477988" lon="13.485270529222937"><ele>348.0</ele><time>2026-04-04T12:21:50Z</time></trkpt><trkpt lat="46.30001506005751" lon="13.485178649856994"><ele>348.0</ele><time>2026-04-04T12:21:51Z</time></trkpt><trkpt lat="46.30019113571163" lon="13.485086725904754"><ele>348.0</ele><time>2026-04-04T12:21:52Z</time></trkpt><trkpt lat="46.30036387708437" lon="13.484997340118662"><ele>348.0</ele><time>2026-04-04T12:21:53Z</time></trkpt><trkpt lat="46.300532371008536" lon="13.48490753930601"><ele>346.0</ele><time>2026-04-04T12:21:54Z</time></trkpt><trkpt lat="46.3006992048182" lon="13.484818687440914"><ele>344.0</ele><time>2026-04-04T12:21:55Z</time></trkpt><trkpt lat="46.30086589685248" lon="13.484736443659017"><ele>342.0</ele><time>2026-04-04T12:21:56Z</time></trkpt><trkpt lat="46.3010311246697" lon="13.484659790336355"><ele>342.6666666666667</ele><time>2026-04-04T12:21:57Z</time></trkpt><trkpt lat="46.301194191479894" lon="13.484585709559454"><ele>343.33333333333337</ele><time>2026-04-04T12:21:58Z</time></trkpt><trkpt lat="46.30135888671166" lon="13.48451676722207"><ele>344.0</ele><time>2026-04-04T12:21:59Z</time></trkpt><trkpt lat="46.30152597507542" lon="13.484450415394381"><ele>344.0</ele><time>2026-04-04T12:22:00Z</time></trkpt><trkpt lat="46.30169317693294" lon="13.48438011958358"><ele>344.0</ele><time>2026-04-04T12:22:01Z</time></trkpt><trkpt lat="46.301859166762405" lon="13.484308202048222"><ele>344.0</ele><time>2026-04-04T12:22:02Z</time></trkpt><trkpt lat="46.3020229417569" lon="13.484236849538885"><ele>344.0</ele><time>2026-04-04T12:22:03Z</time></trkpt><trkpt lat="46.302179666371366" lon="13.484158529872886"><ele>344.0</ele><time>2026-04-04T12:22:04Z</time></trkpt><trkpt lat="46.30233023831843" lon="13.484051023767897"><ele>344.0</ele><time>2026-04-04T12:22:05Z</time></trkpt><trkpt lat="46.30246980896399" lon="13.483909770918496"><ele>344.33333333333337</ele><time>2026-04-04T12:22:06Z</time></trkpt><trkpt lat="46.30260186046359" lon="13.483751260149315"><ele>344.6666666666667</ele><time>2026-04-04T12:22:07Z</time></trkpt><trkpt lat="46.302731243246605" lon="13.483591469986207"><ele>345.0</ele><time>2026-04-04T12:22:08Z</time></trkpt><trkpt lat="46.30285860831388" lon="13.48343373611329"><ele>345.0</ele><time>2026-04-04T12:22:09Z</time></trkpt><trkpt lat="46.30298345527743" lon="13.483277316329243"><ele>345.0</ele><time>2026-04-04T12:22:10Z</time></trkpt><trkpt lat="46.30310529736546" lon="13.48312189919671"><ele>345.0</ele><time>2026-04-04T12:22:11Z</time></trkpt><trkpt lat="46.30322391790721" lon="13.482968728721897"><ele>346.6666666666667</ele><time>2026-04-04T12:22:12Z</time></trkpt><trkpt lat="46.303338217706404" lon="13.482812919552611"><ele>348.33333333333337</ele><time>2026-04-04T12:22:13Z</time></trkpt><trkpt lat="46.30344850725222" lon="13.482654797862448"><ele>350.0</ele><time>2026-04-04T12:22:14Z</time></trkpt><trkpt lat="46.30355553455015" lon="13.48249353949764"><ele>350.0</ele><time>2026-04-04T12:22:15Z</time></trkpt><trkpt lat="46.30366541685314" lon="13.482330369191137"><ele>350.0</ele><time>2026-04-04T12:22:16Z</time></trkpt><trkpt lat="46.30376898696826" lon="13.482172679156218"><ele>350.0</ele><time>2026-04-04T12:22:17Z</time></trkpt><trkpt lat="46.3038629450591" lon="13.482024655211486"><ele>350.0</ele><time>2026-04-04T12:22:18Z</time></trkpt><trkpt lat="46.30395757424465" lon="13.481883504556466"><ele>350.25</ele><time>2026-04-04T12:22:19Z</time></trkpt><trkpt lat="46.30405626637328" lon="13.481751736610002"><ele>350.5</ele><time>2026-04-04T12:22:20Z</time></trkpt><trkpt lat="46.30415684818621" lon="13.481637874022976"><ele>350.75</ele><time>2026-04-04T12:22:21Z</time></trkpt><trkpt lat="46.304269201878505" lon="13.481542551280258"><ele>351.0</ele><time>2026-04-04T12:22:22Z</time></trkpt><trkpt lat="46.304395889734074" lon="13.481473615369266"><ele>351.0</ele><time>2026-04-04T12:22:23Z</time></trkpt><trkpt lat="46.304533899943436" lon="13.481422857336401"><ele>351.0</ele><time>2026-04-04T12:22:24Z</time></trkpt><trkpt lat="46.30467588767599" lon="13.481372421500819"><ele>351.0</ele><time>2026-04-04T12:22:25Z</time></trkpt><trkpt lat="46.304821865348075" lon="13.48131896269217"><ele>351.0</ele><time>2026-04-04T12:22:26Z</time></trkpt><trkpt lat="46.304970644737224" lon="13.481261943678232"><ele>351.3333333333333</ele><time>2026-04-04T12:22:27Z</time></trkpt><trkpt lat="46.305123026095714" lon="13.481210979782619"><ele>351.66666666666663</ele><time>2026-04-04T12:22:28Z</time></trkpt><trkpt lat="46.305277339947935" lon="13.481175856054271"><ele>352.0</ele><time>2026-04-04T12:22:29Z</time></trkpt><trkpt lat="46.30543357436652" lon="13.481169962675004"><ele>353.66666666666663</ele><time>2026-04-04T12:22:30Z</time></trkpt><trkpt lat="46.305590095083666" lon="13.481204156450957"><ele>355.3333333333333</ele><time>2026-04-04T12:22:31Z</time></trkpt><trkpt lat="46.30574879319775" lon="13.481262228789074"><ele>357.0</ele><time>2026-04-04T12:22:32Z</time></trkpt><trkpt lat="46.30590780045407" lon="13.481307688935939"><ele>357.0</ele><time>2026-04-04T12:22:33Z</time></trkpt><trkpt lat="46.306071503903205" lon="13.481319348496408"><ele>357.0</ele><time>2026-04-04T12:22:34Z</time></trkpt><trkpt lat="46.306237490945605" lon="13.481294287171277"><ele>357.0</ele><time>2026-04-04T12:22:35Z</time></trkpt><trkpt lat="46.30640094177852" lon="13.48123278287787"><ele>356.3333333333333</ele><time>2026-04-04T12:22:36Z</time></trkpt><trkpt lat="46.30656149643291" lon="13.481145203103921"><ele>355.66666666666663</ele><time>2026-04-04T12:22:37Z</time></trkpt><trkpt lat="46.3067206943393" lon="13.481054628848302"><ele>355.0</ele><time>2026-04-04T12:22:38Z</time></trkpt><trkpt lat="46.30688253785368" lon="13.480973760245018"><ele>355.0</ele><time>2026-04-04T12:22:39Z</time></trkpt><trkpt lat="46.30704519388994" lon="13.480896809708991"><ele>355.0</ele><time>2026-04-04T12:22:40Z</time></trkpt><trkpt lat="46.30720987385895" lon="13.480818657125853"><ele>355.0</ele><time>2026-04-04T12:22:41Z</time></trkpt><trkpt lat="46.307374883566354" lon="13.480739199733149"><ele>354.0</ele><time>2026-04-04T12:22:42Z</time></trkpt><trkpt lat="46.307542846931604" lon="13.480670625135854"><ele>353.0</ele><time>2026-04-04T12:22:43Z</time></trkpt><trkpt lat="46.30771365496063" lon="13.480609419242773"><ele>352.0</ele><time>2026-04-04T12:22:44Z</time></trkpt><trkpt lat="46.307884112202764" lon="13.48055539248145"><ele>352.0</ele><time>2026-04-04T12:22:45Z</time></trkpt><trkpt lat="46.30805433094652" lon="13.480501507064313"><ele>352.0</ele><time>2026-04-04T12:22:46Z</time></trkpt><trkpt lat="46.30822107966067" lon="13.480437777920658"><ele>352.0</ele><time>2026-04-04T12:22:47Z</time></trkpt><trkpt lat="46.30837770226828" lon="13.480356985499238"><ele>353.75</ele><time>2026-04-04T12:22:48Z</time></trkpt><trkpt lat="46.308523939144166" lon="13.480255745095421"><ele>355.5</ele><time>2026-04-04T12:22:49Z</time></trkpt><trkpt lat="46.30865723530729" lon="13.480153914730005"><ele>357.25</ele><time>2026-04-04T12:22:50Z</time></trkpt><trkpt lat="46.30877873128632" lon="13.480071814838054"><ele>359.0</ele><time>2026-04-04T12:22:51Z</time></trkpt><trkpt lat="46.30890086760584" lon="13.480001670867322"><ele>357.79999999999995</ele><time>2026-04-04T12:22:52Z</time></trkpt><trkpt lat="46.309014194989274" lon="13.479938325641116"><ele>356.59999999999997</ele><time>2026-04-04T12:22:53Z</time></trkpt><trkpt lat="46.30911847860095" lon="13.479878437640757"><ele>355.4</ele><time>2026-04-04T12:22:54Z</time></trkpt><trkpt lat="46.309209294380814" lon="13.47982245262509"><ele>354.2</ele><time>2026-04-04T12:22:55Z</time></trkpt><trkpt lat="46.309298903279206" lon="13.479768790142804"><ele>353.0</ele><time>2026-04-04T12:22:56Z</time></trkpt><trkpt lat="46.30938173095932" lon="13.479719375977671"><ele>353.0</ele><time>2026-04-04T12:22:57Z</time></trkpt><trkpt lat="46.30945920775276" lon="13.479679321183879"><ele>353.0</ele><time>2026-04-04T12:22:58Z</time></trkpt><trkpt lat="46.30954317193517" lon="13.479656192389049"><ele>353.0</ele><time>2026-04-04T12:22:59Z</time></trkpt><trkpt lat="46.30963087412361" lon="13.479661579355003"><ele>353.0</ele><time>2026-04-04T12:23:00Z</time></trkpt><trkpt lat="46.30971691425565" lon="13.479702734419794"><ele>353.0</ele><time>2026-04-04T12:23:01Z</time></trkpt><trkpt lat="46.30979325566968" lon="13.479752324824577"><ele>353.0</ele><time>2026-04-04T12:23:02Z</time></trkpt><trkpt lat="46.30986460341818" lon="13.479795742554971"><ele>353.83333333333337</ele><time>2026-04-04T12:23:03Z</time></trkpt><trkpt lat="46.30992018058071" lon="13.47986033682659"><ele>354.6666666666667</ele><time>2026-04-04T12:23:04Z</time></trkpt><trkpt lat="46.30995944759725" lon="13.479956459366209"><ele>355.5</ele><time>2026-04-04T12:23:05Z</time></trkpt><trkpt lat="46.30997958516889" lon="13.480079811832866"><ele>356.3333333333333</ele><time>2026-04-04T12:23:06Z</time></trkpt><trkpt lat="46.30999026115359" lon="13.480211609680827"><ele>357.16666666666663</ele><time>2026-04-04T12:23:07Z</time></trkpt><trkpt lat="46.310009779680406" lon="13.48034927692029"><ele>358.0</ele><time>2026-04-04T12:23:08Z</time></trkpt><trkpt lat="46.31001753045906" lon="13.480506628649021"><ele>355.5</ele><time>2026-04-04T12:23:09Z</time></trkpt><trkpt lat="46.31004804181808" lon="13.480682343528334"><ele>353.0</ele><time>2026-04-04T12:23:10Z</time></trkpt><trkpt lat="46.310090938165764" lon="13.480869144262329"><ele>350.5</ele><time>2026-04-04T12:23:11Z</time></trkpt><trkpt lat="46.31014260070128" lon="13.481054925653005"><ele>348.0</ele><time>2026-04-04T12:23:12Z</time></trkpt><trkpt lat="46.31022011637084" lon="13.481224247252461"><ele>347.6666666666667</ele><time>2026-04-04T12:23:13Z</time></trkpt><trkpt lat="46.31028903321474" lon="13.481404596470691"><ele>347.33333333333337</ele><time>2026-04-04T12:23:14Z</time></trkpt><trkpt lat="46.31036108719749" lon="13.48160285352344"><ele>347.0</ele><time>2026-04-04T12:23:15Z</time></trkpt><trkpt lat="46.310454062448684" lon="13.481801354559405"><ele>347.0</ele><time>2026-04-04T12:23:16Z</time></trkpt><trkpt lat="46.31057274227514" lon="13.48199237145467"><ele>347.0</ele><time>2026-04-04T12:23:17Z</time></trkpt><trkpt lat="46.31068833020559" lon="13.482239316155939"><ele>347.0</ele><time>2026-04-04T12:23:18Z</time></trkpt><trkpt lat="46.31084741679764" lon="13.48251137900259"><ele>346.5</ele><time>2026-04-04T12:23:19Z</time></trkpt><trkpt lat="46.31102299121776" lon="13.482800141913069"><ele>346.0</ele><time>2026-04-04T12:23:20Z</time></trkpt><trkpt lat="46.31120654680296" lon="13.483102031421515"><ele>346.0</ele><time>2026-04-04T12:23:21Z</time></trkpt><trkpt lat="46.31140138411088" lon="13.483385325793645"><ele>346.0</ele><time>2026-04-04T12:23:22Z</time></trkpt><trkpt lat="46.31158496942406" lon="13.483674234695707"><ele>346.0</ele><time>2026-04-04T12:23:23Z</time></trkpt><trkpt lat="46.31177007129012" lon="13.483945867425891"><ele>346.0</ele><time>2026-04-04T12:23:24Z</time></trkpt><trkpt lat="46.311948321675395" lon="13.484196239521173"><ele>346.0</ele><time>2026-04-04T12:23:24.999Z</time></trkpt><trkpt lat="46.31211571333973" lon="13.48442870775214"><ele>346.0</ele><time>2026-04-04T12:23:25.999Z</time></trkpt><trkpt lat="46.31226930638631" lon="13.484650749027196"><ele>346.0</ele><time>2026-04-04T12:23:26.999Z</time></trkpt><trkpt lat="46.3124125280442" lon="13.484861329908666"><ele>347.66666666666663</ele><time>2026-04-04T12:23:27.999Z</time></trkpt><trkpt lat="46.3125429557783" lon="13.485065813236437"><ele>349.3333333333333</ele><time>2026-04-04T12:23:28.999Z</time></trkpt><trkpt lat="46.31265024239625" lon="13.485263532159276"><ele>351.0</ele><time>2026-04-04T12:23:29.999Z</time></trkpt><trkpt lat="46.312745884551575" lon="13.485458527268433"><ele>347.6666666666667</ele><time>2026-04-04T12:23:30.999Z</time></trkpt><trkpt lat="46.312840520370294" lon="13.48564265772193"><ele>344.33333333333337</ele><time>2026-04-04T12:23:31.999Z</time></trkpt><trkpt lat="46.31294219179698" lon="13.485828281036282"><ele>341.0</ele><time>2026-04-04T12:23:32.999Z</time></trkpt><trkpt lat="46.31304611949798" lon="13.486003511986569"><ele>341.0</ele><time>2026-04-04T12:23:33.999Z</time></trkpt><trkpt lat="46.31315600439196" lon="13.486151398699358"><ele>341.0</ele><time>2026-04-04T12:23:34.999Z</time></trkpt><trkpt lat="46.31327205508463" lon="13.486278712573542"><ele>341.0</ele><time>2026-04-04T12:23:35.999Z</time></trkpt><trkpt lat="46.31339138958877" lon="13.486405601409249"><ele>341.0</ele><time>2026-04-04T12:23:36.999Z</time></trkpt><trkpt lat="46.313503582886504" lon="13.486545959289879"><ele>341.0</ele><time>2026-04-04T12:23:37.999Z</time></trkpt><trkpt lat="46.31360453025989" lon="13.486691426175085"><ele>341.0</ele><time>2026-04-04T12:23:38.999Z</time></trkpt><trkpt lat="46.31370044724247" lon="13.486839404208434"><ele>341.0</ele><time>2026-04-04T12:23:39.999Z</time></trkpt><trkpt lat="46.31380269312908" lon="13.487003370992932"><ele>341.0</ele><time>2026-04-04T12:23:40.999Z</time></trkpt><trkpt lat="46.313909557961956" lon="13.487178104877904"><ele>341.75</ele><time>2026-04-04T12:23:41.999Z</time></trkpt><trkpt lat="46.313987736902256" lon="13.487345665855406"><ele>342.5</ele><time>2026-04-04T12:23:42.999Z</time></trkpt><trkpt lat="46.31407092168867" lon="13.487489601559046"><ele>343.25</ele><time>2026-04-04T12:23:43.999Z</time></trkpt><trkpt lat="46.31415973414595" lon="13.487644455326164"><ele>344.0</ele><time>2026-04-04T12:23:44.999Z</time></trkpt><trkpt lat="46.314268424969306" lon="13.487833705931838"><ele>343.33333333333337</ele><time>2026-04-04T12:23:45.999Z</time></trkpt><trkpt lat="46.31439316313292" lon="13.488046822269391"><ele>342.6666666666667</ele><time>2026-04-04T12:23:46.999Z</time></trkpt><trkpt lat="46.314526439667304" lon="13.488274526633646"><ele>342.0</ele><time>2026-04-04T12:23:47.999Z</time></trkpt><trkpt lat="46.314664167807415" lon="13.488509836257577"><ele>342.6666666666667</ele><time>2026-04-04T12:23:48.999Z</time></trkpt><trkpt lat="46.3147992265193" lon="13.488740585360386"><ele>343.33333333333337</ele><time>2026-04-04T12:23:49.999Z</time></trkpt><trkpt lat="46.314922645308926" lon="13.488957664152506"><ele>344.0</ele><time>2026-04-04T12:23:50.999Z</time></trkpt><trkpt lat="46.31503491789193" lon="13.489171612844636"><ele>344.0</ele><time>2026-04-04T12:23:51.999Z</time></trkpt><trkpt lat="46.31512168198241" lon="13.489406107538056"><ele>344.0</ele><time>2026-04-04T12:23:52.999Z</time></trkpt><trkpt lat="46.31520657185513" lon="13.489659084221543"><ele>344.0</ele><time>2026-04-04T12:23:54Z</time></trkpt><trkpt lat="46.3152334612541" lon="13.489939878921604"><ele>344.33333333333337</ele><time>2026-04-04T12:23:55Z</time></trkpt><trkpt lat="46.3152661049988" lon="13.490221498954183"><ele>344.6666666666667</ele><time>2026-04-04T12:23:56Z</time></trkpt><trkpt lat="46.315299466758454" lon="13.490509950645052"><ele>345.0</ele><time>2026-04-04T12:23:57Z</time></trkpt><trkpt lat="46.31533692176573" lon="13.490802981318927"><ele>345.0</ele><time>2026-04-04T12:23:58Z</time></trkpt><trkpt lat="46.3153709363128" lon="13.491098824730932"><ele>345.0</ele><time>2026-04-04T12:23:59Z</time></trkpt><trkpt lat="46.31540640365611" lon="13.491393603868955"><ele>345.0</ele><time>2026-04-04T12:24:00Z</time></trkpt><trkpt lat="46.31543915748805" lon="13.4916799655903"><ele>345.0</ele><time>2026-04-04T12:24:01Z</time></trkpt><trkpt lat="46.31546140339789" lon="13.49195805981797"><ele>345.0</ele><time>2026-04-04T12:24:02Z</time></trkpt><trkpt lat="46.315460069963116" lon="13.492232795659216"><ele>345.0</ele><time>2026-04-04T12:24:03Z</time></trkpt><trkpt lat="46.31544878408386" lon="13.492506733841283"><ele>345.3333333333333</ele><time>2026-04-04T12:24:04Z</time></trkpt><trkpt lat="46.31538484551417" lon="13.492761064262123"><ele>345.66666666666663</ele><time>2026-04-04T12:24:05Z</time></trkpt><trkpt lat="46.315348569824764" lon="13.493010714911849"><ele>346.0</ele><time>2026-04-04T12:24:06Z</time></trkpt><trkpt lat="46.315316683607904" lon="13.493227834892494"><ele>345.75</ele><time>2026-04-04T12:24:07Z</time></trkpt><trkpt lat="46.31530539237489" lon="13.493434648099937"><ele>345.5</ele><time>2026-04-04T12:24:08Z</time></trkpt><trkpt lat="46.315320297706855" lon="13.493623253745545"><ele>345.25</ele><time>2026-04-04T12:24:09Z</time></trkpt><trkpt lat="46.31536031232342" lon="13.49378384099734"><ele>345.0</ele><time>2026-04-04T12:24:10Z</time></trkpt><trkpt lat="46.315424089573966" lon="13.493900575871665"><ele>345.0</ele><time>2026-04-04T12:24:11Z</time></trkpt><trkpt lat="46.31549153261663" lon="13.493989686033864"><ele>345.0</ele><time>2026-04-04T12:24:12Z</time></trkpt><trkpt lat="46.31556201026057" lon="13.494068777482916"><ele>345.0</ele><time>2026-04-04T12:24:13Z</time></trkpt><trkpt lat="46.31565091617467" lon="13.49415070685196"><ele>345.0</ele><time>2026-04-04T12:24:14Z</time></trkpt><trkpt lat="46.31577127588865" lon="13.494198995295895"><ele>345.0</ele><time>2026-04-04T12:24:15Z</time></trkpt><trkpt lat="46.315907161542754" lon="13.494185800851168"><ele>348.3333333333333</ele><time>2026-04-04T12:24:16Z</time></trkpt><trkpt lat="46.316055548786004" lon="13.494129766753826"><ele>351.66666666666663</ele><time>2026-04-04T12:24:17Z</time></trkpt><trkpt lat="46.31621096076823" lon="13.494041856167456"><ele>355.0</ele><time>2026-04-04T12:24:18Z</time></trkpt><trkpt lat="46.31638165217836" lon="13.493950115767229"><ele>357.0</ele><time>2026-04-04T12:24:19Z</time></trkpt><trkpt lat="46.31656668123964" lon="13.493868871687505"><ele>359.0</ele><time>2026-04-04T12:24:20Z</time></trkpt><trkpt lat="46.31675881354337" lon="13.493783330228345"><ele>361.0</ele><time>2026-04-04T12:24:21Z</time></trkpt><trkpt lat="46.316949844139884" lon="13.49369652118919"><ele>364.0</ele><time>2026-04-04T12:24:22Z</time></trkpt><trkpt lat="46.31711957878791" lon="13.493612950804284"><ele>367.0</ele><time>2026-04-04T12:24:23Z</time></trkpt><trkpt lat="46.31726657189676" lon="13.493538230588142"><ele>370.0</ele><time>2026-04-04T12:24:24Z</time></trkpt><trkpt lat="46.317396647503614" lon="13.493481916727289"><ele>370.0</ele><time>2026-04-04T12:24:25Z</time></trkpt><trkpt lat="46.31751936532464" lon="13.493457687230414"><ele>370.0</ele><time>2026-04-04T12:24:26Z</time></trkpt><trkpt lat="46.3176414045006" lon="13.493493526969875"><ele>370.0</ele><time>2026-04-04T12:24:27Z</time></trkpt><trkpt lat="46.31772755169496" lon="13.493596436657775"><ele>370.0</ele><time>2026-04-04T12:24:28Z</time></trkpt><trkpt lat="46.31781197065802" lon="13.493686232610498"><ele>367.75</ele><time>2026-04-04T12:24:29Z</time></trkpt><trkpt lat="46.31788304139626" lon="13.493817390204942"><ele>365.5</ele><time>2026-04-04T12:24:30Z</time></trkpt><trkpt lat="46.31795998669097" lon="13.493942058766113"><ele>363.25</ele><time>2026-04-04T12:24:31Z</time></trkpt><trkpt lat="46.318040339213965" lon="13.494055460333582"><ele>361.0</ele><time>2026-04-04T12:24:32Z</time></trkpt><trkpt lat="46.318120008041625" lon="13.4941708591314"><ele>360.8</ele><time>2026-04-04T12:24:33Z</time></trkpt><trkpt lat="46.31819622050145" lon="13.494286912509478"><ele>360.6</ele><time>2026-04-04T12:24:34Z</time></trkpt><trkpt lat="46.318272058559565" lon="13.494398269937287"><ele>360.4</ele><time>2026-04-04T12:24:35Z</time></trkpt><trkpt lat="46.318344966772464" lon="13.494508613665213"><ele>360.2</ele><time>2026-04-04T12:24:36Z</time></trkpt><trkpt lat="46.31840352111587" lon="13.494613454716946"><ele>360.0</ele><time>2026-04-04T12:24:37Z</time></trkpt><trkpt lat="46.31843842154542" lon="13.494730201183595"><ele>361.2</ele><time>2026-04-04T12:24:38Z</time></trkpt><trkpt lat="46.31843856751056" lon="13.494864143575303"><ele>362.4</ele><time>2026-04-04T12:24:39Z</time></trkpt><trkpt lat="46.31840077714904" lon="13.495005108717008"><ele>363.6</ele><time>2026-04-04T12:24:40Z</time></trkpt><trkpt lat="46.31830708200588" lon="13.49511044955343"><ele>364.8</ele><time>2026-04-04T12:24:41Z</time></trkpt><trkpt lat="46.31820369464571" lon="13.495227310477965"><ele>366.0</ele><time>2026-04-04T12:24:42Z</time></trkpt><trkpt lat="46.318088381757704" lon="13.495361844691182"><ele>363.3333333333333</ele><time>2026-04-04T12:24:43Z</time></trkpt><trkpt lat="46.31798152736027" lon="13.495531182115993"><ele>360.66666666666663</ele><time>2026-04-04T12:24:44Z</time></trkpt><trkpt lat="46.317872772089515" lon="13.495739470877366"><ele>358.0</ele><time>2026-04-04T12:24:45Z</time></trkpt><trkpt lat="46.317757849740445" lon="13.495962974520653"><ele>358.0</ele><time>2026-04-04T12:24:46Z</time></trkpt><trkpt lat="46.317646375995785" lon="13.496175714052697"><ele>358.0</ele><time>2026-04-04T12:24:47Z</time></trkpt><trkpt lat="46.317561287675964" lon="13.496372393446405"><ele>358.0</ele><time>2026-04-04T12:24:48Z</time></trkpt><trkpt lat="46.317473822946766" lon="13.49654077994221"><ele>357.0</ele><time>2026-04-04T12:24:49Z</time></trkpt><trkpt lat="46.3174185875447" lon="13.496713626026299"><ele>356.0</ele><time>2026-04-04T12:24:50Z</time></trkpt><trkpt lat="46.31740618108709" lon="13.496906667337988"><ele>355.0</ele><time>2026-04-04T12:24:51Z</time></trkpt><trkpt lat="46.31744216285852" lon="13.497100119963221"><ele>354.0</ele><time>2026-04-04T12:24:52Z</time></trkpt><trkpt lat="46.317515080215585" lon="13.497275898171111"><ele>354.0</ele><time>2026-04-04T12:24:53Z</time></trkpt><trkpt lat="46.31763766031249" lon="13.497422896998104"><ele>354.0</ele><time>2026-04-04T12:24:54Z</time></trkpt><trkpt lat="46.317789388930294" lon="13.497550679668912"><ele>354.0</ele><time>2026-04-04T12:24:55Z</time></trkpt><trkpt lat="46.31794303017969" lon="13.497707910142239"><ele>354.6666666666667</ele><time>2026-04-04T12:24:56Z</time></trkpt><trkpt lat="46.31810839121477" lon="13.497880075684655"><ele>355.33333333333337</ele><time>2026-04-04T12:24:57Z</time></trkpt><trkpt lat="46.318287161350256" lon="13.498046860126443"><ele>356.0</ele><time>2026-04-04T12:24:58Z</time></trkpt><trkpt lat="46.318474785328426" lon="13.498207683064809"><ele>354.6666666666667</ele><time>2026-04-04T12:24:59Z</time></trkpt><trkpt lat="46.31865612396134" lon="13.498361579934688"><ele>353.3333333333333</ele><time>2026-04-04T12:25:00Z</time></trkpt><trkpt lat="46.31883072186554" lon="13.498509032713097"><ele>352.0</ele><time>2026-04-04T12:25:01Z</time></trkpt><trkpt lat="46.31900193577197" lon="13.498648915215893"><ele>351.66666666666663</ele><time>2026-04-04T12:25:02Z</time></trkpt><trkpt lat="46.31916924786171" lon="13.498784751232568"><ele>351.3333333333333</ele><time>2026-04-04T12:25:03Z</time></trkpt><trkpt lat="46.3193339781886" lon="13.498918520372943"><ele>351.0</ele><time>2026-04-04T12:25:04Z</time></trkpt><trkpt lat="46.319492827526055" lon="13.499055077462991"><ele>351.0</ele><time>2026-04-04T12:25:05Z</time></trkpt><trkpt lat="46.31964192514334" lon="13.499206050063902"><ele>351.0</ele><time>2026-04-04T12:25:06Z</time></trkpt><trkpt lat="46.31977743520885" lon="13.499382024781"><ele>351.0</ele><time>2026-04-04T12:25:07Z</time></trkpt><trkpt lat="46.31989189204005" lon="13.49959259554041"><ele>350.3333333333333</ele><time>2026-04-04T12:25:08Z</time></trkpt><trkpt lat="46.319993173542336" lon="13.499821218506352"><ele>349.66666666666663</ele><time>2026-04-04T12:25:09Z</time></trkpt><trkpt lat="46.32008764039773" lon="13.500061445886313"><ele>349.0</ele><time>2026-04-04T12:25:10Z</time></trkpt><trkpt lat="46.320188627735575" lon="13.50029891989196"><ele>348.0</ele><time>2026-04-04T12:25:11Z</time></trkpt><trkpt lat="46.32029705369269" lon="13.500532705570897"><ele>347.0</ele><time>2026-04-04T12:25:12Z</time></trkpt><trkpt lat="46.320404090424056" lon="13.500771576291152"><ele>346.0</ele><time>2026-04-04T12:25:13Z</time></trkpt><trkpt lat="46.32051039527532" lon="13.501014749162671"><ele>345.3333333333333</ele><time>2026-04-04T12:25:14Z</time></trkpt><trkpt lat="46.32061815385514" lon="13.5012708578243"><ele>344.6666666666667</ele><time>2026-04-04T12:25:15Z</time></trkpt><trkpt lat="46.32072551147924" lon="13.501538436204887"><ele>344.0</ele><time>2026-04-04T12:25:16Z</time></trkpt><trkpt lat="46.32082927011849" lon="13.501816909584495"><ele>344.0</ele><time>2026-04-04T12:25:17Z</time></trkpt><trkpt lat="46.320929762224274" lon="13.502104459476133"><ele>344.0</ele><time>2026-04-04T12:25:18Z</time></trkpt><trkpt lat="46.32102755402214" lon="13.502388842611927"><ele>344.0</ele><time>2026-04-04T12:25:19Z</time></trkpt><trkpt lat="46.32112120008086" lon="13.502666744403339"><ele>344.6666666666667</ele><time>2026-04-04T12:25:20Z</time></trkpt><trkpt lat="46.32120548843441" lon="13.502934512994077"><ele>345.3333333333333</ele><time>2026-04-04T12:25:21Z</time></trkpt><trkpt lat="46.32127261375555" lon="13.503213500270745"><ele>346.0</ele><time>2026-04-04T12:25:22Z</time></trkpt><trkpt lat="46.32129982927522" lon="13.503522643896941"><ele>346.0</ele><time>2026-04-04T12:25:23Z</time></trkpt><trkpt lat="46.321337829614386" lon="13.503845700855296"><ele>346.0</ele><time>2026-04-04T12:25:24Z</time></trkpt><trkpt lat="46.32132959419709" lon="13.504180993556078"><ele>346.0</ele><time>2026-04-04T12:25:25Z</time></trkpt><trkpt lat="46.32129979790837" lon="13.504518866131125"><ele>346.0</ele><time>2026-04-04T12:25:26Z</time></trkpt><trkpt lat="46.321270781482255" lon="13.504840839281131"><ele>345.66666666666663</ele><time>2026-04-04T12:25:27Z</time></trkpt><trkpt lat="46.3212561449758" lon="13.505160919492333"><ele>345.3333333333333</ele><time>2026-04-04T12:25:28Z</time></trkpt><trkpt lat="46.32126285959616" lon="13.5054817980487"><ele>345.0</ele><time>2026-04-04T12:25:28.999Z</time></trkpt><trkpt lat="46.321291036282155" lon="13.505800031485247"><ele>346.0</ele><time>2026-04-04T12:25:29.999Z</time></trkpt><trkpt lat="46.32134353086557" lon="13.50611358000711"><ele>347.0</ele><time>2026-04-04T12:25:30.999Z</time></trkpt><trkpt lat="46.32142130410772" lon="13.50642745175133"><ele>348.5</ele><time>2026-04-04T12:25:31.999Z</time></trkpt><trkpt lat="46.32151745690133" lon="13.506744670301686"><ele>350.0</ele><time>2026-04-04T12:25:32.999Z</time></trkpt><trkpt lat="46.32162746518141" lon="13.507073234037744"><ele>350.5</ele><time>2026-04-04T12:25:33.999Z</time></trkpt><trkpt lat="46.3217442112756" lon="13.507420499283466"><ele>351.0</ele><time>2026-04-04T12:25:34.999Z</time></trkpt><trkpt lat="46.32186252268385" lon="13.50778348008069"><ele>351.5</ele><time>2026-04-04T12:25:35.999Z</time></trkpt><trkpt lat="46.321986225260126" lon="13.508162089509018"><ele>352.0</ele><time>2026-04-04T12:25:36.999Z</time></trkpt><trkpt lat="46.32211308648678" lon="13.508548213267561"><ele>353.5</ele><time>2026-04-04T12:25:37.999Z</time></trkpt><trkpt lat="46.3222376317579" lon="13.508932695244447"><ele>355.0</ele><time>2026-04-04T12:25:38.999Z</time></trkpt><trkpt lat="46.3223610046034" lon="13.509306668774467"><ele>355.5</ele><time>2026-04-04T12:25:39.999Z</time></trkpt><trkpt lat="46.32248218423142" lon="13.509663364853331"><ele>356.0</ele><time>2026-04-04T12:25:40.999Z</time></trkpt><trkpt lat="46.3225946938112" lon="13.510000496962297"><ele>356.0</ele><time>2026-04-04T12:25:41.999Z</time></trkpt><trkpt lat="46.32269369615341" lon="13.510332371050312"><ele>356.0</ele><time>2026-04-04T12:25:42.999Z</time></trkpt><trkpt lat="46.322776566247164" lon="13.510665263158623"><ele>356.0</ele><time>2026-04-04T12:25:43.999Z</time></trkpt><trkpt lat="46.32284523576446" lon="13.51099797115552"><ele>356.0</ele><time>2026-04-04T12:25:44.999Z</time></trkpt><trkpt lat="46.32290710212724" lon="13.511330173901918"><ele>355.0</ele><time>2026-04-04T12:25:45.999Z</time></trkpt><trkpt lat="46.32297384530941" lon="13.511662279822753"><ele>354.0</ele><time>2026-04-04T12:25:46.999Z</time></trkpt><trkpt lat="46.32303945856961" lon="13.511999848230326"><ele>354.0</ele><time>2026-04-04T12:25:47.999Z</time></trkpt><trkpt lat="46.323103184605294" lon="13.512339971596454"><ele>354.0</ele><time>2026-04-04T12:25:48.999Z</time></trkpt><trkpt lat="46.32316580229458" lon="13.512678602170602"><ele>355.0</ele><time>2026-04-04T12:25:49.999Z</time></trkpt><trkpt lat="46.323227982609005" lon="13.513016835204061"><ele>356.0</ele><time>2026-04-04T12:25:50.999Z</time></trkpt><trkpt lat="46.323294307591354" lon="13.5133527608204"><ele>356.0</ele><time>2026-04-04T12:25:51.999Z</time></trkpt><trkpt lat="46.32335573454916" lon="13.513686035344309"><ele>356.0</ele><time>2026-04-04T12:25:52.999Z</time></trkpt><trkpt lat="46.32340160160388" lon="13.514017978332092"><ele>356.33333333333337</ele><time>2026-04-04T12:25:53.999Z</time></trkpt><trkpt lat="46.32343434682872" lon="13.514344982880807"><ele>356.6666666666667</ele><time>2026-04-04T12:25:54.999Z</time></trkpt><trkpt lat="46.323459732930786" lon="13.514658207887885"><ele>357.0</ele><time>2026-04-04T12:25:55.999Z</time></trkpt><trkpt lat="46.323479574392316" lon="13.514941229266219"><ele>357.0</ele><time>2026-04-04T12:25:56.999Z</time></trkpt><trkpt lat="46.32348063512415" lon="13.515210344271276"><ele>357.0</ele><time>2026-04-04T12:25:57.999Z</time></trkpt><trkpt lat="46.32344660411883" lon="13.515478933557652"><ele>357.0</ele><time>2026-04-04T12:25:58.999Z</time></trkpt><trkpt lat="46.32338602162841" lon="13.515753211388851"><ele>357.6666666666667</ele><time>2026-04-04T12:26:00Z</time></trkpt><trkpt lat="46.32331205486048" lon="13.51601688037544"><ele>358.33333333333337</ele><time>2026-04-04T12:26:01Z</time></trkpt><trkpt lat="46.323238400287956" lon="13.516259222733716"><ele>359.0</ele><time>2026-04-04T12:26:02Z</time></trkpt><trkpt lat="46.32317979879947" lon="13.516482883206772"><ele>359.0</ele><time>2026-04-04T12:26:03Z</time></trkpt><trkpt lat="46.323129035534954" lon="13.516705618703627"><ele>359.0</ele><time>2026-04-04T12:26:04Z</time></trkpt><trkpt lat="46.323084503452726" lon="13.516926269039594"><ele>359.0</ele><time>2026-04-04T12:26:05Z</time></trkpt><trkpt lat="46.32305345565786" lon="13.517153606159201"><ele>359.6666666666667</ele><time>2026-04-04T12:26:06Z</time></trkpt><trkpt lat="46.32304775503303" lon="13.517386711814591"><ele>360.3333333333333</ele><time>2026-04-04T12:26:07Z</time></trkpt><trkpt lat="46.32307004576731" lon="13.517620080876227"><ele>361.0</ele><time>2026-04-04T12:26:08Z</time></trkpt><trkpt lat="46.32311711792454" lon="13.517848027310523"><ele>362.66666666666663</ele><time>2026-04-04T12:26:09Z</time></trkpt><trkpt lat="46.3231663108114" lon="13.518081793429465"><ele>364.3333333333333</ele><time>2026-04-04T12:26:10Z</time></trkpt><trkpt lat="46.32322377523374" lon="13.518322674217645"><ele>366.0</ele><time>2026-04-04T12:26:11Z</time></trkpt><trkpt lat="46.3233125435046" lon="13.51855188643275"><ele>367.3333333333333</ele><time>2026-04-04T12:26:12Z</time></trkpt><trkpt lat="46.32342776081676" lon="13.518765435451414"><ele>368.66666666666663</ele><time>2026-04-04T12:26:13Z</time></trkpt><trkpt lat="46.32354798009557" lon="13.518971667998883"><ele>370.0</ele><time>2026-04-04T12:26:14Z</time></trkpt><trkpt lat="46.3236760853228" lon="13.519164839088196"><ele>370.0</ele><time>2026-04-04T12:26:15Z</time></trkpt><trkpt lat="46.32382763905158" lon="13.519332670640537"><ele>370.0</ele><time>2026-04-04T12:26:16Z</time></trkpt><trkpt lat="46.323999374454566" lon="13.519473921289975"><ele>370.0</ele><time>2026-04-04T12:26:17Z</time></trkpt><trkpt lat="46.32416197016738" lon="13.519619492011687"><ele>370.66666666666663</ele><time>2026-04-04T12:26:18Z</time></trkpt><trkpt lat="46.32430710383194" lon="13.519786400105504"><ele>371.3333333333333</ele><time>2026-04-04T12:26:19Z</time></trkpt><trkpt lat="46.32444222198341" lon="13.519978978623287"><ele>372.0</ele><time>2026-04-04T12:26:20Z</time></trkpt><trkpt lat="46.32455990499707" lon="13.520205031731646"><ele>372.3333333333333</ele><time>2026-04-04T12:26:21Z</time></trkpt><trkpt lat="46.32466335042235" lon="13.520454721074913"><ele>372.66666666666663</ele><time>2026-04-04T12:26:22Z</time></trkpt><trkpt lat="46.32478193135541" lon="13.520691424696542"><ele>373.0</ele><time>2026-04-04T12:26:23Z</time></trkpt><trkpt lat="46.32493260703418" lon="13.520889913451473"><ele>375.66666666666663</ele><time>2026-04-04T12:26:24Z</time></trkpt><trkpt lat="46.32511035374338" lon="13.521056590490723"><ele>378.3333333333333</ele><time>2026-04-04T12:26:25Z</time></trkpt><trkpt lat="46.32528615652414" lon="13.521235555308055"><ele>381.0</ele><time>2026-04-04T12:26:26Z</time></trkpt><trkpt lat="46.325433542843165" lon="13.521437494168596"><ele>381.0</ele><time>2026-04-04T12:26:27Z</time></trkpt><trkpt lat="46.32555016366058" lon="13.521668208442943"><ele>381.0</ele><time>2026-04-04T12:26:28Z</time></trkpt><trkpt lat="46.32562100225401" lon="13.521935974320503"><ele>381.0</ele><time>2026-04-04T12:26:29Z</time></trkpt><trkpt lat="46.325639128817905" lon="13.522223093206575"><ele>386.66666666666663</ele><time>2026-04-04T12:26:30Z</time></trkpt><trkpt lat="46.32562079862635" lon="13.522516644647665"><ele>392.3333333333333</ele><time>2026-04-04T12:26:31Z</time></trkpt><trkpt lat="46.325594688720784" lon="13.522840724865116"><ele>398.0</ele><time>2026-04-04T12:26:32Z</time></trkpt><trkpt lat="46.32558229989081" lon="13.523192324567287"><ele>400.0</ele><time>2026-04-04T12:26:33Z</time></trkpt><trkpt lat="46.325571337323964" lon="13.523549104013313"><ele>402.0</ele><time>2026-04-04T12:26:34Z</time></trkpt><trkpt lat="46.325557839668086" lon="13.523908126876709"><ele>393.5</ele><time>2026-04-04T12:26:35Z</time></trkpt><trkpt lat="46.32554496325401" lon="13.524271641401414"><ele>385.0</ele><time>2026-04-04T12:26:36Z</time></trkpt><trkpt lat="46.32553678684497" lon="13.52464137295739"><ele>385.0</ele><time>2026-04-04T12:26:37Z</time></trkpt><trkpt lat="46.32552482745092" lon="13.525014947998798"><ele>385.0</ele><time>2026-04-04T12:26:38Z</time></trkpt><trkpt lat="46.32550963752654" lon="13.525386319436157"><ele>387.0</ele><time>2026-04-04T12:26:39Z</time></trkpt><trkpt lat="46.325491759326425" lon="13.525745584609114"><ele>389.0</ele><time>2026-04-04T12:26:40Z</time></trkpt><trkpt lat="46.325451187855336" lon="13.526084560812901"><ele>391.0</ele><time>2026-04-04T12:26:41Z</time></trkpt><trkpt lat="46.32538841797541" lon="13.526412767986134"><ele>393.0</ele><time>2026-04-04T12:26:42Z</time></trkpt><trkpt lat="46.32533122120889" lon="13.526732981280194"><ele>393.0</ele><time>2026-04-04T12:26:43Z</time></trkpt><trkpt lat="46.32527979612274" lon="13.527030621117692"><ele>393.0</ele><time>2026-04-04T12:26:44Z</time></trkpt><trkpt lat="46.325233400158176" lon="13.527292419876611"><ele>393.0</ele><time>2026-04-04T12:26:45Z</time></trkpt><trkpt lat="46.325191761806515" lon="13.52752651733998"><ele>392.5</ele><time>2026-04-04T12:26:46Z</time></trkpt><trkpt lat="46.32516639215374" lon="13.527736203685883"><ele>392.0</ele><time>2026-04-04T12:26:47Z</time></trkpt><trkpt lat="46.32518475697653" lon="13.527914853941036"><ele>391.5</ele><time>2026-04-04T12:26:48Z</time></trkpt><trkpt lat="46.32524789165212" lon="13.528105763968902"><ele>391.0</ele><time>2026-04-04T12:26:49Z</time></trkpt><trkpt lat="46.325365509219914" lon="13.528280692941879"><ele>391.0</ele><time>2026-04-04T12:26:50Z</time></trkpt><trkpt lat="46.32550209663076" lon="13.528461991595984"><ele>391.0</ele><time>2026-04-04T12:26:51Z</time></trkpt><trkpt lat="46.32562424003929" lon="13.5286489791384"><ele>391.0</ele><time>2026-04-04T12:26:52Z</time></trkpt><trkpt lat="46.32571889613919" lon="13.52883817507062"><ele>399.0</ele><time>2026-04-04T12:26:53Z</time></trkpt><trkpt lat="46.325791353758724" lon="13.529054215508527"><ele>407.0</ele><time>2026-04-04T12:26:54Z</time></trkpt><trkpt lat="46.325852883693216" lon="13.529296591911697"><ele>415.0</ele><time>2026-04-04T12:26:55Z</time></trkpt><trkpt lat="46.32593161964477" lon="13.529547979733852"><ele>415.33333333333337</ele><time>2026-04-04T12:26:56Z</time></trkpt><trkpt lat="46.32600832275694" lon="13.529818676602028"><ele>415.66666666666663</ele><time>2026-04-04T12:26:57Z</time></trkpt><trkpt lat="46.32608227715456" lon="13.530097348590646"><ele>416.0</ele><time>2026-04-04T12:26:58Z</time></trkpt><trkpt lat="46.32616117679791" lon="13.53038432965327"><ele>415.0</ele><time>2026-04-04T12:26:59Z</time></trkpt><trkpt lat="46.326243810404456" lon="13.530666487112601"><ele>414.0</ele><time>2026-04-04T12:27:00Z</time></trkpt><trkpt lat="46.32632091179442" lon="13.530943224547803"><ele>413.0</ele><time>2026-04-04T12:27:01Z</time></trkpt><trkpt lat="46.326396965572705" lon="13.531209413241926"><ele>416.0</ele><time>2026-04-04T12:27:02Z</time></trkpt><trkpt lat="46.32647043512725" lon="13.531470199531233"><ele>419.0</ele><time>2026-04-04T12:27:03Z</time></trkpt><trkpt lat="46.32652458014703" lon="13.53172851361679"><ele>422.0</ele><time>2026-04-04T12:27:04Z</time></trkpt><trkpt lat="46.326604391476536" lon="13.531969832251491"><ele>421.0</ele><time>2026-04-04T12:27:05Z</time></trkpt><trkpt lat="46.32667140021394" lon="13.532224979189765"><ele>420.0</ele><time>2026-04-04T12:27:06Z</time></trkpt><trkpt lat="46.32673997931974" lon="13.532471452472828"><ele>419.0</ele><time>2026-04-04T12:27:07Z</time></trkpt><trkpt lat="46.326808238878264" lon="13.532700074874056"><ele>416.3333333333333</ele><time>2026-04-04T12:27:08Z</time></trkpt><trkpt lat="46.326900096116795" lon="13.532919964915662"><ele>413.66666666666663</ele><time>2026-04-04T12:27:09Z</time></trkpt><trkpt lat="46.32701590743357" lon="13.533124285141023"><ele>411.0</ele><time>2026-04-04T12:27:10Z</time></trkpt><trkpt lat="46.32713178445572" lon="13.533317414131071"><ele>412.66666666666663</ele><time>2026-04-04T12:27:11Z</time></trkpt><trkpt lat="46.32725502155966" lon="13.53349853640155"><ele>414.3333333333333</ele><time>2026-04-04T12:27:12Z</time></trkpt><trkpt lat="46.327403017775836" lon="13.53364555770913"><ele>416.0</ele><time>2026-04-04T12:27:13Z</time></trkpt><trkpt lat="46.327577361575656" lon="13.533758290650857"><ele>416.0</ele><time>2026-04-04T12:27:14Z</time></trkpt><trkpt lat="46.32776324794928" lon="13.533866058505112"><ele>416.0</ele><time>2026-04-04T12:27:15Z</time></trkpt><trkpt lat="46.32794840644817" lon="13.533983526481482"><ele>416.0</ele><time>2026-04-04T12:27:16Z</time></trkpt><trkpt lat="46.32813704123733" lon="13.534106000006075"><ele>416.0</ele><time>2026-04-04T12:27:17Z</time></trkpt><trkpt lat="46.328326883107884" lon="13.534239118036792"><ele>416.0</ele><time>2026-04-04T12:27:18Z</time></trkpt><trkpt lat="46.32851541061651" lon="13.534382768615437"><ele>416.0</ele><time>2026-04-04T12:27:19Z</time></trkpt><trkpt lat="46.32870295343757" lon="13.534532406460086"><ele>415.0</ele><time>2026-04-04T12:27:20Z</time></trkpt><trkpt lat="46.328885304793644" lon="13.534678152964602"><ele>414.0</ele><time>2026-04-04T12:27:21Z</time></trkpt><trkpt lat="46.329061430384826" lon="13.53481312915623"><ele>413.0</ele><time>2026-04-04T12:27:22Z</time></trkpt><trkpt lat="46.32922727104447" lon="13.534957012299005"><ele>415.0</ele><time>2026-04-04T12:27:23Z</time></trkpt><trkpt lat="46.32937602352776" lon="13.535139148781072"><ele>417.0</ele><time>2026-04-04T12:27:24Z</time></trkpt><trkpt lat="46.32950860643759" lon="13.535365240425424"><ele>419.0</ele><time>2026-04-04T12:27:25Z</time></trkpt><trkpt lat="46.329630192935845" lon="13.535621312628816"><ele>423.0</ele><time>2026-04-04T12:27:26Z</time></trkpt><trkpt lat="46.329767606130815" lon="13.535876048084234"><ele>427.0</ele><time>2026-04-04T12:27:27Z</time></trkpt><trkpt lat="46.32992503915135" lon="13.536113552162549"><ele>427.5</ele><time>2026-04-04T12:27:28Z</time></trkpt><trkpt lat="46.330094837793474" lon="13.536338444551685"><ele>428.0</ele><time>2026-04-04T12:27:29Z</time></trkpt><trkpt lat="46.33026733992203" lon="13.536541531198852"><ele>428.0</ele><time>2026-04-04T12:27:30Z</time></trkpt><trkpt lat="46.33043319926299" lon="13.536740525235063"><ele>428.0</ele><time>2026-04-04T12:27:31Z</time></trkpt><trkpt lat="46.3305775222047" lon="13.536952000170485"><ele>428.0</ele><time>2026-04-04T12:27:31.999Z</time></trkpt><trkpt lat="46.33070326841119" lon="13.537157028203609"><ele>429.0</ele><time>2026-04-04T12:27:32.999Z</time></trkpt><trkpt lat="46.33080461183102" lon="13.537363186715275"><ele>430.0</ele><time>2026-04-04T12:27:33.999Z</time></trkpt><trkpt lat="46.33091278040369" lon="13.537553163474474"><ele>431.0</ele><time>2026-04-04T12:27:34.999Z</time></trkpt><trkpt lat="46.33103231454637" lon="13.537717972302783"><ele>431.0</ele><time>2026-04-04T12:27:35.999Z</time></trkpt><trkpt lat="46.33114914010319" lon="13.537891191669143"><ele>431.0</ele><time>2026-04-04T12:27:36.999Z</time></trkpt><trkpt lat="46.33126999019327" lon="13.538059735062655"><ele>431.0</ele><time>2026-04-04T12:27:37.999Z</time></trkpt><trkpt lat="46.33139204515928" lon="13.53823119838719"><ele>431.0</ele><time>2026-04-04T12:27:38.999Z</time></trkpt><trkpt lat="46.33151546924465" lon="13.538399962747897"><ele>431.0</ele><time>2026-04-04T12:27:39.999Z</time></trkpt><trkpt lat="46.331643044725524" lon="13.53855803016576"><ele>431.0</ele><time>2026-04-04T12:27:40.999Z</time></trkpt><trkpt lat="46.33176386694647" lon="13.538717013558985"><ele>430.0</ele><time>2026-04-04T12:27:41.999Z</time></trkpt><trkpt lat="46.331867993196376" lon="13.538861895901999"><ele>429.0</ele><time>2026-04-04T12:27:42.999Z</time></trkpt><trkpt lat="46.33195625899585" lon="13.538993753341323"><ele>428.0</ele><time>2026-04-04T12:27:43.999Z</time></trkpt><trkpt lat="46.33203384466135" lon="13.539128653122983"><ele>427.0</ele><time>2026-04-04T12:27:44.999Z</time></trkpt><trkpt lat="46.332097497561605" lon="13.539265448500085"><ele>427.00000000000006</ele><time>2026-04-04T12:27:45.999Z</time></trkpt><trkpt lat="46.332146472362595" lon="13.53939595319369"><ele>427.0</ele><time>2026-04-04T12:27:46.999Z</time></trkpt><trkpt lat="46.332179801810085" lon="13.539509896224075"><ele>427.0</ele><time>2026-04-04T12:27:47.999Z</time></trkpt><trkpt lat="46.33220373845909" lon="13.539611976548525"><ele>427.0</ele><time>2026-04-04T12:27:48.999Z</time></trkpt><trkpt lat="46.33221917780839" lon="13.539738293194254"><ele>427.00000000000006</ele><time>2026-04-04T12:27:50.999Z</time></trkpt><trkpt lat="46.332206648093326" lon="13.539871336203994"><ele>427.0</ele><time>2026-04-04T12:27:54.999Z</time></trkpt><trkpt lat="46.33217328412424" lon="13.540003282979768"><ele>426.83333333333337</ele><time>2026-04-04T12:27:56.999Z</time></trkpt><trkpt lat="46.33215681284819" lon="13.540098687372648"><ele>426.6666666666667</ele><time>2026-04-04T12:27:58.999Z</time></trkpt><trkpt lat="46.33223784880268" lon="13.540165073524157"><ele>426.5</ele><time>2026-04-04T12:28:00.999Z</time></trkpt><trkpt lat="46.33223004271747" lon="13.540264640847044"><ele>426.33333333333337</ele><time>2026-04-04T12:28:01.999Z</time></trkpt><trkpt lat="46.33221029736127" lon="13.540434020921504"><ele>426.1666666666667</ele><time>2026-04-04T12:28:03.999Z</time></trkpt><trkpt lat="46.332194672150365" lon="13.540531416325187"><ele>426.0</ele><time>2026-04-04T12:28:04.999Z</time></trkpt><trkpt lat="46.33216942306702" lon="13.540637669295135"><ele>426.0</ele><time>2026-04-04T12:28:06Z</time></trkpt><trkpt lat="46.332140244393756" lon="13.540749550905602"><ele>426.0</ele><time>2026-04-04T12:28:07Z</time></trkpt><trkpt lat="46.33209403960338" lon="13.540867563119523"><ele>426.0</ele><time>2026-04-04T12:28:08Z</time></trkpt><trkpt lat="46.33201921808058" lon="13.540983394614567"><ele>426.0</ele><time>2026-04-04T12:28:09Z</time></trkpt><trkpt lat="46.331942434638215" lon="13.541109446706134"><ele>426.0</ele><time>2026-04-04T12:28:10Z</time></trkpt><trkpt lat="46.3318504334865" lon="13.541229930854291"><ele>426.25</ele><time>2026-04-04T12:28:11Z</time></trkpt><trkpt lat="46.331748951242645" lon="13.541340815542465"><ele>426.5</ele><time>2026-04-04T12:28:12Z</time></trkpt><trkpt lat="46.331637780536056" lon="13.541438794368394"><ele>426.75</ele><time>2026-04-04T12:28:13Z</time></trkpt><trkpt lat="46.33151504622001" lon="13.54153933210604"><ele>427.0</ele><time>2026-04-04T12:28:14Z</time></trkpt><trkpt lat="46.33138729843294" lon="13.541643159912201"><ele>426.33333333333337</ele><time>2026-04-04T12:28:15Z</time></trkpt><trkpt lat="46.33124678258112" lon="13.541754060533945"><ele>425.66666666666663</ele><time>2026-04-04T12:28:16Z</time></trkpt><trkpt lat="46.3310594381362" lon="13.541901920179164"><ele>425.0</ele><time>2026-04-04T12:28:17Z</time></trkpt><trkpt lat="46.33084408655817" lon="13.542071883418615"><ele>424.0</ele><time>2026-04-04T12:28:18Z</time></trkpt><trkpt lat="46.3306150096296" lon="13.542253670446318"><ele>423.0</ele><time>2026-04-04T12:28:19Z</time></trkpt><trkpt lat="46.33039379842968" lon="13.54242903280701"><ele>423.33333333333337</ele><time>2026-04-04T12:28:20Z</time></trkpt><trkpt lat="46.33020322752247" lon="13.54260513289521"><ele>423.6666666666667</ele><time>2026-04-04T12:28:21Z</time></trkpt><trkpt lat="46.330053615437684" lon="13.542824401768947"><ele>424.0</ele><time>2026-04-04T12:28:22Z</time></trkpt><trkpt lat="46.32992628078206" lon="13.543059377076839"><ele>424.0</ele><time>2026-04-04T12:28:23Z</time></trkpt><trkpt lat="46.32983761466351" lon="13.543322294746691"><ele>424.0</ele><time>2026-04-04T12:28:24Z</time></trkpt><trkpt lat="46.32978161447848" lon="13.543603570557345"><ele>424.0</ele><time>2026-04-04T12:28:25Z</time></trkpt><trkpt lat="46.3297613549912" lon="13.543891576801022"><ele>424.6666666666667</ele><time>2026-04-04T12:28:26Z</time></trkpt><trkpt lat="46.329778180037756" lon="13.544177038657669"><ele>425.33333333333337</ele><time>2026-04-04T12:28:27Z</time></trkpt><trkpt lat="46.32982335310771" lon="13.544454718012993"><ele>426.0</ele><time>2026-04-04T12:28:28Z</time></trkpt><trkpt lat="46.32990664337227" lon="13.544728501870718"><ele>427.0</ele><time>2026-04-04T12:28:29Z</time></trkpt><trkpt lat="46.33000867129264" lon="13.544999977550999"><ele>428.0</ele><time>2026-04-04T12:28:30Z</time></trkpt><trkpt lat="46.33011636297662" lon="13.545272983559093"><ele>429.0</ele><time>2026-04-04T12:28:31Z</time></trkpt><trkpt lat="46.33023452281726" lon="13.545546710508962"><ele>429.0</ele><time>2026-04-04T12:28:32Z</time></trkpt><trkpt lat="46.3303523277341" lon="13.5458313742287"><ele>429.0</ele><time>2026-04-04T12:28:33Z</time></trkpt><trkpt lat="46.33047257775614" lon="13.546124854450973"><ele>430.0</ele><time>2026-04-04T12:28:34Z</time></trkpt><trkpt lat="46.3305969155202" lon="13.546422684738804"><ele>431.0</ele><time>2026-04-04T12:28:35Z</time></trkpt><trkpt lat="46.33072189219302" lon="13.54672769871186"><ele>431.0</ele><time>2026-04-04T12:28:36Z</time></trkpt><trkpt lat="46.33084762718196" lon="13.547039872543715"><ele>431.0</ele><time>2026-04-04T12:28:37Z</time></trkpt><trkpt lat="46.330975208901485" lon="13.547352714291039"><ele>431.5</ele><time>2026-04-04T12:28:38Z</time></trkpt><trkpt lat="46.331106056889176" lon="13.547666246940357"><ele>432.0</ele><time>2026-04-04T12:28:39Z</time></trkpt><trkpt lat="46.33123241701975" lon="13.547979133924676"><ele>432.5</ele><time>2026-04-04T12:28:40Z</time></trkpt><trkpt lat="46.33135525954156" lon="13.548291777819644"><ele>433.0</ele><time>2026-04-04T12:28:41Z</time></trkpt><trkpt lat="46.331478091639184" lon="13.548600328423161"><ele>435.0</ele><time>2026-04-04T12:28:42Z</time></trkpt><trkpt lat="46.33160009924079" lon="13.548903223633452"><ele>437.0</ele><time>2026-04-04T12:28:43Z</time></trkpt><trkpt lat="46.331716367983425" lon="13.549196437342907"><ele>437.0</ele><time>2026-04-04T12:28:44Z</time></trkpt><trkpt lat="46.33183044371082" lon="13.549482702450804"><ele>437.0</ele><time>2026-04-04T12:28:45Z</time></trkpt><trkpt lat="46.33194211332515" lon="13.549764606430125"><ele>436.66666666666663</ele><time>2026-04-04T12:28:46Z</time></trkpt><trkpt lat="46.33205243005573" lon="13.550040428997452"><ele>436.33333333333337</ele><time>2026-04-04T12:28:47Z</time></trkpt><trkpt lat="46.33216322047406" lon="13.550309330631087"><ele>436.0</ele><time>2026-04-04T12:28:48Z</time></trkpt><trkpt lat="46.332280575073774" lon="13.550565761964332"><ele>436.33333333333337</ele><time>2026-04-04T12:28:49Z</time></trkpt><trkpt lat="46.33240853754805" lon="13.550804314127891"><ele>436.66666666666663</ele><time>2026-04-04T12:28:50Z</time></trkpt><trkpt lat="46.33254499003758" lon="13.551030852666358"><ele>437.0</ele><time>2026-04-04T12:28:51Z</time></trkpt><trkpt lat="46.33268946308759" lon="13.5512494288972"><ele>437.0</ele><time>2026-04-04T12:28:52Z</time></trkpt><trkpt lat="46.33283385084862" lon="13.55145243954408"><ele>437.0</ele><time>2026-04-04T12:28:53Z</time></trkpt><trkpt lat="46.33297534038213" lon="13.55164687623626"><ele>437.0</ele><time>2026-04-04T12:28:54Z</time></trkpt><trkpt lat="46.33311266938222" lon="13.55183604862771"><ele>437.3333333333333</ele><time>2026-04-04T12:28:55Z</time></trkpt><trkpt lat="46.333243464323296" lon="13.552022628763824"><ele>437.66666666666663</ele><time>2026-04-04T12:28:56Z</time></trkpt><trkpt lat="46.333366223111184" lon="13.552216403621179"><ele>438.0</ele><time>2026-04-04T12:28:57Z</time></trkpt><trkpt lat="46.33347535731792" lon="13.552435157757508"><ele>438.33333333333337</ele><time>2026-04-04T12:28:58Z</time></trkpt><trkpt lat="46.33356285644403" lon="13.552677941489518"><ele>438.6666666666667</ele><time>2026-04-04T12:28:59Z</time></trkpt><trkpt lat="46.333624438119124" lon="13.55293491071909"><ele>439.0</ele><time>2026-04-04T12:29:00Z</time></trkpt><trkpt lat="46.333661493331185" lon="13.55318331257458"><ele>439.0</ele><time>2026-04-04T12:29:01Z</time></trkpt><trkpt lat="46.33367647232159" lon="13.553401573241088"><ele>439.0</ele><time>2026-04-04T12:29:02Z</time></trkpt><trkpt lat="46.333678911114106" lon="13.553590529364545"><ele>439.0</ele><time>2026-04-04T12:29:03Z</time></trkpt><trkpt lat="46.333670334856436" lon="13.55375486556169"><ele>439.0</ele><time>2026-04-04T12:29:04Z</time></trkpt><trkpt lat="46.33364847311723" lon="13.553903863870676"><ele>439.4</ele><time>2026-04-04T12:29:05Z</time></trkpt><trkpt lat="46.33359624585837" lon="13.554038713687547"><ele>439.79999999999995</ele><time>2026-04-04T12:29:06Z</time></trkpt><trkpt lat="46.333594238265135" lon="13.554186690948539"><ele>440.20000000000005</ele><time>2026-04-04T12:29:07Z</time></trkpt><trkpt lat="46.33361028119206" lon="13.554334848045288"><ele>440.6</ele><time>2026-04-04T12:29:08Z</time></trkpt><trkpt lat="46.333612651857415" lon="13.554495761590506"><ele>441.0</ele><time>2026-04-04T12:29:09Z</time></trkpt><trkpt lat="46.33359177460138" lon="13.554678067584172"><ele>441.33333333333337</ele><time>2026-04-04T12:29:10Z</time></trkpt><trkpt lat="46.333572942814364" lon="13.554887082289971"><ele>441.6666666666667</ele><time>2026-04-04T12:29:11Z</time></trkpt><trkpt lat="46.3335584819028" lon="13.555123556342698"><ele>442.0</ele><time>2026-04-04T12:29:12Z</time></trkpt><trkpt lat="46.33353779381968" lon="13.555375989115326"><ele>442.0</ele><time>2026-04-04T12:29:13Z</time></trkpt><trkpt lat="46.33352262397666" lon="13.555621444705093"><ele>442.0</ele><time>2026-04-04T12:29:14Z</time></trkpt><trkpt lat="46.33352508995" lon="13.555855660523141"><ele>442.0</ele><time>2026-04-04T12:29:15Z</time></trkpt><trkpt lat="46.33352003795097" lon="13.556072980608699"><ele>442.33333333333337</ele><time>2026-04-04T12:29:16Z</time></trkpt><trkpt lat="46.33352397169609" lon="13.556281259204324"><ele>442.66666666666663</ele><time>2026-04-04T12:29:17Z</time></trkpt><trkpt lat="46.33364320749586" lon="13.556480916706318"><ele>443.0</ele><time>2026-04-04T12:29:18Z</time></trkpt><trkpt lat="46.33373563012955" lon="13.556673076455416"><ele>443.0</ele><time>2026-04-04T12:29:19Z</time></trkpt><trkpt lat="46.33385537132806" lon="13.556859817439218"><ele>443.0</ele><time>2026-04-04T12:29:20Z</time></trkpt><trkpt lat="46.33399156223396" lon="13.557035888593637"><ele>443.0</ele><time>2026-04-04T12:29:21Z</time></trkpt><trkpt lat="46.334148868163204" lon="13.55718409634281"><ele>443.3333333333333</ele><time>2026-04-04T12:29:22Z</time></trkpt><trkpt lat="46.33432282721308" lon="13.557305006701583"><ele>443.66666666666663</ele><time>2026-04-04T12:29:23Z</time></trkpt><trkpt lat="46.33450778260415" lon="13.557418663100288"><ele>444.0</ele><time>2026-04-04T12:29:24Z</time></trkpt><trkpt lat="46.3346960707682" lon="13.557533065596894"><ele>445.66666666666663</ele><time>2026-04-04T12:29:25Z</time></trkpt><trkpt lat="46.33488467711912" lon="13.557649836998358"><ele>447.3333333333333</ele><time>2026-04-04T12:29:26Z</time></trkpt><trkpt lat="46.33507023351756" lon="13.557772082452704"><ele>449.0</ele><time>2026-04-04T12:29:27Z</time></trkpt><trkpt lat="46.33524948088313" lon="13.557903986121234"><ele>449.0</ele><time>2026-04-04T12:29:28Z</time></trkpt><trkpt lat="46.335423315831385" lon="13.558038916070998"><ele>449.0</ele><time>2026-04-04T12:29:29Z</time></trkpt><trkpt lat="46.335594002968755" lon="13.558167913253623"><ele>449.0</ele><time>2026-04-04T12:29:30Z</time></trkpt><trkpt lat="46.335764589438305" lon="13.558289212434104"><ele>449.0</ele><time>2026-04-04T12:29:31Z</time></trkpt><trkpt lat="46.335935201005064" lon="13.55840111323781"><ele>449.0</ele><time>2026-04-04T12:29:32Z</time></trkpt><trkpt lat="46.336108447213576" lon="13.558499621295722"><ele>449.0</ele><time>2026-04-04T12:29:33Z</time></trkpt><trkpt lat="46.336280702198366" lon="13.558589250602035"><ele>448.66666666666663</ele><time>2026-04-04T12:29:34Z</time></trkpt><trkpt lat="46.3364495535324" lon="13.558677269201695"><ele>448.33333333333337</ele><time>2026-04-04T12:29:34.999Z</time></trkpt><trkpt lat="46.336612625536524" lon="13.558764567679969"><ele>448.0</ele><time>2026-04-04T12:29:35.999Z</time></trkpt><trkpt lat="46.33677024672883" lon="13.558858824799366"><ele>448.0</ele><time>2026-04-04T12:29:36.999Z</time></trkpt><trkpt lat="46.33692324061334" lon="13.55896738918623"><ele>448.0</ele><time>2026-04-04T12:29:37.999Z</time></trkpt><trkpt lat="46.33706815523965" lon="13.559092392539768"><ele>448.0</ele><time>2026-04-04T12:29:38.999Z</time></trkpt><trkpt lat="46.337197802775265" lon="13.55923182438373"><ele>448.59999999999997</ele><time>2026-04-04T12:29:39.999Z</time></trkpt><trkpt lat="46.33730356400551" lon="13.559365875595038"><ele>449.19999999999993</ele><time>2026-04-04T12:29:40.999Z</time></trkpt><trkpt lat="46.33739216913625" lon="13.559489372708049"><ele>449.8</ele><time>2026-04-04T12:29:41.999Z</time></trkpt><trkpt lat="46.33746456465684" lon="13.559594663150754"><ele>450.4</ele><time>2026-04-04T12:29:42.999Z</time></trkpt><trkpt lat="46.33751893558157" lon="13.55968034809353"><ele>451.0</ele><time>2026-04-04T12:29:43.999Z</time></trkpt><trkpt lat="46.33755820260392" lon="13.559760423391925"><ele>451.00000000000006</ele><time>2026-04-04T12:29:44.999Z</time></trkpt><trkpt lat="46.33758689766949" lon="13.559843102861027"><ele>451.0</ele><time>2026-04-04T12:29:45.999Z</time></trkpt><trkpt lat="46.337652490550234" lon="13.559959533300663"><ele>451.0</ele><time>2026-04-04T12:29:47.999Z</time></trkpt><trkpt lat="46.337730935011884" lon="13.560037859028155"><ele>451.0</ele><time>2026-04-04T12:29:49.999Z</time></trkpt><trkpt lat="46.33781670853752" lon="13.56013751715758"><ele>451.00000000000006</ele><time>2026-04-04T12:29:51.999Z</time></trkpt><trkpt lat="46.33785928151091" lon="13.56020723432883"><ele>451.0</ele><time>2026-04-04T12:29:52.999Z</time></trkpt><trkpt lat="46.3379118346339" lon="13.560283692706884"><ele>451.20000000000005</ele><time>2026-04-04T12:29:53.999Z</time></trkpt><trkpt lat="46.337972636563954" lon="13.560373755589382"><ele>451.40000000000003</ele><time>2026-04-04T12:29:54.999Z</time></trkpt><trkpt lat="46.33804120435408" lon="13.560486485533627"><ele>451.6</ele><time>2026-04-04T12:29:55.999Z</time></trkpt><trkpt lat="46.338113923679295" lon="13.56062563607862"><ele>451.8</ele><time>2026-04-04T12:29:56.999Z</time></trkpt><trkpt lat="46.33819017295416" lon="13.560790656327194"><ele>452.0</ele><time>2026-04-04T12:29:57.999Z</time></trkpt><trkpt lat="46.338286371133854" lon="13.560985296659931"><ele>453.0</ele><time>2026-04-04T12:29:58.999Z</time></trkpt><trkpt lat="46.33840493064986" lon="13.561228966057914"><ele>454.0</ele><time>2026-04-04T12:29:59.999Z</time></trkpt><trkpt lat="46.33852617041974" lon="13.561522843710257"><ele>455.0</ele><time>2026-04-04T12:30:00.999Z</time></trkpt><trkpt lat="46.33865924994271" lon="13.561844731722934"><ele>455.0</ele><time>2026-04-04T12:30:01.999Z</time></trkpt><trkpt lat="46.33880474216085" lon="13.562163779510014"><ele>455.0</ele><time>2026-04-04T12:30:02.999Z</time></trkpt><trkpt lat="46.33894824619115" lon="13.562458176298838"><ele>455.0</ele><time>2026-04-04T12:30:03.999Z</time></trkpt><trkpt lat="46.339087066889945" lon="13.562740265873366"><ele>455.0</ele><time>2026-04-04T12:30:04.999Z</time></trkpt><trkpt lat="46.33921765500125" lon="13.56301370345416"><ele>455.0</ele><time>2026-04-04T12:30:05.999Z</time></trkpt><trkpt lat="46.33933826917685" lon="13.563283259162866"><ele>455.0</ele><time>2026-04-04T12:30:06.999Z</time></trkpt><trkpt lat="46.33944832431667" lon="13.563558167904407"><ele>455.0</ele><time>2026-04-04T12:30:07.999Z</time></trkpt><trkpt lat="46.33954882195233" lon="13.56385014111601"><ele>455.5</ele><time>2026-04-04T12:30:08.999Z</time></trkpt><trkpt lat="46.33963491867399" lon="13.564160049491216"><ele>456.0</ele><time>2026-04-04T12:30:09.999Z</time></trkpt><trkpt lat="46.339696430111715" lon="13.564489904849852"><ele>457.0</ele><time>2026-04-04T12:30:11Z</time></trkpt><trkpt lat="46.3397104823719" lon="13.564839008221751"><ele>458.0</ele><time>2026-04-04T12:30:12Z</time></trkpt><trkpt lat="46.339724665601224" lon="13.565197343815136"><ele>458.0</ele><time>2026-04-04T12:30:13Z</time></trkpt><trkpt lat="46.339736884128" lon="13.565564495495455"><ele>458.0</ele><time>2026-04-04T12:30:14Z</time></trkpt><trkpt lat="46.33975338423781" lon="13.565937596008473"><ele>459.5</ele><time>2026-04-04T12:30:15Z</time></trkpt><trkpt lat="46.33979008557927" lon="13.566311476302698"><ele>461.0</ele><time>2026-04-04T12:30:16Z</time></trkpt><trkpt lat="46.33981992116944" lon="13.566676547901922"><ele>460.0</ele><time>2026-04-04T12:30:17Z</time></trkpt><trkpt lat="46.33986139241571" lon="13.567033965301539"><ele>459.0</ele><time>2026-04-04T12:30:18Z</time></trkpt><trkpt lat="46.339908717467516" lon="13.567382202993484"><ele>459.0</ele><time>2026-04-04T12:30:19Z</time></trkpt><trkpt lat="46.33993788615603" lon="13.567724381480136"><ele>459.0</ele><time>2026-04-04T12:30:20Z</time></trkpt><trkpt lat="46.33999344123386" lon="13.56804999476069"><ele>459.5</ele><time>2026-04-04T12:30:21Z</time></trkpt><trkpt lat="46.34008485395519" lon="13.56836395497608"><ele>460.0</ele><time>2026-04-04T12:30:22Z</time></trkpt><trkpt lat="46.340201751582676" lon="13.568648610429003"><ele>460.6666666666667</ele><time>2026-04-04T12:30:23Z</time></trkpt><trkpt lat="46.34030231082322" lon="13.568930384530848"><ele>461.33333333333337</ele><time>2026-04-04T12:30:24Z</time></trkpt><trkpt lat="46.340402052995145" lon="13.569197270285432"><ele>462.0</ele><time>2026-04-04T12:30:25Z</time></trkpt><trkpt lat="46.34049730975627" lon="13.569445386406638"><ele>462.66666666666663</ele><time>2026-04-04T12:30:26Z</time></trkpt><trkpt lat="46.34059056515301" lon="13.569663463054056"><ele>463.3333333333333</ele><time>2026-04-04T12:30:27Z</time></trkpt><trkpt lat="46.34069544732463" lon="13.569859388357603"><ele>464.0</ele><time>2026-04-04T12:30:28Z</time></trkpt><trkpt lat="46.340812788054464" lon="13.570042633596707"><ele>464.0</ele><time>2026-04-04T12:30:29Z</time></trkpt><trkpt lat="46.34093862688476" lon="13.570212872110288"><ele>464.0</ele><time>2026-04-04T12:30:30Z</time></trkpt><trkpt lat="46.34107409401502" lon="13.57036411575413"><ele>464.0</ele><time>2026-04-04T12:30:31Z</time></trkpt><trkpt lat="46.341220717817336" lon="13.570495516816555"><ele>463.3333333333333</ele><time>2026-04-04T12:30:32Z</time></trkpt><trkpt lat="46.3413754112413" lon="13.570613712232925"><ele>462.66666666666663</ele><time>2026-04-04T12:30:33Z</time></trkpt><trkpt lat="46.34154276442742" lon="13.570719235207974"><ele>462.0</ele><time>2026-04-04T12:30:34Z</time></trkpt><trkpt lat="46.34172054039345" lon="13.570801927315545"><ele>462.0</ele><time>2026-04-04T12:30:35Z</time></trkpt><trkpt lat="46.341902934449074" lon="13.570874826484808"><ele>462.0</ele><time>2026-04-04T12:30:36Z</time></trkpt><trkpt lat="46.34208478874979" lon="13.570961632907299"><ele>462.0</ele><time>2026-04-04T12:30:37Z</time></trkpt><trkpt lat="46.34226320193461" lon="13.571065612883054"><ele>462.66666666666663</ele><time>2026-04-04T12:30:38Z</time></trkpt><trkpt lat="46.34243060890639" lon="13.571190214445059"><ele>463.3333333333333</ele><time>2026-04-04T12:30:39Z</time></trkpt><trkpt lat="46.342588288971655" lon="13.571341896336287"><ele>464.0</ele><time>2026-04-04T12:30:40Z</time></trkpt><trkpt lat="46.342740407015235" lon="13.571523339673062"><ele>461.3333333333333</ele><time>2026-04-04T12:30:41Z</time></trkpt><trkpt lat="46.3428916993811" lon="13.57172677126776"><ele>458.66666666666663</ele><time>2026-04-04T12:30:42Z</time></trkpt><trkpt lat="46.34304374447466" lon="13.571930478963786"><ele>456.0</ele><time>2026-04-04T12:30:43Z</time></trkpt><trkpt lat="46.34319000756463" lon="13.572130393319268"><ele>456.0</ele><time>2026-04-04T12:30:44Z</time></trkpt><trkpt lat="46.34332296510136" lon="13.572326274179447"><ele>456.0</ele><time>2026-04-04T12:30:45Z</time></trkpt><trkpt lat="46.34343062018203" lon="13.572531619776411"><ele>456.0</ele><time>2026-04-04T12:30:46Z</time></trkpt><trkpt lat="46.343520830306154" lon="13.572774180879414"><ele>454.33333333333337</ele><time>2026-04-04T12:30:47Z</time></trkpt><trkpt lat="46.34357038228524" lon="13.573044608703551"><ele>452.6666666666667</ele><time>2026-04-04T12:30:48Z</time></trkpt><trkpt lat="46.34362795256419" lon="13.573314049138597"><ele>451.0</ele><time>2026-04-04T12:30:49Z</time></trkpt><trkpt lat="46.343647369035594" lon="13.573592469037077"><ele>448.6666666666667</ele><time>2026-04-04T12:30:50Z</time></trkpt><trkpt lat="46.34366705824146" lon="13.573866103419016"><ele>446.33333333333337</ele><time>2026-04-04T12:30:51Z</time></trkpt><trkpt lat="46.34369311249866" lon="13.57413058994948"><ele>444.0</ele><time>2026-04-04T12:30:52Z</time></trkpt><trkpt lat="46.34373035991788" lon="13.574377246269872"><ele>441.66666666666663</ele><time>2026-04-04T12:30:53Z</time></trkpt><trkpt lat="46.34379230380888" lon="13.57461636701984"><ele>439.3333333333333</ele><time>2026-04-04T12:30:54Z</time></trkpt><trkpt lat="46.34388683078139" lon="13.574856119031534"><ele>437.0</ele><time>2026-04-04T12:30:55Z</time></trkpt><trkpt lat="46.3439998259202" lon="13.575088106681568"><ele>438.3333333333333</ele><time>2026-04-04T12:30:56Z</time></trkpt><trkpt lat="46.344100221783535" lon="13.575338032469402"><ele>439.66666666666663</ele><time>2026-04-04T12:30:57Z</time></trkpt><trkpt lat="46.34421236892889" lon="13.57558871373753"><ele>441.0</ele><time>2026-04-04T12:30:58Z</time></trkpt><trkpt lat="46.34438744803025" lon="13.575797369709054"><ele>441.0</ele><time>2026-04-04T12:30:59Z</time></trkpt><trkpt lat="46.344521576287626" lon="13.576058791659188"><ele>441.0</ele><time>2026-04-04T12:31:00Z</time></trkpt><trkpt lat="46.344661101726004" lon="13.57633517430618"><ele>451.5</ele><time>2026-04-04T12:31:01Z</time></trkpt><trkpt lat="46.344806165619076" lon="13.576612966788282"><ele>462.0</ele><time>2026-04-04T12:31:02Z</time></trkpt><trkpt lat="46.34494947271288" lon="13.576882252942768"><ele>456.33333333333337</ele><time>2026-04-04T12:31:03Z</time></trkpt><trkpt lat="46.34508621535545" lon="13.577144166284143"><ele>450.6666666666667</ele><time>2026-04-04T12:31:04Z</time></trkpt><trkpt lat="46.34522189535329" lon="13.577392984938928"><ele>445.0</ele><time>2026-04-04T12:31:05Z</time></trkpt><trkpt lat="46.34536152513633" lon="13.577623138642176"><ele>445.0</ele><time>2026-04-04T12:31:06Z</time></trkpt><trkpt lat="46.345511348963704" lon="13.577823722614388"><ele>445.0</ele><time>2026-04-04T12:31:07Z</time></trkpt><trkpt lat="46.345676823872935" lon="13.57799263566443"><ele>445.0</ele><time>2026-04-04T12:31:08Z</time></trkpt><trkpt lat="46.34586354343714" lon="13.5781185774352"><ele>446.0</ele><time>2026-04-04T12:31:09Z</time></trkpt><trkpt lat="46.34606331981398" lon="13.578212189171957"><ele>447.0</ele><time>2026-04-04T12:31:10Z</time></trkpt><trkpt lat="46.34627117036507" lon="13.578282491999305"><ele>448.0</ele><time>2026-04-04T12:31:11Z</time></trkpt><trkpt lat="46.34648148021255" lon="13.578354926843138"><ele>452.33333333333337</ele><time>2026-04-04T12:31:12Z</time></trkpt><trkpt lat="46.34669732023251" lon="13.578430988723978"><ele>456.66666666666663</ele><time>2026-04-04T12:31:13Z</time></trkpt><trkpt lat="46.34691591514308" lon="13.578503997132518"><ele>461.0</ele><time>2026-04-04T12:31:14Z</time></trkpt><trkpt lat="46.34713568878224" lon="13.578586198166393"><ele>454.5</ele><time>2026-04-04T12:31:15Z</time></trkpt><trkpt lat="46.34735464125724" lon="13.578688124589911"><ele>448.0</ele><time>2026-04-04T12:31:16Z</time></trkpt><trkpt lat="46.34757268360306" lon="13.578803632451123"><ele>448.0</ele><time>2026-04-04T12:31:17Z</time></trkpt><trkpt lat="46.34779028110697" lon="13.578930420084554"><ele>448.0</ele><time>2026-04-04T12:31:18Z</time></trkpt><trkpt lat="46.34800818893833" lon="13.579064238913297"><ele>460.5</ele><time>2026-04-04T12:31:19Z</time></trkpt><trkpt lat="46.348227887215494" lon="13.579198460675613"><ele>473.0</ele><time>2026-04-04T12:31:20Z</time></trkpt><trkpt lat="46.3484458823044" lon="13.579339157726578"><ele>473.0</ele><time>2026-04-04T12:31:21Z</time></trkpt><trkpt lat="46.348657508796876" lon="13.579489112089982"><ele>473.0</ele><time>2026-04-04T12:31:22Z</time></trkpt><trkpt lat="46.34886770287018" lon="13.579646974655759"><ele>472.5</ele><time>2026-04-04T12:31:23Z</time></trkpt><trkpt lat="46.3490785905866" lon="13.579800489364901"><ele>472.0</ele><time>2026-04-04T12:31:24Z</time></trkpt><trkpt lat="46.349294844815205" lon="13.57993766454055"><ele>472.0</ele><time>2026-04-04T12:31:25Z</time></trkpt><trkpt lat="46.34952203395907" lon="13.580042933844256"><ele>472.0</ele><time>2026-04-04T12:31:26Z</time></trkpt><trkpt lat="46.34975571984875" lon="13.580118658963773"><ele>482.0</ele><time>2026-04-04T12:31:27Z</time></trkpt><trkpt lat="46.3499874072448" lon="13.580191836393842"><ele>492.0</ele><time>2026-04-04T12:31:28Z</time></trkpt><trkpt lat="46.35020592045752" lon="13.580281343789341"><ele>490.0</ele><time>2026-04-04T12:31:29Z</time></trkpt><trkpt lat="46.35040599809581" lon="13.580403459984662"><ele>488.0</ele><time>2026-04-04T12:31:30Z</time></trkpt><trkpt lat="46.35059932218562" lon="13.580562400305547"><ele>486.0</ele><time>2026-04-04T12:31:31Z</time></trkpt><trkpt lat="46.35078747583328" lon="13.580746710039175"><ele>486.0</ele><time>2026-04-04T12:31:32Z</time></trkpt><trkpt lat="46.350979222714344" lon="13.580938166533603"><ele>486.0</ele><time>2026-04-04T12:31:33Z</time></trkpt><trkpt lat="46.351176148140915" lon="13.581134182398653"><ele>486.0</ele><time>2026-04-04T12:31:34Z</time></trkpt><trkpt lat="46.35137490519952" lon="13.581340128905136"><ele>486.0</ele><time>2026-04-04T12:31:34.999Z</time></trkpt><trkpt lat="46.35157672826495" lon="13.581552180250513"><ele>486.0</ele><time>2026-04-04T12:31:35.999Z</time></trkpt><trkpt lat="46.35178017881314" lon="13.581767738739595"><ele>486.0</ele><time>2026-04-04T12:31:36.999Z</time></trkpt><trkpt lat="46.35198996932905" lon="13.58198298692945"><ele>488.0</ele><time>2026-04-04T12:31:37.999Z</time></trkpt><trkpt lat="46.35220213677389" lon="13.582201125416088"><ele>490.0</ele><time>2026-04-04T12:31:38.999Z</time></trkpt><trkpt lat="46.35241715002993" lon="13.582423847541046"><ele>490.0</ele><time>2026-04-04T12:31:39.999Z</time></trkpt><trkpt lat="46.352632998509264" lon="13.582644501190337"><ele>490.0</ele><time>2026-04-04T12:31:40.999Z</time></trkpt><trkpt lat="46.352846907455856" lon="13.582867788534223"><ele>490.5</ele><time>2026-04-04T12:31:41.999Z</time></trkpt><trkpt lat="46.35306208533207" lon="13.583090134550442"><ele>491.0</ele><time>2026-04-04T12:31:42.999Z</time></trkpt><trkpt lat="46.35327759987245" lon="13.583313505841588"><ele>491.0</ele><time>2026-04-04T12:31:43.999Z</time></trkpt><trkpt lat="46.35349430024695" lon="13.583534794157009"><ele>491.0</ele><time>2026-04-04T12:31:44.999Z</time></trkpt><trkpt lat="46.35371156238356" lon="13.5837573724496"><ele>494.0</ele><time>2026-04-04T12:31:45.999Z</time></trkpt><trkpt lat="46.353926524546615" lon="13.58397955714223"><ele>497.0</ele><time>2026-04-04T12:31:46.999Z</time></trkpt><trkpt lat="46.354140247425896" lon="13.584199110130692"><ele>497.0</ele><time>2026-04-04T12:31:47.999Z</time></trkpt><trkpt lat="46.35435194483401" lon="13.584417261301885"><ele>497.0</ele><time>2026-04-04T12:31:48.999Z</time></trkpt><trkpt lat="46.35456538829174" lon="13.584631801927278"><ele>499.0</ele><time>2026-04-04T12:31:49.999Z</time></trkpt><trkpt lat="46.354776684441134" lon="13.584847443979234"><ele>501.0</ele><time>2026-04-04T12:31:50.999Z</time></trkpt><trkpt lat="46.35498492506878" lon="13.585064257873366"><ele>501.0</ele><time>2026-04-04T12:31:51.999Z</time></trkpt><trkpt lat="46.355190246405165" lon="13.585280917093982"><ele>501.0</ele><time>2026-04-04T12:31:52.999Z</time></trkpt><trkpt lat="46.35539529708149" lon="13.58549644468388"><ele>502.5</ele><time>2026-04-04T12:31:53.999Z</time></trkpt><trkpt lat="46.35560145362398" lon="13.585706908824928"><ele>504.0</ele><time>2026-04-04T12:31:54.999Z</time></trkpt><trkpt lat="46.35580805048338" lon="13.585917260961608"><ele>504.0</ele><time>2026-04-04T12:31:55.999Z</time></trkpt><trkpt lat="46.35601101779664" lon="13.586126604483226"><ele>504.0</ele><time>2026-04-04T12:31:56.999Z</time></trkpt><trkpt lat="46.356212130999104" lon="13.586334851534222"><ele>505.5</ele><time>2026-04-04T12:31:57.999Z</time></trkpt><trkpt lat="46.35640988375393" lon="13.586541357508594"><ele>507.0</ele><time>2026-04-04T12:31:58.999Z</time></trkpt><trkpt lat="46.35659960528272" lon="13.58674049699679"><ele>507.0</ele><time>2026-04-04T12:31:59.999Z</time></trkpt><trkpt lat="46.35677475284361" lon="13.586919868627259"><ele>507.0</ele><time>2026-04-04T12:32:00.999Z</time></trkpt><trkpt lat="46.35693565018127" lon="13.587085094987051"><ele>507.0</ele><time>2026-04-04T12:32:01.999Z</time></trkpt><trkpt lat="46.35709216546826" lon="13.58725605805072"><ele>505.0</ele><time>2026-04-04T12:32:02.999Z</time></trkpt><trkpt lat="46.35723442998369" lon="13.587453833354607"><ele>503.0</ele><time>2026-04-04T12:32:03.999Z</time></trkpt><trkpt lat="46.35733172754994" lon="13.587702634545641"><ele>501.0</ele><time>2026-04-04T12:32:04.999Z</time></trkpt><trkpt lat="46.357443470295024" lon="13.587935895282454"><ele>501.0</ele><time>2026-04-04T12:32:05.999Z</time></trkpt><trkpt lat="46.3575409149496" lon="13.588164567977858"><ele>501.0</ele><time>2026-04-04T12:32:06.999Z</time></trkpt><trkpt lat="46.35764251160503" lon="13.588360035478239"><ele>501.0</ele><time>2026-04-04T12:32:07.999Z</time></trkpt><trkpt lat="46.35778224504311" lon="13.588532412402829"><ele>501.0</ele><time>2026-04-04T12:32:08.999Z</time></trkpt><trkpt lat="46.35794928232338" lon="13.588675316756404"><ele>501.0</ele><time>2026-04-04T12:32:09.999Z</time></trkpt><trkpt lat="46.35812590309449" lon="13.588822431288964"><ele>501.0</ele><time>2026-04-04T12:32:10.999Z</time></trkpt><trkpt lat="46.35830332917322" lon="13.588975141254197"><ele>501.33333333333337</ele><time>2026-04-04T12:32:11.999Z</time></trkpt><trkpt lat="46.35847744286381" lon="13.589124371107305"><ele>501.6666666666667</ele><time>2026-04-04T12:32:12.999Z</time></trkpt><trkpt lat="46.358645565511075" lon="13.589266653276566"><ele>502.0</ele><time>2026-04-04T12:32:13.999Z</time></trkpt><trkpt lat="46.35880744974312" lon="13.5894026585512"><ele>500.6666666666667</ele><time>2026-04-04T12:32:14.999Z</time></trkpt><trkpt lat="46.3589709648229" lon="13.589515530549729"><ele>499.33333333333337</ele><time>2026-04-04T12:32:15.999Z</time></trkpt><trkpt lat="46.359149522643314" lon="13.589590573879839"><ele>498.0</ele><time>2026-04-04T12:32:17Z</time></trkpt><trkpt lat="46.35934115408912" lon="13.589631917115621"><ele>498.0</ele><time>2026-04-04T12:32:18Z</time></trkpt><trkpt lat="46.3595225744781" lon="13.58966834540301"><ele>498.0</ele><time>2026-04-04T12:32:19Z</time></trkpt><trkpt lat="46.359679748977676" lon="13.5897424587866"><ele>498.0</ele><time>2026-04-04T12:32:20Z</time></trkpt><trkpt lat="46.35981997943632" lon="13.589830410958681"><ele>499.5</ele><time>2026-04-04T12:32:21Z</time></trkpt><trkpt lat="46.35995636137123" lon="13.589888768527945"><ele>501.0</ele><time>2026-04-04T12:32:22Z</time></trkpt><trkpt lat="46.36009678150288" lon="13.589889656553485"><ele>502.5</ele><time>2026-04-04T12:32:23Z</time></trkpt><trkpt lat="46.360236881374796" lon="13.589845524986181"><ele>504.0</ele><time>2026-04-04T12:32:24Z</time></trkpt><trkpt lat="46.360365086902476" lon="13.589764235798727"><ele>504.0</ele><time>2026-04-04T12:32:25Z</time></trkpt><trkpt lat="46.36048767587313" lon="13.589665891793919"><ele>504.0</ele><time>2026-04-04T12:32:26Z</time></trkpt><trkpt lat="46.36060259922447" lon="13.589594460730604"><ele>504.0</ele><time>2026-04-04T12:32:27Z</time></trkpt><trkpt lat="46.36070478436984" lon="13.589531828014694"><ele>504.0</ele><time>2026-04-04T12:32:28Z</time></trkpt><trkpt lat="46.36081180003072" lon="13.589488633447669"><ele>504.0</ele><time>2026-04-04T12:32:29Z</time></trkpt><trkpt lat="46.36092915064971" lon="13.589472567435106"><ele>504.0</ele><time>2026-04-04T12:32:30Z</time></trkpt><trkpt lat="46.36104852181519" lon="13.589453710355775"><ele>504.0</ele><time>2026-04-04T12:32:31Z</time></trkpt><trkpt lat="46.36115976339534" lon="13.589440310522745"><ele>504.0</ele><time>2026-04-04T12:32:32Z</time></trkpt><trkpt lat="46.36127444183486" lon="13.589447343418072"><ele>511.5</ele><time>2026-04-04T12:32:33Z</time></trkpt><trkpt lat="46.36139547731689" lon="13.589467419827972"><ele>519.0</ele><time>2026-04-04T12:32:34Z</time></trkpt><trkpt lat="46.36151407746948" lon="13.58949740235816"><ele>526.5</ele><time>2026-04-04T12:32:35Z</time></trkpt><trkpt lat="46.36163200810177" lon="13.589538092893592"><ele>534.0</ele><time>2026-04-04T12:32:36Z</time></trkpt><trkpt lat="46.36174849531052" lon="13.589589290435"><ele>534.0</ele><time>2026-04-04T12:32:37Z</time></trkpt><trkpt lat="46.36186934585916" lon="13.589631808797197"><ele>534.0</ele><time>2026-04-04T12:32:38Z</time></trkpt><trkpt lat="46.36199047406233" lon="13.589662040579297"><ele>534.0</ele><time>2026-04-04T12:32:39Z</time></trkpt><trkpt lat="46.36211979694993" lon="13.589673405455548"><ele>534.0</ele><time>2026-04-04T12:32:40Z</time></trkpt><trkpt lat="46.36226016701654" lon="13.589656071127248"><ele>532.6666666666666</ele><time>2026-04-04T12:32:41Z</time></trkpt><trkpt lat="46.36240486582343" lon="13.589607938161146"><ele>531.3333333333333</ele><time>2026-04-04T12:32:42Z</time></trkpt><trkpt lat="46.36255330164957" lon="13.589544453002162"><ele>530.0</ele><time>2026-04-04T12:32:43Z</time></trkpt><trkpt lat="46.36270983510038" lon="13.5894853324064"><ele>530.0</ele><time>2026-04-04T12:32:44Z</time></trkpt><trkpt lat="46.3628749147108" lon="13.589442583203233"><ele>530.0</ele><time>2026-04-04T12:32:45Z</time></trkpt><trkpt lat="46.36304784352976" lon="13.589424754744899"><ele>530.0</ele><time>2026-04-04T12:32:46Z</time></trkpt><trkpt lat="46.36322912372007" lon="13.589419174062764"><ele>530.3333333333333</ele><time>2026-04-04T12:32:47Z</time></trkpt><trkpt lat="46.36342087262465" lon="13.589399683686265"><ele>530.6666666666666</ele><time>2026-04-04T12:32:48Z</time></trkpt><trkpt lat="46.36361339127646" lon="13.589336902693171"><ele>531.0</ele><time>2026-04-04T12:32:49Z</time></trkpt><trkpt lat="46.36379482872242" lon="13.589212865909886"><ele>536.3333333333334</ele><time>2026-04-04T12:32:50Z</time></trkpt><trkpt lat="46.363959768091775" lon="13.589054624039505"><ele>541.6666666666667</ele><time>2026-04-04T12:32:51Z</time></trkpt><trkpt lat="46.36413240111699" lon="13.58895706285317"><ele>547.0</ele><time>2026-04-04T12:32:52Z</time></trkpt><trkpt lat="46.364304459556784" lon="13.588922574290503"><ele>547.0</ele><time>2026-04-04T12:32:53Z</time></trkpt><trkpt lat="46.36447575015319" lon="13.588935884734845"><ele>547.0</ele><time>2026-04-04T12:32:54Z</time></trkpt><trkpt lat="46.364645713090276" lon="13.588980181971765"><ele>547.0</ele><time>2026-04-04T12:32:55Z</time></trkpt><trkpt lat="46.36481078645118" lon="13.588979933530801"><ele>552.6666666666667</ele><time>2026-04-04T12:32:56Z</time></trkpt><trkpt lat="46.364984341141486" lon="13.588915037533416"><ele>558.3333333333334</ele><time>2026-04-04T12:32:57Z</time></trkpt><trkpt lat="46.36515863508124" lon="13.588816915950376"><ele>564.0</ele><time>2026-04-04T12:32:58Z</time></trkpt><trkpt lat="46.36532710802319" lon="13.588708489838316"><ele>567.0</ele><time>2026-04-04T12:32:59Z</time></trkpt><trkpt lat="46.365486633516696" lon="13.588645153864672"><ele>570.0</ele><time>2026-04-04T12:33:00Z</time></trkpt><trkpt lat="46.36564870212423" lon="13.588635849117509"><ele>573.0</ele><time>2026-04-04T12:33:01Z</time></trkpt><trkpt lat="46.365817231243994" lon="13.58867667446023"><ele>573.0</ele><time>2026-04-04T12:33:02Z</time></trkpt><trkpt lat="46.36598469118686" lon="13.588729312049688"><ele>573.0</ele><time>2026-04-04T12:33:03Z</time></trkpt><trkpt lat="46.36615585963636" lon="13.588735835709967"><ele>573.0</ele><time>2026-04-04T12:33:04Z</time></trkpt><trkpt lat="46.36632874635622" lon="13.58867948721308"><ele>563.3333333333334</ele><time>2026-04-04T12:33:05Z</time></trkpt><trkpt lat="46.366493460701285" lon="13.588574446985014"><ele>553.6666666666667</ele><time>2026-04-04T12:33:06Z</time></trkpt><trkpt lat="46.366661833816124" lon="13.588452938766805"><ele>544.0</ele><time>2026-04-04T12:33:07Z</time></trkpt><trkpt lat="46.366842703874745" lon="13.588352600508191"><ele>544.0</ele><time>2026-04-04T12:33:08Z</time></trkpt><trkpt lat="46.36702982327477" lon="13.58827308869477"><ele>544.0</ele><time>2026-04-04T12:33:09Z</time></trkpt><trkpt lat="46.367215003047356" lon="13.588222315179987"><ele>544.0</ele><time>2026-04-04T12:33:10Z</time></trkpt><trkpt lat="46.367392722773545" lon="13.588181099277849"><ele>549.3333333333334</ele><time>2026-04-04T12:33:11Z</time></trkpt><trkpt lat="46.367569956825605" lon="13.588123709828164"><ele>554.6666666666666</ele><time>2026-04-04T12:33:12Z</time></trkpt><trkpt lat="46.367753939505825" lon="13.588034272475838"><ele>560.0</ele><time>2026-04-04T12:33:13Z</time></trkpt><trkpt lat="46.36792429792034" lon="13.587907853668863"><ele>549.0</ele><time>2026-04-04T12:33:14Z</time></trkpt><trkpt lat="46.368075695617016" lon="13.587785183692224"><ele>538.0</ele><time>2026-04-04T12:33:15Z</time></trkpt><trkpt lat="46.368241353943255" lon="13.58769240515462"><ele>527.0</ele><time>2026-04-04T12:33:16Z</time></trkpt><trkpt lat="46.36843080404196" lon="13.587629685783893"><ele>527.0</ele><time>2026-04-04T12:33:17Z</time></trkpt><trkpt lat="46.36862933997069" lon="13.587590390895512"><ele>527.0</ele><time>2026-04-04T12:33:18Z</time></trkpt><trkpt lat="46.36882557439229" lon="13.587542575627586"><ele>527.0</ele><time>2026-04-04T12:33:19Z</time></trkpt><trkpt lat="46.36901154480948" lon="13.587459132220038"><ele>531.0</ele><time>2026-04-04T12:33:20Z</time></trkpt><trkpt lat="46.36918623390987" lon="13.58734042221304"><ele>535.0</ele><time>2026-04-04T12:33:21Z</time></trkpt><trkpt lat="46.369345757537175" lon="13.587170727741666"><ele>539.0</ele><time>2026-04-04T12:33:22Z</time></trkpt><trkpt lat="46.3694961993756" lon="13.586961762946814"><ele>535.6666666666666</ele><time>2026-04-04T12:33:23Z</time></trkpt><trkpt lat="46.36964065443116" lon="13.58673305632812"><ele>532.3333333333334</ele><time>2026-04-04T12:33:24Z</time></trkpt><trkpt lat="46.369790092713934" lon="13.586492607890612"><ele>529.0</ele><time>2026-04-04T12:33:25Z</time></trkpt><trkpt lat="46.36994443588869" lon="13.586248258076703"><ele>520.6666666666667</ele><time>2026-04-04T12:33:26Z</time></trkpt><trkpt lat="46.37009681397347" lon="13.586007352205888"><ele>512.3333333333334</ele><time>2026-04-04T12:33:27Z</time></trkpt><trkpt lat="46.37023297166992" lon="13.585781374615127"><ele>504.0</ele><time>2026-04-04T12:33:28Z</time></trkpt><trkpt lat="46.370365608024976" lon="13.585562356141267"><ele>504.0</ele><time>2026-04-04T12:33:29Z</time></trkpt><trkpt lat="46.370514819235886" lon="13.585358552501624"><ele>504.0</ele><time>2026-04-04T12:33:30Z</time></trkpt><trkpt lat="46.37067226787581" lon="13.58517694000915"><ele>504.0</ele><time>2026-04-04T12:33:31Z</time></trkpt><trkpt lat="46.370822204142094" lon="13.58500606396821"><ele>505.66666666666663</ele><time>2026-04-04T12:33:32Z</time></trkpt><trkpt lat="46.370968566859716" lon="13.584850310874979"><ele>507.3333333333333</ele><time>2026-04-04T12:33:33Z</time></trkpt><trkpt lat="46.3711360449446" lon="13.584718060124851"><ele>509.0</ele><time>2026-04-04T12:33:34Z</time></trkpt><trkpt lat="46.37132187832263" lon="13.584603168948826"><ele>509.0</ele><time>2026-04-04T12:33:35Z</time></trkpt><trkpt lat="46.371507847320046" lon="13.584506079729833"><ele>509.0</ele><time>2026-04-04T12:33:36Z</time></trkpt><trkpt lat="46.37168349278726" lon="13.584428788461688"><ele>509.0</ele><time>2026-04-04T12:33:36.999Z</time></trkpt><trkpt lat="46.3718445547655" lon="13.584381792620094"><ele>509.0</ele><time>2026-04-04T12:33:37.999Z</time></trkpt><trkpt lat="46.372000866306834" lon="13.584369762544366"><ele>509.0</ele><time>2026-04-04T12:33:38.999Z</time></trkpt><trkpt lat="46.372170587513175" lon="13.584401774480865"><ele>509.0</ele><time>2026-04-04T12:33:39.999Z</time></trkpt><trkpt lat="46.372348072204225" lon="13.584463645185515"><ele>517.3333333333333</ele><time>2026-04-04T12:33:40.999Z</time></trkpt><trkpt lat="46.37253187979736" lon="13.584528688385765"><ele>525.6666666666666</ele><time>2026-04-04T12:33:41.999Z</time></trkpt><trkpt lat="46.37271374216016" lon="13.584584202561402"><ele>534.0</ele><time>2026-04-04T12:33:42.999Z</time></trkpt><trkpt lat="46.37289740135042" lon="13.584631257641819"><ele>533.3333333333334</ele><time>2026-04-04T12:33:43.999Z</time></trkpt><trkpt lat="46.37308103959379" lon="13.584661855368983"><ele>532.6666666666667</ele><time>2026-04-04T12:33:44.999Z</time></trkpt><trkpt lat="46.37326798917713" lon="13.584668863068714"><ele>532.0</ele><time>2026-04-04T12:33:45.999Z</time></trkpt><trkpt lat="46.3734514128195" lon="13.58463955364029"><ele>532.0</ele><time>2026-04-04T12:33:46.999Z</time></trkpt><trkpt lat="46.37363425027762" lon="13.58459093414154"><ele>532.0</ele><time>2026-04-04T12:33:47.999Z</time></trkpt><trkpt lat="46.37382182298582" lon="13.584546649827836"><ele>532.0</ele><time>2026-04-04T12:33:48.999Z</time></trkpt><trkpt lat="46.374009839750826" lon="13.584494472811949"><ele>525.6666666666667</ele><time>2026-04-04T12:33:49.999Z</time></trkpt><trkpt lat="46.37419500181133" lon="13.584422611657354"><ele>519.3333333333334</ele><time>2026-04-04T12:33:50.999Z</time></trkpt><trkpt lat="46.37437388248603" lon="13.584347667417617"><ele>513.0</ele><time>2026-04-04T12:33:51.999Z</time></trkpt><trkpt lat="46.37455294318385" lon="13.584278232062191"><ele>513.6666666666666</ele><time>2026-04-04T12:33:52.999Z</time></trkpt><trkpt lat="46.374728859478054" lon="13.584213676727778"><ele>514.3333333333333</ele><time>2026-04-04T12:33:53.999Z</time></trkpt><trkpt lat="46.374897456807275" lon="13.584155015783363"><ele>515.0</ele><time>2026-04-04T12:33:54.999Z</time></trkpt><trkpt lat="46.37505883780033" lon="13.584108226647993"><ele>515.0</ele><time>2026-04-04T12:33:55.999Z</time></trkpt><trkpt lat="46.375215155725044" lon="13.584078073215135"><ele>515.0</ele><time>2026-04-04T12:33:56.999Z</time></trkpt><trkpt lat="46.375376432955306" lon="13.584074536433297"><ele>515.0</ele><time>2026-04-04T12:33:57.999Z</time></trkpt><trkpt lat="46.375543515146234" lon="13.58410268578543"><ele>516.0</ele><time>2026-04-04T12:33:58.999Z</time></trkpt><trkpt lat="46.37571346857775" lon="13.584139253562016"><ele>517.0</ele><time>2026-04-04T12:33:59.999Z</time></trkpt><trkpt lat="46.37588532418953" lon="13.584192191184519"><ele>518.0</ele><time>2026-04-04T12:34:00.999Z</time></trkpt><trkpt lat="46.376062531388875" lon="13.584283005208261"><ele>518.0</ele><time>2026-04-04T12:34:01.999Z</time></trkpt><trkpt lat="46.37624307083778" lon="13.584391282956659"><ele>518.0</ele><time>2026-04-04T12:34:02.999Z</time></trkpt><trkpt lat="46.37642425967373" lon="13.584497081841102"><ele>518.0</ele><time>2026-04-04T12:34:03.999Z</time></trkpt><trkpt lat="46.3766085016758" lon="13.58460098624342"><ele>522.6666666666666</ele><time>2026-04-04T12:34:04.999Z</time></trkpt><trkpt lat="46.376792402241676" lon="13.584700777541714"><ele>527.3333333333334</ele><time>2026-04-04T12:34:05.999Z</time></trkpt><trkpt lat="46.3769707523688" lon="13.584794699738149"><ele>532.0</ele><time>2026-04-04T12:34:06.999Z</time></trkpt><trkpt lat="46.37713135167902" lon="13.5848771684466"><ele>529.25</ele><time>2026-04-04T12:34:07.999Z</time></trkpt><trkpt lat="46.377266692111775" lon="13.584956559259279"><ele>526.5</ele><time>2026-04-04T12:34:08.999Z</time></trkpt><trkpt lat="46.37737855489059" lon="13.58505550306894"><ele>523.75</ele><time>2026-04-04T12:34:09.999Z</time></trkpt><trkpt lat="46.37747812698891" lon="13.585206249952535"><ele>521.0</ele><time>2026-04-04T12:34:10.999Z</time></trkpt><trkpt lat="46.377581989439136" lon="13.58538470244353"><ele>529.0</ele><time>2026-04-04T12:34:11.999Z</time></trkpt><trkpt lat="46.37769628977416" lon="13.585558368582817"><ele>537.0</ele><time>2026-04-04T12:34:12.999Z</time></trkpt><trkpt lat="46.37782275683598" lon="13.585709326778"><ele>545.0</ele><time>2026-04-04T12:34:13.999Z</time></trkpt><trkpt lat="46.377943172966674" lon="13.585836192032433"><ele>541.0</ele><time>2026-04-04T12:34:14.999Z</time></trkpt><trkpt lat="46.37807027435573" lon="13.585924252327652"><ele>537.0</ele><time>2026-04-04T12:34:15.999Z</time></trkpt><trkpt lat="46.37822097760991" lon="13.585949868563485"><ele>533.0</ele><time>2026-04-04T12:34:16.999Z</time></trkpt><trkpt lat="46.37838745128789" lon="13.585943086980654"><ele>533.0</ele><time>2026-04-04T12:34:17.999Z</time></trkpt><trkpt lat="46.37855324620297" lon="13.585962174719775"><ele>533.0</ele><time>2026-04-04T12:34:18.999Z</time></trkpt><trkpt lat="46.37871588156516" lon="13.585983330813686"><ele>533.0</ele><time>2026-04-04T12:34:19.999Z</time></trkpt><trkpt lat="46.378884410621176" lon="13.58596940337452"><ele>534.0</ele><time>2026-04-04T12:34:20.999Z</time></trkpt><trkpt lat="46.379056529013944" lon="13.58592052085653"><ele>535.0</ele><time>2026-04-04T12:34:21.999Z</time></trkpt><trkpt lat="46.37922183330132" lon="13.585829066609415"><ele>536.0</ele><time>2026-04-04T12:34:23Z</time></trkpt><trkpt lat="46.37937496833808" lon="13.585725333950561"><ele>536.0</ele><time>2026-04-04T12:34:24Z</time></trkpt><trkpt lat="46.379512344505315" lon="13.585601732818239"><ele>536.0</ele><time>2026-04-04T12:34:25Z</time></trkpt><trkpt lat="46.37963029175469" lon="13.585441832218676"><ele>536.0</ele><time>2026-04-04T12:34:26Z</time></trkpt><trkpt lat="46.379741744580976" lon="13.585297146207328"><ele>534.25</ele><time>2026-04-04T12:34:27Z</time></trkpt><trkpt lat="46.37987151751208" lon="13.585196594281925"><ele>532.5</ele><time>2026-04-04T12:34:28Z</time></trkpt><trkpt lat="46.380009858792384" lon="13.585114991480951"><ele>530.75</ele><time>2026-04-04T12:34:29Z</time></trkpt><trkpt lat="46.38015490745604" lon="13.585061997387228"><ele>529.0</ele><time>2026-04-04T12:34:30Z</time></trkpt><trkpt lat="46.38031720441313" lon="13.585052115377865"><ele>529.0</ele><time>2026-04-04T12:34:31Z</time></trkpt><trkpt lat="46.380488450320556" lon="13.585053216582143"><ele>529.0</ele><time>2026-04-04T12:34:32Z</time></trkpt><trkpt lat="46.3806592077156" lon="13.585005557944797"><ele>529.0</ele><time>2026-04-04T12:34:33Z</time></trkpt><trkpt lat="46.3808177418547" lon="13.584922063439523"><ele>529.0</ele><time>2026-04-04T12:34:34Z</time></trkpt><trkpt lat="46.38096191217598" lon="13.58481230634856"><ele>529.0</ele><time>2026-04-04T12:34:35Z</time></trkpt><trkpt lat="46.38109590728139" lon="13.584670287149486"><ele>529.0</ele><time>2026-04-04T12:34:36Z</time></trkpt><trkpt lat="46.38120804627038" lon="13.584503532320463"><ele>529.0</ele><time>2026-04-04T12:34:37Z</time></trkpt><trkpt lat="46.38131826009022" lon="13.584355262071403"><ele>529.0</ele><time>2026-04-04T12:34:38Z</time></trkpt><trkpt lat="46.38144245045638" lon="13.584256924115142"><ele>529.0</ele><time>2026-04-04T12:34:39Z</time></trkpt><trkpt lat="46.38157949194013" lon="13.584210763459954"><ele>529.0</ele><time>2026-04-04T12:34:40Z</time></trkpt><trkpt lat="46.3817260254266" lon="13.58422917827831"><ele>533.0</ele><time>2026-04-04T12:34:41Z</time></trkpt><trkpt lat="46.381878437402946" lon="13.584299144419223"><ele>537.0</ele><time>2026-04-04T12:34:42Z</time></trkpt><trkpt lat="46.38203636540075" lon="13.584362547828025"><ele>541.0</ele><time>2026-04-04T12:34:43Z</time></trkpt><trkpt lat="46.38219757559663" lon="13.584386211142748"><ele>546.0</ele><time>2026-04-04T12:34:44Z</time></trkpt><trkpt lat="46.38236634506779" lon="13.584377445874479"><ele>551.0</ele><time>2026-04-04T12:34:45Z</time></trkpt><trkpt lat="46.38253382879585" lon="13.584357766018007"><ele>556.0</ele><time>2026-04-04T12:34:46Z</time></trkpt><trkpt lat="46.382695229538434" lon="13.58430083379737"><ele>556.0</ele><time>2026-04-04T12:34:47Z</time></trkpt><trkpt lat="46.382857394970415" lon="13.584217388861987"><ele>556.0</ele><time>2026-04-04T12:34:48Z</time></trkpt><trkpt lat="46.383015713867685" lon="13.584174374742439"><ele>556.0</ele><time>2026-04-04T12:34:49Z</time></trkpt><trkpt lat="46.38317488939786" lon="13.584177636481485"><ele>557.3333333333334</ele><time>2026-04-04T12:34:50Z</time></trkpt><trkpt lat="46.38333115568974" lon="13.584202605870763"><ele>558.6666666666666</ele><time>2026-04-04T12:34:51Z</time></trkpt><trkpt lat="46.383493809183726" lon="13.584260751719112"><ele>560.0</ele><time>2026-04-04T12:34:52Z</time></trkpt><trkpt lat="46.383665222437344" lon="13.584342290474906"><ele>560.0</ele><time>2026-04-04T12:34:53Z</time></trkpt><trkpt lat="46.38384572389173" lon="13.584417245251432"><ele>560.0</ele><time>2026-04-04T12:34:54Z</time></trkpt><trkpt lat="46.38403367642176" lon="13.584503313646135"><ele>560.0</ele><time>2026-04-04T12:34:55Z</time></trkpt><trkpt lat="46.38422170580543" lon="13.58458953710599"><ele>566.6666666666666</ele><time>2026-04-04T12:34:56Z</time></trkpt><trkpt lat="46.38439786899259" lon="13.584679603737277"><ele>573.3333333333334</ele><time>2026-04-04T12:34:57Z</time></trkpt><trkpt lat="46.38455854132538" lon="13.584805978929213"><ele>580.0</ele><time>2026-04-04T12:34:58Z</time></trkpt><trkpt lat="46.38470374407462" lon="13.584949028338569"><ele>580.0</ele><time>2026-04-04T12:34:59Z</time></trkpt><trkpt lat="46.38484689606266" lon="13.585096842412213"><ele>580.0</ele><time>2026-04-04T12:35:00Z</time></trkpt><trkpt lat="46.38496268528233" lon="13.585278904122422"><ele>580.0</ele><time>2026-04-04T12:35:01Z</time></trkpt><trkpt lat="46.38508617362275" lon="13.585437492435723"><ele>577.6666666666667</ele><time>2026-04-04T12:35:02Z</time></trkpt><trkpt lat="46.38521868255271" lon="13.585557595539171"><ele>575.3333333333334</ele><time>2026-04-04T12:35:03Z</time></trkpt><trkpt lat="46.38537771295962" lon="13.585612321411455"><ele>573.0</ele><time>2026-04-04T12:35:04Z</time></trkpt><trkpt lat="46.38551709927586" lon="13.585656748055174"><ele>573.0</ele><time>2026-04-04T12:35:05Z</time></trkpt><trkpt lat="46.385635151062495" lon="13.585762264512635"><ele>573.0</ele><time>2026-04-04T12:35:06Z</time></trkpt><trkpt lat="46.38572304045743" lon="13.585929740531002"><ele>573.0</ele><time>2026-04-04T12:35:07Z</time></trkpt><trkpt lat="46.385812261891246" lon="13.586127923238088"><ele>573.0</ele><time>2026-04-04T12:35:08Z</time></trkpt><trkpt lat="46.3859169427729" lon="13.586322937244224"><ele>579.0</ele><time>2026-04-04T12:35:09Z</time></trkpt><trkpt lat="46.386013690800475" lon="13.58654573426786"><ele>585.0</ele><time>2026-04-04T12:35:10Z</time></trkpt><trkpt lat="46.38611631152305" lon="13.586767113912178"><ele>591.0</ele><time>2026-04-04T12:35:11Z</time></trkpt><trkpt lat="46.38621601366229" lon="13.586982559023195"><ele>590.6666666666666</ele><time>2026-04-04T12:35:12Z</time></trkpt><trkpt lat="46.38635455672398" lon="13.587129401371735"><ele>590.3333333333333</ele><time>2026-04-04T12:35:13Z</time></trkpt><trkpt lat="46.38646627469334" lon="13.587307003929872"><ele>590.0</ele><time>2026-04-04T12:35:14Z</time></trkpt><trkpt lat="46.3865714681809" lon="13.587487960669833"><ele>590.0</ele><time>2026-04-04T12:35:15Z</time></trkpt><trkpt lat="46.38669814630222" lon="13.587632903990952"><ele>590.0</ele><time>2026-04-04T12:35:16Z</time></trkpt><trkpt lat="46.3868345586542" lon="13.587742594782984"><ele>590.0</ele><time>2026-04-04T12:35:17Z</time></trkpt><trkpt lat="46.38695491775249" lon="13.587829588756684"><ele>594.0</ele><time>2026-04-04T12:35:18Z</time></trkpt><trkpt lat="46.38703250959789" lon="13.587965647652721"><ele>598.0</ele><time>2026-04-04T12:35:19Z</time></trkpt><trkpt lat="46.387062843138295" lon="13.588128468454343"><ele>602.0</ele><time>2026-04-04T12:35:20Z</time></trkpt><trkpt lat="46.387069631495415" lon="13.588319950749808"><ele>606.0</ele><time>2026-04-04T12:35:21Z</time></trkpt><trkpt lat="46.38705750615984" lon="13.588519615950608"><ele>604.25</ele><time>2026-04-04T12:35:22Z</time></trkpt><trkpt lat="46.387067313170924" lon="13.58871388552275"><ele>602.5</ele><time>2026-04-04T12:35:23Z</time></trkpt><trkpt lat="46.387129292967025" lon="13.58888280420004"><ele>600.75</ele><time>2026-04-04T12:35:24Z</time></trkpt><trkpt lat="46.38717727169792" lon="13.589025452230295"><ele>599.0</ele><time>2026-04-04T12:35:25Z</time></trkpt><trkpt lat="46.387277416926736" lon="13.589087750043161"><ele>599.0</ele><time>2026-04-04T12:35:26Z</time></trkpt><trkpt lat="46.38738188355257" lon="13.589114037272587"><ele>599.0</ele><time>2026-04-04T12:35:27Z</time></trkpt><trkpt lat="46.38751794774294" lon="13.589071366319999"><ele>599.0</ele><time>2026-04-04T12:35:28Z</time></trkpt><trkpt lat="46.38764587457438" lon="13.588987533737946"><ele>599.0</ele><time>2026-04-04T12:35:29Z</time></trkpt><trkpt lat="46.3877778587187" lon="13.58886514429274"><ele>599.0</ele><time>2026-04-04T12:35:30Z</time></trkpt><trkpt lat="46.38791899051725" lon="13.58873964291038"><ele>599.0</ele><time>2026-04-04T12:35:31Z</time></trkpt><trkpt lat="46.38807965347307" lon="13.588632468825844"><ele>599.0</ele><time>2026-04-04T12:35:32Z</time></trkpt><trkpt lat="46.38824492234906" lon="13.588515581334432"><ele>596.6666666666666</ele><time>2026-04-04T12:35:33Z</time></trkpt><trkpt lat="46.38840386610413" lon="13.588395247969984"><ele>594.3333333333334</ele><time>2026-04-04T12:35:34Z</time></trkpt><trkpt lat="46.38856275036999" lon="13.588277873931187"><ele>592.0</ele><time>2026-04-04T12:35:35Z</time></trkpt><trkpt lat="46.38870869972897" lon="13.588172772307807"><ele>594.75</ele><time>2026-04-04T12:35:36Z</time></trkpt><trkpt lat="46.3888496401109" lon="13.588100281378251"><ele>597.5</ele><time>2026-04-04T12:35:37Z</time></trkpt><trkpt lat="46.38899301425709" lon="13.588063610446314"><ele>600.25</ele><time>2026-04-04T12:35:38Z</time></trkpt><trkpt lat="46.389139294554745" lon="13.588062296023374"><ele>603.0</ele><time>2026-04-04T12:35:39Z</time></trkpt><trkpt lat="46.389288609202524" lon="13.588101860375739"><ele>603.0</ele><time>2026-04-04T12:35:40Z</time></trkpt><trkpt lat="46.389437175696536" lon="13.588145902188225"><ele>603.0</ele><time>2026-04-04T12:35:41Z</time></trkpt><trkpt lat="46.38958133529477" lon="13.588142078060825"><ele>603.0</ele><time>2026-04-04T12:35:42Z</time></trkpt><trkpt lat="46.38972041762022" lon="13.588079211051339"><ele>603.0</ele><time>2026-04-04T12:35:43Z</time></trkpt><trkpt lat="46.38985011541214" lon="13.587975880818096"><ele>602.0</ele><time>2026-04-04T12:35:44Z</time></trkpt><trkpt lat="46.389972644781295" lon="13.58786871323325"><ele>601.0</ele><time>2026-04-04T12:35:44.999Z</time></trkpt><trkpt lat="46.39010471174285" lon="13.58779917156983"><ele>600.0</ele><time>2026-04-04T12:35:45.999Z</time></trkpt><trkpt lat="46.39025649587217" lon="13.587772699648157"><ele>599.0</ele><time>2026-04-04T12:35:46.999Z</time></trkpt><trkpt lat="46.39042139581227" lon="13.587772660968586"><ele>600.6666666666666</ele><time>2026-04-04T12:35:47.999Z</time></trkpt><trkpt lat="46.39058467117365" lon="13.587778512257799"><ele>602.3333333333334</ele><time>2026-04-04T12:35:48.999Z</time></trkpt><trkpt lat="46.39074802509095" lon="13.587829726109742"><ele>604.0</ele><time>2026-04-04T12:35:49.999Z</time></trkpt><trkpt lat="46.39092345386611" lon="13.587912615193463"><ele>603.0</ele><time>2026-04-04T12:35:50.999Z</time></trkpt><trkpt lat="46.391108809864704" lon="13.58798970441255"><ele>602.0</ele><time>2026-04-04T12:35:51.999Z</time></trkpt><trkpt lat="46.39130422539529" lon="13.588058792150926"><ele>601.0</ele><time>2026-04-04T12:35:52.999Z</time></trkpt><trkpt lat="46.3915087131694" lon="13.588125038463168"><ele>601.0</ele><time>2026-04-04T12:35:53.999Z</time></trkpt><trkpt lat="46.39171544623452" lon="13.58822293190894"><ele>601.0</ele><time>2026-04-04T12:35:54.999Z</time></trkpt><trkpt lat="46.391909779099606" lon="13.588387224059288"><ele>601.0</ele><time>2026-04-04T12:35:55.999Z</time></trkpt><trkpt lat="46.39212156838566" lon="13.58853230006328"><ele>599.0</ele><time>2026-04-04T12:35:56.999Z</time></trkpt><trkpt lat="46.3923233451774" lon="13.588718093232012"><ele>597.0</ele><time>2026-04-04T12:35:57.999Z</time></trkpt><trkpt lat="46.39250910039858" lon="13.588916258818008"><ele>597.0</ele><time>2026-04-04T12:35:58.999Z</time></trkpt><trkpt lat="46.39268062118181" lon="13.58912158342516"><ele>597.0</ele><time>2026-04-04T12:35:59.999Z</time></trkpt><trkpt lat="46.39285964676621" lon="13.589300901713646"><ele>597.0</ele><time>2026-04-04T12:36:00.999Z</time></trkpt><trkpt lat="46.393059517970535" lon="13.589443842877245"><ele>594.3333333333334</ele><time>2026-04-04T12:36:01.999Z</time></trkpt><trkpt lat="46.393271172751454" lon="13.589559188442362"><ele>591.6666666666667</ele><time>2026-04-04T12:36:02.999Z</time></trkpt><trkpt lat="46.39347750739778" lon="13.589657124742203"><ele>589.0</ele><time>2026-04-04T12:36:03.999Z</time></trkpt><trkpt lat="46.39366497296469" lon="13.589781039669342"><ele>589.0</ele><time>2026-04-04T12:36:04.999Z</time></trkpt><trkpt lat="46.39382438060089" lon="13.589962062565684"><ele>589.0</ele><time>2026-04-04T12:36:05.999Z</time></trkpt><trkpt lat="46.3939822621183" lon="13.590132953306332"><ele>589.0</ele><time>2026-04-04T12:36:06.999Z</time></trkpt><trkpt lat="46.39412428453873" lon="13.59032517113998"><ele>591.6666666666667</ele><time>2026-04-04T12:36:07.999Z</time></trkpt><trkpt lat="46.39424167887503" lon="13.590539578826458"><ele>594.3333333333334</ele><time>2026-04-04T12:36:08.999Z</time></trkpt><trkpt lat="46.394332570255855" lon="13.590773482606025"><ele>597.0</ele><time>2026-04-04T12:36:09.999Z</time></trkpt><trkpt lat="46.39440678784927" lon="13.591024092787993"><ele>593.0</ele><time>2026-04-04T12:36:10.999Z</time></trkpt><trkpt lat="46.39446467678368" lon="13.591286585642509"><ele>589.0</ele><time>2026-04-04T12:36:11.999Z</time></trkpt><trkpt lat="46.394522733222644" lon="13.591549173838498"><ele>585.0</ele><time>2026-04-04T12:36:12.999Z</time></trkpt><trkpt lat="46.394614177145286" lon="13.591789683272985"><ele>589.0</ele><time>2026-04-04T12:36:13.999Z</time></trkpt><trkpt lat="46.39470914111482" lon="13.592021159099387"><ele>593.0</ele><time>2026-04-04T12:36:14.999Z</time></trkpt><trkpt lat="46.394828310223744" lon="13.59222884931574"><ele>597.0</ele><time>2026-04-04T12:36:15.999Z</time></trkpt><trkpt lat="46.39497041550304" lon="13.592402844268701"><ele>597.0</ele><time>2026-04-04T12:36:16.999Z</time></trkpt><trkpt lat="46.3951334873886" lon="13.592545772790217"><ele>597.0</ele><time>2026-04-04T12:36:17.999Z</time></trkpt><trkpt lat="46.39531138402644" lon="13.592663214030857"><ele>597.0</ele><time>2026-04-04T12:36:18.999Z</time></trkpt><trkpt lat="46.39549888700096" lon="13.592762478506407"><ele>594.6666666666666</ele><time>2026-04-04T12:36:19.999Z</time></trkpt><trkpt lat="46.39569041134014" lon="13.592852464870619"><ele>592.3333333333333</ele><time>2026-04-04T12:36:20.999Z</time></trkpt><trkpt lat="46.395885440338226" lon="13.592932998041375"><ele>590.0</ele><time>2026-04-04T12:36:21.999Z</time></trkpt><trkpt lat="46.396087873517054" lon="13.592982615137162"><ele>590.0</ele><time>2026-04-04T12:36:22.999Z</time></trkpt><trkpt lat="46.39629670570882" lon="13.592994039199635"><ele>590.0</ele><time>2026-04-04T12:36:23.999Z</time></trkpt><trkpt lat="46.396504323554474" lon="13.59298212918819"><ele>590.0</ele><time>2026-04-04T12:36:24.999Z</time></trkpt><trkpt lat="46.39669620282642" lon="13.592953598199438"><ele>591.3333333333333</ele><time>2026-04-04T12:36:25.999Z</time></trkpt><trkpt lat="46.39687377790528" lon="13.592936039914822"><ele>592.6666666666666</ele><time>2026-04-04T12:36:26.999Z</time></trkpt><trkpt lat="46.39705860446586" lon="13.592963330299373"><ele>594.0</ele><time>2026-04-04T12:36:27.999Z</time></trkpt><trkpt lat="46.39724181979074" lon="13.593037134343273"><ele>599.3333333333334</ele><time>2026-04-04T12:36:29Z</time></trkpt><trkpt lat="46.397410444512566" lon="13.59315814092956"><ele>604.6666666666667</ele><time>2026-04-04T12:36:30Z</time></trkpt><trkpt lat="46.39755984380548" lon="13.593329565553706"><ele>610.0</ele><time>2026-04-04T12:36:31Z</time></trkpt><trkpt lat="46.39767368462816" lon="13.593555847678735"><ele>609.0</ele><time>2026-04-04T12:36:32Z</time></trkpt><trkpt lat="46.39776477731896" lon="13.593810963234032"><ele>608.0</ele><time>2026-04-04T12:36:33Z</time></trkpt><trkpt lat="46.39785172672407" lon="13.594090334781889"><ele>607.0</ele><time>2026-04-04T12:36:34Z</time></trkpt><trkpt lat="46.39794404648537" lon="13.594366078572657"><ele>605.6666666666667</ele><time>2026-04-04T12:36:35Z</time></trkpt><trkpt lat="46.39802949134135" lon="13.594633161255988"><ele>604.3333333333334</ele><time>2026-04-04T12:36:36Z</time></trkpt><trkpt lat="46.3981387403293" lon="13.594878908005645"><ele>603.0</ele><time>2026-04-04T12:36:37Z</time></trkpt><trkpt lat="46.398272250477305" lon="13.595101593636025"><ele>603.0</ele><time>2026-04-04T12:36:38Z</time></trkpt><trkpt lat="46.39839770316568" lon="13.595291654702466"><ele>603.0</ele><time>2026-04-04T12:36:39Z</time></trkpt><trkpt lat="46.39850826051077" lon="13.595453614542162"><ele>603.0</ele><time>2026-04-04T12:36:40Z</time></trkpt><trkpt lat="46.398630005653715" lon="13.595579796244385"><ele>604.6666666666666</ele><time>2026-04-04T12:36:41Z</time></trkpt><trkpt lat="46.39877926157836" lon="13.59567013157746"><ele>606.3333333333333</ele><time>2026-04-04T12:36:42Z</time></trkpt><trkpt lat="46.398947859001936" lon="13.595732486075583"><ele>608.0</ele><time>2026-04-04T12:36:43Z</time></trkpt><trkpt lat="46.39911568023414" lon="13.595839141534844"><ele>608.6666666666666</ele><time>2026-04-04T12:36:44Z</time></trkpt><trkpt lat="46.39927587839456" lon="13.59597254532751"><ele>609.3333333333334</ele><time>2026-04-04T12:36:45Z</time></trkpt><trkpt lat="46.39941870549733" lon="13.59609594368734"><ele>610.0</ele><time>2026-04-04T12:36:46Z</time></trkpt><trkpt lat="46.399556320351245" lon="13.596202204788563"><ele>611.3333333333334</ele><time>2026-04-04T12:36:47Z</time></trkpt><trkpt lat="46.399694650303644" lon="13.596307175542696"><ele>612.6666666666666</ele><time>2026-04-04T12:36:48Z</time></trkpt><trkpt lat="46.3998279320501" lon="13.59640815018983"><ele>614.0</ele><time>2026-04-04T12:36:49Z</time></trkpt><trkpt lat="46.3999567493685" lon="13.596504209270964"><ele>614.0</ele><time>2026-04-04T12:36:50Z</time></trkpt><trkpt lat="46.40007778602012" lon="13.596597120586626"><ele>614.0</ele><time>2026-04-04T12:36:51Z</time></trkpt><trkpt lat="46.400202229387276" lon="13.596687185833431"><ele>614.0</ele><time>2026-04-04T12:36:52Z</time></trkpt><trkpt lat="46.400330175188685" lon="13.59676871095941"><ele>614.0</ele><time>2026-04-04T12:36:53Z</time></trkpt><trkpt lat="46.40045950067638" lon="13.596840485722606"><ele>614.25</ele><time>2026-04-04T12:36:54Z</time></trkpt><trkpt lat="46.40058587887771" lon="13.596916141795464"><ele>614.5</ele><time>2026-04-04T12:36:55Z</time></trkpt><trkpt lat="46.40072084950126" lon="13.596975747241988"><ele>614.75</ele><time>2026-04-04T12:36:56Z</time></trkpt><trkpt lat="46.400853918077644" lon="13.597048356002887"><ele>615.0</ele><time>2026-04-04T12:36:57Z</time></trkpt><trkpt lat="46.40098032623671" lon="13.59714078694857"><ele>615.0</ele><time>2026-04-04T12:36:58Z</time></trkpt><trkpt lat="46.40110535943789" lon="13.5972306857718"><ele>615.0</ele><time>2026-04-04T12:36:59Z</time></trkpt><trkpt lat="46.401234865577784" lon="13.597313416295865"><ele>615.0</ele><time>2026-04-04T12:37:00Z</time></trkpt><trkpt lat="46.401363876189926" lon="13.597402756141271"><ele>615.0</ele><time>2026-04-04T12:37:01Z</time></trkpt><trkpt lat="46.401487219770964" lon="13.597491165606352"><ele>614.5</ele><time>2026-04-04T12:37:02Z</time></trkpt><trkpt lat="46.401595581354364" lon="13.597578813893758"><ele>614.0</ele><time>2026-04-04T12:37:03Z</time></trkpt><trkpt lat="46.40170535314682" lon="13.59767412217626"><ele>613.5</ele><time>2026-04-04T12:37:04Z</time></trkpt><trkpt lat="46.40181142776785" lon="13.597785544077405"><ele>613.0</ele><time>2026-04-04T12:37:05Z</time></trkpt><trkpt lat="46.40191530960985" lon="13.59790764375678"><ele>613.0</ele><time>2026-04-04T12:37:06Z</time></trkpt><trkpt lat="46.40202536797961" lon="13.598031319012978"><ele>613.0</ele><time>2026-04-04T12:37:07Z</time></trkpt><trkpt lat="46.40213726993938" lon="13.598150736101937"><ele>613.0</ele><time>2026-04-04T12:37:08Z</time></trkpt><trkpt lat="46.40225274291918" lon="13.59827037111489"><ele>613.0</ele><time>2026-04-04T12:37:09Z</time></trkpt><trkpt lat="46.402362807654974" lon="13.59839476366619"><ele>615.0</ele><time>2026-04-04T12:37:10Z</time></trkpt><trkpt lat="46.402468223798216" lon="13.598515289687853"><ele>617.0</ele><time>2026-04-04T12:37:11Z</time></trkpt><trkpt lat="46.40256575173467" lon="13.598620822886442"><ele>619.0</ele><time>2026-04-04T12:37:12Z</time></trkpt><trkpt lat="46.40266024018122" lon="13.59872011492552"><ele>621.0</ele><time>2026-04-04T12:37:13Z</time></trkpt><trkpt lat="46.40275223858197" lon="13.598817330381463"><ele>621.0</ele><time>2026-04-04T12:37:14Z</time></trkpt><trkpt lat="46.40284409368951" lon="13.598909900325323"><ele>621.0</ele><time>2026-04-04T12:37:15Z</time></trkpt><trkpt lat="46.40293503563757" lon="13.598995696068572"><ele>621.0</ele><time>2026-04-04T12:37:16Z</time></trkpt><trkpt lat="46.40302178963437" lon="13.59908037005022"><ele>621.0</ele><time>2026-04-04T12:37:17Z</time></trkpt><trkpt lat="46.40310912341268" lon="13.599157606167216"><ele>621.0</ele><time>2026-04-04T12:37:18Z</time></trkpt><trkpt lat="46.403195888622555" lon="13.599230545947488"><ele>621.8</ele><time>2026-04-04T12:37:19Z</time></trkpt><trkpt lat="46.403281262748614" lon="13.599307702741282"><ele>622.6</ele><time>2026-04-04T12:37:20Z</time></trkpt><trkpt lat="46.40336592700961" lon="13.599380622170393"><ele>623.4</ele><time>2026-04-04T12:37:21Z</time></trkpt><trkpt lat="46.40345199117447" lon="13.5994485540573"><ele>624.2</ele><time>2026-04-04T12:37:22Z</time></trkpt><trkpt lat="46.403539497686616" lon="13.59951686036812"><ele>625.0</ele><time>2026-04-04T12:37:23Z</time></trkpt><trkpt lat="46.40362683590072" lon="13.599587404321003"><ele>625.0</ele><time>2026-04-04T12:37:24Z</time></trkpt><trkpt lat="46.403716236815" lon="13.599658205042156"><ele>625.0</ele><time>2026-04-04T12:37:25Z</time></trkpt><trkpt lat="46.40380420712755" lon="13.59973585693114"><ele>625.0</ele><time>2026-04-04T12:37:26Z</time></trkpt><trkpt lat="46.403890887800685" lon="13.599822246059553"><ele>625.0</ele><time>2026-04-04T12:37:27Z</time></trkpt><trkpt lat="46.403981072475574" lon="13.59990589613998"><ele>625.0</ele><time>2026-04-04T12:37:28Z</time></trkpt><trkpt lat="46.4040679791353" lon="13.60000290779744"><ele>625.2</ele><time>2026-04-04T12:37:29Z</time></trkpt><trkpt lat="46.404150238381966" lon="13.600107938005767"><ele>625.4</ele><time>2026-04-04T12:37:30Z</time></trkpt><trkpt lat="46.4042078942394" lon="13.60024357638116"><ele>625.6</ele><time>2026-04-04T12:37:31Z</time></trkpt><trkpt lat="46.40427042539915" lon="13.60037157448465"><ele>625.8</ele><time>2026-04-04T12:37:32Z</time></trkpt><trkpt lat="46.40433168991849" lon="13.600499767223166"><ele>626.0</ele><time>2026-04-04T12:37:33Z</time></trkpt><trkpt lat="46.4043951949645" lon="13.600632648275585"><ele>626.0</ele><time>2026-04-04T12:37:34Z</time></trkpt><trkpt lat="46.404459228487354" lon="13.60076663498935"><ele>626.0</ele><time>2026-04-04T12:37:35Z</time></trkpt><trkpt lat="46.40452108273772" lon="13.600903430760793"><ele>626.0</ele><time>2026-04-04T12:37:36Z</time></trkpt><trkpt lat="46.40457944985912" lon="13.601044412253797"><ele>626.0</ele><time>2026-04-04T12:37:37Z</time></trkpt><trkpt lat="46.40464678389814" lon="13.601172997815762"><ele>627.4</ele><time>2026-04-04T12:37:38Z</time></trkpt><trkpt lat="46.40469812023012" lon="13.601309301257217"><ele>628.8</ele><time>2026-04-04T12:37:39Z</time></trkpt><trkpt lat="46.40473415421678" lon="13.601453408449187"><ele>630.1999999999999</ele><time>2026-04-04T12:37:40Z</time></trkpt><trkpt lat="46.40478510231726" lon="13.601583716009461"><ele>631.6</ele><time>2026-04-04T12:37:41Z</time></trkpt><trkpt lat="46.40483887275586" lon="13.601716337242282"><ele>633.0</ele><time>2026-04-04T12:37:42Z</time></trkpt><trkpt lat="46.40489757828439" lon="13.601852955953598"><ele>633.0</ele><time>2026-04-04T12:37:43Z</time></trkpt><trkpt lat="46.404962550824045" lon="13.601991900899446"><ele>633.0</ele><time>2026-04-04T12:37:44Z</time></trkpt><trkpt lat="46.405037554900915" lon="13.60212524713302"><ele>633.0</ele><time>2026-04-04T12:37:45Z</time></trkpt><trkpt lat="46.40512221684641" lon="13.602246996380597"><ele>633.0</ele><time>2026-04-04T12:37:45.999Z</time></trkpt><trkpt lat="46.40522320172304" lon="13.602332916611662"><ele>633.1999999999999</ele><time>2026-04-04T12:37:46.999Z</time></trkpt><trkpt lat="46.40531047079781" lon="13.602431236536074"><ele>633.4</ele><time>2026-04-04T12:37:47.999Z</time></trkpt><trkpt lat="46.405397573891314" lon="13.602518916720882"><ele>633.5999999999999</ele><time>2026-04-04T12:37:48.999Z</time></trkpt><trkpt lat="46.40549250545317" lon="13.602589461544929"><ele>633.8</ele><time>2026-04-04T12:37:49.999Z</time></trkpt><trkpt lat="46.40559277455169" lon="13.602655559526278"><ele>634.0</ele><time>2026-04-04T12:37:50.999Z</time></trkpt><trkpt lat="46.40569826318264" lon="13.602723344219148"><ele>636.5</ele><time>2026-04-04T12:37:51.999Z</time></trkpt><trkpt lat="46.40580573630314" lon="13.602792619431968"><ele>639.0</ele><time>2026-04-04T12:37:52.999Z</time></trkpt><trkpt lat="46.405915727389555" lon="13.602860721241104"><ele>641.5</ele><time>2026-04-04T12:37:53.999Z</time></trkpt><trkpt lat="46.4060225503166" lon="13.60292920394338"><ele>644.0</ele><time>2026-04-04T12:37:54.999Z</time></trkpt><trkpt lat="46.40612394511055" lon="13.603003490188028"><ele>644.2</ele><time>2026-04-04T12:37:55.999Z</time></trkpt><trkpt lat="46.40621859087866" lon="13.60308495036875"><ele>644.4000000000001</ele><time>2026-04-04T12:37:56.999Z</time></trkpt><trkpt lat="46.406306386488296" lon="13.603175349348906"><ele>644.6</ele><time>2026-04-04T12:37:57.999Z</time></trkpt><trkpt lat="46.40639521822766" lon="13.60326939422694"><ele>644.8</ele><time>2026-04-04T12:37:58.999Z</time></trkpt><trkpt lat="46.40648319394985" lon="13.603372490060211"><ele>645.0</ele><time>2026-04-04T12:37:59.999Z</time></trkpt><trkpt lat="46.40657517188769" lon="13.603460109073406"><ele>646.2</ele><time>2026-04-04T12:38:00.999Z</time></trkpt><trkpt lat="46.40667468072923" lon="13.603518369590988"><ele>647.4</ele><time>2026-04-04T12:38:01.999Z</time></trkpt><trkpt lat="46.406766460535344" lon="13.60356809158291"><ele>648.5999999999999</ele><time>2026-04-04T12:38:02.999Z</time></trkpt><trkpt lat="46.40687656388115" lon="13.603579733170651"><ele>649.8</ele><time>2026-04-04T12:38:03.999Z</time></trkpt><trkpt lat="46.40698371536655" lon="13.603556024810874"><ele>651.0</ele><time>2026-04-04T12:38:04.999Z</time></trkpt><trkpt lat="46.407092454856546" lon="13.603523226576748"><ele>652.25</ele><time>2026-04-04T12:38:05.999Z</time></trkpt><trkpt lat="46.40720920758095" lon="13.603496173566114"><ele>653.5</ele><time>2026-04-04T12:38:06.999Z</time></trkpt><trkpt lat="46.4073287055998" lon="13.603488378499856"><ele>654.75</ele><time>2026-04-04T12:38:07.999Z</time></trkpt><trkpt lat="46.4074415124648" lon="13.603500337235928"><ele>656.0</ele><time>2026-04-04T12:38:08.999Z</time></trkpt><trkpt lat="46.40755128776987" lon="13.603541971327582"><ele>656.0</ele><time>2026-04-04T12:38:09.999Z</time></trkpt><trkpt lat="46.40764990437902" lon="13.603602513021176"><ele>656.0</ele><time>2026-04-04T12:38:10.999Z</time></trkpt><trkpt lat="46.407742181467654" lon="13.60366873036858"><ele>656.0</ele><time>2026-04-04T12:38:11.999Z</time></trkpt><trkpt lat="46.40783413500085" lon="13.603744304451235"><ele>656.0</ele><time>2026-04-04T12:38:12.999Z</time></trkpt><trkpt lat="46.40792521157134" lon="13.603824554132233"><ele>656.0</ele><time>2026-04-04T12:38:13.999Z</time></trkpt><trkpt lat="46.40800413364854" lon="13.603916272026009"><ele>657.5999999999999</ele><time>2026-04-04T12:38:14.999Z</time></trkpt><trkpt lat="46.4080640080691" lon="13.604015077240767"><ele>659.2</ele><time>2026-04-04T12:38:15.999Z</time></trkpt><trkpt lat="46.40811814254262" lon="13.604134152183217"><ele>660.8</ele><time>2026-04-04T12:38:16.999Z</time></trkpt><trkpt lat="46.40814196996613" lon="13.604290451793423"><ele>662.4000000000001</ele><time>2026-04-04T12:38:17.999Z</time></trkpt><trkpt lat="46.408141470553076" lon="13.604446654626049"><ele>664.0</ele><time>2026-04-04T12:38:18.999Z</time></trkpt><trkpt lat="46.4081455263392" lon="13.604616934712935"><ele>664.75</ele><time>2026-04-04T12:38:19.999Z</time></trkpt><trkpt lat="46.40817107874323" lon="13.60479358559093"><ele>665.5</ele><time>2026-04-04T12:38:20.999Z</time></trkpt><trkpt lat="46.40816306190627" lon="13.604981677991658"><ele>666.25</ele><time>2026-04-04T12:38:21.999Z</time></trkpt><trkpt lat="46.40815688509176" lon="13.605166709090796"><ele>667.0</ele><time>2026-04-04T12:38:22.999Z</time></trkpt><trkpt lat="46.40815181994525" lon="13.605313498035075"><ele>667.0</ele><time>2026-04-04T12:38:23.999Z</time></trkpt><trkpt lat="46.40814563056938" lon="13.605442718750501"><ele>667.0</ele><time>2026-04-04T12:38:24.999Z</time></trkpt><trkpt lat="46.40822055602757" lon="13.605545965304534"><ele>667.0</ele><time>2026-04-04T12:38:25.999Z</time></trkpt><trkpt lat="46.40830282043625" lon="13.605633802732894"><ele>667.0</ele><time>2026-04-04T12:38:26.999Z</time></trkpt><trkpt lat="46.408414566619584" lon="13.60569127654239"><ele>667.0</ele><time>2026-04-04T12:38:27.999Z</time></trkpt><trkpt lat="46.40853598010487" lon="13.605743671961372"><ele>667.0</ele><time>2026-04-04T12:38:28.999Z</time></trkpt><trkpt lat="46.40866477541935" lon="13.605810372315547"><ele>667.0</ele><time>2026-04-04T12:38:29.999Z</time></trkpt><trkpt lat="46.40880222882991" lon="13.60587118167683"><ele>667.0</ele><time>2026-04-04T12:38:30.999Z</time></trkpt><trkpt lat="46.40894614251869" lon="13.605942330443229"><ele>667.0</ele><time>2026-04-04T12:38:31.999Z</time></trkpt><trkpt lat="46.409094419032066" lon="13.606024107964199"><ele>670.0</ele><time>2026-04-04T12:38:32.999Z</time></trkpt><trkpt lat="46.40924898093389" lon="13.606098838106218"><ele>673.0</ele><time>2026-04-04T12:38:33.999Z</time></trkpt><trkpt lat="46.40939675547937" lon="13.606178246250293"><ele>676.0</ele><time>2026-04-04T12:38:35Z</time></trkpt><trkpt lat="46.40953422214021" lon="13.606251849340685"><ele>683.75</ele><time>2026-04-04T12:38:36Z</time></trkpt><trkpt lat="46.40965957925408" lon="13.606303323434885"><ele>691.5</ele><time>2026-04-04T12:38:37Z</time></trkpt><trkpt lat="46.40978123488078" lon="13.606326368993773"><ele>699.25</ele><time>2026-04-04T12:38:38Z</time></trkpt><trkpt lat="46.40988978843736" lon="13.606374154233427"><ele>707.0</ele><time>2026-04-04T12:38:39Z</time></trkpt><trkpt lat="46.40998006803075" lon="13.60648965425326"><ele>707.0</ele><time>2026-04-04T12:38:40Z</time></trkpt><trkpt lat="46.410031419269814" lon="13.606671271153559"><ele>707.0</ele><time>2026-04-04T12:38:41Z</time></trkpt><trkpt lat="46.41011953940768" lon="13.606833113728312"><ele>707.0</ele><time>2026-04-04T12:38:42Z</time></trkpt><trkpt lat="46.41018253690697" lon="13.607027588419495"><ele>707.0</ele><time>2026-04-04T12:38:43Z</time></trkpt><trkpt lat="46.4102573369711" lon="13.607221859205477"><ele>702.3333333333333</ele><time>2026-04-04T12:38:44Z</time></trkpt><trkpt lat="46.41033023173369" lon="13.607437828049461"><ele>697.6666666666666</ele><time>2026-04-04T12:38:45Z</time></trkpt><trkpt lat="46.41040732188569" lon="13.607661785384924"><ele>693.0</ele><time>2026-04-04T12:38:46Z</time></trkpt><trkpt lat="46.41048585174052" lon="13.60788943417564"><ele>696.6666666666666</ele><time>2026-04-04T12:38:47Z</time></trkpt><trkpt lat="46.41056326291882" lon="13.608120472525588"><ele>700.3333333333333</ele><time>2026-04-04T12:38:48Z</time></trkpt><trkpt lat="46.41063266868914" lon="13.608354643409616"><ele>704.0</ele><time>2026-04-04T12:38:49Z</time></trkpt><trkpt lat="46.41068339722207" lon="13.608579556990675"><ele>702.0</ele><time>2026-04-04T12:38:50Z</time></trkpt><trkpt lat="46.41072887433217" lon="13.60880786678029"><ele>700.0</ele><time>2026-04-04T12:38:51Z</time></trkpt><trkpt lat="46.41078716731091" lon="13.609036903158898"><ele>698.0</ele><time>2026-04-04T12:38:52Z</time></trkpt><trkpt lat="46.41088810522488" lon="13.609238296089492"><ele>698.0</ele><time>2026-04-04T12:38:53Z</time></trkpt><trkpt lat="46.410957240364624" lon="13.609466113455618"><ele>698.0</ele><time>2026-04-04T12:38:54Z</time></trkpt><trkpt lat="46.41102081409094" lon="13.609689113871683"><ele>698.0</ele><time>2026-04-04T12:38:55Z</time></trkpt><trkpt lat="46.411078550849844" lon="13.609910053742027"><ele>695.0</ele><time>2026-04-04T12:38:56Z</time></trkpt><trkpt lat="46.411168150185055" lon="13.610106900230056"><ele>692.0</ele><time>2026-04-04T12:38:57Z</time></trkpt><trkpt lat="46.41128079764346" lon="13.610289758667117"><ele>689.0</ele><time>2026-04-04T12:38:58Z</time></trkpt><trkpt lat="46.41138681381097" lon="13.610486217593282"><ele>689.0</ele><time>2026-04-04T12:38:59Z</time></trkpt><trkpt lat="46.411488627600185" lon="13.610688798973635"><ele>689.0</ele><time>2026-04-04T12:39:00Z</time></trkpt><trkpt lat="46.41158770149374" lon="13.610907397189514"><ele>689.0</ele><time>2026-04-04T12:39:01Z</time></trkpt><trkpt lat="46.411706810091054" lon="13.61111347180933"><ele>689.0</ele><time>2026-04-04T12:39:02Z</time></trkpt><trkpt lat="46.41178263003399" lon="13.611362491719934"><ele>689.0</ele><time>2026-04-04T12:39:03Z</time></trkpt><trkpt lat="46.411856850983064" lon="13.611605351844505"><ele>689.0</ele><time>2026-04-04T12:39:04Z</time></trkpt><trkpt lat="46.411930684929274" lon="13.611845299567733"><ele>695.3333333333333</ele><time>2026-04-04T12:39:05Z</time></trkpt><trkpt lat="46.412000941099045" lon="13.612080535008385"><ele>701.6666666666666</ele><time>2026-04-04T12:39:06Z</time></trkpt><trkpt lat="46.4120545785054" lon="13.612317826904771"><ele>708.0</ele><time>2026-04-04T12:39:07Z</time></trkpt><trkpt lat="46.412106689891594" lon="13.612564465585288"><ele>708.0</ele><time>2026-04-04T12:39:08Z</time></trkpt><trkpt lat="46.41217389256382" lon="13.612808090805078"><ele>708.0</ele><time>2026-04-04T12:39:09Z</time></trkpt><trkpt lat="46.412242794454414" lon="13.613052052438666"><ele>708.0</ele><time>2026-04-04T12:39:10Z</time></trkpt><trkpt lat="46.41230252911794" lon="13.613307138547576"><ele>717.0</ele><time>2026-04-04T12:39:11Z</time></trkpt><trkpt lat="46.41236359691023" lon="13.613571922315046"><ele>726.0</ele><time>2026-04-04T12:39:12Z</time></trkpt><trkpt lat="46.41241762048468" lon="13.61385307269388"><ele>735.0</ele><time>2026-04-04T12:39:13Z</time></trkpt><trkpt lat="46.412490398593356" lon="13.614124463312308"><ele>735.0</ele><time>2026-04-04T12:39:14Z</time></trkpt><trkpt lat="46.412563138185845" lon="13.614394448496467"><ele>735.0</ele><time>2026-04-04T12:39:15Z</time></trkpt><trkpt lat="46.41263798982332" lon="13.614668894544742"><ele>735.0</ele><time>2026-04-04T12:39:16Z</time></trkpt><trkpt lat="46.4127171964291" lon="13.614950251268965"><ele>734.0</ele><time>2026-04-04T12:39:17Z</time></trkpt><trkpt lat="46.41280109483734" lon="13.615234912770253"><ele>733.0</ele><time>2026-04-04T12:39:18Z</time></trkpt><trkpt lat="46.41288431831724" lon="13.615513523626106"><ele>732.0</ele><time>2026-04-04T12:39:19Z</time></trkpt><trkpt lat="46.41296743839418" lon="13.615787116024402"><ele>747.0</ele><time>2026-04-04T12:39:20Z</time></trkpt><trkpt lat="46.413045386675776" lon="13.616050352144228"><ele>762.0</ele><time>2026-04-04T12:39:21Z</time></trkpt><trkpt lat="46.41311874251411" lon="13.616312299893526"><ele>777.0</ele><time>2026-04-04T12:39:22Z</time></trkpt><trkpt lat="46.41319739347624" lon="13.616568739943043"><ele>773.0</ele><time>2026-04-04T12:39:23Z</time></trkpt><trkpt lat="46.41325259777693" lon="13.616834615901606"><ele>769.0</ele><time>2026-04-04T12:39:24Z</time></trkpt><trkpt lat="46.413290529356175" lon="13.617111376808543"><ele>765.0</ele><time>2026-04-04T12:39:25Z</time></trkpt><trkpt lat="46.41334709295387" lon="13.617383439976741"><ele>765.0</ele><time>2026-04-04T12:39:26Z</time></trkpt><trkpt lat="46.41337452486258" lon="13.61766004867412"><ele>765.0</ele><time>2026-04-04T12:39:27Z</time></trkpt><trkpt lat="46.413418020644905" lon="13.61792522293822"><ele>765.0</ele><time>2026-04-04T12:39:28Z</time></trkpt><trkpt lat="46.41346674634669" lon="13.618185581430048"><ele>763.0</ele><time>2026-04-04T12:39:29Z</time></trkpt><trkpt lat="46.41352703524331" lon="13.618433436737568"><ele>761.0</ele><time>2026-04-04T12:39:30Z</time></trkpt><trkpt lat="46.413597960297494" lon="13.618676032539442"><ele>759.0</ele><time>2026-04-04T12:39:31Z</time></trkpt><trkpt lat="46.4136925406592" lon="13.618916667774577"><ele>754.6666666666666</ele><time>2026-04-04T12:39:32Z</time></trkpt><trkpt lat="46.41380520005591" lon="13.619143447956354"><ele>750.3333333333333</ele><time>2026-04-04T12:39:33Z</time></trkpt><trkpt lat="46.41392595669053" lon="13.6193635678034"><ele>746.0</ele><time>2026-04-04T12:39:34Z</time></trkpt><trkpt lat="46.41405731907603" lon="13.619572198665974"><ele>759.6666666666666</ele><time>2026-04-04T12:39:35Z</time></trkpt><trkpt lat="46.414177490334154" lon="13.619797780262395"><ele>773.3333333333333</ele><time>2026-04-04T12:39:36Z</time></trkpt><trkpt lat="46.4143116990703" lon="13.620009152595044"><ele>787.0</ele><time>2026-04-04T12:39:37Z</time></trkpt><trkpt lat="46.4144518549121" lon="13.620213950234978"><ele>779.6666666666666</ele><time>2026-04-04T12:39:38Z</time></trkpt><trkpt lat="46.414582146298166" lon="13.620427430631041"><ele>772.3333333333333</ele><time>2026-04-04T12:39:39Z</time></trkpt><trkpt lat="46.41472277832591" lon="13.620625617561004"><ele>765.0</ele><time>2026-04-04T12:39:40Z</time></trkpt><trkpt lat="46.414861439720056" lon="13.620827354160824"><ele>775.6666666666667</ele><time>2026-04-04T12:39:41Z</time></trkpt><trkpt lat="46.414997066467535" lon="13.621035337859524"><ele>786.3333333333334</ele><time>2026-04-04T12:39:42Z</time></trkpt><trkpt lat="46.41513796330272" lon="13.621236077506538"><ele>797.0</ele><time>2026-04-04T12:39:43Z</time></trkpt><trkpt lat="46.415271585218356" lon="13.621446476279296"><ele>797.0</ele><time>2026-04-04T12:39:44Z</time></trkpt><trkpt lat="46.415416021636005" lon="13.621616742550684"><ele>797.0</ele><time>2026-04-04T12:39:45Z</time></trkpt><trkpt lat="46.41554780955119" lon="13.621777124051766"><ele>797.0</ele><time>2026-04-04T12:39:46Z</time></trkpt><trkpt lat="46.41562340386662" lon="13.621970400031579"><ele>802.0</ele><time>2026-04-04T12:39:47Z</time></trkpt><trkpt lat="46.41570633294881" lon="13.622136549184976"><ele>807.0</ele><time>2026-04-04T12:39:48Z</time></trkpt><trkpt lat="46.41577842362535" lon="13.622305059984091"><ele>812.0</ele><time>2026-04-04T12:39:49Z</time></trkpt><trkpt lat="46.41587489290589" lon="13.622442500761142"><ele>817.0</ele><time>2026-04-04T12:39:50Z</time></trkpt><trkpt lat="46.416004607792786" lon="13.622532077791151"><ele>817.0</ele><time>2026-04-04T12:39:50.999Z</time></trkpt><trkpt lat="46.416142934487" lon="13.622587024360396"><ele>817.0</ele><time>2026-04-04T12:39:51.999Z</time></trkpt><trkpt lat="46.416259016381126" lon="13.62268580991637"><ele>817.0</ele><time>2026-04-04T12:39:52.999Z</time></trkpt><trkpt lat="46.41633241251146" lon="13.622860154924508"><ele>817.0</ele><time>2026-04-04T12:39:53.999Z</time></trkpt><trkpt lat="46.41641056797676" lon="13.623045187453775"><ele>821.0</ele><time>2026-04-04T12:39:54.999Z</time></trkpt><trkpt lat="46.416487556914646" lon="13.623247942959003"><ele>825.0</ele><time>2026-04-04T12:39:55.999Z</time></trkpt><trkpt lat="46.41656080830733" lon="13.623461586796155"><ele>829.0</ele><time>2026-04-04T12:39:56.999Z</time></trkpt><trkpt lat="46.4166240622358" lon="13.623666901939355"><ele>829.0</ele><time>2026-04-04T12:39:57.999Z</time></trkpt><trkpt lat="46.416658226081466" lon="13.623886693072745"><ele>829.0</ele><time>2026-04-04T12:39:58.999Z</time></trkpt><trkpt lat="46.41672724208768" lon="13.624100871981192"><ele>829.0</ele><time>2026-04-04T12:39:59.999Z</time></trkpt><trkpt lat="46.416809965428065" lon="13.624300000405057"><ele>829.0</ele><time>2026-04-04T12:40:00.999Z</time></trkpt><trkpt lat="46.416898376537276" lon="13.62446263185122"><ele>829.0</ele><time>2026-04-04T12:40:01.999Z</time></trkpt><trkpt lat="46.41696228679027" lon="13.624622415871675"><ele>829.0</ele><time>2026-04-04T12:40:02.999Z</time></trkpt><trkpt lat="46.417050910858485" lon="13.624746078282508"><ele>829.0</ele><time>2026-04-04T12:40:03.999Z</time></trkpt><trkpt lat="46.41717092747212" lon="13.624818859956871"><ele>833.5</ele><time>2026-04-04T12:40:04.999Z</time></trkpt><trkpt lat="46.41731123200153" lon="13.624840860392185"><ele>838.0</ele><time>2026-04-04T12:40:05.999Z</time></trkpt><trkpt lat="46.39382438060089" lon="13.589962062565684"><ele>765.3333333333333</ele><time>2026-04-04T12:36:05.999Z</time></trkpt><trkpt lat="46.3939822621183" lon="13.590132953306332"><ele>692.6666666666666</ele><time>2026-04-04T12:36:06.999Z</time></trkpt><trkpt lat="46.39412428453873" lon="13.59032517113998"><ele>620.0</ele><time>2026-04-04T12:36:07.999Z</time></trkpt><trkpt lat="46.39424167887503" lon="13.590539578826458"><ele>612.3333333333333</ele><time>2026-04-04T12:36:08.999Z</time></trkpt><trkpt lat="46.394332570255855" lon="13.590773482606025"><ele>604.6666666666666</ele><time>2026-04-04T12:36:09.999Z</time></trkpt><trkpt lat="46.39440678784927" lon="13.591024092787993"><ele>597.0</ele><time>2026-04-04T12:36:10.999Z</time></trkpt><trkpt lat="46.39446467678368" lon="13.591286585642509"><ele>597.0</ele><time>2026-04-04T12:36:11.999Z</time></trkpt><trkpt lat="46.394522733222644" lon="13.591549173838498"><ele>597.0</ele><time>2026-04-04T12:36:12.999Z</time></trkpt><trkpt lat="46.394614177145286" lon="13.591789683272985"><ele>597.0</ele><time>2026-04-04T12:36:13.999Z</time></trkpt><trkpt lat="46.39470914111482" lon="13.592021159099387"><ele>597.0</ele><time>2026-04-04T12:36:14.999Z</time></trkpt><trkpt lat="46.394828310223744" lon="13.59222884931574"><ele>597.0</ele><time>2026-04-04T12:36:15.999Z</time></trkpt><trkpt lat="46.39497041550304" lon="13.592402844268701"><ele>597.0</ele><time>2026-04-04T12:36:16.999Z</time></trkpt><trkpt lat="46.3951334873886" lon="13.592545772790217"><ele>597.0</ele><time>2026-04-04T12:36:17.999Z</time></trkpt><trkpt lat="46.39531138402644" lon="13.592663214030857"><ele>597.0</ele><time>2026-04-04T12:36:18.999Z</time></trkpt><trkpt lat="46.39549888700096" lon="13.592762478506407"><ele>597.0</ele><time>2026-04-04T12:36:19.999Z</time></trkpt><trkpt lat="46.39569041134014" lon="13.592852464870619"><ele>594.6666666666666</ele><time>2026-04-04T12:36:20.999Z</time></trkpt><trkpt lat="46.395885440338226" lon="13.592932998041375"><ele>592.3333333333333</ele><time>2026-04-04T12:36:21.999Z</time></trkpt><trkpt lat="46.396087873517054" lon="13.592982615137162"><ele>590.0</ele><time>2026-04-04T12:36:22.999Z</time></trkpt><trkpt lat="46.39629670570882" lon="13.592994039199635"><ele>591.3333333333333</ele><time>2026-04-04T12:36:23.999Z</time></trkpt><trkpt lat="46.396504323554474" lon="13.59298212918819"><ele>592.6666666666666</ele><time>2026-04-04T12:36:24.999Z</time></trkpt><trkpt lat="46.39669620282642" lon="13.592953598199438"><ele>594.0</ele><time>2026-04-04T12:36:25.999Z</time></trkpt><trkpt lat="46.39687377790528" lon="13.592936039914822"><ele>594.0</ele><time>2026-04-04T12:36:26.999Z</time></trkpt><trkpt lat="46.39705860446586" lon="13.592963330299373"><ele>594.0</ele><time>2026-04-04T12:36:27.999Z</time></trkpt><trkpt lat="46.39724181979074" lon="13.593037134343273"><ele>594.0</ele><time>2026-04-04T12:36:29Z</time></trkpt><trkpt lat="46.397410444512566" lon="13.59315814092956"><ele>598.3333333333334</ele><time>2026-04-04T12:36:30Z</time></trkpt><trkpt lat="46.39755984380548" lon="13.593329565553706"><ele>602.6666666666667</ele><time>2026-04-04T12:36:31Z</time></trkpt><trkpt lat="46.39767368462816" lon="13.593555847678735"><ele>607.0</ele><time>2026-04-04T12:36:32Z</time></trkpt><trkpt lat="46.39776477731896" lon="13.593810963234032"><ele>607.0</ele><time>2026-04-04T12:36:33Z</time></trkpt><trkpt lat="46.39785172672407" lon="13.594090334781889"><ele>607.0</ele><time>2026-04-04T12:36:34Z</time></trkpt><trkpt lat="46.39794404648537" lon="13.594366078572657"><ele>607.0</ele><time>2026-04-04T12:36:35Z</time></trkpt><trkpt lat="46.39802949134135" lon="13.594633161255988"><ele>605.6666666666667</ele><time>2026-04-04T12:36:36Z</time></trkpt><trkpt lat="46.3981387403293" lon="13.594878908005645"><ele>604.3333333333334</ele><time>2026-04-04T12:36:37Z</time></trkpt><trkpt lat="46.398272250477305" lon="13.595101593636025"><ele>603.0</ele><time>2026-04-04T12:36:38Z</time></trkpt><trkpt lat="46.39839770316568" lon="13.595291654702466"><ele>604.6666666666666</ele><time>2026-04-04T12:36:39Z</time></trkpt><trkpt lat="46.39850826051077" lon="13.595453614542162"><ele>606.3333333333333</ele><time>2026-04-04T12:36:40Z</time></trkpt><trkpt lat="46.398630005653715" lon="13.595579796244385"><ele>608.0</ele><time>2026-04-04T12:36:41Z</time></trkpt><trkpt lat="46.39877926157836" lon="13.59567013157746"><ele>608.6666666666666</ele><time>2026-04-04T12:36:42Z</time></trkpt><trkpt lat="46.398947859001936" lon="13.595732486075583"><ele>609.3333333333334</ele><time>2026-04-04T12:36:43Z</time></trkpt><trkpt lat="46.39911568023414" lon="13.595839141534844"><ele>610.0</ele><time>2026-04-04T12:36:44Z</time></trkpt><trkpt lat="46.39927587839456" lon="13.59597254532751"><ele>610.0</ele><time>2026-04-04T12:36:45Z</time></trkpt><trkpt lat="46.39941870549733" lon="13.59609594368734"><ele>610.0</ele><time>2026-04-04T12:36:46Z</time></trkpt><trkpt lat="46.399556320351245" lon="13.596202204788563"><ele>610.0</ele><time>2026-04-04T12:36:47Z</time></trkpt><trkpt lat="46.399694650303644" lon="13.596307175542696"><ele>611.0</ele><time>2026-04-04T12:36:48Z</time></trkpt><trkpt lat="46.3998279320501" lon="13.59640815018983"><ele>612.0</ele><time>2026-04-04T12:36:49Z</time></trkpt><trkpt lat="46.3999567493685" lon="13.596504209270964"><ele>613.0</ele><time>2026-04-04T12:36:50Z</time></trkpt><trkpt lat="46.40007778602012" lon="13.596597120586626"><ele>614.0</ele><time>2026-04-04T12:36:51Z</time></trkpt><trkpt lat="46.400202229387276" lon="13.596687185833431"><ele>614.0</ele><time>2026-04-04T12:36:52Z</time></trkpt><trkpt lat="46.400330175188685" lon="13.59676871095941"><ele>614.0</ele><time>2026-04-04T12:36:53Z</time></trkpt><trkpt lat="46.40045950067638" lon="13.596840485722606"><ele>614.0</ele><time>2026-04-04T12:36:54Z</time></trkpt><trkpt lat="46.40058587887771" lon="13.596916141795464"><ele>614.0</ele><time>2026-04-04T12:36:55Z</time></trkpt><trkpt lat="46.40072084950126" lon="13.596975747241988"><ele>614.25</ele><time>2026-04-04T12:36:56Z</time></trkpt><trkpt lat="46.400853918077644" lon="13.597048356002887"><ele>614.5</ele><time>2026-04-04T12:36:57Z</time></trkpt><trkpt lat="46.40098032623671" lon="13.59714078694857"><ele>614.75</ele><time>2026-04-04T12:36:58Z</time></trkpt><trkpt lat="46.40110535943789" lon="13.5972306857718"><ele>615.0</ele><time>2026-04-04T12:36:59Z</time></trkpt><trkpt lat="46.401234865577784" lon="13.597313416295865"><ele>616.0</ele><time>2026-04-04T12:37:00Z</time></trkpt><trkpt lat="46.401363876189926" lon="13.597402756141271"><ele>617.0</ele><time>2026-04-04T12:37:01Z</time></trkpt><trkpt lat="46.401487219770964" lon="13.597491165606352"><ele>618.0</ele><time>2026-04-04T12:37:02Z</time></trkpt><trkpt lat="46.401595581354364" lon="13.597578813893758"><ele>619.0</ele><time>2026-04-04T12:37:03Z</time></trkpt><trkpt lat="46.40170535314682" lon="13.59767412217626"><ele>619.0</ele><time>2026-04-04T12:37:04Z</time></trkpt><trkpt lat="46.40181142776785" lon="13.597785544077405"><ele>619.0</ele><time>2026-04-04T12:37:05Z</time></trkpt><trkpt lat="46.40191530960985" lon="13.59790764375678"><ele>619.0</ele><time>2026-04-04T12:37:06Z</time></trkpt><trkpt lat="46.40202536797961" lon="13.598031319012978"><ele>619.0</ele><time>2026-04-04T12:37:07Z</time></trkpt><trkpt lat="46.40213726993938" lon="13.598150736101937"><ele>620.0</ele><time>2026-04-04T12:37:08Z</time></trkpt><trkpt lat="46.40225274291918" lon="13.59827037111489"><ele>621.0</ele><time>2026-04-04T12:37:09Z</time></trkpt><trkpt lat="46.402362807654974" lon="13.59839476366619"><ele>622.0</ele><time>2026-04-04T12:37:10Z</time></trkpt><trkpt lat="46.402468223798216" lon="13.598515289687853"><ele>623.0</ele><time>2026-04-04T12:37:11Z</time></trkpt><trkpt lat="46.40256575173467" lon="13.598620822886442"><ele>622.5</ele><time>2026-04-04T12:37:12Z</time></trkpt><trkpt lat="46.40266024018122" lon="13.59872011492552"><ele>622.0</ele><time>2026-04-04T12:37:13Z</time></trkpt><trkpt lat="46.40275223858197" lon="13.598817330381463"><ele>621.5</ele><time>2026-04-04T12:37:14Z</time></trkpt><trkpt lat="46.40284409368951" lon="13.598909900325323"><ele>621.0</ele><time>2026-04-04T12:37:15Z</time></trkpt><trkpt lat="46.40293503563757" lon="13.598995696068572"><ele>622.0</ele><time>2026-04-04T12:37:16Z</time></trkpt><trkpt lat="46.40302178963437" lon="13.59908037005022"><ele>623.0</ele><time>2026-04-04T12:37:17Z</time></trkpt><trkpt lat="46.40310912341268" lon="13.599157606167216"><ele>624.0</ele><time>2026-04-04T12:37:18Z</time></trkpt><trkpt lat="46.403195888622555" lon="13.599230545947488"><ele>625.0</ele><time>2026-04-04T12:37:19Z</time></trkpt><trkpt lat="46.403281262748614" lon="13.599307702741282"><ele>626.0</ele><time>2026-04-04T12:37:20Z</time></trkpt><trkpt lat="46.40336592700961" lon="13.599380622170393"><ele>626.0</ele><time>2026-04-04T12:37:21Z</time></trkpt><trkpt lat="46.40345199117447" lon="13.5994485540573"><ele>626.0</ele><time>2026-04-04T12:37:22Z</time></trkpt><trkpt lat="46.403539497686616" lon="13.59951686036812"><ele>626.0</ele><time>2026-04-04T12:37:23Z</time></trkpt><trkpt lat="46.40362683590072" lon="13.599587404321003"><ele>626.0</ele><time>2026-04-04T12:37:24Z</time></trkpt><trkpt lat="46.403716236815" lon="13.599658205042156"><ele>626.0</ele><time>2026-04-04T12:37:25Z</time></trkpt><trkpt lat="46.40380420712755" lon="13.59973585693114"><ele>627.2</ele><time>2026-04-04T12:37:26Z</time></trkpt><trkpt lat="46.403890887800685" lon="13.599822246059553"><ele>628.4000000000001</ele><time>2026-04-04T12:37:27Z</time></trkpt><trkpt lat="46.403981072475574" lon="13.59990589613998"><ele>629.6</ele><time>2026-04-04T12:37:28Z</time></trkpt><trkpt lat="46.4040679791353" lon="13.60000290779744"><ele>630.8000000000001</ele><time>2026-04-04T12:37:29Z</time></trkpt><trkpt lat="46.404150238381966" lon="13.600107938005767"><ele>632.0</ele><time>2026-04-04T12:37:30Z</time></trkpt><trkpt lat="46.4042078942394" lon="13.60024357638116"><ele>630.8000000000001</ele><time>2026-04-04T12:37:31Z</time></trkpt><trkpt lat="46.40427042539915" lon="13.60037157448465"><ele>629.6</ele><time>2026-04-04T12:37:32Z</time></trkpt><trkpt lat="46.40433168991849" lon="13.600499767223166"><ele>628.4000000000001</ele><time>2026-04-04T12:37:33Z</time></trkpt><trkpt lat="46.4043951949645" lon="13.600632648275585"><ele>627.2</ele><time>2026-04-04T12:37:34Z</time></trkpt><trkpt lat="46.404459228487354" lon="13.60076663498935"><ele>626.0</ele><time>2026-04-04T12:37:35Z</time></trkpt><trkpt lat="46.40452108273772" lon="13.600903430760793"><ele>626.0</ele><time>2026-04-04T12:37:36Z</time></trkpt><trkpt lat="46.40457944985912" lon="13.601044412253797"><ele>626.0</ele><time>2026-04-04T12:37:37Z</time></trkpt><trkpt lat="46.40464678389814" lon="13.601172997815762"><ele>626.0</ele><time>2026-04-04T12:37:38Z</time></trkpt><trkpt lat="46.40469812023012" lon="13.601309301257217"><ele>626.0</ele><time>2026-04-04T12:37:39Z</time></trkpt><trkpt lat="46.40473415421678" lon="13.601453408449187"><ele>626.0</ele><time>2026-04-04T12:37:40Z</time></trkpt><trkpt lat="46.40478510231726" lon="13.601583716009461"><ele>627.75</ele><time>2026-04-04T12:37:41Z</time></trkpt><trkpt lat="46.40483887275586" lon="13.601716337242282"><ele>629.5</ele><time>2026-04-04T12:37:42Z</time></trkpt><trkpt lat="46.40489757828439" lon="13.601852955953598"><ele>631.25</ele><time>2026-04-04T12:37:43Z</time></trkpt><trkpt lat="46.404962550824045" lon="13.601991900899446"><ele>633.0</ele><time>2026-04-04T12:37:44Z</time></trkpt><trkpt lat="46.405037554900915" lon="13.60212524713302"><ele>633.25</ele><time>2026-04-04T12:37:45Z</time></trkpt><trkpt lat="46.40512221684641" lon="13.602246996380597"><ele>633.5</ele><time>2026-04-04T12:37:45.999Z</time></trkpt><trkpt lat="46.40522320172304" lon="13.602332916611662"><ele>633.75</ele><time>2026-04-04T12:37:46.999Z</time></trkpt><trkpt lat="46.40531047079781" lon="13.602431236536074"><ele>634.0</ele><time>2026-04-04T12:37:47.999Z</time></trkpt><trkpt lat="46.405397573891314" lon="13.602518916720882"><ele>634.0</ele><time>2026-04-04T12:37:48.999Z</time></trkpt><trkpt lat="46.40549250545317" lon="13.602589461544929"><ele>634.0</ele><time>2026-04-04T12:37:49.999Z</time></trkpt><trkpt lat="46.40559277455169" lon="13.602655559526278"><ele>634.0</ele><time>2026-04-04T12:37:50.999Z</time></trkpt><trkpt lat="46.40569826318264" lon="13.602723344219148"><ele>634.0</ele><time>2026-04-04T12:37:51.999Z</time></trkpt><trkpt lat="46.40580573630314" lon="13.602792619431968"><ele>636.75</ele><time>2026-04-04T12:37:52.999Z</time></trkpt><trkpt lat="46.405915727389555" lon="13.602860721241104"><ele>639.5</ele><time>2026-04-04T12:37:53.999Z</time></trkpt><trkpt lat="46.4060225503166" lon="13.60292920394338"><ele>642.25</ele><time>2026-04-04T12:37:54.999Z</time></trkpt><trkpt lat="46.40612394511055" lon="13.603003490188028"><ele>645.0</ele><time>2026-04-04T12:37:55.999Z</time></trkpt><trkpt lat="46.40621859087866" lon="13.60308495036875"><ele>645.0</ele><time>2026-04-04T12:37:56.999Z</time></trkpt><trkpt lat="46.406306386488296" lon="13.603175349348906"><ele>645.0</ele><time>2026-04-04T12:37:57.999Z</time></trkpt><trkpt lat="46.40639521822766" lon="13.60326939422694"><ele>645.0</ele><time>2026-04-04T12:37:58.999Z</time></trkpt><trkpt lat="46.40648319394985" lon="13.603372490060211"><ele>645.0</ele><time>2026-04-04T12:37:59.999Z</time></trkpt><trkpt lat="46.40657517188769" lon="13.603460109073406"><ele>645.0</ele><time>2026-04-04T12:38:00.999Z</time></trkpt><trkpt lat="46.40667468072923" lon="13.603518369590988"><ele>646.2</ele><time>2026-04-04T12:38:01.999Z</time></trkpt><trkpt lat="46.406766460535344" lon="13.60356809158291"><ele>647.4</ele><time>2026-04-04T12:38:02.999Z</time></trkpt><trkpt lat="46.40687656388115" lon="13.603579733170651"><ele>648.5999999999999</ele><time>2026-04-04T12:38:03.999Z</time></trkpt><trkpt lat="46.40698371536655" lon="13.603556024810874"><ele>649.8</ele><time>2026-04-04T12:38:04.999Z</time></trkpt><trkpt lat="46.407092454856546" lon="13.603523226576748"><ele>651.0</ele><time>2026-04-04T12:38:05.999Z</time></trkpt><trkpt lat="46.40720920758095" lon="13.603496173566114"><ele>652.25</ele><time>2026-04-04T12:38:06.999Z</time></trkpt><trkpt lat="46.4073287055998" lon="13.603488378499856"><ele>653.5</ele><time>2026-04-04T12:38:07.999Z</time></trkpt><trkpt lat="46.4074415124648" lon="13.603500337235928"><ele>654.75</ele><time>2026-04-04T12:38:08.999Z</time></trkpt><trkpt lat="46.40755128776987" lon="13.603541971327582"><ele>656.0</ele><time>2026-04-04T12:38:09.999Z</time></trkpt><trkpt lat="46.40764990437902" lon="13.603602513021176"><ele>655.0</ele><time>2026-04-04T12:38:10.999Z</time></trkpt><trkpt lat="46.407742181467654" lon="13.60366873036858"><ele>654.0</ele><time>2026-04-04T12:38:11.999Z</time></trkpt><trkpt lat="46.40783413500085" lon="13.603744304451235"><ele>653.0</ele><time>2026-04-04T12:38:12.999Z</time></trkpt><trkpt lat="46.40792521157134" lon="13.603824554132233"><ele>652.0</ele><time>2026-04-04T12:38:13.999Z</time></trkpt><trkpt lat="46.40800413364854" lon="13.603916272026009"><ele>651.0</ele><time>2026-04-04T12:38:14.999Z</time></trkpt><trkpt lat="46.4080640080691" lon="13.604015077240767"><ele>653.5999999999999</ele><time>2026-04-04T12:38:15.999Z</time></trkpt><trkpt lat="46.40811814254262" lon="13.604134152183217"><ele>656.2</ele><time>2026-04-04T12:38:16.999Z</time></trkpt><trkpt lat="46.40814196996613" lon="13.604290451793423"><ele>658.8</ele><time>2026-04-04T12:38:17.999Z</time></trkpt><trkpt lat="46.408141470553076" lon="13.604446654626049"><ele>661.4000000000001</ele><time>2026-04-04T12:38:18.999Z</time></trkpt><trkpt lat="46.4081455263392" lon="13.604616934712935"><ele>664.0</ele><time>2026-04-04T12:38:19.999Z</time></trkpt><trkpt lat="46.40817107874323" lon="13.60479358559093"><ele>664.6</ele><time>2026-04-04T12:38:20.999Z</time></trkpt><trkpt lat="46.40816306190627" lon="13.604981677991658"><ele>665.2</ele><time>2026-04-04T12:38:21.999Z</time></trkpt><trkpt lat="46.40815688509176" lon="13.605166709090796"><ele>665.8000000000001</ele><time>2026-04-04T12:38:22.999Z</time></trkpt><trkpt lat="46.40815181994525" lon="13.605313498035075"><ele>666.4000000000001</ele><time>2026-04-04T12:38:23.999Z</time></trkpt><trkpt lat="46.40814563056938" lon="13.605442718750501"><ele>667.0</ele><time>2026-04-04T12:38:24.999Z</time></trkpt><trkpt lat="46.40822055602757" lon="13.605545965304534"><ele>667.0</ele><time>2026-04-04T12:38:25.999Z</time></trkpt><trkpt lat="46.40830282043625" lon="13.605633802732894"><ele>667.0</ele><time>2026-04-04T12:38:26.999Z</time></trkpt><trkpt lat="46.408414566619584" lon="13.60569127654239"><ele>667.0</ele><time>2026-04-04T12:38:27.999Z</time></trkpt><trkpt lat="46.40853598010487" lon="13.605743671961372"><ele>667.0</ele><time>2026-04-04T12:38:28.999Z</time></trkpt><trkpt lat="46.40866477541935" lon="13.605810372315547"><ele>667.0</ele><time>2026-04-04T12:38:29.999Z</time></trkpt><trkpt lat="46.40880222882991" lon="13.60587118167683"><ele>667.0</ele><time>2026-04-04T12:38:30.999Z</time></trkpt><trkpt lat="46.40894614251869" lon="13.605942330443229"><ele>667.0</ele><time>2026-04-04T12:38:31.999Z</time></trkpt><trkpt lat="46.409094419032066" lon="13.606024107964199"><ele>670.0</ele><time>2026-04-04T12:38:32.999Z</time></trkpt><trkpt lat="46.40924898093389" lon="13.606098838106218"><ele>673.0</ele><time>2026-04-04T12:38:33.999Z</time></trkpt><trkpt lat="46.40939675547937" lon="13.606178246250293"><ele>676.0</ele><time>2026-04-04T12:38:35Z</time></trkpt><trkpt lat="46.40953422214021" lon="13.606251849340685"><ele>683.75</ele><time>2026-04-04T12:38:36Z</time></trkpt><trkpt lat="46.40965957925408" lon="13.606303323434885"><ele>691.5</ele><time>2026-04-04T12:38:37Z</time></trkpt><trkpt lat="46.40978123488078" lon="13.606326368993773"><ele>699.25</ele><time>2026-04-04T12:38:38Z</time></trkpt><trkpt lat="46.40988978843736" lon="13.606374154233427"><ele>707.0</ele><time>2026-04-04T12:38:39Z</time></trkpt><trkpt lat="46.40998006803075" lon="13.60648965425326"><ele>707.0</ele><time>2026-04-04T12:38:40Z</time></trkpt><trkpt lat="46.410031419269814" lon="13.606671271153559"><ele>707.0</ele><time>2026-04-04T12:38:41Z</time></trkpt><trkpt lat="46.41011953940768" lon="13.606833113728312"><ele>707.0</ele><time>2026-04-04T12:38:42Z</time></trkpt><trkpt lat="46.41018253690697" lon="13.607027588419495"><ele>707.0</ele><time>2026-04-04T12:38:43Z</time></trkpt><trkpt lat="46.4102573369711" lon="13.607221859205477"><ele>702.3333333333333</ele><time>2026-04-04T12:38:44Z</time></trkpt><trkpt lat="46.41033023173369" lon="13.607437828049461"><ele>697.6666666666666</ele><time>2026-04-04T12:38:45Z</time></trkpt><trkpt lat="46.41040732188569" lon="13.607661785384924"><ele>693.0</ele><time>2026-04-04T12:38:46Z</time></trkpt><trkpt lat="46.41048585174052" lon="13.60788943417564"><ele>696.6666666666666</ele><time>2026-04-04T12:38:47Z</time></trkpt><trkpt lat="46.41056326291882" lon="13.608120472525588"><ele>700.3333333333333</ele><time>2026-04-04T12:38:48Z</time></trkpt><trkpt lat="46.41063266868914" lon="13.608354643409616"><ele>704.0</ele><time>2026-04-04T12:38:49Z</time></trkpt><trkpt lat="46.41068339722207" lon="13.608579556990675"><ele>702.0</ele><time>2026-04-04T12:38:50Z</time></trkpt><trkpt lat="46.41072887433217" lon="13.60880786678029"><ele>700.0</ele><time>2026-04-04T12:38:51Z</time></trkpt><trkpt lat="46.41078716731091" lon="13.609036903158898"><ele>698.0</ele><time>2026-04-04T12:38:52Z</time></trkpt><trkpt lat="46.41088810522488" lon="13.609238296089492"><ele>698.0</ele><time>2026-04-04T12:38:53Z</time></trkpt><trkpt lat="46.410957240364624" lon="13.609466113455618"><ele>698.0</ele><time>2026-04-04T12:38:54Z</time></trkpt><trkpt lat="46.41102081409094" lon="13.609689113871683"><ele>698.0</ele><time>2026-04-04T12:38:55Z</time></trkpt><trkpt lat="46.411078550849844" lon="13.609910053742027"><ele>695.0</ele><time>2026-04-04T12:38:56Z</time></trkpt><trkpt lat="46.411168150185055" lon="13.610106900230056"><ele>692.0</ele><time>2026-04-04T12:38:57Z</time></trkpt><trkpt lat="46.41128079764346" lon="13.610289758667117"><ele>689.0</ele><time>2026-04-04T12:38:58Z</time></trkpt><trkpt lat="46.41138681381097" lon="13.610486217593282"><ele>689.0</ele><time>2026-04-04T12:38:59Z</time></trkpt><trkpt lat="46.411488627600185" lon="13.610688798973635"><ele>689.0</ele><time>2026-04-04T12:39:00Z</time></trkpt><trkpt lat="46.41158770149374" lon="13.610907397189514"><ele>689.0</ele><time>2026-04-04T12:39:01Z</time></trkpt><trkpt lat="46.411706810091054" lon="13.61111347180933"><ele>689.0</ele><time>2026-04-04T12:39:02Z</time></trkpt><trkpt lat="46.41178263003399" lon="13.611362491719934"><ele>689.0</ele><time>2026-04-04T12:39:03Z</time></trkpt><trkpt lat="46.411856850983064" lon="13.611605351844505"><ele>689.0</ele><time>2026-04-04T12:39:04Z</time></trkpt><trkpt lat="46.411930684929274" lon="13.611845299567733"><ele>695.3333333333333</ele><time>2026-04-04T12:39:05Z</time></trkpt><trkpt lat="46.412000941099045" lon="13.612080535008385"><ele>701.6666666666666</ele><time>2026-04-04T12:39:06Z</time></trkpt><trkpt lat="46.4120545785054" lon="13.612317826904771"><ele>708.0</ele><time>2026-04-04T12:39:07Z</time></trkpt><trkpt lat="46.412106689891594" lon="13.612564465585288"><ele>708.0</ele><time>2026-04-04T12:39:08Z</time></trkpt><trkpt lat="46.41217389256382" lon="13.612808090805078"><ele>708.0</ele><time>2026-04-04T12:39:09Z</time></trkpt><trkpt lat="46.412242794454414" lon="13.613052052438666"><ele>708.0</ele><time>2026-04-04T12:39:10Z</time></trkpt><trkpt lat="46.41230252911794" lon="13.613307138547576"><ele>717.0</ele><time>2026-04-04T12:39:11Z</time></trkpt><trkpt lat="46.41236359691023" lon="13.613571922315046"><ele>726.0</ele><time>2026-04-04T12:39:12Z</time></trkpt><trkpt lat="46.41241762048468" lon="13.61385307269388"><ele>735.0</ele><time>2026-04-04T12:39:13Z</time></trkpt><trkpt lat="46.412490398593356" lon="13.614124463312308"><ele>735.0</ele><time>2026-04-04T12:39:14Z</time></trkpt><trkpt lat="46.412563138185845" lon="13.614394448496467"><ele>735.0</ele><time>2026-04-04T12:39:15Z</time></trkpt><trkpt lat="46.41263798982332" lon="13.614668894544742"><ele>735.0</ele><time>2026-04-04T12:39:16Z</time></trkpt><trkpt lat="46.4127171964291" lon="13.614950251268965"><ele>734.0</ele><time>2026-04-04T12:39:17Z</time></trkpt><trkpt lat="46.41280109483734" lon="13.615234912770253"><ele>733.0</ele><time>2026-04-04T12:39:18Z</time></trkpt><trkpt lat="46.41288431831724" lon="13.615513523626106"><ele>732.0</ele><time>2026-04-04T12:39:19Z</time></trkpt><trkpt lat="46.41296743839418" lon="13.615787116024402"><ele>747.0</ele><time>2026-04-04T12:39:20Z</time></trkpt><trkpt lat="46.413045386675776" lon="13.616050352144228"><ele>762.0</ele><time>2026-04-04T12:39:21Z</time></trkpt><trkpt lat="46.41311874251411" lon="13.616312299893526"><ele>777.0</ele><time>2026-04-04T12:39:22Z</time></trkpt><trkpt lat="46.41319739347624" lon="13.616568739943043"><ele>773.0</ele><time>2026-04-04T12:39:23Z</time></trkpt><trkpt lat="46.41325259777693" lon="13.616834615901606"><ele>769.0</ele><time>2026-04-04T12:39:24Z</time></trkpt><trkpt lat="46.413290529356175" lon="13.617111376808543"><ele>765.0</ele><time>2026-04-04T12:39:25Z</time></trkpt><trkpt lat="46.41334709295387" lon="13.617383439976741"><ele>765.0</ele><time>2026-04-04T12:39:26Z</time></trkpt><trkpt lat="46.41337452486258" lon="13.61766004867412"><ele>765.0</ele><time>2026-04-04T12:39:27Z</time></trkpt><trkpt lat="46.413418020644905" lon="13.61792522293822"><ele>765.0</ele><time>2026-04-04T12:39:28Z</time></trkpt><trkpt lat="46.41346674634669" lon="13.618185581430048"><ele>763.0</ele><time>2026-04-04T12:39:29Z</time></trkpt><trkpt lat="46.41352703524331" lon="13.618433436737568"><ele>761.0</ele><time>2026-04-04T12:39:30Z</time></trkpt><trkpt lat="46.413597960297494" lon="13.618676032539442"><ele>759.0</ele><time>2026-04-04T12:39:31Z</time></trkpt><trkpt lat="46.4136925406592" lon="13.618916667774577"><ele>754.6666666666666</ele><time>2026-04-04T12:39:32Z</time></trkpt><trkpt lat="46.41380520005591" lon="13.619143447956354"><ele>750.3333333333333</ele><time>2026-04-04T12:39:33Z</time></trkpt><trkpt lat="46.41392595669053" lon="13.6193635678034"><ele>746.0</ele><time>2026-04-04T12:39:34Z</time></trkpt><trkpt lat="46.41405731907603" lon="13.619572198665974"><ele>759.6666666666666</ele><time>2026-04-04T12:39:35Z</time></trkpt><trkpt lat="46.414177490334154" lon="13.619797780262395"><ele>773.3333333333333</ele><time>2026-04-04T12:39:36Z</time></trkpt><trkpt lat="46.4143116990703" lon="13.620009152595044"><ele>787.0</ele><time>2026-04-04T12:39:37Z</time></trkpt><trkpt lat="46.4144518549121" lon="13.620213950234978"><ele>779.6666666666666</ele><time>2026-04-04T12:39:38Z</time></trkpt><trkpt lat="46.414582146298166" lon="13.620427430631041"><ele>772.3333333333333</ele><time>2026-04-04T12:39:39Z</time></trkpt><trkpt lat="46.41472277832591" lon="13.620625617561004"><ele>765.0</ele><time>2026-04-04T12:39:40Z</time></trkpt><trkpt lat="46.414861439720056" lon="13.620827354160824"><ele>775.6666666666667</ele><time>2026-04-04T12:39:41Z</time></trkpt><trkpt lat="46.414997066467535" lon="13.621035337859524"><ele>786.3333333333334</ele><time>2026-04-04T12:39:42Z</time></trkpt><trkpt lat="46.41513796330272" lon="13.621236077506538"><ele>797.0</ele><time>2026-04-04T12:39:43Z</time></trkpt><trkpt lat="46.415271585218356" lon="13.621446476279296"><ele>797.0</ele><time>2026-04-04T12:39:44Z</time></trkpt><trkpt lat="46.415416021636005" lon="13.621616742550684"><ele>797.0</ele><time>2026-04-04T12:39:45Z</time></trkpt><trkpt lat="46.41554780955119" lon="13.621777124051766"><ele>797.0</ele><time>2026-04-04T12:39:46Z</time></trkpt><trkpt lat="46.41562340386662" lon="13.621970400031579"><ele>802.0</ele><time>2026-04-04T12:39:47Z</time></trkpt><trkpt lat="46.41570633294881" lon="13.622136549184976"><ele>807.0</ele><time>2026-04-04T12:39:48Z</time></trkpt><trkpt lat="46.41577842362535" lon="13.622305059984091"><ele>812.0</ele><time>2026-04-04T12:39:49Z</time></trkpt><trkpt lat="46.41587489290589" lon="13.622442500761142"><ele>817.0</ele><time>2026-04-04T12:39:50Z</time></trkpt><trkpt lat="46.416004607792786" lon="13.622532077791151"><ele>817.0</ele><time>2026-04-04T12:39:50.999Z</time></trkpt><trkpt lat="46.416142934487" lon="13.622587024360396"><ele>817.0</ele><time>2026-04-04T12:39:51.999Z</time></trkpt><trkpt lat="46.416259016381126" lon="13.62268580991637"><ele>817.0</ele><time>2026-04-04T12:39:52.999Z</time></trkpt><trkpt lat="46.41633241251146" lon="13.622860154924508"><ele>817.0</ele><time>2026-04-04T12:39:53.999Z</time></trkpt><trkpt lat="46.41641056797676" lon="13.623045187453775"><ele>821.0</ele><time>2026-04-04T12:39:54.999Z</time></trkpt><trkpt lat="46.416487556914646" lon="13.623247942959003"><ele>825.0</ele><time>2026-04-04T12:39:55.999Z</time></trkpt><trkpt lat="46.41656080830733" lon="13.623461586796155"><ele>829.0</ele><time>2026-04-04T12:39:56.999Z</time></trkpt><trkpt lat="46.4166240622358" lon="13.623666901939355"><ele>829.0</ele><time>2026-04-04T12:39:57.999Z</time></trkpt><trkpt lat="46.416658226081466" lon="13.623886693072745"><ele>829.0</ele><time>2026-04-04T12:39:58.999Z</time></trkpt><trkpt lat="46.41672724208768" lon="13.624100871981192"><ele>829.0</ele><time>2026-04-04T12:39:59.999Z</time></trkpt><trkpt lat="46.416809965428065" lon="13.624300000405057"><ele>829.0</ele><time>2026-04-04T12:40:00.999Z</time></trkpt><trkpt lat="46.416898376537276" lon="13.62446263185122"><ele>829.0</ele><time>2026-04-04T12:40:01.999Z</time></trkpt><trkpt lat="46.41696228679027" lon="13.624622415871675"><ele>829.0</ele><time>2026-04-04T12:40:02.999Z</time></trkpt><trkpt lat="46.417050910858485" lon="13.624746078282508"><ele>829.0</ele><time>2026-04-04T12:40:03.999Z</time></trkpt><trkpt lat="46.41717092747212" lon="13.624818859956871"><ele>831.25</ele><time>2026-04-04T12:40:04.999Z</time></trkpt><trkpt lat="46.41731123200153" lon="13.624840860392185"><ele>833.5</ele><time>2026-04-04T12:40:05.999Z</time></trkpt><trkpt lat="46.41745887825617" lon="13.624823028180213"><ele>835.75</ele><time>2026-04-04T12:40:06.999Z</time></trkpt><trkpt lat="46.41759154071485" lon="13.624780340217526"><ele>838.0</ele><time>2026-04-04T12:40:07.999Z</time></trkpt><trkpt lat="46.41768682732508" lon="13.624707057440785"><ele>838.0</ele><time>2026-04-04T12:40:08.999Z</time></trkpt><trkpt lat="46.41775128476683" lon="13.624604719797082"><ele>838.0</ele><time>2026-04-04T12:40:09.999Z</time></trkpt><trkpt lat="46.41777671346154" lon="13.624479362044541"><ele>838.0</ele><time>2026-04-04T12:40:10.999Z</time></trkpt><trkpt lat="46.4177512312735" lon="13.624349739940957"><ele>838.0</ele><time>2026-04-04T12:40:11.999Z</time></trkpt><trkpt lat="46.417697782092105" lon="13.624237656177268"><ele>838.0</ele><time>2026-04-04T12:40:12.999Z</time></trkpt><trkpt lat="46.417601203104994" lon="13.624179608371955"><ele>844.25</ele><time>2026-04-04T12:40:13.999Z</time></trkpt><trkpt lat="46.417487837694736" lon="13.624198250882399"><ele>850.5</ele><time>2026-04-04T12:40:14.999Z</time></trkpt><trkpt lat="46.41741958934928" lon="13.624349451513513"><ele>856.75</ele><time>2026-04-04T12:40:15.999Z</time></trkpt><trkpt lat="46.41735216746649" lon="13.624424195950326"><ele>863.0</ele><time>2026-04-04T12:40:16.999Z</time></trkpt><trkpt lat="46.41722290554976" lon="13.624448373671742"><ele>863.0</ele><time>2026-04-04T12:40:18.999Z</time></trkpt><trkpt lat="46.41717255017181" lon="13.624337506462718"><ele>863.0</ele><time>2026-04-04T12:40:19.999Z</time></trkpt><trkpt lat="46.41717292236397" lon="13.624185114266488"><ele>863.0</ele><time>2026-04-04T12:40:20.999Z</time></trkpt><trkpt lat="46.41721032136917" lon="13.624024218103981"><ele>863.0</ele><time>2026-04-04T12:40:21.999Z</time></trkpt><trkpt lat="46.41724933138323" lon="13.623840443386364"><ele>863.0</ele><time>2026-04-04T12:40:22.999Z</time></trkpt><trkpt lat="46.41725928616467" lon="13.623637763379865"><ele>870.0</ele><time>2026-04-04T12:40:23.999Z</time></trkpt><trkpt lat="46.417220169612776" lon="13.62343322748156"><ele>877.0</ele><time>2026-04-04T12:40:24.999Z</time></trkpt><trkpt lat="46.41713734274962" lon="13.623218813663723"><ele>884.0</ele><time>2026-04-04T12:40:25.999Z</time></trkpt><trkpt lat="46.41706835369172" lon="13.622989217765864"><ele>875.0</ele><time>2026-04-04T12:40:26.999Z</time></trkpt><trkpt lat="46.41703035473828" lon="13.622738520604564"><ele>866.0</ele><time>2026-04-04T12:40:27.999Z</time></trkpt><trkpt lat="46.41697533825814" lon="13.622486621057321"><ele>857.0</ele><time>2026-04-04T12:40:28.999Z</time></trkpt><trkpt lat="46.41689024257292" lon="13.622242119753594"><ele>857.0</ele><time>2026-04-04T12:40:29.999Z</time></trkpt><trkpt lat="46.41684004089336" lon="13.621983714747687"><ele>857.0</ele><time>2026-04-04T12:40:30.999Z</time></trkpt><trkpt lat="46.416799092857" lon="13.621721293776437"><ele>857.0</ele><time>2026-04-04T12:40:31.999Z</time></trkpt><trkpt lat="46.416766182179266" lon="13.621455891077202"><ele>863.0</ele><time>2026-04-04T12:40:32.999Z</time></trkpt><trkpt lat="46.416697786859345" lon="13.62120507962394"><ele>869.0</ele><time>2026-04-04T12:40:33.999Z</time></trkpt><trkpt lat="46.416637385335534" lon="13.6209710237757"><ele>875.0</ele><time>2026-04-04T12:40:34.999Z</time></trkpt><trkpt lat="46.41657242586828" lon="13.620759086049112"><ele>880.25</ele><time>2026-04-04T12:40:35.999Z</time></trkpt><trkpt lat="46.41650778437543" lon="13.620562367865409"><ele>885.5</ele><time>2026-04-04T12:40:36.999Z</time></trkpt><trkpt lat="46.41645089929384" lon="13.620377710945014"><ele>890.75</ele><time>2026-04-04T12:40:37.999Z</time></trkpt><trkpt lat="46.41641790025196" lon="13.620201776411584"><ele>896.0</ele><time>2026-04-04T12:40:38.999Z</time></trkpt><trkpt lat="46.41640607725209" lon="13.620016567449277"><ele>894.25</ele><time>2026-04-04T12:40:39.999Z</time></trkpt><trkpt lat="46.41637490019701" lon="13.619829081980697"><ele>892.5</ele><time>2026-04-04T12:40:41Z</time></trkpt><trkpt lat="46.416348455502806" lon="13.619646507197357"><ele>890.75</ele><time>2026-04-04T12:40:42Z</time></trkpt><trkpt lat="46.41630984953767" lon="13.61946150535024"><ele>889.0</ele><time>2026-04-04T12:40:43Z</time></trkpt><trkpt lat="46.416244340035085" lon="13.619282018460337"><ele>889.0</ele><time>2026-04-04T12:40:44Z</time></trkpt><trkpt lat="46.41613748365554" lon="13.619149121036571"><ele>889.0</ele><time>2026-04-04T12:40:45Z</time></trkpt><trkpt lat="46.4160376016202" lon="13.619027361518874"><ele>889.0</ele><time>2026-04-04T12:40:46Z</time></trkpt><trkpt lat="46.41592953844511" lon="13.618931217906427"><ele>889.0</ele><time>2026-04-04T12:40:47Z</time></trkpt><trkpt lat="46.4158321470016" lon="13.61885982260058"><ele>889.0</ele><time>2026-04-04T12:40:48Z</time></trkpt><trkpt lat="46.41578229241801" lon="13.618754210762948"><ele>889.0000000000001</ele><time>2026-04-04T12:40:49Z</time></trkpt><trkpt lat="46.4157173112664" lon="13.618650884572439"><ele>889.0000000000001</ele><time>2026-04-04T12:40:50Z</time></trkpt><trkpt lat="46.41568758718732" lon="13.61850699521577"><ele>889.0</ele><time>2026-04-04T12:40:51Z</time></trkpt><trkpt lat="46.415679243315395" lon="13.618340849019651"><ele>889.0</ele><time>2026-04-04T12:40:52Z</time></trkpt><trkpt lat="46.41566501186105" lon="13.618165260927716"><ele>893.25</ele><time>2026-04-04T12:40:53Z</time></trkpt><trkpt lat="46.41564402993069" lon="13.61798117203283"><ele>897.5</ele><time>2026-04-04T12:40:54Z</time></trkpt><trkpt lat="46.415625197459335" lon="13.61778574576739"><ele>901.75</ele><time>2026-04-04T12:40:55Z</time></trkpt><trkpt lat="46.41560163896439" lon="13.617577289467443"><ele>906.0</ele><time>2026-04-04T12:40:56Z</time></trkpt><trkpt lat="46.41556316438064" lon="13.617352618789718"><ele>905.6666666666667</ele><time>2026-04-04T12:40:57Z</time></trkpt><trkpt lat="46.41552589746822" lon="13.617108044451719"><ele>905.3333333333334</ele><time>2026-04-04T12:40:58Z</time></trkpt><trkpt lat="46.41546616044234" lon="13.616855132972928"><ele>905.0</ele><time>2026-04-04T12:40:59Z</time></trkpt><trkpt lat="46.41540062451453" lon="13.616596417133225"><ele>905.0</ele><time>2026-04-04T12:41:00Z</time></trkpt><trkpt lat="46.41533221753432" lon="13.616331037404157"><ele>905.0</ele><time>2026-04-04T12:41:01Z</time></trkpt><trkpt lat="46.41524519979699" lon="13.616070173177215"><ele>905.0</ele><time>2026-04-04T12:41:02Z</time></trkpt><trkpt lat="46.415176083878464" lon="13.6158091191533"><ele>909.75</ele><time>2026-04-04T12:41:03Z</time></trkpt><trkpt lat="46.41511810950804" lon="13.6155806930816"><ele>914.5</ele><time>2026-04-04T12:41:04Z</time></trkpt><trkpt lat="46.41506876861313" lon="13.615380638885508"><ele>919.25</ele><time>2026-04-04T12:41:05Z</time></trkpt><trkpt lat="46.41503019326432" lon="13.615206138653834"><ele>924.0</ele><time>2026-04-04T12:41:06Z</time></trkpt><trkpt lat="46.41501370330214" lon="13.615026194601045"><ele>924.5</ele><time>2026-04-04T12:41:07Z</time></trkpt><trkpt lat="46.41502168757941" lon="13.61483510727574"><ele>925.0</ele><time>2026-04-04T12:41:08Z</time></trkpt><trkpt lat="46.415063820446825" lon="13.614652405527956"><ele>925.5</ele><time>2026-04-04T12:41:09Z</time></trkpt><trkpt lat="46.41514175695626" lon="13.614497819526889"><ele>926.0</ele><time>2026-04-04T12:41:10Z</time></trkpt><trkpt lat="46.4152468136871" lon="13.61437041061449"><ele>924.0</ele><time>2026-04-04T12:41:11Z</time></trkpt><trkpt lat="46.41534753972505" lon="13.614232604232468"><ele>922.0</ele><time>2026-04-04T12:41:12Z</time></trkpt><trkpt lat="46.415417902222515" lon="13.614034718630226"><ele>920.0</ele><time>2026-04-04T12:41:13Z</time></trkpt><trkpt lat="46.41547918229451" lon="13.61381629234591"><ele>931.3333333333334</ele><time>2026-04-04T12:41:14Z</time></trkpt><trkpt lat="46.41554238156469" lon="13.613595592764796"><ele>942.6666666666667</ele><time>2026-04-04T12:41:15Z</time></trkpt><trkpt lat="46.415602467930455" lon="13.61336988709041"><ele>954.0</ele><time>2026-04-04T12:41:16Z</time></trkpt><trkpt lat="46.41566641902901" lon="13.613147353566776"><ele>954.0</ele><time>2026-04-04T12:41:17Z</time></trkpt><trkpt lat="46.415717222793866" lon="13.612929322643666"><ele>954.0</ele><time>2026-04-04T12:41:18Z</time></trkpt><trkpt lat="46.41575670435451" lon="13.612741155170452"><ele>954.0</ele><time>2026-04-04T12:41:19Z</time></trkpt><trkpt lat="46.415791438852885" lon="13.612574261435485"><ele>954.0</ele><time>2026-04-04T12:41:20Z</time></trkpt><trkpt lat="46.41584583665257" lon="13.612437445214772"><ele>953.1666666666666</ele><time>2026-04-04T12:41:21Z</time></trkpt><trkpt lat="46.415889009188824" lon="13.612306014059223"><ele>952.3333333333333</ele><time>2026-04-04T12:41:22Z</time></trkpt><trkpt lat="46.41593878599671" lon="13.61219789413682"><ele>951.5</ele><time>2026-04-04T12:41:23Z</time></trkpt><trkpt lat="46.415976882158816" lon="13.61210338123618"><ele>950.6666666666666</ele><time>2026-04-04T12:41:24Z</time></trkpt><trkpt lat="46.41602230138937" lon="13.612017747176074"><ele>949.8333333333333</ele><time>2026-04-04T12:41:25Z</time></trkpt><trkpt lat="46.41606499084144" lon="13.611917014559802"><ele>949.0</ele><time>2026-04-04T12:41:26Z</time></trkpt><trkpt lat="46.41606814029286" lon="13.611777912401926"><ele>949.0</ele><time>2026-04-04T12:41:27Z</time></trkpt><trkpt lat="46.41600414321339" lon="13.611653134576555"><ele>949.0</ele><time>2026-04-04T12:41:28Z</time></trkpt><trkpt lat="46.41592148889833" lon="13.611556653960895"><ele>949.0</ele><time>2026-04-04T12:41:29Z</time></trkpt><trkpt lat="46.415816949062936" lon="13.611470657277913"><ele>949.0</ele><time>2026-04-04T12:41:30Z</time></trkpt><trkpt lat="46.41571726782197" lon="13.61137611042506"><ele>949.0</ele><time>2026-04-04T12:41:31Z</time></trkpt><trkpt lat="46.415634564772226" lon="13.611294405427437"><ele>949.0000000000001</ele><time>2026-04-04T12:41:32Z</time></trkpt><trkpt lat="46.41557546009901" lon="13.611215626538817"><ele>949.0000000000001</ele><time>2026-04-04T12:41:33Z</time></trkpt><trkpt lat="46.41554054072438" lon="13.611102759530597"><ele>949.0</ele><time>2026-04-04T12:41:34Z</time></trkpt><trkpt lat="46.41556035937047" lon="13.610960000177391"><ele>949.0</ele><time>2026-04-04T12:41:35Z</time></trkpt><trkpt lat="46.41557044976909" lon="13.610795367679309"><ele>952.5</ele><time>2026-04-04T12:41:36Z</time></trkpt><trkpt lat="46.41558272421309" lon="13.610619236423496"><ele>956.0</ele><time>2026-04-04T12:41:37Z</time></trkpt><trkpt lat="46.41559635776191" lon="13.61043120561289"><ele>959.5</ele><time>2026-04-04T12:41:38Z</time></trkpt><trkpt lat="46.415608832242796" lon="13.610259160179753"><ele>963.0</ele><time>2026-04-04T12:41:39Z</time></trkpt><trkpt lat="46.41562047871396" lon="13.610104136739006"><ele>964.8333333333334</ele><time>2026-04-04T12:41:40Z</time></trkpt><trkpt lat="46.41563502039462" lon="13.609973435977132"><ele>966.6666666666667</ele><time>2026-04-04T12:41:41Z</time></trkpt><trkpt lat="46.415655959092994" lon="13.609852641911779"><ele>968.5</ele><time>2026-04-04T12:41:42Z</time></trkpt><trkpt lat="46.415687786652974" lon="13.609748320030205"><ele>970.3333333333334</ele><time>2026-04-04T12:41:43Z</time></trkpt><trkpt lat="46.41572427135211" lon="13.609650383510363"><ele>972.1666666666667</ele><time>2026-04-04T12:41:44Z</time></trkpt><trkpt lat="46.41576223989122" lon="13.609562414271387"><ele>974.0</ele><time>2026-04-04T12:41:45Z</time></trkpt><trkpt lat="46.415837049419025" lon="13.609529623567513"><ele>974.0</ele><time>2026-04-04T12:41:46Z</time></trkpt><trkpt lat="46.41592069792419" lon="13.60953720618346"><ele>974.0000000000001</ele><time>2026-04-04T12:41:47Z</time></trkpt><trkpt lat="46.41600539440444" lon="13.609571136439822"><ele>974.0000000000001</ele><time>2026-04-04T12:41:48Z</time></trkpt><trkpt lat="46.41609547963683" lon="13.609630493662058"><ele>974.0</ele><time>2026-04-04T12:41:49Z</time></trkpt><trkpt lat="46.41618111521807" lon="13.609729150371821"><ele>974.0</ele><time>2026-04-04T12:41:50Z</time></trkpt><trkpt lat="46.41626317463313" lon="13.609807417925627"><ele>974.0</ele><time>2026-04-04T12:41:51Z</time></trkpt><trkpt lat="46.416351181578825" lon="13.609828185824687"><ele>974.0000000000001</ele><time>2026-04-04T12:41:52Z</time></trkpt><trkpt lat="46.41645071997271" lon="13.609785970130947"><ele>974.0000000000001</ele><time>2026-04-04T12:41:53Z</time></trkpt><trkpt lat="46.41654924985197" lon="13.609699023446376"><ele>974.0</ele><time>2026-04-04T12:41:54Z</time></trkpt><trkpt lat="46.416649884626445" lon="13.609583633056603"><ele>974.0</ele><time>2026-04-04T12:41:54.999Z</time></trkpt><trkpt lat="46.4167574332085" lon="13.609458996125936"><ele>974.0</ele><time>2026-04-04T12:41:55.999Z</time></trkpt><trkpt lat="46.4168719278044" lon="13.609334865073693"><ele>974.0</ele><time>2026-04-04T12:41:56.999Z</time></trkpt><trkpt lat="46.41697693936576" lon="13.609201744142654"><ele>974.0</ele><time>2026-04-04T12:41:57.999Z</time></trkpt><trkpt lat="46.417073165915404" lon="13.609071618261053"><ele>974.0</ele><time>2026-04-04T12:41:58.999Z</time></trkpt><trkpt lat="46.41715801561957" lon="13.608952794094776"><ele>979.4000000000001</ele><time>2026-04-04T12:41:59.999Z</time></trkpt><trkpt lat="46.41723294717118" lon="13.60886043528479"><ele>984.8000000000001</ele><time>2026-04-04T12:42:00.999Z</time></trkpt><trkpt lat="46.417310294322945" lon="13.608793338611083"><ele>990.1999999999999</ele><time>2026-04-04T12:42:01.999Z</time></trkpt><trkpt lat="46.417402183147274" lon="13.608759163690534"><ele>995.5999999999999</ele><time>2026-04-04T12:42:02.999Z</time></trkpt><trkpt lat="46.41750914810122" lon="13.608754881255113"><ele>1001.0</ele><time>2026-04-04T12:42:03.999Z</time></trkpt><trkpt lat="46.417611181050255" lon="13.60873181770757"><ele>1001.0</ele><time>2026-04-04T12:42:04.999Z</time></trkpt><trkpt lat="46.41770378465763" lon="13.608682575232923"><ele>1000.9999999999999</ele><time>2026-04-04T12:42:05.999Z</time></trkpt><trkpt lat="46.41778079251354" lon="13.608597572339463"><ele>1000.9999999999999</ele><time>2026-04-04T12:42:06.999Z</time></trkpt><trkpt lat="46.41782481872721" lon="13.608467377804303"><ele>1001.0</ele><time>2026-04-04T12:42:07.999Z</time></trkpt><trkpt lat="46.41782746792299" lon="13.608299702212005"><ele>1001.0</ele><time>2026-04-04T12:42:08.999Z</time></trkpt><trkpt lat="46.41784516033458" lon="13.6081514811429"><ele>1002.8</ele><time>2026-04-04T12:42:09.999Z</time></trkpt><trkpt lat="46.41789191594691" lon="13.608030667638241"><ele>1004.5999999999999</ele><time>2026-04-04T12:42:10.999Z</time></trkpt><trkpt lat="46.417951688474844" lon="13.60790596589803"><ele>1006.4</ele><time>2026-04-04T12:42:11.999Z</time></trkpt><trkpt lat="46.418023128472676" lon="13.607777661670985"><ele>1008.2</ele><time>2026-04-04T12:42:12.999Z</time></trkpt><trkpt lat="46.418099650300036" lon="13.607664912070916"><ele>1010.0</ele><time>2026-04-04T12:42:13.999Z</time></trkpt><trkpt lat="46.41817448028206" lon="13.607576425873042"><ele>1010.0</ele><time>2026-04-04T12:42:14.999Z</time></trkpt><trkpt lat="46.4182498387011" lon="13.607484741982892"><ele>1010.0</ele><time>2026-04-04T12:42:15.999Z</time></trkpt><trkpt lat="46.41833221710122" lon="13.60739509537435"><ele>1010.0</ele><time>2026-04-04T12:42:16.999Z</time></trkpt><trkpt lat="46.41841922344411" lon="13.607296031243102"><ele>1010.0</ele><time>2026-04-04T12:42:17.999Z</time></trkpt><trkpt lat="46.41850158659954" lon="13.607177375713492"><ele>1010.0</ele><time>2026-04-04T12:42:18.999Z</time></trkpt><trkpt lat="46.418567140176684" lon="13.607016562233966"><ele>1004.0</ele><time>2026-04-04T12:42:19.999Z</time></trkpt><trkpt lat="46.41864741933494" lon="13.606843261119458"><ele>998.0</ele><time>2026-04-04T12:42:20.999Z</time></trkpt><trkpt lat="46.418723692883624" lon="13.606654652192267"><ele>992.0</ele><time>2026-04-04T12:42:21.999Z</time></trkpt><trkpt lat="46.418803166655735" lon="13.60644097751912"><ele>1001.6666666666667</ele><time>2026-04-04T12:42:22.999Z</time></trkpt><trkpt lat="46.41889334841301" lon="13.606228142660001"><ele>1011.3333333333333</ele><time>2026-04-04T12:42:23.999Z</time></trkpt><trkpt lat="46.41897879442789" lon="13.606000118514508"><ele>1021.0</ele><time>2026-04-04T12:42:24.999Z</time></trkpt><trkpt lat="46.41907025459448" lon="13.605764862788064"><ele>1021.0</ele><time>2026-04-04T12:42:25.999Z</time></trkpt><trkpt lat="46.419174605209896" lon="13.605532283597105"><ele>1021.0</ele><time>2026-04-04T12:42:26.999Z</time></trkpt><trkpt lat="46.419289249347344" lon="13.605305860049809"><ele>1021.0</ele><time>2026-04-04T12:42:27.999Z</time></trkpt><trkpt lat="46.41939386134472" lon="13.605064609037322"><ele>1016.0</ele><time>2026-04-04T12:42:28.999Z</time></trkpt><trkpt lat="46.419483444833574" lon="13.60480885060399"><ele>1011.0</ele><time>2026-04-04T12:42:29.999Z</time></trkpt><trkpt lat="46.419571440100036" lon="13.604563688461461"><ele>1006.0</ele><time>2026-04-04T12:42:30.999Z</time></trkpt><trkpt lat="46.41965436938109" lon="13.604328530086885"><ele>1017.0</ele><time>2026-04-04T12:42:31.999Z</time></trkpt><trkpt lat="46.41973397427413" lon="13.604081843222357"><ele>1028.0</ele><time>2026-04-04T12:42:32.999Z</time></trkpt><trkpt lat="46.4198201401391" lon="13.603835027344605"><ele>1039.0</ele><time>2026-04-04T12:42:33.999Z</time></trkpt><trkpt lat="46.419912406270264" lon="13.603579412233394"><ele>1039.0</ele><time>2026-04-04T12:42:34.999Z</time></trkpt><trkpt lat="46.42000481733616" lon="13.603316796527285"><ele>1039.0</ele><time>2026-04-04T12:42:35.999Z</time></trkpt><trkpt lat="46.420086900671144" lon="13.603056384122207"><ele>1039.0</ele><time>2026-04-04T12:42:36.999Z</time></trkpt><trkpt lat="46.42014813804093" lon="13.602789639355375"><ele>1035.0</ele><time>2026-04-04T12:42:37.999Z</time></trkpt><trkpt lat="46.42023156970456" lon="13.602538350660774"><ele>1031.0</ele><time>2026-04-04T12:42:38.999Z</time></trkpt><trkpt lat="46.42029767777868" lon="13.602287718475964"><ele>1027.0</ele><time>2026-04-04T12:42:39.999Z</time></trkpt><trkpt lat="46.42039387689088" lon="13.602061248374964"><ele>1039.0</ele><time>2026-04-04T12:42:40.999Z</time></trkpt><trkpt lat="46.420486310386" lon="13.601825422407545"><ele>1051.0</ele><time>2026-04-04T12:42:41.999Z</time></trkpt><trkpt lat="46.420557152091135" lon="13.601599737938347"><ele>1063.0</ele><time>2026-04-04T12:42:42.999Z</time></trkpt><trkpt lat="46.420599055201265" lon="13.60137729877073"><ele>1063.25</ele><time>2026-04-04T12:42:43.999Z</time></trkpt><trkpt lat="46.420631165019756" lon="13.601155196332376"><ele>1063.5</ele><time>2026-04-04T12:42:44.999Z</time></trkpt><trkpt lat="46.420682537795564" lon="13.600948914310841"><ele>1063.75</ele><time>2026-04-04T12:42:45.999Z</time></trkpt><trkpt lat="46.42072374481159" lon="13.600757357481305"><ele>1064.0</ele><time>2026-04-04T12:42:47Z</time></trkpt><trkpt lat="46.42073608682851" lon="13.600547452547932"><ele>1064.0</ele><time>2026-04-04T12:42:48Z</time></trkpt><trkpt lat="46.420711245597936" lon="13.600334129581242"><ele>1064.0</ele><time>2026-04-04T12:42:49Z</time></trkpt><trkpt lat="46.42065127754816" lon="13.60012772934451"><ele>1064.0</ele><time>2026-04-04T12:42:50Z</time></trkpt><trkpt lat="46.420574793429175" lon="13.599961347247776"><ele>1064.0</ele><time>2026-04-04T12:42:51Z</time></trkpt><trkpt lat="46.420495620040505" lon="13.599825787547662"><ele>1066.4</ele><time>2026-04-04T12:42:52Z</time></trkpt><trkpt lat="46.4204727903038" lon="13.599695459273885"><ele>1068.8000000000002</ele><time>2026-04-04T12:42:53Z</time></trkpt><trkpt lat="46.42046593196394" lon="13.599592976563397"><ele>1071.1999999999998</ele><time>2026-04-04T12:42:54Z</time></trkpt><trkpt lat="46.42048359327" lon="13.59944265466185"><ele>1073.6</ele><time>2026-04-04T12:42:55Z</time></trkpt><trkpt lat="46.42055161926324" lon="13.59926375257215"><ele>1076.0</ele><time>2026-04-04T12:42:56Z</time></trkpt><trkpt lat="46.42062628937299" lon="13.599055446547885"><ele>1076.0</ele><time>2026-04-04T12:42:57Z</time></trkpt><trkpt lat="46.42070000121183" lon="13.598830672829251"><ele>1076.0</ele><time>2026-04-04T12:42:58Z</time></trkpt><trkpt lat="46.420790322767836" lon="13.598607869422244"><ele>1076.0</ele><time>2026-04-04T12:42:59Z</time></trkpt><trkpt lat="46.42087951564197" lon="13.598378114015434"><ele>1072.0</ele><time>2026-04-04T12:43:00Z</time></trkpt><trkpt lat="46.42097211487353" lon="13.598142885117165"><ele>1068.0</ele><time>2026-04-04T12:43:01Z</time></trkpt><trkpt lat="46.42107124028741" lon="13.597893416266253"><ele>1064.0</ele><time>2026-04-04T12:43:02Z</time></trkpt><trkpt lat="46.42116851626519" lon="13.597635351807074"><ele>1059.3333333333335</ele><time>2026-04-04T12:43:03Z</time></trkpt><trkpt lat="46.42127929678148" lon="13.59738961871821"><ele>1054.6666666666667</ele><time>2026-04-04T12:43:04Z</time></trkpt><trkpt lat="46.42138525965423" lon="13.597143696374278"><ele>1050.0</ele><time>2026-04-04T12:43:05Z</time></trkpt><trkpt lat="46.42147745175389" lon="13.596905029976877"><ele>1062.6666666666667</ele><time>2026-04-04T12:43:06Z</time></trkpt><trkpt lat="46.421572060094704" lon="13.596681093862092"><ele>1075.3333333333335</ele><time>2026-04-04T12:43:07Z</time></trkpt><trkpt lat="46.42166674671175" lon="13.596463784643786"><ele>1088.0</ele><time>2026-04-04T12:43:08Z</time></trkpt><trkpt lat="46.421764422730654" lon="13.596249000008633"><ele>1083.0</ele><time>2026-04-04T12:43:09Z</time></trkpt><trkpt lat="46.42187001625491" lon="13.596029238804253"><ele>1078.0</ele><time>2026-04-04T12:43:10Z</time></trkpt><trkpt lat="46.422002704475894" lon="13.59583462515533"><ele>1073.0</ele><time>2026-04-04T12:43:11Z</time></trkpt><trkpt lat="46.42213592848531" lon="13.595620807549935"><ele>1073.3333333333335</ele><time>2026-04-04T12:43:12Z</time></trkpt><trkpt lat="46.42227510432138" lon="13.595403861890366"><ele>1073.6666666666667</ele><time>2026-04-04T12:43:13Z</time></trkpt><trkpt lat="46.4224111264412" lon="13.59518182895287"><ele>1074.0</ele><time>2026-04-04T12:43:14Z</time></trkpt><trkpt lat="46.42254183816887" lon="13.594970181318008"><ele>1074.0</ele><time>2026-04-04T12:43:15Z</time></trkpt><trkpt lat="46.42266796224883" lon="13.594769338465456"><ele>1074.0</ele><time>2026-04-04T12:43:16Z</time></trkpt><trkpt lat="46.422780787065705" lon="13.594591839935706"><ele>1074.0</ele><time>2026-04-04T12:43:17Z</time></trkpt><trkpt lat="46.42288082208885" lon="13.5944384547764"><ele>1074.4</ele><time>2026-04-04T12:43:18Z</time></trkpt><trkpt lat="46.42297005729063" lon="13.594309190117384"><ele>1074.8000000000002</ele><time>2026-04-04T12:43:19Z</time></trkpt><trkpt lat="46.423048048662615" lon="13.594192913850572"><ele>1075.1999999999998</ele><time>2026-04-04T12:43:20Z</time></trkpt><trkpt lat="46.423126374270396" lon="13.594110116452589"><ele>1075.6</ele><time>2026-04-04T12:43:21Z</time></trkpt><trkpt lat="46.42317105781663" lon="13.594007657541324"><ele>1076.0</ele><time>2026-04-04T12:43:22Z</time></trkpt><trkpt lat="46.423170245266526" lon="13.593894078927395"><ele>1076.0</ele><time>2026-04-04T12:43:23Z</time></trkpt><trkpt lat="46.42306919633213" lon="13.593783906387817"><ele>1076.0</ele><time>2026-04-04T12:43:25Z</time></trkpt><trkpt lat="46.422999067138264" lon="13.593749227990351"><ele>1076.0</ele><time>2026-04-04T12:43:26Z</time></trkpt><trkpt lat="46.42293614305342" lon="13.593674572672992"><ele>1076.0</ele><time>2026-04-04T12:43:27Z</time></trkpt><trkpt lat="46.422893165430565" lon="13.593534184240916"><ele>1076.0</ele><time>2026-04-04T12:43:28Z</time></trkpt><trkpt lat="46.422858288482644" lon="13.593374894122631"><ele>1076.5</ele><time>2026-04-04T12:43:29Z</time></trkpt><trkpt lat="46.42283071512084" lon="13.593198617597873"><ele>1077.0</ele><time>2026-04-04T12:43:30Z</time></trkpt><trkpt lat="46.422816240792834" lon="13.593012205975683"><ele>1077.5</ele><time>2026-04-04T12:43:31Z</time></trkpt><trkpt lat="46.42279967047759" lon="13.592837147918505"><ele>1078.0</ele><time>2026-04-04T12:43:32Z</time></trkpt><trkpt lat="46.42275781575977" lon="13.59268782165282"><ele>1085.25</ele><time>2026-04-04T12:43:33Z</time></trkpt><trkpt lat="46.4226680976538" lon="13.59257205327318"><ele>1092.5</ele><time>2026-04-04T12:43:34Z</time></trkpt><trkpt lat="46.4225488042047" lon="13.592489180848851"><ele>1099.75</ele><time>2026-04-04T12:43:35Z</time></trkpt><trkpt lat="46.422424486228465" lon="13.5924112021453"><ele>1107.0</ele><time>2026-04-04T12:43:36Z</time></trkpt><trkpt lat="46.42231570557782" lon="13.592298273427165"><ele>1107.0</ele><time>2026-04-04T12:43:37Z</time></trkpt><trkpt lat="46.422205257651285" lon="13.592148354808081"><ele>1107.0</ele><time>2026-04-04T12:43:38Z</time></trkpt><trkpt lat="46.42209595567144" lon="13.591969448875988"><ele>1107.0</ele><time>2026-04-04T12:43:39Z</time></trkpt><trkpt lat="46.42197753812136" lon="13.591768912030954"><ele>1106.3333333333333</ele><time>2026-04-04T12:43:40Z</time></trkpt><trkpt lat="46.421841220540124" lon="13.591572895819318"><ele>1105.6666666666665</ele><time>2026-04-04T12:43:41Z</time></trkpt><trkpt lat="46.421709531935385" lon="13.591382472400928"><ele>1105.0</ele><time>2026-04-04T12:43:42Z</time></trkpt><trkpt lat="46.421624414582816" lon="13.591160862100185"><ele>1113.6666666666665</ele><time>2026-04-04T12:43:43Z</time></trkpt><trkpt lat="46.421551457692175" lon="13.590935481022957"><ele>1122.3333333333333</ele><time>2026-04-04T12:43:44Z</time></trkpt><trkpt lat="46.42148055197939" lon="13.590697031868746"><ele>1131.0</ele><time>2026-04-04T12:43:45Z</time></trkpt><trkpt lat="46.42141627383477" lon="13.590440981899887"><ele>1135.3333333333333</ele><time>2026-04-04T12:43:46Z</time></trkpt><trkpt lat="46.42134107451238" lon="13.590166982328746"><ele>1139.6666666666665</ele><time>2026-04-04T12:43:47Z</time></trkpt><trkpt lat="46.42128246415141" lon="13.589869024436364"><ele>1144.0</ele><time>2026-04-04T12:43:48Z</time></trkpt><trkpt lat="46.421214468723306" lon="13.589562836427271"><ele>1132.6666666666665</ele><time>2026-04-04T12:43:49Z</time></trkpt><trkpt lat="46.421148005119534" lon="13.589295188346487"><ele>1121.3333333333333</ele><time>2026-04-04T12:43:50Z</time></trkpt><trkpt lat="46.42108953946506" lon="13.589066094682245"><ele>1110.0</ele><time>2026-04-04T12:43:51Z</time></trkpt><trkpt lat="46.421040099621926" lon="13.588862138211436"><ele>1110.0</ele><time>2026-04-04T12:43:52Z</time></trkpt><trkpt lat="46.420987485539754" lon="13.588692281957773"><ele>1110.0</ele><time>2026-04-04T12:43:53Z</time></trkpt><trkpt lat="46.420921472155" lon="13.588528031814834"><ele>1110.0</ele><time>2026-04-04T12:43:54Z</time></trkpt><trkpt lat="46.42080346085923" lon="13.588447227590418"><ele>1110.0</ele><time>2026-04-04T12:43:54.999Z</time></trkpt><trkpt lat="46.420731360558605" lon="13.588351486059917"><ele>1115.25</ele><time>2026-04-04T12:43:55.999Z</time></trkpt><trkpt lat="46.42067624457173" lon="13.588267374694588"><ele>1120.5</ele><time>2026-04-04T12:43:56.999Z</time></trkpt><trkpt lat="46.420630279351464" lon="13.588127595775651"><ele>1125.75</ele><time>2026-04-04T12:43:57.999Z</time></trkpt><trkpt lat="46.420623896387454" lon="13.58793393664096"><ele>1131.0</ele><time>2026-04-04T12:43:58.999Z</time></trkpt><trkpt lat="46.42062428249366" lon="13.587731434837075"><ele>1130.25</ele><time>2026-04-04T12:43:59.999Z</time></trkpt><trkpt lat="46.4206497214578" lon="13.587546285251694"><ele>1129.5</ele><time>2026-04-04T12:44:00.999Z</time></trkpt><trkpt lat="46.42070327391159" lon="13.58737313671637"><ele>1128.75</ele><time>2026-04-04T12:44:01.999Z</time></trkpt><trkpt lat="46.42077163851915" lon="13.587198651766187"><ele>1128.0</ele><time>2026-04-04T12:44:02.999Z</time></trkpt><trkpt lat="46.42082792546447" lon="13.587008549125702"><ele>1128.0</ele><time>2026-04-04T12:44:03.999Z</time></trkpt><trkpt lat="46.420847197704276" lon="13.586794108266446"><ele>1128.0</ele><time>2026-04-04T12:44:04.999Z</time></trkpt><trkpt lat="46.4208588781028" lon="13.5866119903617"><ele>1128.0</ele><time>2026-04-04T12:44:05.999Z</time></trkpt><trkpt lat="46.42092645800634" lon="13.586471807679768"><ele>1128.0</ele><time>2026-04-04T12:44:06.999Z</time></trkpt><trkpt lat="46.42097624708887" lon="13.586318602954611"><ele>1128.0</ele><time>2026-04-04T12:44:07.999Z</time></trkpt><trkpt lat="46.42100532726463" lon="13.586183447451132"><ele>1128.0</ele><time>2026-04-04T12:44:08.999Z</time></trkpt><trkpt lat="46.42100262289397" lon="13.586045833187704"><ele>1128.0</ele><time>2026-04-04T12:44:09.999Z</time></trkpt><trkpt lat="46.420915355851214" lon="13.585903248852194"><ele>1128.0</ele><time>2026-04-04T12:44:10.999Z</time></trkpt><trkpt lat="46.42080541528283" lon="13.585792794084053"><ele>1131.0</ele><time>2026-04-04T12:44:11.999Z</time></trkpt><trkpt lat="46.42069525816562" lon="13.585677325512034"><ele>1134.0</ele><time>2026-04-04T12:44:12.999Z</time></trkpt><trkpt lat="46.42062068066067" lon="13.585520853204637"><ele>1137.0</ele><time>2026-04-04T12:44:13.999Z</time></trkpt><trkpt lat="46.420572629661585" lon="13.585323127741129"><ele>1140.0</ele><time>2026-04-04T12:44:14.999Z</time></trkpt><trkpt lat="46.420518220305446" lon="13.585128150211993"><ele>1135.75</ele><time>2026-04-04T12:44:15.999Z</time></trkpt><trkpt lat="46.42042335298179" lon="13.584969420491737"><ele>1131.5</ele><time>2026-04-04T12:44:16.999Z</time></trkpt><trkpt lat="46.42030179944485" lon="13.584894861969884"><ele>1127.25</ele><time>2026-04-04T12:44:17.999Z</time></trkpt><trkpt lat="46.42020871053339" lon="13.58479724215376"><ele>1123.0</ele><time>2026-04-04T12:44:18.999Z</time></trkpt><trkpt lat="46.42013807467815" lon="13.584678195773865"><ele>1123.0</ele><time>2026-04-04T12:44:19.999Z</time></trkpt><trkpt lat="46.42011908864885" lon="13.58451371185732"><ele>1123.0</ele><time>2026-04-04T12:44:20.999Z</time></trkpt><trkpt lat="46.42015299945191" lon="13.584341351846021"><ele>1123.0</ele><time>2026-04-04T12:44:21.999Z</time></trkpt><trkpt lat="46.42023407190642" lon="13.584191366196968"><ele>1123.0</ele><time>2026-04-04T12:44:22.999Z</time></trkpt><trkpt lat="46.42033878883128" lon="13.584061891277727"><ele>1126.0</ele><time>2026-04-04T12:44:23.999Z</time></trkpt><trkpt lat="46.42040840934509" lon="13.583931317685423"><ele>1129.0</ele><time>2026-04-04T12:44:24.999Z</time></trkpt><trkpt lat="46.42043390066367" lon="13.583782785006058"><ele>1132.0</ele><time>2026-04-04T12:44:25.999Z</time></trkpt><trkpt lat="46.42041882142405" lon="13.583625421210545"><ele>1135.0</ele><time>2026-04-04T12:44:26.999Z</time></trkpt><trkpt lat="46.420347440643035" lon="13.583474804826185"><ele>1138.25</ele><time>2026-04-04T12:44:27.999Z</time></trkpt><trkpt lat="46.42024490525056" lon="13.583350255503833"><ele>1141.5</ele><time>2026-04-04T12:44:28.999Z</time></trkpt><trkpt lat="46.42012072494416" lon="13.583242719724904"><ele>1144.75</ele><time>2026-04-04T12:44:29.999Z</time></trkpt><trkpt lat="46.420011539467055" lon="13.58315180552856"><ele>1148.0</ele><time>2026-04-04T12:44:30.999Z</time></trkpt><trkpt lat="46.41992143593921" lon="13.583065634731318"><ele>1148.0</ele><time>2026-04-04T12:44:31.999Z</time></trkpt><trkpt lat="46.41983419253686" lon="13.582988111697707"><ele>1148.0</ele><time>2026-04-04T12:44:32.999Z</time></trkpt><trkpt lat="46.419750053972294" lon="13.582912667337899"><ele>1148.0</ele><time>2026-04-04T12:44:33.999Z</time></trkpt><trkpt lat="46.41967996611137" lon="13.582812619217018"><ele>1148.0</ele><time>2026-04-04T12:44:34.999Z</time></trkpt><trkpt lat="46.41962866096548" lon="13.582682747212196"><ele>1148.0</ele><time>2026-04-04T12:44:35.999Z</time></trkpt><trkpt lat="46.41961747191531" lon="13.582520888867005"><ele>1148.0</ele><time>2026-04-04T12:44:36.999Z</time></trkpt><trkpt lat="46.41962338611567" lon="13.582335470105132"><ele>1148.0</ele><time>2026-04-04T12:44:37.999Z</time></trkpt><trkpt lat="46.41961182904138" lon="13.582160617455232"><ele>1148.0</ele><time>2026-04-04T12:44:38.999Z</time></trkpt><trkpt lat="46.41955290396472" lon="13.5820003756331"><ele>1148.0</ele><time>2026-04-04T12:44:39.999Z</time></trkpt><trkpt lat="46.41944913081314" lon="13.581857617362369"><ele>1148.0</ele><time>2026-04-04T12:44:40.999Z</time></trkpt><trkpt lat="46.419357297113" lon="13.581727607141381"><ele>1148.0</ele><time>2026-04-04T12:44:41.999Z</time></trkpt><trkpt lat="46.41928428178301" lon="13.581587547072651"><ele>1148.0</ele><time>2026-04-04T12:44:42.999Z</time></trkpt><trkpt lat="46.4192201853372" lon="13.581442585063904"><ele>1148.0</ele><time>2026-04-04T12:44:43.999Z</time></trkpt><trkpt lat="46.419165270957116" lon="13.581291638332075"><ele>1149.75</ele><time>2026-04-04T12:44:44.999Z</time></trkpt><trkpt lat="46.41911349904263" lon="13.581131275029593"><ele>1151.5</ele><time>2026-04-04T12:44:45.999Z</time></trkpt><trkpt lat="46.41908287861512" lon="13.58096473783771"><ele>1153.25</ele><time>2026-04-04T12:44:46.999Z</time></trkpt><trkpt lat="46.41908104987908" lon="13.580793069738789"><ele>1155.0</ele><time>2026-04-04T12:44:47.999Z</time></trkpt><trkpt lat="46.41909300939137" lon="13.58063788253028"><ele>1155.0</ele><time>2026-04-04T12:44:48.999Z</time></trkpt><trkpt lat="46.41911199037863" lon="13.580504638348646"><ele>1155.0</ele><time>2026-04-04T12:44:49.999Z</time></trkpt><trkpt lat="46.41912311327798" lon="13.580362654057849"><ele>1155.0</ele><time>2026-04-04T12:44:50.999Z</time></trkpt><trkpt lat="46.419097365040585" lon="13.580224099682248"><ele>1155.0</ele><time>2026-04-04T12:44:51.999Z</time></trkpt><trkpt lat="46.419041032105646" lon="13.580109858465546"><ele>1155.0</ele><time>2026-04-04T12:44:53Z</time></trkpt><trkpt lat="46.41898673205395" lon="13.580003918019196"><ele>1156.3333333333333</ele><time>2026-04-04T12:44:54Z</time></trkpt><trkpt lat="46.41894406905119" lon="13.579898968568836"><ele>1157.6666666666667</ele><time>2026-04-04T12:44:55Z</time></trkpt><trkpt lat="46.41891287287018" lon="13.579780952715032"><ele>1159.0</ele><time>2026-04-04T12:44:56Z</time></trkpt><trkpt lat="46.41891331300051" lon="13.579649460957915"><ele>1160.3333333333335</ele><time>2026-04-04T12:44:57Z</time></trkpt><trkpt lat="46.41890280237747" lon="13.579523618349288"><ele>1161.6666666666667</ele><time>2026-04-04T12:44:58Z</time></trkpt><trkpt lat="46.41888203329452" lon="13.579399664969873"><ele>1163.0</ele><time>2026-04-04T12:44:59Z</time></trkpt><trkpt lat="46.41889035755398" lon="13.579272737930275"><ele>1163.8333333333335</ele><time>2026-04-04T12:45:00Z</time></trkpt><trkpt lat="46.41888220381951" lon="13.579149667306288"><ele>1164.6666666666667</ele><time>2026-04-04T12:45:01Z</time></trkpt><trkpt lat="46.418849227309266" lon="13.579033059893906"><ele>1165.5</ele><time>2026-04-04T12:45:02Z</time></trkpt><trkpt lat="46.41882895317888" lon="13.578915789265029"><ele>1166.3333333333333</ele><time>2026-04-04T12:45:03Z</time></trkpt><trkpt lat="46.418799848174196" lon="13.57879990922023"><ele>1167.1666666666665</ele><time>2026-04-04T12:45:04Z</time></trkpt><trkpt lat="46.41876088960787" lon="13.578687015537477"><ele>1168.0</ele><time>2026-04-04T12:45:05Z</time></trkpt><trkpt lat="46.41872069868328" lon="13.578572587293474"><ele>1166.0</ele><time>2026-04-04T12:45:06Z</time></trkpt><trkpt lat="46.418679230008856" lon="13.578464836156442"><ele>1164.0</ele><time>2026-04-04T12:45:07Z</time></trkpt><trkpt lat="46.41865340004464" lon="13.57836339256155"><ele>1162.0</ele><time>2026-04-04T12:45:08Z</time></trkpt><trkpt lat="46.4186031805558" lon="13.57828608044032"><ele>1160.0</ele><time>2026-04-04T12:45:09Z</time></trkpt><trkpt lat="46.41857434565661" lon="13.578187140431817"><ele>1158.0</ele><time>2026-04-04T12:45:10Z</time></trkpt><trkpt lat="46.41855752065495" lon="13.578074380021853"><ele>1156.0</ele><time>2026-04-04T12:45:11Z</time></trkpt><trkpt lat="46.41855803709085" lon="13.57795377858535"><ele>1156.3999999999999</ele><time>2026-04-04T12:45:12Z</time></trkpt><trkpt lat="46.4185558024331" lon="13.57783152611603"><ele>1156.8</ele><time>2026-04-04T12:45:13Z</time></trkpt><trkpt lat="46.41854599468698" lon="13.57770958595289"><ele>1157.1999999999998</ele><time>2026-04-04T12:45:14Z</time></trkpt><trkpt lat="46.41854242667071" lon="13.577581462745158"><ele>1157.6</ele><time>2026-04-04T12:45:15Z</time></trkpt><trkpt lat="46.41856430944351" lon="13.577448852374962"><ele>1158.0</ele><time>2026-04-04T12:45:16Z</time></trkpt><trkpt lat="46.418604260203274" lon="13.577302811030368"><ele>1158.0</ele><time>2026-04-04T12:45:17Z</time></trkpt><trkpt lat="46.418650937660075" lon="13.577141108895805"><ele>1158.0</ele><time>2026-04-04T12:45:18Z</time></trkpt><trkpt lat="46.41870254093702" lon="13.576962066536261"><ele>1158.0</ele><time>2026-04-04T12:45:19Z</time></trkpt><trkpt lat="46.41875984864404" lon="13.576769174182553"><ele>1158.0</ele><time>2026-04-04T12:45:20Z</time></trkpt><trkpt lat="46.418819264304275" lon="13.576565154834867"><ele>1157.3333333333333</ele><time>2026-04-04T12:45:21Z</time></trkpt><trkpt lat="46.41887773492858" lon="13.576356956720364"><ele>1156.6666666666665</ele><time>2026-04-04T12:45:22Z</time></trkpt><trkpt lat="46.41893981990935" lon="13.576128929574482"><ele>1156.0</ele><time>2026-04-04T12:45:23Z</time></trkpt><trkpt lat="46.41902299434192" lon="13.575871941162914"><ele>1156.0</ele><time>2026-04-04T12:45:24Z</time></trkpt><trkpt lat="46.4191090489867" lon="13.575582097984736"><ele>1156.0</ele><time>2026-04-04T12:45:25Z</time></trkpt><trkpt lat="46.419189789546905" lon="13.575263850433949"><ele>1153.6666666666665</ele><time>2026-04-04T12:45:26Z</time></trkpt><trkpt lat="46.41928328934886" lon="13.574959822638672"><ele>1151.3333333333333</ele><time>2026-04-04T12:45:27Z</time></trkpt><trkpt lat="46.41936917064772" lon="13.574688276252163"><ele>1149.0</ele><time>2026-04-04T12:45:28Z</time></trkpt><trkpt lat="46.4194494787171" lon="13.574454672648908"><ele>1146.6666666666667</ele><time>2026-04-04T12:45:29Z</time></trkpt><trkpt lat="46.41952675494008" lon="13.574233197849265"><ele>1144.3333333333335</ele><time>2026-04-04T12:45:30Z</time></trkpt><trkpt lat="46.41958678196679" lon="13.574002741339912"><ele>1142.0</ele><time>2026-04-04T12:45:31Z</time></trkpt><trkpt lat="46.419633204614115" lon="13.57375989614165"><ele>1144.0</ele><time>2026-04-04T12:45:32Z</time></trkpt><trkpt lat="46.41968029742792" lon="13.573527263275832"><ele>1146.0</ele><time>2026-04-04T12:45:33Z</time></trkpt><trkpt lat="46.41974511890645" lon="13.57331524927934"><ele>1148.0</ele><time>2026-04-04T12:45:34Z</time></trkpt><trkpt lat="46.419823533120585" lon="13.573126965326416"><ele>1148.0</ele><time>2026-04-04T12:45:35Z</time></trkpt><trkpt lat="46.4199157058907" lon="13.57296321172326"><ele>1148.0</ele><time>2026-04-04T12:45:36Z</time></trkpt><trkpt lat="46.42001754248803" lon="13.572821630884194"><ele>1148.0</ele><time>2026-04-04T12:45:37Z</time></trkpt><trkpt lat="46.420126140513744" lon="13.572706288063678"><ele>1148.0</ele><time>2026-04-04T12:45:38Z</time></trkpt><trkpt lat="46.42022981083216" lon="13.572620959201855"><ele>1143.2</ele><time>2026-04-04T12:45:39Z</time></trkpt><trkpt lat="46.420308472608134" lon="13.572560845196573"><ele>1138.4</ele><time>2026-04-04T12:45:40Z</time></trkpt><trkpt lat="46.420365866562385" lon="13.572486986696237"><ele>1133.6000000000001</ele><time>2026-04-04T12:45:41Z</time></trkpt><trkpt lat="46.42034742531952" lon="13.572314989463493"><ele>1128.8</ele><time>2026-04-04T12:45:43Z</time></trkpt><trkpt lat="46.42028149526029" lon="13.572267898495367"><ele>1124.0</ele><time>2026-04-04T12:45:44Z</time></trkpt><trkpt lat="46.420184136818094" lon="13.572260534502306"><ele>1124.0</ele><time>2026-04-04T12:45:45Z</time></trkpt><trkpt lat="46.42006341729984" lon="13.57225429084732"><ele>1124.0</ele><time>2026-04-04T12:45:46Z</time></trkpt><trkpt lat="46.41992000333244" lon="13.57222199371098"><ele>1124.0</ele><time>2026-04-04T12:45:47Z</time></trkpt><trkpt lat="46.419771908971114" lon="13.572210738248044"><ele>1124.0</ele><time>2026-04-04T12:45:48Z</time></trkpt><trkpt lat="46.41963851077526" lon="13.572220286171639"><ele>1121.6000000000001</ele><time>2026-04-04T12:45:49Z</time></trkpt><trkpt lat="46.419521923230896" lon="13.572259795144372"><ele>1119.2</ele><time>2026-04-04T12:45:50Z</time></trkpt><trkpt lat="46.419427497859424" lon="13.57233934302034"><ele>1116.8000000000002</ele><time>2026-04-04T12:45:51Z</time></trkpt><trkpt lat="46.41935253517158" lon="13.572456231890781"><ele>1114.4</ele><time>2026-04-04T12:45:52Z</time></trkpt><trkpt lat="46.41929958890619" lon="13.572586475377273"><ele>1112.0</ele><time>2026-04-04T12:45:53Z</time></trkpt><trkpt lat="46.41924930336223" lon="13.572683451874678"><ele>1112.0</ele><time>2026-04-04T12:45:54Z</time></trkpt><trkpt lat="46.419182501839785" lon="13.572727544588856"><ele>1112.0</ele><time>2026-04-04T12:45:55Z</time></trkpt><trkpt lat="46.41911871011041" lon="13.572703816904548"><ele>1112.0</ele><time>2026-04-04T12:45:56Z</time></trkpt><trkpt lat="46.41908081640046" lon="13.572621636572139"><ele>1112.0</ele><time>2026-04-04T12:45:57Z</time></trkpt><trkpt lat="46.41908476267117" lon="13.572496244993442"><ele>1112.0</ele><time>2026-04-04T12:45:58Z</time></trkpt><trkpt lat="46.41913403122225" lon="13.572358084018731"><ele>1112.0</ele><time>2026-04-04T12:45:59Z</time></trkpt><trkpt lat="46.41920890864392" lon="13.572206599875884"><ele>1112.0</ele><time>2026-04-04T12:46:00Z</time></trkpt><trkpt lat="46.419287664914194" lon="13.572061548610534"><ele>1112.0</ele><time>2026-04-04T12:46:00.999Z</time></trkpt><trkpt lat="46.41936946909426" lon="13.571951109126532"><ele>1112.0</ele><time>2026-04-04T12:46:01.999Z</time></trkpt><trkpt lat="46.41947956882595" lon="13.571858868565434"><ele>1112.0</ele><time>2026-04-04T12:46:02.999Z</time></trkpt><trkpt lat="46.41961486215835" lon="13.571802682267998"><ele>1109.5</ele><time>2026-04-04T12:46:03.999Z</time></trkpt><trkpt lat="46.419763495150484" lon="13.571769822176403"><ele>1107.0</ele><time>2026-04-04T12:46:04.999Z</time></trkpt><trkpt lat="46.41990478700347" lon="13.571713862953386"><ele>1104.5</ele><time>2026-04-04T12:46:05.999Z</time></trkpt><trkpt lat="46.42003886796416" lon="13.571627619565298"><ele>1102.0</ele><time>2026-04-04T12:46:06.999Z</time></trkpt><trkpt lat="46.42017280504711" lon="13.571564505916543"><ele>1102.0</ele><time>2026-04-04T12:46:07.999Z</time></trkpt><trkpt lat="46.420308928682104" lon="13.571540253385841"><ele>1102.0</ele><time>2026-04-04T12:46:08.999Z</time></trkpt><trkpt lat="46.42043912085732" lon="13.571566541762474"><ele>1102.0</ele><time>2026-04-04T12:46:09.999Z</time></trkpt><trkpt lat="46.42055977556368" lon="13.571639111577698"><ele>1102.0</ele><time>2026-04-04T12:46:10.999Z</time></trkpt><trkpt lat="46.420661723606514" lon="13.571752621057858"><ele>1098.75</ele><time>2026-04-04T12:46:11.999Z</time></trkpt><trkpt lat="46.42076634240836" lon="13.571868978604954"><ele>1095.5</ele><time>2026-04-04T12:46:12.999Z</time></trkpt><trkpt lat="46.420880593522654" lon="13.571954910451224"><ele>1092.25</ele><time>2026-04-04T12:46:13.999Z</time></trkpt><trkpt lat="46.421006176142185" lon="13.572019998270187"><ele>1089.0</ele><time>2026-04-04T12:46:14.999Z</time></trkpt><trkpt lat="46.421132282601086" lon="13.572063531818147"><ele>1086.6666666666667</ele><time>2026-04-04T12:46:15.999Z</time></trkpt><trkpt lat="46.42128223847557" lon="13.572065499490776"><ele>1084.3333333333335</ele><time>2026-04-04T12:46:16.999Z</time></trkpt><trkpt lat="46.421450124992255" lon="13.572022996177308"><ele>1082.0</ele><time>2026-04-04T12:46:17.999Z</time></trkpt><trkpt lat="46.42159859098609" lon="13.57194626959787"><ele>1082.0</ele><time>2026-04-04T12:46:18.999Z</time></trkpt><trkpt lat="46.42175352222867" lon="13.571882367863907"><ele>1082.0</ele><time>2026-04-04T12:46:19.999Z</time></trkpt><trkpt lat="46.42189513557204" lon="13.571803877093167"><ele>1082.0</ele><time>2026-04-04T12:46:20.999Z</time></trkpt><trkpt lat="46.42200639338843" lon="13.571727035156998"><ele>1082.0</ele><time>2026-04-04T12:46:21.999Z</time></trkpt><trkpt lat="46.42210600031524" lon="13.57164637589036"><ele>1084.25</ele><time>2026-04-04T12:46:22.999Z</time></trkpt><trkpt lat="46.4222102993941" lon="13.571589667537044"><ele>1086.5</ele><time>2026-04-04T12:46:23.999Z</time></trkpt><trkpt lat="46.42234553737213" lon="13.571583784861271"><ele>1088.75</ele><time>2026-04-04T12:46:24.999Z</time></trkpt><trkpt lat="46.422495800258865" lon="13.57160693920537"><ele>1091.0</ele><time>2026-04-04T12:46:25.999Z</time></trkpt><trkpt lat="46.42263932079423" lon="13.571620812261536"><ele>1091.0</ele><time>2026-04-04T12:46:26.999Z</time></trkpt><trkpt lat="46.422781760407275" lon="13.571575023531883"><ele>1091.0</ele><time>2026-04-04T12:46:27.999Z</time></trkpt><trkpt lat="46.422926508022734" lon="13.571517501385422"><ele>1091.0</ele><time>2026-04-04T12:46:28.999Z</time></trkpt><trkpt lat="46.42306826338697" lon="13.571463326959757"><ele>1091.0</ele><time>2026-04-04T12:46:29.999Z</time></trkpt><trkpt lat="46.423191977023244" lon="13.571328962198104"><ele>1092.0</ele><time>2026-04-04T12:46:30.999Z</time></trkpt><trkpt lat="46.42333484750443" lon="13.571293619380617"><ele>1093.0</ele><time>2026-04-04T12:46:31.999Z</time></trkpt><trkpt lat="46.423491570034926" lon="13.571284401362583"><ele>1094.0</ele><time>2026-04-04T12:46:32.999Z</time></trkpt><trkpt lat="46.423654709104824" lon="13.571281130455063"><ele>1094.0</ele><time>2026-04-04T12:46:33.999Z</time></trkpt><trkpt lat="46.423809626862855" lon="13.571285291998663"><ele>1094.0</ele><time>2026-04-04T12:46:34.999Z</time></trkpt><trkpt lat="46.423944569448956" lon="13.571300147526149"><ele>1094.0</ele><time>2026-04-04T12:46:35.999Z</time></trkpt><trkpt lat="46.424063615235276" lon="13.571334828555914"><ele>1094.0</ele><time>2026-04-04T12:46:36.999Z</time></trkpt><trkpt lat="46.424163983360955" lon="13.571393900905294"><ele>1092.3333333333335</ele><time>2026-04-04T12:46:37.999Z</time></trkpt><trkpt lat="46.42424904178804" lon="13.571461633227727"><ele>1090.6666666666667</ele><time>2026-04-04T12:46:38.999Z</time></trkpt><trkpt lat="46.42433050210521" lon="13.571496491936193"><ele>1089.0</ele><time>2026-04-04T12:46:39.999Z</time></trkpt><trkpt lat="46.42439797986785" lon="13.571470016224408"><ele>1087.3333333333333</ele><time>2026-04-04T12:46:40.999Z</time></trkpt><trkpt lat="46.42443803194749" lon="13.571395260331213"><ele>1085.6666666666665</ele><time>2026-04-04T12:46:41.999Z</time></trkpt><trkpt lat="46.42443788195018" lon="13.571290910103027"><ele>1084.0</ele><time>2026-04-04T12:46:42.999Z</time></trkpt><trkpt lat="46.4243944557173" lon="13.57121159517424"><ele>1073.4</ele><time>2026-04-04T12:46:43.999Z</time></trkpt><trkpt lat="46.424321173917136" lon="13.571173718784362"><ele>1062.8000000000002</ele><time>2026-04-04T12:46:44.999Z</time></trkpt><trkpt lat="46.424235775884576" lon="13.571166702286387"><ele>1052.1999999999998</ele><time>2026-04-04T12:46:45.999Z</time></trkpt><trkpt lat="46.42414534505171" lon="13.571154301941526"><ele>1041.6</ele><time>2026-04-04T12:46:46.999Z</time></trkpt><trkpt lat="46.424044353079324" lon="13.571136681134872"><ele>1031.0</ele><time>2026-04-04T12:46:47.999Z</time></trkpt><trkpt lat="46.423934537280275" lon="13.571114683645776"><ele>1031.0</ele><time>2026-04-04T12:46:48.999Z</time></trkpt><trkpt lat="46.42381915093819" lon="13.57109051133793"><ele>1031.0</ele><time>2026-04-04T12:46:49.999Z</time></trkpt><trkpt lat="46.42369821985584" lon="13.571066512267791"><ele>1031.0</ele><time>2026-04-04T12:46:50.999Z</time></trkpt><trkpt lat="46.42357454785377" lon="13.571040426646132"><ele>1031.0</ele><time>2026-04-04T12:46:51.999Z</time></trkpt><trkpt lat="46.4234488434399" lon="13.571012449023234"><ele>1036.0</ele><time>2026-04-04T12:46:52.999Z</time></trkpt><trkpt lat="46.423314290470465" lon="13.57098379708593"><ele>1041.0</ele><time>2026-04-04T12:46:53.999Z</time></trkpt><trkpt lat="46.42317064393441" lon="13.570959707417023"><ele>1046.0</ele><time>2026-04-04T12:46:54.999Z</time></trkpt><trkpt lat="46.42302056035949" lon="13.570941766685875"><ele>1051.0</ele><time>2026-04-04T12:46:55.999Z</time></trkpt><trkpt lat="46.422866639008674" lon="13.570929918950151"><ele>1051.0</ele><time>2026-04-04T12:46:56.999Z</time></trkpt><trkpt lat="46.422717763076676" lon="13.57091921893406"><ele>1051.0</ele><time>2026-04-04T12:46:57.999Z</time></trkpt><trkpt lat="46.42257683933641" lon="13.570910210857582"><ele>1051.0</ele><time>2026-04-04T12:46:59Z</time></trkpt><trkpt lat="46.422448466000446" lon="13.570896677698158"><ele>1051.0</ele><time>2026-04-04T12:47:00Z</time></trkpt><trkpt lat="46.42232343207562" lon="13.570881445959337"><ele>1051.0</ele><time>2026-04-04T12:47:01Z</time></trkpt><trkpt lat="46.42220397866437" lon="13.570871220730444"><ele>1051.0</ele><time>2026-04-04T12:47:02Z</time></trkpt><trkpt lat="46.42209720615084" lon="13.570878166891736"><ele>1051.0</ele><time>2026-04-04T12:47:03Z</time></trkpt><trkpt lat="46.42200114735852" lon="13.570902744096573"><ele>1051.0</ele><time>2026-04-04T12:47:04Z</time></trkpt><trkpt lat="46.42191128477381" lon="13.5709541571487"><ele>1051.0</ele><time>2026-04-04T12:47:05Z</time></trkpt><trkpt lat="46.42181687715738" lon="13.570996281998319"><ele>1048.8</ele><time>2026-04-04T12:47:06Z</time></trkpt><trkpt lat="46.42172683303896" lon="13.571025353041842"><ele>1046.6</ele><time>2026-04-04T12:47:07Z</time></trkpt><trkpt lat="46.42163832253608" lon="13.571031237490567"><ele>1044.4</ele><time>2026-04-04T12:47:08Z</time></trkpt><trkpt lat="46.42154477407852" lon="13.571017518502824"><ele>1042.2</ele><time>2026-04-04T12:47:09Z</time></trkpt><trkpt lat="46.421449463190946" lon="13.571021903874682"><ele>1040.0</ele><time>2026-04-04T12:47:10Z</time></trkpt><trkpt lat="46.4213555056465" lon="13.57103010341243"><ele>1041.8333333333335</ele><time>2026-04-04T12:47:11Z</time></trkpt><trkpt lat="46.421255355554635" lon="13.571055109865707"><ele>1043.6666666666667</ele><time>2026-04-04T12:47:12Z</time></trkpt><trkpt lat="46.42116258034421" lon="13.57105181809054"><ele>1045.5</ele><time>2026-04-04T12:47:13Z</time></trkpt><trkpt lat="46.421077414994535" lon="13.5710044341414"><ele>1047.3333333333333</ele><time>2026-04-04T12:47:14Z</time></trkpt><trkpt lat="46.42100097775217" lon="13.570968387818956"><ele>1049.1666666666665</ele><time>2026-04-04T12:47:15Z</time></trkpt><trkpt lat="46.42093122384458" lon="13.5709248525835"><ele>1051.0</ele><time>2026-04-04T12:47:16Z</time></trkpt><trkpt lat="46.42085471530238" lon="13.570800679871219"><ele>1051.0</ele><time>2026-04-04T12:47:18Z</time></trkpt><trkpt lat="46.42090342939624" lon="13.570653980731592"><ele>1051.0</ele><time>2026-04-04T12:47:20Z</time></trkpt><trkpt lat="46.42098327928772" lon="13.570649470249798"><ele>1051.0</ele><time>2026-04-04T12:47:21Z</time></trkpt><trkpt lat="46.421056448447274" lon="13.570704817190341"><ele>1051.0</ele><time>2026-04-04T12:47:22Z</time></trkpt><trkpt lat="46.42114543806125" lon="13.570784714657322"><ele>1051.0</ele><time>2026-04-04T12:47:23Z</time></trkpt><trkpt lat="46.42126379668028" lon="13.570852539357727"><ele>1048.25</ele><time>2026-04-04T12:47:24Z</time></trkpt><trkpt lat="46.421383794745964" lon="13.570875318846642"><ele>1045.5</ele><time>2026-04-04T12:47:25Z</time></trkpt><trkpt lat="46.42150880073737" lon="13.570842305936205"><ele>1042.75</ele><time>2026-04-04T12:47:26Z</time></trkpt><trkpt lat="46.421635249422955" lon="13.570768483755561"><ele>1040.0</ele><time>2026-04-04T12:47:27Z</time></trkpt><trkpt lat="46.42176015538152" lon="13.570664117867242"><ele>1040.0</ele><time>2026-04-04T12:47:28Z</time></trkpt><trkpt lat="46.42187016274748" lon="13.57054385867739"><ele>1040.0</ele><time>2026-04-04T12:47:29Z</time></trkpt><trkpt lat="46.421972923912264" lon="13.570437819801734"><ele>1040.0</ele><time>2026-04-04T12:47:30Z</time></trkpt><trkpt lat="46.422094056742374" lon="13.570385407966738"><ele>1040.0</ele><time>2026-04-04T12:47:31Z</time></trkpt><trkpt lat="46.422229936034945" lon="13.570388337579761"><ele>1043.6666666666667</ele><time>2026-04-04T12:47:32Z</time></trkpt><trkpt lat="46.42237701786532" lon="13.570416370728573"><ele>1047.3333333333333</ele><time>2026-04-04T12:47:33Z</time></trkpt><trkpt lat="46.42253478567629" lon="13.570425983192377"><ele>1051.0</ele><time>2026-04-04T12:47:34Z</time></trkpt><trkpt lat="46.422701032030375" lon="13.570421467747424"><ele>1051.0</ele><time>2026-04-04T12:47:35Z</time></trkpt><trkpt lat="46.42287349040265" lon="13.57041185183503"><ele>1051.0</ele><time>2026-04-04T12:47:36Z</time></trkpt><trkpt lat="46.42304640447631" lon="13.57042954757594"><ele>1051.0</ele><time>2026-04-04T12:47:37Z</time></trkpt><trkpt lat="46.423217980739125" lon="13.57046170044962"><ele>1051.3333333333333</ele><time>2026-04-04T12:47:38Z</time></trkpt><trkpt lat="46.423377291881955" lon="13.570491610557372"><ele>1051.6666666666667</ele><time>2026-04-04T12:47:39Z</time></trkpt><trkpt lat="46.42352597086018" lon="13.570559634486212"><ele>1052.0</ele><time>2026-04-04T12:47:40Z</time></trkpt><trkpt lat="46.423665940362554" lon="13.570666498457427"><ele>1052.0</ele><time>2026-04-04T12:47:41Z</time></trkpt><trkpt lat="46.42379549447962" lon="13.570788491270733"><ele>1052.0</ele><time>2026-04-04T12:47:42Z</time></trkpt><trkpt lat="46.423922971211404" lon="13.570895337437584"><ele>1052.0</ele><time>2026-04-04T12:47:43Z</time></trkpt><trkpt lat="46.424043620954826" lon="13.570984502846994"><ele>1052.0</ele><time>2026-04-04T12:47:44Z</time></trkpt><trkpt lat="46.42413928736829" lon="13.57106373477927"><ele>1047.8</ele><time>2026-04-04T12:47:45Z</time></trkpt><trkpt lat="46.424233797062406" lon="13.571076662669546"><ele>1043.6</ele><time>2026-04-04T12:47:46.063Z</time></trkpt><trkpt lat="46.42432675648136" lon="13.571041497969572"><ele>1039.3999999999999</ele><time>2026-04-04T12:47:47.061Z</time></trkpt><trkpt lat="46.424423541085886" lon="13.57095631007047"><ele>1035.2</ele><time>2026-04-04T12:47:48.064Z</time></trkpt><trkpt lat="46.42450525609797" lon="13.570812424718756"><ele>1031.0</ele><time>2026-04-04T12:47:49.056Z</time></trkpt><trkpt lat="46.424575729890186" lon="13.570660258658881"><ele>1026.25</ele><time>2026-04-04T12:47:50.047Z</time></trkpt><trkpt lat="46.42464813593442" lon="13.57050882927519"><ele>1021.5</ele><time>2026-04-04T12:47:51.038Z</time></trkpt><trkpt lat="46.42470820181978" lon="13.570387255573147"><ele>1016.75</ele><time>2026-04-04T12:47:52.035Z</time></trkpt><trkpt lat="46.42489219647655" lon="13.570259030365886"><ele>1012.0</ele><time>2026-04-04T12:47:54Z</time></trkpt><trkpt lat="46.424987693421535" lon="13.570155212018411"><ele>1006.5</ele><time>2026-04-04T12:47:55Z</time></trkpt><trkpt lat="46.42507911254598" lon="13.569955278634074"><ele>1001.0</ele><time>2026-04-04T12:47:56Z</time></trkpt><trkpt lat="46.42520586051676" lon="13.569898753294604"><ele>995.5</ele><time>2026-04-04T12:47:57Z</time></trkpt><trkpt lat="46.42533801157279" lon="13.569847909003958"><ele>990.0</ele><time>2026-04-04T12:47:58Z</time></trkpt><trkpt lat="46.425484672025235" lon="13.569795462116337"><ele>990.0</ele><time>2026-04-04T12:47:59Z</time></trkpt><trkpt lat="46.42563534806767" lon="13.569760644452185"><ele>990.0</ele><time>2026-04-04T12:48:00Z</time></trkpt><trkpt lat="46.425789758287586" lon="13.569744251239639"><ele>990.0</ele><time>2026-04-04T12:48:01Z</time></trkpt><trkpt lat="46.42594906831301" lon="13.569738286465837"><ele>990.0</ele><time>2026-04-04T12:48:02Z</time></trkpt><trkpt lat="46.4260972806876" lon="13.569729898065209"><ele>990.0</ele><time>2026-04-04T12:48:02.999Z</time></trkpt><trkpt lat="46.42623552953592" lon="13.569717959190584"><ele>990.0</ele><time>2026-04-04T12:48:03.999Z</time></trkpt><trkpt lat="46.42638252810419" lon="13.56968711033396"><ele>990.0</ele><time>2026-04-04T12:48:04.999Z</time></trkpt><trkpt lat="46.42653295167796" lon="13.569628199683157"><ele>983.0</ele><time>2026-04-04T12:48:05.999Z</time></trkpt><trkpt lat="46.42668130242122" lon="13.569522795028426"><ele>976.0</ele><time>2026-04-04T12:48:06.999Z</time></trkpt><trkpt lat="46.426808523776025" lon="13.569378580638379"><ele>969.0</ele><time>2026-04-04T12:48:07.999Z</time></trkpt><trkpt lat="46.42692696382943" lon="13.56924419062143"><ele>969.0</ele><time>2026-04-04T12:48:08.999Z</time></trkpt><trkpt lat="46.427058772416885" lon="13.56916439891156"><ele>969.0</ele><time>2026-04-04T12:48:09.999Z</time></trkpt><trkpt lat="46.42720082714179" lon="13.569125187485495"><ele>969.0</ele><time>2026-04-04T12:48:10.999Z</time></trkpt><trkpt lat="46.42733993229463" lon="13.569072168509043"><ele>969.0</ele><time>2026-04-04T12:48:11.999Z</time></trkpt><trkpt lat="46.42747130388175" lon="13.568967263717353"><ele>970.3333333333333</ele><time>2026-04-04T12:48:12.999Z</time></trkpt><trkpt lat="46.42758067442873" lon="13.568818085146905"><ele>971.6666666666666</ele><time>2026-04-04T12:48:13.999Z</time></trkpt><trkpt lat="46.42768207063045" lon="13.568647504597125"><ele>973.0</ele><time>2026-04-04T12:48:14.999Z</time></trkpt><trkpt lat="46.42778553729538" lon="13.568486608210302"><ele>973.0</ele><time>2026-04-04T12:48:15.999Z</time></trkpt><trkpt lat="46.42789119517027" lon="13.56834756158299"><ele>973.0</ele><time>2026-04-04T12:48:16.999Z</time></trkpt><trkpt lat="46.427989931838496" lon="13.568212326618694"><ele>973.0</ele><time>2026-04-04T12:48:17.999Z</time></trkpt><trkpt lat="46.42809343694943" lon="13.568061382491152"><ele>973.0</ele><time>2026-04-04T12:48:18.999Z</time></trkpt><trkpt lat="46.428207415839424" lon="13.567916595489178"><ele>972.75</ele><time>2026-04-04T12:48:19.999Z</time></trkpt><trkpt lat="46.428316562751824" lon="13.567770021096562"><ele>972.5</ele><time>2026-04-04T12:48:20.999Z</time></trkpt><trkpt lat="46.428406116398705" lon="13.567597553262647"><ele>972.25</ele><time>2026-04-04T12:48:21.999Z</time></trkpt><trkpt lat="46.42847926909282" lon="13.567415126904686"><ele>972.0</ele><time>2026-04-04T12:48:22.999Z</time></trkpt><trkpt lat="46.42853589333298" lon="13.567232053349866"><ele>972.0</ele><time>2026-04-04T12:48:23.999Z</time></trkpt><trkpt lat="46.42858764569895" lon="13.567083414008708"><ele>972.0</ele><time>2026-04-04T12:48:24.999Z</time></trkpt><trkpt lat="46.428634391338875" lon="13.566974653657986"><ele>972.0</ele><time>2026-04-04T12:48:25.999Z</time></trkpt><trkpt lat="46.42867782490702" lon="13.566892632876385"><ele>972.0</ele><time>2026-04-04T12:48:26.999Z</time></trkpt><trkpt lat="46.42874691112315" lon="13.566754753773074"><ele>972.0</ele><time>2026-04-04T12:48:28.999Z</time></trkpt><trkpt lat="46.42879888544562" lon="13.566671227621267"><ele>972.75</ele><time>2026-04-04T12:48:30.999Z</time></trkpt><trkpt lat="46.42863326299329" lon="13.566509360849553"><ele>973.5</ele><time>2026-04-04T12:48:32.999Z</time></trkpt><trkpt lat="46.428555184131156" lon="13.566482751341136"><ele>974.25</ele><time>2026-04-04T12:48:33.999Z</time></trkpt><trkpt lat="46.42847632705186" lon="13.566443675115412"><ele>975.0</ele><time>2026-04-04T12:48:34.999Z</time></trkpt><trkpt lat="46.42839044591964" lon="13.566395724389874"><ele>975.0</ele><time>2026-04-04T12:48:35.999Z</time></trkpt><trkpt lat="46.42829678236299" lon="13.566349084454552"><ele>975.0</ele><time>2026-04-04T12:48:36.999Z</time></trkpt><trkpt lat="46.4281981971114" lon="13.566303610139665"><ele>975.0</ele><time>2026-04-04T12:48:37.999Z</time></trkpt><trkpt lat="46.428093245933944" lon="13.566243149125066"><ele>975.0</ele><time>2026-04-04T12:48:38.999Z</time></trkpt><trkpt lat="46.42797599758506" lon="13.566174871537363"><ele>975.0</ele><time>2026-04-04T12:48:39.999Z</time></trkpt><trkpt lat="46.42785187574679" lon="13.56611301640441"><ele>973.6</ele><time>2026-04-04T12:48:40.999Z</time></trkpt><trkpt lat="46.427745001950406" lon="13.566060442124408"><ele>972.2</ele><time>2026-04-04T12:48:41.999Z</time></trkpt><trkpt lat="46.42766118852558" lon="13.566009949503286"><ele>970.8</ele><time>2026-04-04T12:48:42.999Z</time></trkpt><trkpt lat="46.42758103239697" lon="13.565970002819787"><ele>969.4</ele><time>2026-04-04T12:48:43.999Z</time></trkpt><trkpt lat="46.427503596077926" lon="13.565930106408949"><ele>968.0</ele><time>2026-04-04T12:48:44.999Z</time></trkpt><trkpt lat="46.4274136395484" lon="13.56588524742205"><ele>968.0</ele><time>2026-04-04T12:48:45.999Z</time></trkpt><trkpt lat="46.42731060413372" lon="13.56583337745194"><ele>968.0</ele><time>2026-04-04T12:48:46.999Z</time></trkpt><trkpt lat="46.427201567316985" lon="13.565758161020934"><ele>968.0</ele><time>2026-04-04T12:48:47.999Z</time></trkpt><trkpt lat="46.42708040739281" lon="13.565695326459911"><ele>968.0</ele><time>2026-04-04T12:48:48.999Z</time></trkpt><trkpt lat="46.42693778236162" lon="13.565643536207181"><ele>968.3333333333334</ele><time>2026-04-04T12:48:49.999Z</time></trkpt><trkpt lat="46.426785977882744" lon="13.565563814603143"><ele>968.6666666666667</ele><time>2026-04-04T12:48:50.999Z</time></trkpt><trkpt lat="46.42663544163245" lon="13.565478643365266"><ele>969.0</ele><time>2026-04-04T12:48:51.999Z</time></trkpt><trkpt lat="46.42649560202185" lon="13.565392747585516"><ele>972.0</ele><time>2026-04-04T12:48:52.999Z</time></trkpt><trkpt lat="46.42633900679694" lon="13.565326472445978"><ele>975.0</ele><time>2026-04-04T12:48:53.999Z</time></trkpt><trkpt lat="46.42619481173209" lon="13.56527585169735"><ele>978.0</ele><time>2026-04-04T12:48:54.999Z</time></trkpt><trkpt lat="46.42605271189083" lon="13.56523554629296"><ele>978.0</ele><time>2026-04-04T12:48:55.999Z</time></trkpt><trkpt lat="46.42592306270682" lon="13.565210712762351"><ele>978.0</ele><time>2026-04-04T12:48:56.999Z</time></trkpt><trkpt lat="46.42579255999821" lon="13.56518593504985"><ele>978.0</ele><time>2026-04-04T12:48:57.999Z</time></trkpt><trkpt lat="46.42566239500555" lon="13.565244538689347"><ele>978.0</ele><time>2026-04-04T12:48:58.999Z</time></trkpt><trkpt lat="46.425544657944755" lon="13.565342460998352"><ele>974.75</ele><time>2026-04-04T12:48:59.999Z</time></trkpt><trkpt lat="46.42542828718655" lon="13.56544701465398"><ele>971.5</ele><time>2026-04-04T12:49:00.999Z</time></trkpt><trkpt lat="46.4253111201497" lon="13.565554807768828"><ele>968.25</ele><time>2026-04-04T12:49:01.999Z</time></trkpt><trkpt lat="46.425205388986306" lon="13.565659963740767"><ele>965.0</ele><time>2026-04-04T12:49:02.999Z</time></trkpt><trkpt lat="46.42508930367841" lon="13.565705745861765"><ele>965.0</ele><time>2026-04-04T12:49:03.999Z</time></trkpt><trkpt lat="46.4249725147143" lon="13.565718094637278"><ele>965.0</ele><time>2026-04-04T12:49:05Z</time></trkpt><trkpt lat="46.42484412157587" lon="13.565699397123206"><ele>965.0</ele><time>2026-04-04T12:49:06Z</time></trkpt><trkpt lat="46.42470782396698" lon="13.565659826228288"><ele>965.0</ele><time>2026-04-04T12:49:07Z</time></trkpt><trkpt lat="46.4245662198061" lon="13.565621794139892"><ele>966.75</ele><time>2026-04-04T12:49:08Z</time></trkpt><trkpt lat="46.42444219278404" lon="13.56558667637337"><ele>968.5</ele><time>2026-04-04T12:49:09Z</time></trkpt><trkpt lat="46.42433859393093" lon="13.565535831032204"><ele>970.25</ele><time>2026-04-04T12:49:10Z</time></trkpt><trkpt lat="46.42423803202303" lon="13.565439955555583"><ele>972.0</ele><time>2026-04-04T12:49:11Z</time></trkpt><trkpt lat="46.424153496391455" lon="13.565310598059517"><ele>972.0</ele><time>2026-04-04T12:49:12Z</time></trkpt><trkpt lat="46.42408590359006" lon="13.565149808585144"><ele>972.0</ele><time>2026-04-04T12:49:13Z</time></trkpt><trkpt lat="46.42403681887107" lon="13.56495734899662"><ele>972.0</ele><time>2026-04-04T12:49:14Z</time></trkpt><trkpt lat="46.423977790379226" lon="13.564755160297636"><ele>972.0</ele><time>2026-04-04T12:49:15Z</time></trkpt><trkpt lat="46.42391456160297" lon="13.564557784878268"><ele>976.0</ele><time>2026-04-04T12:49:16Z</time></trkpt><trkpt lat="46.423848211394386" lon="13.564349510004968"><ele>980.0</ele><time>2026-04-04T12:49:17Z</time></trkpt><trkpt lat="46.42378054706867" lon="13.56413476358124"><ele>984.0</ele><time>2026-04-04T12:49:18Z</time></trkpt><trkpt lat="46.42372111955368" lon="13.563960840575565"><ele>983.0</ele><time>2026-04-04T12:49:19Z</time></trkpt><trkpt lat="46.42365512463468" lon="13.563810258783583"><ele>982.0</ele><time>2026-04-04T12:49:20Z</time></trkpt><trkpt lat="46.42356159380286" lon="13.563687950311234"><ele>981.0</ele><time>2026-04-04T12:49:21Z</time></trkpt><trkpt lat="46.42343723864492" lon="13.563613348102663"><ele>980.0</ele><time>2026-04-04T12:49:22Z</time></trkpt><trkpt lat="46.42329191458259" lon="13.563575085695282"><ele>980.0</ele><time>2026-04-04T12:49:23Z</time></trkpt><trkpt lat="46.42313715244816" lon="13.563556154408872"><ele>980.0</ele><time>2026-04-04T12:49:24Z</time></trkpt><trkpt lat="46.42299292794852" lon="13.563491841129702"><ele>980.0</ele><time>2026-04-04T12:49:25Z</time></trkpt><trkpt lat="46.422839682848185" lon="13.56344358668526"><ele>974.6666666666667</ele><time>2026-04-04T12:49:26Z</time></trkpt><trkpt lat="46.4226937729579" lon="13.56335862421783"><ele>969.3333333333333</ele><time>2026-04-04T12:49:27Z</time></trkpt><trkpt lat="46.42254674034159" lon="13.56327242725789"><ele>964.0</ele><time>2026-04-04T12:49:28Z</time></trkpt><trkpt lat="46.42239515899615" lon="13.563187505901892"><ele>964.0</ele><time>2026-04-04T12:49:29Z</time></trkpt><trkpt lat="46.42224248670017" lon="13.563103220250794"><ele>964.0</ele><time>2026-04-04T12:49:30Z</time></trkpt><trkpt lat="46.42209273024144" lon="13.563027871037802"><ele>964.0</ele><time>2026-04-04T12:49:31Z</time></trkpt><trkpt lat="46.42194673351958" lon="13.562944329082022"><ele>967.6666666666666</ele><time>2026-04-04T12:49:32Z</time></trkpt><trkpt lat="46.4217934835075" lon="13.562832445477673"><ele>971.3333333333333</ele><time>2026-04-04T12:49:33Z</time></trkpt><trkpt lat="46.42163557071965" lon="13.562697428244837"><ele>975.0</ele><time>2026-04-04T12:49:34Z</time></trkpt><trkpt lat="46.42146244784857" lon="13.562545707617367"><ele>968.3333333333333</ele><time>2026-04-04T12:49:35Z</time></trkpt><trkpt lat="46.42128551237505" lon="13.562385399750985"><ele>961.6666666666666</ele><time>2026-04-04T12:49:36Z</time></trkpt><trkpt lat="46.421100548847846" lon="13.562223107260193"><ele>955.0</ele><time>2026-04-04T12:49:37Z</time></trkpt><trkpt lat="46.4209124337164" lon="13.562055216580147"><ele>956.0</ele><time>2026-04-04T12:49:38Z</time></trkpt><trkpt lat="46.4207298490971" lon="13.561876697701976"><ele>957.0</ele><time>2026-04-04T12:49:39Z</time></trkpt><trkpt lat="46.420563375193666" lon="13.561701916856133"><ele>958.0</ele><time>2026-04-04T12:49:40Z</time></trkpt><trkpt lat="46.42041105906869" lon="13.56153123441156"><ele>958.0</ele><time>2026-04-04T12:49:41Z</time></trkpt><trkpt lat="46.420270286287064" lon="13.561354489339614"><ele>958.0</ele><time>2026-04-04T12:49:42Z</time></trkpt><trkpt lat="46.42013026155663" lon="13.56117927269303"><ele>958.0</ele><time>2026-04-04T12:49:43Z</time></trkpt><trkpt lat="46.41998501727825" lon="13.56099343786099"><ele>958.0</ele><time>2026-04-04T12:49:44Z</time></trkpt><trkpt lat="46.41983823026009" lon="13.560801744900157"><ele>958.0</ele><time>2026-04-04T12:49:45Z</time></trkpt><trkpt lat="46.41968639901075" lon="13.560604069005585"><ele>958.0</ele><time>2026-04-04T12:49:46Z</time></trkpt><trkpt lat="46.419530396663845" lon="13.560403788189777"><ele>961.0</ele><time>2026-04-04T12:49:47Z</time></trkpt><trkpt lat="46.41937517490921" lon="13.560204787613733"><ele>964.0</ele><time>2026-04-04T12:49:48Z</time></trkpt><trkpt lat="46.41921809927476" lon="13.56001220028178"><ele>967.0</ele><time>2026-04-04T12:49:49Z</time></trkpt><trkpt lat="46.41906829543206" lon="13.559820565760388"><ele>967.0</ele><time>2026-04-04T12:49:50Z</time></trkpt><trkpt lat="46.41892216114069" lon="13.55962817189166"><ele>967.0</ele><time>2026-04-04T12:49:51Z</time></trkpt><trkpt lat="46.41877628201713" lon="13.559442305207185"><ele>967.0</ele><time>2026-04-04T12:49:52Z</time></trkpt><trkpt lat="46.418636604617" lon="13.559254419253074"><ele>964.0</ele><time>2026-04-04T12:49:53Z</time></trkpt><trkpt lat="46.41850458576861" lon="13.559060459082476"><ele>961.0</ele><time>2026-04-04T12:49:54Z</time></trkpt><trkpt lat="46.418390408323795" lon="13.558856474401225"><ele>958.0</ele><time>2026-04-04T12:49:55Z</time></trkpt><trkpt lat="46.418293384816884" lon="13.558629737902073"><ele>956.6666666666666</ele><time>2026-04-04T12:49:56Z</time></trkpt><trkpt lat="46.41820954667734" lon="13.558386781875914"><ele>955.3333333333333</ele><time>2026-04-04T12:49:57Z</time></trkpt><trkpt lat="46.418109893977004" lon="13.558144499630854"><ele>954.0</ele><time>2026-04-04T12:49:58Z</time></trkpt><trkpt lat="46.41798019555469" lon="13.557907043438982"><ele>963.0</ele><time>2026-04-04T12:49:59Z</time></trkpt><trkpt lat="46.417822610051914" lon="13.557668924634793"><ele>972.0</ele><time>2026-04-04T12:50:00Z</time></trkpt><trkpt lat="46.41764518822347" lon="13.557416618262826"><ele>972.0</ele><time>2026-04-04T12:50:01Z</time></trkpt><trkpt lat="46.417461303138346" lon="13.557151622032084"><ele>972.0</ele><time>2026-04-04T12:50:02Z</time></trkpt><trkpt lat="46.41727644155641" lon="13.556884565406873"><ele>968.5</ele><time>2026-04-04T12:50:03Z</time></trkpt><trkpt lat="46.417100562371296" lon="13.556629679755632"><ele>965.0</ele><time>2026-04-04T12:50:04Z</time></trkpt><trkpt lat="46.41693312753796" lon="13.55637275822402"><ele>973.0</ele><time>2026-04-04T12:50:05Z</time></trkpt><trkpt lat="46.41676263619082" lon="13.556116511066351"><ele>981.0</ele><time>2026-04-04T12:50:06Z</time></trkpt><trkpt lat="46.41659383819888" lon="13.555857945218307"><ele>981.0</ele><time>2026-04-04T12:50:07Z</time></trkpt><trkpt lat="46.41642873411545" lon="13.555608050554122"><ele>981.0</ele><time>2026-04-04T12:50:07.999Z</time></trkpt><trkpt lat="46.41627263702174" lon="13.555369320184521"><ele>979.0</ele><time>2026-04-04T12:50:08.999Z</time></trkpt><trkpt lat="46.41612530590819" lon="13.555145518530766"><ele>977.0</ele><time>2026-04-04T12:50:09.999Z</time></trkpt><trkpt lat="46.41598909771444" lon="13.554942339183748"><ele>975.0</ele><time>2026-04-04T12:50:10.999Z</time></trkpt><trkpt lat="46.415866493217784" lon="13.554753225627614"><ele>975.0</ele><time>2026-04-04T12:50:11.999Z</time></trkpt><trkpt lat="46.41576234950988" lon="13.554572849680017"><ele>975.0</ele><time>2026-04-04T12:50:12.999Z</time></trkpt><trkpt lat="46.41567034467716" lon="13.554353395849386"><ele>975.0</ele><time>2026-04-04T12:50:13.999Z</time></trkpt><trkpt lat="46.41559355642228" lon="13.554089544168983"><ele>974.3333333333333</ele><time>2026-04-04T12:50:14.999Z</time></trkpt><trkpt lat="46.41551811217939" lon="13.553803508918678"><ele>973.6666666666666</ele><time>2026-04-04T12:50:15.999Z</time></trkpt><trkpt lat="46.41544344170772" lon="13.55351738325399"><ele>973.0</ele><time>2026-04-04T12:50:16.999Z</time></trkpt><trkpt lat="46.41537434323023" lon="13.553265265807447"><ele>973.0</ele><time>2026-04-04T12:50:17.999Z</time></trkpt><trkpt lat="46.41530423371097" lon="13.553014768697762"><ele>973.0</ele><time>2026-04-04T12:50:18.999Z</time></trkpt><trkpt lat="46.41521096258142" lon="13.552780404003922"><ele>973.0</ele><time>2026-04-04T12:50:19.999Z</time></trkpt><trkpt lat="46.415084360771296" lon="13.552562457465207"><ele>977.3333333333333</ele><time>2026-04-04T12:50:20.999Z</time></trkpt><trkpt lat="46.41495288529713" lon="13.55237263280033"><ele>981.6666666666667</ele><time>2026-04-04T12:50:21.999Z</time></trkpt><trkpt lat="46.414847594702216" lon="13.55219123439303"><ele>986.0</ele><time>2026-04-04T12:50:22.999Z</time></trkpt><trkpt lat="46.41476775373745" lon="13.551976600489438"><ele>990.6666666666667</ele><time>2026-04-04T12:50:23.999Z</time></trkpt><trkpt lat="46.41472500465513" lon="13.551727415969488"><ele>995.3333333333333</ele><time>2026-04-04T12:50:24.999Z</time></trkpt><trkpt lat="46.414702029203816" lon="13.551456917113958"><ele>1000.0</ele><time>2026-04-04T12:50:25.999Z</time></trkpt><trkpt lat="46.414674244278444" lon="13.551187251227255"><ele>992.6666666666666</ele><time>2026-04-04T12:50:26.999Z</time></trkpt><trkpt lat="46.41463259529479" lon="13.550940760384352"><ele>985.3333333333333</ele><time>2026-04-04T12:50:27.999Z</time></trkpt><trkpt lat="46.41456630974031" lon="13.550713235850253"><ele>978.0</ele><time>2026-04-04T12:50:28.999Z</time></trkpt><trkpt lat="46.414465306247266" lon="13.550492581994572"><ele>981.0</ele><time>2026-04-04T12:50:29.999Z</time></trkpt><trkpt lat="46.414347151962694" lon="13.550254257197066"><ele>984.0</ele><time>2026-04-04T12:50:30.999Z</time></trkpt><trkpt lat="46.41422142371813" lon="13.5499805580054"><ele>987.0</ele><time>2026-04-04T12:50:31.999Z</time></trkpt><trkpt lat="46.41408338287388" lon="13.54968166486993"><ele>993.5</ele><time>2026-04-04T12:50:32.999Z</time></trkpt><trkpt lat="46.413936640112006" lon="13.549369361869275"><ele>1000.0</ele><time>2026-04-04T12:50:33.999Z</time></trkpt><trkpt lat="46.413786618828944" lon="13.54905080583389"><ele>991.5</ele><time>2026-04-04T12:50:34.999Z</time></trkpt><trkpt lat="46.413637522357" lon="13.548728746743166"><ele>983.0</ele><time>2026-04-04T12:50:35.999Z</time></trkpt><trkpt lat="46.413493694407094" lon="13.548404447305488"><ele>983.0</ele><time>2026-04-04T12:50:36.999Z</time></trkpt><trkpt lat="46.4133432386514" lon="13.548084111674342"><ele>983.0</ele><time>2026-04-04T12:50:37.999Z</time></trkpt><trkpt lat="46.413193012363" lon="13.547765583968978"><ele>978.0</ele><time>2026-04-04T12:50:38.999Z</time></trkpt><trkpt lat="46.41304930740701" lon="13.547456302463369"><ele>973.0</ele><time>2026-04-04T12:50:39.999Z</time></trkpt><trkpt lat="46.412907356083366" lon="13.547155734684141"><ele>980.5</ele><time>2026-04-04T12:50:40.999Z</time></trkpt><trkpt lat="46.41277339074852" lon="13.546866699343836"><ele>988.0</ele><time>2026-04-04T12:50:41.999Z</time></trkpt><trkpt lat="46.41264744857398" lon="13.54658946411952"><ele>988.0</ele><time>2026-04-04T12:50:42.999Z</time></trkpt><trkpt lat="46.41252845606489" lon="13.546333255636723"><ele>988.0</ele><time>2026-04-04T12:50:43.999Z</time></trkpt><trkpt lat="46.41241588108639" lon="13.546092006216268"><ele>988.0</ele><time>2026-04-04T12:50:44.999Z</time></trkpt><trkpt lat="46.41230595431774" lon="13.545860231380498"><ele>986.3333333333333</ele><time>2026-04-04T12:50:45.999Z</time></trkpt><trkpt lat="46.41219671209759" lon="13.545621715613771"><ele>984.6666666666667</ele><time>2026-04-04T12:50:46.999Z</time></trkpt><trkpt lat="46.412107236596285" lon="13.545387465555368"><ele>983.0</ele><time>2026-04-04T12:50:47.999Z</time></trkpt><trkpt lat="46.41203680006729" lon="13.545160921437805"><ele>983.0</ele><time>2026-04-04T12:50:48.999Z</time></trkpt><trkpt lat="46.41196376730916" lon="13.544935614315603"><ele>983.0</ele><time>2026-04-04T12:50:49.999Z</time></trkpt><trkpt lat="46.411853777509066" lon="13.544717743608873"><ele>983.0</ele><time>2026-04-04T12:50:50.999Z</time></trkpt><trkpt lat="46.411722955065045" lon="13.544498474343444"><ele>985.6666666666667</ele><time>2026-04-04T12:50:51.999Z</time></trkpt><trkpt lat="46.41157415134802" lon="13.544269430758028"><ele>988.3333333333333</ele><time>2026-04-04T12:50:52.999Z</time></trkpt><trkpt lat="46.411413556314464" lon="13.54402739996008"><ele>991.0</ele><time>2026-04-04T12:50:53.999Z</time></trkpt><trkpt lat="46.411246645022565" lon="13.543770456763676"><ele>986.0</ele><time>2026-04-04T12:50:54.999Z</time></trkpt><trkpt lat="46.411076108101845" lon="13.54349431499092"><ele>981.0</ele><time>2026-04-04T12:50:55.999Z</time></trkpt><trkpt lat="46.41091427927573" lon="13.543204401319537"><ele>981.0</ele><time>2026-04-04T12:50:56.999Z</time></trkpt><trkpt lat="46.41078121260053" lon="13.54293074013261"><ele>981.0</ele><time>2026-04-04T12:50:57.999Z</time></trkpt><trkpt lat="46.41066168483936" lon="13.542678409485756"><ele>981.0</ele><time>2026-04-04T12:50:58.999Z</time></trkpt><trkpt lat="46.41055403164221" lon="13.542436797281656"><ele>980.0</ele><time>2026-04-04T12:50:59.999Z</time></trkpt><trkpt lat="46.41045801872857" lon="13.542179422387347"><ele>979.0</ele><time>2026-04-04T12:51:00.999Z</time></trkpt><trkpt lat="46.410383327903126" lon="13.541890597871918"><ele>978.0</ele><time>2026-04-04T12:51:01.999Z</time></trkpt><trkpt lat="46.41030433863771" lon="13.54159308784234"><ele>978.0</ele><time>2026-04-04T12:51:02.999Z</time></trkpt><trkpt lat="46.41019384740772" lon="13.541308129157665"><ele>978.0</ele><time>2026-04-04T12:51:03.999Z</time></trkpt><trkpt lat="46.4100800191316" lon="13.541016300887469"><ele>986.5</ele><time>2026-04-04T12:51:04.999Z</time></trkpt><trkpt lat="46.409982438099036" lon="13.54071508416065"><ele>995.0</ele><time>2026-04-04T12:51:05.999Z</time></trkpt><trkpt lat="46.40989855646638" lon="13.540401619877745"><ele>1000.5</ele><time>2026-04-04T12:51:06.999Z</time></trkpt><trkpt lat="46.409823328239504" lon="13.540069208651458"><ele>1006.0</ele><time>2026-04-04T12:51:07.999Z</time></trkpt><trkpt lat="46.40974466607989" lon="13.539718045773654"><ele>1015.0</ele><time>2026-04-04T12:51:08.999Z</time></trkpt><trkpt lat="46.40966552415185" lon="13.539352484749639"><ele>1024.0</ele><time>2026-04-04T12:51:09.999Z</time></trkpt><trkpt lat="46.409585983214576" lon="13.53898910502607"><ele>1009.5</ele><time>2026-04-04T12:51:11Z</time></trkpt><trkpt lat="46.40950816780107" lon="13.538641271476138"><ele>995.0</ele><time>2026-04-04T12:51:12Z</time></trkpt><trkpt lat="46.40943436642551" lon="13.538313773783146"><ele>995.0</ele><time>2026-04-04T12:51:13Z</time></trkpt><trkpt lat="46.409365200957645" lon="13.538016243142131"><ele>995.0</ele><time>2026-04-04T12:51:14Z</time></trkpt><trkpt lat="46.40930488316083" lon="13.537751878622561"><ele>995.0</ele><time>2026-04-04T12:51:15Z</time></trkpt><trkpt lat="46.40925458116584" lon="13.537512803891593"><ele>996.0</ele><time>2026-04-04T12:51:16Z</time></trkpt><trkpt lat="46.40922466321908" lon="13.537301121221102"><ele>997.0</ele><time>2026-04-04T12:51:17Z</time></trkpt><trkpt lat="46.40921583740284" lon="13.537100831434591"><ele>998.0</ele><time>2026-04-04T12:51:18Z</time></trkpt><trkpt lat="46.40923020800993" lon="13.536895866567223"><ele>999.0</ele><time>2026-04-04T12:51:19Z</time></trkpt><trkpt lat="46.409279228983735" lon="13.536703142421876"><ele>999.0</ele><time>2026-04-04T12:51:20Z</time></trkpt><trkpt lat="46.409351604533335" lon="13.536518330982513"><ele>999.0</ele><time>2026-04-04T12:51:21Z</time></trkpt><trkpt lat="46.409438192241275" lon="13.536346405372035"><ele>999.0</ele><time>2026-04-04T12:51:22Z</time></trkpt><trkpt lat="46.40952692247491" lon="13.536222367105191"><ele>999.0</ele><time>2026-04-04T12:51:23Z</time></trkpt><trkpt lat="46.40961240005862" lon="13.536139608381689"><ele>999.5</ele><time>2026-04-04T12:51:24Z</time></trkpt><trkpt lat="46.40968616007009" lon="13.536060870302261"><ele>1000.0</ele><time>2026-04-04T12:51:25Z</time></trkpt><trkpt lat="46.409729564641516" lon="13.535968645711154"><ele>1000.5</ele><time>2026-04-04T12:51:26Z</time></trkpt><trkpt lat="46.409735191048604" lon="13.535871017310104"><ele>1001.0</ele><time>2026-04-04T12:51:27Z</time></trkpt><trkpt lat="46.409713730638764" lon="13.535774421194292"><ele>1001.5</ele><time>2026-04-04T12:51:28Z</time></trkpt><trkpt lat="46.40966019178238" lon="13.53567483493003"><ele>1002.0</ele><time>2026-04-04T12:51:29Z</time></trkpt><trkpt lat="46.40959202971429" lon="13.535545578111893"><ele>999.0</ele><time>2026-04-04T12:51:30Z</time></trkpt><trkpt lat="46.409520688208865" lon="13.535375723849858"><ele>996.0</ele><time>2026-04-04T12:51:31Z</time></trkpt><trkpt lat="46.409427196671466" lon="13.535165360642605"><ele>993.0</ele><time>2026-04-04T12:51:32Z</time></trkpt><trkpt lat="46.40931570426994" lon="13.534920275999376"><ele>993.0</ele><time>2026-04-04T12:51:33Z</time></trkpt><trkpt lat="46.40919990715437" lon="13.534657006133587"><ele>993.0</ele><time>2026-04-04T12:51:34Z</time></trkpt><trkpt lat="46.40909757489803" lon="13.534421869965772"><ele>993.0</ele><time>2026-04-04T12:51:35Z</time></trkpt><trkpt lat="46.409015988167695" lon="13.534212611690549"><ele>992.25</ele><time>2026-04-04T12:51:36Z</time></trkpt><trkpt lat="46.40894330064902" lon="13.534025759104118"><ele>991.5</ele><time>2026-04-04T12:51:37Z</time></trkpt><trkpt lat="46.408873318596655" lon="13.533872677952317"><ele>990.75</ele><time>2026-04-04T12:51:38Z</time></trkpt><trkpt lat="46.40878397411202" lon="13.533760104773135"><ele>990.0</ele><time>2026-04-04T12:51:39Z</time></trkpt><trkpt lat="46.40867291763905" lon="13.533681732269294"><ele>993.3333333333333</ele><time>2026-04-04T12:51:40Z</time></trkpt><trkpt lat="46.40853901445809" lon="13.533642947810621"><ele>996.6666666666666</ele><time>2026-04-04T12:51:41Z</time></trkpt><trkpt lat="46.40839168419227" lon="13.53363691034187"><ele>1000.0</ele><time>2026-04-04T12:51:42Z</time></trkpt><trkpt lat="46.408219288076594" lon="13.5336355390226"><ele>1000.0</ele><time>2026-04-04T12:51:43Z</time></trkpt><trkpt lat="46.408041878249" lon="13.533627956813707"><ele>1000.0</ele><time>2026-04-04T12:51:44Z</time></trkpt><trkpt lat="46.407888884002126" lon="13.533608800155292"><ele>1000.0</ele><time>2026-04-04T12:51:45Z</time></trkpt><trkpt lat="46.407764755322184" lon="13.53358437437484"><ele>1000.25</ele><time>2026-04-04T12:51:46Z</time></trkpt><trkpt lat="46.40766083801439" lon="13.533540087077926"><ele>1000.5</ele><time>2026-04-04T12:51:47Z</time></trkpt><trkpt lat="46.40758448311755" lon="13.533444714692621"><ele>1000.75</ele><time>2026-04-04T12:51:48Z</time></trkpt><trkpt lat="46.407519215253636" lon="13.533296993244006"><ele>1001.0</ele><time>2026-04-04T12:51:49Z</time></trkpt><trkpt lat="46.40745959255248" lon="13.533098898899059"><ele>1003.6666666666667</ele><time>2026-04-04T12:51:50Z</time></trkpt><trkpt lat="46.40740592910532" lon="13.532850219361965"><ele>1006.3333333333333</ele><time>2026-04-04T12:51:51Z</time></trkpt><trkpt lat="46.40734715620363" lon="13.532571362160276"><ele>1009.0</ele><time>2026-04-04T12:51:52Z</time></trkpt><trkpt lat="46.407293477991075" lon="13.532344390911664"><ele>1009.0</ele><time>2026-04-04T12:51:53Z</time></trkpt><trkpt lat="46.4072271449998" lon="13.532142385174868"><ele>1009.0</ele><time>2026-04-04T12:51:54Z</time></trkpt><trkpt lat="46.40713561959833" lon="13.531965711854754"><ele>1009.0</ele><time>2026-04-04T12:51:55Z</time></trkpt><trkpt lat="46.40700757558319" lon="13.53181171385394"><ele>1006.0</ele><time>2026-04-04T12:51:56Z</time></trkpt><trkpt lat="46.4068492935785" lon="13.531652313536783"><ele>1003.0</ele><time>2026-04-04T12:51:57Z</time></trkpt><trkpt lat="46.406690792518724" lon="13.531452324533237"><ele>1000.0</ele><time>2026-04-04T12:51:58Z</time></trkpt><trkpt lat="46.406517417868535" lon="13.531261375999959"><ele>998.6666666666666</ele><time>2026-04-04T12:51:59Z</time></trkpt><trkpt lat="46.406326622132475" lon="13.531086874707835"><ele>997.3333333333333</ele><time>2026-04-04T12:52:00Z</time></trkpt><trkpt lat="46.40616306881024" lon="13.530906746617093"><ele>996.0</ele><time>2026-04-04T12:52:01Z</time></trkpt><trkpt lat="46.40601823786224" lon="13.53072206318445"><ele>996.0</ele><time>2026-04-04T12:52:02Z</time></trkpt><trkpt lat="46.405879895404944" lon="13.530515820206142"><ele>996.0</ele><time>2026-04-04T12:52:03Z</time></trkpt><trkpt lat="46.40574174153486" lon="13.530303090013028"><ele>996.0</ele><time>2026-04-04T12:52:04Z</time></trkpt><trkpt lat="46.40560469670332" lon="13.530092472855008"><ele>996.6666666666667</ele><time>2026-04-04T12:52:05Z</time></trkpt><trkpt lat="46.40547573862496" lon="13.529890759911591"><ele>997.3333333333334</ele><time>2026-04-04T12:52:06Z</time></trkpt><trkpt lat="46.40536823684769" lon="13.529685214554178"><ele>998.0</ele><time>2026-04-04T12:52:07Z</time></trkpt><trkpt lat="46.405269715779745" lon="13.529455919728473"><ele>998.0</ele><time>2026-04-04T12:52:08Z</time></trkpt><trkpt lat="46.405166622747565" lon="13.529213367713611"><ele>998.0</ele><time>2026-04-04T12:52:08.999Z</time></trkpt><trkpt lat="46.4050628504738" lon="13.52896596446654"><ele>998.0</ele><time>2026-04-04T12:52:09.999Z</time></trkpt><trkpt lat="46.404962410673626" lon="13.528729866709542"><ele>1000.6666666666667</ele><time>2026-04-04T12:52:10.999Z</time></trkpt><trkpt lat="46.404874409115834" lon="13.528517507609283"><ele>1003.3333333333333</ele><time>2026-04-04T12:52:11.999Z</time></trkpt><trkpt lat="46.40479783004556" lon="13.52831027884718"><ele>1006.0</ele><time>2026-04-04T12:52:12.999Z</time></trkpt><trkpt lat="46.40473266290341" lon="13.52808484050877"><ele>1005.3333333333333</ele><time>2026-04-04T12:52:13.999Z</time></trkpt><trkpt lat="46.404671903038285" lon="13.52783824817775"><ele>1004.6666666666667</ele><time>2026-04-04T12:52:14.999Z</time></trkpt><trkpt lat="46.40460766796155" lon="13.527579491235882"><ele>1004.0</ele><time>2026-04-04T12:52:15.999Z</time></trkpt><trkpt lat="46.40454086483071" lon="13.527322468617196"><ele>1003.0</ele><time>2026-04-04T12:52:16.999Z</time></trkpt><trkpt lat="46.40447991858326" lon="13.527081862182277"><ele>1002.0</ele><time>2026-04-04T12:52:17.999Z</time></trkpt><trkpt lat="46.404413552041504" lon="13.526869262920586"><ele>1001.0</ele><time>2026-04-04T12:52:18.999Z</time></trkpt><trkpt lat="46.40433909242943" lon="13.526674863019648"><ele>1001.0</ele><time>2026-04-04T12:52:19.999Z</time></trkpt><trkpt lat="46.40426424717958" lon="13.526481868136381"><ele>1001.0</ele><time>2026-04-04T12:52:20.999Z</time></trkpt><trkpt lat="46.404218045624134" lon="13.526274622148742"><ele>1001.0</ele><time>2026-04-04T12:52:21.999Z</time></trkpt><trkpt lat="46.40418195149372" lon="13.526059203028659"><ele>1004.25</ele><time>2026-04-04T12:52:22.999Z</time></trkpt><trkpt lat="46.40414149349341" lon="13.525851632105523"><ele>1007.5</ele><time>2026-04-04T12:52:23.999Z</time></trkpt><trkpt lat="46.404097444920666" lon="13.525656451829144"><ele>1010.75</ele><time>2026-04-04T12:52:24.999Z</time></trkpt><trkpt lat="46.40405543021282" lon="13.525466407348683"><ele>1014.0</ele><time>2026-04-04T12:52:25.999Z</time></trkpt><trkpt lat="46.404008440046205" lon="13.525273230503341"><ele>1016.0</ele><time>2026-04-04T12:52:26.999Z</time></trkpt><trkpt lat="46.40394830127299" lon="13.52507884660361"><ele>1018.0</ele><time>2026-04-04T12:52:27.999Z</time></trkpt><trkpt lat="46.403899117314516" lon="13.52488340017373"><ele>1020.0</ele><time>2026-04-04T12:52:28.999Z</time></trkpt><trkpt lat="46.40387318028783" lon="13.524679139453475"><ele>1022.0</ele><time>2026-04-04T12:52:29.999Z</time></trkpt><trkpt lat="46.40384865382266" lon="13.524472376136682"><ele>1015.5</ele><time>2026-04-04T12:52:30.999Z</time></trkpt><trkpt lat="46.40382264886833" lon="13.52427110983352"><ele>1009.0</ele><time>2026-04-04T12:52:31.999Z</time></trkpt><trkpt lat="46.40379759786346" lon="13.524075266714684"><ele>1002.5</ele><time>2026-04-04T12:52:32.999Z</time></trkpt><trkpt lat="46.403777992727" lon="13.523893914334266"><ele>996.0</ele><time>2026-04-04T12:52:33.999Z</time></trkpt><trkpt lat="46.40375803475098" lon="13.523727358820409"><ele>996.0</ele><time>2026-04-04T12:52:34.999Z</time></trkpt><trkpt lat="46.40373781396941" lon="13.523558590625079"><ele>996.0</ele><time>2026-04-04T12:52:35.999Z</time></trkpt><trkpt lat="46.403720405896465" lon="13.52338872808837"><ele>996.0</ele><time>2026-04-04T12:52:36.999Z</time></trkpt><trkpt lat="46.40370547685088" lon="13.523218771795596"><ele>996.0</ele><time>2026-04-04T12:52:37.999Z</time></trkpt><trkpt lat="46.40369170305869" lon="13.52304285747819"><ele>996.0</ele><time>2026-04-04T12:52:38.999Z</time></trkpt><trkpt lat="46.403679898341736" lon="13.522854525028112"><ele>996.0</ele><time>2026-04-04T12:52:39.999Z</time></trkpt><trkpt lat="46.40367344890493" lon="13.522649181326793"><ele>996.0</ele><time>2026-04-04T12:52:40.999Z</time></trkpt><trkpt lat="46.40366612306041" lon="13.522427109148547"><ele>996.0</ele><time>2026-04-04T12:52:41.999Z</time></trkpt><trkpt lat="46.40364586036083" lon="13.522212740763258"><ele>996.6666666666667</ele><time>2026-04-04T12:52:42.999Z</time></trkpt><trkpt lat="46.403595350455426" lon="13.52200251303153"><ele>997.3333333333334</ele><time>2026-04-04T12:52:43.999Z</time></trkpt><trkpt lat="46.40351864151788" lon="13.521799474913617"><ele>998.0</ele><time>2026-04-04T12:52:44.999Z</time></trkpt><trkpt lat="46.40343096229716" lon="13.521620783519271"><ele>998.0</ele><time>2026-04-04T12:52:45.999Z</time></trkpt><trkpt lat="46.40333882255188" lon="13.521457118322118"><ele>998.0</ele><time>2026-04-04T12:52:46.999Z</time></trkpt><trkpt lat="46.40325408983905" lon="13.521300444654583"><ele>998.0</ele><time>2026-04-04T12:52:47.999Z</time></trkpt><trkpt lat="46.403168289455536" lon="13.521139296237259"><ele>998.0</ele><time>2026-04-04T12:52:48.999Z</time></trkpt><trkpt lat="46.40308401364415" lon="13.520985314375212"><ele>998.75</ele><time>2026-04-04T12:52:49.999Z</time></trkpt><trkpt lat="46.403003910562795" lon="13.520832542568197"><ele>999.5</ele><time>2026-04-04T12:52:50.999Z</time></trkpt><trkpt lat="46.40292338126054" lon="13.520681326188932"><ele>1000.25</ele><time>2026-04-04T12:52:51.999Z</time></trkpt><trkpt lat="46.40284535134271" lon="13.520541788247652"><ele>1001.0</ele><time>2026-04-04T12:52:52.999Z</time></trkpt><trkpt lat="46.402770813436845" lon="13.520404796583028"><ele>999.25</ele><time>2026-04-04T12:52:53.999Z</time></trkpt><trkpt lat="46.40269940875159" lon="13.520267685279013"><ele>997.5</ele><time>2026-04-04T12:52:54.999Z</time></trkpt><trkpt lat="46.40262554774889" lon="13.520128993177844"><ele>995.75</ele><time>2026-04-04T12:52:55.999Z</time></trkpt><trkpt lat="46.40255292463776" lon="13.519988512989674"><ele>994.0</ele><time>2026-04-04T12:52:56.999Z</time></trkpt><trkpt lat="46.4024794114929" lon="13.519846602260353"><ele>994.0</ele><time>2026-04-04T12:52:57.999Z</time></trkpt><trkpt lat="46.402401887700115" lon="13.519700445742039"><ele>994.0</ele><time>2026-04-04T12:52:58.999Z</time></trkpt><trkpt lat="46.40232155838" lon="13.519553683488471"><ele>994.0</ele><time>2026-04-04T12:52:59.999Z</time></trkpt><trkpt lat="46.402239691635195" lon="13.519404839109137"><ele>994.0</ele><time>2026-04-04T12:53:00.999Z</time></trkpt><trkpt lat="46.40215939133429" lon="13.519253486187344"><ele>993.75</ele><time>2026-04-04T12:53:01.999Z</time></trkpt><trkpt lat="46.402075118262516" lon="13.519100328445854"><ele>993.5</ele><time>2026-04-04T12:53:02.999Z</time></trkpt><trkpt lat="46.40199023794865" lon="13.518945851853504"><ele>993.25</ele><time>2026-04-04T12:53:03.999Z</time></trkpt><trkpt lat="46.40191724127221" lon="13.5187699701502"><ele>993.0</ele><time>2026-04-04T12:53:04.999Z</time></trkpt><trkpt lat="46.401827649862085" lon="13.518605260454525"><ele>993.0</ele><time>2026-04-04T12:53:05.999Z</time></trkpt><trkpt lat="46.40172605596477" lon="13.51845709827477"><ele>993.0</ele><time>2026-04-04T12:53:06.999Z</time></trkpt><trkpt lat="46.401639978780146" lon="13.518289278496667"><ele>993.0</ele><time>2026-04-04T12:53:07.999Z</time></trkpt><trkpt lat="46.40156450931353" lon="13.518115931013076"><ele>993.0</ele><time>2026-04-04T12:53:08.999Z</time></trkpt><trkpt lat="46.4015023964325" lon="13.517931874335185"><ele>994.25</ele><time>2026-04-04T12:53:09.999Z</time></trkpt><trkpt lat="46.401459768000606" lon="13.517728684329239"><ele>995.5</ele><time>2026-04-04T12:53:10.999Z</time></trkpt><trkpt lat="46.401402535403264" lon="13.51754037398297"><ele>996.75</ele><time>2026-04-04T12:53:11.999Z</time></trkpt><trkpt lat="46.401348451026976" lon="13.517358351290824"><ele>998.0</ele><time>2026-04-04T12:53:12.999Z</time></trkpt><trkpt lat="46.40130392922236" lon="13.51718162089036"><ele>997.0</ele><time>2026-04-04T12:53:13.999Z</time></trkpt><trkpt lat="46.401254706596845" lon="13.517005565649601"><ele>996.0</ele><time>2026-04-04T12:53:14.999Z</time></trkpt><trkpt lat="46.401236249784965" lon="13.516801826464091"><ele>995.0</ele><time>2026-04-04T12:53:15.999Z</time></trkpt><trkpt lat="46.40121612984044" lon="13.516596183108739"><ele>994.0</ele><time>2026-04-04T12:53:17Z</time></trkpt><trkpt lat="46.401200876053686" lon="13.51640043659974"><ele>994.25</ele><time>2026-04-04T12:53:18Z</time></trkpt><trkpt lat="46.401190394446076" lon="13.516214550979454"><ele>994.5</ele><time>2026-04-04T12:53:19Z</time></trkpt><trkpt lat="46.40118183599337" lon="13.51603625202001"><ele>994.75</ele><time>2026-04-04T12:53:20Z</time></trkpt><trkpt lat="46.40117140694739" lon="13.515867527218278"><ele>995.0</ele><time>2026-04-04T12:53:21Z</time></trkpt><trkpt lat="46.40116273707786" lon="13.515705591607984"><ele>995.0</ele><time>2026-04-04T12:53:22Z</time></trkpt><trkpt lat="46.40115234809514" lon="13.51554478303659"><ele>995.0</ele><time>2026-04-04T12:53:23Z</time></trkpt><trkpt lat="46.401137665677524" lon="13.51537805164823"><ele>995.0</ele><time>2026-04-04T12:53:24Z</time></trkpt><trkpt lat="46.40112690656089" lon="13.515205255684506"><ele>995.0</ele><time>2026-04-04T12:53:25Z</time></trkpt><trkpt lat="46.40112352633592" lon="13.515033427121656"><ele>995.25</ele><time>2026-04-04T12:53:26Z</time></trkpt><trkpt lat="46.401128401694116" lon="13.51486151448559"><ele>995.5</ele><time>2026-04-04T12:53:27Z</time></trkpt><trkpt lat="46.401147893253864" lon="13.514696041082065"><ele>995.75</ele><time>2026-04-04T12:53:28Z</time></trkpt><trkpt lat="46.40119114259072" lon="13.514543830711274"><ele>996.0</ele><time>2026-04-04T12:53:29Z</time></trkpt><trkpt lat="46.401255253592204" lon="13.514401428684529"><ele>997.1999999999999</ele><time>2026-04-04T12:53:30Z</time></trkpt><trkpt lat="46.40132915723175" lon="13.514272271180667"><ele>998.3999999999999</ele><time>2026-04-04T12:53:31Z</time></trkpt><trkpt lat="46.4014010423538" lon="13.514147965267938"><ele>999.6</ele><time>2026-04-04T12:53:32Z</time></trkpt><trkpt lat="46.40146962265513" lon="13.514026020358838"><ele>1000.8</ele><time>2026-04-04T12:53:33Z</time></trkpt><trkpt lat="46.4015324539578" lon="13.513899142454516"><ele>1002.0</ele><time>2026-04-04T12:53:34Z</time></trkpt><trkpt lat="46.4015837654674" lon="13.513757991019824"><ele>1004.8</ele><time>2026-04-04T12:53:35Z</time></trkpt><trkpt lat="46.401621732956016" lon="13.513605528136448"><ele>1007.6</ele><time>2026-04-04T12:53:36Z</time></trkpt><trkpt lat="46.40164179222607" lon="13.513453463669126"><ele>1010.3999999999999</ele><time>2026-04-04T12:53:37Z</time></trkpt><trkpt lat="46.401641749610256" lon="13.513309363984122"><ele>1013.1999999999999</ele><time>2026-04-04T12:53:38Z</time></trkpt><trkpt lat="46.401627488013915" lon="13.513164934258912"><ele>1016.0</ele><time>2026-04-04T12:53:39Z</time></trkpt><trkpt lat="46.40159728206048" lon="13.513007732553628"><ele>1019.3333333333334</ele><time>2026-04-04T12:53:40Z</time></trkpt><trkpt lat="46.40155725404198" lon="13.512811935439778"><ele>1022.6666666666667</ele><time>2026-04-04T12:53:41Z</time></trkpt><trkpt lat="46.40147461761864" lon="13.512595691232983"><ele>1026.0</ele><time>2026-04-04T12:53:42Z</time></trkpt><trkpt lat="46.4013743711914" lon="13.512357171618609"><ele>1023.5</ele><time>2026-04-04T12:53:43Z</time></trkpt><trkpt lat="46.401260064848984" lon="13.512079331745326"><ele>1021.0</ele><time>2026-04-04T12:53:44Z</time></trkpt><trkpt lat="46.40115224680037" lon="13.511783278868192"><ele>1021.0</ele><time>2026-04-04T12:53:45Z</time></trkpt><trkpt lat="46.40103257304327" lon="13.511488486912816"><ele>1021.0</ele><time>2026-04-04T12:53:46Z</time></trkpt><trkpt lat="46.400917724292036" lon="13.511167849218435"><ele>1024.0</ele><time>2026-04-04T12:53:47Z</time></trkpt><trkpt lat="46.400780910907486" lon="13.510883622224709"><ele>1027.0</ele><time>2026-04-04T12:53:48Z</time></trkpt><trkpt lat="46.40066356172365" lon="13.510599267732017"><ele>1028.5</ele><time>2026-04-04T12:53:49Z</time></trkpt><trkpt lat="46.40054114746069" lon="13.51032246812726"><ele>1030.0</ele><time>2026-04-04T12:53:50Z</time></trkpt><trkpt lat="46.400429316029" lon="13.510035555548066"><ele>1030.0</ele><time>2026-04-04T12:53:51Z</time></trkpt><trkpt lat="46.400282085133654" lon="13.50976150715754"><ele>1030.0</ele><time>2026-04-04T12:53:52Z</time></trkpt><trkpt lat="46.400117582102865" lon="13.509506231390326"><ele>1030.0</ele><time>2026-04-04T12:53:53Z</time></trkpt><trkpt lat="46.39995763810605" lon="13.509260557278578"><ele>1030.0</ele><time>2026-04-04T12:53:54Z</time></trkpt><trkpt lat="46.39980881010704" lon="13.509032812064717"><ele>1030.0</ele><time>2026-04-04T12:53:55Z</time></trkpt><trkpt lat="46.39967214927933" lon="13.508809477591132"><ele>1029.0</ele><time>2026-04-04T12:53:56Z</time></trkpt><trkpt lat="46.399550247155936" lon="13.50855742132698"><ele>1028.0</ele><time>2026-04-04T12:53:57Z</time></trkpt><trkpt lat="46.3994454767857" lon="13.508276368757963"><ele>1027.0</ele><time>2026-04-04T12:53:58Z</time></trkpt><trkpt lat="46.39933269822391" lon="13.50797844528771"><ele>1030.0</ele><time>2026-04-04T12:53:59Z</time></trkpt><trkpt lat="46.399232017138765" lon="13.507655551451743"><ele>1033.0</ele><time>2026-04-04T12:54:00Z</time></trkpt><trkpt lat="46.399123055764484" lon="13.507325554164906"><ele>1034.5</ele><time>2026-04-04T12:54:01Z</time></trkpt><trkpt lat="46.399012431806774" lon="13.506992810524423"><ele>1036.0</ele><time>2026-04-04T12:54:02Z</time></trkpt><trkpt lat="46.398913901950834" lon="13.50669140164965"><ele>1032.5</ele><time>2026-04-04T12:54:03Z</time></trkpt><trkpt lat="46.398808832000896" lon="13.506370433721028"><ele>1029.0</ele><time>2026-04-04T12:54:04Z</time></trkpt><trkpt lat="46.39869919916783" lon="13.506033694698699"><ele>1029.0</ele><time>2026-04-04T12:54:05Z</time></trkpt><trkpt lat="46.39859347354018" lon="13.50570058361626"><ele>1029.0</ele><time>2026-04-04T12:54:06Z</time></trkpt><trkpt lat="46.39849092370876" lon="13.505378381398655"><ele>1032.5</ele><time>2026-04-04T12:54:07Z</time></trkpt><trkpt lat="46.39839014577118" lon="13.505065164773388"><ele>1036.0</ele><time>2026-04-04T12:54:08Z</time></trkpt><trkpt lat="46.39829399296248" lon="13.504764707712074"><ele>1037.5</ele><time>2026-04-04T12:54:09Z</time></trkpt><trkpt lat="46.39819991071493" lon="13.504465353636995"><ele>1039.0</ele><time>2026-04-04T12:54:10Z</time></trkpt><trkpt lat="46.39809874960865" lon="13.504159372772001"><ele>1034.5</ele><time>2026-04-04T12:54:11Z</time></trkpt><trkpt lat="46.397995943161206" lon="13.503846515383877"><ele>1030.0</ele><time>2026-04-04T12:54:12Z</time></trkpt><trkpt lat="46.397895187049016" lon="13.503542526714648"><ele>1029.6666666666665</ele><time>2026-04-04T12:54:12.999Z</time></trkpt><trkpt lat="46.3978009491894" lon="13.50325946275737"><ele>1029.3333333333333</ele><time>2026-04-04T12:54:13.999Z</time></trkpt><trkpt lat="46.39771424346324" lon="13.50299760300083"><ele>1029.0</ele><time>2026-04-04T12:54:14.999Z</time></trkpt><trkpt lat="46.39762889508394" lon="13.502769809893346"><ele>1030.0</ele><time>2026-04-04T12:54:15.999Z</time></trkpt><trkpt lat="46.39753978388879" lon="13.502558419223524"><ele>1031.0</ele><time>2026-04-04T12:54:16.999Z</time></trkpt><trkpt lat="46.39740337319244" lon="13.50237908452325"><ele>1032.0</ele><time>2026-04-04T12:54:17.999Z</time></trkpt><trkpt lat="46.39722679582587" lon="13.50226002436449"><ele>1032.0</ele><time>2026-04-04T12:54:18.999Z</time></trkpt><trkpt lat="46.39707075304909" lon="13.502130721657029"><ele>1032.0</ele><time>2026-04-04T12:54:19.999Z</time></trkpt><trkpt lat="46.396937935560885" lon="13.50197499345833"><ele>1032.0</ele><time>2026-04-04T12:54:20.999Z</time></trkpt><trkpt lat="46.39679846641331" lon="13.501841882158075"><ele>1032.0</ele><time>2026-04-04T12:54:21.999Z</time></trkpt><trkpt lat="46.39672438238724" lon="13.501542269735232"><ele>1032.0</ele><time>2026-04-04T12:54:22.999Z</time></trkpt><trkpt lat="46.39663095732518" lon="13.501276401889932"><ele>1032.0</ele><time>2026-04-04T12:54:23.999Z</time></trkpt><trkpt lat="46.396519200962196" lon="13.500986908066261"><ele>1036.0</ele><time>2026-04-04T12:54:24.999Z</time></trkpt><trkpt lat="46.39639864036681" lon="13.500666602481708"><ele>1040.0</ele><time>2026-04-04T12:54:25.999Z</time></trkpt><trkpt lat="46.396267295822625" lon="13.50031743380553"><ele>1043.0</ele><time>2026-04-04T12:54:26.999Z</time></trkpt><trkpt lat="46.396125847097586" lon="13.499943155517707"><ele>1046.0</ele><time>2026-04-04T12:54:27.999Z</time></trkpt><trkpt lat="46.395976603645465" lon="13.49955436452212"><ele>1050.0</ele><time>2026-04-04T12:54:28.999Z</time></trkpt><trkpt lat="46.395830220327575" lon="13.499168660507028"><ele>1054.0</ele><time>2026-04-04T12:54:29.999Z</time></trkpt><trkpt lat="46.395696915026285" lon="13.498823959723829"><ele>1056.5</ele><time>2026-04-04T12:54:30.999Z</time></trkpt><trkpt lat="46.395578901273694" lon="13.498514675314114"><ele>1059.0</ele><time>2026-04-04T12:54:31.999Z</time></trkpt><trkpt lat="46.39548468759799" lon="13.498245614132571"><ele>1059.0</ele><time>2026-04-04T12:54:32.999Z</time></trkpt><trkpt lat="46.395415164641655" lon="13.497996868807801"><ele>1059.0</ele><time>2026-04-04T12:54:33.999Z</time></trkpt><trkpt lat="46.395385466555176" lon="13.497754885863602"><ele>1059.0</ele><time>2026-04-04T12:54:34.999Z</time></trkpt><trkpt lat="46.39538072738246" lon="13.497495037811806"><ele>1062.0</ele><time>2026-04-04T12:54:35.999Z</time></trkpt><trkpt lat="46.39540375769844" lon="13.497228628212298"><ele>1065.0</ele><time>2026-04-04T12:54:36.999Z</time></trkpt><trkpt lat="46.3954318841516" lon="13.496970680458148"><ele>1068.0</ele><time>2026-04-04T12:54:37.999Z</time></trkpt><trkpt lat="46.395447639229154" lon="13.496750520686966"><ele>1070.0</ele><time>2026-04-04T12:54:38.999Z</time></trkpt><trkpt lat="46.39544643211665" lon="13.496562043774846"><ele>1072.0</ele><time>2026-04-04T12:54:39.999Z</time></trkpt><trkpt lat="46.395412988666095" lon="13.496356050945021"><ele>1074.0</ele><time>2026-04-04T12:54:40.999Z</time></trkpt><trkpt lat="46.39535000383833" lon="13.496139550251943"><ele>1076.0</ele><time>2026-04-04T12:54:41.999Z</time></trkpt><trkpt lat="46.395278388590334" lon="13.495914419339757"><ele>1078.6666666666667</ele><time>2026-04-04T12:54:42.999Z</time></trkpt><trkpt lat="46.39521219600252" lon="13.495684004634086"><ele>1081.3333333333333</ele><time>2026-04-04T12:54:43.999Z</time></trkpt><trkpt lat="46.39515009304889" lon="13.495473557984338"><ele>1084.0</ele><time>2026-04-04T12:54:44.999Z</time></trkpt><trkpt lat="46.39509833374747" lon="13.495268773936099"><ele>1086.75</ele><time>2026-04-04T12:54:45.999Z</time></trkpt><trkpt lat="46.39505914123079" lon="13.495053479891208"><ele>1089.5</ele><time>2026-04-04T12:54:46.999Z</time></trkpt><trkpt lat="46.39501595867713" lon="13.494855068325002"><ele>1092.25</ele><time>2026-04-04T12:54:47.999Z</time></trkpt><trkpt lat="46.394943065232674" lon="13.494672779459314"><ele>1095.0</ele><time>2026-04-04T12:54:48.999Z</time></trkpt><trkpt lat="46.39486040038959" lon="13.494500384311989"><ele>1097.4</ele><time>2026-04-04T12:54:49.999Z</time></trkpt><trkpt lat="46.39480016039204" lon="13.49433876720753"><ele>1099.8</ele><time>2026-04-04T12:54:50.999Z</time></trkpt><trkpt lat="46.394782774433885" lon="13.494176536589658"><ele>1102.2</ele><time>2026-04-04T12:54:51.999Z</time></trkpt><trkpt lat="46.3947950901192" lon="13.494029393343475"><ele>1104.6</ele><time>2026-04-04T12:54:52.999Z</time></trkpt><trkpt lat="46.394833095989924" lon="13.493937556447223"><ele>1107.0</ele><time>2026-04-04T12:54:53.999Z</time></trkpt><trkpt lat="46.394893264184" lon="13.49389873196011"><ele>1107.0</ele><time>2026-04-04T12:54:54.999Z</time></trkpt><trkpt lat="46.39496479474029" lon="13.493911755249355"><ele>1107.0</ele><time>2026-04-04T12:54:55.999Z</time></trkpt><trkpt lat="46.3950236687629" lon="13.493987316267196"><ele>1107.0</ele><time>2026-04-04T12:54:56.999Z</time></trkpt><trkpt lat="46.3950704486238" lon="13.49412597646868"><ele>1107.0</ele><time>2026-04-04T12:54:57.999Z</time></trkpt><trkpt lat="46.3951101395044" lon="13.494307572476266"><ele>1107.0</ele><time>2026-04-04T12:54:58.999Z</time></trkpt><trkpt lat="46.395166751760854" lon="13.494519509294122"><ele>1103.0</ele><time>2026-04-04T12:54:59.999Z</time></trkpt><trkpt lat="46.395233862454646" lon="13.494767753001792"><ele>1099.0</ele><time>2026-04-04T12:55:00.999Z</time></trkpt><trkpt lat="46.39531081902061" lon="13.495032898985425"><ele>1095.0</ele><time>2026-04-04T12:55:01.999Z</time></trkpt><trkpt lat="46.395375386478094" lon="13.495269101772559"><ele>1097.25</ele><time>2026-04-04T12:55:02.999Z</time></trkpt><trkpt lat="46.39542795471661" lon="13.495473475990778"><ele>1099.5</ele><time>2026-04-04T12:55:03.999Z</time></trkpt><trkpt lat="46.395482576221276" lon="13.49563598245688"><ele>1101.75</ele><time>2026-04-04T12:55:04.999Z</time></trkpt><trkpt lat="46.39555898512682" lon="13.495755638738839"><ele>1104.0</ele><time>2026-04-04T12:55:05.999Z</time></trkpt><trkpt lat="46.39566862153747" lon="13.495846727253353"><ele>1104.0</ele><time>2026-04-04T12:55:06.999Z</time></trkpt><trkpt lat="46.3957922681231" lon="13.4958871192672"><ele>1104.0</ele><time>2026-04-04T12:55:07.999Z</time></trkpt><trkpt lat="46.395900788349174" lon="13.4958757713339"><ele>1104.0</ele><time>2026-04-04T12:55:08.999Z</time></trkpt><trkpt lat="46.39600111988653" lon="13.4958032640011"><ele>1104.0</ele><time>2026-04-04T12:55:09.999Z</time></trkpt><trkpt lat="46.39609169854633" lon="13.49568228837063"><ele>1104.0</ele><time>2026-04-04T12:55:10.999Z</time></trkpt><trkpt lat="46.396155681726164" lon="13.495523004577187"><ele>1104.0</ele><time>2026-04-04T12:55:11.999Z</time></trkpt><trkpt lat="46.39617982269843" lon="13.495341811433157"><ele>1104.0</ele><time>2026-04-04T12:55:12.999Z</time></trkpt><trkpt lat="46.39616537000977" lon="13.495159854572442"><ele>1104.0</ele><time>2026-04-04T12:55:13.999Z</time></trkpt><trkpt lat="46.396110348111506" lon="13.494998731217686"><ele>1107.3333333333333</ele><time>2026-04-04T12:55:14.999Z</time></trkpt><trkpt lat="46.39601927728644" lon="13.494847238178798"><ele>1110.6666666666665</ele><time>2026-04-04T12:55:15.999Z</time></trkpt><trkpt lat="46.395914630984066" lon="13.494684959333972"><ele>1114.0</ele><time>2026-04-04T12:55:16.999Z</time></trkpt><trkpt lat="46.395803975620474" lon="13.494500189442423"><ele>1111.6666666666665</ele><time>2026-04-04T12:55:17.999Z</time></trkpt><trkpt lat="46.395689789404905" lon="13.494297907901673"><ele>1109.3333333333333</ele><time>2026-04-04T12:55:18.999Z</time></trkpt><trkpt lat="46.3955813925064" lon="13.494094430927797"><ele>1107.0</ele><time>2026-04-04T12:55:19.999Z</time></trkpt><trkpt lat="46.39549171909301" lon="13.493908439033353"><ele>1110.0</ele><time>2026-04-04T12:55:20.999Z</time></trkpt><trkpt lat="46.39543361358289" lon="13.493728366879521"><ele>1113.0</ele><time>2026-04-04T12:55:21.999Z</time></trkpt><trkpt lat="46.39540866226802" lon="13.493524323962905"><ele>1116.0</ele><time>2026-04-04T12:55:23Z</time></trkpt><trkpt lat="46.39541138106239" lon="13.493308912144547"><ele>1119.0</ele><time>2026-04-04T12:55:24Z</time></trkpt><trkpt lat="46.39540767700052" lon="13.49311344460883"><ele>1119.0</ele><time>2026-04-04T12:55:25Z</time></trkpt><trkpt lat="46.39536598445584" lon="13.49293125945094"><ele>1119.0</ele><time>2026-04-04T12:55:26Z</time></trkpt><trkpt lat="46.39529149668248" lon="13.492767574006402"><ele>1119.0</ele><time>2026-04-04T12:55:27Z</time></trkpt><trkpt lat="46.39521075331228" lon="13.49260464664482"><ele>1119.0</ele><time>2026-04-04T12:55:28Z</time></trkpt><trkpt lat="46.395113151979984" lon="13.49249389949737"><ele>1121.0</ele><time>2026-04-04T12:55:29Z</time></trkpt><trkpt lat="46.39502748729336" lon="13.492423816209975"><ele>1123.0</ele><time>2026-04-04T12:55:30Z</time></trkpt><trkpt lat="46.39496249008547" lon="13.492362773161197"><ele>1125.0</ele><time>2026-04-04T12:55:31Z</time></trkpt><trkpt lat="46.39490110076123" lon="13.492301373545972"><ele>1127.0</ele><time>2026-04-04T12:55:32Z</time></trkpt><trkpt lat="46.39489156426676" lon="13.492182015282971"><ele>1129.0</ele><time>2026-04-04T12:55:33Z</time></trkpt><trkpt lat="46.39491975369925" lon="13.49206472196646"><ele>1131.0</ele><time>2026-04-04T12:55:34Z</time></trkpt><trkpt lat="46.39498533372672" lon="13.491972322053273"><ele>1131.0</ele><time>2026-04-04T12:55:35Z</time></trkpt><trkpt lat="46.39507725045284" lon="13.491946081908974"><ele>1131.0</ele><time>2026-04-04T12:55:36Z</time></trkpt><trkpt lat="46.39516331284422" lon="13.491994651911252"><ele>1131.0</ele><time>2026-04-04T12:55:37Z</time></trkpt><trkpt lat="46.39524633359904" lon="13.49209555455142"><ele>1131.0</ele><time>2026-04-04T12:55:38Z</time></trkpt><trkpt lat="46.39533368246846" lon="13.492212909887142"><ele>1131.0</ele><time>2026-04-04T12:55:39Z</time></trkpt><trkpt lat="46.39543905483024" lon="13.492331938760923"><ele>1133.5</ele><time>2026-04-04T12:55:40Z</time></trkpt><trkpt lat="46.39555781907905" lon="13.492467750736354"><ele>1136.0</ele><time>2026-04-04T12:55:41Z</time></trkpt><trkpt lat="46.39567035222396" lon="13.492599971158588"><ele>1138.5</ele><time>2026-04-04T12:55:42Z</time></trkpt><trkpt lat="46.39577168081873" lon="13.492717876287465"><ele>1141.0</ele><time>2026-04-04T12:55:43Z</time></trkpt><trkpt lat="46.39586420383279" lon="13.492826591822398"><ele>1139.0</ele><time>2026-04-04T12:55:44Z</time></trkpt><trkpt lat="46.39594278786358" lon="13.492934774925407"><ele>1137.0</ele><time>2026-04-04T12:55:45Z</time></trkpt><trkpt lat="46.39599940053527" lon="13.49305499966352"><ele>1135.0</ele><time>2026-04-04T12:55:46Z</time></trkpt><trkpt lat="46.39602905490452" lon="13.493190745274765"><ele>1133.0</ele><time>2026-04-04T12:55:47Z</time></trkpt><trkpt lat="46.3960478972397" lon="13.493313694345426"><ele>1131.0</ele><time>2026-04-04T12:55:48Z</time></trkpt><trkpt lat="46.39608685800746" lon="13.493397351961825"><ele>1131.0</ele><time>2026-04-04T12:55:49Z</time></trkpt><trkpt lat="46.39615193926736" lon="13.493447855428448"><ele>1131.0</ele><time>2026-04-04T12:55:50Z</time></trkpt><trkpt lat="46.39622487498533" lon="13.493427865641516"><ele>1131.0</ele><time>2026-04-04T12:55:51Z</time></trkpt><trkpt lat="46.39629120066655" lon="13.493345317873477"><ele>1131.0</ele><time>2026-04-04T12:55:52Z</time></trkpt><trkpt lat="46.396321693140926" lon="13.49322471399787"><ele>1131.0</ele><time>2026-04-04T12:55:53Z</time></trkpt><trkpt lat="46.39630338053438" lon="13.49308920912361"><ele>1131.0</ele><time>2026-04-04T12:55:54Z</time></trkpt><trkpt lat="46.396234621650464" lon="13.492966754343923"><ele>1133.5</ele><time>2026-04-04T12:55:55Z</time></trkpt><trkpt lat="46.39617076456984" lon="13.492811522966656"><ele>1136.0</ele><time>2026-04-04T12:55:56Z</time></trkpt><trkpt lat="46.39608737503604" lon="13.492648797638857"><ele>1138.5</ele><time>2026-04-04T12:55:57Z</time></trkpt><trkpt lat="46.39599818610407" lon="13.492481705606858"><ele>1141.0</ele><time>2026-04-04T12:55:58Z</time></trkpt><trkpt lat="46.39592100809316" lon="13.492319411093806"><ele>1141.0</ele><time>2026-04-04T12:55:59Z</time></trkpt><trkpt lat="46.39586326293112" lon="13.492147061796805"><ele>1141.0</ele><time>2026-04-04T12:56:00Z</time></trkpt><trkpt lat="46.39581899901431" lon="13.491966700373853"><ele>1141.0</ele><time>2026-04-04T12:56:01Z</time></trkpt><trkpt lat="46.395777153802925" lon="13.491755250653437"><ele>1141.0</ele><time>2026-04-04T12:56:02Z</time></trkpt><trkpt lat="46.39571371877731" lon="13.49150417760649"><ele>1146.5</ele><time>2026-04-04T12:56:03Z</time></trkpt><trkpt lat="46.395618609820204" lon="13.49122765447653"><ele>1152.0</ele><time>2026-04-04T12:56:04Z</time></trkpt><trkpt lat="46.39549585068729" lon="13.490921794020384"><ele>1152.0</ele><time>2026-04-04T12:56:05Z</time></trkpt><trkpt lat="46.39535846822563" lon="13.490593175519454"><ele>1152.0</ele><time>2026-04-04T12:56:06Z</time></trkpt><trkpt lat="46.3952268281072" lon="13.490276999408794"><ele>1156.6666666666667</ele><time>2026-04-04T12:56:07Z</time></trkpt><trkpt lat="46.395118115371936" lon="13.490011241487212"><ele>1161.3333333333335</ele><time>2026-04-04T12:56:08Z</time></trkpt><trkpt lat="46.395027399400895" lon="13.489796737605852"><ele>1166.0</ele><time>2026-04-04T12:56:09Z</time></trkpt><trkpt lat="46.39493822939631" lon="13.489612742884573"><ele>1166.6666666666667</ele><time>2026-04-04T12:56:10Z</time></trkpt><trkpt lat="46.39483822011231" lon="13.489452369060087"><ele>1167.3333333333333</ele><time>2026-04-04T12:56:11Z</time></trkpt><trkpt lat="46.394704167371536" lon="13.489313370681426"><ele>1168.0</ele><time>2026-04-04T12:56:12Z</time></trkpt><trkpt lat="46.39457219682658" lon="13.489187101650423"><ele>1168.0</ele><time>2026-04-04T12:56:13Z</time></trkpt><trkpt lat="46.39446202227709" lon="13.4890424271152"><ele>1168.0</ele><time>2026-04-04T12:56:14Z</time></trkpt><trkpt lat="46.39437468928557" lon="13.48884865914201"><ele>1168.0</ele><time>2026-04-04T12:56:15Z</time></trkpt><trkpt lat="46.39428875796514" lon="13.488634122017816"><ele>1170.3333333333333</ele><time>2026-04-04T12:56:16Z</time></trkpt><trkpt lat="46.394224520624846" lon="13.488378862711196"><ele>1172.6666666666667</ele><time>2026-04-04T12:56:17Z</time></trkpt><trkpt lat="46.394145194138446" lon="13.488116480491025"><ele>1175.0</ele><time>2026-04-04T12:56:18Z</time></trkpt><trkpt lat="46.39407821432407" lon="13.487888540868303"><ele>1175.5</ele><time>2026-04-04T12:56:19Z</time></trkpt><trkpt lat="46.394024093129524" lon="13.487698706702176"><ele>1176.0</ele><time>2026-04-04T12:56:19.999Z</time></trkpt><trkpt lat="46.3939746217011" lon="13.487526720921563"><ele>1176.5</ele><time>2026-04-04T12:56:20.999Z</time></trkpt><trkpt lat="46.39390981222374" lon="13.487376522015484"><ele>1177.0</ele><time>2026-04-04T12:56:21.999Z</time></trkpt><trkpt lat="46.39382842689583" lon="13.48723491485366"><ele>1176.6666666666665</ele><time>2026-04-04T12:56:22.999Z</time></trkpt><trkpt lat="46.39370286030182" lon="13.487138821786965"><ele>1176.3333333333333</ele><time>2026-04-04T12:56:23.999Z</time></trkpt><trkpt lat="46.39355426979323" lon="13.487087473143204"><ele>1176.0</ele><time>2026-04-04T12:56:24.999Z</time></trkpt><trkpt lat="46.393399839712615" lon="13.487043349224681"><ele>1176.0</ele><time>2026-04-04T12:56:25.999Z</time></trkpt><trkpt lat="46.39325163316319" lon="13.486999835374158"><ele>1176.0</ele><time>2026-04-04T12:56:26.999Z</time></trkpt><trkpt lat="46.393121879803374" lon="13.486947085038999"><ele>1176.0</ele><time>2026-04-04T12:56:27.999Z</time></trkpt><trkpt lat="46.39301721379894" lon="13.48686712408396"><ele>1176.0</ele><time>2026-04-04T12:56:28.999Z</time></trkpt><trkpt lat="46.39293257323438" lon="13.486747205618148"><ele>1178.5</ele><time>2026-04-04T12:56:29.999Z</time></trkpt><trkpt lat="46.392875170669186" lon="13.486607017864761"><ele>1181.0</ele><time>2026-04-04T12:56:30.999Z</time></trkpt><trkpt lat="46.39281442124817" lon="13.486430552473466"><ele>1183.5</ele><time>2026-04-04T12:56:31.999Z</time></trkpt><trkpt lat="46.39274882963719" lon="13.486234755404285"><ele>1186.0</ele><time>2026-04-04T12:56:32.999Z</time></trkpt><trkpt lat="46.3926827807533" lon="13.486032601644048"><ele>1186.0</ele><time>2026-04-04T12:56:33.999Z</time></trkpt><trkpt lat="46.39260771207887" lon="13.485857827781578"><ele>1186.0</ele><time>2026-04-04T12:56:34.999Z</time></trkpt><trkpt lat="46.39254996824896" lon="13.485673220291073"><ele>1186.0</ele><time>2026-04-04T12:56:35.999Z</time></trkpt><trkpt lat="46.39248917243117" lon="13.4854864767798"><ele>1186.0</ele><time>2026-04-04T12:56:36.999Z</time></trkpt><trkpt lat="46.39242108273392" lon="13.48530679950748"><ele>1187.0</ele><time>2026-04-04T12:56:37.999Z</time></trkpt><trkpt lat="46.392335229434096" lon="13.485157386039416"><ele>1188.0</ele><time>2026-04-04T12:56:38.999Z</time></trkpt><trkpt lat="46.39222959298062" lon="13.48503500324392"><ele>1189.0</ele><time>2026-04-04T12:56:39.999Z</time></trkpt><trkpt lat="46.39210919117548" lon="13.484945745801832"><ele>1190.0</ele><time>2026-04-04T12:56:40.999Z</time></trkpt><trkpt lat="46.391983021182085" lon="13.484860504952268"><ele>1190.0</ele><time>2026-04-04T12:56:41.999Z</time></trkpt><trkpt lat="46.391835879354886" lon="13.484807608222987"><ele>1190.0</ele><time>2026-04-04T12:56:42.999Z</time></trkpt><trkpt lat="46.3916773702886" lon="13.48477452505496"><ele>1190.0</ele><time>2026-04-04T12:56:43.999Z</time></trkpt><trkpt lat="46.391517398865076" lon="13.484758222298387"><ele>1190.0</ele><time>2026-04-04T12:56:44.999Z</time></trkpt><trkpt lat="46.391380282545285" lon="13.484748954578503"><ele>1190.0</ele><time>2026-04-04T12:56:45.999Z</time></trkpt><trkpt lat="46.39126532927296" lon="13.484745655464803"><ele>1190.0</ele><time>2026-04-04T12:56:46.999Z</time></trkpt><trkpt lat="46.39116004525977" lon="13.484693070989325"><ele>1190.0</ele><time>2026-04-04T12:56:47.999Z</time></trkpt><trkpt lat="46.39106721538194" lon="13.484603085725443"><ele>1191.5</ele><time>2026-04-04T12:56:48.999Z</time></trkpt><trkpt lat="46.3909747663548" lon="13.484469147383107"><ele>1193.0</ele><time>2026-04-04T12:56:49.999Z</time></trkpt><trkpt lat="46.39090632109643" lon="13.484303928866302"><ele>1194.5</ele><time>2026-04-04T12:56:50.999Z</time></trkpt><trkpt lat="46.390867925182214" lon="13.484107129770802"><ele>1196.0</ele><time>2026-04-04T12:56:51.999Z</time></trkpt><trkpt lat="46.39081796424594" lon="13.483905290203941"><ele>1194.6666666666667</ele><time>2026-04-04T12:56:52.999Z</time></trkpt><trkpt lat="46.39076173571438" lon="13.48368719988496"><ele>1193.3333333333333</ele><time>2026-04-04T12:56:53.999Z</time></trkpt><trkpt lat="46.39070683822269" lon="13.483452637983177"><ele>1192.0</ele><time>2026-04-04T12:56:54.999Z</time></trkpt><trkpt lat="46.39065703536247" lon="13.483232385674654"><ele>1192.0</ele><time>2026-04-04T12:56:55.999Z</time></trkpt><trkpt lat="46.39060354832574" lon="13.483030504418243"><ele>1192.0</ele><time>2026-04-04T12:56:56.999Z</time></trkpt><trkpt lat="46.39054327949297" lon="13.482841518630844"><ele>1192.0</ele><time>2026-04-04T12:56:57.999Z</time></trkpt><trkpt lat="46.39045689079327" lon="13.482662689817097"><ele>1192.0</ele><time>2026-04-04T12:56:58.999Z</time></trkpt><trkpt lat="46.39034590077329" lon="13.482499125664564"><ele>1192.25</ele><time>2026-04-04T12:56:59.999Z</time></trkpt><trkpt lat="46.39024866047102" lon="13.482325616429518"><ele>1192.5</ele><time>2026-04-04T12:57:00.999Z</time></trkpt><trkpt lat="46.390149839533805" lon="13.482184380917117"><ele>1192.75</ele><time>2026-04-04T12:57:01.999Z</time></trkpt><trkpt lat="46.39005231909121" lon="13.482046702512719"><ele>1193.0</ele><time>2026-04-04T12:57:02.999Z</time></trkpt><trkpt lat="46.3899686578388" lon="13.481909450998977"><ele>1193.0</ele><time>2026-04-04T12:57:03.999Z</time></trkpt><trkpt lat="46.389897646811306" lon="13.481777323929606"><ele>1193.0</ele><time>2026-04-04T12:57:04.999Z</time></trkpt><trkpt lat="46.38982963538485" lon="13.481643994539272"><ele>1193.0</ele><time>2026-04-04T12:57:05.999Z</time></trkpt><trkpt lat="46.38979865127692" lon="13.48145563484156"><ele>1193.0</ele><time>2026-04-04T12:57:06.999Z</time></trkpt><trkpt lat="46.38978111627008" lon="13.481243723754321"><ele>1191.6666666666667</ele><time>2026-04-04T12:57:07.999Z</time></trkpt><trkpt lat="46.38975840052973" lon="13.48101991717408"><ele>1190.3333333333333</ele><time>2026-04-04T12:57:08.999Z</time></trkpt><trkpt lat="46.389750585297676" lon="13.48077253140758"><ele>1189.0</ele><time>2026-04-04T12:57:09.999Z</time></trkpt><trkpt lat="46.3897578463243" lon="13.480514141931113"><ele>1187.0</ele><time>2026-04-04T12:57:10.999Z</time></trkpt><trkpt lat="46.38977974587976" lon="13.480246834973707"><ele>1185.0</ele><time>2026-04-04T12:57:11.999Z</time></trkpt><trkpt lat="46.38979878145325" lon="13.479977246068996"><ele>1183.0</ele><time>2026-04-04T12:57:12.999Z</time></trkpt><trkpt lat="46.38980864072308" lon="13.479704750922238"><ele>1182.3333333333333</ele><time>2026-04-04T12:57:13.999Z</time></trkpt><trkpt lat="46.38981758219426" lon="13.479448489440157"><ele>1181.6666666666667</ele><time>2026-04-04T12:57:14.999Z</time></trkpt><trkpt lat="46.38984033118353" lon="13.479220903564665"><ele>1181.0</ele><time>2026-04-04T12:57:15.999Z</time></trkpt><trkpt lat="46.38988858979346" lon="13.4789982825052"><ele>1181.0</ele><time>2026-04-04T12:57:16.999Z</time></trkpt><trkpt lat="46.38996427247607" lon="13.478780687596775"><ele>1181.0</ele><time>2026-04-04T12:57:17.999Z</time></trkpt><trkpt lat="46.3900482767889" lon="13.47857354056649"><ele>1181.0</ele><time>2026-04-04T12:57:18.999Z</time></trkpt><trkpt lat="46.390120240054564" lon="13.478368639752384"><ele>1181.0</ele><time>2026-04-04T12:57:19.999Z</time></trkpt><trkpt lat="46.390177993812564" lon="13.478162603636823"><ele>1181.0</ele><time>2026-04-04T12:57:20.999Z</time></trkpt><trkpt lat="46.390217704425325" lon="13.477955586688385"><ele>1181.0</ele><time>2026-04-04T12:57:21.999Z</time></trkpt><trkpt lat="46.3902432064061" lon="13.477749489207975"><ele>1181.0</ele><time>2026-04-04T12:57:22.999Z</time></trkpt><trkpt lat="46.39025982643035" lon="13.477553562478414"><ele>1180.75</ele><time>2026-04-04T12:57:23.999Z</time></trkpt><trkpt lat="46.3902765063609" lon="13.477365606591917"><ele>1180.5</ele><time>2026-04-04T12:57:24.999Z</time></trkpt><trkpt lat="46.390291997557476" lon="13.477196927470732"><ele>1180.25</ele><time>2026-04-04T12:57:25.999Z</time></trkpt><trkpt lat="46.390302252578685" lon="13.477030901165778"><ele>1180.0</ele><time>2026-04-04T12:57:26.999Z</time></trkpt><trkpt lat="46.39031507892697" lon="13.47686070267978"><ele>1180.0</ele><time>2026-04-04T12:57:27.999Z</time></trkpt><trkpt lat="46.39033335601386" lon="13.476686658139641"><ele>1180.0</ele><time>2026-04-04T12:57:29Z</time></trkpt><trkpt lat="46.39036152960484" lon="13.47651514448456"><ele>1180.0</ele><time>2026-04-04T12:57:30Z</time></trkpt><trkpt lat="46.39041387716176" lon="13.476350422153285"><ele>1180.0</ele><time>2026-04-04T12:57:31Z</time></trkpt><trkpt lat="46.39048412159856" lon="13.476194050780538"><ele>1178.8</ele><time>2026-04-04T12:57:32Z</time></trkpt><trkpt lat="46.39055413988735" lon="13.476041439219916"><ele>1177.6</ele><time>2026-04-04T12:57:33Z</time></trkpt><trkpt lat="46.390610575241254" lon="13.475891978107084"><ele>1176.4</ele><time>2026-04-04T12:57:34Z</time></trkpt><trkpt lat="46.390646663445395" lon="13.475754366323214"><ele>1175.2</ele><time>2026-04-04T12:57:35Z</time></trkpt><trkpt lat="46.39067592045161" lon="13.475619732777812"><ele>1174.0</ele><time>2026-04-04T12:57:36Z</time></trkpt><trkpt lat="46.39070134461077" lon="13.475483023023301"><ele>1173.2</ele><time>2026-04-04T12:57:37Z</time></trkpt><trkpt lat="46.39072692845814" lon="13.475346153616922"><ele>1172.4</ele><time>2026-04-04T12:57:38Z</time></trkpt><trkpt lat="46.39075051108003" lon="13.475214958514519"><ele>1171.6</ele><time>2026-04-04T12:57:39Z</time></trkpt><trkpt lat="46.39077804718803" lon="13.475091173828195"><ele>1170.8</ele><time>2026-04-04T12:57:40Z</time></trkpt><trkpt lat="46.390800221870464" lon="13.474969829663554"><ele>1170.0</ele><time>2026-04-04T12:57:41Z</time></trkpt><trkpt lat="46.39081983317677" lon="13.47484856637353"><ele>1170.0</ele><time>2026-04-04T12:57:42Z</time></trkpt><trkpt lat="46.39083759421105" lon="13.474731476902427"><ele>1170.0</ele><time>2026-04-04T12:57:43Z</time></trkpt><trkpt lat="46.39085579782951" lon="13.474633851569395"><ele>1170.0</ele><time>2026-04-04T12:57:44Z</time></trkpt><trkpt lat="46.39087412356237" lon="13.474471037221669"><ele>1170.0</ele><time>2026-04-04T12:57:46Z</time></trkpt><trkpt lat="46.39074815927306" lon="13.474357618820447"><ele>1170.0</ele><time>2026-04-04T12:57:50Z</time></trkpt><trkpt lat="46.39070526690563" lon="13.474554294312867"><ele>1170.0</ele><time>2026-04-04T12:57:52Z</time></trkpt><trkpt lat="46.390674322852554" lon="13.474718863907897"><ele>1170.0</ele><time>2026-04-04T12:57:54Z</time></trkpt><trkpt lat="46.39062509109981" lon="13.4748725295974"><ele>1170.0</ele><time>2026-04-04T12:57:56Z</time></trkpt><trkpt lat="46.39059076832594" lon="13.47498941848008"><ele>1170.0</ele><time>2026-04-04T12:57:58Z</time></trkpt><trkpt lat="46.390558427533605" lon="13.47509744555518"><ele>1170.0</ele><time>2026-04-04T12:58:01Z</time></trkpt><trkpt lat="46.39052638042791" lon="13.475211492048777"><ele>1170.0</ele><time>2026-04-04T12:58:04Z</time></trkpt><trkpt lat="46.39049223804339" lon="13.475334345838116"><ele>1170.0</ele><time>2026-04-04T12:58:06Z</time></trkpt><trkpt lat="46.3904428373779" lon="13.475404054771795"><ele>1170.0</ele><time>2026-04-04T12:58:09Z</time></trkpt><trkpt lat="46.39043300938685" lon="13.475499504107974"><ele>1170.0</ele><time>2026-04-04T13:06:33Z</time></trkpt><trkpt lat="46.39050357477842" lon="13.475428267161233"><ele>1170.0</ele><time>2026-04-04T13:06:35Z</time></trkpt><trkpt lat="46.39053484423484" lon="13.475258254125576"><ele>1170.0</ele><time>2026-04-04T13:06:37Z</time></trkpt><trkpt lat="46.39057805187099" lon="13.475078745425822"><ele>1170.0</ele><time>2026-04-04T13:06:38.999Z</time></trkpt><trkpt lat="46.390605612900984" lon="13.474994735574782"><ele>1170.0</ele><time>2026-04-04T13:06:39.999Z</time></trkpt><trkpt lat="46.39065892274123" lon="13.474851427120896"><ele>1170.0</ele><time>2026-04-04T13:06:41.999Z</time></trkpt><trkpt lat="46.39069823081285" lon="13.474711457263437"><ele>1170.0</ele><time>2026-04-04T13:06:43.999Z</time></trkpt><trkpt lat="46.39073221771843" lon="13.474603807495214"><ele>1170.0</ele><time>2026-04-04T13:06:45.999Z</time></trkpt><trkpt lat="46.39075323399375" lon="13.474475399526073"><ele>1169.6</ele><time>2026-04-04T13:06:47.999Z</time></trkpt><trkpt lat="46.39080663148769" lon="13.474409973656229"><ele>1169.2</ele><time>2026-04-04T13:06:49.999Z</time></trkpt><trkpt lat="46.39088154968467" lon="13.474414252740583"><ele>1168.8</ele><time>2026-04-04T13:06:52.999Z</time></trkpt><trkpt lat="46.390920369433786" lon="13.474245896691759"><ele>1168.4</ele><time>2026-04-04T13:06:54.999Z</time></trkpt><trkpt lat="46.390941221143635" lon="13.474127838283135"><ele>1168.0</ele><time>2026-04-04T13:06:55.999Z</time></trkpt><trkpt lat="46.39096832460524" lon="13.473980987396978"><ele>1168.0</ele><time>2026-04-04T13:06:56.999Z</time></trkpt><trkpt lat="46.39099704853001" lon="13.473822373013894"><ele>1168.0</ele><time>2026-04-04T13:06:57.999Z</time></trkpt><trkpt lat="46.39104131901553" lon="13.47365557588546"><ele>1168.0</ele><time>2026-04-04T13:06:58.999Z</time></trkpt><trkpt lat="46.39110922215666" lon="13.473495036405598"><ele>1168.0</ele><time>2026-04-04T13:06:59.999Z</time></trkpt><trkpt lat="46.391191143687344" lon="13.473339672609741"><ele>1165.75</ele><time>2026-04-04T13:07:00.999Z</time></trkpt><trkpt lat="46.3912699857994" lon="13.473175152065311"><ele>1163.5</ele><time>2026-04-04T13:07:01.999Z</time></trkpt><trkpt lat="46.391319784364796" lon="13.472998200349652"><ele>1161.25</ele><time>2026-04-04T13:07:02.999Z</time></trkpt><trkpt lat="46.391337467773624" lon="13.47281798775192"><ele>1159.0</ele><time>2026-04-04T13:07:03.999Z</time></trkpt><trkpt lat="46.39135246471003" lon="13.47264659534747"><ele>1162.2</ele><time>2026-04-04T13:07:04.999Z</time></trkpt><trkpt lat="46.39138831799149" lon="13.472500682371631"><ele>1165.4</ele><time>2026-04-04T13:07:05.999Z</time></trkpt><trkpt lat="46.39144299224651" lon="13.472382199814241"><ele>1168.6</ele><time>2026-04-04T13:07:06.999Z</time></trkpt><trkpt lat="46.391489195324546" lon="13.472292848550595"><ele>1171.8</ele><time>2026-04-04T13:07:07.999Z</time></trkpt><trkpt lat="46.39149034569081" lon="13.472147487000294"><ele>1175.0</ele><time>2026-04-04T13:07:09.999Z</time></trkpt><trkpt lat="46.39138998287205" lon="13.47206354933501"><ele>1171.5</ele><time>2026-04-04T13:07:11.999Z</time></trkpt><trkpt lat="46.39132240057517" lon="13.47207515739651"><ele>1168.0</ele><time>2026-04-04T13:07:12.999Z</time></trkpt><trkpt lat="46.391249721462344" lon="13.47212240908767"><ele>1164.5</ele><time>2026-04-04T13:07:13.999Z</time></trkpt><trkpt lat="46.391191079705344" lon="13.47221688922021"><ele>1161.0</ele><time>2026-04-04T13:07:14.999Z</time></trkpt><trkpt lat="46.39114090159487" lon="13.472323928468011"><ele>1157.5</ele><time>2026-04-04T13:07:15.999Z</time></trkpt><trkpt lat="46.391074275557166" lon="13.472429493826745"><ele>1154.0</ele><time>2026-04-04T13:07:16.999Z</time></trkpt><trkpt lat="46.39098416999381" lon="13.4725226605661"><ele>1154.0</ele><time>2026-04-04T13:07:17.999Z</time></trkpt><trkpt lat="46.39088872601485" lon="13.472601764525805"><ele>1154.0</ele><time>2026-04-04T13:07:18.999Z</time></trkpt><trkpt lat="46.390780093105114" lon="13.472661268764826"><ele>1154.0</ele><time>2026-04-04T13:07:19.999Z</time></trkpt><trkpt lat="46.390676241347094" lon="13.472716796716153"><ele>1154.0</ele><time>2026-04-04T13:07:20.999Z</time></trkpt><trkpt lat="46.39056628621832" lon="13.472780629875144"><ele>1153.0</ele><time>2026-04-04T13:07:21.999Z</time></trkpt><trkpt lat="46.390449849771535" lon="13.472841652406961"><ele>1152.0</ele><time>2026-04-04T13:07:22.999Z</time></trkpt><trkpt lat="46.39033314827488" lon="13.472896187651381"><ele>1151.0</ele><time>2026-04-04T13:07:23.999Z</time></trkpt><trkpt lat="46.39022263360029" lon="13.472951852614804"><ele>1150.0</ele><time>2026-04-04T13:07:24.999Z</time></trkpt><trkpt lat="46.39011955299734" lon="13.472997704128813"><ele>1150.0</ele><time>2026-04-04T13:07:25.999Z</time></trkpt><trkpt lat="46.39001761680073" lon="13.473027140816365"><ele>1150.0</ele><time>2026-04-04T13:07:26.999Z</time></trkpt><trkpt lat="46.38991938634453" lon="13.473036255471754"><ele>1150.0</ele><time>2026-04-04T13:07:27.999Z</time></trkpt><trkpt lat="46.389817990334734" lon="13.473027220110344"><ele>1150.0</ele><time>2026-04-04T13:07:28.999Z</time></trkpt><trkpt lat="46.389719362372546" lon="13.473004303504297"><ele>1150.0</ele><time>2026-04-04T13:07:29.999Z</time></trkpt><trkpt lat="46.38962445742576" lon="13.472957336201109"><ele>1147.6</ele><time>2026-04-04T13:07:30.999Z</time></trkpt><trkpt lat="46.38952967540752" lon="13.472901830976951"><ele>1145.2</ele><time>2026-04-04T13:07:31.999Z</time></trkpt><trkpt lat="46.389432023407714" lon="13.472850395893074"><ele>1142.8</ele><time>2026-04-04T13:07:32.999Z</time></trkpt><trkpt lat="46.38933328344077" lon="13.47279290971997"><ele>1140.4</ele><time>2026-04-04T13:07:33.999Z</time></trkpt><trkpt lat="46.38923108858725" lon="13.472739508766757"><ele>1138.0</ele><time>2026-04-04T13:07:34.999Z</time></trkpt><trkpt lat="46.38912392470145" lon="13.472700869460764"><ele>1138.0</ele><time>2026-04-04T13:07:35.999Z</time></trkpt><trkpt lat="46.389019143685836" lon="13.472679867202988"><ele>1138.0</ele><time>2026-04-04T13:07:36.999Z</time></trkpt><trkpt lat="46.388917818983074" lon="13.472668885686717"><ele>1138.0</ele><time>2026-04-04T13:07:37.999Z</time></trkpt><trkpt lat="46.38882059397999" lon="13.472656295081263"><ele>1138.0</ele><time>2026-04-04T13:07:38.999Z</time></trkpt><trkpt lat="46.38872931262516" lon="13.472632416194052"><ele>1138.0</ele><time>2026-04-04T13:07:39.999Z</time></trkpt><trkpt lat="46.388639938345285" lon="13.47259104102299"><ele>1139.0</ele><time>2026-04-04T13:07:40.999Z</time></trkpt><trkpt lat="46.38855288074171" lon="13.472533279997231"><ele>1140.0</ele><time>2026-04-04T13:07:41.999Z</time></trkpt><trkpt lat="46.388469114051894" lon="13.472466147914737"><ele>1141.0</ele><time>2026-04-04T13:07:42.999Z</time></trkpt><trkpt lat="46.38839667263017" lon="13.472386880136758"><ele>1142.0</ele><time>2026-04-04T13:07:43.999Z</time></trkpt><trkpt lat="46.38833997075212" lon="13.472294005207717"><ele>1143.0</ele><time>2026-04-04T13:07:44.999Z</time></trkpt><trkpt lat="46.38829870737255" lon="13.472188415425297"><ele>1142.0</ele><time>2026-04-04T13:07:45.999Z</time></trkpt><trkpt lat="46.388251413280315" lon="13.47208859225114"><ele>1141.0</ele><time>2026-04-04T13:07:46.999Z</time></trkpt><trkpt lat="46.388189087376766" lon="13.471997930212206"><ele>1140.0</ele><time>2026-04-04T13:07:47.999Z</time></trkpt><trkpt lat="46.388111977363764" lon="13.47192433966945"><ele>1139.0</ele><time>2026-04-04T13:07:48.999Z</time></trkpt><trkpt lat="46.388041148156184" lon="13.47183182645912"><ele>1138.0</ele><time>2026-04-04T13:07:49.999Z</time></trkpt><trkpt lat="46.38796576101215" lon="13.47176732834456"><ele>1137.0</ele><time>2026-04-04T13:07:50.999Z</time></trkpt><trkpt lat="46.38789860829506" lon="13.471710098625643"><ele>1137.0</ele><time>2026-04-04T13:07:51.999Z</time></trkpt><trkpt lat="46.387840203714454" lon="13.471652658800494"><ele>1137.0</ele><time>2026-04-04T13:07:52.999Z</time></trkpt><trkpt lat="46.38778633594502" lon="13.471598568986034"><ele>1137.0</ele><time>2026-04-04T13:07:53.999Z</time></trkpt><trkpt lat="46.38777747707384" lon="13.471430601737994"><ele>1137.0</ele><time>2026-04-04T13:07:55.999Z</time></trkpt><trkpt lat="46.38788730924657" lon="13.471367311091306"><ele>1137.0</ele><time>2026-04-04T13:07:58Z</time></trkpt><trkpt lat="46.38796141575699" lon="13.47141425244975"><ele>1135.4</ele><time>2026-04-04T13:07:59Z</time></trkpt><trkpt lat="46.38802789720692" lon="13.47148882358407"><ele>1133.8000000000002</ele><time>2026-04-04T13:08:00Z</time></trkpt><trkpt lat="46.388113122902006" lon="13.471541549810462"><ele>1132.2</ele><time>2026-04-04T13:08:01Z</time></trkpt><trkpt lat="46.388215675102224" lon="13.471561596436322"><ele>1130.6000000000001</ele><time>2026-04-04T13:08:02Z</time></trkpt><trkpt lat="46.388316018069304" lon="13.471561679984939"><ele>1129.0</ele><time>2026-04-04T13:08:03Z</time></trkpt><trkpt lat="46.38842123630342" lon="13.471579746650962"><ele>1129.0</ele><time>2026-04-04T13:08:04Z</time></trkpt><trkpt lat="46.38852874064331" lon="13.471575431672964"><ele>1129.0</ele><time>2026-04-04T13:08:05Z</time></trkpt><trkpt lat="46.38864574847419" lon="13.471570057467792"><ele>1129.0</ele><time>2026-04-04T13:08:06Z</time></trkpt><trkpt lat="46.38876830250107" lon="13.471564428543246"><ele>1129.0</ele><time>2026-04-04T13:08:07Z</time></trkpt><trkpt lat="46.38889682286768" lon="13.471540605846435"><ele>1128.5</ele><time>2026-04-04T13:08:08Z</time></trkpt><trkpt lat="46.389024033478286" lon="13.471540614858126"><ele>1128.0</ele><time>2026-04-04T13:08:09Z</time></trkpt><trkpt lat="46.38914918024194" lon="13.47154050642175"><ele>1127.5</ele><time>2026-04-04T13:08:10Z</time></trkpt><trkpt lat="46.389268183382335" lon="13.471522773504308"><ele>1127.0</ele><time>2026-04-04T13:08:11Z</time></trkpt><trkpt lat="46.38938679680624" lon="13.471475883036028"><ele>1127.0</ele><time>2026-04-04T13:08:12Z</time></trkpt><trkpt lat="46.38950302757095" lon="13.47142466814942"><ele>1127.0</ele><time>2026-04-04T13:08:13Z</time></trkpt><trkpt lat="46.38961159061303" lon="13.471328272324357"><ele>1127.0</ele><time>2026-04-04T13:08:14Z</time></trkpt><trkpt lat="46.38971921263296" lon="13.471216767635564"><ele>1127.0</ele><time>2026-04-04T13:08:15Z</time></trkpt><trkpt lat="46.389810155702605" lon="13.47106871870813"><ele>1123.25</ele><time>2026-04-04T13:08:16Z</time></trkpt><trkpt lat="46.38989657582801" lon="13.470930125816249"><ele>1119.5</ele><time>2026-04-04T13:08:17Z</time></trkpt><trkpt lat="46.38998120602201" lon="13.470802773902538"><ele>1115.75</ele><time>2026-04-04T13:08:18Z</time></trkpt><trkpt lat="46.39008728258126" lon="13.47071472379876"><ele>1112.0</ele><time>2026-04-04T13:08:19Z</time></trkpt><trkpt lat="46.39019101079218" lon="13.470636387165769"><ele>1112.0</ele><time>2026-04-04T13:08:20Z</time></trkpt><trkpt lat="46.39029569955116" lon="13.470558901464809"><ele>1112.0</ele><time>2026-04-04T13:08:21Z</time></trkpt><trkpt lat="46.390373643876075" lon="13.47041141585379"><ele>1112.0</ele><time>2026-04-04T13:08:22Z</time></trkpt><trkpt lat="46.39045685686361" lon="13.470261131638065"><ele>1112.0</ele><time>2026-04-04T13:08:23Z</time></trkpt><trkpt lat="46.39053883614402" lon="13.470100587664113"><ele>1113.75</ele><time>2026-04-04T13:08:24Z</time></trkpt><trkpt lat="46.39061516980275" lon="13.469931676375"><ele>1115.5</ele><time>2026-04-04T13:08:25Z</time></trkpt><trkpt lat="46.390690257550055" lon="13.469761455395885"><ele>1117.25</ele><time>2026-04-04T13:08:26Z</time></trkpt><trkpt lat="46.39075141507061" lon="13.469600496842073"><ele>1119.0</ele><time>2026-04-04T13:08:27Z</time></trkpt><trkpt lat="46.39078959750832" lon="13.469445723363595"><ele>1115.2</ele><time>2026-04-04T13:08:28Z</time></trkpt><trkpt lat="46.390816636937345" lon="13.469287748191295"><ele>1111.4</ele><time>2026-04-04T13:08:29Z</time></trkpt><trkpt lat="46.390851315318436" lon="13.46913625124736"><ele>1107.6</ele><time>2026-04-04T13:08:30Z</time></trkpt><trkpt lat="46.390907399575255" lon="13.46900194429505"><ele>1103.8</ele><time>2026-04-04T13:08:31Z</time></trkpt><trkpt lat="46.3909818140933" lon="13.468884433013747"><ele>1100.0</ele><time>2026-04-04T13:08:32Z</time></trkpt><trkpt lat="46.39107094497451" lon="13.468794354004828"><ele>1094.0</ele><time>2026-04-04T13:08:33Z</time></trkpt><trkpt lat="46.39117357979498" lon="13.468745338807656"><ele>1088.0</ele><time>2026-04-04T13:08:34Z</time></trkpt><trkpt lat="46.391258102581105" lon="13.468690507426414"><ele>1082.0</ele><time>2026-04-04T13:08:35Z</time></trkpt><trkpt lat="46.391337771372925" lon="13.468625735993148"><ele>1076.0</ele><time>2026-04-04T13:08:36Z</time></trkpt><trkpt lat="46.39141532407801" lon="13.468564462068256"><ele>1070.0</ele><time>2026-04-04T13:08:37Z</time></trkpt><trkpt lat="46.391477636886" lon="13.468476636367809"><ele>1078.2</ele><time>2026-04-04T13:08:38Z</time></trkpt><trkpt lat="46.391526584976226" lon="13.468370028981454"><ele>1086.4</ele><time>2026-04-04T13:08:39Z</time></trkpt><trkpt lat="46.39157128929348" lon="13.468243713329244"><ele>1094.6</ele><time>2026-04-04T13:08:40.082Z</time></trkpt><trkpt lat="46.391611457235136" lon="13.468120757451926"><ele>1102.8</ele><time>2026-04-04T13:08:41.06Z</time></trkpt><trkpt lat="46.391649711721115" lon="13.467992486577657"><ele>1111.0</ele><time>2026-04-04T13:08:42.06Z</time></trkpt><trkpt lat="46.39170371508519" lon="13.467873816048087"><ele>1111.0</ele><time>2026-04-04T13:08:43.049Z</time></trkpt><trkpt lat="46.39170634677236" lon="13.467766277692068"><ele>1111.0</ele><time>2026-04-04T13:08:43.999Z</time></trkpt><trkpt lat="46.391704154466474" lon="13.46762648886985"><ele>1111.0</ele><time>2026-04-04T13:08:44.999Z</time></trkpt><trkpt lat="46.39171217986948" lon="13.467511943128628"><ele>1111.0</ele><time>2026-04-04T13:08:45.999Z</time></trkpt><trkpt lat="46.39174380356221" lon="13.467421474879293"><ele>1111.0</ele><time>2026-04-04T13:08:46.999Z</time></trkpt><trkpt lat="46.391761387557516" lon="13.467306659820915"><ele>1111.0</ele><time>2026-04-04T13:08:47.999Z</time></trkpt><trkpt lat="46.39179352880174" lon="13.467126766464927"><ele>1094.25</ele><time>2026-04-04T13:08:48.999Z</time></trkpt><trkpt lat="46.39185105162467" lon="13.466942362519845"><ele>1077.5</ele><time>2026-04-04T13:08:49.999Z</time></trkpt><trkpt lat="46.39195155915573" lon="13.46678452746027"><ele>1060.75</ele><time>2026-04-04T13:08:50.999Z</time></trkpt><trkpt lat="46.39204048282098" lon="13.466662634790069"><ele>1044.0</ele><time>2026-04-04T13:08:51.999Z</time></trkpt><trkpt lat="46.39212294054145" lon="13.466560094180457"><ele>1066.8</ele><time>2026-04-04T13:08:52.999Z</time></trkpt><trkpt lat="46.39220332420877" lon="13.466462538382851"><ele>1089.6000000000001</ele><time>2026-04-04T13:08:53.999Z</time></trkpt><trkpt lat="46.392292483766504" lon="13.466393786438655"><ele>1112.4</ele><time>2026-04-04T13:08:54.999Z</time></trkpt><trkpt lat="46.39239686003109" lon="13.466348454166923"><ele>1135.2</ele><time>2026-04-04T13:08:55.999Z</time></trkpt><trkpt lat="46.392492803415394" lon="13.466320698276059"><ele>1158.0</ele><time>2026-04-04T13:08:56.999Z</time></trkpt><trkpt lat="46.392568661739155" lon="13.466299979031195"><ele>1145.2</ele><time>2026-04-04T13:08:57.999Z</time></trkpt><trkpt lat="46.3926204571421" lon="13.466244986377328"><ele>1132.4</ele><time>2026-04-04T13:08:58.999Z</time></trkpt><trkpt lat="46.3926393809561" lon="13.46608301523835"><ele>1119.6000000000001</ele><time>2026-04-04T13:09:00.999Z</time></trkpt><trkpt lat="46.39254758957399" lon="13.465956139240989"><ele>1106.8</ele><time>2026-04-04T13:09:03.046Z</time></trkpt><trkpt lat="46.3924832040662" lon="13.465930894049311"><ele>1094.0</ele><time>2026-04-04T13:09:03.999Z</time></trkpt><trkpt lat="46.392395215851714" lon="13.465978557586999"><ele>1094.0</ele><time>2026-04-04T13:09:04.999Z</time></trkpt><trkpt lat="46.39235099595366" lon="13.466101994123047"><ele>1094.0</ele><time>2026-04-04T13:09:05.999Z</time></trkpt><trkpt lat="46.39228988161725" lon="13.466165779791542"><ele>1094.0</ele><time>2026-04-04T13:09:06.999Z</time></trkpt><trkpt lat="46.392224391101095" lon="13.466254106887138"><ele>1094.0</ele><time>2026-04-04T13:09:07.999Z</time></trkpt><trkpt lat="46.39214313274629" lon="13.46632593313909"><ele>1094.0</ele><time>2026-04-04T13:09:08.999Z</time></trkpt><trkpt lat="46.392054673985854" lon="13.466405160246573"><ele>1084.0</ele><time>2026-04-04T13:09:09.999Z</time></trkpt><trkpt lat="46.391962190968556" lon="13.46649446436952"><ele>1074.0</ele><time>2026-04-04T13:09:10.999Z</time></trkpt><trkpt lat="46.3918672006284" lon="13.466596152332869"><ele>1064.0</ele><time>2026-04-04T13:09:11.999Z</time></trkpt><trkpt lat="46.39177805187379" lon="13.466701273968335"><ele>1054.0</ele><time>2026-04-04T13:09:12.999Z</time></trkpt><trkpt lat="46.39169812066899" lon="13.46679809868179"><ele>1044.0</ele><time>2026-04-04T13:09:13.999Z</time></trkpt><trkpt lat="46.39162187582302" lon="13.466894854586016"><ele>1044.0</ele><time>2026-04-04T13:09:14.999Z</time></trkpt><trkpt lat="46.39156996123931" lon="13.467014751411941"><ele>1044.0</ele><time>2026-04-04T13:09:15.999Z</time></trkpt><trkpt lat="46.39150577433497" lon="13.46711657315345"><ele>1044.0</ele><time>2026-04-04T13:09:16.999Z</time></trkpt><trkpt lat="46.39146928547831" lon="13.467234900764124"><ele>1044.0</ele><time>2026-04-04T13:09:17.999Z</time></trkpt><trkpt lat="46.39144049723991" lon="13.467336514577225"><ele>1044.0</ele><time>2026-04-04T13:09:18.999Z</time></trkpt><trkpt lat="46.39138736988691" lon="13.467467230743821"><ele>1044.0</ele><time>2026-04-04T13:09:20.999Z</time></trkpt><trkpt lat="46.391308665535405" lon="13.467374370250718"><ele>1044.0</ele><time>2026-04-04T13:09:22.999Z</time></trkpt><trkpt lat="46.39131991896454" lon="13.467275767719093"><ele>1044.0</ele><time>2026-04-04T13:09:23.999Z</time></trkpt><trkpt lat="46.39137408851902" lon="13.467176534340503"><ele>1044.0</ele><time>2026-04-04T13:09:24.999Z</time></trkpt><trkpt lat="46.39145158196952" lon="13.467080322132986"><ele>1044.0</ele><time>2026-04-04T13:09:25.999Z</time></trkpt><trkpt lat="46.39151780200013" lon="13.466953504871755"><ele>1044.0</ele><time>2026-04-04T13:09:26.999Z</time></trkpt><trkpt lat="46.391588966270355" lon="13.466805112835955"><ele>1044.0</ele><time>2026-04-04T13:09:27.999Z</time></trkpt><trkpt lat="46.391670168792494" lon="13.466644119542496"><ele>1044.0</ele><time>2026-04-04T13:09:28.999Z</time></trkpt><trkpt lat="46.39174663571531" lon="13.466485970120953"><ele>1044.0</ele><time>2026-04-04T13:09:29.999Z</time></trkpt><trkpt lat="46.39182052811129" lon="13.466353263064944"><ele>1038.6000000000001</ele><time>2026-04-04T13:09:30.999Z</time></trkpt><trkpt lat="46.391890028905145" lon="13.466233486284779"><ele>1033.2</ele><time>2026-04-04T13:09:31.999Z</time></trkpt><trkpt lat="46.39195790273074" lon="13.466129985842473"><ele>1027.8000000000002</ele><time>2026-04-04T13:09:32.999Z</time></trkpt><trkpt lat="46.39203433646261" lon="13.466038843031278"><ele>1022.4000000000001</ele><time>2026-04-04T13:09:33.999Z</time></trkpt><trkpt lat="46.39211737481927" lon="13.465973299996369"><ele>1017.0</ele><time>2026-04-04T13:09:34.999Z</time></trkpt><trkpt lat="46.39220588035236" lon="13.465945502857615"><ele>1029.8333333333333</ele><time>2026-04-04T13:09:35.999Z</time></trkpt><trkpt lat="46.39228927841265" lon="13.46593614354781"><ele>1042.6666666666667</ele><time>2026-04-04T13:09:36.999Z</time></trkpt><trkpt lat="46.392354370002536" lon="13.46591194689078"><ele>1055.5</ele><time>2026-04-04T13:09:37.999Z</time></trkpt><trkpt lat="46.39240942348761" lon="13.465763636138027"><ele>1068.3333333333335</ele><time>2026-04-04T13:09:39.999Z</time></trkpt><trkpt lat="46.39238631054837" lon="13.465669038119085"><ele>1081.1666666666667</ele><time>2026-04-04T13:09:40.999Z</time></trkpt><trkpt lat="46.3923266489705" lon="13.465563678659858"><ele>1094.0</ele><time>2026-04-04T13:09:41.999Z</time></trkpt><trkpt lat="46.392247199609265" lon="13.465555261605521"><ele>1078.6000000000001</ele><time>2026-04-04T13:09:42.999Z</time></trkpt><trkpt lat="46.3921713333745" lon="13.465642024436914"><ele>1063.2</ele><time>2026-04-04T13:09:43.999Z</time></trkpt><trkpt lat="46.392107559513946" lon="13.46573797055939"><ele>1047.8000000000002</ele><time>2026-04-04T13:09:44.999Z</time></trkpt><trkpt lat="46.392037478641555" lon="13.465863541692482"><ele>1032.4</ele><time>2026-04-04T13:09:45.999Z</time></trkpt><trkpt lat="46.391934490192845" lon="13.465970909829283"><ele>1017.0</ele><time>2026-04-04T13:09:46.999Z</time></trkpt><trkpt lat="46.391825446288735" lon="13.466077383787182"><ele>1017.0</ele><time>2026-04-04T13:09:47.999Z</time></trkpt><trkpt lat="46.39170922234064" lon="13.466186804183408"><ele>1017.0</ele><time>2026-04-04T13:09:48.999Z</time></trkpt><trkpt lat="46.39159011098236" lon="13.466297801496218"><ele>1017.0</ele><time>2026-04-04T13:09:49.999Z</time></trkpt><trkpt lat="46.39148679780504" lon="13.46643629712642"><ele>1017.0</ele><time>2026-04-04T13:09:50.999Z</time></trkpt><trkpt lat="46.39138851453599" lon="13.466568566623039"><ele>1014.0</ele><time>2026-04-04T13:09:51.999Z</time></trkpt><trkpt lat="46.39129529892007" lon="13.466682844383286"><ele>1011.0</ele><time>2026-04-04T13:09:52.999Z</time></trkpt><trkpt lat="46.39120513381907" lon="13.466794087883354"><ele>1008.0</ele><time>2026-04-04T13:09:53.999Z</time></trkpt><trkpt lat="46.391128825057514" lon="13.466923272408536"><ele>1005.0</ele><time>2026-04-04T13:09:54.999Z</time></trkpt><trkpt lat="46.39107396719126" lon="13.467072497489623"><ele>1009.6</ele><time>2026-04-04T13:09:55.999Z</time></trkpt><trkpt lat="46.39102945071313" lon="13.467216995037651"><ele>1014.2</ele><time>2026-04-04T13:09:56.999Z</time></trkpt><trkpt lat="46.39097419992648" lon="13.467347581105747"><ele>1018.8</ele><time>2026-04-04T13:09:57.999Z</time></trkpt><trkpt lat="46.390899198655816" lon="13.46745162571881"><ele>1023.4</ele><time>2026-04-04T13:09:58.999Z</time></trkpt><trkpt lat="46.390814477472546" lon="13.467521688222428"><ele>1028.0</ele><time>2026-04-04T13:09:59.999Z</time></trkpt><trkpt lat="46.39072763034561" lon="13.467570069365514"><ele>1028.0</ele><time>2026-04-04T13:10:00.999Z</time></trkpt><trkpt lat="46.390653571494084" lon="13.46764408191671"><ele>1028.0</ele><time>2026-04-04T13:10:01.999Z</time></trkpt><trkpt lat="46.39059265932533" lon="13.467732292395478"><ele>1028.0</ele><time>2026-04-04T13:10:02.999Z</time></trkpt><trkpt lat="46.39054782365733" lon="13.467846649877213"><ele>1028.0</ele><time>2026-04-04T13:10:04Z</time></trkpt><trkpt lat="46.39052548059785" lon="13.468003959925664"><ele>1028.0</ele><time>2026-04-04T13:10:05Z</time></trkpt><trkpt lat="46.390500434866134" lon="13.468167712221494"><ele>1026.8</ele><time>2026-04-04T13:10:06Z</time></trkpt><trkpt lat="46.39044155913268" lon="13.468287686184553"><ele>1025.6</ele><time>2026-04-04T13:10:07Z</time></trkpt><trkpt lat="46.39038774262968" lon="13.468414174606822"><ele>1024.4</ele><time>2026-04-04T13:10:08Z</time></trkpt><trkpt lat="46.39029168994442" lon="13.468513618283383"><ele>1023.2</ele><time>2026-04-04T13:10:09Z</time></trkpt><trkpt lat="46.39019955713996" lon="13.46859799777028"><ele>1022.0</ele><time>2026-04-04T13:10:10Z</time></trkpt><trkpt lat="46.390111834248394" lon="13.468687048521003"><ele>1026.5</ele><time>2026-04-04T13:10:11Z</time></trkpt><trkpt lat="46.39005414867568" lon="13.468782710566124"><ele>1031.0</ele><time>2026-04-04T13:10:12Z</time></trkpt><trkpt lat="46.390021008081916" lon="13.468889115663977"><ele>1035.5</ele><time>2026-04-04T13:10:13Z</time></trkpt><trkpt lat="46.390003727011965" lon="13.468985861351133"><ele>1040.0</ele><time>2026-04-04T13:10:14Z</time></trkpt><trkpt lat="46.38992167092334" lon="13.46904814138224"><ele>1044.5</ele><time>2026-04-04T13:10:16Z</time></trkpt><trkpt lat="46.38987773921401" lon="13.468892589485673"><ele>1049.0</ele><time>2026-04-04T13:10:18Z</time></trkpt><trkpt lat="46.389943611657856" lon="13.46880541451172"><ele>1043.6000000000001</ele><time>2026-04-04T13:10:19Z</time></trkpt><trkpt lat="46.39000439891692" lon="13.468719195753208"><ele>1038.2</ele><time>2026-04-04T13:10:20Z</time></trkpt><trkpt lat="46.39007603389791" lon="13.46859763411446"><ele>1032.8000000000002</ele><time>2026-04-04T13:10:21Z</time></trkpt><trkpt lat="46.39016646167725" lon="13.468470049400027"><ele>1027.4</ele><time>2026-04-04T13:10:22Z</time></trkpt><trkpt lat="46.39025211888578" lon="13.468338157765162"><ele>1022.0</ele><time>2026-04-04T13:10:23Z</time></trkpt><trkpt lat="46.390325707607204" lon="13.46818484610126"><ele>1022.0</ele><time>2026-04-04T13:10:24Z</time></trkpt><trkpt lat="46.3903781670884" lon="13.468002632690663"><ele>1022.0</ele><time>2026-04-04T13:10:25Z</time></trkpt><trkpt lat="46.39041239830276" lon="13.467804173322111"><ele>1022.0</ele><time>2026-04-04T13:10:26Z</time></trkpt><trkpt lat="46.39044273014626" lon="13.46761955571539"><ele>1022.0</ele><time>2026-04-04T13:10:27Z</time></trkpt><trkpt lat="46.390491811559016" lon="13.467442973249344"><ele>1023.5</ele><time>2026-04-04T13:10:28Z</time></trkpt><trkpt lat="46.3905622000432" lon="13.46726663407468"><ele>1025.0</ele><time>2026-04-04T13:10:29Z</time></trkpt><trkpt lat="46.390641334916516" lon="13.46708811269382"><ele>1026.5</ele><time>2026-04-04T13:10:30Z</time></trkpt><trkpt lat="46.39070070447524" lon="13.466898536993583"><ele>1028.0</ele><time>2026-04-04T13:10:31Z</time></trkpt><trkpt lat="46.39074331718103" lon="13.466705554939587"><ele>1022.25</ele><time>2026-04-04T13:10:32Z</time></trkpt><trkpt lat="46.39080180714637" lon="13.466529983970922"><ele>1016.5</ele><time>2026-04-04T13:10:33Z</time></trkpt><trkpt lat="46.39089118922521" lon="13.466356192382689"><ele>1010.75</ele><time>2026-04-04T13:10:34Z</time></trkpt><trkpt lat="46.390987067203774" lon="13.466169728044795"><ele>1005.0</ele><time>2026-04-04T13:10:35Z</time></trkpt><trkpt lat="46.3910860550523" lon="13.465976248627124"><ele>998.6666666666667</ele><time>2026-04-04T13:10:36Z</time></trkpt><trkpt lat="46.39118511302512" lon="13.465778070841445"><ele>992.3333333333334</ele><time>2026-04-04T13:10:37Z</time></trkpt><trkpt lat="46.39127635085884" lon="13.465595782833095"><ele>986.0</ele><time>2026-04-04T13:10:38Z</time></trkpt><trkpt lat="46.391364096936464" lon="13.465428268065276"><ele>986.0</ele><time>2026-04-04T13:10:39Z</time></trkpt><trkpt lat="46.39146094732762" lon="13.465258083023354"><ele>986.0</ele><time>2026-04-04T13:10:40Z</time></trkpt><trkpt lat="46.39158495483319" lon="13.465110069009215"><ele>986.0</ele><time>2026-04-04T13:10:41Z</time></trkpt><trkpt lat="46.391701122535444" lon="13.464929039990325"><ele>986.0</ele><time>2026-04-04T13:10:42Z</time></trkpt><trkpt lat="46.39184247400471" lon="13.464759316731795"><ele>986.0</ele><time>2026-04-04T13:10:43Z</time></trkpt><trkpt lat="46.391988987121415" lon="13.464587246692362"><ele>986.0</ele><time>2026-04-04T13:10:44Z</time></trkpt><trkpt lat="46.392138557645154" lon="13.464424476164071"><ele>985.3333333333334</ele><time>2026-04-04T13:10:45Z</time></trkpt><trkpt lat="46.39228547028963" lon="13.464271305361269"><ele>984.6666666666667</ele><time>2026-04-04T13:10:45.999Z</time></trkpt><trkpt lat="46.39241994129723" lon="13.464118650780646"><ele>984.0</ele><time>2026-04-04T13:10:46.999Z</time></trkpt><trkpt lat="46.392557622687136" lon="13.463977194594468"><ele>984.0</ele><time>2026-04-04T13:10:47.999Z</time></trkpt><trkpt lat="46.392677192534464" lon="13.463799901754749"><ele>984.0</ele><time>2026-04-04T13:10:48.999Z</time></trkpt><trkpt lat="46.39279294112821" lon="13.463618390006433"><ele>984.0</ele><time>2026-04-04T13:10:49.999Z</time></trkpt><trkpt lat="46.39290866335439" lon="13.46343400469339"><ele>979.6666666666667</ele><time>2026-04-04T13:10:50.999Z</time></trkpt><trkpt lat="46.393012361825" lon="13.463243106934362"><ele>975.3333333333334</ele><time>2026-04-04T13:10:51.999Z</time></trkpt><trkpt lat="46.39311714719447" lon="13.463086459785247"><ele>971.0</ele><time>2026-04-04T13:10:52.999Z</time></trkpt><trkpt lat="46.39321102641733" lon="13.462933914125232"><ele>971.0</ele><time>2026-04-04T13:10:53.999Z</time></trkpt><trkpt lat="46.39328635624619" lon="13.462767179831836"><ele>971.0</ele><time>2026-04-04T13:10:54.999Z</time></trkpt><trkpt lat="46.39334854111968" lon="13.46257028503523"><ele>971.0</ele><time>2026-04-04T13:10:55.999Z</time></trkpt><trkpt lat="46.39342111685538" lon="13.462389415824536"><ele>971.0</ele><time>2026-04-04T13:10:56.999Z</time></trkpt><trkpt lat="46.39346347458043" lon="13.462219170881395"><ele>964.0</ele><time>2026-04-04T13:10:57.999Z</time></trkpt><trkpt lat="46.39350890911692" lon="13.462085569782182"><ele>956.9999999999999</ele><time>2026-04-04T13:10:58.999Z</time></trkpt><trkpt lat="46.39355421154541" lon="13.461963423383452"><ele>949.9999999999999</ele><time>2026-04-04T13:10:59.999Z</time></trkpt><trkpt lat="46.393615160493475" lon="13.461861891446922"><ele>943.0</ele><time>2026-04-04T13:11:00.999Z</time></trkpt><trkpt lat="46.393696659114404" lon="13.461836733374412"><ele>936.0</ele><time>2026-04-04T13:11:01.999Z</time></trkpt><trkpt lat="46.3937767720209" lon="13.461809870685686"><ele>936.0</ele><time>2026-04-04T13:11:02.999Z</time></trkpt><trkpt lat="46.39383981314233" lon="13.461773626505776"><ele>936.0000000000001</ele><time>2026-04-04T13:11:03.999Z</time></trkpt><trkpt lat="46.393891017784874" lon="13.461720240682013"><ele>936.0</ele><time>2026-04-04T13:11:04.999Z</time></trkpt><trkpt lat="46.39391650359202" lon="13.461631084857299"><ele>936.0</ele><time>2026-04-04T13:11:05.999Z</time></trkpt><trkpt lat="46.39390682879375" lon="13.461526556983458"><ele>936.0000000000001</ele><time>2026-04-04T13:11:06.999Z</time></trkpt><trkpt lat="46.3938613387231" lon="13.46144131542545"><ele>936.0</ele><time>2026-04-04T13:11:07.999Z</time></trkpt><trkpt lat="46.39379496260667" lon="13.461424025207757"><ele>936.0</ele><time>2026-04-04T13:11:08.999Z</time></trkpt><trkpt lat="46.393723943863286" lon="13.461433883488045"><ele>936.0</ele><time>2026-04-04T13:11:09.999Z</time></trkpt><trkpt lat="46.39366999670452" lon="13.461515806122064"><ele>936.0</ele><time>2026-04-04T13:11:10.999Z</time></trkpt><trkpt lat="46.39356357416122" lon="13.461660022299029"><ele>936.0</ele><time>2026-04-04T13:11:11.999Z</time></trkpt><trkpt lat="46.39348265236611" lon="13.46179880294254"><ele>936.0</ele><time>2026-04-04T13:11:12.999Z</time></trkpt><trkpt lat="46.39339632132115" lon="13.461938572987744"><ele>936.0</ele><time>2026-04-04T13:11:13.999Z</time></trkpt><trkpt lat="46.393316194439045" lon="13.462104068129426"><ele>936.0</ele><time>2026-04-04T13:11:14.999Z</time></trkpt><trkpt lat="46.39323992472873" lon="13.462292069922055"><ele>936.0</ele><time>2026-04-04T13:11:15.999Z</time></trkpt><trkpt lat="46.39314768341145" lon="13.462457507775671"><ele>936.0</ele><time>2026-04-04T13:11:16.999Z</time></trkpt><trkpt lat="46.39304046863508" lon="13.462604114741797"><ele>932.6666666666667</ele><time>2026-04-04T13:11:17.999Z</time></trkpt><trkpt lat="46.392910748769445" lon="13.46272686608906"><ele>929.3333333333334</ele><time>2026-04-04T13:11:18.999Z</time></trkpt><trkpt lat="46.392764376134146" lon="13.462833459285372"><ele>926.0</ele><time>2026-04-04T13:11:19.999Z</time></trkpt><trkpt lat="46.392620087288385" lon="13.462949830919909"><ele>924.0</ele><time>2026-04-04T13:11:20.999Z</time></trkpt><trkpt lat="46.39247115384426" lon="13.46307405641808"><ele>922.0</ele><time>2026-04-04T13:11:21.999Z</time></trkpt><trkpt lat="46.392322545776175" lon="13.463199814136033"><ele>920.0</ele><time>2026-04-04T13:11:22.999Z</time></trkpt><trkpt lat="46.392169075791685" lon="13.463309642629108"><ele>920.0</ele><time>2026-04-04T13:11:23.999Z</time></trkpt><trkpt lat="46.39201107196031" lon="13.463399868385379"><ele>920.0</ele><time>2026-04-04T13:11:24.999Z</time></trkpt><trkpt lat="46.39184715966055" lon="13.46349118793793"><ele>920.0</ele><time>2026-04-04T13:11:25.999Z</time></trkpt><trkpt lat="46.39167640156973" lon="13.46361715122434"><ele>920.0</ele><time>2026-04-04T13:11:26.999Z</time></trkpt><trkpt lat="46.39150525749258" lon="13.463768788305908"><ele>920.0</ele><time>2026-04-04T13:11:27.999Z</time></trkpt><trkpt lat="46.3913408299868" lon="13.463914911669946"><ele>920.0</ele><time>2026-04-04T13:11:28.999Z</time></trkpt><trkpt lat="46.391192804973734" lon="13.464051532068455"><ele>918.0</ele><time>2026-04-04T13:11:29.999Z</time></trkpt><trkpt lat="46.3910546223274" lon="13.464175812760558"><ele>916.0</ele><time>2026-04-04T13:11:30.999Z</time></trkpt><trkpt lat="46.390926815262475" lon="13.464296359056647"><ele>914.0</ele><time>2026-04-04T13:11:31.999Z</time></trkpt><trkpt lat="46.39080757755296" lon="13.464408068462225"><ele>914.0</ele><time>2026-04-04T13:11:32.999Z</time></trkpt><trkpt lat="46.39070296679893" lon="13.46453308891011"><ele>914.0</ele><time>2026-04-04T13:11:33.999Z</time></trkpt><trkpt lat="46.390607110169626" lon="13.464670228834436"><ele>914.0</ele><time>2026-04-04T13:11:34.999Z</time></trkpt><trkpt lat="46.390531669386995" lon="13.464835320792725"><ele>914.0</ele><time>2026-04-04T13:11:35.999Z</time></trkpt><trkpt lat="46.39045307987853" lon="13.46498099866668"><ele>915.6</ele><time>2026-04-04T13:11:36.999Z</time></trkpt><trkpt lat="46.390366942119115" lon="13.465099873337287"><ele>917.2</ele><time>2026-04-04T13:11:37.999Z</time></trkpt><trkpt lat="46.39028580345931" lon="13.465198058625013"><ele>918.8000000000001</ele><time>2026-04-04T13:11:38.999Z</time></trkpt><trkpt lat="46.39021061203851" lon="13.46526554466977"><ele>920.4000000000001</ele><time>2026-04-04T13:11:39.999Z</time></trkpt><trkpt lat="46.39012530703864" lon="13.465277279254657"><ele>922.0</ele><time>2026-04-04T13:11:40.999Z</time></trkpt><trkpt lat="46.39005766215515" lon="13.465228613851453"><ele>922.0</ele><time>2026-04-04T13:11:41.999Z</time></trkpt><trkpt lat="46.39002233797413" lon="13.465128118851448"><ele>922.0</ele><time>2026-04-04T13:11:42.999Z</time></trkpt><trkpt lat="46.390043181726305" lon="13.46501140826155"><ele>922.0</ele><time>2026-04-04T13:11:43.999Z</time></trkpt><trkpt lat="46.39011568478303" lon="13.464920579043017"><ele>922.0</ele><time>2026-04-04T13:11:44.999Z</time></trkpt><trkpt lat="46.39022723656113" lon="13.464908322789924"><ele>922.0</ele><time>2026-04-04T13:11:45.999Z</time></trkpt><trkpt lat="46.39033761067717" lon="13.464846817458966"><ele>922.0</ele><time>2026-04-04T13:11:46.999Z</time></trkpt><trkpt lat="46.390426711256936" lon="13.464696109634653"><ele>922.0</ele><time>2026-04-04T13:11:47.999Z</time></trkpt><trkpt lat="46.39051801114546" lon="13.464519939420793"><ele>922.0</ele><time>2026-04-04T13:11:48.999Z</time></trkpt><trkpt lat="46.39060624627631" lon="13.4643046481883"><ele>919.3333333333333</ele><time>2026-04-04T13:11:49.999Z</time></trkpt><trkpt lat="46.39071411584787" lon="13.464081552104622"><ele>916.6666666666667</ele><time>2026-04-04T13:11:50.999Z</time></trkpt><trkpt lat="46.39081818989145" lon="13.463842927798085"><ele>914.0</ele><time>2026-04-04T13:11:51.999Z</time></trkpt><trkpt lat="46.390923942451394" lon="13.463600388682842"><ele>908.0</ele><time>2026-04-04T13:11:52.999Z</time></trkpt><trkpt lat="46.39103159692987" lon="13.463349921474856"><ele>902.0</ele><time>2026-04-04T13:11:53.999Z</time></trkpt><trkpt lat="46.391127208686136" lon="13.463100926585865"><ele>896.0</ele><time>2026-04-04T13:11:54.999Z</time></trkpt><trkpt lat="46.39122749747372" lon="13.462873340588672"><ele>898.0</ele><time>2026-04-04T13:11:55.999Z</time></trkpt><trkpt lat="46.39132421779836" lon="13.462656406499045"><ele>900.0</ele><time>2026-04-04T13:11:56.999Z</time></trkpt><trkpt lat="46.39141425397631" lon="13.46244652990945"><ele>902.0</ele><time>2026-04-04T13:11:57.999Z</time></trkpt><trkpt lat="46.39150198120843" lon="13.46225296491243"><ele>894.6666666666667</ele><time>2026-04-04T13:11:58.999Z</time></trkpt><trkpt lat="46.39160302205158" lon="13.462092480731553"><ele>887.3333333333333</ele><time>2026-04-04T13:11:59.999Z</time></trkpt><trkpt lat="46.39172337024455" lon="13.461960301205226"><ele>880.0</ele><time>2026-04-04T13:12:00.999Z</time></trkpt><trkpt lat="46.39186163654226" lon="13.461880297607994"><ele>880.0</ele><time>2026-04-04T13:12:01.999Z</time></trkpt><trkpt lat="46.39199828280792" lon="13.461803852132572"><ele>880.0</ele><time>2026-04-04T13:12:02.999Z</time></trkpt><trkpt lat="46.39213564435347" lon="13.461695138365672"><ele>880.0</ele><time>2026-04-04T13:12:03.999Z</time></trkpt><trkpt lat="46.392257269027674" lon="13.46151710212597"><ele>877.6666666666666</ele><time>2026-04-04T13:12:04.999Z</time></trkpt><trkpt lat="46.392394785056204" lon="13.461337212691044"><ele>875.3333333333333</ele><time>2026-04-04T13:12:05.999Z</time></trkpt><trkpt lat="46.39251752856871" lon="13.461122413038902"><ele>873.0</ele><time>2026-04-04T13:12:06.999Z</time></trkpt><trkpt lat="46.39264036690733" lon="13.4609227705458"><ele>873.0</ele><time>2026-04-04T13:12:07.999Z</time></trkpt><trkpt lat="46.392746265351626" lon="13.460722217906216"><ele>873.0</ele><time>2026-04-04T13:12:08.999Z</time></trkpt><trkpt lat="46.392864413522695" lon="13.460540649224177"><ele>873.0</ele><time>2026-04-04T13:12:10Z</time></trkpt><trkpt lat="46.392964089825156" lon="13.46037399256431"><ele>874.25</ele><time>2026-04-04T13:12:11Z</time></trkpt><trkpt lat="46.39306502954274" lon="13.460211756495177"><ele>875.5</ele><time>2026-04-04T13:12:12Z</time></trkpt><trkpt lat="46.39316045830374" lon="13.460063641468082"><ele>876.75</ele><time>2026-04-04T13:12:13Z</time></trkpt><trkpt lat="46.393253827192936" lon="13.459907358926714"><ele>878.0</ele><time>2026-04-04T13:12:14Z</time></trkpt><trkpt lat="46.393331174138034" lon="13.459754250803412"><ele>874.0</ele><time>2026-04-04T13:12:15Z</time></trkpt><trkpt lat="46.39340358196067" lon="13.459594142806475"><ele>870.0</ele><time>2026-04-04T13:12:16Z</time></trkpt><trkpt lat="46.393488470387304" lon="13.459441726436834"><ele>866.0</ele><time>2026-04-04T13:12:17Z</time></trkpt><trkpt lat="46.39355641773597" lon="13.45925881019138"><ele>862.0</ele><time>2026-04-04T13:12:18.075Z</time></trkpt><trkpt lat="46.39360071571209" lon="13.459082513374296"><ele>862.0</ele><time>2026-04-04T13:12:19.048Z</time></trkpt><trkpt lat="46.39367475660761" lon="13.458925549085611"><ele>862.0</ele><time>2026-04-04T13:12:20.05Z</time></trkpt><trkpt lat="46.39371570934775" lon="13.458764561991115"><ele>862.0</ele><time>2026-04-04T13:12:21.054Z</time></trkpt><trkpt lat="46.393745012414804" lon="13.458599310878633"><ele>862.0</ele><time>2026-04-04T13:12:22.05Z</time></trkpt><trkpt lat="46.39376727929768" lon="13.458438577490694"><ele>872.0</ele><time>2026-04-04T13:12:23.042Z</time></trkpt><trkpt lat="46.39389831871812" lon="13.45727553751107"><ele>869.6666666666667</ele><time>2026-04-04T13:12:29Z</time></trkpt><trkpt lat="46.393935645330565" lon="13.457117438112054"><ele>867.3333333333333</ele><time>2026-04-04T13:12:30Z</time></trkpt><trkpt lat="46.39371597491566" lon="13.456855296019462"><ele>865.0</ele><time>2026-04-04T13:12:31Z</time></trkpt><trkpt lat="46.39371897182752" lon="13.45668427188038"><ele>865.0</ele><time>2026-04-04T13:12:32Z</time></trkpt><trkpt lat="46.39374694534183" lon="13.456539209788298"><ele>865.0</ele><time>2026-04-04T13:12:33Z</time></trkpt><trkpt lat="46.39378730575908" lon="13.45637794255198"><ele>865.0</ele><time>2026-04-04T13:12:34Z</time></trkpt><trkpt lat="46.39383964340703" lon="13.456191492862455"><ele>865.0</ele><time>2026-04-04T13:12:35Z</time></trkpt><trkpt lat="46.39390224347356" lon="13.456002685799778"><ele>859.0</ele><time>2026-04-04T13:12:36Z</time></trkpt><trkpt lat="46.39396217196842" lon="13.455809715789828"><ele>853.0</ele><time>2026-04-04T13:12:37Z</time></trkpt><trkpt lat="46.39399798186376" lon="13.455589667067436"><ele>847.0</ele><time>2026-04-04T13:12:38Z</time></trkpt><trkpt lat="46.39402215810893" lon="13.45534331048937"><ele>847.0</ele><time>2026-04-04T13:12:39Z</time></trkpt><trkpt lat="46.394065258574216" lon="13.455105797437568"><ele>847.0</ele><time>2026-04-04T13:12:40Z</time></trkpt><trkpt lat="46.39411480139171" lon="13.454910945806244"><ele>847.0</ele><time>2026-04-04T13:12:41Z</time></trkpt><trkpt lat="46.39420186266218" lon="13.454756084344961"><ele>847.0</ele><time>2026-04-04T13:12:42Z</time></trkpt><trkpt lat="46.39430947360059" lon="13.454612874736478"><ele>847.0</ele><time>2026-04-04T13:12:43Z</time></trkpt><trkpt lat="46.39440556745355" lon="13.45443630524878"><ele>847.0</ele><time>2026-04-04T13:12:44Z</time></trkpt><trkpt lat="46.39450457485478" lon="13.454238705957492"><ele>847.0</ele><time>2026-04-04T13:12:45Z</time></trkpt><trkpt lat="46.39459644336499" lon="13.454020634839386"><ele>847.0</ele><time>2026-04-04T13:12:45.999Z</time></trkpt><trkpt lat="46.39469069019587" lon="13.453793723601365"><ele>847.0</ele><time>2026-04-04T13:12:46.999Z</time></trkpt><trkpt lat="46.39478858443571" lon="13.453566111119114"><ele>841.6666666666666</ele><time>2026-04-04T13:12:47.999Z</time></trkpt><trkpt lat="46.3948896439673" lon="13.45333625210489"><ele>836.3333333333333</ele><time>2026-04-04T13:12:48.999Z</time></trkpt><trkpt lat="46.394977389325284" lon="13.4530957051782"><ele>831.0</ele><time>2026-04-04T13:12:49.999Z</time></trkpt><trkpt lat="46.395055585812116" lon="13.452850604229015"><ele>831.0</ele><time>2026-04-04T13:12:50.999Z</time></trkpt><trkpt lat="46.39512536230861" lon="13.45260736220369"><ele>831.0</ele><time>2026-04-04T13:12:51.999Z</time></trkpt><trkpt lat="46.395183534146454" lon="13.452372506015971"><ele>831.0</ele><time>2026-04-04T13:12:52.999Z</time></trkpt><trkpt lat="46.39522371538825" lon="13.452130569754498"><ele>833.0</ele><time>2026-04-04T13:12:53.999Z</time></trkpt><trkpt lat="46.395245171272215" lon="13.45188432781896"><ele>835.0</ele><time>2026-04-04T13:12:54.999Z</time></trkpt><trkpt lat="46.39525950522208" lon="13.451670887159949"><ele>837.0</ele><time>2026-04-04T13:12:55.999Z</time></trkpt><trkpt lat="46.39527054268185" lon="13.451476257161904"><ele>833.6666666666667</ele><time>2026-04-04T13:12:56.999Z</time></trkpt><trkpt lat="46.39525003157845" lon="13.451264078696314"><ele>830.3333333333334</ele><time>2026-04-04T13:12:57.999Z</time></trkpt><trkpt lat="46.39519145014235" lon="13.451033578565093"><ele>827.0</ele><time>2026-04-04T13:12:58.999Z</time></trkpt><trkpt lat="46.3951086806556" lon="13.450796731574123"><ele>827.0</ele><time>2026-04-04T13:12:59.999Z</time></trkpt><trkpt lat="46.395026105585465" lon="13.450554047902841"><ele>827.0</ele><time>2026-04-04T13:13:00.999Z</time></trkpt><trkpt lat="46.39496072702455" lon="13.450301775804107"><ele>827.0</ele><time>2026-04-04T13:13:01.999Z</time></trkpt><trkpt lat="46.39490828519853" lon="13.450030397100086"><ele>823.6666666666667</ele><time>2026-04-04T13:13:02.999Z</time></trkpt><trkpt lat="46.39489291040758" lon="13.449736752532436"><ele>820.3333333333333</ele><time>2026-04-04T13:13:03.999Z</time></trkpt><trkpt lat="46.39487613932781" lon="13.449426240074304"><ele>817.0</ele><time>2026-04-04T13:13:04.999Z</time></trkpt><trkpt lat="46.3948446962911" lon="13.449120158132537"><ele>816.6666666666666</ele><time>2026-04-04T13:13:05.999Z</time></trkpt><trkpt lat="46.394847859512716" lon="13.448820118793822"><ele>816.3333333333333</ele><time>2026-04-04T13:13:06.999Z</time></trkpt><trkpt lat="46.39482977318884" lon="13.448528329880974"><ele>816.0</ele><time>2026-04-04T13:13:07.999Z</time></trkpt><trkpt lat="46.39485401660813" lon="13.4482309698577"><ele>812.0</ele><time>2026-04-04T13:13:08.999Z</time></trkpt><trkpt lat="46.39489831089696" lon="13.447920746179374"><ele>808.0</ele><time>2026-04-04T13:13:09.999Z</time></trkpt><trkpt lat="46.39494930317994" lon="13.447609763951816"><ele>804.0</ele><time>2026-04-04T13:13:10.999Z</time></trkpt><trkpt lat="46.394997631066865" lon="13.447308994118192"><ele>802.3333333333333</ele><time>2026-04-04T13:13:11.999Z</time></trkpt><trkpt lat="46.395038767807264" lon="13.447035969894296"><ele>800.6666666666666</ele><time>2026-04-04T13:13:12.999Z</time></trkpt><trkpt lat="46.39505825466806" lon="13.446784038020553"><ele>799.0</ele><time>2026-04-04T13:13:13.999Z</time></trkpt><trkpt lat="46.39505303977053" lon="13.44651848046498"><ele>798.0</ele><time>2026-04-04T13:13:14.999Z</time></trkpt><trkpt lat="46.39502848017564" lon="13.446237875170501"><ele>797.0</ele><time>2026-04-04T13:13:15.999Z</time></trkpt><trkpt lat="46.394991092556445" lon="13.445947380880057"><ele>796.0</ele><time>2026-04-04T13:13:16.999Z</time></trkpt><trkpt lat="46.394955562091184" lon="13.445664310425158"><ele>796.0</ele><time>2026-04-04T13:13:17.999Z</time></trkpt><trkpt lat="46.394917995315595" lon="13.445394554098037"><ele>796.0</ele><time>2026-04-04T13:13:18.999Z</time></trkpt><trkpt lat="46.39485763346177" lon="13.445133233707786"><ele>796.0</ele><time>2026-04-04T13:13:19.999Z</time></trkpt><trkpt lat="46.39478368811315" lon="13.444874861166006"><ele>796.0</ele><time>2026-04-04T13:13:20.999Z</time></trkpt><trkpt lat="46.3947053025561" lon="13.444612379609318"><ele>796.0</ele><time>2026-04-04T13:13:21.999Z</time></trkpt><trkpt lat="46.394632061884764" lon="13.444344545835543"><ele>796.0</ele><time>2026-04-04T13:13:22.999Z</time></trkpt><trkpt lat="46.3945736697827" lon="13.444090784686063"><ele>796.0</ele><time>2026-04-04T13:13:23.999Z</time></trkpt><trkpt lat="46.39453637538462" lon="13.443844629222134"><ele>796.0</ele><time>2026-04-04T13:13:24.999Z</time></trkpt><trkpt lat="46.39450500982573" lon="13.443609371253638"><ele>796.0</ele><time>2026-04-04T13:13:25.999Z</time></trkpt><trkpt lat="46.394470251760474" lon="13.443390608478982"><ele>796.0</ele><time>2026-04-04T13:13:26.999Z</time></trkpt><trkpt lat="46.39444395696729" lon="13.443179161229745"><ele>796.0</ele><time>2026-04-04T13:13:27.999Z</time></trkpt><trkpt lat="46.394443117324464" lon="13.442975794199787"><ele>796.0</ele><time>2026-04-04T13:13:28.999Z</time></trkpt><trkpt lat="46.39449575597425" lon="13.44279146363636"><ele>796.0</ele><time>2026-04-04T13:13:29.999Z</time></trkpt><trkpt lat="46.39454613699128" lon="13.442614616973936"><ele>796.0</ele><time>2026-04-04T13:13:30.999Z</time></trkpt><trkpt lat="46.394563621943014" lon="13.442435275462906"><ele>796.0</ele><time>2026-04-04T13:13:31.999Z</time></trkpt><trkpt lat="46.394570987473784" lon="13.442264392488608"><ele>796.0</ele><time>2026-04-04T13:13:32.999Z</time></trkpt><trkpt lat="46.39454539234607" lon="13.44208624504622"><ele>796.0</ele><time>2026-04-04T13:13:33.999Z</time></trkpt><trkpt lat="46.394491503701666" lon="13.441912671862069"><ele>796.0</ele><time>2026-04-04T13:13:34.999Z</time></trkpt><trkpt lat="46.39440063879753" lon="13.441746258304775"><ele>796.0</ele><time>2026-04-04T13:13:35.999Z</time></trkpt><trkpt lat="46.39427846448232" lon="13.441574923005405"><ele>796.0</ele><time>2026-04-04T13:13:36.999Z</time></trkpt><trkpt lat="46.39417199267974" lon="13.441370389326671"><ele>796.0</ele><time>2026-04-04T13:13:37.999Z</time></trkpt><trkpt lat="46.39404948901746" lon="13.441195865160275"><ele>796.0</ele><time>2026-04-04T13:13:38.999Z</time></trkpt><trkpt lat="46.39394566380938" lon="13.441022952721955"><ele>796.0</ele><time>2026-04-04T13:13:39.999Z</time></trkpt><trkpt lat="46.393857829640794" lon="13.440868726786524"><ele>796.0</ele><time>2026-04-04T13:13:40.999Z</time></trkpt><trkpt lat="46.39377877049241" lon="13.440728320209413"><ele>796.0</ele><time>2026-04-04T13:13:41.999Z</time></trkpt><trkpt lat="46.39371585125503" lon="13.440588263984795"><ele>796.0</ele><time>2026-04-04T13:13:42.999Z</time></trkpt><trkpt lat="46.39367976927025" lon="13.44042863787513"><ele>796.0</ele><time>2026-04-04T13:13:43.999Z</time></trkpt><trkpt lat="46.39369851288773" lon="13.440247279762241"><ele>796.0</ele><time>2026-04-04T13:13:44.999Z</time></trkpt><trkpt lat="46.39374872339664" lon="13.44007346415441"><ele>796.0</ele><time>2026-04-04T13:13:45.999Z</time></trkpt><trkpt lat="46.393816097417684" lon="13.43990006057154"><ele>796.0</ele><time>2026-04-04T13:13:46.999Z</time></trkpt><trkpt lat="46.393861559264586" lon="13.439698510223744"><ele>796.0</ele><time>2026-04-04T13:13:47.999Z</time></trkpt><trkpt lat="46.393896644601426" lon="13.439493026870053"><ele>796.0</ele><time>2026-04-04T13:13:48.999Z</time></trkpt><trkpt lat="46.39391675707376" lon="13.439258928574557"><ele>796.0</ele><time>2026-04-04T13:13:49.999Z</time></trkpt><trkpt lat="46.39391820812127" lon="13.439009175520315"><ele>796.0</ele><time>2026-04-04T13:13:50.999Z</time></trkpt><trkpt lat="46.39392039242687" lon="13.438766456102876"><ele>796.0</ele><time>2026-04-04T13:13:51.999Z</time></trkpt><trkpt lat="46.393905668238325" lon="13.438542112027884"><ele>796.0</ele><time>2026-04-04T13:13:52.999Z</time></trkpt><trkpt lat="46.39387863310372" lon="13.438308405617786"><ele>796.0</ele><time>2026-04-04T13:13:53.999Z</time></trkpt><trkpt lat="46.39384329849667" lon="13.4380674525319"><ele>796.0</ele><time>2026-04-04T13:13:54.999Z</time></trkpt><trkpt lat="46.39380642144804" lon="13.437852597402276"><ele>796.0</ele><time>2026-04-04T13:13:55.999Z</time></trkpt><trkpt lat="46.39377517130692" lon="13.43766058071819"><ele>796.0</ele><time>2026-04-04T13:13:56.999Z</time></trkpt><trkpt lat="46.39374855895115" lon="13.437493112931888"><ele>796.0</ele><time>2026-04-04T13:13:57.999Z</time></trkpt><trkpt lat="46.39372495806887" lon="13.437349083502607"><ele>796.0</ele><time>2026-04-04T13:13:58.999Z</time></trkpt><trkpt lat="46.393695617427134" lon="13.43723657919213"><ele>796.0</ele><time>2026-04-04T13:13:59.999Z</time></trkpt><trkpt lat="46.39370888083382" lon="13.4371451696674"><ele>796.0</ele><time>2026-04-04T13:14:00.999Z</time></trkpt><trkpt lat="46.393826302415626" lon="13.437107124525225"><ele>796.0</ele><time>2026-04-04T13:14:02.999Z</time></trkpt><trkpt lat="46.39388440201789" lon="13.43720838105148"><ele>796.0</ele><time>2026-04-04T13:14:03.999Z</time></trkpt><trkpt lat="46.39390058802509" lon="13.437375810067264"><ele>796.0</ele><time>2026-04-04T13:14:04.999Z</time></trkpt><trkpt lat="46.393913992999224" lon="13.437574242847166"><ele>796.0</ele><time>2026-04-04T13:14:05.999Z</time></trkpt><trkpt lat="46.39394267232874" lon="13.43774278019482"><ele>796.0</ele><time>2026-04-04T13:14:06.999Z</time></trkpt><trkpt lat="46.39398450762217" lon="13.437895215273574"><ele>796.0</ele><time>2026-04-04T13:14:07.999Z</time></trkpt><trkpt lat="46.394048713992355" lon="13.438031430420535"><ele>796.0</ele><time>2026-04-04T13:14:08.999Z</time></trkpt><trkpt lat="46.39415318743001" lon="13.438163008860139"><ele>796.0</ele><time>2026-04-04T13:14:09.999Z</time></trkpt><trkpt lat="46.39428979951542" lon="13.438294914035929"><ele>796.0</ele><time>2026-04-04T13:14:10.999Z</time></trkpt><trkpt lat="46.3944057164172" lon="13.438420911577689"><ele>796.0</ele><time>2026-04-04T13:14:11.999Z</time></trkpt><trkpt lat="46.39449916985258" lon="13.43851814758721"><ele>796.0</ele><time>2026-04-04T13:14:12.999Z</time></trkpt><trkpt lat="46.39459511530325" lon="13.438597504456123"><ele>796.0</ele><time>2026-04-04T13:14:13.999Z</time></trkpt><trkpt lat="46.39470126551105" lon="13.438631206354213"><ele>796.0</ele><time>2026-04-04T13:14:14.999Z</time></trkpt><trkpt lat="46.394813875700635" lon="13.438616829795748"><ele>796.0</ele><time>2026-04-04T13:14:16Z</time></trkpt><trkpt lat="46.39492903043403" lon="13.43855269826344"><ele>796.0</ele><time>2026-04-04T13:14:17Z</time></trkpt><trkpt lat="46.395045606163" lon="13.43843709687041"><ele>796.0</ele><time>2026-04-04T13:14:18Z</time></trkpt><trkpt lat="46.395169763931754" lon="13.43828252429519"><ele>796.0</ele><time>2026-04-04T13:14:19Z</time></trkpt><trkpt lat="46.39531125614008" lon="13.438116894616995"><ele>773.5</ele><time>2026-04-04T13:14:20Z</time></trkpt><trkpt lat="46.39544166000132" lon="13.437977529528288"><ele>751.0</ele><time>2026-04-04T13:14:21Z</time></trkpt><trkpt lat="46.39555870827566" lon="13.437848238500607"><ele>728.5</ele><time>2026-04-04T13:14:22Z</time></trkpt><trkpt lat="46.3956544779219" lon="13.437716402592208"><ele>706.0</ele><time>2026-04-04T13:14:23Z</time></trkpt><trkpt lat="46.39573225421548" lon="13.437561265346899"><ele>706.0</ele><time>2026-04-04T13:14:24Z</time></trkpt><trkpt lat="46.395776969791456" lon="13.43738231987288"><ele>706.0</ele><time>2026-04-04T13:14:25Z</time></trkpt><trkpt lat="46.395787081948434" lon="13.437192764011728"><ele>706.0</ele><time>2026-04-04T13:14:26Z</time></trkpt><trkpt lat="46.39577088871391" lon="13.437000234366936"><ele>706.0</ele><time>2026-04-04T13:14:27Z</time></trkpt><trkpt lat="46.39572552754348" lon="13.436815675007104"><ele>701.5</ele><time>2026-04-04T13:14:28Z</time></trkpt><trkpt lat="46.395652401789526" lon="13.436651620819285"><ele>697.0</ele><time>2026-04-04T13:14:29Z</time></trkpt><trkpt lat="46.39555268716034" lon="13.43649941780709"><ele>692.5</ele><time>2026-04-04T13:14:30Z</time></trkpt><trkpt lat="46.39542879403351" lon="13.436336931634168"><ele>688.0</ele><time>2026-04-04T13:14:31Z</time></trkpt><trkpt lat="46.39529939652513" lon="13.436147248355283"><ele>688.0</ele><time>2026-04-04T13:14:32Z</time></trkpt><trkpt lat="46.395187158554805" lon="13.435970377411682"><ele>688.0</ele><time>2026-04-04T13:14:33Z</time></trkpt><trkpt lat="46.395084394390366" lon="13.435815119779855"><ele>688.0</ele><time>2026-04-04T13:14:34Z</time></trkpt><trkpt lat="46.39499544589319" lon="13.435680824001917"><ele>688.0</ele><time>2026-04-04T13:14:35Z</time></trkpt><trkpt lat="46.3949376712705" lon="13.43553637356318"><ele>688.0</ele><time>2026-04-04T13:14:36Z</time></trkpt><trkpt lat="46.39491330633282" lon="13.435383206812046"><ele>688.0</ele><time>2026-04-04T13:14:37Z</time></trkpt><trkpt lat="46.3949181046426" lon="13.435238571011991"><ele>688.0</ele><time>2026-04-04T13:14:38Z</time></trkpt><trkpt lat="46.394940304554346" lon="13.435103526943806"><ele>688.0</ele><time>2026-04-04T13:14:39Z</time></trkpt><trkpt lat="46.39498174153236" lon="13.434971798676916"><ele>688.0</ele><time>2026-04-04T13:14:40Z</time></trkpt><trkpt lat="46.39506064759916" lon="13.434872844938003"><ele>683.75</ele><time>2026-04-04T13:14:41Z</time></trkpt><trkpt lat="46.395149935015645" lon="13.434777426308804"><ele>679.5</ele><time>2026-04-04T13:14:42Z</time></trkpt><trkpt lat="46.39525778343308" lon="13.434668044925086"><ele>675.25</ele><time>2026-04-04T13:14:43Z</time></trkpt><trkpt lat="46.39537651224158" lon="13.434529009234192"><ele>671.0</ele><time>2026-04-04T13:14:44Z</time></trkpt><trkpt lat="46.3955175899546" lon="13.434395955181815"><ele>669.3333333333333</ele><time>2026-04-04T13:14:45Z</time></trkpt><trkpt lat="46.39566428166358" lon="13.434235236759342"><ele>667.6666666666666</ele><time>2026-04-04T13:14:46Z</time></trkpt><trkpt lat="46.3958139717889" lon="13.434044328899196"><ele>666.0</ele><time>2026-04-04T13:14:47Z</time></trkpt><trkpt lat="46.39596746832273" lon="13.433838662809954"><ele>667.3333333333334</ele><time>2026-04-04T13:14:48Z</time></trkpt><trkpt lat="46.39612754082532" lon="13.433630027854816"><ele>668.6666666666667</ele><time>2026-04-04T13:14:49Z</time></trkpt><trkpt lat="46.39627587670135" lon="13.433436512929354"><ele>670.0</ele><time>2026-04-04T13:14:50Z</time></trkpt><trkpt lat="46.396409734972494" lon="13.433251942293374"><ele>671.6666666666667</ele><time>2026-04-04T13:14:51Z</time></trkpt><trkpt lat="46.39654279011376" lon="13.433071608663004"><ele>673.3333333333334</ele><time>2026-04-04T13:14:52Z</time></trkpt><trkpt lat="46.39663392099187" lon="13.432859752003365"><ele>675.0</ele><time>2026-04-04T13:14:53Z</time></trkpt><trkpt lat="46.396684648787726" lon="13.43266839690056"><ele>672.25</ele><time>2026-04-04T13:14:54Z</time></trkpt><trkpt lat="46.396768979475965" lon="13.432530822334058"><ele>669.5</ele><time>2026-04-04T13:14:54.999Z</time></trkpt><trkpt lat="46.39686850284706" lon="13.432441368846208"><ele>666.75</ele><time>2026-04-04T13:14:55.999Z</time></trkpt><trkpt lat="46.39698993247004" lon="13.432432320916135"><ele>664.0</ele><time>2026-04-04T13:14:56.999Z</time></trkpt><trkpt lat="46.39713736714782" lon="13.432397095657336"><ele>667.25</ele><time>2026-04-04T13:14:57.999Z</time></trkpt><trkpt lat="46.39729772415881" lon="13.432381186047333"><ele>670.5</ele><time>2026-04-04T13:14:58.999Z</time></trkpt><trkpt lat="46.397432548754374" lon="13.432346227628889"><ele>673.75</ele><time>2026-04-04T13:14:59.999Z</time></trkpt><trkpt lat="46.397559009976966" lon="13.432302525540434"><ele>677.0</ele><time>2026-04-04T13:15:00.999Z</time></trkpt><trkpt lat="46.39767275473898" lon="13.432227447798924"><ele>670.75</ele><time>2026-04-04T13:15:01.999Z</time></trkpt><trkpt lat="46.39777432610298" lon="13.43211446397543"><ele>664.5</ele><time>2026-04-04T13:15:02.999Z</time></trkpt><trkpt lat="46.397859631035075" lon="13.4319719817717"><ele>658.25</ele><time>2026-04-04T13:15:03.999Z</time></trkpt><trkpt lat="46.39791408650501" lon="13.431794635917496"><ele>652.0</ele><time>2026-04-04T13:15:04.999Z</time></trkpt><trkpt lat="46.39794668894077" lon="13.431593234252205"><ele>652.0</ele><time>2026-04-04T13:15:05.999Z</time></trkpt><trkpt lat="46.397975703588294" lon="13.43136954922194"><ele>652.0</ele><time>2026-04-04T13:15:06.999Z</time></trkpt><trkpt lat="46.398022103721594" lon="13.431156208052043"><ele>652.0</ele><time>2026-04-04T13:15:07.999Z</time></trkpt><trkpt lat="46.39808455048783" lon="13.430971594585625"><ele>652.25</ele><time>2026-04-04T13:15:08.999Z</time></trkpt><trkpt lat="46.39815333736566" lon="13.430806781776475"><ele>652.5</ele><time>2026-04-04T13:15:09.999Z</time></trkpt><trkpt lat="46.39822114082512" lon="13.430641834985467"><ele>652.75</ele><time>2026-04-04T13:15:10.999Z</time></trkpt><trkpt lat="46.3982663140932" lon="13.430454257164014"><ele>653.0</ele><time>2026-04-04T13:15:11.999Z</time></trkpt><trkpt lat="46.398276012948074" lon="13.43024954962592"><ele>651.6666666666666</ele><time>2026-04-04T13:15:12.999Z</time></trkpt><trkpt lat="46.39824928560055" lon="13.430038815097795"><ele>650.3333333333334</ele><time>2026-04-04T13:15:13.999Z</time></trkpt><trkpt lat="46.398190737585175" lon="13.429830551862821"><ele>649.0</ele><time>2026-04-04T13:15:14.999Z</time></trkpt><trkpt lat="46.398117064040235" lon="13.429642760856533"><ele>648.75</ele><time>2026-04-04T13:15:15.999Z</time></trkpt><trkpt lat="46.398029925164124" lon="13.429479618814495"><ele>648.5</ele><time>2026-04-04T13:15:16.999Z</time></trkpt><trkpt lat="46.39796907564861" lon="13.429336132698376"><ele>648.25</ele><time>2026-04-04T13:15:17.999Z</time></trkpt><trkpt lat="46.397946048907215" lon="13.429183689361748"><ele>648.0</ele><time>2026-04-04T13:15:18.999Z</time></trkpt><trkpt lat="46.39796355238294" lon="13.429026396564005"><ele>649.0</ele><time>2026-04-04T13:15:19.999Z</time></trkpt><trkpt lat="46.39804952629771" lon="13.428882727290395"><ele>650.0</ele><time>2026-04-04T13:15:20.999Z</time></trkpt><trkpt lat="46.398150580862925" lon="13.4287063449766"><ele>651.0</ele><time>2026-04-04T13:15:21.999Z</time></trkpt><trkpt lat="46.39825244462749" lon="13.428497426705219"><ele>648.0</ele><time>2026-04-04T13:15:22.999Z</time></trkpt><trkpt lat="46.3983783776004" lon="13.428282576634922"><ele>645.0</ele><time>2026-04-04T13:15:23.999Z</time></trkpt><trkpt lat="46.39851106837212" lon="13.428044405996427"><ele>642.0</ele><time>2026-04-04T13:15:24.999Z</time></trkpt><trkpt lat="46.39866508417757" lon="13.427807149671752"><ele>644.0</ele><time>2026-04-04T13:15:25.999Z</time></trkpt><trkpt lat="46.39880497787916" lon="13.427525588469466"><ele>646.0</ele><time>2026-04-04T13:15:26.999Z</time></trkpt><trkpt lat="46.398927591536264" lon="13.427221406925739"><ele>642.3333333333334</ele><time>2026-04-04T13:15:27.999Z</time></trkpt><trkpt lat="46.39905479831654" lon="13.426944193075624"><ele>638.6666666666666</ele><time>2026-04-04T13:15:28.999Z</time></trkpt><trkpt lat="46.39917279903039" lon="13.426698307309017"><ele>635.0</ele><time>2026-04-04T13:15:29.999Z</time></trkpt><trkpt lat="46.39927660112855" lon="13.42646838688133"><ele>636.3333333333333</ele><time>2026-04-04T13:15:30.999Z</time></trkpt><trkpt lat="46.39935982794808" lon="13.426247028131925"><ele>637.6666666666666</ele><time>2026-04-04T13:15:31.999Z</time></trkpt><trkpt lat="46.39942282011115" lon="13.426033038044151"><ele>639.0</ele><time>2026-04-04T13:15:32.999Z</time></trkpt><trkpt lat="46.399472573753634" lon="13.425821138306262"><ele>639.0</ele><time>2026-04-04T13:15:33.999Z</time></trkpt><trkpt lat="46.39951214174951" lon="13.425589015580753"><ele>639.0</ele><time>2026-04-04T13:15:34.999Z</time></trkpt><trkpt lat="46.39953376363061" lon="13.425330089488163"><ele>639.0</ele><time>2026-04-04T13:15:35.999Z</time></trkpt><trkpt lat="46.39954600074841" lon="13.425049037772453"><ele>637.6666666666666</ele><time>2026-04-04T13:15:36.999Z</time></trkpt><trkpt lat="46.39955070879567" lon="13.424779173804398"><ele>636.3333333333333</ele><time>2026-04-04T13:15:37.999Z</time></trkpt><trkpt lat="46.39954988672831" lon="13.424527033329861"><ele>635.0</ele><time>2026-04-04T13:15:38.999Z</time></trkpt><trkpt lat="46.39951337569796" lon="13.424288237603328"><ele>635.0</ele><time>2026-04-04T13:15:39.999Z</time></trkpt><trkpt lat="46.39943669750445" lon="13.424072773533904"><ele>635.0</ele><time>2026-04-04T13:15:40.999Z</time></trkpt><trkpt lat="46.39934765004098" lon="13.423872880446856"><ele>635.0</ele><time>2026-04-04T13:15:41.999Z</time></trkpt><trkpt lat="46.39927870970601" lon="13.423664219587215"><ele>633.0</ele><time>2026-04-04T13:15:42.999Z</time></trkpt><trkpt lat="46.399253161909016" lon="13.423422231484999"><ele>631.0</ele><time>2026-04-04T13:15:43.999Z</time></trkpt><trkpt lat="46.39923926588915" lon="13.42316576354968"><ele>629.0</ele><time>2026-04-04T13:15:44.999Z</time></trkpt><trkpt lat="46.39922436308441" lon="13.422929140181173"><ele>627.0</ele><time>2026-04-04T13:15:45.999Z</time></trkpt><trkpt lat="46.39922741724231" lon="13.422705764135625"><ele>625.0</ele><time>2026-04-04T13:15:46.999Z</time></trkpt><trkpt lat="46.399281468575566" lon="13.422483470649311"><ele>623.0</ele><time>2026-04-04T13:15:47.999Z</time></trkpt><trkpt lat="46.399367166603255" lon="13.422255428195664"><ele>622.6666666666666</ele><time>2026-04-04T13:15:48.999Z</time></trkpt><trkpt lat="46.399459638290594" lon="13.422002294649069"><ele>622.3333333333334</ele><time>2026-04-04T13:15:49.999Z</time></trkpt><trkpt lat="46.399546248627736" lon="13.421751619364768"><ele>622.0</ele><time>2026-04-04T13:15:50.999Z</time></trkpt><trkpt lat="46.399621548016526" lon="13.421527921305314"><ele>622.6666666666667</ele><time>2026-04-04T13:15:51.999Z</time></trkpt><trkpt lat="46.39970082094377" lon="13.42132120006101"><ele>623.3333333333334</ele><time>2026-04-04T13:15:52.999Z</time></trkpt><trkpt lat="46.39978432652804" lon="13.421110819892233"><ele>624.0</ele><time>2026-04-04T13:15:53.999Z</time></trkpt><trkpt lat="46.39990744486358" lon="13.420922580339086"><ele>620.0</ele><time>2026-04-04T13:15:54.999Z</time></trkpt><trkpt lat="46.40004746561496" lon="13.42073980745329"><ele>616.0</ele><time>2026-04-04T13:15:55.999Z</time></trkpt><trkpt lat="46.400200605406894" lon="13.42058044598478"><ele>612.0</ele><time>2026-04-04T13:15:56.999Z</time></trkpt><trkpt lat="46.40034269636387" lon="13.420410941219089"><ele>612.0</ele><time>2026-04-04T13:15:57.999Z</time></trkpt><trkpt lat="46.4004808509259" lon="13.42024756594049"><ele>612.0</ele><time>2026-04-04T13:15:58.999Z</time></trkpt><trkpt lat="46.40061055155041" lon="13.420092697195702"><ele>612.0</ele><time>2026-04-04T13:15:59.999Z</time></trkpt><trkpt lat="46.40072887855575" lon="13.419949449633968"><ele>610.6666666666666</ele><time>2026-04-04T13:16:00.999Z</time></trkpt><trkpt lat="46.40084167261916" lon="13.419798522211202"><ele>609.3333333333333</ele><time>2026-04-04T13:16:01.999Z</time></trkpt><trkpt lat="46.40093722984362" lon="13.419625246980043"><ele>608.0</ele><time>2026-04-04T13:16:02.999Z</time></trkpt><trkpt lat="46.40101040758386" lon="13.419427780510878"><ele>607.6666666666666</ele><time>2026-04-04T13:16:03.999Z</time></trkpt><trkpt lat="46.40106832120054" lon="13.419220404329694"><ele>607.3333333333334</ele><time>2026-04-04T13:16:04.999Z</time></trkpt><trkpt lat="46.40112426226288" lon="13.41901289197139"><ele>607.0</ele><time>2026-04-04T13:16:05.999Z</time></trkpt><trkpt lat="46.40118407436766" lon="13.418801596362911"><ele>607.0</ele><time>2026-04-04T13:16:06.999Z</time></trkpt><trkpt lat="46.40124340585528" lon="13.418591998717943"><ele>607.0</ele><time>2026-04-04T13:16:07.999Z</time></trkpt><trkpt lat="46.40128521527027" lon="13.418382467002635"><ele>607.0</ele><time>2026-04-04T13:16:08.999Z</time></trkpt><trkpt lat="46.40133393902428" lon="13.418189056687675"><ele>607.0</ele><time>2026-04-04T13:16:09.999Z</time></trkpt><trkpt lat="46.401363812887624" lon="13.417980219049277"><ele>606.6666666666667</ele><time>2026-04-04T13:16:10.999Z</time></trkpt><trkpt lat="46.401374945819285" lon="13.417746757203691"><ele>606.3333333333334</ele><time>2026-04-04T13:16:11.999Z</time></trkpt><trkpt lat="46.401367211750156" lon="13.417487195001257"><ele>606.0</ele><time>2026-04-04T13:16:12.999Z</time></trkpt><trkpt lat="46.40137669169985" lon="13.417195047187427"><ele>605.3333333333334</ele><time>2026-04-04T13:16:13.999Z</time></trkpt><trkpt lat="46.40135792345222" lon="13.416941438676693"><ele>604.6666666666667</ele><time>2026-04-04T13:16:14.999Z</time></trkpt><trkpt lat="46.40137387420062" lon="13.416722506324462"><ele>604.0</ele><time>2026-04-04T13:16:15.999Z</time></trkpt><trkpt lat="46.40137678533241" lon="13.416524949410748"><ele>604.0</ele><time>2026-04-04T13:16:16.999Z</time></trkpt><trkpt lat="46.40140807189284" lon="13.4163475993912"><ele>604.0</ele><time>2026-04-04T13:16:17.999Z</time></trkpt><trkpt lat="46.401470587717434" lon="13.416171956788649"><ele>604.0</ele><time>2026-04-04T13:16:18.999Z</time></trkpt><trkpt lat="46.40157363254638" lon="13.416014324002852"><ele>604.0</ele><time>2026-04-04T13:16:19.999Z</time></trkpt><trkpt lat="46.40169938689978" lon="13.415838487724647"><ele>602.0</ele><time>2026-04-04T13:16:20.999Z</time></trkpt><trkpt lat="46.401812909046065" lon="13.415612301897713"><ele>600.0</ele><time>2026-04-04T13:16:22Z</time></trkpt><trkpt lat="46.401920633802455" lon="13.41535730965157"><ele>598.0</ele><time>2026-04-04T13:16:23Z</time></trkpt><trkpt lat="46.40199719804521" lon="13.415110291038172"><ele>598.0</ele><time>2026-04-04T13:16:24Z</time></trkpt><trkpt lat="46.40206803123598" lon="13.414896601554224"><ele>598.0</ele><time>2026-04-04T13:16:25Z</time></trkpt><trkpt lat="46.40213002734876" lon="13.414702249169308"><ele>598.0</ele><time>2026-04-04T13:16:26Z</time></trkpt><trkpt lat="46.40211668190848" lon="13.41446863853821"><ele>598.0</ele><time>2026-04-04T13:16:27Z</time></trkpt><trkpt lat="46.40208486735023" lon="13.414211635069844"><ele>598.0</ele><time>2026-04-04T13:16:28Z</time></trkpt><trkpt lat="46.40203826100218" lon="13.413928355687224"><ele>598.0</ele><time>2026-04-04T13:16:29Z</time></trkpt><trkpt lat="46.40201336733652" lon="13.413639924443377"><ele>597.0</ele><time>2026-04-04T13:16:30Z</time></trkpt><trkpt lat="46.40199003051852" lon="13.413307112756698"><ele>596.0</ele><time>2026-04-04T13:16:31Z</time></trkpt><trkpt lat="46.40196632317284" lon="13.412937947581167"><ele>593.3333333333333</ele><time>2026-04-04T13:16:32Z</time></trkpt><trkpt lat="46.4019490772497" lon="13.412611712074357"><ele>590.6666666666666</ele><time>2026-04-04T13:16:33Z</time></trkpt><trkpt lat="46.40192826317629" lon="13.41231106194625"><ele>588.0</ele><time>2026-04-04T13:16:34Z</time></trkpt><trkpt lat="46.4019223975069" lon="13.41203310917549"><ele>586.3333333333334</ele><time>2026-04-04T13:16:35Z</time></trkpt><trkpt lat="46.401941117521766" lon="13.41177418400778"><ele>584.6666666666667</ele><time>2026-04-04T13:16:36Z</time></trkpt><trkpt lat="46.40201031453464" lon="13.411534972806813"><ele>583.0</ele><time>2026-04-04T13:16:37Z</time></trkpt><trkpt lat="46.402080434544565" lon="13.41127474358228"><ele>584.0</ele><time>2026-04-04T13:16:38Z</time></trkpt><trkpt lat="46.40217004776921" lon="13.411019711787622"><ele>585.0</ele><time>2026-04-04T13:16:39Z</time></trkpt><trkpt lat="46.402255088118046" lon="13.41076136988203"><ele>586.0</ele><time>2026-04-04T13:16:40Z</time></trkpt><trkpt lat="46.40226458609382" lon="13.410461167138564"><ele>586.0</ele><time>2026-04-04T13:16:41Z</time></trkpt><trkpt lat="46.4022845113194" lon="13.410147910054075"><ele>586.0</ele><time>2026-04-04T13:16:42Z</time></trkpt><trkpt lat="46.40229809893512" lon="13.409818301406677"><ele>586.0</ele><time>2026-04-04T13:16:43Z</time></trkpt><trkpt lat="46.402296326770916" lon="13.409472120417162"><ele>589.5</ele><time>2026-04-04T13:16:44Z</time></trkpt><trkpt lat="46.402274500791044" lon="13.409111222797028"><ele>593.0</ele><time>2026-04-04T13:16:45Z</time></trkpt><trkpt lat="46.4022537030721" lon="13.408748072850345"><ele>595.0</ele><time>2026-04-04T13:16:46Z</time></trkpt><trkpt lat="46.40223457828529" lon="13.408408855439836"><ele>597.0</ele><time>2026-04-04T13:16:47Z</time></trkpt><trkpt lat="46.402217384971685" lon="13.40808166473445"><ele>594.0</ele><time>2026-04-04T13:16:48Z</time></trkpt><trkpt lat="46.402209284025986" lon="13.407748828067154"><ele>591.0</ele><time>2026-04-04T13:16:49Z</time></trkpt><trkpt lat="46.40222124327657" lon="13.407408746183053"><ele>587.5</ele><time>2026-04-04T13:16:50Z</time></trkpt><trkpt lat="46.4022447706667" lon="13.407048446158795"><ele>584.0</ele><time>2026-04-04T13:16:51Z</time></trkpt><trkpt lat="46.402268883745535" lon="13.406659219829876"><ele>583.5</ele><time>2026-04-04T13:16:52Z</time></trkpt><trkpt lat="46.402295115922776" lon="13.406252196108555"><ele>583.0</ele><time>2026-04-04T13:16:53Z</time></trkpt><trkpt lat="46.40233843674941" lon="13.405840339026184"><ele>581.5</ele><time>2026-04-04T13:16:54Z</time></trkpt><trkpt lat="46.402365975461386" lon="13.405453608926363"><ele>580.0</ele><time>2026-04-04T13:16:55Z</time></trkpt><trkpt lat="46.402377514215246" lon="13.405095542497882"><ele>580.0</ele><time>2026-04-04T13:16:56Z</time></trkpt><trkpt lat="46.40240363956888" lon="13.404758527167816"><ele>580.0</ele><time>2026-04-04T13:16:56.999Z</time></trkpt><trkpt lat="46.402426967552195" lon="13.404438585219756"><ele>578.0</ele><time>2026-04-04T13:16:57.999Z</time></trkpt><trkpt lat="46.402463941053256" lon="13.404143190125342"><ele>576.0</ele><time>2026-04-04T13:16:58.999Z</time></trkpt><trkpt lat="46.40248239512704" lon="13.403868859799456"><ele>574.0</ele><time>2026-04-04T13:16:59.999Z</time></trkpt><trkpt lat="46.4024910413692" lon="13.403606722704632"><ele>572.5</ele><time>2026-04-04T13:17:00.999Z</time></trkpt><trkpt lat="46.40248770033212" lon="13.403376117989906"><ele>571.0</ele><time>2026-04-04T13:17:01.999Z</time></trkpt><trkpt lat="46.40246890435149" lon="13.403167637419516"><ele>569.5</ele><time>2026-04-04T13:17:02.999Z</time></trkpt><trkpt lat="46.40248547556267" lon="13.402977698893293"><ele>568.0</ele><time>2026-04-04T13:17:03.999Z</time></trkpt><trkpt lat="46.40252179239876" lon="13.402799289432059"><ele>567.0</ele><time>2026-04-04T13:17:04.999Z</time></trkpt><trkpt lat="46.402511275876286" lon="13.40262907640612"><ele>566.0</ele><time>2026-04-04T13:17:05.999Z</time></trkpt><trkpt lat="46.40258715864406" lon="13.402471781252522"><ele>565.0</ele><time>2026-04-04T13:17:06.999Z</time></trkpt><trkpt lat="46.40260253210025" lon="13.40233129476337"><ele>564.0</ele><time>2026-04-04T13:17:07.999Z</time></trkpt><trkpt lat="46.402595868144545" lon="13.402201071643411"><ele>563.0</ele><time>2026-04-04T13:17:08.999Z</time></trkpt><trkpt lat="46.40255241519312" lon="13.402087118839885"><ele>564.1999999999999</ele><time>2026-04-04T13:17:09.999Z</time></trkpt><trkpt lat="46.40247840993271" lon="13.402009905748129"><ele>565.4</ele><time>2026-04-04T13:17:10.999Z</time></trkpt><trkpt lat="46.40237830502741" lon="13.401974567338755"><ele>566.5999999999999</ele><time>2026-04-04T13:17:11.999Z</time></trkpt><trkpt lat="46.40226914331365" lon="13.401954696337585"><ele>567.8</ele><time>2026-04-04T13:17:12.999Z</time></trkpt><trkpt lat="46.402161122419805" lon="13.401913492984429"><ele>569.0</ele><time>2026-04-04T13:17:13.999Z</time></trkpt><trkpt lat="46.40206549131692" lon="13.401851104913025"><ele>569.0</ele><time>2026-04-04T13:17:14.999Z</time></trkpt><trkpt lat="46.401986863587275" lon="13.401767162407983"><ele>569.0</ele><time>2026-04-04T13:17:15.999Z</time></trkpt><trkpt lat="46.40193092382072" lon="13.4016423356474"><ele>569.0</ele><time>2026-04-04T13:17:16.999Z</time></trkpt><trkpt lat="46.40192029764456" lon="13.401478753019381"><ele>569.0</ele><time>2026-04-04T13:17:17.999Z</time></trkpt><trkpt lat="46.401950970865485" lon="13.40129252538519"><ele>569.0</ele><time>2026-04-04T13:17:18.999Z</time></trkpt><trkpt lat="46.401977065622965" lon="13.40106879490853"><ele>569.3333333333333</ele><time>2026-04-04T13:17:19.999Z</time></trkpt><trkpt lat="46.40197986013179" lon="13.400815707801643"><ele>569.6666666666666</ele><time>2026-04-04T13:17:20.999Z</time></trkpt><trkpt lat="46.40196114359867" lon="13.40054006595216"><ele>570.0</ele><time>2026-04-04T13:17:21.999Z</time></trkpt><trkpt lat="46.40192953480873" lon="13.400260583330393"><ele>567.6666666666666</ele><time>2026-04-04T13:17:22.999Z</time></trkpt><trkpt lat="46.40189166795395" lon="13.399983375542122"><ele>565.3333333333333</ele><time>2026-04-04T13:17:23.999Z</time></trkpt><trkpt lat="46.401854197943784" lon="13.399710816452156"><ele>563.0</ele><time>2026-04-04T13:17:24.999Z</time></trkpt><trkpt lat="46.401822276367994" lon="13.399450289358226"><ele>558.6666666666666</ele><time>2026-04-04T13:17:25.999Z</time></trkpt><trkpt lat="46.4017961909812" lon="13.399210143477843"><ele>554.3333333333334</ele><time>2026-04-04T13:17:26.999Z</time></trkpt><trkpt lat="46.40177035263135" lon="13.398993712886563"><ele>550.0</ele><time>2026-04-04T13:17:27.999Z</time></trkpt><trkpt lat="46.40174554089357" lon="13.398788070053849"><ele>550.0</ele><time>2026-04-04T13:17:28.999Z</time></trkpt><trkpt lat="46.40172831164863" lon="13.39858739343946"><ele>550.0</ele><time>2026-04-04T13:17:29.999Z</time></trkpt><trkpt lat="46.40172262189754" lon="13.398368305800552"><ele>550.0</ele><time>2026-04-04T13:17:30.999Z</time></trkpt><trkpt lat="46.40172166790535" lon="13.39812537753012"><ele>551.6666666666667</ele><time>2026-04-04T13:17:31.999Z</time></trkpt><trkpt lat="46.40173022275972" lon="13.397845450111593"><ele>553.3333333333334</ele><time>2026-04-04T13:17:32.999Z</time></trkpt><trkpt lat="46.40175836330228" lon="13.397525773440032"><ele>555.0</ele><time>2026-04-04T13:17:33.999Z</time></trkpt><trkpt lat="46.40177574270113" lon="13.397208111400678"><ele>555.0</ele><time>2026-04-04T13:17:34.999Z</time></trkpt><trkpt lat="46.401776096689886" lon="13.396930792133226"><ele>555.0</ele><time>2026-04-04T13:17:35.999Z</time></trkpt><trkpt lat="46.40176881716517" lon="13.396650406809385"><ele>555.0</ele><time>2026-04-04T13:17:36.999Z</time></trkpt><trkpt lat="46.40175822485982" lon="13.396365080584165"><ele>555.3333333333334</ele><time>2026-04-04T13:17:37.999Z</time></trkpt><trkpt lat="46.40172661072777" lon="13.396077780313094"><ele>555.6666666666667</ele><time>2026-04-04T13:17:38.999Z</time></trkpt><trkpt lat="46.40167508715479" lon="13.395791517782156"><ele>556.0</ele><time>2026-04-04T13:17:39.999Z</time></trkpt><trkpt lat="46.40163945180452" lon="13.395509224092942"><ele>554.6666666666667</ele><time>2026-04-04T13:17:40.999Z</time></trkpt><trkpt lat="46.401626655456376" lon="13.39522418967904"><ele>553.3333333333334</ele><time>2026-04-04T13:17:41.999Z</time></trkpt><trkpt lat="46.401639667164105" lon="13.394930940894715"><ele>552.0</ele><time>2026-04-04T13:17:42.999Z</time></trkpt><trkpt lat="46.40166787319872" lon="13.394636599580243"><ele>550.6666666666666</ele><time>2026-04-04T13:17:43.999Z</time></trkpt><trkpt lat="46.401699602089245" lon="13.394372931690844"><ele>549.3333333333333</ele><time>2026-04-04T13:17:44.999Z</time></trkpt><trkpt lat="46.40175877557118" lon="13.394119532524346"><ele>548.0</ele><time>2026-04-04T13:17:45.999Z</time></trkpt><trkpt lat="46.401852081943346" lon="13.393852677994458"><ele>548.0</ele><time>2026-04-04T13:17:46.999Z</time></trkpt><trkpt lat="46.40195482558164" lon="13.393569743273114"><ele>548.0</ele><time>2026-04-04T13:17:47.999Z</time></trkpt><trkpt lat="46.40205482296463" lon="13.393291343497536"><ele>548.0</ele><time>2026-04-04T13:17:48.999Z</time></trkpt><trkpt lat="46.40213923841912" lon="13.393051862703016"><ele>545.3333333333333</ele><time>2026-04-04T13:17:49.999Z</time></trkpt><trkpt lat="46.40221710416804" lon="13.39283677729971"><ele>542.6666666666666</ele><time>2026-04-04T13:17:50.999Z</time></trkpt><trkpt lat="46.40228525280812" lon="13.39262413880168"><ele>540.0</ele><time>2026-04-04T13:17:51.999Z</time></trkpt><trkpt lat="46.40233228962924" lon="13.392396576770873"><ele>539.0</ele><time>2026-04-04T13:17:52.999Z</time></trkpt><trkpt lat="46.402360023991946" lon="13.392147408580279"><ele>538.0</ele><time>2026-04-04T13:17:53.999Z</time></trkpt><trkpt lat="46.4023637485917" lon="13.391878337420765"><ele>537.0</ele><time>2026-04-04T13:17:54.999Z</time></trkpt><trkpt lat="46.40236125194368" lon="13.391603081908181"><ele>535.6666666666666</ele><time>2026-04-04T13:17:55.999Z</time></trkpt><trkpt lat="46.40234140440865" lon="13.391316584317865"><ele>534.3333333333333</ele><time>2026-04-04T13:17:56.999Z</time></trkpt><trkpt lat="46.40229291813497" lon="13.391009926920558"><ele>533.0</ele><time>2026-04-04T13:17:57.999Z</time></trkpt><trkpt lat="46.402227893766685" lon="13.390687632422836"><ele>541.5</ele><time>2026-04-04T13:17:58.999Z</time></trkpt><trkpt lat="46.402164527317346" lon="13.390353912608328"><ele>550.0</ele><time>2026-04-04T13:17:59.999Z</time></trkpt><trkpt lat="46.40210793778741" lon="13.390030808426232"><ele>550.0</ele><time>2026-04-04T13:18:00.999Z</time></trkpt><trkpt lat="46.4020541416347" lon="13.389743124202317"><ele>550.0</ele><time>2026-04-04T13:18:01.999Z</time></trkpt><trkpt lat="46.40200307371613" lon="13.389473669954604"><ele>550.0</ele><time>2026-04-04T13:18:02.999Z</time></trkpt><trkpt lat="46.401977518358024" lon="13.389200195978715"><ele>550.6666666666667</ele><time>2026-04-04T13:18:03.999Z</time></trkpt><trkpt lat="46.401984353659614" lon="13.388912132273475"><ele>551.3333333333334</ele><time>2026-04-04T13:18:04.999Z</time></trkpt><trkpt lat="46.402025225212306" lon="13.388615074661235"><ele>552.0</ele><time>2026-04-04T13:18:05.999Z</time></trkpt><trkpt lat="46.4020886857103" lon="13.388309742587872"><ele>541.0</ele><time>2026-04-04T13:18:06.999Z</time></trkpt><trkpt lat="46.40217573677756" lon="13.388007226082037"><ele>530.0</ele><time>2026-04-04T13:18:07.999Z</time></trkpt><trkpt lat="46.40228653702585" lon="13.387704598877416"><ele>530.0</ele><time>2026-04-04T13:18:08.999Z</time></trkpt><trkpt lat="46.40241372614203" lon="13.387395345833154"><ele>530.0</ele><time>2026-04-04T13:18:09.999Z</time></trkpt><trkpt lat="46.40255191345683" lon="13.387082514386444"><ele>534.0</ele><time>2026-04-04T13:18:10.999Z</time></trkpt><trkpt lat="46.40270227727502" lon="13.386820766633793"><ele>538.0</ele><time>2026-04-04T13:18:11.999Z</time></trkpt><trkpt lat="46.40281319378822" lon="13.386566172223045"><ele>542.0</ele><time>2026-04-04T13:18:12.999Z</time></trkpt><trkpt lat="46.40291490089717" lon="13.386332716884489"><ele>537.3333333333333</ele><time>2026-04-04T13:18:13.999Z</time></trkpt><trkpt lat="46.40300053402824" lon="13.386121887014037"><ele>532.6666666666666</ele><time>2026-04-04T13:18:14.999Z</time></trkpt><trkpt lat="46.40305952123086" lon="13.385895915650204"><ele>528.0</ele><time>2026-04-04T13:18:15.999Z</time></trkpt><trkpt lat="46.403079775375176" lon="13.385619185362183"><ele>527.0</ele><time>2026-04-04T13:18:16.999Z</time></trkpt><trkpt lat="46.403088179515024" lon="13.385315306933704"><ele>526.0</ele><time>2026-04-04T13:18:17.999Z</time></trkpt><trkpt lat="46.403093520913316" lon="13.38496657190142"><ele>523.0</ele><time>2026-04-04T13:18:18.999Z</time></trkpt><trkpt lat="46.403103374503054" lon="13.38457725142131"><ele>520.0</ele><time>2026-04-04T13:18:19.999Z</time></trkpt><trkpt lat="46.40312624283377" lon="13.384166499497535"><ele>520.5</ele><time>2026-04-04T13:18:20.999Z</time></trkpt><trkpt lat="46.403157792705926" lon="13.3837451853924"><ele>521.0</ele><time>2026-04-04T13:18:21.999Z</time></trkpt><trkpt lat="46.40319365518514" lon="13.383334304870376"><ele>521.0</ele><time>2026-04-04T13:18:22.999Z</time></trkpt><trkpt lat="46.4032296498799" lon="13.382940687203591"><ele>521.0</ele><time>2026-04-04T13:18:23.999Z</time></trkpt><trkpt lat="46.40326310897631" lon="13.38256112756808"><ele>521.0</ele><time>2026-04-04T13:18:24.999Z</time></trkpt><trkpt lat="46.40329461607998" lon="13.382199892719132"><ele>521.0</ele><time>2026-04-04T13:18:25.999Z</time></trkpt><trkpt lat="46.40332573174183" lon="13.381856177605933"><ele>519.0</ele><time>2026-04-04T13:18:26.999Z</time></trkpt><trkpt lat="46.40335630397198" lon="13.381524698036856"><ele>517.0</ele><time>2026-04-04T13:18:28Z</time></trkpt><trkpt lat="46.40338291472173" lon="13.381208014777735"><ele>517.0</ele><time>2026-04-04T13:18:29Z</time></trkpt><trkpt lat="46.4034064990734" lon="13.38091545781358"><ele>517.0</ele><time>2026-04-04T13:18:30Z</time></trkpt><trkpt lat="46.40343125515588" lon="13.380640794575571"><ele>517.0</ele><time>2026-04-04T13:18:31Z</time></trkpt><trkpt lat="46.40345663386316" lon="13.380373427133415"><ele>518.3333333333334</ele><time>2026-04-04T13:18:32Z</time></trkpt><trkpt lat="46.40347732770193" lon="13.380122020982313"><ele>519.6666666666666</ele><time>2026-04-04T13:18:33Z</time></trkpt><trkpt lat="46.40348170951204" lon="13.379875419178891"><ele>521.0</ele><time>2026-04-04T13:18:34Z</time></trkpt><trkpt lat="46.40348262733837" lon="13.379632683511044"><ele>521.0</ele><time>2026-04-04T13:18:35Z</time></trkpt><trkpt lat="46.403483737836915" lon="13.379408204475903"><ele>521.0</ele><time>2026-04-04T13:18:36Z</time></trkpt><trkpt lat="46.403484056774005" lon="13.379205850505326"><ele>521.0</ele><time>2026-04-04T13:18:37Z</time></trkpt><trkpt lat="46.40348386548171" lon="13.379019893303346"><ele>521.0</ele><time>2026-04-04T13:18:38Z</time></trkpt><trkpt lat="46.40349928167782" lon="13.378845648957723"><ele>520.75</ele><time>2026-04-04T13:18:39Z</time></trkpt><trkpt lat="46.40355318749319" lon="13.378682011590254"><ele>520.5</ele><time>2026-04-04T13:18:40Z</time></trkpt><trkpt lat="46.40363486710136" lon="13.378532616596159"><ele>520.25</ele><time>2026-04-04T13:18:41Z</time></trkpt><trkpt lat="46.403699767641676" lon="13.378377674621044"><ele>520.0</ele><time>2026-04-04T13:18:42Z</time></trkpt><trkpt lat="46.403786303792586" lon="13.378240068972742"><ele>518.75</ele><time>2026-04-04T13:18:43Z</time></trkpt><trkpt lat="46.40383733278964" lon="13.378053765654723"><ele>517.5</ele><time>2026-04-04T13:18:44Z</time></trkpt><trkpt lat="46.40384545223495" lon="13.377848652000253"><ele>516.25</ele><time>2026-04-04T13:18:45Z</time></trkpt><trkpt lat="46.40382641028329" lon="13.377645291798872"><ele>515.0</ele><time>2026-04-04T13:18:46Z</time></trkpt><trkpt lat="46.40380704296825" lon="13.377465066837484"><ele>515.0</ele><time>2026-04-04T13:18:47Z</time></trkpt><trkpt lat="46.40378885907114" lon="13.377302923285276"><ele>515.0</ele><time>2026-04-04T13:18:48Z</time></trkpt><trkpt lat="46.40377151131014" lon="13.377148235349031"><ele>515.0</ele><time>2026-04-04T13:18:49Z</time></trkpt><trkpt lat="46.403755075964895" lon="13.376989111395092"><ele>515.0</ele><time>2026-04-04T13:18:50Z</time></trkpt><trkpt lat="46.40373702467573" lon="13.376822146371088"><ele>515.0</ele><time>2026-04-04T13:18:51Z</time></trkpt><trkpt lat="46.40371288479773" lon="13.376657665612736"><ele>513.75</ele><time>2026-04-04T13:18:52Z</time></trkpt><trkpt lat="46.40368418770506" lon="13.376498431672246"><ele>512.5</ele><time>2026-04-04T13:18:53Z</time></trkpt><trkpt lat="46.40363940107329" lon="13.376337525581231"><ele>511.25</ele><time>2026-04-04T13:18:54Z</time></trkpt><trkpt lat="46.403569369930544" lon="13.376174818545117"><ele>510.0</ele><time>2026-04-04T13:18:55Z</time></trkpt><trkpt lat="46.4034857076646" lon="13.376007170674677"><ele>509.66666666666663</ele><time>2026-04-04T13:18:56Z</time></trkpt><trkpt lat="46.40339047550207" lon="13.375812806461816"><ele>509.3333333333333</ele><time>2026-04-04T13:18:56.999Z</time></trkpt><trkpt lat="46.40327318490979" lon="13.37557290895059"><ele>509.0</ele><time>2026-04-04T13:18:57.999Z</time></trkpt><trkpt lat="46.4031407534895" lon="13.37530668607462"><ele>508.66666666666663</ele><time>2026-04-04T13:18:58.999Z</time></trkpt><trkpt lat="46.403020689309535" lon="13.37506571119092"><ele>508.33333333333337</ele><time>2026-04-04T13:18:59.999Z</time></trkpt><trkpt lat="46.40291059934038" lon="13.374840313200515"><ele>508.0</ele><time>2026-04-04T13:19:00.999Z</time></trkpt><trkpt lat="46.402812827029436" lon="13.374618917722831"><ele>509.0</ele><time>2026-04-04T13:19:01.999Z</time></trkpt><trkpt lat="46.40277952325969" lon="13.374364041821776"><ele>510.0</ele><time>2026-04-04T13:19:02.999Z</time></trkpt><trkpt lat="46.40273619714588" lon="13.374113352381055"><ele>511.0</ele><time>2026-04-04T13:19:03.999Z</time></trkpt><trkpt lat="46.402741213333755" lon="13.373863039206908"><ele>511.5</ele><time>2026-04-04T13:19:04.999Z</time></trkpt><trkpt lat="46.402796998714756" lon="13.373650516140286"><ele>512.0</ele><time>2026-04-04T13:19:05.999Z</time></trkpt><trkpt lat="46.402858670817906" lon="13.373474557813466"><ele>512.5</ele><time>2026-04-04T13:19:06.999Z</time></trkpt><trkpt lat="46.402920927616904" lon="13.373316338726093"><ele>513.0</ele><time>2026-04-04T13:19:07.999Z</time></trkpt><trkpt lat="46.40296648487493" lon="13.373165704127636"><ele>510.25</ele><time>2026-04-04T13:19:08.999Z</time></trkpt><trkpt lat="46.4029738415006" lon="13.372967211545623"><ele>507.5</ele><time>2026-04-04T13:19:09.999Z</time></trkpt><trkpt lat="46.4029174171062" lon="13.372778296135113"><ele>504.75</ele><time>2026-04-04T13:19:10.999Z</time></trkpt><trkpt lat="46.40283619803073" lon="13.372593188248906"><ele>502.0</ele><time>2026-04-04T13:19:11.999Z</time></trkpt><trkpt lat="46.40272163209029" lon="13.372399201926754"><ele>499.6666666666667</ele><time>2026-04-04T13:19:12.999Z</time></trkpt><trkpt lat="46.40259890563577" lon="13.372157300538221"><ele>497.33333333333337</ele><time>2026-04-04T13:19:13.999Z</time></trkpt><trkpt lat="46.40245142092569" lon="13.371908914437572"><ele>495.0</ele><time>2026-04-04T13:19:14.999Z</time></trkpt><trkpt lat="46.40230096005865" lon="13.371677341870193"><ele>495.0</ele><time>2026-04-04T13:19:15.999Z</time></trkpt><trkpt lat="46.402168667345876" lon="13.371487078736099"><ele>495.0</ele><time>2026-04-04T13:19:16.999Z</time></trkpt><trkpt lat="46.402039611242294" lon="13.371314316552636"><ele>495.0</ele><time>2026-04-04T13:19:17.999Z</time></trkpt><trkpt lat="46.40195795287124" lon="13.371090839624921"><ele>496.33333333333337</ele><time>2026-04-04T13:19:18.999Z</time></trkpt><trkpt lat="46.40187408159187" lon="13.37086163513897"><ele>497.6666666666667</ele><time>2026-04-04T13:19:19.999Z</time></trkpt><trkpt lat="46.40185378292818" lon="13.370573738057178"><ele>499.0</ele><time>2026-04-04T13:19:20.999Z</time></trkpt><trkpt lat="46.40183363710118" lon="13.370251124044692"><ele>500.0</ele><time>2026-04-04T13:19:21.999Z</time></trkpt><trkpt lat="46.40181272281089" lon="13.369896066495457"><ele>501.0</ele><time>2026-04-04T13:19:22.999Z</time></trkpt><trkpt lat="46.401789399063325" lon="13.369534950260965"><ele>505.0</ele><time>2026-04-04T13:19:23.999Z</time></trkpt><trkpt lat="46.40176246084701" lon="13.36919150475211"><ele>509.0</ele><time>2026-04-04T13:19:24.999Z</time></trkpt><trkpt lat="46.401696261056486" lon="13.368859746622128"><ele>507.5</ele><time>2026-04-04T13:19:25.999Z</time></trkpt><trkpt lat="46.4016760808756" lon="13.368503686081205"><ele>506.0</ele><time>2026-04-04T13:19:26.999Z</time></trkpt><trkpt lat="46.40170110094668" lon="13.368124096026982"><ele>507.0</ele><time>2026-04-04T13:19:27.999Z</time></trkpt><trkpt lat="46.40170853036453" lon="13.367738805144134"><ele>508.0</ele><time>2026-04-04T13:19:28.999Z</time></trkpt><trkpt lat="46.40171406490615" lon="13.367395713506282"><ele>507.33333333333337</ele><time>2026-04-04T13:19:29.999Z</time></trkpt><trkpt lat="46.401723844388314" lon="13.367083799299236"><ele>506.66666666666663</ele><time>2026-04-04T13:19:30.999Z</time></trkpt><trkpt lat="46.4017578345421" lon="13.366775153362084"><ele>506.0</ele><time>2026-04-04T13:19:31.999Z</time></trkpt><trkpt lat="46.40182098143753" lon="13.366477783602418"><ele>506.66666666666663</ele><time>2026-04-04T13:19:32.999Z</time></trkpt><trkpt lat="46.401904069648594" lon="13.366183881803924"><ele>507.33333333333337</ele><time>2026-04-04T13:19:33.999Z</time></trkpt><trkpt lat="46.401969635859906" lon="13.365882292039975"><ele>508.0</ele><time>2026-04-04T13:19:34.999Z</time></trkpt><trkpt lat="46.40201913264374" lon="13.365607617307445"><ele>509.33333333333337</ele><time>2026-04-04T13:19:35.999Z</time></trkpt><trkpt lat="46.40204932574888" lon="13.365348460278849"><ele>510.66666666666663</ele><time>2026-04-04T13:19:36.999Z</time></trkpt><trkpt lat="46.40204890646265" lon="13.365072023037865"><ele>512.0</ele><time>2026-04-04T13:19:37.999Z</time></trkpt><trkpt lat="46.402024378055216" lon="13.364780791371528"><ele>508.66666666666663</ele><time>2026-04-04T13:19:38.999Z</time></trkpt><trkpt lat="46.401977132923065" lon="13.36448127159306"><ele>505.33333333333337</ele><time>2026-04-04T13:19:39.999Z</time></trkpt><trkpt lat="46.40192345886256" lon="13.364171493872835"><ele>502.0</ele><time>2026-04-04T13:19:40.999Z</time></trkpt><trkpt lat="46.401864528078576" lon="13.36384581926105"><ele>497.5</ele><time>2026-04-04T13:19:41.999Z</time></trkpt><trkpt lat="46.40180257509153" lon="13.363505756307568"><ele>493.0</ele><time>2026-04-04T13:19:42.999Z</time></trkpt><trkpt lat="46.40174282657717" lon="13.363167103845907"><ele>492.0</ele><time>2026-04-04T13:19:43.999Z</time></trkpt><trkpt lat="46.40168906435142" lon="13.362869805120852"><ele>491.0</ele><time>2026-04-04T13:19:44.999Z</time></trkpt><trkpt lat="46.401639909353385" lon="13.362598847925083"><ele>490.0</ele><time>2026-04-04T13:19:45.999Z</time></trkpt><trkpt lat="46.401587019410634" lon="13.3623381486632"><ele>492.0</ele><time>2026-04-04T13:19:46.999Z</time></trkpt><trkpt lat="46.40159919274959" lon="13.362066495034496"><ele>494.0</ele><time>2026-04-04T13:19:47.999Z</time></trkpt><trkpt lat="46.401641308191024" lon="13.361802649090894"><ele>496.0</ele><time>2026-04-04T13:19:48.999Z</time></trkpt><trkpt lat="46.40170737856604" lon="13.361523914016878"><ele>495.6666666666667</ele><time>2026-04-04T13:19:49.999Z</time></trkpt><trkpt lat="46.401777788861196" lon="13.361233591813175"><ele>495.33333333333337</ele><time>2026-04-04T13:19:50.999Z</time></trkpt><trkpt lat="46.40184578215815" lon="13.360953235048893"><ele>495.0</ele><time>2026-04-04T13:19:51.999Z</time></trkpt><trkpt lat="46.40190623879027" lon="13.360703954531566"><ele>496.33333333333337</ele><time>2026-04-04T13:19:52.999Z</time></trkpt><trkpt lat="46.40196094004907" lon="13.360472056979392"><ele>497.6666666666667</ele><time>2026-04-04T13:19:53.999Z</time></trkpt><trkpt lat="46.40198592854545" lon="13.36024846680031"><ele>499.0</ele><time>2026-04-04T13:19:54.999Z</time></trkpt><trkpt lat="46.40202345793556" lon="13.360054394187793"><ele>499.0</ele><time>2026-04-04T13:19:55.999Z</time></trkpt><trkpt lat="46.40204237947937" lon="13.359866181414313"><ele>499.0</ele><time>2026-04-04T13:19:56.999Z</time></trkpt><trkpt lat="46.4020316797828" lon="13.359665921927117"><ele>499.0</ele><time>2026-04-04T13:19:57.999Z</time></trkpt><trkpt lat="46.40198303307326" lon="13.359449476711934"><ele>499.0</ele><time>2026-04-04T13:19:58.999Z</time></trkpt><trkpt lat="46.40191164006091" lon="13.359213919654207"><ele>497.33333333333337</ele><time>2026-04-04T13:19:59.999Z</time></trkpt><trkpt lat="46.40182475758759" lon="13.358949997824167"><ele>495.66666666666663</ele><time>2026-04-04T13:20:00.999Z</time></trkpt><trkpt lat="46.401738423831304" lon="13.35865959475969"><ele>494.0</ele><time>2026-04-04T13:20:01.999Z</time></trkpt><trkpt lat="46.40166719539014" lon="13.3583470200626"><ele>490.66666666666663</ele><time>2026-04-04T13:20:02.999Z</time></trkpt><trkpt lat="46.40160150682519" lon="13.358026840287938"><ele>487.33333333333337</ele><time>2026-04-04T13:20:03.999Z</time></trkpt><trkpt lat="46.401536027543926" lon="13.357726867654566"><ele>484.0</ele><time>2026-04-04T13:20:04.999Z</time></trkpt><trkpt lat="46.401472985046574" lon="13.357443608703534"><ele>482.0</ele><time>2026-04-04T13:20:05.999Z</time></trkpt><trkpt lat="46.401418651046264" lon="13.357165483045836"><ele>480.0</ele><time>2026-04-04T13:20:06.999Z</time></trkpt><trkpt lat="46.401369244290876" lon="13.356890633987053"><ele>478.0</ele><time>2026-04-04T13:20:07.999Z</time></trkpt><trkpt lat="46.40132837460705" lon="13.356622315763344"><ele>479.6666666666667</ele><time>2026-04-04T13:20:08.999Z</time></trkpt><trkpt lat="46.4012888861235" lon="13.356365481736955"><ele>481.33333333333337</ele><time>2026-04-04T13:20:09.999Z</time></trkpt><trkpt lat="46.401233317222534" lon="13.356145342258797"><ele>483.0</ele><time>2026-04-04T13:20:10.999Z</time></trkpt><trkpt lat="46.40115424059238" lon="13.355948763712222"><ele>483.0</ele><time>2026-04-04T13:20:11.999Z</time></trkpt><trkpt lat="46.401062638457645" lon="13.355747331459815"><ele>483.0</ele><time>2026-04-04T13:20:12.999Z</time></trkpt><trkpt lat="46.40096139171117" lon="13.355545823748798"><ele>483.0</ele><time>2026-04-04T13:20:13.999Z</time></trkpt><trkpt lat="46.400846290282736" lon="13.355366483704415"><ele>482.0</ele><time>2026-04-04T13:20:14.999Z</time></trkpt><trkpt lat="46.400713561082554" lon="13.35521520874053"><ele>481.0</ele><time>2026-04-04T13:20:15.999Z</time></trkpt><trkpt lat="46.400547985193015" lon="13.355092568917895"><ele>480.0</ele><time>2026-04-04T13:20:16.999Z</time></trkpt><trkpt lat="46.40036579468631" lon="13.354971972906519"><ele>478.66666666666663</ele><time>2026-04-04T13:20:17.999Z</time></trkpt><trkpt lat="46.40019568576209" lon="13.354838942007646"><ele>477.3333333333333</ele><time>2026-04-04T13:20:18.999Z</time></trkpt><trkpt lat="46.400047148887715" lon="13.3547087571874"><ele>476.0</ele><time>2026-04-04T13:20:19.999Z</time></trkpt><trkpt lat="46.39991935994233" lon="13.35453955410693"><ele>476.0</ele><time>2026-04-04T13:20:20.999Z</time></trkpt><trkpt lat="46.39981465452075" lon="13.35432829583493"><ele>476.0</ele><time>2026-04-04T13:20:21.999Z</time></trkpt><trkpt lat="46.39973477366616" lon="13.354074475818454"><ele>476.0</ele><time>2026-04-04T13:20:22.999Z</time></trkpt><trkpt lat="46.399675734933695" lon="13.353798401286268"><ele>477.0</ele><time>2026-04-04T13:20:23.999Z</time></trkpt><trkpt lat="46.39962520632973" lon="13.353503750436575"><ele>478.0</ele><time>2026-04-04T13:20:24.999Z</time></trkpt><trkpt lat="46.39958250887321" lon="13.353195365125332"><ele>479.0</ele><time>2026-04-04T13:20:25.999Z</time></trkpt><trkpt lat="46.399544645902324" lon="13.352897072979747"><ele>479.0</ele><time>2026-04-04T13:20:26.999Z</time></trkpt><trkpt lat="46.399508333679805" lon="13.352636173693162"><ele>479.0</ele><time>2026-04-04T13:20:27.999Z</time></trkpt><trkpt lat="46.39946587914721" lon="13.352411239879448"><ele>479.0</ele><time>2026-04-04T13:20:28.999Z</time></trkpt><trkpt lat="46.399402174958084" lon="13.352193801961631"><ele>479.0</ele><time>2026-04-04T13:20:29.999Z</time></trkpt><trkpt lat="46.399302166148324" lon="13.35196386204304"><ele>479.0</ele><time>2026-04-04T13:20:30.999Z</time></trkpt><trkpt lat="46.39917653101963" lon="13.35172114794785"><ele>479.0</ele><time>2026-04-04T13:20:31.999Z</time></trkpt><trkpt lat="46.39903717709657" lon="13.351468098508557"><ele>479.0</ele><time>2026-04-04T13:20:32.999Z</time></trkpt><trkpt lat="46.39890018293529" lon="13.351186284827067"><ele>479.0</ele><time>2026-04-04T13:20:34Z</time></trkpt><trkpt lat="46.398771675178324" lon="13.350876684189597"><ele>479.0</ele><time>2026-04-04T13:20:35Z</time></trkpt><trkpt lat="46.3986522883617" lon="13.350551758454701"><ele>479.0</ele><time>2026-04-04T13:20:36Z</time></trkpt><trkpt lat="46.39853600443704" lon="13.35021595021798"><ele>479.0</ele><time>2026-04-04T13:20:37Z</time></trkpt><trkpt lat="46.39841683444538" lon="13.349895515621741"><ele>479.0</ele><time>2026-04-04T13:20:38Z</time></trkpt><trkpt lat="46.398300592619734" lon="13.349590961476725"><ele>479.0</ele><time>2026-04-04T13:20:39Z</time></trkpt><trkpt lat="46.39818883231588" lon="13.349291169058716"><ele>479.0</ele><time>2026-04-04T13:20:40Z</time></trkpt><trkpt lat="46.398079271500755" lon="13.348999250837"><ele>479.0</ele><time>2026-04-04T13:20:41Z</time></trkpt><trkpt lat="46.39796776991561" lon="13.348715283786623"><ele>479.0</ele><time>2026-04-04T13:20:42Z</time></trkpt><trkpt lat="46.39785948477624" lon="13.34843609226819"><ele>479.0</ele><time>2026-04-04T13:20:43Z</time></trkpt><trkpt lat="46.3977596276288" lon="13.348174891005375"><ele>479.0</ele><time>2026-04-04T13:20:44Z</time></trkpt><trkpt lat="46.39766910223116" lon="13.347930156877666"><ele>479.0</ele><time>2026-04-04T13:20:45Z</time></trkpt><trkpt lat="46.39757370687584" lon="13.347693168670796"><ele>479.0</ele><time>2026-04-04T13:20:46Z</time></trkpt><trkpt lat="46.397467087249545" lon="13.347464311943801"><ele>479.0</ele><time>2026-04-04T13:20:47Z</time></trkpt><trkpt lat="46.397369572494846" lon="13.347252831718125"><ele>479.0</ele><time>2026-04-04T13:20:48Z</time></trkpt><trkpt lat="46.397282027337035" lon="13.34705863674151"><ele>479.0</ele><time>2026-04-04T13:20:49Z</time></trkpt><trkpt lat="46.39720316015428" lon="13.346891261546142"><ele>479.0</ele><time>2026-04-04T13:20:50Z</time></trkpt><trkpt lat="46.39712884552712" lon="13.346745965693852"><ele>479.0</ele><time>2026-04-04T13:20:51Z</time></trkpt><trkpt lat="46.3970377879461" lon="13.346634514839309"><ele>479.0</ele><time>2026-04-04T13:20:52Z</time></trkpt><trkpt lat="46.396911572520764" lon="13.346548651710625"><ele>479.0</ele><time>2026-04-04T13:20:53Z</time></trkpt><trkpt lat="46.39677595592369" lon="13.346474296414897"><ele>479.0</ele><time>2026-04-04T13:20:54Z</time></trkpt><trkpt lat="46.39666278770126" lon="13.346397289625603"><ele>479.0</ele><time>2026-04-04T13:20:55Z</time></trkpt><trkpt lat="46.396571754086786" lon="13.346298412328942"><ele>479.0</ele><time>2026-04-04T13:20:56Z</time></trkpt><trkpt lat="46.39650406495558" lon="13.346184099485916"><ele>479.0</ele><time>2026-04-04T13:20:57Z</time></trkpt><trkpt lat="46.396471421486964" lon="13.346050596700204"><ele>479.0</ele><time>2026-04-04T13:20:58Z</time></trkpt><trkpt lat="46.396481737781784" lon="13.345907402533985"><ele>479.0</ele><time>2026-04-04T13:20:59Z</time></trkpt><trkpt lat="46.39656342658007" lon="13.34578440511323"><ele>479.0</ele><time>2026-04-04T13:21:00Z</time></trkpt><trkpt lat="46.39659558675819" lon="13.345639225971805"><ele>479.0</ele><time>2026-04-04T13:21:00.999Z</time></trkpt><trkpt lat="46.39658626286638" lon="13.345485589462488"><ele>479.0</ele><time>2026-04-04T13:21:01.999Z</time></trkpt><trkpt lat="46.39652732157861" lon="13.34535602926631"><ele>479.0</ele><time>2026-04-04T13:21:02.999Z</time></trkpt><trkpt lat="46.39651459618712" lon="13.345199755132585"><ele>479.0</ele><time>2026-04-04T13:21:03.999Z</time></trkpt><trkpt lat="46.396506391038756" lon="13.345019977909939"><ele>479.0</ele><time>2026-04-04T13:21:04.999Z</time></trkpt><trkpt lat="46.39650346886139" lon="13.344828177014142"><ele>479.0</ele><time>2026-04-04T13:21:05.999Z</time></trkpt><trkpt lat="46.3965129170138" lon="13.344637841874201"><ele>479.0</ele><time>2026-04-04T13:21:06.999Z</time></trkpt><trkpt lat="46.396517677359405" lon="13.344441094218734"><ele>479.0</ele><time>2026-04-04T13:21:07.999Z</time></trkpt><trkpt lat="46.39653626562937" lon="13.344247700472726"><ele>479.0</ele><time>2026-04-04T13:21:08.999Z</time></trkpt><trkpt lat="46.39654737875992" lon="13.344051475893117"><ele>479.0</ele><time>2026-04-04T13:21:09.999Z</time></trkpt><trkpt lat="46.39654847045707" lon="13.343851841663959"><ele>479.0</ele><time>2026-04-04T13:21:10.999Z</time></trkpt><trkpt lat="46.396534920115606" lon="13.343641619127023"><ele>479.0</ele><time>2026-04-04T13:21:11.999Z</time></trkpt><trkpt lat="46.39647201885565" lon="13.343426571558366"><ele>479.0</ele><time>2026-04-04T13:21:12.999Z</time></trkpt><trkpt lat="46.39639464906818" lon="13.343242132226242"><ele>479.0</ele><time>2026-04-04T13:21:13.999Z</time></trkpt><trkpt lat="46.396306793274675" lon="13.34308851017418"><ele>479.0</ele><time>2026-04-04T13:21:14.999Z</time></trkpt><trkpt lat="46.396229982789485" lon="13.342927273876192"><ele>479.0</ele><time>2026-04-04T13:21:15.999Z</time></trkpt><trkpt lat="46.3961502685775" lon="13.342767014908466"><ele>479.0</ele><time>2026-04-04T13:21:16.999Z</time></trkpt><trkpt lat="46.396094175807846" lon="13.34261901961741"><ele>479.0</ele><time>2026-04-04T13:21:17.999Z</time></trkpt><trkpt lat="46.39604244872181" lon="13.342470636163064"><ele>479.0</ele><time>2026-04-04T13:21:18.999Z</time></trkpt><trkpt lat="46.39598939201239" lon="13.34233772236296"><ele>479.0</ele><time>2026-04-04T13:21:19.999Z</time></trkpt><trkpt lat="46.39595269140393" lon="13.34220870571325"><ele>479.0</ele><time>2026-04-04T13:21:20.999Z</time></trkpt><trkpt lat="46.395904096861024" lon="13.342120714827082"><ele>479.0</ele><time>2026-04-04T13:21:21.999Z</time></trkpt><trkpt lat="46.39588447510619" lon="13.342022611467224"><ele>479.0</ele><time>2026-04-04T13:21:23.999Z</time></trkpt><trkpt lat="46.39577479558698" lon="13.34190062126956"><ele>479.0</ele><time>2026-04-04T13:22:08.999Z</time></trkpt><trkpt lat="46.39583090410659" lon="13.341740691420553"><ele>479.0</ele><time>2026-04-04T13:22:10.999Z</time></trkpt><trkpt lat="46.39587356896358" lon="13.341614229977008"><ele>479.0</ele><time>2026-04-04T13:22:11.999Z</time></trkpt><trkpt lat="46.39594090909063" lon="13.341434182059107"><ele>479.0</ele><time>2026-04-04T13:22:12.999Z</time></trkpt><trkpt lat="46.396032155066436" lon="13.341233316373026"><ele>479.0</ele><time>2026-04-04T13:22:13.999Z</time></trkpt><trkpt lat="46.39610191859651" lon="13.34101469489173"><ele>479.0</ele><time>2026-04-04T13:22:14.999Z</time></trkpt><trkpt lat="46.39612223445987" lon="13.340822588227065"><ele>479.0</ele><time>2026-04-04T13:22:15.999Z</time></trkpt><trkpt lat="46.39611420320684" lon="13.340635434497761"><ele>479.0</ele><time>2026-04-04T13:22:16.999Z</time></trkpt><trkpt lat="46.396103246107174" lon="13.340438995424329"><ele>479.0</ele><time>2026-04-04T13:22:17.999Z</time></trkpt><trkpt lat="46.396116455006386" lon="13.340238501423533"><ele>479.0</ele><time>2026-04-04T13:22:18.999Z</time></trkpt><trkpt lat="46.396167171945386" lon="13.34001637927951"><ele>479.0</ele><time>2026-04-04T13:22:19.999Z</time></trkpt><trkpt lat="46.39623039978687" lon="13.339770455313054"><ele>479.0</ele><time>2026-04-04T13:22:20.999Z</time></trkpt><trkpt lat="46.39629628345297" lon="13.339468067565267"><ele>479.0</ele><time>2026-04-04T13:22:21.999Z</time></trkpt><trkpt lat="46.396368390784744" lon="13.339143288504475"><ele>479.0</ele><time>2026-04-04T13:22:22.999Z</time></trkpt><trkpt lat="46.396430812620885" lon="13.338845841838538"><ele>479.0</ele><time>2026-04-04T13:22:23.999Z</time></trkpt><trkpt lat="46.39648183058458" lon="13.3385804733802"><ele>479.0</ele><time>2026-04-04T13:22:24.999Z</time></trkpt><trkpt lat="46.3965219689273" lon="13.338340658190777"><ele>479.0</ele><time>2026-04-04T13:22:25.999Z</time></trkpt><trkpt lat="46.396538955138894" lon="13.338103284406015"><ele>479.0</ele><time>2026-04-04T13:22:26.999Z</time></trkpt><trkpt lat="46.39653288359468" lon="13.337855667896612"><ele>479.0</ele><time>2026-04-04T13:22:27.999Z</time></trkpt><trkpt lat="46.39651236002255" lon="13.33761291485481"><ele>479.0</ele><time>2026-04-04T13:22:28.999Z</time></trkpt><trkpt lat="46.396553755788744" lon="13.33738802971981"><ele>469.0</ele><time>2026-04-04T13:22:29.999Z</time></trkpt><trkpt lat="46.39657842843169" lon="13.33717434782036"><ele>459.0</ele><time>2026-04-04T13:22:30.999Z</time></trkpt><trkpt lat="46.39661428716372" lon="13.336951550486384"><ele>449.0</ele><time>2026-04-04T13:22:31.999Z</time></trkpt><trkpt lat="46.3966729137914" lon="13.336750890821678"><ele>449.0</ele><time>2026-04-04T13:22:32.999Z</time></trkpt><trkpt lat="46.396740083601244" lon="13.336543202051839"><ele>449.0</ele><time>2026-04-04T13:22:33.999Z</time></trkpt><trkpt lat="46.396787429917254" lon="13.336334832996904"><ele>449.0</ele><time>2026-04-04T13:22:34.999Z</time></trkpt><trkpt lat="46.39676485740071" lon="13.336065689805503"><ele>450.0</ele><time>2026-04-04T13:22:35.999Z</time></trkpt><trkpt lat="46.39673981618739" lon="13.335856190073061"><ele>451.0</ele><time>2026-04-04T13:22:36.999Z</time></trkpt><trkpt lat="46.396752199567054" lon="13.335654860614856"><ele>452.0</ele><time>2026-04-04T13:22:37.999Z</time></trkpt><trkpt lat="46.396791042309786" lon="13.335428922784233"><ele>453.0</ele><time>2026-04-04T13:22:38.999Z</time></trkpt><trkpt lat="46.396817891166116" lon="13.33517211041162"><ele>454.66666666666663</ele><time>2026-04-04T13:22:40Z</time></trkpt><trkpt lat="46.39682120062298" lon="13.334906766884073"><ele>456.3333333333333</ele><time>2026-04-04T13:22:41Z</time></trkpt><trkpt lat="46.39679448821017" lon="13.334628932756573"><ele>458.0</ele><time>2026-04-04T13:22:42Z</time></trkpt><trkpt lat="46.39675749449228" lon="13.334358276788242"><ele>461.66666666666663</ele><time>2026-04-04T13:22:42.999Z</time></trkpt><trkpt lat="46.396720561430385" lon="13.334093626908357"><ele>465.33333333333337</ele><time>2026-04-04T13:22:44Z</time></trkpt><trkpt lat="46.39666811223303" lon="13.333839411168265"><ele>469.0</ele><time>2026-04-04T13:22:45Z</time></trkpt><trkpt lat="46.39659306729952" lon="13.333588142633541"><ele>470.0</ele><time>2026-04-04T13:22:46Z</time></trkpt><trkpt lat="46.396522337695394" lon="13.33335403967023"><ele>471.0</ele><time>2026-04-04T13:22:47Z</time></trkpt><trkpt lat="46.39645663011608" lon="13.333144717866372"><ele>472.0</ele><time>2026-04-04T13:22:48Z</time></trkpt><trkpt lat="46.39639124252633" lon="13.332968464592915"><ele>466.5</ele><time>2026-04-04T13:22:49Z</time></trkpt><trkpt lat="46.3963279926988" lon="13.33280980793524"><ele>461.0</ele><time>2026-04-04T13:22:50Z</time></trkpt><trkpt lat="46.396270026906826" lon="13.332669305339229"><ele>455.5</ele><time>2026-04-04T13:22:51Z</time></trkpt><trkpt lat="46.39623316621272" lon="13.332523369071128"><ele>450.0</ele><time>2026-04-04T13:22:52Z</time></trkpt><trkpt lat="46.396109547772625" lon="13.332444298524786"><ele>450.0</ele><time>2026-04-04T13:22:53Z</time></trkpt><trkpt lat="46.39600212484815" lon="13.332368573886347"><ele>450.0</ele><time>2026-04-04T13:22:54Z</time></trkpt><trkpt lat="46.395923203910506" lon="13.332278709215084"><ele>450.0</ele><time>2026-04-04T13:22:55Z</time></trkpt><trkpt lat="46.395874196357155" lon="13.33214436461499"><ele>450.0</ele><time>2026-04-04T13:22:56Z</time></trkpt><trkpt lat="46.39584921448407" lon="13.331977599585182"><ele>450.0</ele><time>2026-04-04T13:22:57Z</time></trkpt><trkpt lat="46.39588926262529" lon="13.331791340243383"><ele>447.33333333333337</ele><time>2026-04-04T13:22:58Z</time></trkpt><trkpt lat="46.39593160721038" lon="13.331574407880481"><ele>444.6666666666667</ele><time>2026-04-04T13:22:59Z</time></trkpt><trkpt lat="46.39598289492898" lon="13.33131705937956"><ele>442.0</ele><time>2026-04-04T13:23:00Z</time></trkpt><trkpt lat="46.39602133919849" lon="13.331029082405161"><ele>441.0</ele><time>2026-04-04T13:23:01Z</time></trkpt><trkpt lat="46.39608318003953" lon="13.330786990045613"><ele>440.0</ele><time>2026-04-04T13:23:02Z</time></trkpt><trkpt lat="46.39613009893515" lon="13.330579854340984"><ele>439.0</ele><time>2026-04-04T13:23:03Z</time></trkpt><trkpt lat="46.39615104485446" lon="13.330394667934577"><ele>440.5</ele><time>2026-04-04T13:23:03.999Z</time></trkpt><trkpt lat="46.39615405613487" lon="13.330204462026261"><ele>442.0</ele><time>2026-04-04T13:23:04.999Z</time></trkpt><trkpt lat="46.39611700598485" lon="13.32996804290012"><ele>443.5</ele><time>2026-04-04T13:23:05.999Z</time></trkpt><trkpt lat="46.39611804005709" lon="13.329750924121225"><ele>445.0</ele><time>2026-04-04T13:23:06.999Z</time></trkpt><trkpt lat="46.396125949414696" lon="13.329558962660396"><ele>447.5</ele><time>2026-04-04T13:23:07.999Z</time></trkpt><trkpt lat="46.396170253635916" lon="13.329379828520953"><ele>450.0</ele><time>2026-04-04T13:23:08.999Z</time></trkpt><trkpt lat="46.39626288498958" lon="13.329223533583498"><ele>452.5</ele><time>2026-04-04T13:23:09.999Z</time></trkpt><trkpt lat="46.39639771894785" lon="13.329061798575344"><ele>455.0</ele><time>2026-04-04T13:23:10.999Z</time></trkpt><trkpt lat="46.39654955007638" lon="13.32885805765042"><ele>441.0</ele><time>2026-04-04T13:23:11.999Z</time></trkpt><trkpt lat="46.39673959713358" lon="13.328640927663724"><ele>427.0</ele><time>2026-04-04T13:23:12.999Z</time></trkpt><trkpt lat="46.39696314619298" lon="13.328406536896564"><ele>427.0</ele><time>2026-04-04T13:23:13.999Z</time></trkpt><trkpt lat="46.39715946500937" lon="13.32810421447441"><ele>427.0</ele><time>2026-04-04T13:23:14.999Z</time></trkpt><trkpt lat="46.39733439844676" lon="13.327832144714955"><ele>419.0</ele><time>2026-04-04T13:23:15.999Z</time></trkpt><trkpt lat="46.39750738035244" lon="13.327602696703247"><ele>411.0</ele><time>2026-04-04T13:23:16.999Z</time></trkpt><trkpt lat="46.397658128138794" lon="13.327376422367207"><ele>417.66666666666663</ele><time>2026-04-04T13:23:17.999Z</time></trkpt><trkpt lat="46.39778717699411" lon="13.327183416582997"><ele>424.3333333333333</ele><time>2026-04-04T13:23:18.999Z</time></trkpt><trkpt lat="46.39790028561385" lon="13.327003696892396"><ele>431.0</ele><time>2026-04-04T13:23:19.999Z</time></trkpt><trkpt lat="46.397985291109876" lon="13.326800307050592"><ele>424.3333333333333</ele><time>2026-04-04T13:23:20.999Z</time></trkpt><trkpt lat="46.398036441153856" lon="13.326524611570344"><ele>417.66666666666663</ele><time>2026-04-04T13:23:21.999Z</time></trkpt><trkpt lat="46.39811548614996" lon="13.32622777235238"><ele>411.0</ele><time>2026-04-04T13:23:22.999Z</time></trkpt><trkpt lat="46.398182953685726" lon="13.325911884223366"><ele>410.5</ele><time>2026-04-04T13:23:23.999Z</time></trkpt><trkpt lat="46.39823931033213" lon="13.325583216519941"><ele>410.0</ele><time>2026-04-04T13:23:24.999Z</time></trkpt><trkpt lat="46.39827317255295" lon="13.325256330134263"><ele>414.0</ele><time>2026-04-04T13:23:25.999Z</time></trkpt><trkpt lat="46.398328544140625" lon="13.324969558683279"><ele>418.0</ele><time>2026-04-04T13:23:26.999Z</time></trkpt><trkpt lat="46.398397476342744" lon="13.324680978690731"><ele>422.0</ele><time>2026-04-04T13:23:27.999Z</time></trkpt><trkpt lat="46.398493747403016" lon="13.324447388909496"><ele>419.66666666666663</ele><time>2026-04-04T13:23:28.999Z</time></trkpt><trkpt lat="46.39862304767709" lon="13.324299563538716"><ele>417.33333333333337</ele><time>2026-04-04T13:23:29.999Z</time></trkpt><trkpt lat="46.398731835991335" lon="13.324105546627708"><ele>415.0</ele><time>2026-04-04T13:23:30.999Z</time></trkpt><trkpt lat="46.39883764884286" lon="13.323885124594325"><ele>415.0</ele><time>2026-04-04T13:23:31.999Z</time></trkpt><trkpt lat="46.39893494378549" lon="13.323637629196165"><ele>415.0</ele><time>2026-04-04T13:23:32.999Z</time></trkpt><trkpt lat="46.39903014360076" lon="13.323423667701228"><ele>415.0</ele><time>2026-04-04T13:23:33.999Z</time></trkpt><trkpt lat="46.399108066834565" lon="13.323240713601063"><ele>417.75</ele><time>2026-04-04T13:23:34.999Z</time></trkpt><trkpt lat="46.399170652959626" lon="13.32305017395085"><ele>420.5</ele><time>2026-04-04T13:23:36.076Z</time></trkpt><trkpt lat="46.39919880101339" lon="13.322856371794819"><ele>423.25</ele><time>2026-04-04T13:23:37.059Z</time></trkpt><trkpt lat="46.39921320219745" lon="13.322647523674744"><ele>426.0</ele><time>2026-04-04T13:23:38.055Z</time></trkpt><trkpt lat="46.3996382624252" lon="13.320301588908377"><ele>426.33333333333337</ele><time>2026-04-04T13:23:47.999Z</time></trkpt><trkpt lat="46.399730910174874" lon="13.320021063378169"><ele>426.6666666666667</ele><time>2026-04-04T13:23:48.999Z</time></trkpt><trkpt lat="46.39984759738561" lon="13.319731056757615"><ele>427.0</ele><time>2026-04-04T13:23:49.999Z</time></trkpt><trkpt lat="46.3999487273685" lon="13.319477485293643"><ele>429.75</ele><time>2026-04-04T13:23:50.999Z</time></trkpt><trkpt lat="46.40004498142669" lon="13.319293273280602"><ele>432.5</ele><time>2026-04-04T13:23:51.999Z</time></trkpt><trkpt lat="46.4001473915738" lon="13.319193688835709"><ele>435.25</ele><time>2026-04-04T13:23:52.999Z</time></trkpt><trkpt lat="46.40024534911513" lon="13.319141931217745"><ele>438.0</ele><time>2026-04-04T13:23:53.999Z</time></trkpt><trkpt lat="46.400412600009886" lon="13.31911945312033"><ele>431.66666666666663</ele><time>2026-04-04T13:23:54.999Z</time></trkpt><trkpt lat="46.40060398793591" lon="13.319111451340381"><ele>425.3333333333333</ele><time>2026-04-04T13:23:55.999Z</time></trkpt><trkpt lat="46.400801231978775" lon="13.319051886974066"><ele>419.0</ele><time>2026-04-04T13:23:56.999Z</time></trkpt><trkpt lat="46.40099827593099" lon="13.31899779676044"><ele>419.0</ele><time>2026-04-04T13:23:57.999Z</time></trkpt><trkpt lat="46.40114131120017" lon="13.318956728488597"><ele>419.0</ele><time>2026-04-04T13:23:58.999Z</time></trkpt><trkpt lat="46.401266458048966" lon="13.31892095806623"><ele>419.0</ele><time>2026-04-04T13:23:59.999Z</time></trkpt><trkpt lat="46.401376636863624" lon="13.318820655755662"><ele>419.0</ele><time>2026-04-04T13:24:00.999Z</time></trkpt><trkpt lat="46.40149879362482" lon="13.318662638958221"><ele>422.66666666666663</ele><time>2026-04-04T13:24:01.999Z</time></trkpt><trkpt lat="46.401647694950285" lon="13.318523158820243"><ele>426.33333333333337</ele><time>2026-04-04T13:24:02.999Z</time></trkpt><trkpt lat="46.401772323105206" lon="13.318368180273286"><ele>430.0</ele><time>2026-04-04T13:24:03.999Z</time></trkpt><trkpt lat="46.4019141666352" lon="13.318250702011984"><ele>430.0</ele><time>2026-04-04T13:24:04.999Z</time></trkpt><trkpt lat="46.4020461231841" lon="13.31810275759701"><ele>430.0</ele><time>2026-04-04T13:24:05.999Z</time></trkpt><trkpt lat="46.40219106532964" lon="13.318024157764393"><ele>430.0</ele><time>2026-04-04T13:24:06.999Z</time></trkpt><trkpt lat="46.40233693687287" lon="13.317968152190362"><ele>428.0</ele><time>2026-04-04T13:24:07.999Z</time></trkpt><trkpt lat="46.40248481352079" lon="13.31786332079679"><ele>426.0</ele><time>2026-04-04T13:24:08.999Z</time></trkpt><trkpt lat="46.402635510098165" lon="13.317719101351573"><ele>424.0</ele><time>2026-04-04T13:24:09.999Z</time></trkpt><trkpt lat="46.40278116489283" lon="13.317541549410247"><ele>424.0</ele><time>2026-04-04T13:24:10.999Z</time></trkpt><trkpt lat="46.40291009945047" lon="13.317385242913401"><ele>424.0</ele><time>2026-04-04T13:24:11.999Z</time></trkpt><trkpt lat="46.40303590333976" lon="13.317247260508013"><ele>424.0</ele><time>2026-04-04T13:24:12.999Z</time></trkpt><trkpt lat="46.40315702128458" lon="13.317121007316574"><ele>420.0</ele><time>2026-04-04T13:24:13.999Z</time></trkpt><trkpt lat="46.40327740579876" lon="13.317019391871082"><ele>416.0</ele><time>2026-04-04T13:24:14.999Z</time></trkpt><trkpt lat="46.403411385461474" lon="13.316982741775757"><ele>412.0</ele><time>2026-04-04T13:24:15.999Z</time></trkpt><trkpt lat="46.40354380829164" lon="13.31694898385413"><ele>408.0</ele><time>2026-04-04T13:24:16.999Z</time></trkpt><trkpt lat="46.4036699898119" lon="13.316901845951627"><ele>408.0</ele><time>2026-04-04T13:24:17.999Z</time></trkpt><trkpt lat="46.403784492735525" lon="13.31688423555402"><ele>408.0</ele><time>2026-04-04T13:24:18.999Z</time></trkpt><trkpt lat="46.40389575110799" lon="13.316906441334092"><ele>408.0</ele><time>2026-04-04T13:24:19.999Z</time></trkpt><trkpt lat="46.40399633117486" lon="13.316933484912644"><ele>408.0</ele><time>2026-04-04T13:24:20.999Z</time></trkpt><trkpt lat="46.404083633249975" lon="13.316988640060009"><ele>408.0</ele><time>2026-04-04T13:24:21.999Z</time></trkpt><trkpt lat="46.40416249725581" lon="13.31706010749299"><ele>404.6666666666667</ele><time>2026-04-04T13:24:22.999Z</time></trkpt><trkpt lat="46.404232448297634" lon="13.317156436601339"><ele>401.33333333333337</ele><time>2026-04-04T13:24:23.999Z</time></trkpt><trkpt lat="46.404306075975356" lon="13.317252131129802"><ele>398.0</ele><time>2026-04-04T13:24:24.999Z</time></trkpt><trkpt lat="46.40437547579264" lon="13.317344507772123"><ele>394.6666666666667</ele><time>2026-04-04T13:24:25.999Z</time></trkpt><trkpt lat="46.404434953001505" lon="13.317420636080682"><ele>391.33333333333337</ele><time>2026-04-04T13:24:26.999Z</time></trkpt><trkpt lat="46.404483428892085" lon="13.317486110780548"><ele>388.0</ele><time>2026-04-04T13:24:27.999Z</time></trkpt><trkpt lat="46.40457185399122" lon="13.317587316714889"><ele>388.00000000000006</ele><time>2026-04-04T13:24:29.999Z</time></trkpt><trkpt lat="46.404646076131584" lon="13.31756700234877"><ele>388.0</ele><time>2026-04-04T13:24:30.999Z</time></trkpt><trkpt lat="46.404714191857444" lon="13.317519924832313"><ele>388.0</ele><time>2026-04-04T13:24:31.999Z</time></trkpt><trkpt lat="46.40477599741488" lon="13.317458715263781"><ele>388.0</ele><time>2026-04-04T13:24:32.999Z</time></trkpt><trkpt lat="46.40484519731558" lon="13.317398860796143"><ele>388.00000000000006</ele><time>2026-04-04T13:24:33.999Z</time></trkpt><trkpt lat="46.40492691640404" lon="13.317345415120686"><ele>388.0</ele><time>2026-04-04T13:24:34.999Z</time></trkpt><trkpt lat="46.4050133612684" lon="13.317288631984107"><ele>386.2</ele><time>2026-04-04T13:24:35.999Z</time></trkpt><trkpt lat="46.40510217344292" lon="13.317224316185339"><ele>384.4</ele><time>2026-04-04T13:24:36.999Z</time></trkpt><trkpt lat="46.40519229266333" lon="13.317161773729516"><ele>382.59999999999997</ele><time>2026-04-04T13:24:37.999Z</time></trkpt><trkpt lat="46.40528382872783" lon="13.31709215882642"><ele>380.79999999999995</ele><time>2026-04-04T13:24:38.999Z</time></trkpt><trkpt lat="46.4053719623768" lon="13.316998100069815"><ele>379.0</ele><time>2026-04-04T13:24:39.999Z</time></trkpt><trkpt lat="46.40545421604991" lon="13.316878537384449"><ele>378.5</ele><time>2026-04-04T13:24:40.999Z</time></trkpt><trkpt lat="46.405533630746206" lon="13.316743861905376"><ele>378.0</ele><time>2026-04-04T13:24:41.999Z</time></trkpt><trkpt lat="46.40561295851713" lon="13.31661038661684"><ele>377.5</ele><time>2026-04-04T13:24:42.999Z</time></trkpt><trkpt lat="46.40568651489065" lon="13.316486015261937"><ele>377.0</ele><time>2026-04-04T13:24:43.999Z</time></trkpt><trkpt lat="46.40575673106429" lon="13.316376283669612"><ele>377.0</ele><time>2026-04-04T13:24:44.999Z</time></trkpt><trkpt lat="46.40584955905682" lon="13.31630084767459"><ele>377.0</ele><time>2026-04-04T13:24:46Z</time></trkpt><trkpt lat="46.40594421995262" lon="13.316202815157961"><ele>377.0</ele><time>2026-04-04T13:24:47Z</time></trkpt><trkpt lat="46.406047719282896" lon="13.316122355542605"><ele>377.0</ele><time>2026-04-04T13:24:48Z</time></trkpt><trkpt lat="46.40614413561783" lon="13.316045554174346"><ele>377.0</ele><time>2026-04-04T13:24:49Z</time></trkpt><trkpt lat="46.406237697036" lon="13.31599792192274"><ele>377.0</ele><time>2026-04-04T13:24:50Z</time></trkpt><trkpt lat="46.406337479005586" lon="13.31601305746765"><ele>377.0</ele><time>2026-04-04T13:24:51Z</time></trkpt><trkpt lat="46.406440795374685" lon="13.316000757871524"><ele>377.0</ele><time>2026-04-04T13:24:52Z</time></trkpt><trkpt lat="46.40654870703633" lon="13.316023323541593"><ele>377.0</ele><time>2026-04-04T13:24:53Z</time></trkpt><trkpt lat="46.40665659459207" lon="13.316024723350852"><ele>377.6</ele><time>2026-04-04T13:24:54Z</time></trkpt><trkpt lat="46.40676401232945" lon="13.316004234435404"><ele>378.20000000000005</ele><time>2026-04-04T13:24:55Z</time></trkpt><trkpt lat="46.406865801410255" lon="13.31595496131044"><ele>378.8</ele><time>2026-04-04T13:24:56Z</time></trkpt><trkpt lat="46.40695815291272" lon="13.3158854101583"><ele>379.4</ele><time>2026-04-04T13:24:57Z</time></trkpt><trkpt lat="46.407051981274584" lon="13.315817040878322"><ele>380.0</ele><time>2026-04-04T13:24:58Z</time></trkpt><trkpt lat="46.407123693634475" lon="13.3157044142808"><ele>380.25</ele><time>2026-04-04T13:24:59Z</time></trkpt><trkpt lat="46.407213025689174" lon="13.315612477789056"><ele>380.5</ele><time>2026-04-04T13:25:00Z</time></trkpt><trkpt lat="46.40730165731003" lon="13.315508517111201"><ele>380.75</ele><time>2026-04-04T13:25:01Z</time></trkpt><trkpt lat="46.4073926961618" lon="13.315401921892098"><ele>381.0</ele><time>2026-04-04T13:25:02Z</time></trkpt><trkpt lat="46.40747286081945" lon="13.315282242778853"><ele>381.0</ele><time>2026-04-04T13:25:03Z</time></trkpt><trkpt lat="46.40753192377046" lon="13.315137027914137"><ele>381.0</ele><time>2026-04-04T13:25:03.999Z</time></trkpt><trkpt lat="46.40757742855378" lon="13.314964369999949"><ele>381.0</ele><time>2026-04-04T13:25:04.999Z</time></trkpt><trkpt lat="46.40762011571399" lon="13.314781399521511"><ele>381.0</ele><time>2026-04-04T13:25:05.999Z</time></trkpt><trkpt lat="46.40766669170795" lon="13.314598116122383"><ele>380.5</ele><time>2026-04-04T13:25:06.999Z</time></trkpt><trkpt lat="46.40771742281458" lon="13.314407488170616"><ele>380.0</ele><time>2026-04-04T13:25:07.999Z</time></trkpt><trkpt lat="46.40776583653254" lon="13.314229559522289"><ele>379.5</ele><time>2026-04-04T13:25:08.999Z</time></trkpt><trkpt lat="46.407807957981184" lon="13.314061430157464"><ele>379.0</ele><time>2026-04-04T13:25:09.999Z</time></trkpt><trkpt lat="46.40785046413268" lon="13.31390058380921"><ele>378.79999999999995</ele><time>2026-04-04T13:25:10.999Z</time></trkpt><trkpt lat="46.40789345569795" lon="13.313749073597075"><ele>378.59999999999997</ele><time>2026-04-04T13:25:11.999Z</time></trkpt><trkpt lat="46.407933973260675" lon="13.313605191749259"><ele>378.4</ele><time>2026-04-04T13:25:12.999Z</time></trkpt><trkpt lat="46.407978524533135" lon="13.313463011779398"><ele>378.2</ele><time>2026-04-04T13:25:13.999Z</time></trkpt><trkpt lat="46.40802973709132" lon="13.313327981783223"><ele>378.0</ele><time>2026-04-04T13:25:14.999Z</time></trkpt><trkpt lat="46.408081837579644" lon="13.313195143572104"><ele>377.8333333333333</ele><time>2026-04-04T13:25:15.999Z</time></trkpt><trkpt lat="46.4081296107533" lon="13.313064813935133"><ele>377.6666666666667</ele><time>2026-04-04T13:25:16.999Z</time></trkpt><trkpt lat="46.40817810159159" lon="13.312939470668772"><ele>377.5</ele><time>2026-04-04T13:25:17.999Z</time></trkpt><trkpt lat="46.40822649971738" lon="13.312823590248506"><ele>377.33333333333337</ele><time>2026-04-04T13:25:18.999Z</time></trkpt><trkpt lat="46.408267300369026" lon="13.312724254575363"><ele>377.1666666666667</ele><time>2026-04-04T13:25:19.999Z</time></trkpt><trkpt lat="46.40830146196957" lon="13.312634633334097"><ele>377.0</ele><time>2026-04-04T13:25:20.999Z</time></trkpt><trkpt lat="46.408333003508766" lon="13.31255429370865"><ele>377.0</ele><time>2026-04-04T13:25:21.999Z</time></trkpt><trkpt lat="46.4083997230321" lon="13.31242804976905"><ele>377.0</ele><time>2026-04-04T13:25:23.999Z</time></trkpt><trkpt lat="46.40843791384773" lon="13.312287570873066"><ele>377.0</ele><time>2026-04-04T13:25:25.999Z</time></trkpt><trkpt lat="46.4084868784609" lon="13.312171738202348"><ele>377.0</ele><time>2026-04-04T13:25:27.999Z</time></trkpt><trkpt lat="46.40853284336829" lon="13.31208129741581"><ele>377.0</ele><time>2026-04-04T13:25:29.999Z</time></trkpt><trkpt lat="46.40856603271921" lon="13.311986876755705"><ele>377.40000000000003</ele><time>2026-04-04T13:25:32.999Z</time></trkpt><trkpt lat="46.40860678145437" lon="13.311888331643281"><ele>377.8</ele><time>2026-04-04T13:26:19.999Z</time></trkpt><trkpt lat="46.40864897728794" lon="13.31176163183824"><ele>378.2</ele><time>2026-04-04T13:26:21.999Z</time></trkpt><trkpt lat="46.408664641655" lon="13.311622631202095"><ele>378.6</ele><time>2026-04-04T13:26:24.999Z</time></trkpt><trkpt lat="46.40859420663224" lon="13.311483319773115"><ele>379.0</ele><time>2026-04-04T13:26:26.999Z</time></trkpt><trkpt lat="46.40852094080345" lon="13.311430196953589"><ele>380.25</ele><time>2026-04-04T13:26:27.999Z</time></trkpt><trkpt lat="46.408426399263995" lon="13.311377403968127"><ele>381.5</ele><time>2026-04-04T13:26:28.999Z</time></trkpt><trkpt lat="46.40831608553089" lon="13.311318351058562"><ele>382.75</ele><time>2026-04-04T13:26:29.999Z</time></trkpt><trkpt lat="46.408185796082655" lon="13.31124148401732"><ele>384.0</ele><time>2026-04-04T13:26:30.999Z</time></trkpt><trkpt lat="46.4080423430447" lon="13.311121697346815"><ele>381.6666666666667</ele><time>2026-04-04T13:26:31.999Z</time></trkpt><trkpt lat="46.40791115926343" lon="13.310938531286974"><ele>379.33333333333337</ele><time>2026-04-04T13:26:32.999Z</time></trkpt><trkpt lat="46.40776015852975" lon="13.310761694455975"><ele>377.0</ele><time>2026-04-04T13:26:33.999Z</time></trkpt><trkpt lat="46.40762335841665" lon="13.310539327916485"><ele>377.0</ele><time>2026-04-04T13:26:34.999Z</time></trkpt><trkpt lat="46.40749755416393" lon="13.310297978336642"><ele>377.0</ele><time>2026-04-04T13:26:35.999Z</time></trkpt><trkpt lat="46.407387168012875" lon="13.310039323959955"><ele>377.0</ele><time>2026-04-04T13:26:36.999Z</time></trkpt><trkpt lat="46.40730579084782" lon="13.309770847899802"><ele>378.0</ele><time>2026-04-04T13:26:37.999Z</time></trkpt><trkpt lat="46.40723028744447" lon="13.309508584119879"><ele>379.0</ele><time>2026-04-04T13:26:38.999Z</time></trkpt><trkpt lat="46.40716815389585" lon="13.309239160071952"><ele>380.0</ele><time>2026-04-04T13:26:39.999Z</time></trkpt><trkpt lat="46.40712490350458" lon="13.308964174895474"><ele>377.6666666666667</ele><time>2026-04-04T13:26:40.999Z</time></trkpt><trkpt lat="46.40708559216908" lon="13.308678255061176"><ele>375.3333333333333</ele><time>2026-04-04T13:26:41.999Z</time></trkpt><trkpt lat="46.407039013978" lon="13.308378986389023"><ele>373.0</ele><time>2026-04-04T13:26:42.999Z</time></trkpt><trkpt lat="46.40698792369436" lon="13.308074349784658"><ele>373.0</ele><time>2026-04-04T13:26:43.999Z</time></trkpt><trkpt lat="46.406942106168835" lon="13.307763646873532"><ele>373.0</ele><time>2026-04-04T13:26:44.999Z</time></trkpt><trkpt lat="46.40689461123812" lon="13.307440080321717"><ele>373.0</ele><time>2026-04-04T13:26:45.999Z</time></trkpt><trkpt lat="46.40684522250353" lon="13.307112093941376"><ele>375.66666666666663</ele><time>2026-04-04T13:26:46.999Z</time></trkpt><trkpt lat="46.406799134493234" lon="13.3067926388818"><ele>378.3333333333333</ele><time>2026-04-04T13:26:47.999Z</time></trkpt><trkpt lat="46.40675152667497" lon="13.306475805412946"><ele>381.0</ele><time>2026-04-04T13:26:48.999Z</time></trkpt><trkpt lat="46.40670536885942" lon="13.306162945318418"><ele>381.0</ele><time>2026-04-04T13:26:49.998Z</time></trkpt><trkpt lat="46.40665576806125" lon="13.305849752264047"><ele>381.0</ele><time>2026-04-04T13:26:50.998Z</time></trkpt><trkpt lat="46.40660686359781" lon="13.305535591195307"><ele>381.0</ele><time>2026-04-04T13:26:52Z</time></trkpt><trkpt lat="46.40656773621913" lon="13.305224863824469"><ele>382.0</ele><time>2026-04-04T13:26:53Z</time></trkpt><trkpt lat="46.40653349715904" lon="13.304918469905214"><ele>383.0</ele><time>2026-04-04T13:26:54Z</time></trkpt><trkpt lat="46.40650276685603" lon="13.304614609138822"><ele>384.0</ele><time>2026-04-04T13:26:55Z</time></trkpt><trkpt lat="46.40647815372941" lon="13.304309052195148"><ele>382.0</ele><time>2026-04-04T13:26:56Z</time></trkpt><trkpt lat="46.40646082063389" lon="13.304004663738878"><ele>380.0</ele><time>2026-04-04T13:26:57Z</time></trkpt><trkpt lat="46.40644536204901" lon="13.303705283865506"><ele>378.0</ele><time>2026-04-04T13:26:58Z</time></trkpt><trkpt lat="46.40642653211978" lon="13.30341320858804"><ele>378.3333333333333</ele><time>2026-04-04T13:26:59Z</time></trkpt><trkpt lat="46.40640633491028" lon="13.303121966256832"><ele>378.66666666666663</ele><time>2026-04-04T13:27:00Z</time></trkpt><trkpt lat="46.406388152189365" lon="13.302837771666628"><ele>379.0</ele><time>2026-04-04T13:27:01Z</time></trkpt><trkpt lat="46.40637097871197" lon="13.302555593293606"><ele>379.0</ele><time>2026-04-04T13:27:02Z</time></trkpt><trkpt lat="46.40635300686166" lon="13.302277454489435"><ele>379.0</ele><time>2026-04-04T13:27:03Z</time></trkpt><trkpt lat="46.40633599472063" lon="13.302000840348994"><ele>379.0</ele><time>2026-04-04T13:27:04Z</time></trkpt><trkpt lat="46.406316100472765" lon="13.301728001533856"><ele>377.0</ele><time>2026-04-04T13:27:05Z</time></trkpt><trkpt lat="46.40628917585523" lon="13.301462671337225"><ele>375.0</ele><time>2026-04-04T13:27:06Z</time></trkpt><trkpt lat="46.406259066545914" lon="13.301205758978384"><ele>373.0</ele><time>2026-04-04T13:27:07Z</time></trkpt><trkpt lat="46.406220382994235" lon="13.300951271464347"><ele>373.0</ele><time>2026-04-04T13:27:08Z</time></trkpt><trkpt lat="46.40617797897457" lon="13.300700809847585"><ele>373.0</ele><time>2026-04-04T13:27:09Z</time></trkpt><trkpt lat="46.40613664145096" lon="13.30045099413209"><ele>373.0</ele><time>2026-04-04T13:27:10Z</time></trkpt><trkpt lat="46.40609749641776" lon="13.300202721003279"><ele>373.0</ele><time>2026-04-04T13:27:11Z</time></trkpt><trkpt lat="46.40605676569618" lon="13.299955451708236"><ele>373.0</ele><time>2026-04-04T13:27:11.999Z</time></trkpt><trkpt lat="46.406013551089615" lon="13.299710903354494"><ele>373.0</ele><time>2026-04-04T13:27:12.999Z</time></trkpt><trkpt lat="46.40596881848758" lon="13.299461379850394"><ele>373.0</ele><time>2026-04-04T13:27:13.999Z</time></trkpt><trkpt lat="46.40592540056014" lon="13.299216792946225"><ele>373.0</ele><time>2026-04-04T13:27:14.999Z</time></trkpt><trkpt lat="46.405883769061056" lon="13.29896867031124"><ele>373.0</ele><time>2026-04-04T13:27:15.999Z</time></trkpt><trkpt lat="46.40584054794718" lon="13.298719907776022"><ele>373.0</ele><time>2026-04-04T13:27:16.999Z</time></trkpt><trkpt lat="46.405793517494565" lon="13.298472454519818"><ele>373.0</ele><time>2026-04-04T13:27:17.999Z</time></trkpt><trkpt lat="46.40574560893517" lon="13.298224345103767"><ele>373.0</ele><time>2026-04-04T13:27:18.999Z</time></trkpt><trkpt lat="46.405698512250936" lon="13.29797615400588"><ele>375.66666666666663</ele><time>2026-04-04T13:27:19.999Z</time></trkpt><trkpt lat="46.40565323094024" lon="13.297726398649987"><ele>378.3333333333333</ele><time>2026-04-04T13:27:20.999Z</time></trkpt><trkpt lat="46.40560493439983" lon="13.297476677125475"><ele>381.0</ele><time>2026-04-04T13:27:21.999Z</time></trkpt><trkpt lat="46.40555306339488" lon="13.29722969742893"><ele>382.66666666666663</ele><time>2026-04-04T13:27:22.999Z</time></trkpt><trkpt lat="46.40549875586336" lon="13.296973165418933"><ele>384.3333333333333</ele><time>2026-04-04T13:27:23.999Z</time></trkpt><trkpt lat="46.40544677189033" lon="13.296712514196456"><ele>386.0</ele><time>2026-04-04T13:27:24.999Z</time></trkpt><trkpt lat="46.40539664878701" lon="13.296447430115263"><ele>379.66666666666663</ele><time>2026-04-04T13:27:25.999Z</time></trkpt><trkpt lat="46.40534646564921" lon="13.296180686851525"><ele>373.3333333333333</ele><time>2026-04-04T13:27:26.999Z</time></trkpt><trkpt lat="46.40529646389377" lon="13.295911998462465"><ele>367.0</ele><time>2026-04-04T13:27:27.999Z</time></trkpt><trkpt lat="46.405246706526924" lon="13.295642591871607"><ele>370.3333333333333</ele><time>2026-04-04T13:27:28.999Z</time></trkpt><trkpt lat="46.405193968544665" lon="13.295372625803411"><ele>373.6666666666667</ele><time>2026-04-04T13:27:29.999Z</time></trkpt><trkpt lat="46.40514252101394" lon="13.295102947391419"><ele>377.0</ele><time>2026-04-04T13:27:30.999Z</time></trkpt><trkpt lat="46.40508907604854" lon="13.294832705040447"><ele>376.6666666666667</ele><time>2026-04-04T13:27:31.999Z</time></trkpt><trkpt lat="46.40503767044584" lon="13.294563475387276"><ele>376.3333333333333</ele><time>2026-04-04T13:27:32.999Z</time></trkpt><trkpt lat="46.404982389911076" lon="13.294296755815997"><ele>376.0</ele><time>2026-04-04T13:27:33.999Z</time></trkpt><trkpt lat="46.404920116347434" lon="13.29403111559729"><ele>377.66666666666663</ele><time>2026-04-04T13:27:34.999Z</time></trkpt><trkpt lat="46.40484841999461" lon="13.293769943799331"><ele>379.3333333333333</ele><time>2026-04-04T13:27:35.999Z</time></trkpt><trkpt lat="46.40476969639023" lon="13.293509538980679"><ele>381.0</ele><time>2026-04-04T13:27:36.999Z</time></trkpt><trkpt lat="46.40468893833075" lon="13.293251626833822"><ele>376.0</ele><time>2026-04-04T13:27:37.999Z</time></trkpt><trkpt lat="46.40460845948329" lon="13.292996819469806"><ele>371.0</ele><time>2026-04-04T13:27:38.999Z</time></trkpt><trkpt lat="46.40453101099821" lon="13.292747351559985"><ele>366.0</ele><time>2026-04-04T13:27:39.999Z</time></trkpt><trkpt lat="46.40445137460767" lon="13.292503506559314"><ele>366.0</ele><time>2026-04-04T13:27:40.999Z</time></trkpt><trkpt lat="46.40437400112569" lon="13.29226610685122"><ele>366.0</ele><time>2026-04-04T13:27:41.999Z</time></trkpt><trkpt lat="46.40429994150986" lon="13.292030833269578"><ele>366.0</ele><time>2026-04-04T13:27:42.999Z</time></trkpt><trkpt lat="46.40422879687332" lon="13.291797909651237"><ele>367.6666666666667</ele><time>2026-04-04T13:27:43.999Z</time></trkpt><trkpt lat="46.40415956087053" lon="13.291563520651255"><ele>369.33333333333337</ele><time>2026-04-04T13:27:44.999Z</time></trkpt><trkpt lat="46.40408895828164" lon="13.291331590966493"><ele>371.0</ele><time>2026-04-04T13:27:45.999Z</time></trkpt><trkpt lat="46.404014994640605" lon="13.291101928968422"><ele>371.6666666666667</ele><time>2026-04-04T13:27:46.999Z</time></trkpt><trkpt lat="46.40393737966429" lon="13.290872626860951"><ele>372.3333333333333</ele><time>2026-04-04T13:27:47.999Z</time></trkpt><trkpt lat="46.40385250164455" lon="13.290646422250244"><ele>373.0</ele><time>2026-04-04T13:27:48.999Z</time></trkpt><trkpt lat="46.40375376150767" lon="13.290418759048135"><ele>373.0</ele><time>2026-04-04T13:27:49.999Z</time></trkpt><trkpt lat="46.40363612584684" lon="13.290197797218678"><ele>373.0</ele><time>2026-04-04T13:27:50.999Z</time></trkpt><trkpt lat="46.4035022281684" lon="13.289977832144263"><ele>373.0</ele><time>2026-04-04T13:27:51.999Z</time></trkpt><trkpt lat="46.403357828377175" lon="13.289754799851313"><ele>371.3333333333333</ele><time>2026-04-04T13:27:52.999Z</time></trkpt><trkpt lat="46.403208518586304" lon="13.289526049011037"><ele>369.6666666666667</ele><time>2026-04-04T13:27:53.999Z</time></trkpt><trkpt lat="46.40305460771538" lon="13.289287497535549"><ele>368.0</ele><time>2026-04-04T13:27:54.999Z</time></trkpt><trkpt lat="46.40289725042965" lon="13.289048555003143"><ele>371.0</ele><time>2026-04-04T13:27:55.999Z</time></trkpt><trkpt lat="46.40273811716643" lon="13.288812341720721"><ele>374.0</ele><time>2026-04-04T13:27:56.999Z</time></trkpt><trkpt lat="46.40257999377624" lon="13.288577149865786"><ele>374.0</ele><time>2026-04-04T13:27:57.999Z</time></trkpt><trkpt lat="46.40242406363615" lon="13.28833868288589"><ele>374.0</ele><time>2026-04-04T13:27:58.999Z</time></trkpt><trkpt lat="46.40226834565054" lon="13.288099640183136"><ele>370.0</ele><time>2026-04-04T13:27:59.999Z</time></trkpt><trkpt lat="46.40211106346553" lon="13.287865802191856"><ele>366.0</ele><time>2026-04-04T13:28:00.999Z</time></trkpt><trkpt lat="46.40195641310724" lon="13.28763012919821"><ele>366.0</ele><time>2026-04-04T13:28:01.999Z</time></trkpt><trkpt lat="46.401805794508704" lon="13.287394327596981"><ele>366.0</ele><time>2026-04-04T13:28:02.999Z</time></trkpt><trkpt lat="46.40165710643569" lon="13.287160210471532"><ele>366.0</ele><time>2026-04-04T13:28:03.999Z</time></trkpt><trkpt lat="46.401514164576795" lon="13.286925931865735"><ele>365.0</ele><time>2026-04-04T13:28:04.999Z</time></trkpt><trkpt lat="46.40137306568021" lon="13.286691818258303"><ele>364.0</ele><time>2026-04-04T13:28:05.999Z</time></trkpt><trkpt lat="46.40123624226662" lon="13.286458769087849"><ele>363.0</ele><time>2026-04-04T13:28:06.999Z</time></trkpt><trkpt lat="46.40109966029412" lon="13.286227779424038"><ele>365.6666666666667</ele><time>2026-04-04T13:28:07.999Z</time></trkpt><trkpt lat="46.400965286457605" lon="13.285998061861964"><ele>368.33333333333337</ele><time>2026-04-04T13:28:08.999Z</time></trkpt><trkpt lat="46.40083021126782" lon="13.285770724784774"><ele>371.0</ele><time>2026-04-04T13:28:09.999Z</time></trkpt><trkpt lat="46.40069427992607" lon="13.285537680888442"><ele>367.33333333333337</ele><time>2026-04-04T13:28:10.999Z</time></trkpt><trkpt lat="46.40055777441881" lon="13.285306305450776"><ele>363.6666666666667</ele><time>2026-04-04T13:28:11.999Z</time></trkpt><trkpt lat="46.40042471598327" lon="13.28507358110342"><ele>360.0</ele><time>2026-04-04T13:28:12.999Z</time></trkpt><trkpt lat="46.40029003906219" lon="13.284844665729064"><ele>364.6666666666667</ele><time>2026-04-04T13:28:13.999Z</time></trkpt><trkpt lat="46.40014539498862" lon="13.284632057903478"><ele>369.33333333333337</ele><time>2026-04-04T13:28:14.999Z</time></trkpt><trkpt lat="46.39998790705148" lon="13.284437750176009"><ele>374.0</ele><time>2026-04-04T13:28:15.999Z</time></trkpt><trkpt lat="46.399817068088275" lon="13.284262987383585"><ele>370.0</ele><time>2026-04-04T13:28:16.999Z</time></trkpt><trkpt lat="46.39963213715937" lon="13.284112912852535"><ele>366.0</ele><time>2026-04-04T13:28:17.999Z</time></trkpt><trkpt lat="46.39943940071788" lon="13.283977484529089"><ele>362.0</ele><time>2026-04-04T13:28:18.999Z</time></trkpt><trkpt lat="46.39924818377445" lon="13.283844487640687"><ele>365.0</ele><time>2026-04-04T13:28:19.999Z</time></trkpt><trkpt lat="46.3990624141813" lon="13.283709992249431"><ele>368.0</ele><time>2026-04-04T13:28:20.999Z</time></trkpt><trkpt lat="46.39888259077263" lon="13.283570124173387"><ele>371.0</ele><time>2026-04-04T13:28:21.999Z</time></trkpt><trkpt lat="46.398705661939275" lon="13.283425736564881"><ele>371.0</ele><time>2026-04-04T13:28:22.999Z</time></trkpt><trkpt lat="46.39853774063745" lon="13.283269083926436"><ele>371.0</ele><time>2026-04-04T13:28:23.999Z</time></trkpt><trkpt lat="46.398389343811715" lon="13.283081361438004"><ele>371.0</ele><time>2026-04-04T13:28:24.999Z</time></trkpt><trkpt lat="46.39826146039104" lon="13.282862309759508"><ele>368.0</ele><time>2026-04-04T13:28:25.999Z</time></trkpt><trkpt lat="46.39813528371451" lon="13.28262456923174"><ele>365.0</ele><time>2026-04-04T13:28:26.999Z</time></trkpt><trkpt lat="46.39800024557003" lon="13.282377015223515"><ele>362.0</ele><time>2026-04-04T13:28:27.999Z</time></trkpt><trkpt lat="46.397861058061046" lon="13.282118410949636"><ele>362.0</ele><time>2026-04-04T13:28:28.999Z</time></trkpt><trkpt lat="46.39771623846324" lon="13.281847689418546"><ele>362.0</ele><time>2026-04-04T13:28:29.999Z</time></trkpt><trkpt lat="46.39756132004157" lon="13.281568990805813"><ele>363.5</ele><time>2026-04-04T13:28:30.999Z</time></trkpt><trkpt lat="46.39739890745367" lon="13.281286021635912"><ele>365.0</ele><time>2026-04-04T13:28:31.999Z</time></trkpt><trkpt lat="46.397231858625915" lon="13.280995245370411"><ele>365.0</ele><time>2026-04-04T13:28:32.999Z</time></trkpt><trkpt lat="46.3970609713558" lon="13.280703371034962"><ele>365.0</ele><time>2026-04-04T13:28:33.999Z</time></trkpt><trkpt lat="46.396891222273446" lon="13.280407168715548"><ele>365.0</ele><time>2026-04-04T13:28:34.999Z</time></trkpt><trkpt lat="46.39673007565098" lon="13.280104723826112"><ele>365.0</ele><time>2026-04-04T13:28:35.999Z</time></trkpt><trkpt lat="46.39658202310679" lon="13.279796120310625"><ele>364.5</ele><time>2026-04-04T13:28:36.999Z</time></trkpt><trkpt lat="46.39644872020301" lon="13.279478074386803"><ele>364.0</ele><time>2026-04-04T13:28:37.999Z</time></trkpt><trkpt lat="46.396339355207026" lon="13.279143325841826"><ele>361.0</ele><time>2026-04-04T13:28:38.999Z</time></trkpt><trkpt lat="46.396239834950315" lon="13.278803488246648"><ele>358.0</ele><time>2026-04-04T13:28:39.999Z</time></trkpt><trkpt lat="46.39613886744346" lon="13.278466428253829"><ele>358.0</ele><time>2026-04-04T13:28:40.999Z</time></trkpt><trkpt lat="46.39603520421418" lon="13.27812778755501"><ele>358.0</ele><time>2026-04-04T13:28:41.999Z</time></trkpt><trkpt lat="46.39593465616055" lon="13.277787687834303"><ele>364.0</ele><time>2026-04-04T13:28:42.999Z</time></trkpt><trkpt lat="46.395837109804546" lon="13.27744867441942"><ele>370.0</ele><time>2026-04-04T13:28:43.999Z</time></trkpt><trkpt lat="46.395743700668675" lon="13.277107445708555"><ele>373.0</ele><time>2026-04-04T13:28:44.999Z</time></trkpt><trkpt lat="46.39565487229682" lon="13.276758529916858"><ele>376.0</ele><time>2026-04-04T13:28:45.999Z</time></trkpt><trkpt lat="46.39556449995456" lon="13.276402779790546"><ele>367.0</ele><time>2026-04-04T13:28:46.999Z</time></trkpt><trkpt lat="46.39547371746267" lon="13.276040235426704"><ele>358.0</ele><time>2026-04-04T13:28:47.999Z</time></trkpt><trkpt lat="46.395387559295905" lon="13.27568471765129"><ele>365.0</ele><time>2026-04-04T13:28:48.999Z</time></trkpt><trkpt lat="46.39530701848018" lon="13.27536440515147"><ele>372.0</ele><time>2026-04-04T13:28:49.999Z</time></trkpt><trkpt lat="46.39523423013497" lon="13.275051947120817"><ele>365.5</ele><time>2026-04-04T13:28:50.999Z</time></trkpt><trkpt lat="46.39518161550891" lon="13.274726183949385"><ele>359.0</ele><time>2026-04-04T13:28:51.999Z</time></trkpt><trkpt lat="46.395157939652805" lon="13.274390755424957"><ele>359.0</ele><time>2026-04-04T13:28:52.999Z</time></trkpt><trkpt lat="46.39516462797124" lon="13.274057236606952"><ele>359.0</ele><time>2026-04-04T13:28:53.999Z</time></trkpt><trkpt lat="46.395203902980214" lon="13.273741085668412"><ele>352.0</ele><time>2026-04-04T13:28:54.999Z</time></trkpt><trkpt lat="46.395276266929734" lon="13.27343681310813"><ele>345.0</ele><time>2026-04-04T13:28:55.998Z</time></trkpt><trkpt lat="46.39536192790494" lon="13.273120358471"><ele>344.0</ele><time>2026-04-04T13:28:56.998Z</time></trkpt><trkpt lat="46.39544901569551" lon="13.272794127553306"><ele>343.0</ele><time>2026-04-04T13:28:58Z</time></trkpt><trkpt lat="46.39554410281642" lon="13.272467273705548"><ele>347.0</ele><time>2026-04-04T13:28:59Z</time></trkpt><trkpt lat="46.39563651648425" lon="13.27212882131616"><ele>351.0</ele><time>2026-04-04T13:29:00Z</time></trkpt><trkpt lat="46.3957178713082" lon="13.271793770097181"><ele>351.0</ele><time>2026-04-04T13:29:01Z</time></trkpt><trkpt lat="46.39578127402566" lon="13.271454373413697"><ele>351.0</ele><time>2026-04-04T13:29:02Z</time></trkpt><trkpt lat="46.39580824382778" lon="13.271104551428826"><ele>349.0</ele><time>2026-04-04T13:29:03Z</time></trkpt><trkpt lat="46.39580338482153" lon="13.27073999662349"><ele>347.0</ele><time>2026-04-04T13:29:04Z</time></trkpt><trkpt lat="46.39577871889275" lon="13.27036208194109"><ele>346.5</ele><time>2026-04-04T13:29:05Z</time></trkpt><trkpt lat="46.39573984426823" lon="13.269962267844932"><ele>346.0</ele><time>2026-04-04T13:29:06Z</time></trkpt><trkpt lat="46.39570108014307" lon="13.269540961906891"><ele>346.0</ele><time>2026-04-04T13:29:07Z</time></trkpt><trkpt lat="46.3956666104872" lon="13.269105280142018"><ele>346.0</ele><time>2026-04-04T13:29:08Z</time></trkpt><trkpt lat="46.39563066279033" lon="13.26866778588673"><ele>347.0</ele><time>2026-04-04T13:29:09Z</time></trkpt><trkpt lat="46.395594614972495" lon="13.268244684623065"><ele>348.0</ele><time>2026-04-04T13:29:10Z</time></trkpt><trkpt lat="46.395561925199864" lon="13.267838508710968"><ele>352.5</ele><time>2026-04-04T13:29:11Z</time></trkpt><trkpt lat="46.39552932716612" lon="13.267446222063917"><ele>357.0</ele><time>2026-04-04T13:29:12Z</time></trkpt><trkpt lat="46.39549346571326" lon="13.267065773432032"><ele>408.0</ele><time>2026-04-04T13:29:13Z</time></trkpt><trkpt lat="46.39545869928525" lon="13.266693664403991"><ele>459.0</ele><time>2026-04-04T13:29:14Z</time></trkpt><trkpt lat="46.39542388015655" lon="13.266325852900987"><ele>459.0</ele><time>2026-04-04T13:29:15Z</time></trkpt><trkpt lat="46.39538446507111" lon="13.265933261190055"><ele>459.0</ele><time>2026-04-04T13:29:16.08Z</time></trkpt><trkpt lat="46.3953470474145" lon="13.265582874990573"><ele>439.0</ele><time>2026-04-04T13:29:17.058Z</time></trkpt><trkpt lat="46.3953088926514" lon="13.265229427955504"><ele>419.0</ele><time>2026-04-04T13:29:18.058Z</time></trkpt><trkpt lat="46.395270234811605" lon="13.2648790651552"><ele>393.0</ele><time>2026-04-04T13:29:19.058Z</time></trkpt><trkpt lat="46.39419231513936" lon="13.263532739848179"><ele>393.0</ele><time>2026-04-04T13:29:25.999Z</time></trkpt><trkpt lat="46.39408579306085" lon="13.263261490971553"><ele>393.0</ele><time>2026-04-04T13:29:26.999Z</time></trkpt><trkpt lat="46.39462374759645" lon="13.26143345133962"><ele>373.5</ele><time>2026-04-04T13:29:29.999Z</time></trkpt><trkpt lat="46.39448200813013" lon="13.261166110554134"><ele>354.0</ele><time>2026-04-04T13:29:30.999Z</time></trkpt><trkpt lat="46.39436259231087" lon="13.260889213920894"><ele>349.0</ele><time>2026-04-04T13:29:31.999Z</time></trkpt><trkpt lat="46.3942460289865" lon="13.260608864877822"><ele>344.0</ele><time>2026-04-04T13:29:32.999Z</time></trkpt><trkpt lat="46.39413042562217" lon="13.260328759213952"><ele>344.0</ele><time>2026-04-04T13:29:33.999Z</time></trkpt><trkpt lat="46.39401119727257" lon="13.260050900319971"><ele>344.0</ele><time>2026-04-04T13:29:34.999Z</time></trkpt><trkpt lat="46.39389646599199" lon="13.25976808549859"><ele>357.0</ele><time>2026-04-04T13:29:35.999Z</time></trkpt><trkpt lat="46.393804977480066" lon="13.259466986391931"><ele>370.0</ele><time>2026-04-04T13:29:36.999Z</time></trkpt><trkpt lat="46.39374186967978" lon="13.259142075418904"><ele>369.0</ele><time>2026-04-04T13:29:37.999Z</time></trkpt><trkpt lat="46.393694309105335" lon="13.258797576753704"><ele>368.0</ele><time>2026-04-04T13:29:38.999Z</time></trkpt><trkpt lat="46.39364539414468" lon="13.258459803785275"><ele>364.5</ele><time>2026-04-04T13:29:39.999Z</time></trkpt><trkpt lat="46.39359632193684" lon="13.258109453350176"><ele>361.0</ele><time>2026-04-04T13:29:40.999Z</time></trkpt><trkpt lat="46.393544043663205" lon="13.257753576841903"><ele>361.0</ele><time>2026-04-04T13:29:41.999Z</time></trkpt><trkpt lat="46.39349057248503" lon="13.25740036417381"><ele>361.0</ele><time>2026-04-04T13:29:42.999Z</time></trkpt><trkpt lat="46.39344520417568" lon="13.257048367727984"><ele>360.0</ele><time>2026-04-04T13:29:43.999Z</time></trkpt><trkpt lat="46.39341461812971" lon="13.256697450487186"><ele>359.0</ele><time>2026-04-04T13:29:44.999Z</time></trkpt><trkpt lat="46.39341445349328" lon="13.256345380882621"><ele>366.0</ele><time>2026-04-04T13:29:45.999Z</time></trkpt><trkpt lat="46.39345204711847" lon="13.25599847216653"><ele>373.0</ele><time>2026-04-04T13:29:46.999Z</time></trkpt><trkpt lat="46.39352306476461" lon="13.255660596951978"><ele>382.0</ele><time>2026-04-04T13:29:47.999Z</time></trkpt><trkpt lat="46.39362899566756" lon="13.255341278173475"><ele>391.0</ele><time>2026-04-04T13:29:48.999Z</time></trkpt><trkpt lat="46.39375293380259" lon="13.255031454476986"><ele>371.0</ele><time>2026-04-04T13:29:49.999Z</time></trkpt><trkpt lat="46.3938667468689" lon="13.254712630503706"><ele>351.0</ele><time>2026-04-04T13:29:50.999Z</time></trkpt><trkpt lat="46.393966777649695" lon="13.254374923790396"><ele>351.0</ele><time>2026-04-04T13:29:51.999Z</time></trkpt><trkpt lat="46.39405245894214" lon="13.254039375855376"><ele>351.0</ele><time>2026-04-04T13:29:52.999Z</time></trkpt><trkpt lat="46.3941218590704" lon="13.253699621720429"><ele>355.0</ele><time>2026-04-04T13:29:53.999Z</time></trkpt><trkpt lat="46.394168172915855" lon="13.253351498471423"><ele>359.0</ele><time>2026-04-04T13:29:54.999Z</time></trkpt><trkpt lat="46.39420463597592" lon="13.253000818388484"><ele>359.5</ele><time>2026-04-04T13:29:55.999Z</time></trkpt><trkpt lat="46.39423160297844" lon="13.252647577969112"><ele>360.0</ele><time>2026-04-04T13:29:56.999Z</time></trkpt><trkpt lat="46.39424944026647" lon="13.252288835585166"><ele>359.0</ele><time>2026-04-04T13:29:57.999Z</time></trkpt><trkpt lat="46.394267069166794" lon="13.25192770184652"><ele>358.0</ele><time>2026-04-04T13:29:58.999Z</time></trkpt><trkpt lat="46.39428263015426" lon="13.251554611400024"><ele>360.0</ele><time>2026-04-04T13:29:59.999Z</time></trkpt><trkpt lat="46.394300191375585" lon="13.251172388092604"><ele>362.0</ele><time>2026-04-04T13:30:00.999Z</time></trkpt><trkpt lat="46.39432067482619" lon="13.250776435497574"><ele>362.0</ele><time>2026-04-04T13:30:01.999Z</time></trkpt><trkpt lat="46.394335813735964" lon="13.250354000738428"><ele>362.0</ele><time>2026-04-04T13:30:02.999Z</time></trkpt><trkpt lat="46.394348909466736" lon="13.249918314949944"><ele>364.0</ele><time>2026-04-04T13:30:03.999Z</time></trkpt><trkpt lat="46.394358729759766" lon="13.249473628267951"><ele>366.0</ele><time>2026-04-04T13:30:04.999Z</time></trkpt><trkpt lat="46.39436466160842" lon="13.249029921614694"><ele>364.0</ele><time>2026-04-04T13:30:05.999Z</time></trkpt><trkpt lat="46.39436785238942" lon="13.24858702554891"><ele>362.0</ele><time>2026-04-04T13:30:06.999Z</time></trkpt><trkpt lat="46.394369906846116" lon="13.248154033803393"><ele>357.5</ele><time>2026-04-04T13:30:07.999Z</time></trkpt><trkpt lat="46.394372283998095" lon="13.24774079654022"><ele>353.0</ele><time>2026-04-04T13:30:08.999Z</time></trkpt><trkpt lat="46.39437219042881" lon="13.247343392741767"><ele>354.5</ele><time>2026-04-04T13:30:09.999Z</time></trkpt><trkpt lat="46.39436391886885" lon="13.246953498068697"><ele>356.0</ele><time>2026-04-04T13:30:10.999Z</time></trkpt><trkpt lat="46.394342328754504" lon="13.246569241042586"><ele>355.5</ele><time>2026-04-04T13:30:11.999Z</time></trkpt><trkpt lat="46.394304318456236" lon="13.246194676525365"><ele>355.0</ele><time>2026-04-04T13:30:12.999Z</time></trkpt><trkpt lat="46.39424521842622" lon="13.245823375205822"><ele>351.0</ele><time>2026-04-04T13:30:13.999Z</time></trkpt><trkpt lat="46.39416444265776" lon="13.245455660863533"><ele>347.0</ele><time>2026-04-04T13:30:14.999Z</time></trkpt><trkpt lat="46.39408394707708" lon="13.24508314083065"><ele>341.5</ele><time>2026-04-04T13:30:15.999Z</time></trkpt><trkpt lat="46.393967498520674" lon="13.2447276879483"><ele>336.0</ele><time>2026-04-04T13:30:16.999Z</time></trkpt><trkpt lat="46.393828047129624" lon="13.244382934258853"><ele>343.0</ele><time>2026-04-04T13:30:17.999Z</time></trkpt><trkpt lat="46.39367665928333" lon="13.244041415558032"><ele>350.0</ele><time>2026-04-04T13:30:18.999Z</time></trkpt><trkpt lat="46.393519484201406" lon="13.243701012466293"><ele>350.0</ele><time>2026-04-04T13:30:19.999Z</time></trkpt><trkpt lat="46.393367087431024" lon="13.243370012569722"><ele>350.0</ele><time>2026-04-04T13:30:20.999Z</time></trkpt><trkpt lat="46.39321199199134" lon="13.243058822112403"><ele>345.0</ele><time>2026-04-04T13:30:21.999Z</time></trkpt><trkpt lat="46.3930935567635" lon="13.242708567761934"><ele>340.0</ele><time>2026-04-04T13:30:22.999Z</time></trkpt><trkpt lat="46.392998144662414" lon="13.242341470001858"><ele>352.0</ele><time>2026-04-04T13:30:23.999Z</time></trkpt><trkpt lat="46.392918409345015" lon="13.241963948465832"><ele>364.0</ele><time>2026-04-04T13:30:24.999Z</time></trkpt><trkpt lat="46.392840622020344" lon="13.241578054867883"><ele>357.5</ele><time>2026-04-04T13:30:25.999Z</time></trkpt><trkpt lat="46.392757312488406" lon="13.24119969257839"><ele>351.0</ele><time>2026-04-04T13:30:26.999Z</time></trkpt><trkpt lat="46.39267755180692" lon="13.24083796679792"><ele>344.5</ele><time>2026-04-04T13:30:27.999Z</time></trkpt><trkpt lat="46.392603916644816" lon="13.240485260529097"><ele>338.0</ele><time>2026-04-04T13:30:28.999Z</time></trkpt><trkpt lat="46.39254416449237" lon="13.240135132246685"><ele>342.0</ele><time>2026-04-04T13:30:29.999Z</time></trkpt><trkpt lat="46.39251259786513" lon="13.2397705562713"><ele>346.0</ele><time>2026-04-04T13:30:30.999Z</time></trkpt><trkpt lat="46.392522510396496" lon="13.239399403822421"><ele>346.0</ele><time>2026-04-04T13:30:31.999Z</time></trkpt><trkpt lat="46.392515871272465" lon="13.23903815319496"><ele>346.0</ele><time>2026-04-04T13:30:32.999Z</time></trkpt><trkpt lat="46.3925094600416" lon="13.238689302827181"><ele>346.5</ele><time>2026-04-04T13:30:33.999Z</time></trkpt><trkpt lat="46.39250295958995" lon="13.238352436310484"><ele>347.0</ele><time>2026-04-04T13:30:34.999Z</time></trkpt><trkpt lat="46.39249825744477" lon="13.23803124095594"><ele>347.0</ele><time>2026-04-04T13:30:35.999Z</time></trkpt><trkpt lat="46.39249356588499" lon="13.237717494745635"><ele>347.0</ele><time>2026-04-04T13:30:36.999Z</time></trkpt><trkpt lat="46.39252391303916" lon="13.237404568231712"><ele>347.0</ele><time>2026-04-04T13:30:37.999Z</time></trkpt><trkpt lat="46.3925721533281" lon="13.237089559909172"><ele>346.6666666666667</ele><time>2026-04-04T13:30:38.999Z</time></trkpt><trkpt lat="46.39259240593421" lon="13.236768784927165"><ele>346.3333333333333</ele><time>2026-04-04T13:30:39.999Z</time></trkpt><trkpt lat="46.39259249428165" lon="13.236448142226372"><ele>346.0</ele><time>2026-04-04T13:30:40.999Z</time></trkpt><trkpt lat="46.392578420459984" lon="13.23612826437604"><ele>346.0</ele><time>2026-04-04T13:30:41.999Z</time></trkpt><trkpt lat="46.39255913619658" lon="13.235803421528962"><ele>346.0</ele><time>2026-04-04T13:30:42.999Z</time></trkpt><trkpt lat="46.39253892164325" lon="13.235481485686849"><ele>346.0</ele><time>2026-04-04T13:30:43.999Z</time></trkpt><trkpt lat="46.39253067976323" lon="13.235171135472507"><ele>344.66666666666663</ele><time>2026-04-04T13:30:44.999Z</time></trkpt><trkpt lat="46.39254003449215" lon="13.23486101609731"><ele>343.3333333333333</ele><time>2026-04-04T13:30:45.999Z</time></trkpt><trkpt lat="46.39257606885601" lon="13.234548986146455"><ele>342.0</ele><time>2026-04-04T13:30:46.999Z</time></trkpt><trkpt lat="46.39264127875312" lon="13.234246277914856"><ele>344.3333333333333</ele><time>2026-04-04T13:30:47.999Z</time></trkpt><trkpt lat="46.39272252558707" lon="13.23395851192241"><ele>346.66666666666663</ele><time>2026-04-04T13:30:48.999Z</time></trkpt><trkpt lat="46.39280353251377" lon="13.233694860881275"><ele>349.0</ele><time>2026-04-04T13:30:49.999Z</time></trkpt><trkpt lat="46.39287229078968" lon="13.233411008128531"><ele>348.66666666666663</ele><time>2026-04-04T13:30:50.999Z</time></trkpt><trkpt lat="46.39293938553836" lon="13.233120140941253"><ele>348.3333333333333</ele><time>2026-04-04T13:30:51.999Z</time></trkpt><trkpt lat="46.393004023620854" lon="13.232797950741412"><ele>348.0</ele><time>2026-04-04T13:30:52.999Z</time></trkpt><trkpt lat="46.393050986921004" lon="13.232424637207927"><ele>335.5</ele><time>2026-04-04T13:30:53.999Z</time></trkpt><trkpt lat="46.393097938782816" lon="13.232028686734127"><ele>323.0</ele><time>2026-04-04T13:30:54.999Z</time></trkpt><trkpt lat="46.39314515530562" lon="13.23164058327788"><ele>322.0</ele><time>2026-04-04T13:30:55.999Z</time></trkpt><trkpt lat="46.393190392809856" lon="13.231273434880933"><ele>321.0</ele><time>2026-04-04T13:30:56.999Z</time></trkpt><trkpt lat="46.393233497075606" lon="13.230913226914936"><ele>319.5</ele><time>2026-04-04T13:30:57.998Z</time></trkpt><trkpt lat="46.393275988894786" lon="13.230555300342845"><ele>318.0</ele><time>2026-04-04T13:30:58.998Z</time></trkpt><trkpt lat="46.39332161869538" lon="13.230189110114939"><ele>318.0</ele><time>2026-04-04T13:30:59.998Z</time></trkpt><trkpt lat="46.39337063356317" lon="13.229812376788422"><ele>318.0</ele><time>2026-04-04T13:31:00.998Z</time></trkpt><trkpt lat="46.39342165454285" lon="13.229426651848819"><ele>318.0</ele><time>2026-04-04T13:31:01.998Z</time></trkpt><trkpt lat="46.39347601329652" lon="13.229032239079006"><ele>318.0</ele><time>2026-04-04T13:31:02.998Z</time></trkpt><trkpt lat="46.39353277965384" lon="13.228634275272874"><ele>319.0</ele><time>2026-04-04T13:31:04Z</time></trkpt><trkpt lat="46.39358993035281" lon="13.22823872585326"><ele>320.0</ele><time>2026-04-04T13:31:05Z</time></trkpt><trkpt lat="46.39364779278782" lon="13.227844278846819"><ele>320.0</ele><time>2026-04-04T13:31:06Z</time></trkpt><trkpt lat="46.39370586407939" lon="13.227452465416338"><ele>320.0</ele><time>2026-04-04T13:31:07Z</time></trkpt><trkpt lat="46.39376416355082" lon="13.22706493646606"><ele>321.0</ele><time>2026-04-04T13:31:08Z</time></trkpt><trkpt lat="46.3938183880167" lon="13.226704494941469"><ele>322.0</ele><time>2026-04-04T13:31:09Z</time></trkpt><trkpt lat="46.39386580300675" lon="13.226371648090002"><ele>322.0</ele><time>2026-04-04T13:31:10Z</time></trkpt><trkpt lat="46.39383531689595" lon="13.226026677049472"><ele>322.0</ele><time>2026-04-04T13:31:11Z</time></trkpt><trkpt lat="46.393838332302266" lon="13.2257026196706"><ele>321.66666666666663</ele><time>2026-04-04T13:31:12Z</time></trkpt><trkpt lat="46.39382621603064" lon="13.22538524235476"><ele>321.3333333333333</ele><time>2026-04-04T13:31:13Z</time></trkpt><trkpt lat="46.393807732898914" lon="13.225071166506025"><ele>321.0</ele><time>2026-04-04T13:31:14Z</time></trkpt><trkpt lat="46.39379182020554" lon="13.224762768802023"><ele>320.3333333333333</ele><time>2026-04-04T13:31:15Z</time></trkpt><trkpt lat="46.39377387770681" lon="13.224459617332165"><ele>319.66666666666663</ele><time>2026-04-04T13:31:16.001Z</time></trkpt><trkpt lat="46.39375924901886" lon="13.224160539451361"><ele>319.0</ele><time>2026-04-04T13:31:17.001Z</time></trkpt><trkpt lat="46.3937455571265" lon="13.223871277784733"><ele>318.66666666666663</ele><time>2026-04-04T13:31:18.001Z</time></trkpt><trkpt lat="46.39373343764737" lon="13.22359788881339"><ele>318.3333333333333</ele><time>2026-04-04T13:31:19Z</time></trkpt><trkpt lat="46.39372323529932" lon="13.223334301410455"><ele>318.0</ele><time>2026-04-04T13:31:20Z</time></trkpt><trkpt lat="46.39371507231624" lon="13.223076598296235"><ele>317.6666666666667</ele><time>2026-04-04T13:31:21Z</time></trkpt><trkpt lat="46.39371311012079" lon="13.2228268630417"><ele>317.33333333333337</ele><time>2026-04-04T13:31:22Z</time></trkpt><trkpt lat="46.39371640499558" lon="13.222561527660137"><ele>317.0</ele><time>2026-04-04T13:31:23Z</time></trkpt><trkpt lat="46.393727591902504" lon="13.22229854741642"><ele>316.6666666666667</ele><time>2026-04-04T13:31:24Z</time></trkpt><trkpt lat="46.393744829307245" lon="13.22205152682269"><ele>316.3333333333333</ele><time>2026-04-04T13:31:25Z</time></trkpt><trkpt lat="46.393771208223065" lon="13.22180933375293"><ele>316.0</ele><time>2026-04-04T13:31:26Z</time></trkpt><trkpt lat="46.39380561260714" lon="13.221570690321071"><ele>316.66666666666663</ele><time>2026-04-04T13:31:27Z</time></trkpt><trkpt lat="46.39384351073499" lon="13.221329312270548"><ele>317.3333333333333</ele><time>2026-04-04T13:31:28Z</time></trkpt><trkpt lat="46.39387576949222" lon="13.22108178652334"><ele>318.0</ele><time>2026-04-04T13:31:29Z</time></trkpt><trkpt lat="46.39390808534542" lon="13.220837489940113"><ele>317.6666666666667</ele><time>2026-04-04T13:31:30Z</time></trkpt><trkpt lat="46.393941558799746" lon="13.220596542078548"><ele>317.33333333333337</ele><time>2026-04-04T13:31:31Z</time></trkpt><trkpt lat="46.39397683854271" lon="13.220352064686255"><ele>317.0</ele><time>2026-04-04T13:31:32Z</time></trkpt><trkpt lat="46.39401374078006" lon="13.22010881994052"><ele>317.0</ele><time>2026-04-04T13:31:33Z</time></trkpt><trkpt lat="46.394049887729736" lon="13.21986446980059"><ele>317.0</ele><time>2026-04-04T13:31:34Z</time></trkpt><trkpt lat="46.394086436819535" lon="13.219622961656402"><ele>317.0</ele><time>2026-04-04T13:31:35Z</time></trkpt><trkpt lat="46.39412312612498" lon="13.21938376182874"><ele>317.0</ele><time>2026-04-04T13:31:36Z</time></trkpt><trkpt lat="46.39415729904575" lon="13.219136287790183"><ele>317.0</ele><time>2026-04-04T13:31:37Z</time></trkpt><trkpt lat="46.39419364712083" lon="13.218886351818874"><ele>317.0</ele><time>2026-04-04T13:31:38Z</time></trkpt><trkpt lat="46.394232739885034" lon="13.218636465643973"><ele>317.0</ele><time>2026-04-04T13:31:39Z</time></trkpt><trkpt lat="46.3942709327454" lon="13.21837683967517"><ele>317.0</ele><time>2026-04-04T13:31:40Z</time></trkpt><trkpt lat="46.39431097481774" lon="13.218105164986381"><ele>317.0</ele><time>2026-04-04T13:31:41Z</time></trkpt><trkpt lat="46.39435309548927" lon="13.217824585965595"><ele>316.33333333333337</ele><time>2026-04-04T13:31:42Z</time></trkpt><trkpt lat="46.394398766250404" lon="13.21753722217494"><ele>315.6666666666667</ele><time>2026-04-04T13:31:43Z</time></trkpt><trkpt lat="46.39444330307718" lon="13.217243330654341"><ele>315.0</ele><time>2026-04-04T13:31:44Z</time></trkpt><trkpt lat="46.39448753216176" lon="13.216944337508831"><ele>315.0</ele><time>2026-04-04T13:31:45Z</time></trkpt><trkpt lat="46.39453460307585" lon="13.216642915585696"><ele>315.0</ele><time>2026-04-04T13:31:46Z</time></trkpt><trkpt lat="46.3945822261562" lon="13.21634321543009"><ele>315.0</ele><time>2026-04-04T13:31:47Z</time></trkpt><trkpt lat="46.394627708262604" lon="13.21604612283701"><ele>315.0</ele><time>2026-04-04T13:31:48Z</time></trkpt><trkpt lat="46.394668279878566" lon="13.215752605471764"><ele>315.0</ele><time>2026-04-04T13:31:49Z</time></trkpt><trkpt lat="46.39471041792159" lon="13.215460170991465"><ele>315.0</ele><time>2026-04-04T13:31:50Z</time></trkpt><trkpt lat="46.394754019125806" lon="13.215169406001023"><ele>315.0</ele><time>2026-04-04T13:31:51Z</time></trkpt><trkpt lat="46.394796926907986" lon="13.214879817860384"><ele>315.0</ele><time>2026-04-04T13:31:52Z</time></trkpt><trkpt lat="46.39484087564104" lon="13.214588363388794"><ele>315.0</ele><time>2026-04-04T13:31:53Z</time></trkpt><trkpt lat="46.394886813402216" lon="13.21429202371522"><ele>314.6666666666667</ele><time>2026-04-04T13:31:54Z</time></trkpt><trkpt lat="46.394933021290946" lon="13.213988561801198"><ele>314.33333333333337</ele><time>2026-04-04T13:31:55Z</time></trkpt><trkpt lat="46.3949770776733" lon="13.213674796187636"><ele>314.0</ele><time>2026-04-04T13:31:56Z</time></trkpt><trkpt lat="46.39502230253064" lon="13.213354610173115"><ele>313.5</ele><time>2026-04-04T13:31:57Z</time></trkpt><trkpt lat="46.395071203020635" lon="13.213029297140887"><ele>313.0</ele><time>2026-04-04T13:31:58Z</time></trkpt><trkpt lat="46.39512530616668" lon="13.212698013262214"><ele>313.0</ele><time>2026-04-04T13:31:59Z</time></trkpt><trkpt lat="46.39517921187659" lon="13.212358689049209"><ele>313.0</ele><time>2026-04-04T13:32:00Z</time></trkpt><trkpt lat="46.395231662804754" lon="13.212018897641366"><ele>314.0</ele><time>2026-04-04T13:32:01Z</time></trkpt><trkpt lat="46.39528092382254" lon="13.211677864939103"><ele>315.0</ele><time>2026-04-04T13:32:02Z</time></trkpt><trkpt lat="46.39532944254553" lon="13.21133683534089"><ele>316.0</ele><time>2026-04-04T13:32:03Z</time></trkpt><trkpt lat="46.39538049038676" lon="13.210995132297539"><ele>317.0</ele><time>2026-04-04T13:32:04Z</time></trkpt><trkpt lat="46.39542943823979" lon="13.210652492673702"><ele>319.0</ele><time>2026-04-04T13:32:05Z</time></trkpt><trkpt lat="46.39547222853746" lon="13.21030721377216"><ele>321.0</ele><time>2026-04-04T13:32:06Z</time></trkpt><trkpt lat="46.395500463762595" lon="13.209955783005725"><ele>313.0</ele><time>2026-04-04T13:32:07Z</time></trkpt><trkpt lat="46.395517780289886" lon="13.209598096259853"><ele>305.0</ele><time>2026-04-04T13:32:08Z</time></trkpt><trkpt lat="46.395537372648974" lon="13.209235154347637"><ele>304.5</ele><time>2026-04-04T13:32:09Z</time></trkpt><trkpt lat="46.395555398708304" lon="13.20886904847665"><ele>304.0</ele><time>2026-04-04T13:32:10Z</time></trkpt><trkpt lat="46.39556924739866" lon="13.208497951114422"><ele>304.0</ele><time>2026-04-04T13:32:11Z</time></trkpt><trkpt lat="46.39558369722304" lon="13.20812777419229"><ele>304.0</ele><time>2026-04-04T13:32:12Z</time></trkpt><trkpt lat="46.39559920493887" lon="13.207762600101095"><ele>304.0</ele><time>2026-04-04T13:32:13Z</time></trkpt><trkpt lat="46.3956141935272" lon="13.207400132557554"><ele>304.0</ele><time>2026-04-04T13:32:14Z</time></trkpt><trkpt lat="46.39562933966496" lon="13.20704925829811"><ele>304.0</ele><time>2026-04-04T13:32:15Z</time></trkpt><trkpt lat="46.395643991120274" lon="13.206710684882323"><ele>304.0</ele><time>2026-04-04T13:32:16Z</time></trkpt><trkpt lat="46.395658295272334" lon="13.20638535309641"><ele>305.0</ele><time>2026-04-04T13:32:17Z</time></trkpt><trkpt lat="46.3956711057004" lon="13.206060619800839"><ele>306.0</ele><time>2026-04-04T13:32:18Z</time></trkpt><trkpt lat="46.39568488573274" lon="13.205734970640046"><ele>307.0</ele><time>2026-04-04T13:32:19Z</time></trkpt><trkpt lat="46.395696833702374" lon="13.205405944175872"><ele>309.5</ele><time>2026-04-04T13:32:20Z</time></trkpt><trkpt lat="46.39570764293709" lon="13.205070868826342"><ele>312.0</ele><time>2026-04-04T13:32:21Z</time></trkpt><trkpt lat="46.39572240245271" lon="13.204732960116548"><ele>316.0</ele><time>2026-04-04T13:32:22Z</time></trkpt><trkpt lat="46.39574124909495" lon="13.204391640092764"><ele>320.0</ele><time>2026-04-04T13:32:23Z</time></trkpt><trkpt lat="46.39579183148113" lon="13.204054702348492"><ele>322.0</ele><time>2026-04-04T13:32:24Z</time></trkpt><trkpt lat="46.39584457019693" lon="13.203711833603014"><ele>324.0</ele><time>2026-04-04T13:32:25Z</time></trkpt><trkpt lat="46.39589335458798" lon="13.203364683663896"><ele>329.5</ele><time>2026-04-04T13:32:26Z</time></trkpt><trkpt lat="46.39596120179327" lon="13.203023929132437"><ele>335.0</ele><time>2026-04-04T13:32:27Z</time></trkpt><trkpt lat="46.39601692221487" lon="13.202678083080098"><ele>336.0</ele><time>2026-04-04T13:32:28Z</time></trkpt><trkpt lat="46.39607305898104" lon="13.20232917131025"><ele>337.0</ele><time>2026-04-04T13:32:29Z</time></trkpt><trkpt lat="46.39614449011867" lon="13.201984847987484"><ele>337.0</ele><time>2026-04-04T13:32:30Z</time></trkpt><trkpt lat="46.3962255278297" lon="13.201645190255034"><ele>337.0</ele><time>2026-04-04T13:32:31Z</time></trkpt><trkpt lat="46.39631509219286" lon="13.201312116611524"><ele>328.5</ele><time>2026-04-04T13:32:32Z</time></trkpt><trkpt lat="46.396401336941715" lon="13.200980555294828"><ele>320.0</ele><time>2026-04-04T13:32:33Z</time></trkpt><trkpt lat="46.39648587471952" lon="13.200644350922502"><ele>320.0</ele><time>2026-04-04T13:32:34Z</time></trkpt><trkpt lat="46.396546200745576" lon="13.20030629356634"><ele>320.0</ele><time>2026-04-04T13:32:35Z</time></trkpt><trkpt lat="46.3965886602395" lon="13.199968497470476"><ele>323.5</ele><time>2026-04-04T13:32:36Z</time></trkpt><trkpt lat="46.39663812987476" lon="13.199636723920996"><ele>327.0</ele><time>2026-04-04T13:32:37Z</time></trkpt><trkpt lat="46.39667340314154" lon="13.199308992202736"><ele>332.0</ele><time>2026-04-04T13:32:38Z</time></trkpt><trkpt lat="46.39670973739145" lon="13.19898317454462"><ele>337.0</ele><time>2026-04-04T13:32:39Z</time></trkpt><trkpt lat="46.3967323448137" lon="13.198654126162571"><ele>337.0</ele><time>2026-04-04T13:32:40Z</time></trkpt><trkpt lat="46.39676377066197" lon="13.198324333335513"><ele>337.0</ele><time>2026-04-04T13:32:41Z</time></trkpt><trkpt lat="46.39678655356451" lon="13.19799139681235"><ele>336.0</ele><time>2026-04-04T13:32:42Z</time></trkpt><trkpt lat="46.39680431765773" lon="13.197660525797836"><ele>335.0</ele><time>2026-04-04T13:32:43Z</time></trkpt><trkpt lat="46.39683950976175" lon="13.197329621545373"><ele>335.0</ele><time>2026-04-04T13:32:44Z</time></trkpt><trkpt lat="46.3968536220087" lon="13.196988838271666"><ele>335.0</ele><time>2026-04-04T13:32:45Z</time></trkpt><trkpt lat="46.39683855236308" lon="13.196648743336267"><ele>331.5</ele><time>2026-04-04T13:32:46Z</time></trkpt><trkpt lat="46.396853166683655" lon="13.196308004733591"><ele>328.0</ele><time>2026-04-04T13:32:47Z</time></trkpt><trkpt lat="46.39685135831737" lon="13.195978158326417"><ele>326.0</ele><time>2026-04-04T13:32:48Z</time></trkpt><trkpt lat="46.39684957792322" lon="13.195653413944099"><ele>324.0</ele><time>2026-04-04T13:32:49Z</time></trkpt><trkpt lat="46.39684795901764" lon="13.195315772929117"><ele>324.0</ele><time>2026-04-04T13:32:50Z</time></trkpt><trkpt lat="46.39684655011907" lon="13.19497137487917"><ele>324.0</ele><time>2026-04-04T13:32:51Z</time></trkpt><trkpt lat="46.39684494202368" lon="13.19463185607083"><ele>324.5</ele><time>2026-04-04T13:32:52Z</time></trkpt><trkpt lat="46.3968407989947" lon="13.194301545085938"><ele>325.0</ele><time>2026-04-04T13:32:53Z</time></trkpt><trkpt lat="46.39688355573851" lon="13.193972058003316"><ele>335.5</ele><time>2026-04-04T13:32:54Z</time></trkpt><trkpt lat="46.39695284620699" lon="13.193645827406693"><ele>346.0</ele><time>2026-04-04T13:32:55Z</time></trkpt><trkpt lat="46.397048547908014" lon="13.193330929434614"><ele>358.5</ele><time>2026-04-04T13:32:56Z</time></trkpt><trkpt lat="46.397156139799065" lon="13.193029218724933"><ele>371.0</ele><time>2026-04-04T13:32:57Z</time></trkpt><trkpt lat="46.39726295165055" lon="13.19273669102539"><ele>357.0</ele><time>2026-04-04T13:32:58Z</time></trkpt><trkpt lat="46.39736416195916" lon="13.1924619072515"><ele>343.0</ele><time>2026-04-04T13:32:59Z</time></trkpt><trkpt lat="46.39747854425992" lon="13.192198903622645"><ele>329.0</ele><time>2026-04-04T13:33:00Z</time></trkpt><trkpt lat="46.3976192788091" lon="13.191953107842066"><ele>329.0</ele><time>2026-04-04T13:33:01Z</time></trkpt><trkpt lat="46.39777916031603" lon="13.191738143700979"><ele>329.0</ele><time>2026-04-04T13:33:01.999Z</time></trkpt><trkpt lat="46.39795219029528" lon="13.191550242436982"><ele>329.0</ele><time>2026-04-04T13:33:02.999Z</time></trkpt><trkpt lat="46.39813071491939" lon="13.191360431002769"><ele>326.0</ele><time>2026-04-04T13:33:03.999Z</time></trkpt><trkpt lat="46.39829671491513" lon="13.191155757727376"><ele>323.0</ele><time>2026-04-04T13:33:04.999Z</time></trkpt><trkpt lat="46.398438590159756" lon="13.190935511960141"><ele>320.0</ele><time>2026-04-04T13:33:05.999Z</time></trkpt><trkpt lat="46.398559136812395" lon="13.19069949158944"><ele>328.6666666666667</ele><time>2026-04-04T13:33:06.999Z</time></trkpt><trkpt lat="46.398654043090794" lon="13.190434950710518"><ele>337.3333333333333</ele><time>2026-04-04T13:33:07.999Z</time></trkpt><trkpt lat="46.39872420794881" lon="13.190148916381174"><ele>346.0</ele><time>2026-04-04T13:33:09Z</time></trkpt><trkpt lat="46.39878264476396" lon="13.189857314596965"><ele>329.3333333333333</ele><time>2026-04-04T13:33:10Z</time></trkpt><trkpt lat="46.3988400074643" lon="13.189574976427204"><ele>312.6666666666667</ele><time>2026-04-04T13:33:11Z</time></trkpt><trkpt lat="46.398883158036895" lon="13.18929468725339"><ele>296.0</ele><time>2026-04-04T13:33:12Z</time></trkpt><trkpt lat="46.39891211294474" lon="13.189019154343624"><ele>294.6666666666667</ele><time>2026-04-04T13:33:13Z</time></trkpt><trkpt lat="46.39892620182969" lon="13.18874215930079"><ele>293.3333333333333</ele><time>2026-04-04T13:33:14Z</time></trkpt><trkpt lat="46.39895506059906" lon="13.188465003160147"><ele>292.0</ele><time>2026-04-04T13:33:15Z</time></trkpt><trkpt lat="46.39896590986071" lon="13.188185687360951"><ele>293.66666666666663</ele><time>2026-04-04T13:33:16Z</time></trkpt><trkpt lat="46.39896871550649" lon="13.187911469103051"><ele>295.3333333333333</ele><time>2026-04-04T13:33:17Z</time></trkpt><trkpt lat="46.3990060617982" lon="13.187654424414639"><ele>297.0</ele><time>2026-04-04T13:33:18Z</time></trkpt><trkpt lat="46.39906026395274" lon="13.187416649832558"><ele>305.0</ele><time>2026-04-04T13:33:19Z</time></trkpt><trkpt lat="46.399128285982464" lon="13.187188131744447"><ele>313.0</ele><time>2026-04-04T13:33:20Z</time></trkpt><trkpt lat="46.39920737991485" lon="13.186988300846648"><ele>321.0</ele><time>2026-04-04T13:33:21Z</time></trkpt><trkpt lat="46.39928807701859" lon="13.186814645985285"><ele>321.0</ele><time>2026-04-04T13:33:22Z</time></trkpt><trkpt lat="46.399367901329825" lon="13.186647351370056"><ele>321.0</ele><time>2026-04-04T13:33:23Z</time></trkpt><trkpt lat="46.399446812853554" lon="13.186475259114802"><ele>321.0</ele><time>2026-04-04T13:33:24Z</time></trkpt><trkpt lat="46.399520838922356" lon="13.186309880367446"><ele>321.0</ele><time>2026-04-04T13:33:25Z</time></trkpt><trkpt lat="46.3995857486597" lon="13.186150348869631"><ele>325.0</ele><time>2026-04-04T13:33:26Z</time></trkpt><trkpt lat="46.399639643395865" lon="13.18598393841139"><ele>329.0</ele><time>2026-04-04T13:33:27Z</time></trkpt><trkpt lat="46.399698140321355" lon="13.185817426274282"><ele>333.0</ele><time>2026-04-04T13:33:28Z</time></trkpt><trkpt lat="46.39973704689382" lon="13.185633916374895"><ele>337.0</ele><time>2026-04-04T13:33:29Z</time></trkpt><trkpt lat="46.399765779142406" lon="13.18544402550365"><ele>328.75</ele><time>2026-04-04T13:33:30Z</time></trkpt><trkpt lat="46.39978449005328" lon="13.185252633306424"><ele>320.5</ele><time>2026-04-04T13:33:31Z</time></trkpt><trkpt lat="46.399796029496585" lon="13.185057776478896"><ele>312.25</ele><time>2026-04-04T13:33:32Z</time></trkpt><trkpt lat="46.39978233714532" lon="13.184862564511862"><ele>304.0</ele><time>2026-04-04T13:33:33Z</time></trkpt><trkpt lat="46.399789494578144" lon="13.184664641536179"><ele>304.0</ele><time>2026-04-04T13:33:34Z</time></trkpt><trkpt lat="46.399767510790014" lon="13.184465337570385"><ele>304.0</ele><time>2026-04-04T13:33:35Z</time></trkpt><trkpt lat="46.399719561725504" lon="13.184275197984896"><ele>304.0</ele><time>2026-04-04T13:33:36Z</time></trkpt><trkpt lat="46.399701387882374" lon="13.184073679270211"><ele>304.0</ele><time>2026-04-04T13:33:37Z</time></trkpt><trkpt lat="46.39966684244193" lon="13.183875651827274"><ele>304.0</ele><time>2026-04-04T13:33:38Z</time></trkpt><trkpt lat="46.39956095404576" lon="13.183702060495582"><ele>304.0</ele><time>2026-04-04T13:33:39Z</time></trkpt><trkpt lat="46.39949840937996" lon="13.183502519044781"><ele>304.0</ele><time>2026-04-04T13:33:40Z</time></trkpt><trkpt lat="46.39943447912862" lon="13.183297318751062"><ele>301.3333333333333</ele><time>2026-04-04T13:33:41Z</time></trkpt><trkpt lat="46.39936964949118" lon="13.183090264715995"><ele>298.6666666666667</ele><time>2026-04-04T13:33:42Z</time></trkpt><trkpt lat="46.399302323585296" lon="13.18287855363595"><ele>296.0</ele><time>2026-04-04T13:33:43Z</time></trkpt><trkpt lat="46.399222319206274" lon="13.182650964785342"><ele>296.0</ele><time>2026-04-04T13:33:44Z</time></trkpt><trkpt lat="46.39913704699052" lon="13.18240077202525"><ele>296.0</ele><time>2026-04-04T13:33:45Z</time></trkpt><trkpt lat="46.399047571198544" lon="13.182141934451861"><ele>296.0</ele><time>2026-04-04T13:33:46Z</time></trkpt><trkpt lat="46.39895007095288" lon="13.181872755169767"><ele>296.0</ele><time>2026-04-04T13:33:47Z</time></trkpt><trkpt lat="46.39885271812209" lon="13.181581640502616"><ele>296.0</ele><time>2026-04-04T13:33:48Z</time></trkpt><trkpt lat="46.39875514365704" lon="13.181277581170788"><ele>294.5</ele><time>2026-04-04T13:33:49Z</time></trkpt><trkpt lat="46.398659010845584" lon="13.180967439695273"><ele>293.0</ele><time>2026-04-04T13:33:50Z</time></trkpt><trkpt lat="46.39856294995074" lon="13.180651746867984"><ele>293.0</ele><time>2026-04-04T13:33:51Z</time></trkpt><trkpt lat="46.39846271830427" lon="13.180334256517208"><ele>293.0</ele><time>2026-04-04T13:33:52Z</time></trkpt><trkpt lat="46.3983627517084" lon="13.1800249915628"><ele>292.5</ele><time>2026-04-04T13:33:53Z</time></trkpt><trkpt lat="46.39826636923626" lon="13.179720804444704"><ele>292.0</ele><time>2026-04-04T13:33:54Z</time></trkpt><trkpt lat="46.39817726529053" lon="13.17941622374623"><ele>292.0</ele><time>2026-04-04T13:33:55Z</time></trkpt><trkpt lat="46.39809203608725" lon="13.17911383723674"><ele>292.0</ele><time>2026-04-04T13:33:56Z</time></trkpt><trkpt lat="46.398011451087534" lon="13.17881199374942"><ele>292.0</ele><time>2026-04-04T13:33:57Z</time></trkpt><trkpt lat="46.397931566377125" lon="13.178516470523"><ele>294.66666666666663</ele><time>2026-04-04T13:33:58Z</time></trkpt><trkpt lat="46.39784962810146" lon="13.178221667484967"><ele>297.3333333333333</ele><time>2026-04-04T13:33:59Z</time></trkpt><trkpt lat="46.39776974006897" lon="13.177917984588303"><ele>300.0</ele><time>2026-04-04T13:34:00Z</time></trkpt><trkpt lat="46.39768612118904" lon="13.177614797373632"><ele>297.3333333333333</ele><time>2026-04-04T13:34:01Z</time></trkpt><trkpt lat="46.397607662399345" lon="13.177314201592898"><ele>294.66666666666663</ele><time>2026-04-04T13:34:02Z</time></trkpt><trkpt lat="46.39752718728002" lon="13.177008647789341"><ele>292.0</ele><time>2026-04-04T13:34:03Z</time></trkpt><trkpt lat="46.39744670378291" lon="13.176701939437443"><ele>289.0</ele><time>2026-04-04T13:34:04Z</time></trkpt><trkpt lat="46.39736702087197" lon="13.176395158132166"><ele>286.0</ele><time>2026-04-04T13:34:05Z</time></trkpt><trkpt lat="46.397289145719746" lon="13.176089387180046"><ele>286.0</ele><time>2026-04-04T13:34:06Z</time></trkpt><trkpt lat="46.3972091813564" lon="13.1757785134196"><ele>286.0</ele><time>2026-04-04T13:34:07Z</time></trkpt><trkpt lat="46.39712430152901" lon="13.17545728852256"><ele>289.5</ele><time>2026-04-04T13:34:08Z</time></trkpt><trkpt lat="46.397034334928" lon="13.175126653736939"><ele>293.0</ele><time>2026-04-04T13:34:09Z</time></trkpt><trkpt lat="46.39694126510368" lon="13.174786478796785"><ele>293.0</ele><time>2026-04-04T13:34:10Z</time></trkpt><trkpt lat="46.39684815750781" lon="13.174441216071415"><ele>293.0</ele><time>2026-04-04T13:34:11Z</time></trkpt><trkpt lat="46.39675695153655" lon="13.174090575732828"><ele>290.0</ele><time>2026-04-04T13:34:12Z</time></trkpt><trkpt lat="46.39666664774621" lon="13.173740346816196"><ele>287.0</ele><time>2026-04-04T13:34:13Z</time></trkpt><trkpt lat="46.396581048154125" lon="13.17340345403474"><ele>283.0</ele><time>2026-04-04T13:34:14Z</time></trkpt><trkpt lat="46.396500914547545" lon="13.173081518983127"><ele>279.0</ele><time>2026-04-04T13:34:15Z</time></trkpt><trkpt lat="46.39642122471844" lon="13.17276847114147"><ele>279.0</ele><time>2026-04-04T13:34:16Z</time></trkpt><trkpt lat="46.39634434587205" lon="13.172473203928899"><ele>279.0</ele><time>2026-04-04T13:34:17Z</time></trkpt><trkpt lat="46.396269099477955" lon="13.172189185210115"><ele>279.0</ele><time>2026-04-04T13:34:18Z</time></trkpt><trkpt lat="46.396198415192906" lon="13.171914697746685"><ele>282.6666666666667</ele><time>2026-04-04T13:34:19Z</time></trkpt><trkpt lat="46.39612468324904" lon="13.171646600166572"><ele>286.33333333333337</ele><time>2026-04-04T13:34:20Z</time></trkpt><trkpt lat="46.39604606436704" lon="13.171378424063311"><ele>290.0</ele><time>2026-04-04T13:34:21Z</time></trkpt><trkpt lat="46.39594827267084" lon="13.17110967107782"><ele>290.0</ele><time>2026-04-04T13:34:22Z</time></trkpt><trkpt lat="46.395829888114946" lon="13.170829429212233"><ele>290.0</ele><time>2026-04-04T13:34:23Z</time></trkpt><trkpt lat="46.395702238159096" lon="13.17053809173982"><ele>287.0</ele><time>2026-04-04T13:34:24Z</time></trkpt><trkpt lat="46.39556322895923" lon="13.170242738428488"><ele>284.0</ele><time>2026-04-04T13:34:25Z</time></trkpt><trkpt lat="46.39541616936637" lon="13.169943197766223"><ele>288.0</ele><time>2026-04-04T13:34:26Z</time></trkpt><trkpt lat="46.395269959811664" lon="13.169632024788472"><ele>292.0</ele><time>2026-04-04T13:34:27Z</time></trkpt><trkpt lat="46.39514962927277" lon="13.169287521699236"><ele>286.5</ele><time>2026-04-04T13:34:28Z</time></trkpt><trkpt lat="46.3950022020265" lon="13.168971969384014"><ele>281.0</ele><time>2026-04-04T13:34:29Z</time></trkpt><trkpt lat="46.39485992063859" lon="13.168667431250926"><ele>281.0</ele><time>2026-04-04T13:34:30Z</time></trkpt><trkpt lat="46.394723360262724" lon="13.168374613465755"><ele>281.0</ele><time>2026-04-04T13:34:31Z</time></trkpt><trkpt lat="46.39459240779121" lon="13.168097071960025"><ele>286.5</ele><time>2026-04-04T13:34:32Z</time></trkpt><trkpt lat="46.3944600200888" lon="13.167827925557791"><ele>292.0</ele><time>2026-04-04T13:34:33Z</time></trkpt><trkpt lat="46.39432120583863" lon="13.16757295127876"><ele>287.0</ele><time>2026-04-04T13:34:34Z</time></trkpt><trkpt lat="46.39417593591023" lon="13.16731440013505"><ele>282.0</ele><time>2026-04-04T13:34:35Z</time></trkpt><trkpt lat="46.394026422384705" lon="13.167053484371023"><ele>282.0</ele><time>2026-04-04T13:34:36Z</time></trkpt><trkpt lat="46.393875636413085" lon="13.166794379127246"><ele>282.0</ele><time>2026-04-04T13:34:37Z</time></trkpt><trkpt lat="46.393723482642415" lon="13.16653492997588"><ele>283.5</ele><time>2026-04-04T13:34:38Z</time></trkpt><trkpt lat="46.39356479223532" lon="13.166280038055437"><ele>285.0</ele><time>2026-04-04T13:34:39Z</time></trkpt><trkpt lat="46.39338974126068" lon="13.166040727573138"><ele>285.0</ele><time>2026-04-04T13:34:40Z</time></trkpt><trkpt lat="46.393209236432035" lon="13.165812555979182"><ele>285.0</ele><time>2026-04-04T13:34:41Z</time></trkpt><trkpt lat="46.39303159849362" lon="13.16558930827941"><ele>287.0</ele><time>2026-04-04T13:34:42Z</time></trkpt><trkpt lat="46.39285706365425" lon="13.165369960463051"><ele>289.0</ele><time>2026-04-04T13:34:43Z</time></trkpt><trkpt lat="46.39268666259291" lon="13.165156566533062"><ele>289.0</ele><time>2026-04-04T13:34:44Z</time></trkpt><trkpt lat="46.39251280497811" lon="13.16494009683165"><ele>289.0</ele><time>2026-04-04T13:34:45Z</time></trkpt><trkpt lat="46.392318346324835" lon="13.164704230628532"><ele>287.0</ele><time>2026-04-04T13:34:46Z</time></trkpt><trkpt lat="46.39208850636973" lon="13.164488209601592"><ele>285.0</ele><time>2026-04-04T13:34:47Z</time></trkpt><trkpt lat="46.39185285373984" lon="13.164256081418209"><ele>285.0</ele><time>2026-04-04T13:34:48Z</time></trkpt><trkpt lat="46.39160656711777" lon="13.164065195743467"><ele>285.0</ele><time>2026-04-04T13:34:49Z</time></trkpt><trkpt lat="46.391374545008" lon="13.163840216252607"><ele>285.0</ele><time>2026-04-04T13:34:50Z</time></trkpt><trkpt lat="46.39112745936288" lon="13.163631767855879"><ele>285.0</ele><time>2026-04-04T13:34:51Z</time></trkpt><trkpt lat="46.39086569433673" lon="13.163410796736175"><ele>285.0</ele><time>2026-04-04T13:34:52Z</time></trkpt><trkpt lat="46.39060113816979" lon="13.163186176871493"><ele>285.0</ele><time>2026-04-04T13:34:53Z</time></trkpt><trkpt lat="46.390339024782435" lon="13.162962301838517"><ele>285.0</ele><time>2026-04-04T13:34:54Z</time></trkpt><trkpt lat="46.3900774085196" lon="13.162738781067706"><ele>285.0</ele><time>2026-04-04T13:34:55Z</time></trkpt><trkpt lat="46.38982144512711" lon="13.162520090063714"><ele>283.5</ele><time>2026-04-04T13:34:56Z</time></trkpt><trkpt lat="46.389574061256084" lon="13.162308729210297"><ele>282.0</ele><time>2026-04-04T13:34:57Z</time></trkpt><trkpt lat="46.38932565014074" lon="13.162125405532104"><ele>282.0</ele><time>2026-04-04T13:34:58Z</time></trkpt><trkpt lat="46.3890915011784" lon="13.161920429515533"><ele>282.0</ele><time>2026-04-04T13:34:59Z</time></trkpt><trkpt lat="46.388864050219404" lon="13.161711420571542"><ele>281.5</ele><time>2026-04-04T13:35:00Z</time></trkpt><trkpt lat="46.38864744949069" lon="13.161485799673889"><ele>281.0</ele><time>2026-04-04T13:35:01Z</time></trkpt><trkpt lat="46.38844609943411" lon="13.16123896215087"><ele>281.0</ele><time>2026-04-04T13:35:02Z</time></trkpt><trkpt lat="46.38825502242718" lon="13.160968746053989"><ele>281.0</ele><time>2026-04-04T13:35:03Z</time></trkpt><trkpt lat="46.388071474781555" lon="13.160687673989944"><ele>282.5</ele><time>2026-04-04T13:35:04Z</time></trkpt><trkpt lat="46.38789798574196" lon="13.160389228590542"><ele>284.0</ele><time>2026-04-04T13:35:05Z</time></trkpt><trkpt lat="46.38773912875278" lon="13.160073565750324"><ele>281.5</ele><time>2026-04-04T13:35:05.999Z</time></trkpt><trkpt lat="46.387596116771626" lon="13.159750406315641"><ele>279.0</ele><time>2026-04-04T13:35:06.999Z</time></trkpt><trkpt lat="46.38747251120764" lon="13.159424703068456"><ele>279.0</ele><time>2026-04-04T13:35:07.999Z</time></trkpt><trkpt lat="46.387358868739035" lon="13.159089802748587"><ele>279.0</ele><time>2026-04-04T13:35:08.999Z</time></trkpt><trkpt lat="46.38725586826756" lon="13.158744504490867"><ele>289.0</ele><time>2026-04-04T13:35:09.999Z</time></trkpt><trkpt lat="46.38717124514442" lon="13.158393089988431"><ele>299.0</ele><time>2026-04-04T13:35:10.999Z</time></trkpt><trkpt lat="46.38709856127242" lon="13.158039728965989"><ele>305.0</ele><time>2026-04-04T13:35:11.999Z</time></trkpt><trkpt lat="46.3870411874752" lon="13.1576793176762"><ele>311.0</ele><time>2026-04-04T13:35:12.999Z</time></trkpt><trkpt lat="46.3869810630948" lon="13.157327230338653"><ele>311.0</ele><time>2026-04-04T13:35:14Z</time></trkpt><trkpt lat="46.38698491957487" lon="13.15694598639222"><ele>311.0</ele><time>2026-04-04T13:35:15Z</time></trkpt><trkpt lat="46.38697437072393" lon="13.156576699098505"><ele>310.0</ele><time>2026-04-04T13:35:16Z</time></trkpt><trkpt lat="46.386969716338" lon="13.156202472224049"><ele>309.0</ele><time>2026-04-04T13:35:17Z</time></trkpt><trkpt lat="46.38696654048735" lon="13.155833369162204"><ele>307.0</ele><time>2026-04-04T13:35:18Z</time></trkpt><trkpt lat="46.386973868662864" lon="13.155470657569234"><ele>305.0</ele><time>2026-04-04T13:35:19Z</time></trkpt><trkpt lat="46.38699539823529" lon="13.15512120398927"><ele>314.5</ele><time>2026-04-04T13:35:20Z</time></trkpt><trkpt lat="46.38702371643804" lon="13.154781326754367"><ele>324.0</ele><time>2026-04-04T13:35:21Z</time></trkpt><trkpt lat="46.387056656875075" lon="13.154443185594774"><ele>324.0</ele><time>2026-04-04T13:35:22Z</time></trkpt><trkpt lat="46.387082645568626" lon="13.15412538709479"><ele>324.0</ele><time>2026-04-04T13:35:23Z</time></trkpt><trkpt lat="46.3871069861047" lon="13.153831722619927"><ele>324.0</ele><time>2026-04-04T13:35:24Z</time></trkpt><trkpt lat="46.387129571588304" lon="13.153555769652481"><ele>327.0</ele><time>2026-04-04T13:35:25Z</time></trkpt><trkpt lat="46.387149334639986" lon="13.153299993563182"><ele>330.0</ele><time>2026-04-04T13:35:26Z</time></trkpt><trkpt lat="46.38716684060429" lon="13.153044442712577"><ele>333.0</ele><time>2026-04-04T13:35:27Z</time></trkpt><trkpt lat="46.387173826386714" lon="13.152777052345092"><ele>333.0</ele><time>2026-04-04T13:35:28Z</time></trkpt><trkpt lat="46.38716383450756" lon="13.15250570852609"><ele>333.0</ele><time>2026-04-04T13:35:29Z</time></trkpt><trkpt lat="46.38714721853878" lon="13.152226872369255"><ele>333.0</ele><time>2026-04-04T13:35:30Z</time></trkpt><trkpt lat="46.38712894426552" lon="13.15195026398653"><ele>323.3333333333333</ele><time>2026-04-04T13:35:31Z</time></trkpt><trkpt lat="46.3871090395222" lon="13.151668803115694"><ele>313.66666666666663</ele><time>2026-04-04T13:35:32Z</time></trkpt><trkpt lat="46.38708096421368" lon="13.151376709897285"><ele>304.0</ele><time>2026-04-04T13:35:33Z</time></trkpt><trkpt lat="46.38705139255991" lon="13.151081366731434"><ele>304.0</ele><time>2026-04-04T13:35:34Z</time></trkpt><trkpt lat="46.38701904125347" lon="13.150794788740392"><ele>304.0</ele><time>2026-04-04T13:35:35Z</time></trkpt><trkpt lat="46.38700419002718" lon="13.150507420042546"><ele>304.0</ele><time>2026-04-04T13:35:36Z</time></trkpt><trkpt lat="46.387009329166645" lon="13.150199751881056"><ele>307.0</ele><time>2026-04-04T13:35:37Z</time></trkpt><trkpt lat="46.38703414354417" lon="13.14987401372205"><ele>310.0</ele><time>2026-04-04T13:35:38Z</time></trkpt><trkpt lat="46.38707451756731" lon="13.149543084862911"><ele>310.0</ele><time>2026-04-04T13:35:39Z</time></trkpt><trkpt lat="46.38711363736209" lon="13.149232676417746"><ele>310.0</ele><time>2026-04-04T13:35:40Z</time></trkpt><trkpt lat="46.38714817599353" lon="13.14893723893389"><ele>310.0</ele><time>2026-04-04T13:35:41Z</time></trkpt><trkpt lat="46.38718998297576" lon="13.148655135566543"><ele>297.0</ele><time>2026-04-04T13:35:42Z</time></trkpt><trkpt lat="46.38723465535244" lon="13.148379276321927"><ele>284.0</ele><time>2026-04-04T13:35:43Z</time></trkpt><trkpt lat="46.38726852348664" lon="13.148104528439921"><ele>271.0</ele><time>2026-04-04T13:35:44Z</time></trkpt><trkpt lat="46.38729111667941" lon="13.147819744334706"><ele>271.0</ele><time>2026-04-04T13:35:45Z</time></trkpt><trkpt lat="46.38730520298768" lon="13.147511781545203"><ele>271.0</ele><time>2026-04-04T13:35:46Z</time></trkpt><trkpt lat="46.38732346988893" lon="13.147178989041183"><ele>271.0</ele><time>2026-04-04T13:35:47Z</time></trkpt><trkpt lat="46.38735214332585" lon="13.14682637487495"><ele>274.0</ele><time>2026-04-04T13:35:48Z</time></trkpt><trkpt lat="46.38739051209547" lon="13.146464335742177"><ele>277.0</ele><time>2026-04-04T13:35:49Z</time></trkpt><trkpt lat="46.387425799589046" lon="13.146090204345398"><ele>281.0</ele><time>2026-04-04T13:35:50Z</time></trkpt><trkpt lat="46.387457504321375" lon="13.145708147626875"><ele>285.0</ele><time>2026-04-04T13:35:51Z</time></trkpt><trkpt lat="46.38748488951976" lon="13.145323304831326"><ele>285.0</ele><time>2026-04-04T13:35:52Z</time></trkpt><trkpt lat="46.38750848748915" lon="13.1449381627054"><ele>285.0</ele><time>2026-04-04T13:35:53Z</time></trkpt><trkpt lat="46.38752061067276" lon="13.14455323919599"><ele>286.5</ele><time>2026-04-04T13:35:54Z</time></trkpt><trkpt lat="46.387509435112754" lon="13.144170688775054"><ele>288.0</ele><time>2026-04-04T13:35:55Z</time></trkpt><trkpt lat="46.38748775325209" lon="13.143788127735997"><ele>280.5</ele><time>2026-04-04T13:35:56Z</time></trkpt><trkpt lat="46.38747332473469" lon="13.14340523424428"><ele>273.0</ele><time>2026-04-04T13:35:57Z</time></trkpt><trkpt lat="46.38747162063234" lon="13.143020426100835"><ele>272.0</ele><time>2026-04-04T13:35:58Z</time></trkpt><trkpt lat="46.38746494023749" lon="13.142642821469554"><ele>271.0</ele><time>2026-04-04T13:35:59Z</time></trkpt><trkpt lat="46.38745552200132" lon="13.142268462212426"><ele>271.0</ele><time>2026-04-04T13:36:00Z</time></trkpt><trkpt lat="46.38744182556248" lon="13.141907965965553"><ele>271.0</ele><time>2026-04-04T13:36:01Z</time></trkpt><trkpt lat="46.38742030164947" lon="13.141562047498516"><ele>268.5</ele><time>2026-04-04T13:36:02Z</time></trkpt><trkpt lat="46.38737643119535" lon="13.141232064289534"><ele>266.0</ele><time>2026-04-04T13:36:03Z</time></trkpt><trkpt lat="46.387305240087734" lon="13.140908576183154"><ele>266.5</ele><time>2026-04-04T13:36:04Z</time></trkpt><trkpt lat="46.38720583995673" lon="13.140592166589888"><ele>267.0</ele><time>2026-04-04T13:36:05Z</time></trkpt><trkpt lat="46.387088025417576" lon="13.140282671369281"><ele>268.0</ele><time>2026-04-04T13:36:06Z</time></trkpt><trkpt lat="46.38694911892431" lon="13.139981948345024"><ele>269.0</ele><time>2026-04-04T13:36:07Z</time></trkpt><trkpt lat="46.38678409298429" lon="13.13970650102238"><ele>269.0</ele><time>2026-04-04T13:36:08Z</time></trkpt><trkpt lat="46.38659240115076" lon="13.1394578234662"><ele>269.0</ele><time>2026-04-04T13:36:09Z</time></trkpt><trkpt lat="46.38638702646429" lon="13.139220905847159"><ele>268.0</ele><time>2026-04-04T13:36:10Z</time></trkpt><trkpt lat="46.38617383165818" lon="13.138989432852958"><ele>267.0</ele><time>2026-04-04T13:36:11Z</time></trkpt><trkpt lat="46.38596032094507" lon="13.138754082170868"><ele>267.0</ele><time>2026-04-04T13:36:12Z</time></trkpt><trkpt lat="46.38575581632389" lon="13.138520964099966"><ele>267.0</ele><time>2026-04-04T13:36:13Z</time></trkpt><trkpt lat="46.38555499290969" lon="13.138295723270328"><ele>267.0</ele><time>2026-04-04T13:36:14Z</time></trkpt><trkpt lat="46.38535811200772" lon="13.138078713055162"><ele>267.0</ele><time>2026-04-04T13:36:15Z</time></trkpt><trkpt lat="46.38516791876991" lon="13.137869058353091"><ele>267.0</ele><time>2026-04-04T13:36:16Z</time></trkpt><trkpt lat="46.384982891046825" lon="13.13766633514868"><ele>267.0</ele><time>2026-04-04T13:36:17Z</time></trkpt><trkpt lat="46.38479837349304" lon="13.1374590095306"><ele>267.0</ele><time>2026-04-04T13:36:18Z</time></trkpt><trkpt lat="46.38461340837616" lon="13.137255121477066"><ele>267.0</ele><time>2026-04-04T13:36:19Z</time></trkpt><trkpt lat="46.3844301187324" lon="13.13705413586555"><ele>267.0</ele><time>2026-04-04T13:36:20Z</time></trkpt><trkpt lat="46.38425102470449" lon="13.136851109589504"><ele>267.0</ele><time>2026-04-04T13:36:21Z</time></trkpt><trkpt lat="46.38407526992883" lon="13.136653168520269"><ele>267.3333333333333</ele><time>2026-04-04T13:36:22Z</time></trkpt><trkpt lat="46.38390384546741" lon="13.136454815063267"><ele>267.66666666666663</ele><time>2026-04-04T13:36:23Z</time></trkpt><trkpt lat="46.38373536455297" lon="13.136252424686356"><ele>268.0</ele><time>2026-04-04T13:36:24Z</time></trkpt><trkpt lat="46.3835693225008" lon="13.136057624054168"><ele>268.0</ele><time>2026-04-04T13:36:25Z</time></trkpt><trkpt lat="46.3834067862106" lon="13.135868204845893"><ele>268.0</ele><time>2026-04-04T13:36:26Z</time></trkpt><trkpt lat="46.38323853774339" lon="13.135674085049278"><ele>268.0</ele><time>2026-04-04T13:36:27Z</time></trkpt><trkpt lat="46.383081002989336" lon="13.135450232385121"><ele>266.66666666666663</ele><time>2026-04-04T13:36:28Z</time></trkpt><trkpt lat="46.38291372359952" lon="13.135242005316622"><ele>265.3333333333333</ele><time>2026-04-04T13:36:29Z</time></trkpt><trkpt lat="46.3827465252456" lon="13.13503249437409"><ele>264.0</ele><time>2026-04-04T13:36:30Z</time></trkpt><trkpt lat="46.38257204498739" lon="13.134830299503518"><ele>264.0</ele><time>2026-04-04T13:36:31Z</time></trkpt><trkpt lat="46.38241007269218" lon="13.134619064496771"><ele>264.0</ele><time>2026-04-04T13:36:32Z</time></trkpt><trkpt lat="46.38225002711038" lon="13.134405920783825"><ele>264.0</ele><time>2026-04-04T13:36:33Z</time></trkpt><trkpt lat="46.382088463088756" lon="13.13419239326396"><ele>263.3333333333333</ele><time>2026-04-04T13:36:34Z</time></trkpt><trkpt lat="46.38192755245952" lon="13.133980115149518"><ele>262.66666666666663</ele><time>2026-04-04T13:36:35Z</time></trkpt><trkpt lat="46.3817708697868" lon="13.133772089610979"><ele>262.0</ele><time>2026-04-04T13:36:36Z</time></trkpt><trkpt lat="46.38161854713736" lon="13.133575598357446"><ele>262.0</ele><time>2026-04-04T13:36:37Z</time></trkpt><trkpt lat="46.381468984527025" lon="13.133395508960358"><ele>262.0</ele><time>2026-04-04T13:36:38Z</time></trkpt><trkpt lat="46.3813117895728" lon="13.133234406659925"><ele>262.0</ele><time>2026-04-04T13:36:39Z</time></trkpt><trkpt lat="46.38114392836949" lon="13.133093843114908"><ele>263.0</ele><time>2026-04-04T13:36:40Z</time></trkpt><trkpt lat="46.38098079935109" lon="13.132944561411128"><ele>264.0</ele><time>2026-04-04T13:36:41Z</time></trkpt><trkpt lat="46.380809013379334" lon="13.132817328864085"><ele>265.0</ele><time>2026-04-04T13:36:42Z</time></trkpt><trkpt lat="46.380591435067714" lon="13.132840971539816"><ele>264.66666666666663</ele><time>2026-04-04T13:36:43Z</time></trkpt><trkpt lat="46.38039681813053" lon="13.13283074950997"><ele>264.3333333333333</ele><time>2026-04-04T13:36:44Z</time></trkpt><trkpt lat="46.380201105429116" lon="13.132855065623438"><ele>264.0</ele><time>2026-04-04T13:36:45Z</time></trkpt><trkpt lat="46.380008860112994" lon="13.13291739511272"><ele>264.0</ele><time>2026-04-04T13:36:46Z</time></trkpt><trkpt lat="46.37982380547229" lon="13.133026384291847"><ele>264.0</ele><time>2026-04-04T13:36:47Z</time></trkpt><trkpt lat="46.37964379818104" lon="13.133165851165677"><ele>264.0</ele><time>2026-04-04T13:36:48Z</time></trkpt><trkpt lat="46.379464293437344" lon="13.133302638957982"><ele>263.3333333333333</ele><time>2026-04-04T13:36:49Z</time></trkpt><trkpt lat="46.37928637886832" lon="13.133436794315342"><ele>262.66666666666663</ele><time>2026-04-04T13:36:50Z</time></trkpt><trkpt lat="46.37911372295092" lon="13.133569803441413"><ele>262.0</ele><time>2026-04-04T13:36:51Z</time></trkpt><trkpt lat="46.37894589799213" lon="13.13371098751458"><ele>262.0</ele><time>2026-04-04T13:36:52Z</time></trkpt><trkpt lat="46.37879025722121" lon="13.133881214491673"><ele>262.0</ele><time>2026-04-04T13:36:53Z</time></trkpt><trkpt lat="46.3786494914762" lon="13.134074587727131"><ele>262.0</ele><time>2026-04-04T13:36:54Z</time></trkpt><trkpt lat="46.37852125702428" lon="13.134286556016756"><ele>262.0</ele><time>2026-04-04T13:36:55Z</time></trkpt><trkpt lat="46.37840172387338" lon="13.134513979316282"><ele>262.0</ele><time>2026-04-04T13:36:56Z</time></trkpt><trkpt lat="46.378295013948005" lon="13.134765793497081"><ele>262.0</ele><time>2026-04-04T13:36:57Z</time></trkpt><trkpt lat="46.3781943265799" lon="13.135029777178763"><ele>262.0</ele><time>2026-04-04T13:36:58Z</time></trkpt><trkpt lat="46.3780905668558" lon="13.13529361825798"><ele>262.0</ele><time>2026-04-04T13:36:59Z</time></trkpt><trkpt lat="46.37798084532974" lon="13.135552502592288"><ele>262.0</ele><time>2026-04-04T13:37:00Z</time></trkpt><trkpt lat="46.37785682976592" lon="13.135800665944663"><ele>263.0</ele><time>2026-04-04T13:37:01Z</time></trkpt><trkpt lat="46.37771764312231" lon="13.136030792786553"><ele>264.0</ele><time>2026-04-04T13:37:02Z</time></trkpt><trkpt lat="46.3775629350133" lon="13.13624203582497"><ele>265.0</ele><time>2026-04-04T13:37:03Z</time></trkpt><trkpt lat="46.37739159029611" lon="13.136430300620878"><ele>265.0</ele><time>2026-04-04T13:37:04Z</time></trkpt><trkpt lat="46.37721092436319" lon="13.136603832454167"><ele>265.0</ele><time>2026-04-04T13:37:05Z</time></trkpt><trkpt lat="46.377027186636475" lon="13.136765724963096"><ele>265.0</ele><time>2026-04-04T13:37:05.999Z</time></trkpt><trkpt lat="46.376833450768785" lon="13.13689127528248"><ele>265.0</ele><time>2026-04-04T13:37:06.999Z</time></trkpt><trkpt lat="46.37662955591504" lon="13.136971395928398"><ele>265.0</ele><time>2026-04-04T13:37:07.999Z</time></trkpt><trkpt lat="46.376414420034486" lon="13.137002511578048"><ele>265.0</ele><time>2026-04-04T13:37:08.999Z</time></trkpt><trkpt lat="46.376196695191524" lon="13.137000705851941"><ele>264.0</ele><time>2026-04-04T13:37:09.999Z</time></trkpt><trkpt lat="46.37597645767593" lon="13.136966420428807"><ele>263.0</ele><time>2026-04-04T13:37:10.999Z</time></trkpt><trkpt lat="46.37575620778656" lon="13.13689292263732"><ele>262.0</ele><time>2026-04-04T13:37:11.999Z</time></trkpt><trkpt lat="46.37553526145326" lon="13.13678064542963"><ele>265.5</ele><time>2026-04-04T13:37:12.999Z</time></trkpt><trkpt lat="46.3753071441781" lon="13.13667109837762"><ele>269.0</ele><time>2026-04-04T13:37:13.999Z</time></trkpt><trkpt lat="46.375079559066435" lon="13.136565023446705"><ele>264.5</ele><time>2026-04-04T13:37:14.999Z</time></trkpt><trkpt lat="46.37485069565615" lon="13.136461289662755"><ele>260.0</ele><time>2026-04-04T13:37:15.999Z</time></trkpt><trkpt lat="46.37462038923733" lon="13.13636378651238"><ele>259.0</ele><time>2026-04-04T13:37:16.999Z</time></trkpt><trkpt lat="46.37439093812761" lon="13.13626960931564"><ele>258.0</ele><time>2026-04-04T13:37:17.999Z</time></trkpt><trkpt lat="46.37416172091996" lon="13.13618203275971"><ele>258.0</ele><time>2026-04-04T13:37:18.999Z</time></trkpt><trkpt lat="46.37393214685156" lon="13.136100655558376"><ele>258.0</ele><time>2026-04-04T13:37:20Z</time></trkpt><trkpt lat="46.373700172437786" lon="13.136031131045455"><ele>259.0</ele><time>2026-04-04T13:37:21Z</time></trkpt><trkpt lat="46.37347051620583" lon="13.135962498096386"><ele>260.0</ele><time>2026-04-04T13:37:22Z</time></trkpt><trkpt lat="46.37324041598614" lon="13.135901713415512"><ele>264.5</ele><time>2026-04-04T13:37:23Z</time></trkpt><trkpt lat="46.37301003590359" lon="13.135848048907802"><ele>269.0</ele><time>2026-04-04T13:37:24Z</time></trkpt><trkpt lat="46.372780785253234" lon="13.135800173751473"><ele>269.0</ele><time>2026-04-04T13:37:25Z</time></trkpt><trkpt lat="46.372552338191575" lon="13.135754882245047"><ele>269.0</ele><time>2026-04-04T13:37:26Z</time></trkpt><trkpt lat="46.37232498355114" lon="13.135714729883867"><ele>264.5</ele><time>2026-04-04T13:37:27Z</time></trkpt><trkpt lat="46.37209995081559" lon="13.135677560096203"><ele>260.0</ele><time>2026-04-04T13:37:28Z</time></trkpt><trkpt lat="46.37187689982448" lon="13.135648680609517"><ele>260.0</ele><time>2026-04-04T13:37:29Z</time></trkpt><trkpt lat="46.37165343839006" lon="13.135627269979993"><ele>260.0</ele><time>2026-04-04T13:37:30Z</time></trkpt><trkpt lat="46.37143021865899" lon="13.135609046622932"><ele>260.0</ele><time>2026-04-04T13:37:31Z</time></trkpt><trkpt lat="46.371208522876046" lon="13.135597737349416"><ele>260.0</ele><time>2026-04-04T13:37:32Z</time></trkpt><trkpt lat="46.37098548591323" lon="13.135593881018892"><ele>260.0</ele><time>2026-04-04T13:37:33Z</time></trkpt><trkpt lat="46.370760263801984" lon="13.135590701145878"><ele>260.0</ele><time>2026-04-04T13:37:34Z</time></trkpt><trkpt lat="46.370532819990316" lon="13.135586261931127"><ele>259.5</ele><time>2026-04-04T13:37:35Z</time></trkpt><trkpt lat="46.37030508996447" lon="13.13558027890017"><ele>259.0</ele><time>2026-04-04T13:37:36Z</time></trkpt><trkpt lat="46.370080201791474" lon="13.135570830668575"><ele>259.0</ele><time>2026-04-04T13:37:37Z</time></trkpt><trkpt lat="46.36985565849015" lon="13.13556322322382"><ele>259.0</ele><time>2026-04-04T13:37:38Z</time></trkpt><trkpt lat="46.36964109361623" lon="13.1355573259862"><ele>259.0</ele><time>2026-04-04T13:37:39Z</time></trkpt><trkpt lat="46.36944104430548" lon="13.13555111521411"><ele>257.3333333333333</ele><time>2026-04-04T13:37:40Z</time></trkpt><trkpt lat="46.36924724085873" lon="13.135540037177384"><ele>255.66666666666669</ele><time>2026-04-04T13:37:41Z</time></trkpt><trkpt lat="46.369053757024076" lon="13.135522574645904"><ele>254.0</ele><time>2026-04-04T13:37:42Z</time></trkpt><trkpt lat="46.36886513699125" lon="13.135500671961982"><ele>253.66666666666669</ele><time>2026-04-04T13:37:43Z</time></trkpt><trkpt lat="46.368675486936965" lon="13.135459352130233"><ele>253.33333333333331</ele><time>2026-04-04T13:37:44Z</time></trkpt><trkpt lat="46.36848547027557" lon="13.135404489094656"><ele>253.0</ele><time>2026-04-04T13:37:45Z</time></trkpt><trkpt lat="46.36829616304615" lon="13.135337387024821"><ele>253.0</ele><time>2026-04-04T13:37:46Z</time></trkpt><trkpt lat="46.36810381498441" lon="13.135260546707412"><ele>253.0</ele><time>2026-04-04T13:37:47Z</time></trkpt><trkpt lat="46.36791744800482" lon="13.135198399928267"><ele>253.0</ele><time>2026-04-04T13:37:48Z</time></trkpt><trkpt lat="46.36773629638595" lon="13.135138632395034"><ele>254.0</ele><time>2026-04-04T13:37:49Z</time></trkpt><trkpt lat="46.367559099510956" lon="13.135074187154942"><ele>255.0</ele><time>2026-04-04T13:37:50Z</time></trkpt><trkpt lat="46.36737526102579" lon="13.134997581851389"><ele>256.0</ele><time>2026-04-04T13:37:51Z</time></trkpt><trkpt lat="46.36718875930055" lon="13.13492796350229"><ele>254.0</ele><time>2026-04-04T13:37:52Z</time></trkpt><trkpt lat="46.36701685883321" lon="13.134862814874314"><ele>252.0</ele><time>2026-04-04T13:37:53Z</time></trkpt><trkpt lat="46.36685675166961" lon="13.134803320028926"><ele>250.0</ele><time>2026-04-04T13:37:54Z</time></trkpt><trkpt lat="46.366700266547625" lon="13.134751984694475"><ele>250.0</ele><time>2026-04-04T13:37:55Z</time></trkpt><trkpt lat="46.36654050445136" lon="13.134706591889554"><ele>250.0</ele><time>2026-04-04T13:37:56Z</time></trkpt><trkpt lat="46.36637512222736" lon="13.134665452905628"><ele>250.0</ele><time>2026-04-04T13:37:57Z</time></trkpt><trkpt lat="46.36620173376525" lon="13.13463840796254"><ele>249.66666666666666</ele><time>2026-04-04T13:37:58Z</time></trkpt><trkpt lat="46.36602243814423" lon="13.134636075159628"><ele>249.33333333333331</ele><time>2026-04-04T13:37:59Z</time></trkpt><trkpt lat="46.365845678640504" lon="13.134655818310417"><ele>249.0</ele><time>2026-04-04T13:38:00Z</time></trkpt><trkpt lat="46.36567253143178" lon="13.13469097669501"><ele>248.0</ele><time>2026-04-04T13:38:01Z</time></trkpt><trkpt lat="46.36549674808443" lon="13.134741757447507"><ele>247.0</ele><time>2026-04-04T13:38:02Z</time></trkpt><trkpt lat="46.36532006772784" lon="13.134814127130047"><ele>246.0</ele><time>2026-04-04T13:38:03Z</time></trkpt><trkpt lat="46.36513952231376" lon="13.134883253759028"><ele>246.33333333333331</ele><time>2026-04-04T13:38:04Z</time></trkpt><trkpt lat="46.364953623042375" lon="13.134948178759672"><ele>246.66666666666666</ele><time>2026-04-04T13:38:05Z</time></trkpt><trkpt lat="46.364767523281124" lon="13.135011870609116"><ele>247.0</ele><time>2026-04-04T13:38:06Z</time></trkpt><trkpt lat="46.36457908035744" lon="13.135073973917168"><ele>247.66666666666666</ele><time>2026-04-04T13:38:07Z</time></trkpt><trkpt lat="46.36439293203212" lon="13.135137686747983"><ele>248.33333333333331</ele><time>2026-04-04T13:38:08Z</time></trkpt><trkpt lat="46.3642087328978" lon="13.135203695846544"><ele>249.0</ele><time>2026-04-04T13:38:09Z</time></trkpt><trkpt lat="46.36402556868776" lon="13.135269712705286"><ele>247.33333333333331</ele><time>2026-04-04T13:38:10Z</time></trkpt><trkpt lat="46.36384078283174" lon="13.135337809819438"><ele>245.66666666666666</ele><time>2026-04-04T13:38:11Z</time></trkpt><trkpt lat="46.36365562218223" lon="13.135398490480041"><ele>244.0</ele><time>2026-04-04T13:38:12Z</time></trkpt><trkpt lat="46.363471547599886" lon="13.135460406556058"><ele>244.0</ele><time>2026-04-04T13:38:13Z</time></trkpt><trkpt lat="46.3632878946396" lon="13.135522732462384"><ele>244.0</ele><time>2026-04-04T13:38:14Z</time></trkpt><trkpt lat="46.36310506317782" lon="13.135582482936346"><ele>244.0</ele><time>2026-04-04T13:38:15Z</time></trkpt><trkpt lat="46.36292602354563" lon="13.135647761326455"><ele>244.33333333333331</ele><time>2026-04-04T13:38:16Z</time></trkpt><trkpt lat="46.36275007760024" lon="13.135717596519955"><ele>244.66666666666669</ele><time>2026-04-04T13:38:17Z</time></trkpt><trkpt lat="46.36257282351388" lon="13.13578113622258"><ele>245.0</ele><time>2026-04-04T13:38:18Z</time></trkpt><trkpt lat="46.36239850703007" lon="13.13583955801411"><ele>245.33333333333334</ele><time>2026-04-04T13:38:19Z</time></trkpt><trkpt lat="46.36221725109285" lon="13.1359014498354"><ele>245.66666666666669</ele><time>2026-04-04T13:38:20Z</time></trkpt><trkpt lat="46.362031452745256" lon="13.135967869799462"><ele>246.0</ele><time>2026-04-04T13:38:21Z</time></trkpt><trkpt lat="46.361843262672124" lon="13.136037876149384"><ele>245.0</ele><time>2026-04-04T13:38:22Z</time></trkpt><trkpt lat="46.36165127130333" lon="13.136110129858153"><ele>244.0</ele><time>2026-04-04T13:38:23Z</time></trkpt><trkpt lat="46.361453900860354" lon="13.136179079239524"><ele>243.0</ele><time>2026-04-04T13:38:24Z</time></trkpt><trkpt lat="46.36124958608078" lon="13.136248044835686"><ele>242.66666666666669</ele><time>2026-04-04T13:38:25Z</time></trkpt><trkpt lat="46.361041848712325" lon="13.136327341560047"><ele>242.33333333333334</ele><time>2026-04-04T13:38:26Z</time></trkpt><trkpt lat="46.36083092420984" lon="13.13641445653857"><ele>242.0</ele><time>2026-04-04T13:38:27Z</time></trkpt><trkpt lat="46.360610907943865" lon="13.136472015683616"><ele>242.5</ele><time>2026-04-04T13:38:28Z</time></trkpt><trkpt lat="46.360387545910086" lon="13.136551049754422"><ele>243.0</ele><time>2026-04-04T13:38:29Z</time></trkpt><trkpt lat="46.36016021558251" lon="13.136631487976079"><ele>243.0</ele><time>2026-04-04T13:38:30Z</time></trkpt><trkpt lat="46.359930706277964" lon="13.13671668925091"><ele>243.0</ele><time>2026-04-04T13:38:31Z</time></trkpt><trkpt lat="46.35970688283673" lon="13.136822397648992"><ele>242.5</ele><time>2026-04-04T13:38:32Z</time></trkpt><trkpt lat="46.35948299329549" lon="13.136912195008001"><ele>242.0</ele><time>2026-04-04T13:38:33Z</time></trkpt><trkpt lat="46.3592618049082" lon="13.137005716804415"><ele>242.0</ele><time>2026-04-04T13:38:34Z</time></trkpt><trkpt lat="46.35904374038443" lon="13.137101372831165"><ele>242.0</ele><time>2026-04-04T13:38:35Z</time></trkpt><trkpt lat="46.35882731262434" lon="13.137191573781442"><ele>242.0</ele><time>2026-04-04T13:38:36Z</time></trkpt><trkpt lat="46.35861128908729" lon="13.137284788641768"><ele>242.0</ele><time>2026-04-04T13:38:37Z</time></trkpt><trkpt lat="46.3583964724944" lon="13.137382739380277"><ele>241.0</ele><time>2026-04-04T13:38:38Z</time></trkpt><trkpt lat="46.35818578646177" lon="13.137482954551956"><ele>240.0</ele><time>2026-04-04T13:38:39Z</time></trkpt><trkpt lat="46.35797411339514" lon="13.137580890407694"><ele>239.0</ele><time>2026-04-04T13:38:40Z</time></trkpt><trkpt lat="46.35776417737118" lon="13.137676653377637"><ele>239.0</ele><time>2026-04-04T13:38:41Z</time></trkpt><trkpt lat="46.35756026716853" lon="13.137775309096595"><ele>239.0</ele><time>2026-04-04T13:38:42Z</time></trkpt><trkpt lat="46.357359879913226" lon="13.137871219569154"><ele>239.0</ele><time>2026-04-04T13:38:43Z</time></trkpt><trkpt lat="46.357163557852424" lon="13.137956720908615"><ele>239.0</ele><time>2026-04-04T13:38:44Z</time></trkpt><trkpt lat="46.3569732567499" lon="13.13804677285934"><ele>239.0</ele><time>2026-04-04T13:38:45Z</time></trkpt><trkpt lat="46.3567884054459" lon="13.138136037901695"><ele>239.0</ele><time>2026-04-04T13:38:46Z</time></trkpt><trkpt lat="46.35660637843729" lon="13.13822022872845"><ele>239.66666666666669</ele><time>2026-04-04T13:38:47Z</time></trkpt><trkpt lat="46.35642235450057" lon="13.138308351058718"><ele>240.33333333333331</ele><time>2026-04-04T13:38:48Z</time></trkpt><trkpt lat="46.35623781594571" lon="13.13840004861804"><ele>241.0</ele><time>2026-04-04T13:38:49Z</time></trkpt><trkpt lat="46.356045658648874" lon="13.138490965013448"><ele>241.33333333333331</ele><time>2026-04-04T13:38:50Z</time></trkpt><trkpt lat="46.35584545544871" lon="13.138586754388738"><ele>241.66666666666669</ele><time>2026-04-04T13:38:51Z</time></trkpt><trkpt lat="46.35563378835299" lon="13.138686200606445"><ele>242.0</ele><time>2026-04-04T13:38:52Z</time></trkpt><trkpt lat="46.35541133109225" lon="13.138789492909927"><ele>242.5</ele><time>2026-04-04T13:38:53Z</time></trkpt><trkpt lat="46.35518005976283" lon="13.138900666384256"><ele>243.0</ele><time>2026-04-04T13:38:54Z</time></trkpt><trkpt lat="46.35494494349011" lon="13.139025005679684"><ele>243.5</ele><time>2026-04-04T13:38:55Z</time></trkpt><trkpt lat="46.35471209161465" lon="13.139161440203099"><ele>244.0</ele><time>2026-04-04T13:38:56Z</time></trkpt><trkpt lat="46.354482829960574" lon="13.139303851817482"><ele>244.0</ele><time>2026-04-04T13:38:57Z</time></trkpt><trkpt lat="46.35425733410418" lon="13.13945398060651"><ele>244.0</ele><time>2026-04-04T13:38:58Z</time></trkpt><trkpt lat="46.35403469625734" lon="13.139603510042097"><ele>244.0</ele><time>2026-04-04T13:38:59Z</time></trkpt><trkpt lat="46.35381476705845" lon="13.13974780536822"><ele>244.0</ele><time>2026-04-04T13:39:00Z</time></trkpt><trkpt lat="46.353595935784604" lon="13.13988625529931"><ele>247.0</ele><time>2026-04-04T13:39:01Z</time></trkpt><trkpt lat="46.35338129316088" lon="13.140023736304613"><ele>250.0</ele><time>2026-04-04T13:39:02Z</time></trkpt><trkpt lat="46.353171834907215" lon="13.140162189263615"><ele>248.5</ele><time>2026-04-04T13:39:03Z</time></trkpt><trkpt lat="46.35296425740972" lon="13.140299821356265"><ele>247.0</ele><time>2026-04-04T13:39:04Z</time></trkpt><trkpt lat="46.3527580984321" lon="13.140436214631169"><ele>247.0</ele><time>2026-04-04T13:39:05Z</time></trkpt><trkpt lat="46.35255270474725" lon="13.140571323317324"><ele>247.0</ele><time>2026-04-04T13:39:06Z</time></trkpt><trkpt lat="46.352344106145175" lon="13.140705986808108"><ele>247.66666666666666</ele><time>2026-04-04T13:39:07Z</time></trkpt><trkpt lat="46.35214049014932" lon="13.140838454921012"><ele>248.33333333333331</ele><time>2026-04-04T13:39:08Z</time></trkpt><trkpt lat="46.35194317871278" lon="13.140967819906455"><ele>249.0</ele><time>2026-04-04T13:39:09Z</time></trkpt><trkpt lat="46.35174751142621" lon="13.141098601754361"><ele>249.0</ele><time>2026-04-04T13:39:09.999Z</time></trkpt><trkpt lat="46.351553222279726" lon="13.141228305085146"><ele>249.0</ele><time>2026-04-04T13:39:10.999Z</time></trkpt><trkpt lat="46.35135898200621" lon="13.141351900362036"><ele>249.0</ele><time>2026-04-04T13:39:11.999Z</time></trkpt><trkpt lat="46.351163299618" lon="13.141469999687448"><ele>249.66666666666669</ele><time>2026-04-04T13:39:12.999Z</time></trkpt><trkpt lat="46.350967838519345" lon="13.141580697302558"><ele>250.33333333333334</ele><time>2026-04-04T13:39:13.999Z</time></trkpt><trkpt lat="46.35077051801282" lon="13.14168783339473"><ele>251.0</ele><time>2026-04-04T13:39:14.999Z</time></trkpt><trkpt lat="46.35056973294693" lon="13.141792814044008"><ele>249.33333333333334</ele><time>2026-04-04T13:39:15.999Z</time></trkpt><trkpt lat="46.350367036173246" lon="13.141892259673464"><ele>247.66666666666669</ele><time>2026-04-04T13:39:16.999Z</time></trkpt><trkpt lat="46.3501623809383" lon="13.141988046030916"><ele>246.0</ele><time>2026-04-04T13:39:17.999Z</time></trkpt><trkpt lat="46.3499571895264" lon="13.142083771979152"><ele>246.0</ele><time>2026-04-04T13:39:18.999Z</time></trkpt><trkpt lat="46.34975429709716" lon="13.142177253283224"><ele>246.0</ele><time>2026-04-04T13:39:19.999Z</time></trkpt><trkpt lat="46.34955258442017" lon="13.142266811159319"><ele>246.0</ele><time>2026-04-04T13:39:20.999Z</time></trkpt><trkpt lat="46.34935124039536" lon="13.14234376477867"><ele>248.33333333333331</ele><time>2026-04-04T13:39:21.999Z</time></trkpt><trkpt lat="46.349142092638864" lon="13.142385698363048"><ele>250.66666666666666</ele><time>2026-04-04T13:39:22.999Z</time></trkpt><trkpt lat="46.34892604009207" lon="13.142384795790756"><ele>253.0</ele><time>2026-04-04T13:39:23.999Z</time></trkpt><trkpt lat="46.3487083785119" lon="13.142341139525897"><ele>245.0</ele><time>2026-04-04T13:39:24.999Z</time></trkpt><trkpt lat="46.348490040017126" lon="13.142265764937898"><ele>237.0</ele><time>2026-04-04T13:39:26Z</time></trkpt><trkpt lat="46.348273194539374" lon="13.142150650589118"><ele>237.0</ele><time>2026-04-04T13:39:27Z</time></trkpt><trkpt lat="46.34805785615026" lon="13.14202049380498"><ele>237.0</ele><time>2026-04-04T13:39:28Z</time></trkpt><trkpt lat="46.34784139449214" lon="13.141894069353173"><ele>236.5</ele><time>2026-04-04T13:39:29Z</time></trkpt><trkpt lat="46.347622924589956" lon="13.14176721690648"><ele>236.0</ele><time>2026-04-04T13:39:30Z</time></trkpt><trkpt lat="46.347405241078164" lon="13.141637585056351"><ele>235.5</ele><time>2026-04-04T13:39:31Z</time></trkpt><trkpt lat="46.347184656855376" lon="13.141512618198158"><ele>235.0</ele><time>2026-04-04T13:39:32Z</time></trkpt><trkpt lat="46.346965786721945" lon="13.141387054637548"><ele>235.0</ele><time>2026-04-04T13:39:33Z</time></trkpt><trkpt lat="46.346745753812485" lon="13.141262212827447"><ele>235.0</ele><time>2026-04-04T13:39:34Z</time></trkpt><trkpt lat="46.346526570588715" lon="13.141138987085187"><ele>236.0</ele><time>2026-04-04T13:39:35Z</time></trkpt><trkpt lat="46.34630906527336" lon="13.14101259784274"><ele>237.0</ele><time>2026-04-04T13:39:36Z</time></trkpt><trkpt lat="46.34609442375201" lon="13.14088529886029"><ele>237.0</ele><time>2026-04-04T13:39:37Z</time></trkpt><trkpt lat="46.345880829059325" lon="13.140764184067397"><ele>237.0</ele><time>2026-04-04T13:39:38Z</time></trkpt><trkpt lat="46.345668483907886" lon="13.140643198806114"><ele>236.0</ele><time>2026-04-04T13:39:39Z</time></trkpt><trkpt lat="46.345458183162975" lon="13.140522072829206"><ele>235.0</ele><time>2026-04-04T13:39:40Z</time></trkpt><trkpt lat="46.34524702467382" lon="13.140403446045715"><ele>235.0</ele><time>2026-04-04T13:39:41Z</time></trkpt><trkpt lat="46.34503648887213" lon="13.140283685897598"><ele>235.0</ele><time>2026-04-04T13:39:42Z</time></trkpt><trkpt lat="46.3448283143819" lon="13.140165736838188"><ele>235.0</ele><time>2026-04-04T13:39:43Z</time></trkpt><trkpt lat="46.34462327940639" lon="13.140047625299863"><ele>235.0</ele><time>2026-04-04T13:39:44Z</time></trkpt><trkpt lat="46.344415888157556" lon="13.139932077297189"><ele>235.0</ele><time>2026-04-04T13:39:45Z</time></trkpt><trkpt lat="46.34420790974828" lon="13.139823835816081"><ele>234.66666666666666</ele><time>2026-04-04T13:39:46Z</time></trkpt><trkpt lat="46.34399661254966" lon="13.139739311129302"><ele>234.33333333333331</ele><time>2026-04-04T13:39:47Z</time></trkpt><trkpt lat="46.34377972498158" lon="13.139683553571189"><ele>234.0</ele><time>2026-04-04T13:39:48Z</time></trkpt><trkpt lat="46.343561820198" lon="13.13965051461961"><ele>233.66666666666669</ele><time>2026-04-04T13:39:49Z</time></trkpt><trkpt lat="46.34334252784862" lon="13.13964483278159"><ele>233.33333333333334</ele><time>2026-04-04T13:39:50Z</time></trkpt><trkpt lat="46.34312354124682" lon="13.139651910615827"><ele>233.0</ele><time>2026-04-04T13:39:51Z</time></trkpt><trkpt lat="46.34290435760184" lon="13.139662867467644"><ele>233.0</ele><time>2026-04-04T13:39:52Z</time></trkpt><trkpt lat="46.34268599931798" lon="13.139671546289579"><ele>233.0</ele><time>2026-04-04T13:39:53Z</time></trkpt><trkpt lat="46.34246879757365" lon="13.13967754403185"><ele>233.0</ele><time>2026-04-04T13:39:54Z</time></trkpt><trkpt lat="46.34225028185664" lon="13.139681390209752"><ele>233.0</ele><time>2026-04-04T13:39:55Z</time></trkpt><trkpt lat="46.34203121617114" lon="13.139689570650544"><ele>233.0</ele><time>2026-04-04T13:39:56Z</time></trkpt><trkpt lat="46.341812052552214" lon="13.139703674921225"><ele>233.0</ele><time>2026-04-04T13:39:57Z</time></trkpt><trkpt lat="46.34159194832291" lon="13.1397213303999"><ele>233.0</ele><time>2026-04-04T13:39:58Z</time></trkpt><trkpt lat="46.34137195597298" lon="13.139729405586543"><ele>233.0</ele><time>2026-04-04T13:39:59Z</time></trkpt><trkpt lat="46.341150149792206" lon="13.139737286398205"><ele>233.0</ele><time>2026-04-04T13:40:00Z</time></trkpt><trkpt lat="46.34092830024251" lon="13.139746722203643"><ele>233.0</ele><time>2026-04-04T13:40:01Z</time></trkpt><trkpt lat="46.340707747859874" lon="13.13975339266781"><ele>233.0</ele><time>2026-04-04T13:40:02Z</time></trkpt><trkpt lat="46.34049034849304" lon="13.139761045247571"><ele>233.0</ele><time>2026-04-04T13:40:03Z</time></trkpt><trkpt lat="46.340272017683525" lon="13.139772258135661"><ele>233.0</ele><time>2026-04-04T13:40:04Z</time></trkpt><trkpt lat="46.340056047405135" lon="13.139780703168798"><ele>233.0</ele><time>2026-04-04T13:40:05Z</time></trkpt><trkpt lat="46.33984224295392" lon="13.139786327108453"><ele>233.0</ele><time>2026-04-04T13:40:06Z</time></trkpt><trkpt lat="46.339630046299455" lon="13.13979142609465"><ele>233.0</ele><time>2026-04-04T13:40:07Z</time></trkpt><trkpt lat="46.3394191995578" lon="13.139792282089493"><ele>233.0</ele><time>2026-04-04T13:40:08Z</time></trkpt><trkpt lat="46.33921241485664" lon="13.139787815633253"><ele>233.0</ele><time>2026-04-04T13:40:09Z</time></trkpt><trkpt lat="46.3390061582413" lon="13.139772817200456"><ele>233.0</ele><time>2026-04-04T13:40:10Z</time></trkpt><trkpt lat="46.33880259764414" lon="13.139739993823436"><ele>233.0</ele><time>2026-04-04T13:40:11Z</time></trkpt><trkpt lat="46.33860206368999" lon="13.139695665228881"><ele>233.0</ele><time>2026-04-04T13:40:12Z</time></trkpt><trkpt lat="46.338405358428986" lon="13.13964469942664"><ele>233.0</ele><time>2026-04-04T13:40:13Z</time></trkpt><trkpt lat="46.33821032036249" lon="13.139585844835374"><ele>233.0</ele><time>2026-04-04T13:40:14Z</time></trkpt><trkpt lat="46.3380204767408" lon="13.139510507115606"><ele>233.0</ele><time>2026-04-04T13:40:15Z</time></trkpt><trkpt lat="46.337834027699884" lon="13.13941832374218"><ele>232.33333333333334</ele><time>2026-04-04T13:40:16Z</time></trkpt><trkpt lat="46.33764842277347" lon="13.139313739581482"><ele>231.66666666666669</ele><time>2026-04-04T13:40:17Z</time></trkpt><trkpt lat="46.33746269574932" lon="13.139204277932516"><ele>231.0</ele><time>2026-04-04T13:40:18Z</time></trkpt><trkpt lat="46.33727506830531" lon="13.139094822204575"><ele>231.33333333333331</ele><time>2026-04-04T13:40:19Z</time></trkpt><trkpt lat="46.33708460910029" lon="13.13898585867077"><ele>231.66666666666666</ele><time>2026-04-04T13:40:20Z</time></trkpt><trkpt lat="46.33689297117488" lon="13.138876791254733"><ele>232.0</ele><time>2026-04-04T13:40:21Z</time></trkpt><trkpt lat="46.33669884942543" lon="13.138763435421412"><ele>232.0</ele><time>2026-04-04T13:40:22Z</time></trkpt><trkpt lat="46.33650346661414" lon="13.13865035590981"><ele>232.0</ele><time>2026-04-04T13:40:23Z</time></trkpt><trkpt lat="46.33630828917661" lon="13.138528435877026"><ele>232.0</ele><time>2026-04-04T13:40:24Z</time></trkpt><trkpt lat="46.336105371328316" lon="13.138407377017158"><ele>231.5</ele><time>2026-04-04T13:40:25Z</time></trkpt><trkpt lat="46.33589945897447" lon="13.138287606231549"><ele>231.0</ele><time>2026-04-04T13:40:26Z</time></trkpt><trkpt lat="46.33568939201465" lon="13.138159836182888"><ele>232.0</ele><time>2026-04-04T13:40:27Z</time></trkpt><trkpt lat="46.335476843753455" lon="13.1380311556034"><ele>233.0</ele><time>2026-04-04T13:40:28Z</time></trkpt><trkpt lat="46.335263559167" lon="13.137902569294207"><ele>233.0</ele><time>2026-04-04T13:40:29Z</time></trkpt><trkpt lat="46.33505553901517" lon="13.137775086424162"><ele>233.0</ele><time>2026-04-04T13:40:30Z</time></trkpt><trkpt lat="46.33485209645188" lon="13.137651855322996"><ele>233.0</ele><time>2026-04-04T13:40:31Z</time></trkpt><trkpt lat="46.3346584484641" lon="13.137535609651067"><ele>233.0</ele><time>2026-04-04T13:40:32Z</time></trkpt><trkpt lat="46.334481723328075" lon="13.137430047152066"><ele>233.0</ele><time>2026-04-04T13:40:33Z</time></trkpt><trkpt lat="46.334311275245135" lon="13.13733350155424"><ele>233.0</ele><time>2026-04-04T13:40:34Z</time></trkpt><trkpt lat="46.334151869128" lon="13.137263788872286"><ele>233.5</ele><time>2026-04-04T13:40:35Z</time></trkpt><trkpt lat="46.333999132796315" lon="13.137242058920211"><ele>234.0</ele><time>2026-04-04T13:40:36Z</time></trkpt><trkpt lat="46.33385490408779" lon="13.137271419599521"><ele>234.5</ele><time>2026-04-04T13:40:37Z</time></trkpt><trkpt lat="46.333710406512594" lon="13.137326619633088"><ele>235.0</ele><time>2026-04-04T13:40:38Z</time></trkpt><trkpt lat="46.333566988381484" lon="13.137408577022171"><ele>233.0</ele><time>2026-04-04T13:40:39Z</time></trkpt><trkpt lat="46.33342599752174" lon="13.137495903102016"><ele>231.0</ele><time>2026-04-04T13:40:40Z</time></trkpt><trkpt lat="46.333289472903395" lon="13.137584808691999"><ele>229.0</ele><time>2026-04-04T13:40:41Z</time></trkpt><trkpt lat="46.33315673981076" lon="13.137675379787424"><ele>229.33333333333331</ele><time>2026-04-04T13:40:42Z</time></trkpt><trkpt lat="46.33301973000622" lon="13.137761900210027"><ele>229.66666666666669</ele><time>2026-04-04T13:40:43Z</time></trkpt><trkpt lat="46.3328796374672" lon="13.137848234841021"><ele>230.0</ele><time>2026-04-04T13:40:44Z</time></trkpt><trkpt lat="46.332735728536264" lon="13.137948900998062"><ele>230.0</ele><time>2026-04-04T13:40:45Z</time></trkpt><trkpt lat="46.33258159705301" lon="13.138048251715414"><ele>230.0</ele><time>2026-04-04T13:40:46Z</time></trkpt><trkpt lat="46.33241674952403" lon="13.138122373054696"><ele>230.0</ele><time>2026-04-04T13:40:47Z</time></trkpt><trkpt lat="46.33225217744918" lon="13.138171356060994"><ele>229.66666666666669</ele><time>2026-04-04T13:40:48Z</time></trkpt><trkpt lat="46.33208604893525" lon="13.138173921579504"><ele>229.33333333333331</ele><time>2026-04-04T13:40:49Z</time></trkpt><trkpt lat="46.33191788787293" lon="13.138143623964968"><ele>229.0</ele><time>2026-04-04T13:40:50Z</time></trkpt><trkpt lat="46.33175081324764" lon="13.138073322158846"><ele>229.0</ele><time>2026-04-04T13:40:51Z</time></trkpt><trkpt lat="46.33159533143707" lon="13.137950323364784"><ele>229.0</ele><time>2026-04-04T13:40:52Z</time></trkpt><trkpt lat="46.33142558425181" lon="13.137851125062257"><ele>229.0</ele><time>2026-04-04T13:40:53Z</time></trkpt><trkpt lat="46.33126067683284" lon="13.137728322344138"><ele>228.66666666666666</ele><time>2026-04-04T13:40:54Z</time></trkpt><trkpt lat="46.33109707057174" lon="13.13761057024659"><ele>228.33333333333331</ele><time>2026-04-04T13:40:55Z</time></trkpt><trkpt lat="46.330937879574726" lon="13.137493516928794"><ele>228.0</ele><time>2026-04-04T13:40:56Z</time></trkpt><trkpt lat="46.330790056384686" lon="13.13738209037467"><ele>228.0</ele><time>2026-04-04T13:40:57Z</time></trkpt><trkpt lat="46.33064785331843" lon="13.137276628101105"><ele>228.0</ele><time>2026-04-04T13:40:58Z</time></trkpt><trkpt lat="46.3304980465722" lon="13.137142612916064"><ele>228.0</ele><time>2026-04-04T13:40:59Z</time></trkpt><trkpt lat="46.330327442578565" lon="13.137017106530154"><ele>227.33333333333331</ele><time>2026-04-04T13:41:00Z</time></trkpt><trkpt lat="46.330141722849085" lon="13.136880588019512"><ele>226.66666666666666</ele><time>2026-04-04T13:41:01Z</time></trkpt><trkpt lat="46.32994546953387" lon="13.136734676849807"><ele>226.0</ele><time>2026-04-04T13:41:02Z</time></trkpt><trkpt lat="46.32973994582895" lon="13.136601678554921"><ele>226.0</ele><time>2026-04-04T13:41:03Z</time></trkpt><trkpt lat="46.32954028348938" lon="13.136436971653167"><ele>226.0</ele><time>2026-04-04T13:41:04Z</time></trkpt><trkpt lat="46.32935106685561" lon="13.136270360742529"><ele>226.0</ele><time>2026-04-04T13:41:05Z</time></trkpt><trkpt lat="46.32917884326503" lon="13.136112935707484"><ele>226.0</ele><time>2026-04-04T13:41:06Z</time></trkpt><trkpt lat="46.32902645382351" lon="13.135966328520862"><ele>226.0</ele><time>2026-04-04T13:41:07Z</time></trkpt><trkpt lat="46.32888380900764" lon="13.13583634501968"><ele>225.66666666666666</ele><time>2026-04-04T13:41:08Z</time></trkpt><trkpt lat="46.32875058128199" lon="13.135711506098694"><ele>225.33333333333331</ele><time>2026-04-04T13:41:09Z</time></trkpt><trkpt lat="46.32861897034312" lon="13.13558746607061"><ele>225.0</ele><time>2026-04-04T13:41:10Z</time></trkpt><trkpt lat="46.32848435256599" lon="13.135464132488334"><ele>225.0</ele><time>2026-04-04T13:41:11Z</time></trkpt><trkpt lat="46.32834223644879" lon="13.135336552916431"><ele>225.0</ele><time>2026-04-04T13:41:12Z</time></trkpt><trkpt lat="46.328196640467475" lon="13.135201379760694"><ele>225.0</ele><time>2026-04-04T13:41:12.999Z</time></trkpt><trkpt lat="46.32805290471303" lon="13.135066339990171"><ele>224.66666666666669</ele><time>2026-04-04T13:41:13.999Z</time></trkpt><trkpt lat="46.327912625779604" lon="13.134934967436564"><ele>224.33333333333334</ele><time>2026-04-04T13:41:14.999Z</time></trkpt><trkpt lat="46.32777083481126" lon="13.134807916963656"><ele>224.0</ele><time>2026-04-04T13:41:15.999Z</time></trkpt><trkpt lat="46.327631613007846" lon="13.134683258034373"><ele>224.0</ele><time>2026-04-04T13:41:16.999Z</time></trkpt><trkpt lat="46.327499834801756" lon="13.134558405804015"><ele>224.0</ele><time>2026-04-04T13:41:17.999Z</time></trkpt><trkpt lat="46.32736625553158" lon="13.13443574001844"><ele>224.0</ele><time>2026-04-04T13:41:18.999Z</time></trkpt><trkpt lat="46.32723655430868" lon="13.134321592805723"><ele>224.0</ele><time>2026-04-04T13:41:19.999Z</time></trkpt><trkpt lat="46.32711837145141" lon="13.13421254782379"><ele>224.0</ele><time>2026-04-04T13:41:20.999Z</time></trkpt><trkpt lat="46.32699381984967" lon="13.13409544203092"><ele>224.0</ele><time>2026-04-04T13:41:21.999Z</time></trkpt><trkpt lat="46.326857600617444" lon="13.13397101329246"><ele>224.0</ele><time>2026-04-04T13:41:22.999Z</time></trkpt><trkpt lat="46.32671271544253" lon="13.133845624417535"><ele>224.0</ele><time>2026-04-04T13:41:23.999Z</time></trkpt><trkpt lat="46.32655447418554" lon="13.133711191061234"><ele>224.0</ele><time>2026-04-04T13:41:24.999Z</time></trkpt><trkpt lat="46.326384794074" lon="13.133561397350654"><ele>224.33333333333334</ele><time>2026-04-04T13:41:25.999Z</time></trkpt><trkpt lat="46.32622837075957" lon="13.133357801431577"><ele>224.66666666666669</ele><time>2026-04-04T13:41:26.999Z</time></trkpt><trkpt lat="46.3260473274793" lon="13.133187614326078"><ele>225.0</ele><time>2026-04-04T13:41:27.999Z</time></trkpt><trkpt lat="46.32586294623543" lon="13.133015806870892"><ele>225.0</ele><time>2026-04-04T13:41:28.999Z</time></trkpt><trkpt lat="46.32567672992079" lon="13.13284134923225"><ele>225.0</ele><time>2026-04-04T13:41:29.999Z</time></trkpt><trkpt lat="46.32547999960326" lon="13.132681934369472"><ele>225.0</ele><time>2026-04-04T13:41:31Z</time></trkpt><trkpt lat="46.325292554222976" lon="13.132504713938001"><ele>224.33333333333331</ele><time>2026-04-04T13:41:32Z</time></trkpt><trkpt lat="46.32510581086251" lon="13.132331537375569"><ele>223.66666666666666</ele><time>2026-04-04T13:41:33Z</time></trkpt><trkpt lat="46.32492173228433" lon="13.13216089822635"><ele>223.0</ele><time>2026-04-04T13:41:34Z</time></trkpt><trkpt lat="46.32473810383779" lon="13.13199498431433"><ele>223.0</ele><time>2026-04-04T13:41:35Z</time></trkpt><trkpt lat="46.324552821302255" lon="13.131836154444876"><ele>223.0</ele><time>2026-04-04T13:41:36Z</time></trkpt><trkpt lat="46.32436423375371" lon="13.131687068370884"><ele>223.0</ele><time>2026-04-04T13:41:37Z</time></trkpt><trkpt lat="46.32416707186535" lon="13.131558733490158"><ele>222.66666666666666</ele><time>2026-04-04T13:41:38Z</time></trkpt><trkpt lat="46.32396759369488" lon="13.13146218248811"><ele>222.33333333333331</ele><time>2026-04-04T13:41:39Z</time></trkpt><trkpt lat="46.32376842196674" lon="13.131387632346593"><ele>222.0</ele><time>2026-04-04T13:41:40Z</time></trkpt><trkpt lat="46.323564613861606" lon="13.13132993459674"><ele>222.0</ele><time>2026-04-04T13:41:41Z</time></trkpt><trkpt lat="46.32335400989237" lon="13.131230676510032"><ele>222.0</ele><time>2026-04-04T13:41:42Z</time></trkpt><trkpt lat="46.32313845479519" lon="13.131168146919931"><ele>222.0</ele><time>2026-04-04T13:41:43Z</time></trkpt><trkpt lat="46.32292104358421" lon="13.131104695405273"><ele>221.66666666666669</ele><time>2026-04-04T13:41:44Z</time></trkpt><trkpt lat="46.32270314614777" lon="13.131041101956571"><ele>221.33333333333334</ele><time>2026-04-04T13:41:45Z</time></trkpt><trkpt lat="46.322488380711775" lon="13.130977550307392"><ele>221.0</ele><time>2026-04-04T13:41:46Z</time></trkpt><trkpt lat="46.322275387512875" lon="13.13091735389993"><ele>221.5</ele><time>2026-04-04T13:41:47Z</time></trkpt><trkpt lat="46.322056853624105" lon="13.130856475804427"><ele>222.0</ele><time>2026-04-04T13:41:48Z</time></trkpt><trkpt lat="46.3218291480655" lon="13.130794351097594"><ele>222.0</ele><time>2026-04-04T13:41:49Z</time></trkpt><trkpt lat="46.321597164752" lon="13.130727332701627"><ele>222.0</ele><time>2026-04-04T13:41:50Z</time></trkpt><trkpt lat="46.32135633448742" lon="13.13065876761109"><ele>221.0</ele><time>2026-04-04T13:41:51Z</time></trkpt><trkpt lat="46.3211083317131" lon="13.130597597200683"><ele>220.0</ele><time>2026-04-04T13:41:52Z</time></trkpt><trkpt lat="46.32085449710841" lon="13.130544605084468"><ele>220.0</ele><time>2026-04-04T13:41:53Z</time></trkpt><trkpt lat="46.32059657749732" lon="13.130497761041784"><ele>220.0</ele><time>2026-04-04T13:41:54Z</time></trkpt><trkpt lat="46.320335070991916" lon="13.130495837871116"><ele>220.0</ele><time>2026-04-04T13:41:55Z</time></trkpt><trkpt lat="46.32007827940155" lon="13.13045896089366"><ele>220.0</ele><time>2026-04-04T13:41:56Z</time></trkpt><trkpt lat="46.31982741336432" lon="13.130456879267632"><ele>221.0</ele><time>2026-04-04T13:41:57Z</time></trkpt><trkpt lat="46.31957830335172" lon="13.130458233247442"><ele>222.0</ele><time>2026-04-04T13:41:58Z</time></trkpt><trkpt lat="46.31935014387546" lon="13.130460879268423"><ele>222.0</ele><time>2026-04-04T13:41:59Z</time></trkpt><trkpt lat="46.31913712602791" lon="13.130459136888906"><ele>222.0</ele><time>2026-04-04T13:42:00Z</time></trkpt><trkpt lat="46.31893463726139" lon="13.130453422271438"><ele>222.0</ele><time>2026-04-04T13:42:01Z</time></trkpt><trkpt lat="46.318725819363955" lon="13.130436058250543"><ele>222.0</ele><time>2026-04-04T13:42:02Z</time></trkpt><trkpt lat="46.318543987187475" lon="13.130413449822118"><ele>222.0</ele><time>2026-04-04T13:42:03Z</time></trkpt><trkpt lat="46.31837603716536" lon="13.130378734938926"><ele>222.0</ele><time>2026-04-04T13:42:04Z</time></trkpt><trkpt lat="46.31820088871785" lon="13.130340576012728"><ele>223.66666666666669</ele><time>2026-04-04T13:42:05Z</time></trkpt><trkpt lat="46.318022657793016" lon="13.130271274539146"><ele>225.33333333333334</ele><time>2026-04-04T13:42:06Z</time></trkpt><trkpt lat="46.31783888064173" lon="13.130189175088994"><ele>227.0</ele><time>2026-04-04T13:42:07Z</time></trkpt><trkpt lat="46.31764882551727" lon="13.130048243777166"><ele>227.0</ele><time>2026-04-04T13:42:08Z</time></trkpt><trkpt lat="46.317437773519636" lon="13.129909578956635"><ele>227.0</ele><time>2026-04-04T13:42:09Z</time></trkpt><trkpt lat="46.317208432084826" lon="13.12978097272021"><ele>226.5</ele><time>2026-04-04T13:42:10Z</time></trkpt><trkpt lat="46.31698463783785" lon="13.129632972251573"><ele>226.0</ele><time>2026-04-04T13:42:11Z</time></trkpt><trkpt lat="46.31677352637774" lon="13.12947182585259"><ele>226.0</ele><time>2026-04-04T13:42:12Z</time></trkpt><trkpt lat="46.31656237623676" lon="13.129341710204084"><ele>226.0</ele><time>2026-04-04T13:42:13Z</time></trkpt><trkpt lat="46.31636035945407" lon="13.12921919822558"><ele>226.0</ele><time>2026-04-04T13:42:14Z</time></trkpt><trkpt lat="46.316162963791534" lon="13.129099488701518"><ele>225.0</ele><time>2026-04-04T13:42:15Z</time></trkpt><trkpt lat="46.315960836974284" lon="13.12898209625833"><ele>224.0</ele><time>2026-04-04T13:42:16Z</time></trkpt><trkpt lat="46.315715201080934" lon="13.128981731044359"><ele>225.0</ele><time>2026-04-04T13:42:17Z</time></trkpt><trkpt lat="46.31548325195515" lon="13.128895411183096"><ele>226.0</ele><time>2026-04-04T13:42:18Z</time></trkpt><trkpt lat="46.31524294844162" lon="13.128814283510954"><ele>226.0</ele><time>2026-04-04T13:42:19Z</time></trkpt><trkpt lat="46.314993228890145" lon="13.128749610838904"><ele>226.0</ele><time>2026-04-04T13:42:20Z</time></trkpt><trkpt lat="46.31473997251545" lon="13.128696861977266"><ele>227.0</ele><time>2026-04-04T13:42:21Z</time></trkpt><trkpt lat="46.31448114239811" lon="13.128660068927461"><ele>228.0</ele><time>2026-04-04T13:42:22Z</time></trkpt><trkpt lat="46.314212781374174" lon="13.128640807225748"><ele>228.0</ele><time>2026-04-04T13:42:23Z</time></trkpt><trkpt lat="46.3139415943094" lon="13.128632823155465"><ele>228.0</ele><time>2026-04-04T13:42:24Z</time></trkpt><trkpt lat="46.31366944789018" lon="13.128629834562581"><ele>226.0</ele><time>2026-04-04T13:42:25Z</time></trkpt><trkpt lat="46.313391931480474" lon="13.128625959325175"><ele>224.0</ele><time>2026-04-04T13:42:26Z</time></trkpt><trkpt lat="46.313113278638156" lon="13.128619156674436"><ele>224.0</ele><time>2026-04-04T13:42:27Z</time></trkpt><trkpt lat="46.31283172235364" lon="13.128610628233966"><ele>224.0</ele><time>2026-04-04T13:42:28Z</time></trkpt><trkpt lat="46.31254984458474" lon="13.12860608740029"><ele>224.0</ele><time>2026-04-04T13:42:29Z</time></trkpt><trkpt lat="46.31226971504056" lon="13.128597826709244"><ele>224.0</ele><time>2026-04-04T13:42:30Z</time></trkpt><trkpt lat="46.31199462725361" lon="13.128582756220185"><ele>224.0</ele><time>2026-04-04T13:42:31Z</time></trkpt><trkpt lat="46.311725757459755" lon="13.128565153887742"><ele>224.0</ele><time>2026-04-04T13:42:32Z</time></trkpt><trkpt lat="46.31145916879288" lon="13.128554040097677"><ele>223.0</ele><time>2026-04-04T13:42:33Z</time></trkpt><trkpt lat="46.31119348372336" lon="13.12854307256069"><ele>222.0</ele><time>2026-04-04T13:42:34Z</time></trkpt><trkpt lat="46.31092884980074" lon="13.128534506833164"><ele>222.0</ele><time>2026-04-04T13:42:35Z</time></trkpt><trkpt lat="46.31066832540344" lon="13.128528817842968"><ele>222.0</ele><time>2026-04-04T13:42:36Z</time></trkpt><trkpt lat="46.310413653274196" lon="13.128522935799356"><ele>221.0</ele><time>2026-04-04T13:42:37Z</time></trkpt><trkpt lat="46.31016503084491" lon="13.128511319228824"><ele>220.0</ele><time>2026-04-04T13:42:38Z</time></trkpt><trkpt lat="46.309922318429095" lon="13.128504550462214"><ele>223.0</ele><time>2026-04-04T13:42:39Z</time></trkpt><trkpt lat="46.30968526193674" lon="13.128495613886157"><ele>226.0</ele><time>2026-04-04T13:42:40Z</time></trkpt><trkpt lat="46.3094574482917" lon="13.128486983824969"><ele>226.0</ele><time>2026-04-04T13:42:41Z</time></trkpt><trkpt lat="46.30923602792645" lon="13.128474458716253"><ele>226.0</ele><time>2026-04-04T13:42:42Z</time></trkpt><trkpt lat="46.30901444084086" lon="13.12844157701533"><ele>226.0</ele><time>2026-04-04T13:42:43Z</time></trkpt><trkpt lat="46.30879410612519" lon="13.128375705844078"><ele>224.5</ele><time>2026-04-04T13:42:44Z</time></trkpt><trkpt lat="46.30857708732336" lon="13.128276770201913"><ele>223.0</ele><time>2026-04-04T13:42:45Z</time></trkpt><trkpt lat="46.30836962085232" lon="13.12815586826167"><ele>223.0</ele><time>2026-04-04T13:42:46Z</time></trkpt><trkpt lat="46.30817431190666" lon="13.128022517047796"><ele>223.0</ele><time>2026-04-04T13:42:47Z</time></trkpt><trkpt lat="46.30799073640176" lon="13.127877965437321"><ele>223.0</ele><time>2026-04-04T13:42:48Z</time></trkpt><trkpt lat="46.307822286691184" lon="13.127715999791448"><ele>224.0</ele><time>2026-04-04T13:42:49Z</time></trkpt><trkpt lat="46.30766822843041" lon="13.12754980167873"><ele>225.0</ele><time>2026-04-04T13:42:50Z</time></trkpt><trkpt lat="46.30752603885894" lon="13.127373257168129"><ele>226.0</ele><time>2026-04-04T13:42:51Z</time></trkpt><trkpt lat="46.307402018814926" lon="13.12719521151382"><ele>226.0</ele><time>2026-04-04T13:42:52Z</time></trkpt><trkpt lat="46.30728881614347" lon="13.12700625893959"><ele>226.0</ele><time>2026-04-04T13:42:53Z</time></trkpt><trkpt lat="46.30717454231742" lon="13.12680190348967"><ele>226.0</ele><time>2026-04-04T13:42:54Z</time></trkpt><trkpt lat="46.30705638196751" lon="13.126585851636813"><ele>229.33333333333331</ele><time>2026-04-04T13:42:55Z</time></trkpt><trkpt lat="46.30693687327004" lon="13.126363101475313"><ele>232.66666666666669</ele><time>2026-04-04T13:42:56Z</time></trkpt><trkpt lat="46.306813303093236" lon="13.1261348758488"><ele>236.0</ele><time>2026-04-04T13:42:57Z</time></trkpt><trkpt lat="46.30668905179459" lon="13.125893069875398"><ele>239.66666666666669</ele><time>2026-04-04T13:42:58Z</time></trkpt><trkpt lat="46.306564239460876" lon="13.12565897756118"><ele>243.33333333333331</ele><time>2026-04-04T13:42:59Z</time></trkpt><trkpt lat="46.30645150576391" lon="13.125440086771508"><ele>247.0</ele><time>2026-04-04T13:43:00Z</time></trkpt><trkpt lat="46.3063493564906" lon="13.12523932136616"><ele>247.0</ele><time>2026-04-04T13:43:01Z</time></trkpt><trkpt lat="46.30625236520343" lon="13.125049920711355"><ele>247.0</ele><time>2026-04-04T13:43:02Z</time></trkpt><trkpt lat="46.30615194361608" lon="13.124853043919066"><ele>247.0</ele><time>2026-04-04T13:43:03Z</time></trkpt><trkpt lat="46.30603533797502" lon="13.124638710235162"><ele>241.0</ele><time>2026-04-04T13:43:04Z</time></trkpt><trkpt lat="46.305911972151335" lon="13.124402331626305"><ele>235.0</ele><time>2026-04-04T13:43:05Z</time></trkpt><trkpt lat="46.30579402573834" lon="13.124152844493349"><ele>229.0</ele><time>2026-04-04T13:43:06Z</time></trkpt><trkpt lat="46.305674025251925" lon="13.123907535351835"><ele>226.0</ele><time>2026-04-04T13:43:07Z</time></trkpt><trkpt lat="46.305542115135616" lon="13.123656801852524"><ele>223.0</ele><time>2026-04-04T13:43:08Z</time></trkpt><trkpt lat="46.305406759037936" lon="13.12339111458977"><ele>220.0</ele><time>2026-04-04T13:43:09Z</time></trkpt><trkpt lat="46.30526524523179" lon="13.123123879654127"><ele>220.0</ele><time>2026-04-04T13:43:10Z</time></trkpt><trkpt lat="46.30510846248865" lon="13.122880938731761"><ele>220.0</ele><time>2026-04-04T13:43:11Z</time></trkpt><trkpt lat="46.30493826545801" lon="13.122659862868757"><ele>220.0</ele><time>2026-04-04T13:43:12Z</time></trkpt><trkpt lat="46.304761602372004" lon="13.122452287239645"><ele>220.0</ele><time>2026-04-04T13:43:13Z</time></trkpt><trkpt lat="46.30457875438347" lon="13.12225273887208"><ele>217.5</ele><time>2026-04-04T13:43:14Z</time></trkpt><trkpt lat="46.30438801753437" lon="13.122059780281278"><ele>215.0</ele><time>2026-04-04T13:43:15Z</time></trkpt><trkpt lat="46.3042035441268" lon="13.121875201991385"><ele>215.0</ele><time>2026-04-04T13:43:16Z</time></trkpt><trkpt lat="46.30403033465777" lon="13.121697866715818"><ele>215.0</ele><time>2026-04-04T13:43:16.999Z</time></trkpt><trkpt lat="46.30386167585635" lon="13.121528111062258"><ele>215.0</ele><time>2026-04-04T13:43:17.999Z</time></trkpt><trkpt lat="46.303690081098324" lon="13.121356904654519"><ele>214.66666666666669</ele><time>2026-04-04T13:43:18.999Z</time></trkpt><trkpt lat="46.30351773678274" lon="13.121177868604997"><ele>214.33333333333331</ele><time>2026-04-04T13:43:19.999Z</time></trkpt><trkpt lat="46.30335116266898" lon="13.12099515571475"><ele>214.0</ele><time>2026-04-04T13:43:20.999Z</time></trkpt><trkpt lat="46.3032002736121" lon="13.120796204021033"><ele>214.0</ele><time>2026-04-04T13:43:21.999Z</time></trkpt><trkpt lat="46.303038319179734" lon="13.120659326251342"><ele>214.0</ele><time>2026-04-04T13:43:22.999Z</time></trkpt><trkpt lat="46.302895726782445" lon="13.120513305560635"><ele>214.0</ele><time>2026-04-04T13:43:23.999Z</time></trkpt><trkpt lat="46.30275245112034" lon="13.120368137682874"><ele>214.0</ele><time>2026-04-04T13:43:24.999Z</time></trkpt><trkpt lat="46.30260331827107" lon="13.120226527179941"><ele>214.0</ele><time>2026-04-04T13:43:25.999Z</time></trkpt><trkpt lat="46.30245185355226" lon="13.120096421857767"><ele>214.0</ele><time>2026-04-04T13:43:26.999Z</time></trkpt><trkpt lat="46.30231062372496" lon="13.119979027804172"><ele>212.66666666666666</ele><time>2026-04-04T13:43:27.999Z</time></trkpt><trkpt lat="46.302173360357834" lon="13.119869432782293"><ele>211.33333333333331</ele><time>2026-04-04T13:43:28.999Z</time></trkpt><trkpt lat="46.30201781899067" lon="13.119750886125235"><ele>210.0</ele><time>2026-04-04T13:43:29.999Z</time></trkpt><trkpt lat="46.30184185220839" lon="13.119627020255272"><ele>210.0</ele><time>2026-04-04T13:43:30.999Z</time></trkpt><trkpt lat="46.301645142038716" lon="13.119485768531248"><ele>210.0</ele><time>2026-04-04T13:43:31.999Z</time></trkpt><trkpt lat="46.301429989741884" lon="13.119312198362099"><ele>210.0</ele><time>2026-04-04T13:43:32.999Z</time></trkpt><trkpt lat="46.30120363056299" lon="13.119120783782678"><ele>210.0</ele><time>2026-04-04T13:43:33.999Z</time></trkpt><trkpt lat="46.30096561983384" lon="13.118930985777986"><ele>210.5</ele><time>2026-04-04T13:43:34.999Z</time></trkpt><trkpt lat="46.300724683095495" lon="13.118716907498442"><ele>211.0</ele><time>2026-04-04T13:43:36Z</time></trkpt><trkpt lat="46.300464972990646" lon="13.118510798678418"><ele>210.0</ele><time>2026-04-04T13:43:37Z</time></trkpt><trkpt lat="46.30018078972869" lon="13.118285267707789"><ele>209.0</ele><time>2026-04-04T13:43:38Z</time></trkpt><trkpt lat="46.29987397975861" lon="13.118042897641297"><ele>209.0</ele><time>2026-04-04T13:43:39Z</time></trkpt><trkpt lat="46.29955360053288" lon="13.117807255469584"><ele>209.0</ele><time>2026-04-04T13:43:40Z</time></trkpt><trkpt lat="46.29925169524617" lon="13.117559982210292"><ele>208.5</ele><time>2026-04-04T13:43:41Z</time></trkpt><trkpt lat="46.298958321692076" lon="13.11732651239499"><ele>208.0</ele><time>2026-04-04T13:43:42Z</time></trkpt><trkpt lat="46.298676082062016" lon="13.11710687013173"><ele>207.5</ele><time>2026-04-04T13:43:43Z</time></trkpt><trkpt lat="46.29840307511633" lon="13.116896678023897"><ele>207.0</ele><time>2026-04-04T13:43:44Z</time></trkpt><trkpt lat="46.2981509041961" lon="13.116701394550146"><ele>208.5</ele><time>2026-04-04T13:43:45Z</time></trkpt><trkpt lat="46.2979272634197" lon="13.116523816231894"><ele>210.0</ele><time>2026-04-04T13:43:46Z</time></trkpt><trkpt lat="46.29771600606332" lon="13.116351794926276"><ele>210.0</ele><time>2026-04-04T13:43:47Z</time></trkpt><trkpt lat="46.297507795584856" lon="13.116187189840419"><ele>210.0</ele><time>2026-04-04T13:43:48Z</time></trkpt><trkpt lat="46.297298874996166" lon="13.116026805748199"><ele>208.0</ele><time>2026-04-04T13:43:49Z</time></trkpt><trkpt lat="46.29709407506136" lon="13.115867066589443"><ele>206.0</ele><time>2026-04-04T13:43:50Z</time></trkpt><trkpt lat="46.29688951586973" lon="13.115712880811445"><ele>206.0</ele><time>2026-04-04T13:43:51Z</time></trkpt><trkpt lat="46.29668163712047" lon="13.115577052085895"><ele>206.0</ele><time>2026-04-04T13:43:52Z</time></trkpt><trkpt lat="46.296466169332795" lon="13.115470801152568"><ele>205.0</ele><time>2026-04-04T13:43:53Z</time></trkpt><trkpt lat="46.29624579081812" lon="13.115390911628738"><ele>204.0</ele><time>2026-04-04T13:43:54Z</time></trkpt><trkpt lat="46.29602275918862" lon="13.115334286926798"><ele>204.0</ele><time>2026-04-04T13:43:55Z</time></trkpt><trkpt lat="46.29579773502483" lon="13.11530760585274"><ele>204.0</ele><time>2026-04-04T13:43:56Z</time></trkpt><trkpt lat="46.295573296072796" lon="13.115298411578353"><ele>204.5</ele><time>2026-04-04T13:43:57Z</time></trkpt><trkpt lat="46.295346498076114" lon="13.115305148813443"><ele>205.0</ele><time>2026-04-04T13:43:58Z</time></trkpt><trkpt lat="46.295120177382266" lon="13.115317612102855"><ele>205.0</ele><time>2026-04-04T13:43:59Z</time></trkpt><trkpt lat="46.294893022377565" lon="13.11532580417612"><ele>205.0</ele><time>2026-04-04T13:44:00Z</time></trkpt><trkpt lat="46.2946669647405" lon="13.115307080329544"><ele>204.0</ele><time>2026-04-04T13:44:01Z</time></trkpt><trkpt lat="46.29444144918536" lon="13.115335826514874"><ele>203.0</ele><time>2026-04-04T13:44:02Z</time></trkpt><trkpt lat="46.29421697211521" lon="13.115337524014496"><ele>203.0</ele><time>2026-04-04T13:44:03Z</time></trkpt><trkpt lat="46.29399304637114" lon="13.115338067040838"><ele>203.0</ele><time>2026-04-04T13:44:04Z</time></trkpt><trkpt lat="46.29376754691108" lon="13.115334006831548"><ele>203.0</ele><time>2026-04-04T13:44:05Z</time></trkpt><trkpt lat="46.29353866970693" lon="13.115316249194978"><ele>203.5</ele><time>2026-04-04T13:44:06Z</time></trkpt><trkpt lat="46.293304255576864" lon="13.115280211638186"><ele>204.0</ele><time>2026-04-04T13:44:07Z</time></trkpt><trkpt lat="46.29306607368777" lon="13.115235551893408"><ele>204.0</ele><time>2026-04-04T13:44:08Z</time></trkpt><trkpt lat="46.29282676816449" lon="13.115185306013942"><ele>204.0</ele><time>2026-04-04T13:44:09Z</time></trkpt><trkpt lat="46.292585826926995" lon="13.115126803966058"><ele>204.0</ele><time>2026-04-04T13:44:10Z</time></trkpt><trkpt lat="46.2923487543539" lon="13.115068032229246"><ele>204.0</ele><time>2026-04-04T13:44:11Z</time></trkpt><trkpt lat="46.29211289509291" lon="13.115010253244503"><ele>203.5</ele><time>2026-04-04T13:44:12Z</time></trkpt><trkpt lat="46.29188408187848" lon="13.114954057829355"><ele>203.0</ele><time>2026-04-04T13:44:13Z</time></trkpt><trkpt lat="46.29165775642749" lon="13.11490131904176"><ele>203.0</ele><time>2026-04-04T13:44:14Z</time></trkpt><trkpt lat="46.29143321411463" lon="13.114847056282912"><ele>203.0</ele><time>2026-04-04T13:44:15Z</time></trkpt><trkpt lat="46.2912174536276" lon="13.114769188486221"><ele>202.33333333333334</ele><time>2026-04-04T13:44:16Z</time></trkpt><trkpt lat="46.291019533709765" lon="13.11471925034358"><ele>201.66666666666669</ele><time>2026-04-04T13:44:17Z</time></trkpt><trkpt lat="46.2908600266026" lon="13.114680861609928"><ele>201.0</ele><time>2026-04-04T13:44:18Z</time></trkpt><trkpt lat="46.2907343826834" lon="13.114650197326194"><ele>201.0</ele><time>2026-04-04T13:44:19Z</time></trkpt><trkpt lat="46.29064741914014" lon="13.114625649279658"><ele>201.0</ele><time>2026-04-04T13:44:20Z</time></trkpt><trkpt lat="46.29058372971909" lon="13.114606502275524"><ele>201.0</ele><time>2026-04-04T13:44:21Z</time></trkpt><trkpt lat="46.29051234691798" lon="13.11458504228352"><ele>201.0</ele><time>2026-04-04T13:44:23Z</time></trkpt><trkpt lat="46.290479007099236" lon="13.114793960396844"><ele>201.0</ele><time>2026-04-04T13:44:24Z</time></trkpt><trkpt lat="46.29048866614461" lon="13.114903040459339"><ele>201.4</ele><time>2026-04-04T13:44:25Z</time></trkpt><trkpt lat="46.29049061188922" lon="13.115023467469696"><ele>201.8</ele><time>2026-04-04T13:44:26Z</time></trkpt><trkpt lat="46.2904848958064" lon="13.115157787986645"><ele>202.20000000000002</ele><time>2026-04-04T13:44:27Z</time></trkpt><trkpt lat="46.29047240354328" lon="13.115281263240398"><ele>202.60000000000002</ele><time>2026-04-04T13:44:28Z</time></trkpt><trkpt lat="46.29052635221392" lon="13.115401639100124"><ele>203.0</ele><time>2026-04-04T13:44:29Z</time></trkpt><trkpt lat="46.2905755752841" lon="13.115533027592615"><ele>203.0</ele><time>2026-04-04T13:44:30Z</time></trkpt><trkpt lat="46.2906342690054" lon="13.115700429402937"><ele>203.0</ele><time>2026-04-04T13:44:31Z</time></trkpt><trkpt lat="46.29069619192719" lon="13.115888776432506"><ele>203.0</ele><time>2026-04-04T13:44:32Z</time></trkpt><trkpt lat="46.290765509775376" lon="13.116084051836891"><ele>203.0</ele><time>2026-04-04T13:44:33Z</time></trkpt><trkpt lat="46.290829556504484" lon="13.116279734634945"><ele>203.0</ele><time>2026-04-04T13:44:34Z</time></trkpt><trkpt lat="46.29089118288178" lon="13.11647222849317"><ele>203.0</ele><time>2026-04-04T13:44:35Z</time></trkpt><trkpt lat="46.290953680212105" lon="13.116656606481158"><ele>203.0</ele><time>2026-04-04T13:44:36Z</time></trkpt><trkpt lat="46.29101789179847" lon="13.116834202375108"><ele>203.0</ele><time>2026-04-04T13:44:37Z</time></trkpt><trkpt lat="46.29108578067576" lon="13.117004974013405"><ele>203.0</ele><time>2026-04-04T13:44:38Z</time></trkpt><trkpt lat="46.291161286608165" lon="13.117174359273637"><ele>203.0</ele><time>2026-04-04T13:44:39Z</time></trkpt><trkpt lat="46.29121971134841" lon="13.11736372480014"><ele>203.0</ele><time>2026-04-04T13:44:40Z</time></trkpt><trkpt lat="46.2912840943607" lon="13.117555823212962"><ele>203.0</ele><time>2026-04-04T13:44:41Z</time></trkpt><trkpt lat="46.291357331651774" lon="13.117749656130576"><ele>203.0</ele><time>2026-04-04T13:44:42Z</time></trkpt><trkpt lat="46.29141696578602" lon="13.117957569101721"><ele>203.0</ele><time>2026-04-04T13:44:43Z</time></trkpt><trkpt lat="46.29150544326039" lon="13.118146774335855"><ele>203.0</ele><time>2026-04-04T13:44:44Z</time></trkpt><trkpt lat="46.29156563922216" lon="13.118361710426317"><ele>202.66666666666669</ele><time>2026-04-04T13:44:45Z</time></trkpt><trkpt lat="46.29163867892737" lon="13.118560727488251"><ele>202.33333333333331</ele><time>2026-04-04T13:44:46Z</time></trkpt><trkpt lat="46.29172168756003" lon="13.118740800865199"><ele>202.0</ele><time>2026-04-04T13:44:47Z</time></trkpt><trkpt lat="46.29178406407222" lon="13.118930114489835"><ele>202.5</ele><time>2026-04-04T13:44:48Z</time></trkpt><trkpt lat="46.29183878813181" lon="13.119105289645606"><ele>203.0</ele><time>2026-04-04T13:44:49Z</time></trkpt><trkpt lat="46.291886585644605" lon="13.119258282821582"><ele>203.5</ele><time>2026-04-04T13:44:50Z</time></trkpt><trkpt lat="46.29193592438461" lon="13.119410997632068"><ele>204.0</ele><time>2026-04-04T13:44:51Z</time></trkpt><trkpt lat="46.291986271391" lon="13.119541435214577"><ele>204.0</ele><time>2026-04-04T13:44:52Z</time></trkpt><trkpt lat="46.29203916121624" lon="13.119673033434514"><ele>204.0</ele><time>2026-04-04T13:44:53Z</time></trkpt><trkpt lat="46.29209367356891" lon="13.119806202158754"><ele>204.0</ele><time>2026-04-04T13:44:54Z</time></trkpt><trkpt lat="46.292148863865116" lon="13.119927874297346"><ele>204.0</ele><time>2026-04-04T13:44:55Z</time></trkpt><trkpt lat="46.29220694600109" lon="13.120054601094399"><ele>204.0</ele><time>2026-04-04T13:44:56Z</time></trkpt><trkpt lat="46.29226452633244" lon="13.120183076063537"><ele>204.0</ele><time>2026-04-04T13:44:57Z</time></trkpt><trkpt lat="46.29232198098932" lon="13.12030657727443"><ele>204.0</ele><time>2026-04-04T13:44:58Z</time></trkpt><trkpt lat="46.292381785727834" lon="13.120427271969065"><ele>204.0</ele><time>2026-04-04T13:44:59Z</time></trkpt><trkpt lat="46.29243655382435" lon="13.12055943698475"><ele>204.0</ele><time>2026-04-04T13:45:00Z</time></trkpt><trkpt lat="46.292478941182274" lon="13.120704188881925"><ele>204.0</ele><time>2026-04-04T13:45:01Z</time></trkpt><trkpt lat="46.29247437537054" lon="13.120865048060876"><ele>204.0</ele><time>2026-04-04T13:45:02Z</time></trkpt><trkpt lat="46.29246514286861" lon="13.121006181193936"><ele>204.0</ele><time>2026-04-04T13:45:03Z</time></trkpt><trkpt lat="46.29245348928533" lon="13.121113864036438"><ele>204.0</ele><time>2026-04-04T13:45:04Z</time></trkpt><trkpt lat="46.29242676195562" lon="13.121205159850776"><ele>204.0</ele><time>2026-04-04T13:45:06Z</time></trkpt><trkpt lat="46.29232977424403" lon="13.121287664984626"><ele>204.0</ele><time>2026-04-04T13:45:08Z</time></trkpt><trkpt lat="46.292231518424984" lon="13.121171446348473"><ele>203.75</ele><time>2026-04-04T13:45:09Z</time></trkpt><trkpt lat="46.292109865159055" lon="13.121182255507488"><ele>203.5</ele><time>2026-04-04T13:45:10Z</time></trkpt><trkpt lat="46.291958538232656" lon="13.121177568969236"><ele>203.25</ele><time>2026-04-04T13:45:11Z</time></trkpt><trkpt lat="46.2917865434926" lon="13.121174638476212"><ele>203.0</ele><time>2026-04-04T13:45:12Z</time></trkpt><trkpt lat="46.291623485351565" lon="13.121128725391886"><ele>203.0</ele><time>2026-04-04T13:45:13Z</time></trkpt><trkpt lat="46.291486806793564" lon="13.121110463871867"><ele>203.0</ele><time>2026-04-04T13:45:14Z</time></trkpt><trkpt lat="46.29137061185394" lon="13.121078798546824"><ele>203.0</ele><time>2026-04-04T13:45:15Z</time></trkpt><trkpt lat="46.29127936607856" lon="13.120967178455789"><ele>203.0</ele><time>2026-04-04T13:45:16Z</time></trkpt><trkpt lat="46.291215047111905" lon="13.120808505601216"><ele>203.25</ele><time>2026-04-04T13:45:17Z</time></trkpt><trkpt lat="46.29113813580965" lon="13.120659939045602"><ele>203.5</ele><time>2026-04-04T13:45:18Z</time></trkpt><trkpt lat="46.29102905163758" lon="13.120545513986327"><ele>203.75</ele><time>2026-04-04T13:45:18.999Z</time></trkpt><trkpt lat="46.29089476018184" lon="13.12048322459354"><ele>204.0</ele><time>2026-04-04T13:45:19.999Z</time></trkpt><trkpt lat="46.29074297430094" lon="13.120489481706622"><ele>203.33333333333331</ele><time>2026-04-04T13:45:20.999Z</time></trkpt><trkpt lat="46.29058443225948" lon="13.120543616464785"><ele>202.66666666666666</ele><time>2026-04-04T13:45:21.999Z</time></trkpt><trkpt lat="46.290412957842655" lon="13.1205948267332"><ele>202.0</ele><time>2026-04-04T13:45:22.999Z</time></trkpt><trkpt lat="46.29023757829754" lon="13.120677093119477"><ele>202.33333333333331</ele><time>2026-04-04T13:45:23.999Z</time></trkpt><trkpt lat="46.29003898040715" lon="13.12077215568603"><ele>202.66666666666669</ele><time>2026-04-04T13:45:24.999Z</time></trkpt><trkpt lat="46.28982779782505" lon="13.120872568694482"><ele>203.0</ele><time>2026-04-04T13:45:25.999Z</time></trkpt><trkpt lat="46.28960791479076" lon="13.120977298375356"><ele>202.0</ele><time>2026-04-04T13:45:26.999Z</time></trkpt><trkpt lat="46.28938344553697" lon="13.121084485697825"><ele>201.0</ele><time>2026-04-04T13:45:27.999Z</time></trkpt><trkpt lat="46.28916379767735" lon="13.121189370686672"><ele>201.0</ele><time>2026-04-04T13:45:28.999Z</time></trkpt><trkpt lat="46.28895088162217" lon="13.121291043091084"><ele>201.0</ele><time>2026-04-04T13:45:29.999Z</time></trkpt><trkpt lat="46.28874530947818" lon="13.121411180439999"><ele>201.0</ele><time>2026-04-04T13:45:30.999Z</time></trkpt><trkpt lat="46.288540645040385" lon="13.121508320567589"><ele>200.66666666666669</ele><time>2026-04-04T13:45:31.999Z</time></trkpt><trkpt lat="46.28834183613618" lon="13.121607033750857"><ele>200.33333333333334</ele><time>2026-04-04T13:45:32.999Z</time></trkpt><trkpt lat="46.288149166464244" lon="13.121698337643313"><ele>200.0</ele><time>2026-04-04T13:45:33.999Z</time></trkpt><trkpt lat="46.28796024601401" lon="13.121786834369523"><ele>200.0</ele><time>2026-04-04T13:45:34.999Z</time></trkpt><trkpt lat="46.287774396454445" lon="13.12187366836657"><ele>200.0</ele><time>2026-04-04T13:45:35.999Z</time></trkpt><trkpt lat="46.28760459292499" lon="13.12194775782926"><ele>200.0</ele><time>2026-04-04T13:45:36.999Z</time></trkpt><trkpt lat="46.28745052699137" lon="13.122013508414113"><ele>200.0</ele><time>2026-04-04T13:45:37.999Z</time></trkpt><trkpt lat="46.287308649016985" lon="13.12207572118033"><ele>200.0</ele><time>2026-04-04T13:45:38.999Z</time></trkpt><trkpt lat="46.287170786625694" lon="13.122138553841785"><ele>200.0</ele><time>2026-04-04T13:45:39.999Z</time></trkpt><trkpt lat="46.287026606103666" lon="13.12220922367743"><ele>200.0</ele><time>2026-04-04T13:45:40.999Z</time></trkpt><trkpt lat="46.28688347878428" lon="13.122289733058055"><ele>200.0</ele><time>2026-04-04T13:45:42Z</time></trkpt><trkpt lat="46.2867324575523" lon="13.122373090824649"><ele>200.0</ele><time>2026-04-04T13:45:43Z</time></trkpt><trkpt lat="46.28657669715459" lon="13.12244827503753"><ele>200.0</ele><time>2026-04-04T13:45:44Z</time></trkpt><trkpt lat="46.2864219340095" lon="13.122519299895071"><ele>199.33333333333334</ele><time>2026-04-04T13:45:45Z</time></trkpt><trkpt lat="46.28626599158327" lon="13.12259151054946"><ele>198.66666666666669</ele><time>2026-04-04T13:45:46Z</time></trkpt><trkpt lat="46.28611134232686" lon="13.122668511325346"><ele>198.0</ele><time>2026-04-04T13:45:47Z</time></trkpt><trkpt lat="46.28596084104424" lon="13.122712378277928"><ele>198.0</ele><time>2026-04-04T13:45:48Z</time></trkpt><trkpt lat="46.2858168787395" lon="13.12278125060131"><ele>198.0</ele><time>2026-04-04T13:45:49Z</time></trkpt><trkpt lat="46.2856736219838" lon="13.122849785407626"><ele>198.0</ele><time>2026-04-04T13:45:50Z</time></trkpt><trkpt lat="46.285532272227876" lon="13.122917407883815"><ele>198.25</ele><time>2026-04-04T13:45:51Z</time></trkpt><trkpt lat="46.2853923892215" lon="13.122984112382635"><ele>198.5</ele><time>2026-04-04T13:45:52Z</time></trkpt><trkpt lat="46.28525305156294" lon="13.123050472646419"><ele>198.75</ele><time>2026-04-04T13:45:53Z</time></trkpt><trkpt lat="46.28511443263005" lon="13.12311649061477"><ele>199.0</ele><time>2026-04-04T13:45:54Z</time></trkpt><trkpt lat="46.28497992906645" lon="13.123201487331837"><ele>199.25</ele><time>2026-04-04T13:45:55Z</time></trkpt><trkpt lat="46.284839629417036" lon="13.123266092223195"><ele>199.5</ele><time>2026-04-04T13:45:56Z</time></trkpt><trkpt lat="46.28470199817926" lon="13.12333262572205"><ele>199.75</ele><time>2026-04-04T13:45:57Z</time></trkpt><trkpt lat="46.28456635904161" lon="13.123395589778907"><ele>200.0</ele><time>2026-04-04T13:45:58Z</time></trkpt><trkpt lat="46.284430147037796" lon="13.12345806539628"><ele>200.0</ele><time>2026-04-04T13:45:59Z</time></trkpt><trkpt lat="46.28429191441566" lon="13.123522985623234"><ele>200.0</ele><time>2026-04-04T13:46:00Z</time></trkpt><trkpt lat="46.28415433746958" lon="13.123585688829316"><ele>200.0</ele><time>2026-04-04T13:46:01Z</time></trkpt><trkpt lat="46.28402780136146" lon="13.123647191697849"><ele>200.0</ele><time>2026-04-04T13:46:02Z</time></trkpt><trkpt lat="46.28391127028111" lon="13.123704319030018"><ele>199.75</ele><time>2026-04-04T13:46:03Z</time></trkpt><trkpt lat="46.28378643618319" lon="13.123765442351006"><ele>199.5</ele><time>2026-04-04T13:46:04Z</time></trkpt><trkpt lat="46.28365099242881" lon="13.12383120590774"><ele>199.25</ele><time>2026-04-04T13:46:05Z</time></trkpt><trkpt lat="46.28350877346602" lon="13.12389725378342"><ele>199.0</ele><time>2026-04-04T13:46:06Z</time></trkpt><trkpt lat="46.28336156366524" lon="13.123966488385353"><ele>199.0</ele><time>2026-04-04T13:46:07Z</time></trkpt><trkpt lat="46.28321388111986" lon="13.124043196463544"><ele>199.0</ele><time>2026-04-04T13:46:08Z</time></trkpt><trkpt lat="46.28305978313783" lon="13.124096221651357"><ele>199.0</ele><time>2026-04-04T13:46:09Z</time></trkpt><trkpt lat="46.28291190878871" lon="13.124166984857185"><ele>199.25</ele><time>2026-04-04T13:46:10Z</time></trkpt><trkpt lat="46.28276683172711" lon="13.124236409483208"><ele>199.5</ele><time>2026-04-04T13:46:11Z</time></trkpt><trkpt lat="46.282627834474475" lon="13.12430292478393"><ele>199.75</ele><time>2026-04-04T13:46:12Z</time></trkpt><trkpt lat="46.28249303502361" lon="13.124367431162664"><ele>200.0</ele><time>2026-04-04T13:46:13Z</time></trkpt><trkpt lat="46.282363278268804" lon="13.124429524471392"><ele>200.0</ele><time>2026-04-04T13:46:14Z</time></trkpt><trkpt lat="46.28224098057682" lon="13.124488050365203"><ele>200.0</ele><time>2026-04-04T13:46:15Z</time></trkpt><trkpt lat="46.28212592450454" lon="13.124543108883088"><ele>200.0</ele><time>2026-04-04T13:46:16Z</time></trkpt><trkpt lat="46.282017330414135" lon="13.124595169059667"><ele>200.0</ele><time>2026-04-04T13:46:17Z</time></trkpt><trkpt lat="46.281911264663904" lon="13.12464622816977"><ele>200.0</ele><time>2026-04-04T13:46:18Z</time></trkpt><trkpt lat="46.281804489593526" lon="13.124697628754584"><ele>200.0</ele><time>2026-04-04T13:46:19Z</time></trkpt><trkpt lat="46.28169436882701" lon="13.124750639921649"><ele>200.0</ele><time>2026-04-04T13:46:20Z</time></trkpt><trkpt lat="46.28158203804028" lon="13.124805103848505"><ele>200.0</ele><time>2026-04-04T13:46:21Z</time></trkpt><trkpt lat="46.28146862301579" lon="13.124862345178222"><ele>199.75</ele><time>2026-04-04T13:46:22Z</time></trkpt><trkpt lat="46.28135470859196" lon="13.124924616659516"><ele>199.5</ele><time>2026-04-04T13:46:23Z</time></trkpt><trkpt lat="46.281242550217115" lon="13.124987589918122"><ele>199.25</ele><time>2026-04-04T13:46:24Z</time></trkpt><trkpt lat="46.281131122048606" lon="13.12505070639309"><ele>199.0</ele><time>2026-04-04T13:46:25Z</time></trkpt><trkpt lat="46.281019536474204" lon="13.125113912025974"><ele>199.0</ele><time>2026-04-04T13:46:26Z</time></trkpt><trkpt lat="46.2809129080357" lon="13.12519994439579"><ele>199.0</ele><time>2026-04-04T13:46:27Z</time></trkpt><trkpt lat="46.28079795818282" lon="13.125258900959379"><ele>199.0</ele><time>2026-04-04T13:46:28Z</time></trkpt><trkpt lat="46.280682795594444" lon="13.12531755244302"><ele>199.0</ele><time>2026-04-04T13:46:29Z</time></trkpt><trkpt lat="46.28056604259295" lon="13.125373200128251"><ele>198.75</ele><time>2026-04-04T13:46:30Z</time></trkpt><trkpt lat="46.280450358547775" lon="13.125430437125118"><ele>198.5</ele><time>2026-04-04T13:46:31Z</time></trkpt><trkpt lat="46.28033312641122" lon="13.125489261268267"><ele>198.25</ele><time>2026-04-04T13:46:32Z</time></trkpt><trkpt lat="46.28021768253611" lon="13.1255445385729"><ele>198.0</ele><time>2026-04-04T13:46:33Z</time></trkpt><trkpt lat="46.28010835055313" lon="13.125598978575699"><ele>198.0</ele><time>2026-04-04T13:46:34Z</time></trkpt><trkpt lat="46.280007147820676" lon="13.125648612797558"><ele>198.0</ele><time>2026-04-04T13:46:35Z</time></trkpt><trkpt lat="46.27991002763156" lon="13.125693775972346"><ele>198.0</ele><time>2026-04-04T13:46:36Z</time></trkpt><trkpt lat="46.27980469023188" lon="13.125725595287479"><ele>198.0</ele><time>2026-04-04T13:46:37Z</time></trkpt><trkpt lat="46.27970380443979" lon="13.125773048565314"><ele>198.0</ele><time>2026-04-04T13:46:38Z</time></trkpt><trkpt lat="46.27960871510873" lon="13.125817775389589"><ele>197.66666666666666</ele><time>2026-04-04T13:46:39Z</time></trkpt><trkpt lat="46.279522150324034" lon="13.125858492531707"><ele>197.33333333333331</ele><time>2026-04-04T13:46:40Z</time></trkpt><trkpt lat="46.27944202462309" lon="13.125896918747992"><ele>197.0</ele><time>2026-04-04T13:46:41Z</time></trkpt><trkpt lat="46.2793725874562" lon="13.125930589220104"><ele>196.66666666666666</ele><time>2026-04-04T13:46:42Z</time></trkpt><trkpt lat="46.27928081198274" lon="13.125975091661905"><ele>196.33333333333331</ele><time>2026-04-04T13:46:44Z</time></trkpt><trkpt lat="46.279213430930604" lon="13.12600776511732"><ele>196.0</ele><time>2026-04-04T13:46:49Z</time></trkpt><trkpt lat="46.2791506858037" lon="13.126038190403172"><ele>196.0</ele><time>2026-04-04T13:47:30.999Z</time></trkpt><trkpt lat="46.279066773696094" lon="13.126089990247273"><ele>196.0</ele><time>2026-04-04T13:47:33.999Z</time></trkpt><trkpt lat="46.27898111994832" lon="13.126150748604386"><ele>196.0</ele><time>2026-04-04T13:47:36.999Z</time></trkpt><trkpt lat="46.27897620346635" lon="13.126430279963847"><ele>196.0</ele><time>2026-04-04T13:47:38.999Z</time></trkpt><trkpt lat="46.278980869424736" lon="13.126586995261455"><ele>195.8</ele><time>2026-04-04T13:47:39.999Z</time></trkpt><trkpt lat="46.2789907559295" lon="13.126764878179344"><ele>195.60000000000002</ele><time>2026-04-04T13:47:40.999Z</time></trkpt><trkpt lat="46.27899499980194" lon="13.126938774475011"><ele>195.4</ele><time>2026-04-04T13:47:41.999Z</time></trkpt><trkpt lat="46.2789949672032" lon="13.127074709807019"><ele>195.2</ele><time>2026-04-04T13:47:42.999Z</time></trkpt><trkpt lat="46.27899056296313" lon="13.127191517563503"><ele>195.0</ele><time>2026-04-04T13:47:43.999Z</time></trkpt><trkpt lat="46.278991363483094" lon="13.127298244564253"><ele>195.0</ele><time>2026-04-04T13:47:44.999Z</time></trkpt><trkpt lat="46.27899495938172" lon="13.127401164239078"><ele>195.0</ele><time>2026-04-04T13:47:45.999Z</time></trkpt><trkpt lat="46.278994923731226" lon="13.127509006657348"><ele>195.0</ele><time>2026-04-04T13:47:46.999Z</time></trkpt><trkpt lat="46.27899645459233" lon="13.127606944774216"><ele>195.0</ele><time>2026-04-04T13:47:48Z</time></trkpt><trkpt lat="46.278996368695964" lon="13.127717925870567"><ele>195.0</ele><time>2026-04-04T13:47:49Z</time></trkpt><trkpt lat="46.27899642603098" lon="13.127830518035621"><ele>195.0</ele><time>2026-04-04T13:47:50Z</time></trkpt><trkpt lat="46.27900243254608" lon="13.127950745012091"><ele>195.0</ele><time>2026-04-04T13:47:51Z</time></trkpt><trkpt lat="46.27901336761164" lon="13.128076382310626"><ele>195.0</ele><time>2026-04-04T13:47:52Z</time></trkpt><trkpt lat="46.279027141721606" lon="13.12820541673301"><ele>195.0</ele><time>2026-04-04T13:47:53Z</time></trkpt><trkpt lat="46.27903997356416" lon="13.128346258588236"><ele>195.0</ele><time>2026-04-04T13:47:54Z</time></trkpt><trkpt lat="46.27905410924129" lon="13.12850220872298"><ele>195.0</ele><time>2026-04-04T13:47:55Z</time></trkpt><trkpt lat="46.279063073951214" lon="13.128657443316488"><ele>195.2</ele><time>2026-04-04T13:47:56Z</time></trkpt><trkpt lat="46.279065601684785" lon="13.128786357690817"><ele>195.4</ele><time>2026-04-04T13:47:57Z</time></trkpt><trkpt lat="46.27904373602367" lon="13.128899987283607"><ele>195.60000000000002</ele><time>2026-04-04T13:47:58Z</time></trkpt><trkpt lat="46.27902604442844" lon="13.129016781831487"><ele>195.8</ele><time>2026-04-04T13:47:59Z</time></trkpt><trkpt lat="46.278998422640576" lon="13.129112834748934"><ele>196.0</ele><time>2026-04-04T13:48:00Z</time></trkpt><trkpt lat="46.27895662684922" lon="13.129289900743562"><ele>195.8</ele><time>2026-04-04T13:48:02Z</time></trkpt><trkpt lat="46.27890252390966" lon="13.12937536164003"><ele>195.60000000000002</ele><time>2026-04-04T13:48:03Z</time></trkpt><trkpt lat="46.278840738840984" lon="13.129478122771483"><ele>195.4</ele><time>2026-04-04T13:48:04Z</time></trkpt><trkpt lat="46.27877466784706" lon="13.1296159241639"><ele>195.2</ele><time>2026-04-04T13:48:05Z</time></trkpt><trkpt lat="46.2786686621024" lon="13.129738763282846"><ele>195.0</ele><time>2026-04-04T13:48:06Z</time></trkpt><trkpt lat="46.27857353406465" lon="13.12991151350474"><ele>196.25</ele><time>2026-04-04T13:48:07Z</time></trkpt><trkpt lat="46.278470436912485" lon="13.130073678622864"><ele>197.5</ele><time>2026-04-04T13:48:08Z</time></trkpt><trkpt lat="46.278367774587025" lon="13.130237724941281"><ele>198.75</ele><time>2026-04-04T13:48:09Z</time></trkpt><trkpt lat="46.27830114040266" lon="13.130386471031173"><ele>200.0</ele><time>2026-04-04T13:48:10Z</time></trkpt><trkpt lat="46.27824652099268" lon="13.130516116627533"><ele>200.0</ele><time>2026-04-04T13:48:11Z</time></trkpt><trkpt lat="46.2782081987504" lon="13.130613166385649"><ele>200.0</ele><time>2026-04-04T13:48:12Z</time></trkpt><trkpt lat="46.27816891880715" lon="13.130712641571636"><ele>200.0</ele><time>2026-04-04T13:48:14Z</time></trkpt><trkpt lat="46.27811776241617" lon="13.130890081464397"><ele>200.0</ele><time>2026-04-04T13:48:22Z</time></trkpt><trkpt lat="46.278068243185984" lon="13.131035072544876"><ele>200.0</ele><time>2026-04-04T13:48:23Z</time></trkpt><trkpt lat="46.277983579304504" lon="13.131205274085909"><ele>199.33333333333334</ele><time>2026-04-04T13:48:24Z</time></trkpt><trkpt lat="46.27790476278971" lon="13.131420576203924"><ele>198.66666666666669</ele><time>2026-04-04T13:48:25Z</time></trkpt><trkpt lat="46.277821136228226" lon="13.131622277991376"><ele>198.0</ele><time>2026-04-04T13:48:26Z</time></trkpt><trkpt lat="46.27775482496707" lon="13.131808140008411"><ele>199.5</ele><time>2026-04-04T13:48:27Z</time></trkpt><trkpt lat="46.27773410030881" lon="13.131989822670148"><ele>201.0</ele><time>2026-04-04T13:48:28Z</time></trkpt><trkpt lat="46.27772866411895" lon="13.132173896860273"><ele>202.5</ele><time>2026-04-04T13:48:29Z</time></trkpt><trkpt lat="46.27773561641909" lon="13.13238336029767"><ele>204.0</ele><time>2026-04-04T13:48:30Z</time></trkpt><trkpt lat="46.27776259048577" lon="13.132584513950448"><ele>205.0</ele><time>2026-04-04T13:48:31Z</time></trkpt><trkpt lat="46.27778453272603" lon="13.132751402194145"><ele>206.0</ele><time>2026-04-04T13:48:32Z</time></trkpt><trkpt lat="46.277771011058384" lon="13.132919128956349"><ele>207.0</ele><time>2026-04-04T13:48:33Z</time></trkpt><trkpt lat="46.27772326274453" lon="13.133090005726777"><ele>208.0</ele><time>2026-04-04T13:48:34Z</time></trkpt><trkpt lat="46.27766685997788" lon="13.133266215088486"><ele>208.75</ele><time>2026-04-04T13:48:35Z</time></trkpt><trkpt lat="46.27760225364164" lon="13.133443425686307"><ele>209.5</ele><time>2026-04-04T13:48:36Z</time></trkpt><trkpt lat="46.27752980874977" lon="13.133596505856541"><ele>210.25</ele><time>2026-04-04T13:48:37Z</time></trkpt><trkpt lat="46.27744366944484" lon="13.133733823444743"><ele>211.0</ele><time>2026-04-04T13:48:38Z</time></trkpt><trkpt lat="46.27734523726738" lon="13.133861757991184"><ele>211.5</ele><time>2026-04-04T13:48:39Z</time></trkpt><trkpt lat="46.277230864416616" lon="13.133971632763778"><ele>212.0</ele><time>2026-04-04T13:48:40Z</time></trkpt><trkpt lat="46.27711728929787" lon="13.134090003766014"><ele>212.5</ele><time>2026-04-04T13:48:41Z</time></trkpt><trkpt lat="46.27701435436274" lon="13.134225583537976"><ele>213.0</ele><time>2026-04-04T13:48:42Z</time></trkpt><trkpt lat="46.27689562561412" lon="13.134319419717423"><ele>213.0</ele><time>2026-04-04T13:48:43Z</time></trkpt><trkpt lat="46.27678547809761" lon="13.134426088007986"><ele>213.0</ele><time>2026-04-04T13:48:44Z</time></trkpt><trkpt lat="46.27667867356667" lon="13.134524854800345"><ele>213.0</ele><time>2026-04-04T13:48:45Z</time></trkpt><trkpt lat="46.2765828644867" lon="13.134614248718357"><ele>213.0</ele><time>2026-04-04T13:48:46Z</time></trkpt><trkpt lat="46.27651816600037" lon="13.134679724511184"><ele>213.0</ele><time>2026-04-04T13:48:47Z</time></trkpt><trkpt lat="46.276469492899665" lon="13.134795675186412"><ele>213.0</ele><time>2026-04-04T13:48:49Z</time></trkpt><trkpt lat="46.27645185850479" lon="13.134905777204912"><ele>213.0</ele><time>2026-04-04T13:48:51Z</time></trkpt><trkpt lat="46.27637974030902" lon="13.134925952855582"><ele>213.0</ele><time>2026-04-04T13:48:52Z</time></trkpt><trkpt lat="46.276303753041404" lon="13.134976030094007"><ele>213.0</ele><time>2026-04-04T13:48:53Z</time></trkpt><trkpt lat="46.27623593481935" lon="13.1351428272744"><ele>212.66666666666669</ele><time>2026-04-04T13:48:54Z</time></trkpt><trkpt lat="46.276111868322154" lon="13.135239681135557"><ele>212.33333333333334</ele><time>2026-04-04T13:48:55Z</time></trkpt><trkpt lat="46.27598727503832" lon="13.135379216955963"><ele>212.0</ele><time>2026-04-04T13:48:56Z</time></trkpt><trkpt lat="46.27584642846442" lon="13.135524337053686"><ele>212.0</ele><time>2026-04-04T13:48:57Z</time></trkpt><trkpt lat="46.27569554623278" lon="13.135667579664846"><ele>212.0</ele><time>2026-04-04T13:48:58Z</time></trkpt><trkpt lat="46.27554986416436" lon="13.135818839510344"><ele>212.0</ele><time>2026-04-04T13:48:59Z</time></trkpt><trkpt lat="46.27539662460406" lon="13.135933546080572"><ele>212.0</ele><time>2026-04-04T13:49:00Z</time></trkpt><trkpt lat="46.27527182474539" lon="13.136107603613135"><ele>212.0</ele><time>2026-04-04T13:49:01Z</time></trkpt><trkpt lat="46.27513938318907" lon="13.136258849453744"><ele>212.0</ele><time>2026-04-04T13:49:02Z</time></trkpt><trkpt lat="46.27503333553112" lon="13.13642964175192"><ele>211.2</ele><time>2026-04-04T13:49:03Z</time></trkpt><trkpt lat="46.2749470608915" lon="13.13657351680531"><ele>210.39999999999998</ele><time>2026-04-04T13:49:04Z</time></trkpt><trkpt lat="46.27487913075944" lon="13.136681589699936"><ele>209.60000000000002</ele><time>2026-04-04T13:49:05Z</time></trkpt><trkpt lat="46.274838228700524" lon="13.136773227341326"><ele>208.8</ele><time>2026-04-04T13:49:06Z</time></trkpt><trkpt lat="46.27476746890108" lon="13.136823499693564"><ele>208.0</ele><time>2026-04-04T13:49:08Z</time></trkpt><trkpt lat="46.27468783224099" lon="13.136756727428669"><ele>208.0</ele><time>2026-04-04T13:49:09Z</time></trkpt><trkpt lat="46.27461013740696" lon="13.136762486933604"><ele>208.0</ele><time>2026-04-04T13:49:11Z</time></trkpt><trkpt lat="46.274526048885015" lon="13.136879554820371"><ele>208.0</ele><time>2026-04-04T13:49:13Z</time></trkpt><trkpt lat="46.274541134702226" lon="13.137061594066484"><ele>208.0</ele><time>2026-04-04T13:49:14Z</time></trkpt><trkpt lat="46.2745150656143" lon="13.13727411679613"><ele>209.0</ele><time>2026-04-04T13:49:15Z</time></trkpt><trkpt lat="46.274472998674945" lon="13.137565222651045"><ele>210.0</ele><time>2026-04-04T13:49:16Z</time></trkpt><trkpt lat="46.27440321674375" lon="13.137870180750085"><ele>211.0</ele><time>2026-04-04T13:49:17Z</time></trkpt><trkpt lat="46.274364486324714" lon="13.138137098914566"><ele>212.33333333333331</ele><time>2026-04-04T13:49:18Z</time></trkpt><trkpt lat="46.274321803236454" lon="13.138377510857612"><ele>213.66666666666669</ele><time>2026-04-04T13:49:19Z</time></trkpt><trkpt lat="46.27429668737212" lon="13.138600733703615"><ele>215.0</ele><time>2026-04-04T13:49:20Z</time></trkpt><trkpt lat="46.2742983874453" lon="13.138800090353103"><ele>215.0</ele><time>2026-04-04T13:49:21Z</time></trkpt><trkpt lat="46.27433138013456" lon="13.138994859353701"><ele>215.0</ele><time>2026-04-04T13:49:22Z</time></trkpt><trkpt lat="46.274402295830775" lon="13.139192696594607"><ele>215.0</ele><time>2026-04-04T13:49:23Z</time></trkpt><trkpt lat="46.274471428418664" lon="13.139398179090993"><ele>216.5</ele><time>2026-04-04T13:49:24Z</time></trkpt><trkpt lat="46.27451926052038" lon="13.139603471987723"><ele>218.0</ele><time>2026-04-04T13:49:24.999Z</time></trkpt><trkpt lat="46.27453396364121" lon="13.139809619468116"><ele>219.5</ele><time>2026-04-04T13:49:25.999Z</time></trkpt><trkpt lat="46.27452503363574" lon="13.140020017424712"><ele>221.0</ele><time>2026-04-04T13:49:26.999Z</time></trkpt><trkpt lat="46.27449534333756" lon="13.140241798621584"><ele>223.25</ele><time>2026-04-04T13:49:27.999Z</time></trkpt><trkpt lat="46.27446511758408" lon="13.140470502784309"><ele>225.5</ele><time>2026-04-04T13:49:28.999Z</time></trkpt><trkpt lat="46.274444726664335" lon="13.140672551947258"><ele>227.75</ele><time>2026-04-04T13:49:29.999Z</time></trkpt><trkpt lat="46.27444843525842" lon="13.140864438519138"><ele>230.0</ele><time>2026-04-04T13:49:30.999Z</time></trkpt><trkpt lat="46.27449453533859" lon="13.141070594498814"><ele>230.0</ele><time>2026-04-04T13:49:31.999Z</time></trkpt><trkpt lat="46.27454509749197" lon="13.141308935764755"><ele>230.0</ele><time>2026-04-04T13:49:32.999Z</time></trkpt><trkpt lat="46.274609401402024" lon="13.141517267563328"><ele>230.0</ele><time>2026-04-04T13:49:33.999Z</time></trkpt><trkpt lat="46.274630858377726" lon="13.141722054636377"><ele>230.0</ele><time>2026-04-04T13:49:34.999Z</time></trkpt><trkpt lat="46.274628970263166" lon="13.141924382148352"><ele>230.0</ele><time>2026-04-04T13:49:35.999Z</time></trkpt><trkpt lat="46.27465866455382" lon="13.142106903223931"><ele>230.0</ele><time>2026-04-04T13:49:36.999Z</time></trkpt><trkpt lat="46.27473393725689" lon="13.142272877356065"><ele>230.0</ele><time>2026-04-04T13:49:37.999Z</time></trkpt><trkpt lat="46.27483934384749" lon="13.142414521569474"><ele>234.5</ele><time>2026-04-04T13:49:38.999Z</time></trkpt><trkpt lat="46.27496256573691" lon="13.142566464853438"><ele>239.0</ele><time>2026-04-04T13:49:39.999Z</time></trkpt><trkpt lat="46.275069505872786" lon="13.142723731286315"><ele>243.5</ele><time>2026-04-04T13:49:40.999Z</time></trkpt><trkpt lat="46.27516428939626" lon="13.142831632154786"><ele>248.0</ele><time>2026-04-04T13:49:41.999Z</time></trkpt><trkpt lat="46.27524617185747" lon="13.142877573438582"><ele>248.0</ele><time>2026-04-04T13:49:42.999Z</time></trkpt><trkpt lat="46.275315033373154" lon="13.142890597605861"><ele>248.0</ele><time>2026-04-04T13:49:43.999Z</time></trkpt><trkpt lat="46.27539753195078" lon="13.142938400116066"><ele>248.0</ele><time>2026-04-04T13:49:45.999Z</time></trkpt><trkpt lat="46.27539568654768" lon="13.143194438586194"><ele>248.0</ele><time>2026-04-04T13:49:47.999Z</time></trkpt><trkpt lat="46.27535964936644" lon="13.14335655575599"><ele>247.0</ele><time>2026-04-04T13:49:48.999Z</time></trkpt><trkpt lat="46.2753025497476" lon="13.143544116880852"><ele>246.0</ele><time>2026-04-04T13:49:49.999Z</time></trkpt><trkpt lat="46.275213849768335" lon="13.143731799227233"><ele>245.0</ele><time>2026-04-04T13:49:50.999Z</time></trkpt><trkpt lat="46.2750985268788" lon="13.143893229997065"><ele>245.0</ele><time>2026-04-04T13:49:51.999Z</time></trkpt><trkpt lat="46.274967627553586" lon="13.144021890586984"><ele>245.0</ele><time>2026-04-04T13:49:53Z</time></trkpt><trkpt lat="46.27483550987297" lon="13.144120942437524"><ele>245.0</ele><time>2026-04-04T13:49:54Z</time></trkpt><trkpt lat="46.27469208769949" lon="13.144177569619353"><ele>243.33333333333334</ele><time>2026-04-04T13:49:55Z</time></trkpt><trkpt lat="46.27454068690207" lon="13.144221148686857"><ele>241.66666666666669</ele><time>2026-04-04T13:49:56Z</time></trkpt><trkpt lat="46.274366185154776" lon="13.144271281870807"><ele>240.0</ele><time>2026-04-04T13:49:57Z</time></trkpt><trkpt lat="46.27418465745363" lon="13.144345093332618"><ele>240.0</ele><time>2026-04-04T13:49:58Z</time></trkpt><trkpt lat="46.273939742873814" lon="13.144415613125135"><ele>240.0</ele><time>2026-04-04T13:49:59Z</time></trkpt><trkpt lat="46.27371266679765" lon="13.144533190187088"><ele>232.0</ele><time>2026-04-04T13:50:00Z</time></trkpt><trkpt lat="46.2734340205413" lon="13.144610804783142"><ele>224.0</ele><time>2026-04-04T13:50:01Z</time></trkpt><trkpt lat="46.27318491388279" lon="13.14470993876041"><ele>217.5</ele><time>2026-04-04T13:50:02Z</time></trkpt><trkpt lat="46.27294215279429" lon="13.144792710846662"><ele>211.0</ele><time>2026-04-04T13:50:03Z</time></trkpt><trkpt lat="46.27272002140703" lon="13.144879963733354"><ele>216.0</ele><time>2026-04-04T13:50:04Z</time></trkpt><trkpt lat="46.27250118358062" lon="13.144963422918124"><ele>221.0</ele><time>2026-04-04T13:50:05Z</time></trkpt><trkpt lat="46.27227244253344" lon="13.145048900223205"><ele>221.0</ele><time>2026-04-04T13:50:06Z</time></trkpt><trkpt lat="46.2720439745656" lon="13.145170483256859"><ele>221.0</ele><time>2026-04-04T13:50:07Z</time></trkpt><trkpt lat="46.27180455067615" lon="13.145321883989759"><ele>221.0</ele><time>2026-04-04T13:50:08Z</time></trkpt><trkpt lat="46.27154702974919" lon="13.145467778722997"><ele>221.0</ele><time>2026-04-04T13:50:09Z</time></trkpt><trkpt lat="46.271281062413145" lon="13.145635612538292"><ele>227.5</ele><time>2026-04-04T13:50:10Z</time></trkpt><trkpt lat="46.27100787226042" lon="13.145807890464681"><ele>234.0</ele><time>2026-04-04T13:50:11Z</time></trkpt><trkpt lat="46.27076223659148" lon="13.145962196550611"><ele>225.0</ele><time>2026-04-04T13:50:12Z</time></trkpt><trkpt lat="46.27053253260398" lon="13.146110274172862"><ele>216.0</ele><time>2026-04-04T13:50:13Z</time></trkpt><trkpt lat="46.27030019435797" lon="13.146223720755932"><ele>216.0</ele><time>2026-04-04T13:50:14Z</time></trkpt><trkpt lat="46.27006101767547" lon="13.146300649124683"><ele>216.0</ele><time>2026-04-04T13:50:15Z</time></trkpt><trkpt lat="46.269825484800904" lon="13.146363014204676"><ele>208.5</ele><time>2026-04-04T13:50:16Z</time></trkpt><trkpt lat="46.269596962295225" lon="13.146424188425412"><ele>201.0</ele><time>2026-04-04T13:50:17Z</time></trkpt><trkpt lat="46.269382444517376" lon="13.146535790450724"><ele>212.0</ele><time>2026-04-04T13:50:18Z</time></trkpt><trkpt lat="46.26916896653202" lon="13.146688682130156"><ele>223.0</ele><time>2026-04-04T13:50:19Z</time></trkpt><trkpt lat="46.26895614024312" lon="13.146863026317"><ele>218.0</ele><time>2026-04-04T13:50:20Z</time></trkpt><trkpt lat="46.2687499758932" lon="13.147014749161043"><ele>213.0</ele><time>2026-04-04T13:50:21Z</time></trkpt><trkpt lat="46.26853862117195" lon="13.147124669033966"><ele>213.0</ele><time>2026-04-04T13:50:22Z</time></trkpt><trkpt lat="46.26831142549233" lon="13.147172191937104"><ele>213.0</ele><time>2026-04-04T13:50:23Z</time></trkpt><trkpt lat="46.268068553288856" lon="13.147187625433588"><ele>210.5</ele><time>2026-04-04T13:50:24Z</time></trkpt><trkpt lat="46.267812713488944" lon="13.147215846705132"><ele>208.0</ele><time>2026-04-04T13:50:25Z</time></trkpt><trkpt lat="46.26754767001865" lon="13.147220541341548"><ele>208.0</ele><time>2026-04-04T13:50:26Z</time></trkpt><trkpt lat="46.26728010406765" lon="13.147227583805495"><ele>208.0</ele><time>2026-04-04T13:50:27Z</time></trkpt><trkpt lat="46.26702536396695" lon="13.14720700542558"><ele>209.0</ele><time>2026-04-04T13:50:28Z</time></trkpt><trkpt lat="46.26679536302725" lon="13.147208888063126"><ele>210.0</ele><time>2026-04-04T13:50:29Z</time></trkpt><trkpt lat="46.266577916442515" lon="13.147207888893123"><ele>211.0</ele><time>2026-04-04T13:50:30Z</time></trkpt><trkpt lat="46.26638555342255" lon="13.147170753412762"><ele>211.66666666666666</ele><time>2026-04-04T13:50:31Z</time></trkpt><trkpt lat="46.26620008395549" lon="13.147075416332198"><ele>212.33333333333331</ele><time>2026-04-04T13:50:32Z</time></trkpt><trkpt lat="46.26601378162803" lon="13.146945961883462"><ele>213.0</ele><time>2026-04-04T13:50:33Z</time></trkpt><trkpt lat="46.26580843921406" lon="13.146840227548505"><ele>212.0</ele><time>2026-04-04T13:50:34Z</time></trkpt><trkpt lat="46.26560751697868" lon="13.146721223188775"><ele>211.0</ele><time>2026-04-04T13:50:35Z</time></trkpt><trkpt lat="46.26540151653399" lon="13.146627513951772"><ele>210.0</ele><time>2026-04-04T13:50:36Z</time></trkpt><trkpt lat="46.26519599209082" lon="13.146537698627144"><ele>210.0</ele><time>2026-04-04T13:50:37Z</time></trkpt><trkpt lat="46.26498786689959" lon="13.146482791292122"><ele>210.0</ele><time>2026-04-04T13:50:38Z</time></trkpt><trkpt lat="46.26477954040832" lon="13.146445251116381"><ele>210.0</ele><time>2026-04-04T13:50:39Z</time></trkpt><trkpt lat="46.264566537219906" lon="13.146425057524969"><ele>209.33333333333331</ele><time>2026-04-04T13:50:40Z</time></trkpt><trkpt lat="46.264352370578" lon="13.146422002954282"><ele>208.66666666666666</ele><time>2026-04-04T13:50:41Z</time></trkpt><trkpt lat="46.26413405552766" lon="13.146441637692883"><ele>208.0</ele><time>2026-04-04T13:50:42Z</time></trkpt><trkpt lat="46.263911362307354" lon="13.146467594153929"><ele>208.0</ele><time>2026-04-04T13:50:43Z</time></trkpt><trkpt lat="46.26368550074586" lon="13.146493919913123"><ele>208.0</ele><time>2026-04-04T13:50:44Z</time></trkpt><trkpt lat="46.263458596010445" lon="13.146595688789985"><ele>211.0</ele><time>2026-04-04T13:50:45Z</time></trkpt><trkpt lat="46.26321985941387" lon="13.146646182461692"><ele>214.0</ele><time>2026-04-04T13:50:46Z</time></trkpt><trkpt lat="46.26297165127382" lon="13.146689118615551"><ele>214.0</ele><time>2026-04-04T13:50:47Z</time></trkpt><trkpt lat="46.26272129626594" lon="13.146737681985996"><ele>214.0</ele><time>2026-04-04T13:50:48Z</time></trkpt><trkpt lat="46.26246942946057" lon="13.146798742414354"><ele>213.5</ele><time>2026-04-04T13:50:49Z</time></trkpt><trkpt lat="46.262219054947636" lon="13.146873026142446"><ele>213.0</ele><time>2026-04-04T13:50:50Z</time></trkpt><trkpt lat="46.26197002967253" lon="13.146959928939314"><ele>213.0</ele><time>2026-04-04T13:50:51Z</time></trkpt><trkpt lat="46.26172728286335" lon="13.147063852515897"><ele>213.0</ele><time>2026-04-04T13:50:52Z</time></trkpt><trkpt lat="46.26149488718748" lon="13.147176929813563"><ele>213.33333333333331</ele><time>2026-04-04T13:50:53Z</time></trkpt><trkpt lat="46.26128204298541" lon="13.147290479415524"><ele>213.66666666666666</ele><time>2026-04-04T13:50:54Z</time></trkpt><trkpt lat="46.26107951010496" lon="13.147392011360918"><ele>214.0</ele><time>2026-04-04T13:50:55Z</time></trkpt><trkpt lat="46.260886705212386" lon="13.147477287175384"><ele>214.0</ele><time>2026-04-04T13:50:56Z</time></trkpt><trkpt lat="46.26070959070128" lon="13.147547413259494"><ele>214.0</ele><time>2026-04-04T13:50:57Z</time></trkpt><trkpt lat="46.26054370145723" lon="13.147601976402532"><ele>214.0</ele><time>2026-04-04T13:50:58Z</time></trkpt><trkpt lat="46.260382426843236" lon="13.14763431744664"><ele>213.33333333333331</ele><time>2026-04-04T13:50:59Z</time></trkpt><trkpt lat="46.26022401124449" lon="13.14765197160063"><ele>212.66666666666669</ele><time>2026-04-04T13:51:00Z</time></trkpt><trkpt lat="46.26006195904761" lon="13.147669881871343"><ele>212.0</ele><time>2026-04-04T13:51:01Z</time></trkpt><trkpt lat="46.259894917901875" lon="13.14767665730849"><ele>212.66666666666669</ele><time>2026-04-04T13:51:02Z</time></trkpt><trkpt lat="46.25972728104151" lon="13.14767482025204"><ele>213.33333333333331</ele><time>2026-04-04T13:51:03Z</time></trkpt><trkpt lat="46.259562152796654" lon="13.147669527515328"><ele>214.0</ele><time>2026-04-04T13:51:04Z</time></trkpt><trkpt lat="46.25940481295154" lon="13.147663421149542"><ele>214.0</ele><time>2026-04-04T13:51:05Z</time></trkpt><trkpt lat="46.2592592145158" lon="13.14766463793579"><ele>214.0</ele><time>2026-04-04T13:51:06Z</time></trkpt><trkpt lat="46.25912047327646" lon="13.147668136918808"><ele>214.0</ele><time>2026-04-04T13:51:07Z</time></trkpt><trkpt lat="46.25897795384273" lon="13.147672484013968"><ele>214.0</ele><time>2026-04-04T13:51:08Z</time></trkpt><trkpt lat="46.258824515289845" lon="13.147678966047748"><ele>212.0</ele><time>2026-04-04T13:51:09Z</time></trkpt><trkpt lat="46.25866586343637" lon="13.1476865368965"><ele>210.0</ele><time>2026-04-04T13:51:10Z</time></trkpt><trkpt lat="46.25850550386375" lon="13.1476945972832"><ele>208.0</ele><time>2026-04-04T13:51:11Z</time></trkpt><trkpt lat="46.258341518687544" lon="13.147702169413915"><ele>208.0</ele><time>2026-04-04T13:51:12Z</time></trkpt><trkpt lat="46.25817327773016" lon="13.147708868771513"><ele>208.0</ele><time>2026-04-04T13:51:13Z</time></trkpt><trkpt lat="46.257997273221925" lon="13.147717633262504"><ele>208.0</ele><time>2026-04-04T13:51:14Z</time></trkpt><trkpt lat="46.257809273788304" lon="13.147729237301766"><ele>207.0</ele><time>2026-04-04T13:51:15Z</time></trkpt><trkpt lat="46.25761671989979" lon="13.147737032172566"><ele>206.0</ele><time>2026-04-04T13:51:16Z</time></trkpt><trkpt lat="46.25742194532662" lon="13.14774605777377"><ele>205.0</ele><time>2026-04-04T13:51:17Z</time></trkpt><trkpt lat="46.2572253240175" lon="13.147752945978942"><ele>205.0</ele><time>2026-04-04T13:51:18Z</time></trkpt><trkpt lat="46.25702708731918" lon="13.147755225060308"><ele>205.0</ele><time>2026-04-04T13:51:19Z</time></trkpt><trkpt lat="46.256827391783474" lon="13.147761270795275"><ele>205.0</ele><time>2026-04-04T13:51:20Z</time></trkpt><trkpt lat="46.256630757935724" lon="13.147753384156559"><ele>205.33333333333331</ele><time>2026-04-04T13:51:21Z</time></trkpt><trkpt lat="46.25643703237823" lon="13.14772072103171"><ele>205.66666666666669</ele><time>2026-04-04T13:51:22Z</time></trkpt><trkpt lat="46.25624903813884" lon="13.147670762633533"><ele>206.0</ele><time>2026-04-04T13:51:23Z</time></trkpt><trkpt lat="46.25606682753917" lon="13.147626185215751"><ele>206.0</ele><time>2026-04-04T13:51:24Z</time></trkpt><trkpt lat="46.25588601283104" lon="13.147592227273925"><ele>206.0</ele><time>2026-04-04T13:51:25Z</time></trkpt><trkpt lat="46.25570531687281" lon="13.147566929296536"><ele>206.0</ele><time>2026-04-04T13:51:26Z</time></trkpt><trkpt lat="46.25552291075749" lon="13.147550051241382"><ele>204.33333333333334</ele><time>2026-04-04T13:51:27Z</time></trkpt><trkpt lat="46.25533295292206" lon="13.147537842996547"><ele>202.66666666666669</ele><time>2026-04-04T13:51:28Z</time></trkpt><trkpt lat="46.255131501369604" lon="13.147527280961313"><ele>201.0</ele><time>2026-04-04T13:51:28.999Z</time></trkpt><trkpt lat="46.254922069043666" lon="13.147513409585773"><ele>201.0</ele><time>2026-04-04T13:51:29.999Z</time></trkpt><trkpt lat="46.25470556190258" lon="13.147495635213824"><ele>201.0</ele><time>2026-04-04T13:51:30.999Z</time></trkpt><trkpt lat="46.25448409011541" lon="13.14748266588867"><ele>201.0</ele><time>2026-04-04T13:51:31.999Z</time></trkpt><trkpt lat="46.254261906795065" lon="13.147473172962018"><ele>201.0</ele><time>2026-04-04T13:51:32.999Z</time></trkpt><trkpt lat="46.254041532477046" lon="13.147461545585859"><ele>201.0</ele><time>2026-04-04T13:51:33.999Z</time></trkpt><trkpt lat="46.25382309984827" lon="13.147448119798707"><ele>201.0</ele><time>2026-04-04T13:51:34.999Z</time></trkpt><trkpt lat="46.25360941082847" lon="13.147433209120027"><ele>199.66666666666669</ele><time>2026-04-04T13:51:35.999Z</time></trkpt><trkpt lat="46.25339802444519" lon="13.147418253250105"><ele>198.33333333333334</ele><time>2026-04-04T13:51:36.999Z</time></trkpt><trkpt lat="46.25318839148054" lon="13.147406388195547"><ele>197.0</ele><time>2026-04-04T13:51:37.999Z</time></trkpt><trkpt lat="46.25298073471952" lon="13.147406165655047"><ele>196.0</ele><time>2026-04-04T13:51:38.999Z</time></trkpt><trkpt lat="46.252777473008784" lon="13.147425998074207"><ele>195.0</ele><time>2026-04-04T13:51:39.999Z</time></trkpt><trkpt lat="46.252579936021554" lon="13.147455987400573"><ele>194.0</ele><time>2026-04-04T13:51:40.999Z</time></trkpt><trkpt lat="46.252386020343295" lon="13.147481677217641"><ele>194.0</ele><time>2026-04-04T13:51:41.999Z</time></trkpt><trkpt lat="46.25219528476829" lon="13.147511559502554"><ele>194.0</ele><time>2026-04-04T13:51:42.999Z</time></trkpt><trkpt lat="46.25200558521097" lon="13.147552077987443"><ele>194.0</ele><time>2026-04-04T13:51:43.999Z</time></trkpt><trkpt lat="46.251811366283555" lon="13.147602834936258"><ele>194.0</ele><time>2026-04-04T13:51:44.999Z</time></trkpt><trkpt lat="46.251613676628295" lon="13.147683509815428"><ele>194.0</ele><time>2026-04-04T13:51:45.999Z</time></trkpt><trkpt lat="46.25140546522804" lon="13.147798955502022"><ele>194.0</ele><time>2026-04-04T13:51:46.999Z</time></trkpt><trkpt lat="46.25117777974207" lon="13.147914277911743"><ele>192.5</ele><time>2026-04-04T13:51:47.999Z</time></trkpt><trkpt lat="46.2509394196785" lon="13.14804338624015"><ele>191.0</ele><time>2026-04-04T13:51:48.999Z</time></trkpt><trkpt lat="46.25068951961326" lon="13.148131573801637"><ele>192.0</ele><time>2026-04-04T13:51:49.999Z</time></trkpt><trkpt lat="46.250449506550254" lon="13.148266522755591"><ele>193.0</ele><time>2026-04-04T13:51:50.999Z</time></trkpt><trkpt lat="46.25021361435061" lon="13.148407242405021"><ele>193.0</ele><time>2026-04-04T13:51:51.999Z</time></trkpt><trkpt lat="46.24998408016641" lon="13.148562707615772"><ele>193.0</ele><time>2026-04-04T13:51:52.999Z</time></trkpt><trkpt lat="46.24976461941973" lon="13.148738052873759"><ele>192.5</ele><time>2026-04-04T13:51:53.999Z</time></trkpt><trkpt lat="46.24954964877317" lon="13.14893260585707"><ele>192.0</ele><time>2026-04-04T13:51:54.999Z</time></trkpt><trkpt lat="46.2493337109606" lon="13.149136242200887"><ele>193.5</ele><time>2026-04-04T13:51:55.999Z</time></trkpt><trkpt lat="46.24912074820176" lon="13.14934327709113"><ele>195.0</ele><time>2026-04-04T13:51:56.999Z</time></trkpt><trkpt lat="46.24891239501598" lon="13.149547689778169"><ele>197.0</ele><time>2026-04-04T13:51:57.999Z</time></trkpt><trkpt lat="46.2487078217428" lon="13.149751412736398"><ele>199.0</ele><time>2026-04-04T13:51:59Z</time></trkpt><trkpt lat="46.24850933548923" lon="13.149949587985967"><ele>200.0</ele><time>2026-04-04T13:52:00Z</time></trkpt><trkpt lat="46.2483196357872" lon="13.15013899045167"><ele>201.0</ele><time>2026-04-04T13:52:01Z</time></trkpt><trkpt lat="46.248136821463255" lon="13.150324280655262"><ele>201.33333333333331</ele><time>2026-04-04T13:52:02Z</time></trkpt><trkpt lat="46.24796060856649" lon="13.150505861633619"><ele>201.66666666666666</ele><time>2026-04-04T13:52:03Z</time></trkpt><trkpt lat="46.2477898849015" lon="13.150681000671218"><ele>202.0</ele><time>2026-04-04T13:52:04Z</time></trkpt><trkpt lat="46.24762066038583" lon="13.150852410145001"><ele>204.66666666666666</ele><time>2026-04-04T13:52:05Z</time></trkpt><trkpt lat="46.247454995530745" lon="13.151020804031166"><ele>207.33333333333331</ele><time>2026-04-04T13:52:06Z</time></trkpt><trkpt lat="46.24729230758242" lon="13.151186959754858"><ele>210.0</ele><time>2026-04-04T13:52:07Z</time></trkpt><trkpt lat="46.247133628939245" lon="13.151348837140613"><ele>211.33333333333331</ele><time>2026-04-04T13:52:08Z</time></trkpt><trkpt lat="46.246978578988376" lon="13.151506741403129"><ele>212.66666666666666</ele><time>2026-04-04T13:52:09Z</time></trkpt><trkpt lat="46.246826938934866" lon="13.151660831320662"><ele>214.0</ele><time>2026-04-04T13:52:10Z</time></trkpt><trkpt lat="46.24667942304778" lon="13.151810297211474"><ele>215.0</ele><time>2026-04-04T13:52:11Z</time></trkpt><trkpt lat="46.24653329357371" lon="13.151958356582385"><ele>216.0</ele><time>2026-04-04T13:52:12Z</time></trkpt><trkpt lat="46.246381078426246" lon="13.152092944308828"><ele>217.0</ele><time>2026-04-04T13:52:13Z</time></trkpt><trkpt lat="46.246225795003134" lon="13.152221413742781"><ele>217.0</ele><time>2026-04-04T13:52:14Z</time></trkpt><trkpt lat="46.246069172094884" lon="13.152340903390742"><ele>217.0</ele><time>2026-04-04T13:52:15Z</time></trkpt><trkpt lat="46.24591331763168" lon="13.15244897673458"><ele>217.0</ele><time>2026-04-04T13:52:16Z</time></trkpt><trkpt lat="46.245764399175144" lon="13.152547018459071"><ele>216.66666666666666</ele><time>2026-04-04T13:52:17Z</time></trkpt><trkpt lat="46.2456229354423" lon="13.15263375369385"><ele>216.33333333333331</ele><time>2026-04-04T13:52:18Z</time></trkpt><trkpt lat="46.245484539714575" lon="13.152715307618267"><ele>216.0</ele><time>2026-04-04T13:52:19Z</time></trkpt><trkpt lat="46.24534540164544" lon="13.152793700154287"><ele>216.0</ele><time>2026-04-04T13:52:20Z</time></trkpt><trkpt lat="46.245200488890454" lon="13.152864163856071"><ele>216.0</ele><time>2026-04-04T13:52:21Z</time></trkpt><trkpt lat="46.245056410500936" lon="13.152943133963232"><ele>216.0</ele><time>2026-04-04T13:52:22Z</time></trkpt><trkpt lat="46.244918482555754" lon="13.153053784091108"><ele>216.0</ele><time>2026-04-04T13:52:23Z</time></trkpt><trkpt lat="46.24479809530869" lon="13.153202249061037"><ele>216.0</ele><time>2026-04-04T13:52:24Z</time></trkpt><trkpt lat="46.24468238043544" lon="13.15335007296374"><ele>216.0</ele><time>2026-04-04T13:52:25Z</time></trkpt><trkpt lat="46.24457181032381" lon="13.15347787501305"><ele>215.60000000000002</ele><time>2026-04-04T13:52:26Z</time></trkpt><trkpt lat="46.24445517618857" lon="13.153569450029062"><ele>215.20000000000002</ele><time>2026-04-04T13:52:27Z</time></trkpt><trkpt lat="46.244347889022926" lon="13.153649329508129"><ele>214.79999999999998</ele><time>2026-04-04T13:52:28Z</time></trkpt><trkpt lat="46.24425915814806" lon="13.153713185763309"><ele>214.39999999999998</ele><time>2026-04-04T13:52:29Z</time></trkpt><trkpt lat="46.24418648370914" lon="13.15376494314208"><ele>214.0</ele><time>2026-04-04T13:52:30Z</time></trkpt><trkpt lat="46.24412196534772" lon="13.153817399181367"><ele>213.99999999999997</ele><time>2026-04-04T13:52:31Z</time></trkpt><trkpt lat="46.244040028598114" lon="13.153807128713536"><ele>214.0</ele><time>2026-04-04T13:52:32Z</time></trkpt><trkpt lat="46.24394031219154" lon="13.153791720306575"><ele>214.0</ele><time>2026-04-04T13:52:33Z</time></trkpt><trkpt lat="46.24385917803872" lon="13.153794690745913"><ele>214.0</ele><time>2026-04-04T13:52:34Z</time></trkpt><trkpt lat="46.24377814961477" lon="13.15379311387211"><ele>213.99999999999997</ele><time>2026-04-04T13:52:35Z</time></trkpt><trkpt lat="46.243699645130214" lon="13.153783471660024"><ele>214.0</ele><time>2026-04-04T13:52:36Z</time></trkpt><trkpt lat="46.2436097597318" lon="13.153745311795575"><ele>214.2</ele><time>2026-04-04T13:52:37Z</time></trkpt><trkpt lat="46.243513842611655" lon="13.153764760897003"><ele>214.39999999999998</ele><time>2026-04-04T13:52:38Z</time></trkpt><trkpt lat="46.243422472391394" lon="13.153787706680577"><ele>214.6</ele><time>2026-04-04T13:52:39Z</time></trkpt><trkpt lat="46.243331291038956" lon="13.15381137489959"><ele>214.8</ele><time>2026-04-04T13:52:40Z</time></trkpt><trkpt lat="46.243240269336" lon="13.15383696164951"><ele>215.0</ele><time>2026-04-04T13:52:41Z</time></trkpt><trkpt lat="46.24314800766174" lon="13.153861651998206"><ele>216.2</ele><time>2026-04-04T13:52:42Z</time></trkpt><trkpt lat="46.24305382026807" lon="13.153883278142484"><ele>217.4</ele><time>2026-04-04T13:52:43Z</time></trkpt><trkpt lat="46.24296235782121" lon="13.153889772068577"><ele>218.60000000000002</ele><time>2026-04-04T13:52:44Z</time></trkpt><trkpt lat="46.24286452191968" lon="13.153895312172144"><ele>219.8</ele><time>2026-04-04T13:52:45Z</time></trkpt><trkpt lat="46.24276168511585" lon="13.153902374866206"><ele>221.0</ele><time>2026-04-04T13:52:46Z</time></trkpt><trkpt lat="46.242655623932144" lon="13.153925830791344"><ele>221.0</ele><time>2026-04-04T13:52:47Z</time></trkpt><trkpt lat="46.2425598146165" lon="13.15396676007727"><ele>221.00000000000003</ele><time>2026-04-04T13:52:48Z</time></trkpt><trkpt lat="46.242471673176645" lon="13.154007004116046"><ele>221.00000000000003</ele><time>2026-04-04T13:52:49Z</time></trkpt><trkpt lat="46.242385947205236" lon="13.154047487390907"><ele>221.0</ele><time>2026-04-04T13:52:50Z</time></trkpt><trkpt lat="46.24230394062219" lon="13.15409179409694"><ele>221.0</ele><time>2026-04-04T13:52:51Z</time></trkpt><trkpt lat="46.24222524957967" lon="13.154143385220245"><ele>221.50000000000003</ele><time>2026-04-04T13:52:52Z</time></trkpt><trkpt lat="46.24214985675919" lon="13.15419670314039"><ele>222.0</ele><time>2026-04-04T13:52:53Z</time></trkpt><trkpt lat="46.24207428536267" lon="13.154250022167618"><ele>222.5</ele><time>2026-04-04T13:52:54Z</time></trkpt><trkpt lat="46.24199800238873" lon="13.15429531140893"><ele>223.0</ele><time>2026-04-04T13:52:55Z</time></trkpt><trkpt lat="46.24192613415452" lon="13.154327681711107"><ele>223.50000000000003</ele><time>2026-04-04T13:52:56Z</time></trkpt><trkpt lat="46.24184715465196" lon="13.154359045408123"><ele>224.0</ele><time>2026-04-04T13:52:57Z</time></trkpt><trkpt lat="46.241765735003014" lon="13.154386241858184"><ele>224.00000000000003</ele><time>2026-04-04T13:52:58Z</time></trkpt><trkpt lat="46.2416831054525" lon="13.154409300181177"><ele>224.0</ele><time>2026-04-04T13:52:59Z</time></trkpt><trkpt lat="46.24160018872021" lon="13.15443301258558"><ele>224.0</ele><time>2026-04-04T13:53:00Z</time></trkpt><trkpt lat="46.24151541539042" lon="13.15446437087456"><ele>224.0</ele><time>2026-04-04T13:53:01Z</time></trkpt><trkpt lat="46.2414287444164" lon="13.1545038667925"><ele>224.00000000000003</ele><time>2026-04-04T13:53:02Z</time></trkpt><trkpt lat="46.24134262721184" lon="13.154548036587997"><ele>224.0</ele><time>2026-04-04T13:53:03Z</time></trkpt><trkpt lat="46.24125931512311" lon="13.154589646864517"><ele>224.66666666666669</ele><time>2026-04-04T13:53:04Z</time></trkpt><trkpt lat="46.2411707003177" lon="13.154633082241494"><ele>225.33333333333334</ele><time>2026-04-04T13:53:05Z</time></trkpt><trkpt lat="46.241084672201026" lon="13.154675249726257"><ele>226.0</ele><time>2026-04-04T13:53:06Z</time></trkpt><trkpt lat="46.24100020340982" lon="13.15471667871001"><ele>226.66666666666669</ele><time>2026-04-04T13:53:07Z</time></trkpt><trkpt lat="46.24091788290191" lon="13.15476151271021"><ele>227.33333333333334</ele><time>2026-04-04T13:53:08Z</time></trkpt><trkpt lat="46.240835648180266" lon="13.15480629997636"><ele>228.0</ele><time>2026-04-04T13:53:09Z</time></trkpt><trkpt lat="46.240753729529025" lon="13.154850915103511"><ele>226.0</ele><time>2026-04-04T13:53:10Z</time></trkpt><trkpt lat="46.24067218137744" lon="13.154893796098753"><ele>224.0</ele><time>2026-04-04T13:53:11Z</time></trkpt><trkpt lat="46.24059029768827" lon="13.154934862550494"><ele>222.0</ele><time>2026-04-04T13:53:12Z</time></trkpt><trkpt lat="46.240507350760225" lon="13.154971262895712"><ele>220.0</ele><time>2026-04-04T13:53:13Z</time></trkpt><trkpt lat="46.24041954816223" lon="13.155009966040696"><ele>218.0</ele><time>2026-04-04T13:53:14Z</time></trkpt><trkpt lat="46.240330174175405" lon="13.155049610001514"><ele>216.0</ele><time>2026-04-04T13:53:15Z</time></trkpt><trkpt lat="46.240244204004945" lon="13.155097470685655"><ele>215.16666666666666</ele><time>2026-04-04T13:53:16Z</time></trkpt><trkpt lat="46.24016119053311" lon="13.155148885357097"><ele>214.33333333333331</ele><time>2026-04-04T13:53:17Z</time></trkpt><trkpt lat="46.24007904249093" lon="13.155189319362176"><ele>213.5</ele><time>2026-04-04T13:53:18Z</time></trkpt><trkpt lat="46.239996385965426" lon="13.155226003259177"><ele>212.66666666666666</ele><time>2026-04-04T13:53:19Z</time></trkpt><trkpt lat="46.23991600374532" lon="13.155265219494275"><ele>211.83333333333331</ele><time>2026-04-04T13:53:20Z</time></trkpt><trkpt lat="46.23983458583009" lon="13.155306532630371"><ele>211.0</ele><time>2026-04-04T13:53:21Z</time></trkpt><trkpt lat="46.23975509771698" lon="13.155346807036269"><ele>209.99999999999997</ele><time>2026-04-04T13:53:22Z</time></trkpt><trkpt lat="46.2396716392215" lon="13.155387749233043"><ele>209.0</ele><time>2026-04-04T13:53:23Z</time></trkpt><trkpt lat="46.23959230295482" lon="13.155426289467025"><ele>208.0</ele><time>2026-04-04T13:53:24Z</time></trkpt><trkpt lat="46.239512258239586" lon="13.155463233176373"><ele>207.0</ele><time>2026-04-04T13:53:25Z</time></trkpt><trkpt lat="46.23943157805336" lon="13.155500470189686"><ele>205.99999999999997</ele><time>2026-04-04T13:53:26Z</time></trkpt><trkpt lat="46.23934798360177" lon="13.155537631291539"><ele>205.0</ele><time>2026-04-04T13:53:27Z</time></trkpt><trkpt lat="46.23926823100664" lon="13.15557253844809"><ele>204.99999999999997</ele><time>2026-04-04T13:53:28Z</time></trkpt><trkpt lat="46.239190071066055" lon="13.155624954125804"><ele>205.0</ele><time>2026-04-04T13:53:29Z</time></trkpt><trkpt lat="46.23910642262397" lon="13.155634246271628"><ele>205.0</ele><time>2026-04-04T13:53:30Z</time></trkpt><trkpt lat="46.239022851977545" lon="13.15565462231724"><ele>205.0</ele><time>2026-04-04T13:53:31Z</time></trkpt><trkpt lat="46.238941817353016" lon="13.15568453184382"><ele>204.99999999999997</ele><time>2026-04-04T13:53:31.999Z</time></trkpt><trkpt lat="46.23885082432891" lon="13.155692603511032"><ele>205.0</ele><time>2026-04-04T13:53:32.999Z</time></trkpt><trkpt lat="46.238765208847596" lon="13.15571923416382"><ele>205.2</ele><time>2026-04-04T13:53:33.999Z</time></trkpt><trkpt lat="46.23868046386353" lon="13.155747513642511"><ele>205.4</ele><time>2026-04-04T13:53:34.999Z</time></trkpt><trkpt lat="46.23859200055356" lon="13.155788843976909"><ele>205.60000000000002</ele><time>2026-04-04T13:53:35.999Z</time></trkpt><trkpt lat="46.23850231828453" lon="13.155848741507777"><ele>205.8</ele><time>2026-04-04T13:53:36.999Z</time></trkpt><trkpt lat="46.23841904315776" lon="13.15592479343949"><ele>206.0</ele><time>2026-04-04T13:53:37.999Z</time></trkpt><trkpt lat="46.23833583792357" lon="13.156000778867481"><ele>206.0</ele><time>2026-04-04T13:53:38.999Z</time></trkpt><trkpt lat="46.238261046471735" lon="13.15609671903385"><ele>206.0</ele><time>2026-04-04T13:53:39.999Z</time></trkpt><trkpt lat="46.23817703640209" lon="13.156172151184942"><ele>206.0</ele><time>2026-04-04T13:53:40.999Z</time></trkpt><trkpt lat="46.238081184349646" lon="13.156232407583257"><ele>206.0</ele><time>2026-04-04T13:53:41.999Z</time></trkpt><trkpt lat="46.23799174253178" lon="13.156314809337674"><ele>206.0</ele><time>2026-04-04T13:53:42.999Z</time></trkpt><trkpt lat="46.23790330438811" lon="13.156396928661994"><ele>205.8</ele><time>2026-04-04T13:53:43.999Z</time></trkpt><trkpt lat="46.23781448298844" lon="13.156480867700527"><ele>205.60000000000002</ele><time>2026-04-04T13:53:44.999Z</time></trkpt><trkpt lat="46.237730302924746" lon="13.156561754659847"><ele>205.4</ele><time>2026-04-04T13:53:45.999Z</time></trkpt><trkpt lat="46.237646204194874" lon="13.15664486326771"><ele>205.2</ele><time>2026-04-04T13:53:46.999Z</time></trkpt><trkpt lat="46.237564720093275" lon="13.156728020255008"><ele>205.0</ele><time>2026-04-04T13:53:47.999Z</time></trkpt><trkpt lat="46.237482770693234" lon="13.156817723190125"><ele>205.0</ele><time>2026-04-04T13:53:48.999Z</time></trkpt><trkpt lat="46.23740377236093" lon="13.156910885937434"><ele>205.0</ele><time>2026-04-04T13:53:49.999Z</time></trkpt><trkpt lat="46.23732683896544" lon="13.1570048662908"><ele>205.0</ele><time>2026-04-04T13:53:50.999Z</time></trkpt><trkpt lat="46.23725040427745" lon="13.157099788951482"><ele>205.0</ele><time>2026-04-04T13:53:51.999Z</time></trkpt><trkpt lat="46.23717222565507" lon="13.157198817565137"><ele>205.0</ele><time>2026-04-04T13:53:52.999Z</time></trkpt><trkpt lat="46.23709026126319" lon="13.157306070452492"><ele>204.25</ele><time>2026-04-04T13:53:53.999Z</time></trkpt><trkpt lat="46.237006365080425" lon="13.157418737580324"><ele>203.5</ele><time>2026-04-04T13:53:54.999Z</time></trkpt><trkpt lat="46.23691674380696" lon="13.157537905571457"><ele>202.75</ele><time>2026-04-04T13:53:55.999Z</time></trkpt><trkpt lat="46.2368252930342" lon="13.157663211035107"><ele>202.0</ele><time>2026-04-04T13:53:56.999Z</time></trkpt><trkpt lat="46.2367279054029" lon="13.15778110538115"><ele>202.0</ele><time>2026-04-04T13:53:57.999Z</time></trkpt><trkpt lat="46.23661639290699" lon="13.157883396860369"><ele>202.0</ele><time>2026-04-04T13:53:58.999Z</time></trkpt><trkpt lat="46.23649065588586" lon="13.157985323087884"><ele>202.0</ele><time>2026-04-04T13:53:59.999Z</time></trkpt><trkpt lat="46.23633004115209" lon="13.158085316574843"><ele>201.33333333333331</ele><time>2026-04-04T13:54:00.999Z</time></trkpt><trkpt lat="46.236150634942014" lon="13.158218392169552"><ele>200.66666666666669</ele><time>2026-04-04T13:54:01.999Z</time></trkpt><trkpt lat="46.23597646399437" lon="13.158382333046507"><ele>200.0</ele><time>2026-04-04T13:54:02.999Z</time></trkpt><trkpt lat="46.23582650268013" lon="13.158557679387512"><ele>200.0</ele><time>2026-04-04T13:54:03.999Z</time></trkpt><trkpt lat="46.235700662353246" lon="13.158757093189049"><ele>200.0</ele><time>2026-04-04T13:54:05Z</time></trkpt><trkpt lat="46.235590615074926" lon="13.158972760671583"><ele>200.0</ele><time>2026-04-04T13:54:06Z</time></trkpt><trkpt lat="46.2354998132255" lon="13.159175637680105"><ele>199.66666666666669</ele><time>2026-04-04T13:54:07Z</time></trkpt><trkpt lat="46.2354191434843" lon="13.15938359902967"><ele>199.33333333333331</ele><time>2026-04-04T13:54:08Z</time></trkpt><trkpt lat="46.23534533838795" lon="13.159598149097135"><ele>199.0</ele><time>2026-04-04T13:54:09Z</time></trkpt><trkpt lat="46.23527465002718" lon="13.159812571489002"><ele>199.33333333333331</ele><time>2026-04-04T13:54:10Z</time></trkpt><trkpt lat="46.2352086929353" lon="13.160023990031933"><ele>199.66666666666669</ele><time>2026-04-04T13:54:11Z</time></trkpt><trkpt lat="46.23514411808814" lon="13.16023439403718"><ele>200.0</ele><time>2026-04-04T13:54:12Z</time></trkpt><trkpt lat="46.23507950403249" lon="13.160444613242927"><ele>200.0</ele><time>2026-04-04T13:54:13Z</time></trkpt><trkpt lat="46.23501478393242" lon="13.160656756911514"><ele>200.0</ele><time>2026-04-04T13:54:14Z</time></trkpt><trkpt lat="46.234950309256526" lon="13.160868136731274"><ele>200.0</ele><time>2026-04-04T13:54:15Z</time></trkpt><trkpt lat="46.234886084881126" lon="13.161078695990124"><ele>200.33333333333334</ele><time>2026-04-04T13:54:16Z</time></trkpt><trkpt lat="46.23482282850723" lon="13.161288328752105"><ele>200.66666666666669</ele><time>2026-04-04T13:54:17Z</time></trkpt><trkpt lat="46.23475960919329" lon="13.161497917085118"><ele>201.0</ele><time>2026-04-04T13:54:18Z</time></trkpt><trkpt lat="46.234695766743165" lon="13.16170875744677"><ele>199.66666666666669</ele><time>2026-04-04T13:54:19Z</time></trkpt><trkpt lat="46.23463243487147" lon="13.16191697641984"><ele>198.33333333333334</ele><time>2026-04-04T13:54:20Z</time></trkpt><trkpt lat="46.23458307942213" lon="13.162135790956832"><ele>197.0</ele><time>2026-04-04T13:54:21Z</time></trkpt><trkpt lat="46.234521985309236" lon="13.162344960688268"><ele>197.0</ele><time>2026-04-04T13:54:22Z</time></trkpt><trkpt lat="46.23446372466217" lon="13.162552629793971"><ele>197.0</ele><time>2026-04-04T13:54:23Z</time></trkpt><trkpt lat="46.2343990303037" lon="13.162753011540087"><ele>197.0</ele><time>2026-04-04T13:54:24Z</time></trkpt><trkpt lat="46.23433910635297" lon="13.162954432417887"><ele>197.0</ele><time>2026-04-04T13:54:25Z</time></trkpt><trkpt lat="46.23425934015111" lon="13.163143263120576"><ele>197.0</ele><time>2026-04-04T13:54:26Z</time></trkpt><trkpt lat="46.23419723147417" lon="13.16334738934728"><ele>197.0</ele><time>2026-04-04T13:54:27Z</time></trkpt><trkpt lat="46.2341360902923" lon="13.163548626942946"><ele>196.75</ele><time>2026-04-04T13:54:28Z</time></trkpt><trkpt lat="46.23407581265835" lon="13.163747137806881"><ele>196.5</ele><time>2026-04-04T13:54:29Z</time></trkpt><trkpt lat="46.23401677424296" lon="13.163941626518392"><ele>196.25</ele><time>2026-04-04T13:54:30Z</time></trkpt><trkpt lat="46.233958884913385" lon="13.164132330079106"><ele>196.0</ele><time>2026-04-04T13:54:31Z</time></trkpt><trkpt lat="46.233902679724494" lon="13.16431748564723"><ele>195.75</ele><time>2026-04-04T13:54:32Z</time></trkpt><trkpt lat="46.23384746065934" lon="13.164498487319188"><ele>195.5</ele><time>2026-04-04T13:54:33Z</time></trkpt><trkpt lat="46.23379273503914" lon="13.16467558286193"><ele>195.25</ele><time>2026-04-04T13:54:34Z</time></trkpt><trkpt lat="46.233735914293966" lon="13.164845041947455"><ele>195.0</ele><time>2026-04-04T13:54:35Z</time></trkpt><trkpt lat="46.233677381664556" lon="13.16500757555339"><ele>194.5</ele><time>2026-04-04T13:54:36Z</time></trkpt><trkpt lat="46.233617051729865" lon="13.165165199478302"><ele>194.0</ele><time>2026-04-04T13:54:37Z</time></trkpt><trkpt lat="46.233574176749386" lon="13.16533655215258"><ele>193.5</ele><time>2026-04-04T13:54:38Z</time></trkpt><trkpt lat="46.23350887441308" lon="13.1654960154895"><ele>193.0</ele><time>2026-04-04T13:54:39Z</time></trkpt><trkpt lat="46.23343694206435" lon="13.165659602583505"><ele>193.25</ele><time>2026-04-04T13:54:40Z</time></trkpt><trkpt lat="46.23335947931132" lon="13.165828175526576"><ele>193.5</ele><time>2026-04-04T13:54:41Z</time></trkpt><trkpt lat="46.23326185482962" lon="13.16597564025724"><ele>193.75</ele><time>2026-04-04T13:54:42Z</time></trkpt><trkpt lat="46.23317661878549" lon="13.166138228625863"><ele>194.0</ele><time>2026-04-04T13:54:43Z</time></trkpt><trkpt lat="46.23309056487048" lon="13.166300359762955"><ele>193.25</ele><time>2026-04-04T13:54:44Z</time></trkpt><trkpt lat="46.233003252753115" lon="13.166465796242083"><ele>192.5</ele><time>2026-04-04T13:54:45Z</time></trkpt><trkpt lat="46.232916068113035" lon="13.166632944482314"><ele>191.75</ele><time>2026-04-04T13:54:46Z</time></trkpt><trkpt lat="46.23282849617908" lon="13.16680083510875"><ele>191.0</ele><time>2026-04-04T13:54:47Z</time></trkpt><trkpt lat="46.23274087490428" lon="13.166968820435368"><ele>191.0</ele><time>2026-04-04T13:54:48Z</time></trkpt><trkpt lat="46.232654282933936" lon="13.167134860849215"><ele>191.0</ele><time>2026-04-04T13:54:49Z</time></trkpt><trkpt lat="46.23256947649418" lon="13.167297584320174"><ele>191.0</ele><time>2026-04-04T13:54:50Z</time></trkpt><trkpt lat="46.23248311009164" lon="13.167462959759188"><ele>191.0</ele><time>2026-04-04T13:54:51Z</time></trkpt><trkpt lat="46.23240535167164" lon="13.167609598199064"><ele>191.25</ele><time>2026-04-04T13:54:52Z</time></trkpt><trkpt lat="46.232330334944365" lon="13.167749358080664"><ele>191.5</ele><time>2026-04-04T13:54:53Z</time></trkpt><trkpt lat="46.23225868812922" lon="13.167884683413755"><ele>191.75</ele><time>2026-04-04T13:54:54Z</time></trkpt><trkpt lat="46.23218958999856" lon="13.168017599699313"><ele>192.0</ele><time>2026-04-04T13:54:55Z</time></trkpt><trkpt lat="46.232126971633754" lon="13.168138051977564"><ele>192.0</ele><time>2026-04-04T13:54:56Z</time></trkpt><trkpt lat="46.23207497010802" lon="13.168238081329475"><ele>192.0</ele><time>2026-04-04T13:54:57Z</time></trkpt><trkpt lat="46.23203489733254" lon="13.16831516481279"><ele>192.0</ele><time>2026-04-04T13:54:58Z</time></trkpt><trkpt lat="46.23199225048004" lon="13.16839719450442"><ele>192.0</ele><time>2026-04-04T13:55:00Z</time></trkpt><trkpt lat="46.23204359018948" lon="13.168320952068521"><ele>192.0</ele><time>2026-04-04T13:55:04Z</time></trkpt><trkpt lat="46.232147727984135" lon="13.168219712629625"><ele>192.0</ele><time>2026-04-04T13:55:06Z</time></trkpt><trkpt lat="46.23219563467664" lon="13.168139720771256"><ele>192.0</ele><time>2026-04-04T13:55:07Z</time></trkpt><trkpt lat="46.232248108379224" lon="13.168031773036695"><ele>192.0</ele><time>2026-04-04T13:55:08Z</time></trkpt><trkpt lat="46.232311824981196" lon="13.16790982777159"><ele>192.0</ele><time>2026-04-04T13:55:09Z</time></trkpt><trkpt lat="46.23237542846847" lon="13.167785920377145"><ele>192.0</ele><time>2026-04-04T13:55:10Z</time></trkpt><trkpt lat="46.23242672951123" lon="13.167681121716349"><ele>192.0</ele><time>2026-04-04T13:55:11Z</time></trkpt><trkpt lat="46.23247448683442" lon="13.167589286114584"><ele>192.0</ele><time>2026-04-04T13:55:12Z</time></trkpt><trkpt lat="46.232545708428574" lon="13.16748617343405"><ele>192.0</ele><time>2026-04-04T13:55:14Z</time></trkpt><trkpt lat="46.23260932699139" lon="13.167457285243902"><ele>192.0</ele><time>2026-04-04T13:55:16Z</time></trkpt><trkpt lat="46.23255442596122" lon="13.167382681386213"><ele>192.0</ele><time>2026-04-04T13:55:50.999Z</time></trkpt><trkpt lat="46.23247875172377" lon="13.167494038604978"><ele>192.0</ele><time>2026-04-04T13:55:52.999Z</time></trkpt><trkpt lat="46.2324026048685" lon="13.167637292064398"><ele>192.0</ele><time>2026-04-04T13:55:53.999Z</time></trkpt><trkpt lat="46.232330123874014" lon="13.167779893708696"><ele>192.0</ele><time>2026-04-04T13:55:54.999Z</time></trkpt><trkpt lat="46.232250117868844" lon="13.167901168856119"><ele>192.0</ele><time>2026-04-04T13:55:55.999Z</time></trkpt><trkpt lat="46.23218946723234" lon="13.168068987627034"><ele>192.0</ele><time>2026-04-04T13:55:56.999Z</time></trkpt><trkpt lat="46.23211728284551" lon="13.168215483560918"><ele>192.0</ele><time>2026-04-04T13:55:57.999Z</time></trkpt><trkpt lat="46.232029268592136" lon="13.16838559096029"><ele>192.0</ele><time>2026-04-04T13:55:58.999Z</time></trkpt><trkpt lat="46.23193924931485" lon="13.168539685502118"><ele>192.0</ele><time>2026-04-04T13:55:59.999Z</time></trkpt><trkpt lat="46.23186388916213" lon="13.168691416493095"><ele>192.0</ele><time>2026-04-04T13:56:00.999Z</time></trkpt><trkpt lat="46.231784122127245" lon="13.168842537708272"><ele>192.0</ele><time>2026-04-04T13:56:01.999Z</time></trkpt><trkpt lat="46.231705978703005" lon="13.169001221162441"><ele>192.0</ele><time>2026-04-04T13:56:02.999Z</time></trkpt><trkpt lat="46.23162405817753" lon="13.169153049055913"><ele>192.0</ele><time>2026-04-04T13:56:03.999Z</time></trkpt><trkpt lat="46.231545424803485" lon="13.169299846772883"><ele>192.0</ele><time>2026-04-04T13:56:04.999Z</time></trkpt><trkpt lat="46.23147326038925" lon="13.169448145343875"><ele>192.0</ele><time>2026-04-04T13:56:05.999Z</time></trkpt><trkpt lat="46.23140367935189" lon="13.169590093265708"><ele>192.0</ele><time>2026-04-04T13:56:06.999Z</time></trkpt><trkpt lat="46.231327395031016" lon="13.169724180240458"><ele>192.0</ele><time>2026-04-04T13:56:07.999Z</time></trkpt><trkpt lat="46.23125570285088" lon="13.169855685903814"><ele>192.0</ele><time>2026-04-04T13:56:08.999Z</time></trkpt><trkpt lat="46.23118452102247" lon="13.16999145255845"><ele>192.0</ele><time>2026-04-04T13:56:09.999Z</time></trkpt><trkpt lat="46.23109845261536" lon="13.170104087649742"><ele>192.0</ele><time>2026-04-04T13:56:11Z</time></trkpt><trkpt lat="46.23103474247125" lon="13.170227780570436"><ele>192.0</ele><time>2026-04-04T13:56:12Z</time></trkpt><trkpt lat="46.23097291454431" lon="13.170346518824052"><ele>192.0</ele><time>2026-04-04T13:56:13Z</time></trkpt><trkpt lat="46.230909356352825" lon="13.170468062185948"><ele>192.0</ele><time>2026-04-04T13:56:14Z</time></trkpt><trkpt lat="46.23085493697041" lon="13.170572130256138"><ele>192.0</ele><time>2026-04-04T13:56:15Z</time></trkpt><trkpt lat="46.23080795590859" lon="13.170661227600029"><ele>192.0</ele><time>2026-04-04T13:56:16Z</time></trkpt><trkpt lat="46.23076281106623" lon="13.170747051369515"><ele>192.0</ele><time>2026-04-04T13:56:17Z</time></trkpt><trkpt lat="46.23072305682206" lon="13.170822093548932"><ele>192.0</ele><time>2026-04-04T13:56:18Z</time></trkpt><trkpt lat="46.230683995102424" lon="13.170895817048029"><ele>192.0</ele><time>2026-04-04T13:56:19Z</time></trkpt><trkpt lat="46.230636207638184" lon="13.170986009288368"><ele>192.0</ele><time>2026-04-04T13:56:20Z</time></trkpt><trkpt lat="46.230575766090524" lon="13.171100084149632"><ele>192.0</ele><time>2026-04-04T13:56:21Z</time></trkpt><trkpt lat="46.230503414201706" lon="13.17123663809798"><ele>192.0</ele><time>2026-04-04T13:56:22Z</time></trkpt><trkpt lat="46.23042179943748" lon="13.171390674834578"><ele>192.0</ele><time>2026-04-04T13:56:23Z</time></trkpt><trkpt lat="46.23034089644391" lon="13.171543975738018"><ele>192.0</ele><time>2026-04-04T13:56:24Z</time></trkpt><trkpt lat="46.23027175500288" lon="13.171675052870885"><ele>192.0</ele><time>2026-04-04T13:56:25Z</time></trkpt><trkpt lat="46.23020941858935" lon="13.171793229388197"><ele>192.0</ele><time>2026-04-04T13:56:26Z</time></trkpt><trkpt lat="46.23015542358136" lon="13.17189559224629"><ele>192.0</ele><time>2026-04-04T13:56:27Z</time></trkpt><trkpt lat="46.230110994596345" lon="13.171979819910884"><ele>192.0</ele><time>2026-04-04T13:56:28Z</time></trkpt><trkpt lat="46.23006227457267" lon="13.172072183267757"><ele>192.0</ele><time>2026-04-04T13:56:30Z</time></trkpt><trkpt lat="46.23015756863103" lon="13.172211039303805"><ele>192.0</ele><time>2026-04-04T13:56:32Z</time></trkpt><trkpt lat="46.23023376962729" lon="13.172245263312785"><ele>192.0</ele><time>2026-04-04T13:56:33Z</time></trkpt><trkpt lat="46.23030953134264" lon="13.172315663163811"><ele>192.0</ele><time>2026-04-04T13:56:34Z</time></trkpt><trkpt lat="46.23039871736215" lon="13.172397114946952"><ele>192.0</ele><time>2026-04-04T13:56:35Z</time></trkpt><trkpt lat="46.230488402165804" lon="13.172488088328931"><ele>192.0</ele><time>2026-04-04T13:56:36Z</time></trkpt><trkpt lat="46.230583659404935" lon="13.172581229908186"><ele>192.75</ele><time>2026-04-04T13:56:37Z</time></trkpt><trkpt lat="46.23068278294308" lon="13.172675753376685"><ele>193.5</ele><time>2026-04-04T13:56:38Z</time></trkpt><trkpt lat="46.23078087261439" lon="13.172771703972835"><ele>194.25</ele><time>2026-04-04T13:56:39Z</time></trkpt><trkpt lat="46.23087724801827" lon="13.17286790260677"><ele>195.0</ele><time>2026-04-04T13:56:40Z</time></trkpt><trkpt lat="46.23097172464589" lon="13.172960047520368"><ele>195.0</ele><time>2026-04-04T13:56:41Z</time></trkpt><trkpt lat="46.23106742281622" lon="13.17304793061083"><ele>195.0</ele><time>2026-04-04T13:56:42Z</time></trkpt><trkpt lat="46.23115687072559" lon="13.173140279656982"><ele>195.0</ele><time>2026-04-04T13:56:43Z</time></trkpt><trkpt lat="46.23124589558108" lon="13.173236080937636"><ele>195.0</ele><time>2026-04-04T13:56:44Z</time></trkpt><trkpt lat="46.23133435549386" lon="13.173326268694607"><ele>195.0</ele><time>2026-04-04T13:56:45Z</time></trkpt><trkpt lat="46.231423466741724" lon="13.173412845879135"><ele>195.6</ele><time>2026-04-04T13:56:46Z</time></trkpt><trkpt lat="46.231511654106306" lon="13.173489900295847"><ele>196.2</ele><time>2026-04-04T13:56:47Z</time></trkpt><trkpt lat="46.23160046348666" lon="13.173553592073926"><ele>196.8</ele><time>2026-04-04T13:56:48Z</time></trkpt><trkpt lat="46.231688074971196" lon="13.17360705713722"><ele>197.4</ele><time>2026-04-04T13:56:49Z</time></trkpt><trkpt lat="46.23177552110862" lon="13.17364012089544"><ele>198.0</ele><time>2026-04-04T13:56:50Z</time></trkpt><trkpt lat="46.231843432791536" lon="13.173661931930827"><ele>198.0</ele><time>2026-04-04T13:56:51Z</time></trkpt><trkpt lat="46.231913149899526" lon="13.17371007448992"><ele>198.0</ele><time>2026-04-04T13:56:53Z</time></trkpt><trkpt lat="46.23192394368226" lon="13.173842107206504"><ele>198.0</ele><time>2026-04-04T13:56:55Z</time></trkpt><trkpt lat="46.231956099260685" lon="13.173955364968958"><ele>198.0</ele><time>2026-04-04T13:56:56Z</time></trkpt><trkpt lat="46.23195912385523" lon="13.17409833003998"><ele>198.0</ele><time>2026-04-04T13:56:57Z</time></trkpt><trkpt lat="46.23197464518943" lon="13.174242949827798"><ele>198.5</ele><time>2026-04-04T13:56:58Z</time></trkpt><trkpt lat="46.23197338109449" lon="13.17437780615908"><ele>199.0</ele><time>2026-04-04T13:56:59Z</time></trkpt><trkpt lat="46.231954507387776" lon="13.174539422881196"><ele>199.5</ele><time>2026-04-04T13:57:00Z</time></trkpt><trkpt lat="46.23193375561033" lon="13.174723953180775"><ele>200.0</ele><time>2026-04-04T13:57:01Z</time></trkpt><trkpt lat="46.231919698613126" lon="13.174900727152904"><ele>200.6</ele><time>2026-04-04T13:57:02Z</time></trkpt><trkpt lat="46.23190573429575" lon="13.175056433286517"><ele>201.2</ele><time>2026-04-04T13:57:03Z</time></trkpt><trkpt lat="46.231885034723135" lon="13.175197597023212"><ele>201.8</ele><time>2026-04-04T13:57:04Z</time></trkpt><trkpt lat="46.23186056987185" lon="13.175329913978306"><ele>202.4</ele><time>2026-04-04T13:57:05Z</time></trkpt><trkpt lat="46.231837872095724" lon="13.175455894802756"><ele>203.0</ele><time>2026-04-04T13:57:06Z</time></trkpt><trkpt lat="46.231812737085875" lon="13.175575424072898"><ele>203.0</ele><time>2026-04-04T13:57:07Z</time></trkpt><trkpt lat="46.23178622973789" lon="13.175703950434455"><ele>203.0</ele><time>2026-04-04T13:57:08Z</time></trkpt><trkpt lat="46.23175914853215" lon="13.17584298459902"><ele>203.0</ele><time>2026-04-04T13:57:09Z</time></trkpt><trkpt lat="46.23172962385045" lon="13.175979744763682"><ele>203.0</ele><time>2026-04-04T13:57:10Z</time></trkpt><trkpt lat="46.23169439605261" lon="13.176113866373733"><ele>203.0</ele><time>2026-04-04T13:57:11Z</time></trkpt><trkpt lat="46.2316613709173" lon="13.176247727293129"><ele>203.00000000000003</ele><time>2026-04-04T13:57:12Z</time></trkpt><trkpt lat="46.23162649994486" lon="13.176358623282034"><ele>203.0</ele><time>2026-04-04T13:57:13Z</time></trkpt><trkpt lat="46.231566649392235" lon="13.176421894423164"><ele>203.0</ele><time>2026-04-04T13:57:14Z</time></trkpt><trkpt lat="46.23148975451331" lon="13.176479179379797"><ele>203.0</ele><time>2026-04-04T13:57:15Z</time></trkpt><trkpt lat="46.23141617840743" lon="13.176538372532429"><ele>203.00000000000003</ele><time>2026-04-04T13:57:16Z</time></trkpt><trkpt lat="46.2313513605108" lon="13.176593529578529"><ele>203.0</ele><time>2026-04-04T13:57:17Z</time></trkpt><trkpt lat="46.23126606106267" lon="13.176676416229467"><ele>202.2</ele><time>2026-04-04T13:57:19Z</time></trkpt><trkpt lat="46.23121092562353" lon="13.17673878674607"><ele>201.4</ele><time>2026-04-04T13:57:23Z</time></trkpt><trkpt lat="46.23127518246978" lon="13.176981760904592"><ele>200.6</ele><time>2026-04-04T13:57:25Z</time></trkpt><trkpt lat="46.23131848048819" lon="13.177104687816765"><ele>199.79999999999998</ele><time>2026-04-04T13:57:26Z</time></trkpt><trkpt lat="46.23134739571341" lon="13.177249070077119"><ele>199.0</ele><time>2026-04-04T13:57:27Z</time></trkpt><trkpt lat="46.231369882019706" lon="13.177391893019836"><ele>198.79999999999998</ele><time>2026-04-04T13:57:28Z</time></trkpt><trkpt lat="46.231392773613" lon="13.177535159813093"><ele>198.6</ele><time>2026-04-04T13:57:29Z</time></trkpt><trkpt lat="46.23140962490992" lon="13.177679715269779"><ele>198.4</ele><time>2026-04-04T13:57:30Z</time></trkpt><trkpt lat="46.23140361928031" lon="13.177820510983457"><ele>198.2</ele><time>2026-04-04T13:57:31Z</time></trkpt><trkpt lat="46.231410999984476" lon="13.177956592821133"><ele>198.0</ele><time>2026-04-04T13:57:32Z</time></trkpt><trkpt lat="46.23141821036343" lon="13.178089535824272"><ele>198.8</ele><time>2026-04-04T13:57:33Z</time></trkpt><trkpt lat="46.23142869241104" lon="13.17822131767449"><ele>199.60000000000002</ele><time>2026-04-04T13:57:34Z</time></trkpt><trkpt lat="46.23143792636271" lon="13.178351502834055"><ele>200.39999999999998</ele><time>2026-04-04T13:57:35Z</time></trkpt><trkpt lat="46.23144695392048" lon="13.178478778204786"><ele>201.2</ele><time>2026-04-04T13:57:35.999Z</time></trkpt><trkpt lat="46.23145423573468" lon="13.178581441197377"><ele>202.0</ele><time>2026-04-04T13:57:36.999Z</time></trkpt><trkpt lat="46.23146537069036" lon="13.178738427823191"><ele>203.0</ele><time>2026-04-04T13:57:38.999Z</time></trkpt><trkpt lat="46.23147719200447" lon="13.178891555102823"><ele>204.0</ele><time>2026-04-04T13:57:40.999Z</time></trkpt><trkpt lat="46.23148617056305" lon="13.17900263116291"><ele>205.0</ele><time>2026-04-04T13:57:41.999Z</time></trkpt><trkpt lat="46.231496552097894" lon="13.179129197025869"><ele>206.0</ele><time>2026-04-04T13:57:42.999Z</time></trkpt><trkpt lat="46.23150928595056" lon="13.17927303270411"><ele>207.0</ele><time>2026-04-04T13:57:43.999Z</time></trkpt><trkpt lat="46.23153812709802" lon="13.179437899998243"><ele>207.25</ele><time>2026-04-04T13:57:44.999Z</time></trkpt><trkpt lat="46.2316087997578" lon="13.179586369779784"><ele>207.5</ele><time>2026-04-04T13:57:45.999Z</time></trkpt><trkpt lat="46.231680848414896" lon="13.179758807911872"><ele>207.75</ele><time>2026-04-04T13:57:46.999Z</time></trkpt><trkpt lat="46.23174474672809" lon="13.179930868894246"><ele>208.0</ele><time>2026-04-04T13:57:47.999Z</time></trkpt><trkpt lat="46.231813118504846" lon="13.180116436915055"><ele>208.0</ele><time>2026-04-04T13:57:48.999Z</time></trkpt><trkpt lat="46.231887038627036" lon="13.18031944864151"><ele>208.0</ele><time>2026-04-04T13:57:49.999Z</time></trkpt><trkpt lat="46.23195206158197" lon="13.180500985183393"><ele>208.0</ele><time>2026-04-04T13:57:50.999Z</time></trkpt><trkpt lat="46.23199000663247" lon="13.180674998523735"><ele>208.0</ele><time>2026-04-04T13:57:51.999Z</time></trkpt><trkpt lat="46.23196959486438" lon="13.180888013507177"><ele>208.0</ele><time>2026-04-04T13:57:52.999Z</time></trkpt><trkpt lat="46.231942219603255" lon="13.181122686439243"><ele>208.0</ele><time>2026-04-04T13:57:53.999Z</time></trkpt><trkpt lat="46.23190773188759" lon="13.181383777121386"><ele>208.0</ele><time>2026-04-04T13:57:54.999Z</time></trkpt><trkpt lat="46.23188033777715" lon="13.181650082305431"><ele>208.0</ele><time>2026-04-04T13:57:55.999Z</time></trkpt><trkpt lat="46.23186016326313" lon="13.181909157134204"><ele>208.0</ele><time>2026-04-04T13:57:56.999Z</time></trkpt><trkpt lat="46.231838339471835" lon="13.182173338243965"><ele>208.0</ele><time>2026-04-04T13:57:57.999Z</time></trkpt><trkpt lat="46.23181567150492" lon="13.1824554601023"><ele>208.0</ele><time>2026-04-04T13:57:58.999Z</time></trkpt><trkpt lat="46.23179298044502" lon="13.182738792653527"><ele>208.0</ele><time>2026-04-04T13:57:59.999Z</time></trkpt><trkpt lat="46.231771117343605" lon="13.183009923613813"><ele>208.0</ele><time>2026-04-04T13:58:00.999Z</time></trkpt><trkpt lat="46.23174954588153" lon="13.183268029590621"><ele>208.0</ele><time>2026-04-04T13:58:01.999Z</time></trkpt><trkpt lat="46.23172741421145" lon="13.183503391348237"><ele>208.0</ele><time>2026-04-04T13:58:02.999Z</time></trkpt><trkpt lat="46.23170080151042" lon="13.183710786821534"><ele>208.0</ele><time>2026-04-04T13:58:03.999Z</time></trkpt><trkpt lat="46.231650235549736" lon="13.18388802738534"><ele>208.0</ele><time>2026-04-04T13:58:04.999Z</time></trkpt><trkpt lat="46.231585570673055" lon="13.184061704219795"><ele>208.66666666666666</ele><time>2026-04-04T13:58:05.999Z</time></trkpt><trkpt lat="46.23149440203516" lon="13.184214444184713"><ele>209.33333333333331</ele><time>2026-04-04T13:58:06.999Z</time></trkpt><trkpt lat="46.231384701648416" lon="13.184377583414491"><ele>210.0</ele><time>2026-04-04T13:58:07.999Z</time></trkpt><trkpt lat="46.231276511755475" lon="13.18453905267164"><ele>209.0</ele><time>2026-04-04T13:58:08.999Z</time></trkpt><trkpt lat="46.23117058870502" lon="13.184699152806658"><ele>208.0</ele><time>2026-04-04T13:58:09.999Z</time></trkpt><trkpt lat="46.23107275174794" lon="13.184858379052226"><ele>207.0</ele><time>2026-04-04T13:58:10.999Z</time></trkpt><trkpt lat="46.23097891729518" lon="13.185021837904833"><ele>206.0</ele><time>2026-04-04T13:58:11.999Z</time></trkpt><trkpt lat="46.23091806346745" lon="13.185236779020965"><ele>206.0</ele><time>2026-04-04T13:58:12.999Z</time></trkpt><trkpt lat="46.23088528323518" lon="13.185452484539038"><ele>206.0</ele><time>2026-04-04T13:58:13.999Z</time></trkpt><trkpt lat="46.23086663514242" lon="13.185672863071726"><ele>206.0</ele><time>2026-04-04T13:58:14.999Z</time></trkpt><trkpt lat="46.230844770902614" lon="13.185891031616126"><ele>206.33333333333334</ele><time>2026-04-04T13:58:15.999Z</time></trkpt><trkpt lat="46.230821282056894" lon="13.186120767813243"><ele>206.66666666666669</ele><time>2026-04-04T13:58:17Z</time></trkpt><trkpt lat="46.23079690240191" lon="13.18635921623544"><ele>207.0</ele><time>2026-04-04T13:58:18Z</time></trkpt><trkpt lat="46.23077141407318" lon="13.186608511126762"><ele>208.33333333333331</ele><time>2026-04-04T13:58:19Z</time></trkpt><trkpt lat="46.230745985316666" lon="13.186856504475282"><ele>209.66666666666666</ele><time>2026-04-04T13:58:20Z</time></trkpt><trkpt lat="46.2307236213819" lon="13.18707480502909"><ele>211.0</ele><time>2026-04-04T13:58:21Z</time></trkpt><trkpt lat="46.230703365702404" lon="13.187265077930086"><ele>212.20000000000002</ele><time>2026-04-04T13:58:22Z</time></trkpt><trkpt lat="46.2306856778458" lon="13.187425517497529"><ele>213.4</ele><time>2026-04-04T13:58:23Z</time></trkpt><trkpt lat="46.23064656074544" lon="13.187523574430761"><ele>214.6</ele><time>2026-04-04T13:58:24Z</time></trkpt><trkpt lat="46.230585488225316" lon="13.187588994545345"><ele>215.8</ele><time>2026-04-04T13:58:25Z</time></trkpt><trkpt lat="46.23050130959776" lon="13.187596816256093"><ele>217.0</ele><time>2026-04-04T13:58:26Z</time></trkpt><trkpt lat="46.23041390415463" lon="13.187512383689286"><ele>217.0</ele><time>2026-04-04T13:58:27Z</time></trkpt><trkpt lat="46.23027999602202" lon="13.187442299452938"><ele>217.0</ele><time>2026-04-04T13:58:28Z</time></trkpt><trkpt lat="46.230123130268964" lon="13.187340678697595"><ele>217.0</ele><time>2026-04-04T13:58:29Z</time></trkpt><trkpt lat="46.22998163281203" lon="13.187306841565437"><ele>218.2</ele><time>2026-04-04T13:58:30Z</time></trkpt><trkpt lat="46.22985550134652" lon="13.187303563919832"><ele>219.39999999999998</ele><time>2026-04-04T13:58:31Z</time></trkpt><trkpt lat="46.22975173276392" lon="13.187356498753044"><ele>220.60000000000002</ele><time>2026-04-04T13:58:32Z</time></trkpt><trkpt lat="46.22968478497641" lon="13.187409579226784"><ele>221.8</ele><time>2026-04-04T13:58:33Z</time></trkpt><trkpt lat="46.229606303509875" lon="13.187380416513681"><ele>223.0</ele><time>2026-04-04T13:58:35Z</time></trkpt><trkpt lat="46.229513483685274" lon="13.187328606158742"><ele>219.5</ele><time>2026-04-04T13:58:36Z</time></trkpt><trkpt lat="46.22940587681278" lon="13.187255949243841"><ele>216.0</ele><time>2026-04-04T13:58:37Z</time></trkpt><trkpt lat="46.22929983346772" lon="13.187181745444343"><ele>212.5</ele><time>2026-04-04T13:58:38Z</time></trkpt><trkpt lat="46.229152756003536" lon="13.187176499019815"><ele>209.0</ele><time>2026-04-04T13:58:39Z</time></trkpt><trkpt lat="46.22899431675949" lon="13.18722401356811"><ele>209.66666666666669</ele><time>2026-04-04T13:58:40Z</time></trkpt><trkpt lat="46.228834773232684" lon="13.187280785311621"><ele>210.33333333333331</ele><time>2026-04-04T13:58:41Z</time></trkpt><trkpt lat="46.228668706665324" lon="13.187344599867863"><ele>211.0</ele><time>2026-04-04T13:58:42Z</time></trkpt><trkpt lat="46.22849929617112" lon="13.187429848933572"><ele>211.0</ele><time>2026-04-04T13:58:43Z</time></trkpt><trkpt lat="46.22833015796254" lon="13.187560916800114"><ele>211.0</ele><time>2026-04-04T13:58:44Z</time></trkpt><trkpt lat="46.228163020972" lon="13.187719526033199"><ele>211.0</ele><time>2026-04-04T13:58:45Z</time></trkpt><trkpt lat="46.228001759997156" lon="13.187878405068446"><ele>209.33333333333331</ele><time>2026-04-04T13:58:46Z</time></trkpt><trkpt lat="46.22785240293914" lon="13.188024260891012"><ele>207.66666666666669</ele><time>2026-04-04T13:58:47Z</time></trkpt><trkpt lat="46.22772728760498" lon="13.188198722763534"><ele>206.0</ele><time>2026-04-04T13:58:48Z</time></trkpt><trkpt lat="46.22761962291167" lon="13.188373110707792"><ele>206.0</ele><time>2026-04-04T13:58:49Z</time></trkpt><trkpt lat="46.22753536959543" lon="13.188539598566097"><ele>206.0</ele><time>2026-04-04T13:58:50Z</time></trkpt><trkpt lat="46.22744958604838" lon="13.188675638619626"><ele>206.0</ele><time>2026-04-04T13:58:51Z</time></trkpt><trkpt lat="46.22734374856774" lon="13.188762428326564"><ele>206.0</ele><time>2026-04-04T13:58:52Z</time></trkpt><trkpt lat="46.22721644516173" lon="13.188842708543246"><ele>206.0</ele><time>2026-04-04T13:58:53Z</time></trkpt><trkpt lat="46.227073163661885" lon="13.18892122552169"><ele>206.0</ele><time>2026-04-04T13:58:54Z</time></trkpt><trkpt lat="46.22692816210516" lon="13.189019415958505"><ele>206.0</ele><time>2026-04-04T13:58:55Z</time></trkpt><trkpt lat="46.226792171647965" lon="13.18915603052941"><ele>206.0</ele><time>2026-04-04T13:58:56Z</time></trkpt><trkpt lat="46.22665982565205" lon="13.189296521347528"><ele>206.0</ele><time>2026-04-04T13:58:57Z</time></trkpt><trkpt lat="46.22652238069903" lon="13.189425469621787"><ele>206.0</ele><time>2026-04-04T13:58:58Z</time></trkpt><trkpt lat="46.22638148499842" lon="13.189543955785265"><ele>205.66666666666669</ele><time>2026-04-04T13:58:59Z</time></trkpt><trkpt lat="46.22623921378083" lon="13.189660402141747"><ele>205.33333333333331</ele><time>2026-04-04T13:59:00Z</time></trkpt><trkpt lat="46.22609697260499" lon="13.189776172528592"><ele>205.0</ele><time>2026-04-04T13:59:01Z</time></trkpt><trkpt lat="46.225945863931486" lon="13.189883982141627"><ele>205.0</ele><time>2026-04-04T13:59:02Z</time></trkpt><trkpt lat="46.22578486247587" lon="13.189978266397175"><ele>205.0</ele><time>2026-04-04T13:59:03Z</time></trkpt><trkpt lat="46.22561606585944" lon="13.19007103627515"><ele>205.0</ele><time>2026-04-04T13:59:04Z</time></trkpt><trkpt lat="46.225443514243004" lon="13.190162872568813"><ele>203.66666666666666</ele><time>2026-04-04T13:59:05Z</time></trkpt><trkpt lat="46.22527848274633" lon="13.190252593392"><ele>202.33333333333331</ele><time>2026-04-04T13:59:06Z</time></trkpt><trkpt lat="46.225120910041944" lon="13.19033826000662"><ele>201.0</ele><time>2026-04-04T13:59:07Z</time></trkpt><trkpt lat="46.22496979236983" lon="13.19042241528324"><ele>201.0</ele><time>2026-04-04T13:59:08Z</time></trkpt><trkpt lat="46.224824025078576" lon="13.19050172153346"><ele>201.0</ele><time>2026-04-04T13:59:09Z</time></trkpt><trkpt lat="46.224678063029785" lon="13.19058056989757"><ele>201.0</ele><time>2026-04-04T13:59:10Z</time></trkpt><trkpt lat="46.22453367322684" lon="13.190668378764542"><ele>201.33333333333331</ele><time>2026-04-04T13:59:11Z</time></trkpt><trkpt lat="46.22440284132523" lon="13.190795099576013"><ele>201.66666666666666</ele><time>2026-04-04T13:59:12Z</time></trkpt><trkpt lat="46.22428976650486" lon="13.190952875168085"><ele>202.0</ele><time>2026-04-04T13:59:13Z</time></trkpt><trkpt lat="46.22418869989085" lon="13.191143338706285"><ele>202.0</ele><time>2026-04-04T13:59:14Z</time></trkpt><trkpt lat="46.224092194439784" lon="13.191341134327873"><ele>202.0</ele><time>2026-04-04T13:59:15Z</time></trkpt><trkpt lat="46.22399601021665" lon="13.191542857422265"><ele>202.0</ele><time>2026-04-04T13:59:16Z</time></trkpt><trkpt lat="46.223895671381726" lon="13.191747613601986"><ele>202.33333333333331</ele><time>2026-04-04T13:59:17Z</time></trkpt><trkpt lat="46.22379105580311" lon="13.191959690582324"><ele>202.66666666666669</ele><time>2026-04-04T13:59:18Z</time></trkpt><trkpt lat="46.22368348418161" lon="13.192172674386374"><ele>203.0</ele><time>2026-04-04T13:59:19Z</time></trkpt><trkpt lat="46.22357797580671" lon="13.192381573115894"><ele>203.33333333333334</ele><time>2026-04-04T13:59:20Z</time></trkpt><trkpt lat="46.22347420075549" lon="13.192587034355936"><ele>203.66666666666669</ele><time>2026-04-04T13:59:21Z</time></trkpt><trkpt lat="46.22337212300319" lon="13.192788809296726"><ele>204.0</ele><time>2026-04-04T13:59:22Z</time></trkpt><trkpt lat="46.22327237763083" lon="13.192985973875924"><ele>203.66666666666669</ele><time>2026-04-04T13:59:23Z</time></trkpt><trkpt lat="46.223174297923755" lon="13.193175020751072"><ele>203.33333333333334</ele><time>2026-04-04T13:59:24Z</time></trkpt><trkpt lat="46.22307649041831" lon="13.19336626356673"><ele>203.0</ele><time>2026-04-04T13:59:25Z</time></trkpt><trkpt lat="46.22298319438727" lon="13.19356439892931"><ele>203.0</ele><time>2026-04-04T13:59:26Z</time></trkpt><trkpt lat="46.222898602622806" lon="13.1937683735894"><ele>203.0</ele><time>2026-04-04T13:59:27Z</time></trkpt><trkpt lat="46.22281432964169" lon="13.193973845876164"><ele>203.0</ele><time>2026-04-04T13:59:28Z</time></trkpt><trkpt lat="46.22272777122887" lon="13.194182874793224"><ele>204.0</ele><time>2026-04-04T13:59:29Z</time></trkpt><trkpt lat="46.2226393994812" lon="13.194397193178451"><ele>205.0</ele><time>2026-04-04T13:59:30Z</time></trkpt><trkpt lat="46.22255289652748" lon="13.194611069782747"><ele>206.0</ele><time>2026-04-04T13:59:31Z</time></trkpt><trkpt lat="46.2224677238615" lon="13.19482269178405"><ele>206.33333333333334</ele><time>2026-04-04T13:59:32Z</time></trkpt><trkpt lat="46.222382799342554" lon="13.19503373805599"><ele>206.66666666666669</ele><time>2026-04-04T13:59:33Z</time></trkpt><trkpt lat="46.222299071370266" lon="13.19523809855109"><ele>207.0</ele><time>2026-04-04T13:59:34Z</time></trkpt><trkpt lat="46.222217001588156" lon="13.195438411919987"><ele>207.0</ele><time>2026-04-04T13:59:35Z</time></trkpt><trkpt lat="46.222137258776016" lon="13.195632208113512"><ele>207.0</ele><time>2026-04-04T13:59:36Z</time></trkpt><trkpt lat="46.22205671032833" lon="13.195827629452468"><ele>207.0</ele><time>2026-04-04T13:59:37Z</time></trkpt><trkpt lat="46.22197383720001" lon="13.196028688145033"><ele>208.0</ele><time>2026-04-04T13:59:38Z</time></trkpt><trkpt lat="46.221888986990415" lon="13.196234447228878"><ele>209.0</ele><time>2026-04-04T13:59:39Z</time></trkpt><trkpt lat="46.22180096436627" lon="13.1964501186496"><ele>210.0</ele><time>2026-04-04T13:59:40Z</time></trkpt><trkpt lat="46.22171073136327" lon="13.196670840169194"><ele>211.33333333333331</ele><time>2026-04-04T13:59:41Z</time></trkpt><trkpt lat="46.221617980499616" lon="13.19689772062342"><ele>212.66666666666666</ele><time>2026-04-04T13:59:41.999Z</time></trkpt><trkpt lat="46.22152410483645" lon="13.197128755621355"><ele>214.0</ele><time>2026-04-04T13:59:42.999Z</time></trkpt><trkpt lat="46.221433037109335" lon="13.197354279230483"><ele>214.66666666666666</ele><time>2026-04-04T13:59:43.999Z</time></trkpt><trkpt lat="46.22133157133937" lon="13.19755907141654"><ele>215.33333333333331</ele><time>2026-04-04T13:59:44.999Z</time></trkpt><trkpt lat="46.221220667637034" lon="13.197745256122971"><ele>216.0</ele><time>2026-04-04T13:59:45.999Z</time></trkpt><trkpt lat="46.22110425452586" lon="13.19793656729597"><ele>216.0</ele><time>2026-04-04T13:59:46.999Z</time></trkpt><trkpt lat="46.22098889356117" lon="13.198126886487398"><ele>216.0</ele><time>2026-04-04T13:59:47.999Z</time></trkpt><trkpt lat="46.220876919014636" lon="13.198314935075485"><ele>216.0</ele><time>2026-04-04T13:59:48.999Z</time></trkpt><trkpt lat="46.22076311641929" lon="13.19851750820991"><ele>216.33333333333331</ele><time>2026-04-04T13:59:49.999Z</time></trkpt><trkpt lat="46.22065366411444" lon="13.198765498573122"><ele>216.66666666666666</ele><time>2026-04-04T13:59:50.999Z</time></trkpt><trkpt lat="46.220545426694265" lon="13.199023811677417"><ele>217.0</ele><time>2026-04-04T13:59:51.999Z</time></trkpt><trkpt lat="46.220432455091576" lon="13.199295164888524"><ele>217.0</ele><time>2026-04-04T13:59:52.999Z</time></trkpt><trkpt lat="46.220317962628286" lon="13.199566217144058"><ele>217.0</ele><time>2026-04-04T13:59:53.999Z</time></trkpt><trkpt lat="46.220205160406344" lon="13.199831088363382"><ele>217.0</ele><time>2026-04-04T13:59:54.999Z</time></trkpt><trkpt lat="46.220096227478074" lon="13.200080444698383"><ele>218.66666666666666</ele><time>2026-04-04T13:59:55.999Z</time></trkpt><trkpt lat="46.21999194309062" lon="13.200315576980495"><ele>220.33333333333331</ele><time>2026-04-04T13:59:56.999Z</time></trkpt><trkpt lat="46.21989787696832" lon="13.200527669586721"><ele>222.0</ele><time>2026-04-04T13:59:57.999Z</time></trkpt><trkpt lat="46.219812712899895" lon="13.200720583586753"><ele>222.25</ele><time>2026-04-04T13:59:58.999Z</time></trkpt><trkpt lat="46.21973272459601" lon="13.200901810028299"><ele>222.5</ele><time>2026-04-04T13:59:59.999Z</time></trkpt><trkpt lat="46.21965619367744" lon="13.201078358259297"><ele>222.75</ele><time>2026-04-04T14:00:00.999Z</time></trkpt><trkpt lat="46.21958630230834" lon="13.20124554303247"><ele>223.0</ele><time>2026-04-04T14:00:01.999Z</time></trkpt><trkpt lat="46.21952643650591" lon="13.201397838039643"><ele>223.25</ele><time>2026-04-04T14:00:02.999Z</time></trkpt><trkpt lat="46.219472604369855" lon="13.201552083637328"><ele>223.5</ele><time>2026-04-04T14:00:03.999Z</time></trkpt><trkpt lat="46.21942435478093" lon="13.201709148873983"><ele>223.75</ele><time>2026-04-04T14:00:04.999Z</time></trkpt><trkpt lat="46.21936044505701" lon="13.201836531173296"><ele>224.0</ele><time>2026-04-04T14:00:05.999Z</time></trkpt><trkpt lat="46.21927418674835" lon="13.201974897113198"><ele>224.0</ele><time>2026-04-04T14:00:06.999Z</time></trkpt><trkpt lat="46.21919907276761" lon="13.202131343036243"><ele>223.99999999999997</ele><time>2026-04-04T14:00:07.999Z</time></trkpt><trkpt lat="46.21912664887005" lon="13.202269414524851"><ele>223.99999999999997</ele><time>2026-04-04T14:00:08.999Z</time></trkpt><trkpt lat="46.21904605538912" lon="13.202354358749432"><ele>224.0</ele><time>2026-04-04T14:00:09.999Z</time></trkpt><trkpt lat="46.21895077974" lon="13.202373591773627"><ele>224.0</ele><time>2026-04-04T14:00:10.999Z</time></trkpt><trkpt lat="46.21883876845504" lon="13.202387957230002"><ele>223.2</ele><time>2026-04-04T14:00:11.999Z</time></trkpt><trkpt lat="46.21873557508937" lon="13.20239806767264"><ele>222.39999999999998</ele><time>2026-04-04T14:00:12.999Z</time></trkpt><trkpt lat="46.218639412098405" lon="13.202408438150755"><ele>221.6</ele><time>2026-04-04T14:00:13.999Z</time></trkpt><trkpt lat="46.218529974901436" lon="13.202420302703052"><ele>220.8</ele><time>2026-04-04T14:00:14.999Z</time></trkpt><trkpt lat="46.21841466421886" lon="13.202432804057809"><ele>220.0</ele><time>2026-04-04T14:00:15.999Z</time></trkpt><trkpt lat="46.21829505353461" lon="13.202445630662723"><ele>220.0</ele><time>2026-04-04T14:00:16.999Z</time></trkpt><trkpt lat="46.21817359250732" lon="13.20245866319666"><ele>220.0</ele><time>2026-04-04T14:00:17.999Z</time></trkpt><trkpt lat="46.218049566894706" lon="13.202471970909981"><ele>220.0</ele><time>2026-04-04T14:00:18.999Z</time></trkpt><trkpt lat="46.21792383692827" lon="13.20248546170624"><ele>220.0</ele><time>2026-04-04T14:00:19.999Z</time></trkpt><trkpt lat="46.21779683436251" lon="13.202500989864959"><ele>219.75</ele><time>2026-04-04T14:00:20.999Z</time></trkpt><trkpt lat="46.21767115612466" lon="13.202513822292245"><ele>219.5</ele><time>2026-04-04T14:00:21.999Z</time></trkpt><trkpt lat="46.217547173856794" lon="13.202503951118533"><ele>219.25</ele><time>2026-04-04T14:00:23Z</time></trkpt><trkpt lat="46.21742431826142" lon="13.202483290327434"><ele>219.0</ele><time>2026-04-04T14:00:24Z</time></trkpt><trkpt lat="46.217301504953255" lon="13.202467188486365"><ele>218.6</ele><time>2026-04-04T14:00:25Z</time></trkpt><trkpt lat="46.217188991485614" lon="13.202452214907654"><ele>218.2</ele><time>2026-04-04T14:00:26Z</time></trkpt><trkpt lat="46.2170834717381" lon="13.20243677012884"><ele>217.79999999999998</ele><time>2026-04-04T14:00:27Z</time></trkpt><trkpt lat="46.21698818291847" lon="13.202421677667267"><ele>217.39999999999998</ele><time>2026-04-04T14:00:28Z</time></trkpt><trkpt lat="46.216913330943385" lon="13.202411005482547"><ele>217.0</ele><time>2026-04-04T14:00:29Z</time></trkpt><trkpt lat="46.216811217325" lon="13.20240177784253"><ele>217.0</ele><time>2026-04-04T14:00:31Z</time></trkpt><trkpt lat="46.216703951155196" lon="13.202439289630803"><ele>217.0</ele><time>2026-04-04T14:00:55Z</time></trkpt><trkpt lat="46.21669052813135" lon="13.20259502015977"><ele>217.0</ele><time>2026-04-04T14:00:56Z</time></trkpt><trkpt lat="46.21668247148747" lon="13.20278633077518"><ele>217.0</ele><time>2026-04-04T14:00:57Z</time></trkpt><trkpt lat="46.21667097863419" lon="13.203013639958542"><ele>216.66666666666666</ele><time>2026-04-04T14:00:58Z</time></trkpt><trkpt lat="46.21664711798334" lon="13.203263294507067"><ele>216.33333333333331</ele><time>2026-04-04T14:00:59Z</time></trkpt><trkpt lat="46.21661097154209" lon="13.203531306262022"><ele>216.0</ele><time>2026-04-04T14:01:00Z</time></trkpt><trkpt lat="46.21658805818634" lon="13.203805480062524"><ele>216.33333333333331</ele><time>2026-04-04T14:01:01Z</time></trkpt><trkpt lat="46.21657877258645" lon="13.20408083470957"><ele>216.66666666666666</ele><time>2026-04-04T14:01:02Z</time></trkpt><trkpt lat="46.21655180131779" lon="13.204345148395063"><ele>217.0</ele><time>2026-04-04T14:01:03Z</time></trkpt><trkpt lat="46.21650035974679" lon="13.204591297444672"><ele>216.66666666666666</ele><time>2026-04-04T14:01:04Z</time></trkpt><trkpt lat="46.21645907674244" lon="13.204827054369023"><ele>216.33333333333331</ele><time>2026-04-04T14:01:05Z</time></trkpt><trkpt lat="46.21641713275511" lon="13.205054088659836"><ele>216.0</ele><time>2026-04-04T14:01:06Z</time></trkpt><trkpt lat="46.21637860389767" lon="13.205271950609687"><ele>216.0</ele><time>2026-04-04T14:01:07Z</time></trkpt><trkpt lat="46.21633970691256" lon="13.205480579738852"><ele>216.0</ele><time>2026-04-04T14:01:08Z</time></trkpt><trkpt lat="46.216293266925206" lon="13.20569306680017"><ele>216.0</ele><time>2026-04-04T14:01:09Z</time></trkpt><trkpt lat="46.21623439771804" lon="13.205908177588297"><ele>216.0</ele><time>2026-04-04T14:01:10Z</time></trkpt><trkpt lat="46.21616795567227" lon="13.206125617266249"><ele>216.0</ele><time>2026-04-04T14:01:11Z</time></trkpt><trkpt lat="46.21610139732846" lon="13.206347497213466"><ele>216.0</ele><time>2026-04-04T14:01:12Z</time></trkpt><trkpt lat="46.21603553798622" lon="13.206573007195407"><ele>215.66666666666669</ele><time>2026-04-04T14:01:13Z</time></trkpt><trkpt lat="46.21597273753035" lon="13.20679165370988"><ele>215.33333333333334</ele><time>2026-04-04T14:01:14Z</time></trkpt><trkpt lat="46.21591438617672" lon="13.207007378052918"><ele>215.0</ele><time>2026-04-04T14:01:15Z</time></trkpt><trkpt lat="46.21589467025143" lon="13.207230506883832"><ele>215.25</ele><time>2026-04-04T14:01:16Z</time></trkpt><trkpt lat="46.21585769176819" lon="13.207418717006675"><ele>215.5</ele><time>2026-04-04T14:01:17Z</time></trkpt><trkpt lat="46.215821620849596" lon="13.207596912613946"><ele>215.75</ele><time>2026-04-04T14:01:18Z</time></trkpt><trkpt lat="46.21579003873731" lon="13.207777789886121"><ele>216.0</ele><time>2026-04-04T14:01:19Z</time></trkpt><trkpt lat="46.21573071515107" lon="13.20793966910652"><ele>216.0</ele><time>2026-04-04T14:01:20Z</time></trkpt><trkpt lat="46.21570874539729" lon="13.208101496934072"><ele>216.00000000000003</ele><time>2026-04-04T14:01:21Z</time></trkpt><trkpt lat="46.21568947982045" lon="13.208260730547252"><ele>216.00000000000003</ele><time>2026-04-04T14:01:22Z</time></trkpt><trkpt lat="46.215669617069054" lon="13.208416665661009"><ele>216.0</ele><time>2026-04-04T14:01:23Z</time></trkpt><trkpt lat="46.21564548904976" lon="13.20857251056426"><ele>216.0</ele><time>2026-04-04T14:01:24Z</time></trkpt><trkpt lat="46.21561523407935" lon="13.208728602255544"><ele>216.5</ele><time>2026-04-04T14:01:25Z</time></trkpt><trkpt lat="46.21556283327822" lon="13.208870317196746"><ele>217.0</ele><time>2026-04-04T14:01:26Z</time></trkpt><trkpt lat="46.21550640983833" lon="13.209018753134062"><ele>217.5</ele><time>2026-04-04T14:01:27Z</time></trkpt><trkpt lat="46.215453628717896" lon="13.209178902510253"><ele>218.0</ele><time>2026-04-04T14:01:28Z</time></trkpt><trkpt lat="46.215412236208365" lon="13.209348982159266"><ele>218.0</ele><time>2026-04-04T14:01:29Z</time></trkpt><trkpt lat="46.215389977395745" lon="13.209525264384308"><ele>218.0</ele><time>2026-04-04T14:01:30Z</time></trkpt><trkpt lat="46.21538343884622" lon="13.209707423059525"><ele>218.0</ele><time>2026-04-04T14:01:31Z</time></trkpt><trkpt lat="46.21538085643503" lon="13.209885592686062"><ele>218.0</ele><time>2026-04-04T14:01:32Z</time></trkpt><trkpt lat="46.21537461608895" lon="13.210061036214329"><ele>218.5</ele><time>2026-04-04T14:01:33Z</time></trkpt><trkpt lat="46.21536459803002" lon="13.210229935391574"><ele>219.0</ele><time>2026-04-04T14:01:34Z</time></trkpt><trkpt lat="46.2153547906388" lon="13.210394283625902"><ele>219.5</ele><time>2026-04-04T14:01:35Z</time></trkpt><trkpt lat="46.21534394610728" lon="13.21055648350307"><ele>220.0</ele><time>2026-04-04T14:01:36Z</time></trkpt><trkpt lat="46.2153323896552" lon="13.210717471021919"><ele>220.0</ele><time>2026-04-04T14:01:37Z</time></trkpt><trkpt lat="46.215313350915885" lon="13.210870013499258"><ele>220.0</ele><time>2026-04-04T14:01:38Z</time></trkpt><trkpt lat="46.215287509918724" lon="13.21102676522793"><ele>220.0</ele><time>2026-04-04T14:01:39Z</time></trkpt><trkpt lat="46.215260063839935" lon="13.211183464614027"><ele>220.0</ele><time>2026-04-04T14:01:40Z</time></trkpt><trkpt lat="46.21523272120747" lon="13.211350580645128"><ele>220.0</ele><time>2026-04-04T14:01:41Z</time></trkpt><trkpt lat="46.21522154819218" lon="13.211529237731506"><ele>220.0</ele><time>2026-04-04T14:01:42Z</time></trkpt><trkpt lat="46.215219328134886" lon="13.21170367106488"><ele>220.0</ele><time>2026-04-04T14:01:43Z</time></trkpt><trkpt lat="46.215213862276244" lon="13.211870676308287"><ele>220.0</ele><time>2026-04-04T14:01:44Z</time></trkpt><trkpt lat="46.2151942992777" lon="13.212032373794873"><ele>220.0</ele><time>2026-04-04T14:01:45Z</time></trkpt><trkpt lat="46.21516626966183" lon="13.21219264910036"><ele>220.5</ele><time>2026-04-04T14:01:46Z</time></trkpt><trkpt lat="46.21513298784369" lon="13.21235813851862"><ele>221.0</ele><time>2026-04-04T14:01:47Z</time></trkpt><trkpt lat="46.215105716022755" lon="13.212524414773176"><ele>221.5</ele><time>2026-04-04T14:01:47.999Z</time></trkpt><trkpt lat="46.215081856995944" lon="13.212685754279429"><ele>222.0</ele><time>2026-04-04T14:01:48.999Z</time></trkpt><trkpt lat="46.21505673257107" lon="13.212848499186427"><ele>222.0</ele><time>2026-04-04T14:01:49.999Z</time></trkpt><trkpt lat="46.21503156698565" lon="13.213011510631366"><ele>222.0</ele><time>2026-04-04T14:01:50.999Z</time></trkpt><trkpt lat="46.21501010994572" lon="13.213177407415566"><ele>222.0</ele><time>2026-04-04T14:01:51.999Z</time></trkpt><trkpt lat="46.21499462322244" lon="13.213350923754993"><ele>222.0</ele><time>2026-04-04T14:01:52.999Z</time></trkpt><trkpt lat="46.21498915102883" lon="13.213526990615037"><ele>222.0</ele><time>2026-04-04T14:01:53.999Z</time></trkpt><trkpt lat="46.214984351735225" lon="13.213697364193603"><ele>222.0</ele><time>2026-04-04T14:01:54.999Z</time></trkpt><trkpt lat="46.21498022563443" lon="13.21386633187815"><ele>222.0</ele><time>2026-04-04T14:01:55.999Z</time></trkpt><trkpt lat="46.214976688520316" lon="13.214033120489077"><ele>222.0</ele><time>2026-04-04T14:01:56.999Z</time></trkpt><trkpt lat="46.214973209338645" lon="13.214197177196665"><ele>222.0</ele><time>2026-04-04T14:01:57.999Z</time></trkpt><trkpt lat="46.2149697801745" lon="13.21435887553927"><ele>222.0</ele><time>2026-04-04T14:01:58.999Z</time></trkpt><trkpt lat="46.21496665531283" lon="13.214516179585969"><ele>222.0</ele><time>2026-04-04T14:01:59.999Z</time></trkpt><trkpt lat="46.21496366203088" lon="13.214668744877496"><ele>222.0</ele><time>2026-04-04T14:02:00.999Z</time></trkpt><trkpt lat="46.21496068977371" lon="13.214820242628111"><ele>222.0</ele><time>2026-04-04T14:02:01.999Z</time></trkpt><trkpt lat="46.21495759947888" lon="13.214967229174269"><ele>222.39999999999998</ele><time>2026-04-04T14:02:02.999Z</time></trkpt><trkpt lat="46.21495462153828" lon="13.21511294843667"><ele>222.79999999999998</ele><time>2026-04-04T14:02:03.999Z</time></trkpt><trkpt lat="46.21495179233389" lon="13.215259429800083"><ele>223.2</ele><time>2026-04-04T14:02:04.999Z</time></trkpt><trkpt lat="46.214948452751216" lon="13.215409856507282"><ele>223.6</ele><time>2026-04-04T14:02:05.999Z</time></trkpt><trkpt lat="46.21494490007534" lon="13.215562915275138"><ele>224.0</ele><time>2026-04-04T14:02:06.999Z</time></trkpt><trkpt lat="46.21494166162697" lon="13.215718678476097"><ele>224.0</ele><time>2026-04-04T14:02:07.999Z</time></trkpt><trkpt lat="46.214938513697234" lon="13.21587499764679"><ele>223.99999999999997</ele><time>2026-04-04T14:02:08.999Z</time></trkpt><trkpt lat="46.21493534580013" lon="13.21603230804034"><ele>223.99999999999997</ele><time>2026-04-04T14:02:09.999Z</time></trkpt><trkpt lat="46.21493200741589" lon="13.216191739697074"><ele>224.0</ele><time>2026-04-04T14:02:10.999Z</time></trkpt><trkpt lat="46.214928359853346" lon="13.216351040698775"><ele>224.0</ele><time>2026-04-04T14:02:11.999Z</time></trkpt><trkpt lat="46.21492539171826" lon="13.216512443103271"><ele>223.75</ele><time>2026-04-04T14:02:12.999Z</time></trkpt><trkpt lat="46.21492213814137" lon="13.216675630185717"><ele>223.5</ele><time>2026-04-04T14:02:13.999Z</time></trkpt><trkpt lat="46.214918785662675" lon="13.216839697830572"><ele>223.25</ele><time>2026-04-04T14:02:14.999Z</time></trkpt><trkpt lat="46.21491537384121" lon="13.2170066696733"><ele>223.0</ele><time>2026-04-04T14:02:15.999Z</time></trkpt><trkpt lat="46.21491202590069" lon="13.217170515126696"><ele>223.2</ele><time>2026-04-04T14:02:16.999Z</time></trkpt><trkpt lat="46.2149392214096" lon="13.217331836354376"><ele>223.4</ele><time>2026-04-04T14:02:17.999Z</time></trkpt><trkpt lat="46.21493550033896" lon="13.21749096877264"><ele>223.59999999999997</ele><time>2026-04-04T14:02:18.999Z</time></trkpt><trkpt lat="46.21493020773266" lon="13.217646754032874"><ele>223.79999999999998</ele><time>2026-04-04T14:02:19.999Z</time></trkpt><trkpt lat="46.21492656787345" lon="13.21779907698012"><ele>224.0</ele><time>2026-04-04T14:02:20.999Z</time></trkpt><trkpt lat="46.214895884480725" lon="13.217948403308041"><ele>224.0</ele><time>2026-04-04T14:02:21.999Z</time></trkpt><trkpt lat="46.21489297027265" lon="13.218096340780807"><ele>223.99999999999997</ele><time>2026-04-04T14:02:22.999Z</time></trkpt><trkpt lat="46.21488958637437" lon="13.218241005149967"><ele>223.99999999999997</ele><time>2026-04-04T14:02:23.999Z</time></trkpt><trkpt lat="46.21488643970331" lon="13.218381691930649"><ele>224.0</ele><time>2026-04-04T14:02:24.999Z</time></trkpt><trkpt lat="46.214883295103014" lon="13.218522288643626"><ele>224.0</ele><time>2026-04-04T14:02:25.999Z</time></trkpt><trkpt lat="46.21488049441462" lon="13.218652393947478"><ele>224.39999999999998</ele><time>2026-04-04T14:02:26.999Z</time></trkpt><trkpt lat="46.21487799875639" lon="13.218766833695703"><ele>224.79999999999998</ele><time>2026-04-04T14:02:27.999Z</time></trkpt><trkpt lat="46.21487549784066" lon="13.218871104942364"><ele>225.20000000000002</ele><time>2026-04-04T14:02:29Z</time></trkpt><trkpt lat="46.21487338732383" lon="13.218962054207374"><ele>225.60000000000002</ele><time>2026-04-04T14:02:30Z</time></trkpt><trkpt lat="46.214869005315336" lon="13.219139882576407"><ele>226.0</ele><time>2026-04-04T14:02:32Z</time></trkpt><trkpt lat="46.21486477675722" lon="13.219305254871337"><ele>226.0</ele><time>2026-04-04T14:02:34Z</time></trkpt><trkpt lat="46.21486915996892" lon="13.219484759221771"><ele>226.0</ele><time>2026-04-04T14:02:36Z</time></trkpt><trkpt lat="46.21482649330834" lon="13.219581088987617"><ele>226.0</ele><time>2026-04-04T14:02:37Z</time></trkpt><trkpt lat="46.214796933146346" lon="13.219687428117219"><ele>226.0</ele><time>2026-04-04T14:02:38Z</time></trkpt><trkpt lat="46.214624112804174" lon="13.219652981637157"><ele>226.20000000000002</ele><time>2026-04-04T14:02:39Z</time></trkpt><trkpt lat="46.214621825977794" lon="13.219868608424704"><ele>226.40000000000003</ele><time>2026-04-04T14:02:40Z</time></trkpt><trkpt lat="46.21455125912872" lon="13.219919105633767"><ele>226.6</ele><time>2026-04-04T14:02:41Z</time></trkpt><trkpt lat="46.21448182383974" lon="13.219967066024298"><ele>226.8</ele><time>2026-04-04T14:02:43Z</time></trkpt><trkpt lat="46.21437003690548" lon="13.219987962603803"><ele>227.0</ele><time>2026-04-04T14:02:49Z</time></trkpt><trkpt lat="46.21429814633798" lon="13.219988444199453"><ele>227.00000000000003</ele><time>2026-04-04T14:02:50Z</time></trkpt><trkpt lat="46.21422258404177" lon="13.219923725757047"><ele>227.0</ele><time>2026-04-04T14:02:51Z</time></trkpt><trkpt lat="46.21414195887095" lon="13.219897876161262"><ele>227.0</ele><time>2026-04-04T14:02:52Z</time></trkpt><trkpt lat="46.21408018968237" lon="13.219863034971464"><ele>227.0</ele><time>2026-04-04T14:02:53Z</time></trkpt><trkpt lat="46.21402143197424" lon="13.219828087943213"><ele>227.00000000000003</ele><time>2026-04-04T14:02:54Z</time></trkpt><trkpt lat="46.21389841180664" lon="13.219766045213927"><ele>227.0</ele><time>2026-04-04T14:02:56Z</time></trkpt><trkpt lat="46.213832732239105" lon="13.219716828765044"><ele>226.8</ele><time>2026-04-04T14:02:57Z</time></trkpt><trkpt lat="46.21374846110101" lon="13.219716693628062"><ele>226.6</ele><time>2026-04-04T14:02:58Z</time></trkpt><trkpt lat="46.21365860025508" lon="13.219740338274537"><ele>226.40000000000003</ele><time>2026-04-04T14:02:59Z</time></trkpt><trkpt lat="46.21356963622104" lon="13.21976757859017"><ele>226.20000000000002</ele><time>2026-04-04T14:03:00Z</time></trkpt><trkpt lat="46.213477428565994" lon="13.21981009019869"><ele>226.0</ele><time>2026-04-04T14:03:01Z</time></trkpt><trkpt lat="46.2133816057606" lon="13.219864689001948"><ele>226.5</ele><time>2026-04-04T14:03:02Z</time></trkpt><trkpt lat="46.21328270001146" lon="13.219925391096824"><ele>227.0</ele><time>2026-04-04T14:03:03Z</time></trkpt><trkpt lat="46.21317538099686" lon="13.219998219485786"><ele>227.5</ele><time>2026-04-04T14:03:04Z</time></trkpt><trkpt lat="46.21306511396354" lon="13.22008718810673"><ele>228.0</ele><time>2026-04-04T14:03:05Z</time></trkpt><trkpt lat="46.21295419404366" lon="13.220178345405953"><ele>226.75</ele><time>2026-04-04T14:03:06Z</time></trkpt><trkpt lat="46.212841497867785" lon="13.22027096439607"><ele>225.5</ele><time>2026-04-04T14:03:07Z</time></trkpt><trkpt lat="46.21273394490565" lon="13.220365735382549"><ele>224.25</ele><time>2026-04-04T14:03:08Z</time></trkpt><trkpt lat="46.212626225698415" lon="13.220462961457342"><ele>223.0</ele><time>2026-04-04T14:03:09Z</time></trkpt><trkpt lat="46.2125110496934" lon="13.220566735206022"><ele>223.25</ele><time>2026-04-04T14:03:10Z</time></trkpt><trkpt lat="46.21239433871436" lon="13.220671838011663"><ele>223.5</ele><time>2026-04-04T14:03:11Z</time></trkpt><trkpt lat="46.21228022641821" lon="13.220775891561091"><ele>223.75</ele><time>2026-04-04T14:03:12Z</time></trkpt><trkpt lat="46.21216961587692" lon="13.220877317522858"><ele>224.0</ele><time>2026-04-04T14:03:13Z</time></trkpt><trkpt lat="46.212061145711964" lon="13.22097678000773"><ele>224.0</ele><time>2026-04-04T14:03:14Z</time></trkpt><trkpt lat="46.211956148780466" lon="13.221072605044107"><ele>224.0</ele><time>2026-04-04T14:03:15Z</time></trkpt><trkpt lat="46.21185265876217" lon="13.221167120377082"><ele>224.0</ele><time>2026-04-04T14:03:16Z</time></trkpt><trkpt lat="46.21175056624206" lon="13.22126035937354"><ele>224.0</ele><time>2026-04-04T14:03:17Z</time></trkpt><trkpt lat="46.211642868652085" lon="13.221358717284739"><ele>224.0</ele><time>2026-04-04T14:03:18Z</time></trkpt><trkpt lat="46.21152969357692" lon="13.221462077591546"><ele>224.0</ele><time>2026-04-04T14:03:19Z</time></trkpt><trkpt lat="46.21141680538792" lon="13.22156517605148"><ele>224.0</ele><time>2026-04-04T14:03:20Z</time></trkpt><trkpt lat="46.21130058688806" lon="13.221671315940645"><ele>224.0</ele><time>2026-04-04T14:03:21Z</time></trkpt><trkpt lat="46.21118460869658" lon="13.22177913582363"><ele>223.5</ele><time>2026-04-04T14:03:22Z</time></trkpt><trkpt lat="46.21106745667226" lon="13.221888348788573"><ele>223.0</ele><time>2026-04-04T14:03:23Z</time></trkpt><trkpt lat="46.21095089137964" lon="13.221997014809359"><ele>222.5</ele><time>2026-04-04T14:03:24Z</time></trkpt><trkpt lat="46.210832582274115" lon="13.222107306427292"><ele>222.0</ele><time>2026-04-04T14:03:25Z</time></trkpt><trkpt lat="46.21071248089114" lon="13.222215130521866"><ele>221.0</ele><time>2026-04-04T14:03:26Z</time></trkpt><trkpt lat="46.2105880042587" lon="13.22232689994501"><ele>220.0</ele><time>2026-04-04T14:03:27Z</time></trkpt><trkpt lat="46.210466660719334" lon="13.222440222474406"><ele>219.0</ele><time>2026-04-04T14:03:28Z</time></trkpt><trkpt lat="46.21034732604107" lon="13.22256488006078"><ele>218.0</ele><time>2026-04-04T14:03:29Z</time></trkpt><trkpt lat="46.210234023507496" lon="13.22270112561384"><ele>218.0</ele><time>2026-04-04T14:03:30Z</time></trkpt><trkpt lat="46.21012729009948" lon="13.222849240421425"><ele>218.0</ele><time>2026-04-04T14:03:31Z</time></trkpt><trkpt lat="46.2100274363246" lon="13.22299794150745"><ele>218.0</ele><time>2026-04-04T14:03:32Z</time></trkpt><trkpt lat="46.209930125565165" lon="13.223140231730598"><ele>218.0</ele><time>2026-04-04T14:03:33Z</time></trkpt><trkpt lat="46.20983436674277" lon="13.223280252729039"><ele>217.5</ele><time>2026-04-04T14:03:34Z</time></trkpt><trkpt lat="46.209740844575656" lon="13.223417003158513"><ele>217.0</ele><time>2026-04-04T14:03:35Z</time></trkpt><trkpt lat="46.20964863036021" lon="13.223553304123387"><ele>216.5</ele><time>2026-04-04T14:03:36Z</time></trkpt><trkpt lat="46.209557787634886" lon="13.223687633535551"><ele>216.0</ele><time>2026-04-04T14:03:37Z</time></trkpt><trkpt lat="46.2094670512732" lon="13.223821805723947"><ele>216.0</ele><time>2026-04-04T14:03:38Z</time></trkpt><trkpt lat="46.20937769272046" lon="13.22395394036532"><ele>216.0</ele><time>2026-04-04T14:03:39Z</time></trkpt><trkpt lat="46.20928867729611" lon="13.224085567941158"><ele>216.0</ele><time>2026-04-04T14:03:40Z</time></trkpt><trkpt lat="46.20920023365799" lon="13.224216349841095"><ele>216.0</ele><time>2026-04-04T14:03:41Z</time></trkpt><trkpt lat="46.209112805397275" lon="13.224345630293291"><ele>216.0</ele><time>2026-04-04T14:03:42Z</time></trkpt><trkpt lat="46.209026144423866" lon="13.224473149118634"><ele>216.0</ele><time>2026-04-04T14:03:43Z</time></trkpt><trkpt lat="46.20894056750674" lon="13.224598952901882"><ele>216.0</ele><time>2026-04-04T14:03:44Z</time></trkpt><trkpt lat="46.2088548731131" lon="13.224722819702492"><ele>216.0</ele><time>2026-04-04T14:03:45Z</time></trkpt><trkpt lat="46.208768745761795" lon="13.224847302283692"><ele>216.0</ele><time>2026-04-04T14:03:46Z</time></trkpt><trkpt lat="46.20868422679045" lon="13.224969460160093"><ele>216.0</ele><time>2026-04-04T14:03:47Z</time></trkpt><trkpt lat="46.208601012741596" lon="13.225089732010609"><ele>216.0</ele><time>2026-04-04T14:03:48Z</time></trkpt><trkpt lat="46.2085159682634" lon="13.225210719883982"><ele>216.0</ele><time>2026-04-04T14:03:49Z</time></trkpt><trkpt lat="46.208429971517404" lon="13.225327383321403"><ele>216.0</ele><time>2026-04-04T14:03:50Z</time></trkpt><trkpt lat="46.20833570040478" lon="13.225436735299692"><ele>216.0</ele><time>2026-04-04T14:03:50.999Z</time></trkpt><trkpt lat="46.20823409967796" lon="13.225539603903497"><ele>216.0</ele><time>2026-04-04T14:03:51.999Z</time></trkpt><trkpt lat="46.208127704862484" lon="13.225637217739036"><ele>216.0</ele><time>2026-04-04T14:03:52.999Z</time></trkpt><trkpt lat="46.20801203167648" lon="13.22572999528786"><ele>216.0</ele><time>2026-04-04T14:03:53.999Z</time></trkpt><trkpt lat="46.207893593437625" lon="13.225834991960063"><ele>216.0</ele><time>2026-04-04T14:03:54.999Z</time></trkpt><trkpt lat="46.207755927381" lon="13.225890458714915"><ele>216.0</ele><time>2026-04-04T14:03:55.999Z</time></trkpt><trkpt lat="46.20762246178038" lon="13.225958279988456"><ele>216.0</ele><time>2026-04-04T14:03:56.999Z</time></trkpt><trkpt lat="46.20749098121073" lon="13.226023678657082"><ele>216.0</ele><time>2026-04-04T14:03:57.999Z</time></trkpt><trkpt lat="46.207364369121564" lon="13.226086655426016"><ele>216.0</ele><time>2026-04-04T14:03:58.999Z</time></trkpt><trkpt lat="46.2072498312255" lon="13.226143639880197"><ele>216.0</ele><time>2026-04-04T14:03:59.999Z</time></trkpt><trkpt lat="46.20713679378209" lon="13.226200898671674"><ele>216.0</ele><time>2026-04-04T14:04:00.999Z</time></trkpt><trkpt lat="46.20702521630288" lon="13.226257539079718"><ele>215.8</ele><time>2026-04-04T14:04:01.999Z</time></trkpt><trkpt lat="46.206921372942" lon="13.226310253389716"><ele>215.60000000000002</ele><time>2026-04-04T14:04:02.999Z</time></trkpt><trkpt lat="46.20682711108638" lon="13.226358103759495"><ele>215.4</ele><time>2026-04-04T14:04:03.999Z</time></trkpt><trkpt lat="46.20674113518501" lon="13.22640174719935"><ele>215.2</ele><time>2026-04-04T14:04:04.999Z</time></trkpt><trkpt lat="46.20666121558889" lon="13.226442701696485"><ele>215.0</ele><time>2026-04-04T14:04:05.999Z</time></trkpt><trkpt lat="46.20658123163666" lon="13.22648358004098"><ele>215.00000000000003</ele><time>2026-04-04T14:04:06.999Z</time></trkpt><trkpt lat="46.206500780018075" lon="13.226524696310411"><ele>215.0</ele><time>2026-04-04T14:04:07.999Z</time></trkpt><trkpt lat="46.206425804196314" lon="13.226562063469196"><ele>215.0</ele><time>2026-04-04T14:04:08.999Z</time></trkpt><trkpt lat="46.20635025817318" lon="13.226600558037555"><ele>215.0</ele><time>2026-04-04T14:04:09.999Z</time></trkpt><trkpt lat="46.20627117752553" lon="13.22664085366233"><ele>215.00000000000003</ele><time>2026-04-04T14:04:10.999Z</time></trkpt><trkpt lat="46.20618475192068" lon="13.226684891925087"><ele>215.0</ele><time>2026-04-04T14:04:11.999Z</time></trkpt><trkpt lat="46.20608697219349" lon="13.226734715754958"><ele>215.0</ele><time>2026-04-04T14:04:12.999Z</time></trkpt><trkpt lat="46.2059714333773" lon="13.22679356298019"><ele>215.0</ele><time>2026-04-04T14:04:13.999Z</time></trkpt><trkpt lat="46.20585124708615" lon="13.226854742670623"><ele>215.0</ele><time>2026-04-04T14:04:14.999Z</time></trkpt><trkpt lat="46.2057242537085" lon="13.226919387377398"><ele>215.0</ele><time>2026-04-04T14:04:15.999Z</time></trkpt><trkpt lat="46.20559392658829" lon="13.22698572992727"><ele>214.75</ele><time>2026-04-04T14:04:16.999Z</time></trkpt><trkpt lat="46.20546435269509" lon="13.227052370804566"><ele>214.5</ele><time>2026-04-04T14:04:17.999Z</time></trkpt><trkpt lat="46.205332663919506" lon="13.227119952510625"><ele>214.25</ele><time>2026-04-04T14:04:18.999Z</time></trkpt><trkpt lat="46.20520031303475" lon="13.227187874006047"><ele>214.0</ele><time>2026-04-04T14:04:19.999Z</time></trkpt><trkpt lat="46.20506591772451" lon="13.22725466110802"><ele>213.25</ele><time>2026-04-04T14:04:20.999Z</time></trkpt><trkpt lat="46.204932040870915" lon="13.227320757973047"><ele>212.5</ele><time>2026-04-04T14:04:21.999Z</time></trkpt><trkpt lat="46.20479716851875" lon="13.22738740039616"><ele>211.75</ele><time>2026-04-04T14:04:22.999Z</time></trkpt><trkpt lat="46.20466243016837" lon="13.227453976570805"><ele>211.0</ele><time>2026-04-04T14:04:23.999Z</time></trkpt><trkpt lat="46.20452736053907" lon="13.22752253391346"><ele>210.5</ele><time>2026-04-04T14:04:24.999Z</time></trkpt><trkpt lat="46.20439439689703" lon="13.227590577249636"><ele>210.0</ele><time>2026-04-04T14:04:25.999Z</time></trkpt><trkpt lat="46.204260355574014" lon="13.227659172094384"><ele>209.5</ele><time>2026-04-04T14:04:26.999Z</time></trkpt><trkpt lat="46.20413192985522" lon="13.227747981879794"><ele>209.0</ele><time>2026-04-04T14:04:27.999Z</time></trkpt><trkpt lat="46.20399987323328" lon="13.22781155897152"><ele>209.0</ele><time>2026-04-04T14:04:28.999Z</time></trkpt><trkpt lat="46.203869657765054" lon="13.227874976291886"><ele>209.0</ele><time>2026-04-04T14:04:29.999Z</time></trkpt><trkpt lat="46.203741374752056" lon="13.227937990335052"><ele>209.0</ele><time>2026-04-04T14:04:30.999Z</time></trkpt><trkpt lat="46.20361422878646" lon="13.228003314308491"><ele>209.0</ele><time>2026-04-04T14:04:31.999Z</time></trkpt><trkpt lat="46.20349551856605" lon="13.228080725929392"><ele>209.0</ele><time>2026-04-04T14:04:32.999Z</time></trkpt><trkpt lat="46.20337591996069" lon="13.22813657098927"><ele>209.0</ele><time>2026-04-04T14:04:33.999Z</time></trkpt><trkpt lat="46.20328970425476" lon="13.228288217340546"><ele>209.0</ele><time>2026-04-04T14:04:35Z</time></trkpt><trkpt lat="46.20323517058852" lon="13.228459799853713"><ele>209.0</ele><time>2026-04-04T14:04:36Z</time></trkpt><trkpt lat="46.203238510717966" lon="13.228654153774146"><ele>209.0</ele><time>2026-04-04T14:04:37Z</time></trkpt><trkpt lat="46.20324648439205" lon="13.228855735665297"><ele>209.0</ele><time>2026-04-04T14:04:38Z</time></trkpt><trkpt lat="46.20323076200784" lon="13.229081612744093"><ele>209.0</ele><time>2026-04-04T14:04:39Z</time></trkpt><trkpt lat="46.20322711756648" lon="13.229311147633222"><ele>209.0</ele><time>2026-04-04T14:04:40Z</time></trkpt><trkpt lat="46.20322448121469" lon="13.229518925872366"><ele>209.0</ele><time>2026-04-04T14:04:41Z</time></trkpt><trkpt lat="46.2032179406313" lon="13.229695301952185"><ele>209.0</ele><time>2026-04-04T14:04:42Z</time></trkpt><trkpt lat="46.2031979689158" lon="13.229846791551779"><ele>209.0</ele><time>2026-04-04T14:04:43Z</time></trkpt><trkpt lat="46.20315538654565" lon="13.229980100574961"><ele>208.75</ele><time>2026-04-04T14:04:44Z</time></trkpt><trkpt lat="46.203041270935756" lon="13.230044207370117"><ele>208.5</ele><time>2026-04-04T14:04:45Z</time></trkpt><trkpt lat="46.202910748813984" lon="13.230129045201553"><ele>208.25</ele><time>2026-04-04T14:04:46Z</time></trkpt><trkpt lat="46.20273453396796" lon="13.230198836983844"><ele>208.0</ele><time>2026-04-04T14:04:47Z</time></trkpt><trkpt lat="46.20251130542882" lon="13.230290980573113"><ele>206.0</ele><time>2026-04-04T14:04:48Z</time></trkpt><trkpt lat="46.202254105147965" lon="13.230396500377426"><ele>204.0</ele><time>2026-04-04T14:04:49Z</time></trkpt><trkpt lat="46.20203877952654" lon="13.230499971994568"><ele>204.0</ele><time>2026-04-04T14:04:50Z</time></trkpt><trkpt lat="46.20182646110539" lon="13.230609370814879"><ele>204.0</ele><time>2026-04-04T14:04:51Z</time></trkpt><trkpt lat="46.20162917318624" lon="13.230760369417533"><ele>204.0</ele><time>2026-04-04T14:04:52Z</time></trkpt><trkpt lat="46.20145110432881" lon="13.230935948621186"><ele>204.0</ele><time>2026-04-04T14:04:53Z</time></trkpt><trkpt lat="46.20127583618961" lon="13.231092187691287"><ele>204.0</ele><time>2026-04-04T14:04:54Z</time></trkpt><trkpt lat="46.2011123731751" lon="13.231253757579362"><ele>204.0</ele><time>2026-04-04T14:04:55Z</time></trkpt><trkpt lat="46.20094244067924" lon="13.231417887679546"><ele>204.0</ele><time>2026-04-04T14:04:56Z</time></trkpt><trkpt lat="46.20075661833079" lon="13.231590208666255"><ele>204.0</ele><time>2026-04-04T14:04:57Z</time></trkpt><trkpt lat="46.200570508061396" lon="13.231768658516346"><ele>204.0</ele><time>2026-04-04T14:04:58Z</time></trkpt><trkpt lat="46.200393671127586" lon="13.231938505984647"><ele>204.0</ele><time>2026-04-04T14:04:59Z</time></trkpt><trkpt lat="46.200225495319444" lon="13.232100090057152"><ele>204.0</ele><time>2026-04-04T14:05:00Z</time></trkpt><trkpt lat="46.200055709720196" lon="13.232259625530602"><ele>204.0</ele><time>2026-04-04T14:05:01Z</time></trkpt><trkpt lat="46.19988359939014" lon="13.232407874314688"><ele>203.33333333333331</ele><time>2026-04-04T14:05:02Z</time></trkpt><trkpt lat="46.199705380630284" lon="13.232534130945613"><ele>202.66666666666666</ele><time>2026-04-04T14:05:03Z</time></trkpt><trkpt lat="46.19952969731491" lon="13.23263706215771"><ele>202.0</ele><time>2026-04-04T14:05:04Z</time></trkpt><trkpt lat="46.19937234684402" lon="13.232739166834845"><ele>202.0</ele><time>2026-04-04T14:05:05Z</time></trkpt><trkpt lat="46.19921397070362" lon="13.232834248407865"><ele>202.0</ele><time>2026-04-04T14:05:06Z</time></trkpt><trkpt lat="46.199050358698926" lon="13.232922728666297"><ele>202.0</ele><time>2026-04-04T14:05:07Z</time></trkpt><trkpt lat="46.19889087509732" lon="13.233013377097228"><ele>202.66666666666666</ele><time>2026-04-04T14:05:08Z</time></trkpt><trkpt lat="46.19874123258582" lon="13.233120437127074"><ele>203.33333333333331</ele><time>2026-04-04T14:05:09Z</time></trkpt><trkpt lat="46.198603844141246" lon="13.233255940881799"><ele>204.0</ele><time>2026-04-04T14:05:10Z</time></trkpt><trkpt lat="46.198482144470184" lon="13.233422716605467"><ele>204.0</ele><time>2026-04-04T14:05:11Z</time></trkpt><trkpt lat="46.19836947777207" lon="13.233624195707987"><ele>204.0</ele><time>2026-04-04T14:05:12Z</time></trkpt><trkpt lat="46.19824196208882" lon="13.233816193764389"><ele>204.0</ele><time>2026-04-04T14:05:13Z</time></trkpt><trkpt lat="46.19813398650534" lon="13.234012975023631"><ele>203.33333333333331</ele><time>2026-04-04T14:05:14Z</time></trkpt><trkpt lat="46.19800151565969" lon="13.23416492287077"><ele>202.66666666666666</ele><time>2026-04-04T14:05:15Z</time></trkpt><trkpt lat="46.197862783755866" lon="13.234289551581876"><ele>202.0</ele><time>2026-04-04T14:05:16Z</time></trkpt><trkpt lat="46.19772019370139" lon="13.23440216352758"><ele>202.0</ele><time>2026-04-04T14:05:17Z</time></trkpt><trkpt lat="46.197583280504055" lon="13.234513092070145"><ele>202.0</ele><time>2026-04-04T14:05:18Z</time></trkpt><trkpt lat="46.19744950071841" lon="13.234649372019561"><ele>202.0</ele><time>2026-04-04T14:05:19Z</time></trkpt><trkpt lat="46.197311247152435" lon="13.234805254610237"><ele>201.0</ele><time>2026-04-04T14:05:20Z</time></trkpt><trkpt lat="46.19719290594113" lon="13.23497927877911"><ele>200.0</ele><time>2026-04-04T14:05:21Z</time></trkpt><trkpt lat="46.197081362411524" lon="13.235153188905688"><ele>199.0</ele><time>2026-04-04T14:05:22Z</time></trkpt><trkpt lat="46.19697249375235" lon="13.235327833507618"><ele>199.0</ele><time>2026-04-04T14:05:23Z</time></trkpt><trkpt lat="46.19686710435823" lon="13.235496200242851"><ele>199.0</ele><time>2026-04-04T14:05:24Z</time></trkpt><trkpt lat="46.19676134465902" lon="13.235661467978053"><ele>199.0</ele><time>2026-04-04T14:05:25Z</time></trkpt><trkpt lat="46.19665424714459" lon="13.23582882349284"><ele>198.75</ele><time>2026-04-04T14:05:26Z</time></trkpt><trkpt lat="46.19655342658872" lon="13.23599363821496"><ele>198.5</ele><time>2026-04-04T14:05:27Z</time></trkpt><trkpt lat="46.196456410446714" lon="13.236149960346394"><ele>198.25</ele><time>2026-04-04T14:05:28Z</time></trkpt><trkpt lat="46.19635980985743" lon="13.2363017808675"><ele>198.0</ele><time>2026-04-04T14:05:29Z</time></trkpt><trkpt lat="46.196264132380016" lon="13.236451213435341"><ele>198.0</ele><time>2026-04-04T14:05:30Z</time></trkpt><trkpt lat="46.196169120400064" lon="13.236601088428229"><ele>198.0</ele><time>2026-04-04T14:05:31Z</time></trkpt><trkpt lat="46.196077784005" lon="13.23674751909164"><ele>198.0</ele><time>2026-04-04T14:05:32Z</time></trkpt><trkpt lat="46.19600592678404" lon="13.236903729849173"><ele>198.0</ele><time>2026-04-04T14:05:33Z</time></trkpt><trkpt lat="46.19591723597946" lon="13.237042723993424"><ele>198.0</ele><time>2026-04-04T14:05:34Z</time></trkpt><trkpt lat="46.19587593826218" lon="13.237236601535203"><ele>198.0</ele><time>2026-04-04T14:05:35Z</time></trkpt><trkpt lat="46.19585305292482" lon="13.237451380959802"><ele>198.0</ele><time>2026-04-04T14:05:36Z</time></trkpt><trkpt lat="46.19580876701284" lon="13.237680660963388"><ele>199.0</ele><time>2026-04-04T14:05:37Z</time></trkpt><trkpt lat="46.19578422366082" lon="13.237914359565213"><ele>200.0</ele><time>2026-04-04T14:05:38Z</time></trkpt><trkpt lat="46.19576360189728" lon="13.23814439560885"><ele>201.0</ele><time>2026-04-04T14:05:39Z</time></trkpt><trkpt lat="46.195742111766" lon="13.238384118306861"><ele>201.33333333333331</ele><time>2026-04-04T14:05:40Z</time></trkpt><trkpt lat="46.195720631004185" lon="13.238628556624743"><ele>201.66666666666666</ele><time>2026-04-04T14:05:41Z</time></trkpt><trkpt lat="46.195700667967806" lon="13.238872108169042"><ele>202.0</ele><time>2026-04-04T14:05:42Z</time></trkpt><trkpt lat="46.19568179598426" lon="13.239113593351624"><ele>201.0</ele><time>2026-04-04T14:05:43Z</time></trkpt><trkpt lat="46.19567165712887" lon="13.239358091015198"><ele>200.0</ele><time>2026-04-04T14:05:44Z</time></trkpt><trkpt lat="46.19568780195992" lon="13.23961049966375"><ele>199.0</ele><time>2026-04-04T14:05:45Z</time></trkpt><trkpt lat="46.19571635177719" lon="13.239876878232131"><ele>197.66666666666666</ele><time>2026-04-04T14:05:46Z</time></trkpt><trkpt lat="46.195751452331244" lon="13.240162465727632"><ele>196.33333333333331</ele><time>2026-04-04T14:05:47Z</time></trkpt><trkpt lat="46.195790186306084" lon="13.240488716420295"><ele>195.0</ele><time>2026-04-04T14:05:48Z</time></trkpt><trkpt lat="46.195835731031345" lon="13.240872418421947"><ele>195.0</ele><time>2026-04-04T14:05:49Z</time></trkpt><trkpt lat="46.19588218116653" lon="13.241255724799165"><ele>195.0</ele><time>2026-04-04T14:05:50Z</time></trkpt><trkpt lat="46.195924133290255" lon="13.241598006438405"><ele>195.0</ele><time>2026-04-04T14:05:51Z</time></trkpt><trkpt lat="46.19596307537173" lon="13.241915724247496"><ele>195.0</ele><time>2026-04-04T14:05:52Z</time></trkpt><trkpt lat="46.195997570991636" lon="13.242203639208967"><ele>195.0</ele><time>2026-04-04T14:05:53Z</time></trkpt><trkpt lat="46.19602875876362" lon="13.242468427082969"><ele>195.0</ele><time>2026-04-04T14:05:54Z</time></trkpt><trkpt lat="46.196051689109126" lon="13.24270748732612"><ele>195.0</ele><time>2026-04-04T14:05:55Z</time></trkpt><trkpt lat="46.19605964374714" lon="13.242935064134056"><ele>195.0</ele><time>2026-04-04T14:05:55.999Z</time></trkpt><trkpt lat="46.19605590310426" lon="13.243166974435901"><ele>195.0</ele><time>2026-04-04T14:05:56.999Z</time></trkpt><trkpt lat="46.19603943815444" lon="13.243429925803028"><ele>195.0</ele><time>2026-04-04T14:05:57.999Z</time></trkpt><trkpt lat="46.196017359815485" lon="13.243694113087033"><ele>195.0</ele><time>2026-04-04T14:05:58.999Z</time></trkpt><trkpt lat="46.19599870109638" lon="13.243950105800334"><ele>194.66666666666669</ele><time>2026-04-04T14:05:59.999Z</time></trkpt><trkpt lat="46.19598660205356" lon="13.244211073291053"><ele>194.33333333333334</ele><time>2026-04-04T14:06:00.999Z</time></trkpt><trkpt lat="46.19598176152377" lon="13.244506798399604"><ele>194.0</ele><time>2026-04-04T14:06:01.999Z</time></trkpt><trkpt lat="46.195982589272866" lon="13.244874410636733"><ele>195.0</ele><time>2026-04-04T14:06:02.999Z</time></trkpt><trkpt lat="46.19598387259878" lon="13.245269593992886"><ele>196.0</ele><time>2026-04-04T14:06:03.999Z</time></trkpt><trkpt lat="46.19598500182397" lon="13.24560872499249"><ele>197.0</ele><time>2026-04-04T14:06:04.999Z</time></trkpt><trkpt lat="46.19598486130876" lon="13.245917593412592"><ele>198.0</ele><time>2026-04-04T14:06:05.999Z</time></trkpt><trkpt lat="46.19597759869441" lon="13.246209872437662"><ele>199.0</ele><time>2026-04-04T14:06:06.999Z</time></trkpt><trkpt lat="46.195945722856735" lon="13.246480759840175"><ele>199.5</ele><time>2026-04-04T14:06:07.999Z</time></trkpt><trkpt lat="46.19587933819489" lon="13.246773763404558"><ele>200.0</ele><time>2026-04-04T14:06:08.999Z</time></trkpt><trkpt lat="46.19578950593863" lon="13.247123713935654"><ele>202.5</ele><time>2026-04-04T14:06:09.999Z</time></trkpt><trkpt lat="46.19569122548495" lon="13.247503560454117"><ele>205.0</ele><time>2026-04-04T14:06:10.999Z</time></trkpt><trkpt lat="46.195589792718316" lon="13.247896258217777"><ele>198.5</ele><time>2026-04-04T14:06:11.999Z</time></trkpt><trkpt lat="46.19548772755157" lon="13.248295185246823"><ele>192.0</ele><time>2026-04-04T14:06:12.999Z</time></trkpt><trkpt lat="46.1953877978818" lon="13.248685765121849"><ele>193.0</ele><time>2026-04-04T14:06:13.999Z</time></trkpt><trkpt lat="46.19529358674239" lon="13.2490539942747"><ele>194.0</ele><time>2026-04-04T14:06:14.999Z</time></trkpt><trkpt lat="46.19520169821785" lon="13.249413472057704"><ele>194.0</ele><time>2026-04-04T14:06:15.999Z</time></trkpt><trkpt lat="46.195111260037805" lon="13.24976335595825"><ele>194.0</ele><time>2026-04-04T14:06:16.999Z</time></trkpt><trkpt lat="46.19502455198963" lon="13.250095618543043"><ele>194.33333333333334</ele><time>2026-04-04T14:06:17.999Z</time></trkpt><trkpt lat="46.194944000421245" lon="13.250404522721949"><ele>194.66666666666669</ele><time>2026-04-04T14:06:18.999Z</time></trkpt><trkpt lat="46.19487160850769" lon="13.250682156028153"><ele>195.0</ele><time>2026-04-04T14:06:19.999Z</time></trkpt><trkpt lat="46.19480522011481" lon="13.250937548168032"><ele>194.0</ele><time>2026-04-04T14:06:20.999Z</time></trkpt><trkpt lat="46.19474594544472" lon="13.251171488390913"><ele>193.0</ele><time>2026-04-04T14:06:21.999Z</time></trkpt><trkpt lat="46.19469165112033" lon="13.251405940415847"><ele>192.0</ele><time>2026-04-04T14:06:22.999Z</time></trkpt><trkpt lat="46.1946484009867" lon="13.251635264529863"><ele>192.0</ele><time>2026-04-04T14:06:23.999Z</time></trkpt><trkpt lat="46.19461508833137" lon="13.251873056527984"><ele>192.0</ele><time>2026-04-04T14:06:24.999Z</time></trkpt><trkpt lat="46.19459087569248" lon="13.252110385243277"><ele>192.0</ele><time>2026-04-04T14:06:25.999Z</time></trkpt><trkpt lat="46.19457854846034" lon="13.2523236155708"><ele>192.5</ele><time>2026-04-04T14:06:26.999Z</time></trkpt><trkpt lat="46.19459622126953" lon="13.252538029226919"><ele>193.0</ele><time>2026-04-04T14:06:27.999Z</time></trkpt><trkpt lat="46.194608891057065" lon="13.252747256967055"><ele>193.5</ele><time>2026-04-04T14:06:28.999Z</time></trkpt><trkpt lat="46.19461484082206" lon="13.252953733844413"><ele>194.0</ele><time>2026-04-04T14:06:29.999Z</time></trkpt><trkpt lat="46.19465955879954" lon="13.253152839062292"><ele>194.0</ele><time>2026-04-04T14:06:30.999Z</time></trkpt><trkpt lat="46.194693454820076" lon="13.253354539928482"><ele>194.0</ele><time>2026-04-04T14:06:31.999Z</time></trkpt><trkpt lat="46.194737986134285" lon="13.253553275755083"><ele>194.0</ele><time>2026-04-04T14:06:32.999Z</time></trkpt><trkpt lat="46.19479047714567" lon="13.253744204570202"><ele>194.0</ele><time>2026-04-04T14:06:33.999Z</time></trkpt><trkpt lat="46.1948406426588" lon="13.25394055361604"><ele>194.0</ele><time>2026-04-04T14:06:34.999Z</time></trkpt><trkpt lat="46.194889123455106" lon="13.25413805700838"><ele>194.0</ele><time>2026-04-04T14:06:35.999Z</time></trkpt><trkpt lat="46.19493969706523" lon="13.254325060845568"><ele>194.0</ele><time>2026-04-04T14:06:36.999Z</time></trkpt><trkpt lat="46.194986297267896" lon="13.254496900296532"><ele>194.0</ele><time>2026-04-04T14:06:37.999Z</time></trkpt><trkpt lat="46.19503431771009" lon="13.25465887183925"><ele>194.25</ele><time>2026-04-04T14:06:38.999Z</time></trkpt><trkpt lat="46.19508512198869" lon="13.254831859139653"><ele>194.5</ele><time>2026-04-04T14:06:39.999Z</time></trkpt><trkpt lat="46.19513670222368" lon="13.25500867669637"><ele>194.75</ele><time>2026-04-04T14:06:41Z</time></trkpt><trkpt lat="46.19519322718585" lon="13.2551831109245"><ele>195.0</ele><time>2026-04-04T14:06:42Z</time></trkpt><trkpt lat="46.195285630798566" lon="13.255342567807304"><ele>195.0</ele><time>2026-04-04T14:06:43Z</time></trkpt><trkpt lat="46.195433172321295" lon="13.255494644470105"><ele>195.0</ele><time>2026-04-04T14:06:44Z</time></trkpt><trkpt lat="46.19559871512014" lon="13.255651224597061"><ele>195.0</ele><time>2026-04-04T14:06:45Z</time></trkpt><trkpt lat="46.19572595326815" lon="13.255769580619292"><ele>196.0</ele><time>2026-04-04T14:06:46Z</time></trkpt><trkpt lat="46.19582042928964" lon="13.25588728559243"><ele>197.0</ele><time>2026-04-04T14:06:47Z</time></trkpt><trkpt lat="46.195887654556756" lon="13.256019796403164"><ele>198.0</ele><time>2026-04-04T14:06:48Z</time></trkpt><trkpt lat="46.19591192211556" lon="13.256175652909745"><ele>199.0</ele><time>2026-04-04T14:06:49Z</time></trkpt><trkpt lat="46.19594176732647" lon="13.256324834656162"><ele>199.2</ele><time>2026-04-04T14:06:50Z</time></trkpt><trkpt lat="46.1959661710002" lon="13.256461692731925"><ele>199.39999999999998</ele><time>2026-04-04T14:06:51Z</time></trkpt><trkpt lat="46.19599102144628" lon="13.256599848434103"><ele>199.6</ele><time>2026-04-04T14:06:52Z</time></trkpt><trkpt lat="46.1960122630797" lon="13.25673378824138"><ele>199.8</ele><time>2026-04-04T14:06:53Z</time></trkpt><trkpt lat="46.19603014957978" lon="13.256868005213299"><ele>200.0</ele><time>2026-04-04T14:06:54Z</time></trkpt><trkpt lat="46.196043871198825" lon="13.256996437318469"><ele>200.0</ele><time>2026-04-04T14:06:55Z</time></trkpt><trkpt lat="46.196047402481696" lon="13.257120676589844"><ele>200.0</ele><time>2026-04-04T14:06:56Z</time></trkpt><trkpt lat="46.196034397527484" lon="13.25724336452052"><ele>200.0</ele><time>2026-04-04T14:06:57Z</time></trkpt><trkpt lat="46.19601991647688" lon="13.257366946983069"><ele>200.0</ele><time>2026-04-04T14:06:58Z</time></trkpt><trkpt lat="46.19600363267508" lon="13.257505914874042"><ele>200.0</ele><time>2026-04-04T14:06:59Z</time></trkpt><trkpt lat="46.19600285798952" lon="13.257681602547219"><ele>200.25</ele><time>2026-04-04T14:07:00Z</time></trkpt><trkpt lat="46.19599319824808" lon="13.257880193516582"><ele>200.5</ele><time>2026-04-04T14:07:01Z</time></trkpt><trkpt lat="46.19602677623794" lon="13.258080507617217"><ele>200.75</ele><time>2026-04-04T14:07:02Z</time></trkpt><trkpt lat="46.1960954284611" lon="13.258267528456168"><ele>201.0</ele><time>2026-04-04T14:07:03Z</time></trkpt><trkpt lat="46.19618801109286" lon="13.258436479817906"><ele>201.75</ele><time>2026-04-04T14:07:04Z</time></trkpt><trkpt lat="46.19627197955589" lon="13.258617165234353"><ele>202.5</ele><time>2026-04-04T14:07:05Z</time></trkpt><trkpt lat="46.196370192713175" lon="13.258765095075228"><ele>203.25</ele><time>2026-04-04T14:07:06Z</time></trkpt><trkpt lat="46.19641555279724" lon="13.258924493427118"><ele>204.0</ele><time>2026-04-04T14:07:07Z</time></trkpt><trkpt lat="46.19640420018025" lon="13.259124535330313"><ele>204.33333333333331</ele><time>2026-04-04T14:07:08Z</time></trkpt><trkpt lat="46.196403355974226" lon="13.259350038222014"><ele>204.66666666666666</ele><time>2026-04-04T14:07:09Z</time></trkpt><trkpt lat="46.19641517986565" lon="13.25960221767683"><ele>205.0</ele><time>2026-04-04T14:07:10Z</time></trkpt><trkpt lat="46.196422137245506" lon="13.25986472664333"><ele>204.33333333333331</ele><time>2026-04-04T14:07:11Z</time></trkpt><trkpt lat="46.196409437007915" lon="13.26012446544729"><ele>203.66666666666669</ele><time>2026-04-04T14:07:12Z</time></trkpt><trkpt lat="46.196413515284895" lon="13.26036648309815"><ele>203.0</ele><time>2026-04-04T14:07:13Z</time></trkpt><trkpt lat="46.1964212242145" lon="13.260591638734732"><ele>203.0</ele><time>2026-04-04T14:07:14Z</time></trkpt><trkpt lat="46.19645795053446" lon="13.260812676087584"><ele>203.0</ele><time>2026-04-04T14:07:15Z</time></trkpt><trkpt lat="46.196483846198035" lon="13.26103753976421"><ele>203.0</ele><time>2026-04-04T14:07:16Z</time></trkpt><trkpt lat="46.196550424293385" lon="13.261249709811091"><ele>203.33333333333334</ele><time>2026-04-04T14:07:17Z</time></trkpt><trkpt lat="46.19663928874207" lon="13.261456017756265"><ele>203.66666666666669</ele><time>2026-04-04T14:07:18Z</time></trkpt><trkpt lat="46.19672973426142" lon="13.261660947106257"><ele>204.0</ele><time>2026-04-04T14:07:19Z</time></trkpt><trkpt lat="46.19681552190902" lon="13.261859404632581"><ele>204.0</ele><time>2026-04-04T14:07:20Z</time></trkpt><trkpt lat="46.196891820038424" lon="13.262059546691551"><ele>204.0</ele><time>2026-04-04T14:07:21Z</time></trkpt><trkpt lat="46.196956664991426" lon="13.262262036697845"><ele>204.0</ele><time>2026-04-04T14:07:22Z</time></trkpt><trkpt lat="46.197017095930924" lon="13.262460653352976"><ele>204.0</ele><time>2026-04-04T14:07:23Z</time></trkpt><trkpt lat="46.197069077203096" lon="13.262645460496213"><ele>204.0</ele><time>2026-04-04T14:07:24Z</time></trkpt><trkpt lat="46.19711505180113" lon="13.262818673042354"><ele>204.0</ele><time>2026-04-04T14:07:25Z</time></trkpt><trkpt lat="46.19715376578918" lon="13.26298684798896"><ele>204.0</ele><time>2026-04-04T14:07:26Z</time></trkpt><trkpt lat="46.19719763823582" lon="13.263158590921643"><ele>204.0</ele><time>2026-04-04T14:07:27Z</time></trkpt><trkpt lat="46.197186061718085" lon="13.263359272433554"><ele>204.0</ele><time>2026-04-04T14:07:28Z</time></trkpt><trkpt lat="46.197182826740544" lon="13.263570648587047"><ele>204.0</ele><time>2026-04-04T14:07:29Z</time></trkpt><trkpt lat="46.19717080635814" lon="13.263790420027005"><ele>204.0</ele><time>2026-04-04T14:07:30Z</time></trkpt><trkpt lat="46.197155225737504" lon="13.264010286243728"><ele>203.66666666666669</ele><time>2026-04-04T14:07:31Z</time></trkpt><trkpt lat="46.197141815398574" lon="13.264228568803752"><ele>203.33333333333334</ele><time>2026-04-04T14:07:32Z</time></trkpt><trkpt lat="46.19713841041192" lon="13.264447406436902"><ele>203.0</ele><time>2026-04-04T14:07:33Z</time></trkpt><trkpt lat="46.19716339440313" lon="13.264663485550265"><ele>203.25</ele><time>2026-04-04T14:07:34Z</time></trkpt><trkpt lat="46.19720586954439" lon="13.264881715045966"><ele>203.5</ele><time>2026-04-04T14:07:35Z</time></trkpt><trkpt lat="46.19725540041087" lon="13.265074376344744"><ele>203.75</ele><time>2026-04-04T14:07:36Z</time></trkpt><trkpt lat="46.19730211209928" lon="13.265230782840286"><ele>204.0</ele><time>2026-04-04T14:07:37Z</time></trkpt><trkpt lat="46.19737534196001" lon="13.265346454839495"><ele>204.0</ele><time>2026-04-04T14:07:38Z</time></trkpt><trkpt lat="46.19746809422255" lon="13.265437918569056"><ele>204.0</ele><time>2026-04-04T14:07:39Z</time></trkpt><trkpt lat="46.19758497401608" lon="13.265484697125533"><ele>204.0</ele><time>2026-04-04T14:07:40Z</time></trkpt><trkpt lat="46.1977171660772" lon="13.265498599124111"><ele>204.0</ele><time>2026-04-04T14:07:41Z</time></trkpt><trkpt lat="46.19785152449465" lon="13.265513978193129"><ele>204.0</ele><time>2026-04-04T14:07:42Z</time></trkpt><trkpt lat="46.19799312983997" lon="13.265508322916613"><ele>204.0</ele><time>2026-04-04T14:07:43Z</time></trkpt><trkpt lat="46.198145175208225" lon="13.265468349402298"><ele>204.0</ele><time>2026-04-04T14:07:44Z</time></trkpt><trkpt lat="46.19828985570964" lon="13.265435712777785"><ele>204.0</ele><time>2026-04-04T14:07:45Z</time></trkpt><trkpt lat="46.19843127646862" lon="13.265402408909098"><ele>204.25</ele><time>2026-04-04T14:07:46Z</time></trkpt><trkpt lat="46.19857152684544" lon="13.265377883587906"><ele>204.5</ele><time>2026-04-04T14:07:47Z</time></trkpt><trkpt lat="46.19870982420211" lon="13.265353528396451"><ele>204.75</ele><time>2026-04-04T14:07:48Z</time></trkpt><trkpt lat="46.19884863739784" lon="13.265323045853906"><ele>205.0</ele><time>2026-04-04T14:07:49Z</time></trkpt><trkpt lat="46.198987732697496" lon="13.265294654109688"><ele>205.25</ele><time>2026-04-04T14:07:50Z</time></trkpt><trkpt lat="46.199125256997476" lon="13.265266351495947"><ele>205.5</ele><time>2026-04-04T14:07:51Z</time></trkpt><trkpt lat="46.19926602455135" lon="13.265243510305258"><ele>205.75</ele><time>2026-04-04T14:07:52Z</time></trkpt><trkpt lat="46.199401380418834" lon="13.26521463433605"><ele>206.0</ele><time>2026-04-04T14:07:53Z</time></trkpt><trkpt lat="46.19953446262856" lon="13.265183865173482"><ele>206.0</ele><time>2026-04-04T14:07:54Z</time></trkpt><trkpt lat="46.19966693772558" lon="13.26515562445139"><ele>206.0</ele><time>2026-04-04T14:07:55Z</time></trkpt><trkpt lat="46.19979855419909" lon="13.265131321828601"><ele>206.0</ele><time>2026-04-04T14:07:56Z</time></trkpt><trkpt lat="46.19991913759617" lon="13.265107177469183"><ele>206.0</ele><time>2026-04-04T14:07:57Z</time></trkpt><trkpt lat="46.20002377123321" lon="13.265085033462148"><ele>206.28571428571428</ele><time>2026-04-04T14:07:58Z</time></trkpt><trkpt lat="46.20010937486779" lon="13.265083936533633"><ele>206.57142857142856</ele><time>2026-04-04T14:07:59Z</time></trkpt><trkpt lat="46.200177641758806" lon="13.265120390464547"><ele>206.85714285714283</ele><time>2026-04-04T14:07:59.999Z</time></trkpt><trkpt lat="46.200231590777136" lon="13.265176516971378"><ele>207.14285714285714</ele><time>2026-04-04T14:08:00.999Z</time></trkpt><trkpt lat="46.20024136344489" lon="13.265276598731182"><ele>207.42857142857144</ele><time>2026-04-04T14:08:01.999Z</time></trkpt><trkpt lat="46.200249052889085" lon="13.265375702193701"><ele>207.7142857142857</ele><time>2026-04-04T14:08:02.999Z</time></trkpt><trkpt lat="46.20023122244338" lon="13.265490355702264"><ele>208.0</ele><time>2026-04-04T14:08:03.999Z</time></trkpt><trkpt lat="46.200213797849" lon="13.265614197128608"><ele>208.2</ele><time>2026-04-04T14:08:04.999Z</time></trkpt><trkpt lat="46.20020047253993" lon="13.265757384928182"><ele>208.4</ele><time>2026-04-04T14:08:05.999Z</time></trkpt><trkpt lat="46.20018203608295" lon="13.265910223010165"><ele>208.6</ele><time>2026-04-04T14:08:06.999Z</time></trkpt><trkpt lat="46.20015864600488" lon="13.26606083510082"><ele>208.79999999999998</ele><time>2026-04-04T14:08:07.999Z</time></trkpt><trkpt lat="46.20012384781431" lon="13.266201321489195"><ele>209.0</ele><time>2026-04-04T14:08:08.999Z</time></trkpt><trkpt lat="46.20009678476774" lon="13.266352923109283"><ele>209.5</ele><time>2026-04-04T14:08:09.999Z</time></trkpt><trkpt lat="46.200067071184115" lon="13.266521716218037"><ele>210.0</ele><time>2026-04-04T14:08:10.999Z</time></trkpt><trkpt lat="46.200049895350396" lon="13.266702569368672"><ele>210.5</ele><time>2026-04-04T14:08:11.999Z</time></trkpt><trkpt lat="46.20002243237818" lon="13.26688657056877"><ele>211.0</ele><time>2026-04-04T14:08:12.999Z</time></trkpt><trkpt lat="46.20000276193974" lon="13.26708270980956"><ele>210.33333333333331</ele><time>2026-04-04T14:08:13.999Z</time></trkpt><trkpt lat="46.199993669164506" lon="13.267296897118019"><ele>209.66666666666669</ele><time>2026-04-04T14:08:14.999Z</time></trkpt><trkpt lat="46.199978558436165" lon="13.26752195558798"><ele>209.0</ele><time>2026-04-04T14:08:15.999Z</time></trkpt><trkpt lat="46.199985552854756" lon="13.267751329296232"><ele>209.0</ele><time>2026-04-04T14:08:16.999Z</time></trkpt><trkpt lat="46.19999391422574" lon="13.267978178996383"><ele>209.0</ele><time>2026-04-04T14:08:17.999Z</time></trkpt><trkpt lat="46.200003140889805" lon="13.268209887239546"><ele>209.0</ele><time>2026-04-04T14:08:18.999Z</time></trkpt><trkpt lat="46.20002416509078" lon="13.268448145725536"><ele>208.66666666666669</ele><time>2026-04-04T14:08:19.999Z</time></trkpt><trkpt lat="46.200023806653135" lon="13.268700647558314"><ele>208.33333333333331</ele><time>2026-04-04T14:08:20.999Z</time></trkpt><trkpt lat="46.19999165302837" lon="13.26892033512199"><ele>208.0</ele><time>2026-04-04T14:08:21.999Z</time></trkpt><trkpt lat="46.19997672412369" lon="13.269125127041585"><ele>207.0</ele><time>2026-04-04T14:08:22.999Z</time></trkpt><trkpt lat="46.19996214083707" lon="13.269353162113605"><ele>206.0</ele><time>2026-04-04T14:08:23.999Z</time></trkpt><trkpt lat="46.19995825583894" lon="13.269600251111234"><ele>205.0</ele><time>2026-04-04T14:08:24.999Z</time></trkpt><trkpt lat="46.199975805083355" lon="13.269864759621157"><ele>203.66666666666666</ele><time>2026-04-04T14:08:25.999Z</time></trkpt><trkpt lat="46.2000092096652" lon="13.270142543760269"><ele>202.33333333333331</ele><time>2026-04-04T14:08:26.999Z</time></trkpt><trkpt lat="46.20004708136116" lon="13.27043099579105"><ele>201.0</ele><time>2026-04-04T14:08:27.999Z</time></trkpt><trkpt lat="46.20008420475393" lon="13.270723263220798"><ele>200.33333333333331</ele><time>2026-04-04T14:08:28.999Z</time></trkpt><trkpt lat="46.2001106097108" lon="13.271012750028792"><ele>199.66666666666666</ele><time>2026-04-04T14:08:29.999Z</time></trkpt><trkpt lat="46.2001252309454" lon="13.271315926813722"><ele>199.0</ele><time>2026-04-04T14:08:30.999Z</time></trkpt><trkpt lat="46.20014032831184" lon="13.271634680976943"><ele>198.0</ele><time>2026-04-04T14:08:31.999Z</time></trkpt><trkpt lat="46.20015572535971" lon="13.271969657897719"><ele>197.0</ele><time>2026-04-04T14:08:32.999Z</time></trkpt><trkpt lat="46.20017187245332" lon="13.272320640568944"><ele>197.0</ele><time>2026-04-04T14:08:33.999Z</time></trkpt><trkpt lat="46.20018979940012" lon="13.272695620275924"><ele>197.0</ele><time>2026-04-04T14:08:34.999Z</time></trkpt><trkpt lat="46.20020837427522" lon="13.273073803228318"><ele>198.5</ele><time>2026-04-04T14:08:35.999Z</time></trkpt><trkpt lat="46.20022568359844" lon="13.273416450849176"><ele>200.0</ele><time>2026-04-04T14:08:36.999Z</time></trkpt><trkpt lat="46.20025810115629" lon="13.273731380252045"><ele>201.66666666666669</ele><time>2026-04-04T14:08:37.999Z</time></trkpt><trkpt lat="46.20027186692605" lon="13.274012791151343"><ele>203.33333333333331</ele><time>2026-04-04T14:08:38.999Z</time></trkpt><trkpt lat="46.20026827473428" lon="13.274261867528356"><ele>205.0</ele><time>2026-04-04T14:08:39.999Z</time></trkpt><trkpt lat="46.200293652647595" lon="13.274460423794414"><ele>205.0</ele><time>2026-04-04T14:08:40.999Z</time></trkpt><trkpt lat="46.2002883780241" lon="13.274654468833473"><ele>205.0</ele><time>2026-04-04T14:08:41.999Z</time></trkpt><trkpt lat="46.200333833529974" lon="13.274858772339982"><ele>205.0</ele><time>2026-04-04T14:08:42.999Z</time></trkpt><trkpt lat="46.20041427546424" lon="13.27503128533349"><ele>205.0</ele><time>2026-04-04T14:08:43.999Z</time></trkpt><trkpt lat="46.20042711819756" lon="13.275227467092872"><ele>207.0</ele><time>2026-04-04T14:08:44.999Z</time></trkpt><trkpt lat="46.200404443264816" lon="13.275437310554963"><ele>209.0</ele><time>2026-04-04T14:08:45.999Z</time></trkpt><trkpt lat="46.200372835554475" lon="13.27565917829192"><ele>211.0</ele><time>2026-04-04T14:08:47Z</time></trkpt><trkpt lat="46.20037817944456" lon="13.275875965095834"><ele>211.0</ele><time>2026-04-04T14:08:48Z</time></trkpt><trkpt lat="46.20043721509563" lon="13.276088620482723"><ele>211.0</ele><time>2026-04-04T14:08:49Z</time></trkpt><trkpt lat="46.20047258672144" lon="13.276309601344266"><ele>211.0</ele><time>2026-04-04T14:08:50Z</time></trkpt><trkpt lat="46.200522592702455" lon="13.276521793314389"><ele>210.33333333333331</ele><time>2026-04-04T14:08:51Z</time></trkpt><trkpt lat="46.20057206654833" lon="13.276730851492784"><ele>209.66666666666669</ele><time>2026-04-04T14:08:52Z</time></trkpt><trkpt lat="46.200621437454124" lon="13.276939427047623"><ele>209.0</ele><time>2026-04-04T14:08:53Z</time></trkpt><trkpt lat="46.20067088341496" lon="13.277148319831268"><ele>210.75</ele><time>2026-04-04T14:08:54Z</time></trkpt><trkpt lat="46.20073278646102" lon="13.277339332376265"><ele>212.5</ele><time>2026-04-04T14:08:55Z</time></trkpt><trkpt lat="46.20076131166801" lon="13.277540993460184"><ele>214.25</ele><time>2026-04-04T14:08:56Z</time></trkpt><trkpt lat="46.20080624361169" lon="13.277742847797906"><ele>216.0</ele><time>2026-04-04T14:08:57Z</time></trkpt><trkpt lat="46.2008446942639" lon="13.27794977038573"><ele>215.0</ele><time>2026-04-04T14:08:58Z</time></trkpt><trkpt lat="46.200875225579416" lon="13.278165863697923"><ele>214.0</ele><time>2026-04-04T14:08:59Z</time></trkpt><trkpt lat="46.20089645442398" lon="13.27838873062847"><ele>213.0</ele><time>2026-04-04T14:09:00Z</time></trkpt><trkpt lat="46.200911276621966" lon="13.278617904317425"><ele>213.0</ele><time>2026-04-04T14:09:01Z</time></trkpt><trkpt lat="46.200923665908526" lon="13.27885854883952"><ele>213.0</ele><time>2026-04-04T14:09:02Z</time></trkpt><trkpt lat="46.20093687712555" lon="13.27911515857714"><ele>213.0</ele><time>2026-04-04T14:09:03Z</time></trkpt><trkpt lat="46.20095192633488" lon="13.279381584558424"><ele>211.66666666666669</ele><time>2026-04-04T14:09:04Z</time></trkpt><trkpt lat="46.20096736271954" lon="13.27964975020573"><ele>210.33333333333334</ele><time>2026-04-04T14:09:05Z</time></trkpt><trkpt lat="46.20098284007742" lon="13.279914920111024"><ele>209.0</ele><time>2026-04-04T14:09:06Z</time></trkpt><trkpt lat="46.20099779879453" lon="13.280176146469087"><ele>208.66666666666669</ele><time>2026-04-04T14:09:07Z</time></trkpt><trkpt lat="46.20101337242107" lon="13.280448966337635"><ele>208.33333333333331</ele><time>2026-04-04T14:09:08Z</time></trkpt><trkpt lat="46.20102886231701" lon="13.280727171781189"><ele>208.0</ele><time>2026-04-04T14:09:09Z</time></trkpt><trkpt lat="46.20104199511087" lon="13.28099923987099"><ele>208.0</ele><time>2026-04-04T14:09:10Z</time></trkpt><trkpt lat="46.20105050244993" lon="13.281269664920952"><ele>208.0</ele><time>2026-04-04T14:09:11Z</time></trkpt><trkpt lat="46.20105727074866" lon="13.281538140521402"><ele>208.0</ele><time>2026-04-04T14:09:12Z</time></trkpt><trkpt lat="46.201061169246074" lon="13.281805762698491"><ele>207.66666666666666</ele><time>2026-04-04T14:09:13Z</time></trkpt><trkpt lat="46.201066794204145" lon="13.282079440800837"><ele>207.33333333333331</ele><time>2026-04-04T14:09:14Z</time></trkpt><trkpt lat="46.20108017065028" lon="13.282355055223363"><ele>207.0</ele><time>2026-04-04T14:09:15Z</time></trkpt><trkpt lat="46.201101451519826" lon="13.282623879552895"><ele>208.33333333333331</ele><time>2026-04-04T14:09:16Z</time></trkpt><trkpt lat="46.20112407616771" lon="13.282883875302245"><ele>209.66666666666666</ele><time>2026-04-04T14:09:17Z</time></trkpt><trkpt lat="46.20114592477364" lon="13.283134183280804"><ele>211.0</ele><time>2026-04-04T14:09:18Z</time></trkpt><trkpt lat="46.20116784904763" lon="13.283378902656516"><ele>212.25</ele><time>2026-04-04T14:09:19Z</time></trkpt><trkpt lat="46.201189052172786" lon="13.283615572691778"><ele>213.5</ele><time>2026-04-04T14:09:20Z</time></trkpt><trkpt lat="46.201207846602536" lon="13.283825356761811"><ele>214.75</ele><time>2026-04-04T14:09:21Z</time></trkpt><trkpt lat="46.2012244798526" lon="13.284011017737964"><ele>216.0</ele><time>2026-04-04T14:09:22Z</time></trkpt><trkpt lat="46.201241334101944" lon="13.284197808397908"><ele>216.25</ele><time>2026-04-04T14:09:23Z</time></trkpt><trkpt lat="46.20125866406122" lon="13.284389199023915"><ele>216.5</ele><time>2026-04-04T14:09:24Z</time></trkpt><trkpt lat="46.20129105506387" lon="13.284576549193913"><ele>216.75</ele><time>2026-04-04T14:09:25Z</time></trkpt><trkpt lat="46.20129220425472" lon="13.284768615869185"><ele>217.0</ele><time>2026-04-04T14:09:26Z</time></trkpt><trkpt lat="46.20130937324812" lon="13.284952577611927"><ele>217.0</ele><time>2026-04-04T14:09:27Z</time></trkpt><trkpt lat="46.201326362978975" lon="13.285133538826077"><ele>217.0</ele><time>2026-04-04T14:09:28Z</time></trkpt><trkpt lat="46.20134257043731" lon="13.285306167838359"><ele>217.0</ele><time>2026-04-04T14:09:29Z</time></trkpt><trkpt lat="46.20135608653777" lon="13.285463304708742"><ele>217.0</ele><time>2026-04-04T14:09:30Z</time></trkpt><trkpt lat="46.20136588364363" lon="13.285626024552007"><ele>216.75</ele><time>2026-04-04T14:09:31Z</time></trkpt><trkpt lat="46.20136312616398" lon="13.285791519938579"><ele>216.5</ele><time>2026-04-04T14:09:32Z</time></trkpt><trkpt lat="46.201335930845566" lon="13.285956850301089"><ele>216.25</ele><time>2026-04-04T14:09:33Z</time></trkpt><trkpt lat="46.20127928206078" lon="13.286115455766941"><ele>216.0</ele><time>2026-04-04T14:09:34Z</time></trkpt><trkpt lat="46.201202767569775" lon="13.286282340816836"><ele>216.25</ele><time>2026-04-04T14:09:35Z</time></trkpt><trkpt lat="46.201137803027294" lon="13.28646889459351"><ele>216.5</ele><time>2026-04-04T14:09:36Z</time></trkpt><trkpt lat="46.20104660384475" lon="13.286630661825264"><ele>216.75</ele><time>2026-04-04T14:09:37Z</time></trkpt><trkpt lat="46.20098160510768" lon="13.286821233301751"><ele>217.0</ele><time>2026-04-04T14:09:38Z</time></trkpt><trkpt lat="46.200888986196254" lon="13.286986813431469"><ele>217.0</ele><time>2026-04-04T14:09:39Z</time></trkpt><trkpt lat="46.20082366566358" lon="13.287177869074702"><ele>217.0</ele><time>2026-04-04T14:09:40Z</time></trkpt><trkpt lat="46.200747585635725" lon="13.287354241692864"><ele>217.0</ele><time>2026-04-04T14:09:41Z</time></trkpt><trkpt lat="46.200659978780045" lon="13.28751620892045"><ele>217.0</ele><time>2026-04-04T14:09:42Z</time></trkpt><trkpt lat="46.20059251035494" lon="13.287672175353242"><ele>218.75</ele><time>2026-04-04T14:09:43Z</time></trkpt><trkpt lat="46.200537285893404" lon="13.287834805226584"><ele>220.5</ele><time>2026-04-04T14:09:44Z</time></trkpt><trkpt lat="46.200466032353106" lon="13.28798549735931"><ele>222.25</ele><time>2026-04-04T14:09:45Z</time></trkpt><trkpt lat="46.200386658691976" lon="13.288124360902748"><ele>224.0</ele><time>2026-04-04T14:09:46Z</time></trkpt><trkpt lat="46.20029172936387" lon="13.288241093405796"><ele>226.5</ele><time>2026-04-04T14:09:47Z</time></trkpt><trkpt lat="46.20018547020083" lon="13.288334674886725"><ele>229.0</ele><time>2026-04-04T14:09:48Z</time></trkpt><trkpt lat="46.2000711884518" lon="13.288397923192514"><ele>231.5</ele><time>2026-04-04T14:09:49Z</time></trkpt><trkpt lat="46.19995359329619" lon="13.288444328430373"><ele>234.0</ele><time>2026-04-04T14:09:50Z</time></trkpt><trkpt lat="46.19983464315026" lon="13.288462072792916"><ele>234.39999999999998</ele><time>2026-04-04T14:09:51Z</time></trkpt><trkpt lat="46.199729270876034" lon="13.288453366107314"><ele>234.79999999999998</ele><time>2026-04-04T14:09:52Z</time></trkpt><trkpt lat="46.199629305108445" lon="13.28846134522275"><ele>235.20000000000002</ele><time>2026-04-04T14:09:53Z</time></trkpt><trkpt lat="46.19952515140793" lon="13.288507941137292"><ele>235.60000000000002</ele><time>2026-04-04T14:09:54Z</time></trkpt><trkpt lat="46.199427454146935" lon="13.28859367593426"><ele>236.0</ele><time>2026-04-04T14:09:55Z</time></trkpt><trkpt lat="46.19933148802838" lon="13.288684710886901"><ele>236.0</ele><time>2026-04-04T14:09:56Z</time></trkpt><trkpt lat="46.199272854138876" lon="13.288847399385604"><ele>236.0</ele><time>2026-04-04T14:09:57Z</time></trkpt><trkpt lat="46.19920630730074" lon="13.28901359190276"><ele>236.0</ele><time>2026-04-04T14:09:58Z</time></trkpt><trkpt lat="46.19913606227923" lon="13.289165601595526"><ele>236.0</ele><time>2026-04-04T14:09:59Z</time></trkpt><trkpt lat="46.199049008065" lon="13.28928624772672"><ele>240.60000000000002</ele><time>2026-04-04T14:10:00Z</time></trkpt><trkpt lat="46.19898711951387" lon="13.289427541501157"><ele>245.20000000000002</ele><time>2026-04-04T14:10:01Z</time></trkpt><trkpt lat="46.198928110325525" lon="13.289530039021926"><ele>249.79999999999998</ele><time>2026-04-04T14:10:02Z</time></trkpt><trkpt lat="46.198866272334975" lon="13.289627951410909"><ele>254.39999999999998</ele><time>2026-04-04T14:10:03Z</time></trkpt><trkpt lat="46.19879666828324" lon="13.289708314836973"><ele>259.0</ele><time>2026-04-04T14:10:03.999Z</time></trkpt><trkpt lat="46.19870980439874" lon="13.289749238544253"><ele>259.0</ele><time>2026-04-04T14:10:04.999Z</time></trkpt><trkpt lat="46.1986131906771" lon="13.28973471271576"><ele>259.0</ele><time>2026-04-04T14:10:05.999Z</time></trkpt><trkpt lat="46.198532238665734" lon="13.28966756041425"><ele>259.0</ele><time>2026-04-04T14:10:06.999Z</time></trkpt><trkpt lat="46.19847341884303" lon="13.289554390277786"><ele>259.0</ele><time>2026-04-04T14:10:07.999Z</time></trkpt><trkpt lat="46.198473446653225" lon="13.28940490698997"><ele>259.0</ele><time>2026-04-04T14:10:08.999Z</time></trkpt><trkpt lat="46.19843697681966" lon="13.289242783429527"><ele>259.0</ele><time>2026-04-04T14:10:09.999Z</time></trkpt><trkpt lat="46.198396858706246" lon="13.289104584714643"><ele>259.0</ele><time>2026-04-04T14:10:10.999Z</time></trkpt><trkpt lat="46.19832079780635" lon="13.289000242394843"><ele>259.0</ele><time>2026-04-04T14:10:11.999Z</time></trkpt><trkpt lat="46.198213538942326" lon="13.28893798897319"><ele>259.0</ele><time>2026-04-04T14:10:12.999Z</time></trkpt><trkpt lat="46.1980947898172" lon="13.288916534202462"><ele>259.0</ele><time>2026-04-04T14:10:13.999Z</time></trkpt><trkpt lat="46.1979753869097" lon="13.288899418905675"><ele>259.59999999999997</ele><time>2026-04-04T14:10:14.999Z</time></trkpt><trkpt lat="46.1978640406288" lon="13.288879397698967"><ele>260.2</ele><time>2026-04-04T14:10:15.999Z</time></trkpt><trkpt lat="46.19775799774992" lon="13.288861040585711"><ele>260.79999999999995</ele><time>2026-04-04T14:10:16.999Z</time></trkpt><trkpt lat="46.19765585290444" lon="13.288853073808365"><ele>261.4</ele><time>2026-04-04T14:10:17.999Z</time></trkpt><trkpt lat="46.1975600184191" lon="13.288885848993688"><ele>262.0</ele><time>2026-04-04T14:10:18.999Z</time></trkpt><trkpt lat="46.197473324361276" lon="13.288961317676929"><ele>264.0</ele><time>2026-04-04T14:10:19.999Z</time></trkpt><trkpt lat="46.19739140073672" lon="13.289065554581079"><ele>266.0</ele><time>2026-04-04T14:10:20.999Z</time></trkpt><trkpt lat="46.19730797081573" lon="13.289192460915306"><ele>268.0</ele><time>2026-04-04T14:10:21.999Z</time></trkpt><trkpt lat="46.19722650445634" lon="13.28931284165164"><ele>270.0</ele><time>2026-04-04T14:10:22.999Z</time></trkpt><trkpt lat="46.197135159590694" lon="13.289434150412678"><ele>270.25</ele><time>2026-04-04T14:10:23.999Z</time></trkpt><trkpt lat="46.197043019228964" lon="13.289554526456167"><ele>270.5</ele><time>2026-04-04T14:10:24.999Z</time></trkpt><trkpt lat="46.1969529921939" lon="13.289675331672228"><ele>270.75</ele><time>2026-04-04T14:10:25.999Z</time></trkpt><trkpt lat="46.19687681292981" lon="13.289803970835447"><ele>271.0</ele><time>2026-04-04T14:10:26.999Z</time></trkpt><trkpt lat="46.196818853253234" lon="13.289961202470462"><ele>267.75</ele><time>2026-04-04T14:10:27.999Z</time></trkpt><trkpt lat="46.196792550555514" lon="13.290135632056591"><ele>264.5</ele><time>2026-04-04T14:10:28.999Z</time></trkpt><trkpt lat="46.196815598510575" lon="13.290305030236615"><ele>261.25</ele><time>2026-04-04T14:10:29.999Z</time></trkpt><trkpt lat="46.19687858626392" lon="13.290450044888773"><ele>258.0</ele><time>2026-04-04T14:10:30.999Z</time></trkpt><trkpt lat="46.196966439221946" lon="13.290571423741698"><ele>260.0</ele><time>2026-04-04T14:10:31.999Z</time></trkpt><trkpt lat="46.19707583366155" lon="13.290664213580028"><ele>262.0</ele><time>2026-04-04T14:10:32.999Z</time></trkpt><trkpt lat="46.197180767425536" lon="13.290768177857407"><ele>264.0</ele><time>2026-04-04T14:10:33.999Z</time></trkpt><trkpt lat="46.19727160133968" lon="13.290908807223948"><ele>266.0</ele><time>2026-04-04T14:10:34.999Z</time></trkpt><trkpt lat="46.19734208324027" lon="13.291079712387392"><ele>266.0</ele><time>2026-04-04T14:10:35.999Z</time></trkpt><trkpt lat="46.19739056283307" lon="13.291251076637515"><ele>266.0</ele><time>2026-04-04T14:10:36.999Z</time></trkpt><trkpt lat="46.197446045213255" lon="13.291405681587854"><ele>266.0</ele><time>2026-04-04T14:10:37.999Z</time></trkpt><trkpt lat="46.19752940450053" lon="13.291534789092228"><ele>266.0</ele><time>2026-04-04T14:10:38.999Z</time></trkpt><trkpt lat="46.19763996798474" lon="13.291637700901527"><ele>262.25</ele><time>2026-04-04T14:10:39.999Z</time></trkpt><trkpt lat="46.197759595564506" lon="13.291743188873948"><ele>258.5</ele><time>2026-04-04T14:10:40.999Z</time></trkpt><trkpt lat="46.197880531414576" lon="13.291852907010897"><ele>254.75</ele><time>2026-04-04T14:10:41.999Z</time></trkpt><trkpt lat="46.19799122654494" lon="13.29195249046313"><ele>251.0</ele><time>2026-04-04T14:10:42.999Z</time></trkpt><trkpt lat="46.19809417615921" lon="13.292047482154839"><ele>253.20000000000002</ele><time>2026-04-04T14:10:43.999Z</time></trkpt><trkpt lat="46.19819546053218" lon="13.292142223005255"><ele>255.40000000000003</ele><time>2026-04-04T14:10:44.999Z</time></trkpt><trkpt lat="46.19828672277936" lon="13.292248741262082"><ele>257.6</ele><time>2026-04-04T14:10:45.999Z</time></trkpt><trkpt lat="46.19838795714234" lon="13.292302888355977"><ele>259.8</ele><time>2026-04-04T14:10:46.999Z</time></trkpt><trkpt lat="46.198471144218374" lon="13.29238643666234"><ele>262.0</ele><time>2026-04-04T14:10:47.999Z</time></trkpt><trkpt lat="46.198530678430416" lon="13.292483102924255"><ele>262.0</ele><time>2026-04-04T14:10:48.999Z</time></trkpt><trkpt lat="46.19855794973642" lon="13.292610475522752"><ele>262.0</ele><time>2026-04-04T14:10:49.999Z</time></trkpt><trkpt lat="46.19853654718441" lon="13.292745187511557"><ele>262.0</ele><time>2026-04-04T14:10:50.999Z</time></trkpt><trkpt lat="46.19846893604111" lon="13.292845520163185"><ele>262.0</ele><time>2026-04-04T14:10:51.999Z</time></trkpt><trkpt lat="46.198378550198996" lon="13.292894711148199"><ele>262.0</ele><time>2026-04-04T14:10:53Z</time></trkpt><trkpt lat="46.19828190192034" lon="13.292872981445804"><ele>262.0</ele><time>2026-04-04T14:10:54Z</time></trkpt><trkpt lat="46.198191944646396" lon="13.292807809329569"><ele>262.0</ele><time>2026-04-04T14:10:55Z</time></trkpt><trkpt lat="46.19809642642815" lon="13.292749711470004"><ele>262.0</ele><time>2026-04-04T14:10:56Z</time></trkpt><trkpt lat="46.19799190945701" lon="13.292704872683887"><ele>262.0</ele><time>2026-04-04T14:10:57Z</time></trkpt><trkpt lat="46.19787408117703" lon="13.292681222319851"><ele>262.0</ele><time>2026-04-04T14:10:58Z</time></trkpt><trkpt lat="46.19775075564658" lon="13.292666840649215"><ele>258.0</ele><time>2026-04-04T14:10:59Z</time></trkpt><trkpt lat="46.197619831967195" lon="13.292650371324024"><ele>254.0</ele><time>2026-04-04T14:11:00Z</time></trkpt><trkpt lat="46.19748270614715" lon="13.29263254815109"><ele>250.0</ele><time>2026-04-04T14:11:01Z</time></trkpt><trkpt lat="46.19734677740335" lon="13.292613133682233"><ele>246.0</ele><time>2026-04-04T14:11:02Z</time></trkpt><trkpt lat="46.197214162164805" lon="13.292596983683705"><ele>241.25</ele><time>2026-04-04T14:11:03Z</time></trkpt><trkpt lat="46.19708708919792" lon="13.292587117667082"><ele>236.5</ele><time>2026-04-04T14:11:04Z</time></trkpt><trkpt lat="46.19696615185664" lon="13.292593966693731"><ele>231.75</ele><time>2026-04-04T14:11:05Z</time></trkpt><trkpt lat="46.19685768824162" lon="13.292621879775757"><ele>227.0</ele><time>2026-04-04T14:11:06Z</time></trkpt><trkpt lat="46.19675363601272" lon="13.292675484685006"><ele>227.0</ele><time>2026-04-04T14:11:07Z</time></trkpt><trkpt lat="46.19666689733006" lon="13.292765581566442"><ele>227.0</ele><time>2026-04-04T14:11:08Z</time></trkpt><trkpt lat="46.196609606676226" lon="13.292899610435528"><ele>227.0</ele><time>2026-04-04T14:11:09Z</time></trkpt><trkpt lat="46.19658872592928" lon="13.293053500087026"><ele>227.0</ele><time>2026-04-04T14:11:10Z</time></trkpt><trkpt lat="46.196591067939266" lon="13.293204774050432"><ele>227.0</ele><time>2026-04-04T14:11:11Z</time></trkpt><trkpt lat="46.196585499678065" lon="13.293344846384942"><ele>225.8</ele><time>2026-04-04T14:11:12Z</time></trkpt><trkpt lat="46.19654512993469" lon="13.293489416368974"><ele>224.6</ele><time>2026-04-04T14:11:13Z</time></trkpt><trkpt lat="46.196475293811154" lon="13.293605827790003"><ele>223.40000000000003</ele><time>2026-04-04T14:11:14Z</time></trkpt><trkpt lat="46.19641337582277" lon="13.293705109048597"><ele>222.20000000000002</ele><time>2026-04-04T14:11:15Z</time></trkpt><trkpt lat="46.19637841140297" lon="13.293810288829327"><ele>221.0</ele><time>2026-04-04T14:11:16Z</time></trkpt><trkpt lat="46.19637721054694" lon="13.293924281439947"><ele>220.00000000000003</ele><time>2026-04-04T14:11:17Z</time></trkpt><trkpt lat="46.19640057455218" lon="13.294033058200943"><ele>219.0</ele><time>2026-04-04T14:11:18Z</time></trkpt><trkpt lat="46.196453414937274" lon="13.294128988529645"><ele>218.0</ele><time>2026-04-04T14:11:19Z</time></trkpt><trkpt lat="46.19651831480731" lon="13.294195285764209"><ele>217.0</ele><time>2026-04-04T14:11:20Z</time></trkpt><trkpt lat="46.19659290834955" lon="13.294251642793883"><ele>216.00000000000003</ele><time>2026-04-04T14:11:21Z</time></trkpt><trkpt lat="46.196656112849105" lon="13.294330528561252"><ele>215.0</ele><time>2026-04-04T14:11:22Z</time></trkpt><trkpt lat="46.19667797426045" lon="13.294449559629696"><ele>215.0</ele><time>2026-04-04T14:11:23Z</time></trkpt><trkpt lat="46.19665795592004" lon="13.294572151193405"><ele>215.0</ele><time>2026-04-04T14:11:24Z</time></trkpt><trkpt lat="46.19660077614718" lon="13.294669730312727"><ele>215.0</ele><time>2026-04-04T14:11:25Z</time></trkpt><trkpt lat="46.196512029328765" lon="13.294709854377032"><ele>215.0</ele><time>2026-04-04T14:11:26Z</time></trkpt><trkpt lat="46.19641225657605" lon="13.294683266801266"><ele>215.0</ele><time>2026-04-04T14:11:27Z</time></trkpt><trkpt lat="46.196313959305506" lon="13.294624308858287"><ele>215.0</ele><time>2026-04-04T14:11:28Z</time></trkpt><trkpt lat="46.19621272045363" lon="13.294604713970195"><ele>215.0</ele><time>2026-04-04T14:11:29Z</time></trkpt><trkpt lat="46.19611544452958" lon="13.294625082697083"><ele>215.0</ele><time>2026-04-04T14:11:30Z</time></trkpt><trkpt lat="46.19602511211736" lon="13.294680931141434"><ele>215.0</ele><time>2026-04-04T14:11:31Z</time></trkpt><trkpt lat="46.19594649734307" lon="13.29478198762719"><ele>215.0</ele><time>2026-04-04T14:11:32Z</time></trkpt><trkpt lat="46.19588344768266" lon="13.294916468390763"><ele>214.0</ele><time>2026-04-04T14:11:33Z</time></trkpt><trkpt lat="46.19584191821957" lon="13.295071019678513"><ele>213.0</ele><time>2026-04-04T14:11:34Z</time></trkpt><trkpt lat="46.195828043062754" lon="13.295242920030965"><ele>212.0</ele><time>2026-04-04T14:11:35Z</time></trkpt><trkpt lat="46.19583342334468" lon="13.295417949762253"><ele>211.0</ele><time>2026-04-04T14:11:36Z</time></trkpt><trkpt lat="46.19584870162718" lon="13.295600291309714"><ele>210.25</ele><time>2026-04-04T14:11:37Z</time></trkpt><trkpt lat="46.19585374604856" lon="13.295790803814228"><ele>209.5</ele><time>2026-04-04T14:11:38Z</time></trkpt><trkpt lat="46.19585304018057" lon="13.295982424762464"><ele>208.75</ele><time>2026-04-04T14:11:39Z</time></trkpt><trkpt lat="46.19582682007898" lon="13.296187718286385"><ele>208.0</ele><time>2026-04-04T14:11:40Z</time></trkpt><trkpt lat="46.19579952584183" lon="13.296406234197006"><ele>208.66666666666666</ele><time>2026-04-04T14:11:41Z</time></trkpt><trkpt lat="46.19575956988575" lon="13.296615564122357"><ele>209.33333333333331</ele><time>2026-04-04T14:11:42Z</time></trkpt><trkpt lat="46.19571307473977" lon="13.296829836124928"><ele>210.0</ele><time>2026-04-04T14:11:43Z</time></trkpt><trkpt lat="46.19564953419411" lon="13.297056890455321"><ele>207.66666666666669</ele><time>2026-04-04T14:11:44Z</time></trkpt><trkpt lat="46.19556862150756" lon="13.2972791562485"><ele>205.33333333333334</ele><time>2026-04-04T14:11:45Z</time></trkpt><trkpt lat="46.19548095267553" lon="13.297502059947425"><ele>203.0</ele><time>2026-04-04T14:11:46Z</time></trkpt><trkpt lat="46.19539654796721" lon="13.297746217552238"><ele>203.0</ele><time>2026-04-04T14:11:47Z</time></trkpt><trkpt lat="46.195279134699376" lon="13.297982662699091"><ele>203.0</ele><time>2026-04-04T14:11:48Z</time></trkpt><trkpt lat="46.195162885303084" lon="13.298254548101527"><ele>203.0</ele><time>2026-04-04T14:11:49Z</time></trkpt><trkpt lat="46.195040675374415" lon="13.298553086050633"><ele>204.0</ele><time>2026-04-04T14:11:50Z</time></trkpt><trkpt lat="46.19492784445015" lon="13.298864925950234"><ele>205.0</ele><time>2026-04-04T14:11:51Z</time></trkpt><trkpt lat="46.194797583248594" lon="13.29914857927764"><ele>205.33333333333331</ele><time>2026-04-04T14:11:52Z</time></trkpt><trkpt lat="46.19468880184563" lon="13.299405273351121"><ele>205.66666666666669</ele><time>2026-04-04T14:11:53Z</time></trkpt><trkpt lat="46.194587411128616" lon="13.299647496398855"><ele>206.0</ele><time>2026-04-04T14:11:54Z</time></trkpt><trkpt lat="46.19447854345047" lon="13.299885681918761"><ele>203.33333333333334</ele><time>2026-04-04T14:11:55Z</time></trkpt><trkpt lat="46.19435721064421" lon="13.30012331653"><ele>200.66666666666669</ele><time>2026-04-04T14:11:56Z</time></trkpt><trkpt lat="46.19421919973256" lon="13.300352897024135"><ele>198.0</ele><time>2026-04-04T14:11:57Z</time></trkpt><trkpt lat="46.19406429631113" lon="13.300565182245702"><ele>198.33333333333331</ele><time>2026-04-04T14:11:58Z</time></trkpt><trkpt lat="46.19390137686784" lon="13.3007664528721"><ele>198.66666666666666</ele><time>2026-04-04T14:11:59Z</time></trkpt><trkpt lat="46.19372991721453" lon="13.30095065527975"><ele>199.0</ele><time>2026-04-04T14:12:00Z</time></trkpt><trkpt lat="46.19355442501708" lon="13.301132453033517"><ele>199.0</ele><time>2026-04-04T14:12:01Z</time></trkpt><trkpt lat="46.193376244836195" lon="13.30133157755817"><ele>199.0</ele><time>2026-04-04T14:12:02Z</time></trkpt><trkpt lat="46.193193829996716" lon="13.301529527461689"><ele>196.66666666666666</ele><time>2026-04-04T14:12:03Z</time></trkpt><trkpt lat="46.193015618173916" lon="13.301723137640389"><ele>194.33333333333331</ele><time>2026-04-04T14:12:04Z</time></trkpt><trkpt lat="46.19284270554519" lon="13.301915258402273"><ele>192.0</ele><time>2026-04-04T14:12:05Z</time></trkpt><trkpt lat="46.19267321534426" lon="13.302100917651815"><ele>193.0</ele><time>2026-04-04T14:12:06Z</time></trkpt><trkpt lat="46.19250818863117" lon="13.302278291443539"><ele>194.0</ele><time>2026-04-04T14:12:06.999Z</time></trkpt><trkpt lat="46.19234751198472" lon="13.302455543624802"><ele>195.0</ele><time>2026-04-04T14:12:07.999Z</time></trkpt><trkpt lat="46.19218905899338" lon="13.302636336663399"><ele>195.33333333333331</ele><time>2026-04-04T14:12:08.999Z</time></trkpt><trkpt lat="46.192026920983196" lon="13.302810975899542"><ele>195.66666666666666</ele><time>2026-04-04T14:12:09.999Z</time></trkpt><trkpt lat="46.191873645021566" lon="13.302975617374766"><ele>196.0</ele><time>2026-04-04T14:12:10.999Z</time></trkpt><trkpt lat="46.191717671376715" lon="13.303122043718258"><ele>196.0</ele><time>2026-04-04T14:12:11.999Z</time></trkpt><trkpt lat="46.191551955672196" lon="13.303251102468277"><ele>196.0</ele><time>2026-04-04T14:12:12.999Z</time></trkpt><trkpt lat="46.19137584431573" lon="13.30336635446517"><ele>196.0</ele><time>2026-04-04T14:12:13.999Z</time></trkpt><trkpt lat="46.19119910563739" lon="13.303484913824189"><ele>195.33333333333331</ele><time>2026-04-04T14:12:14.999Z</time></trkpt><trkpt lat="46.19102941613247" lon="13.303592775512085"><ele>194.66666666666669</ele><time>2026-04-04T14:12:15.999Z</time></trkpt><trkpt lat="46.19086392342841" lon="13.303696393751848"><ele>194.0</ele><time>2026-04-04T14:12:16.999Z</time></trkpt><trkpt lat="46.190702616656885" lon="13.303811044433353"><ele>194.0</ele><time>2026-04-04T14:12:17.999Z</time></trkpt><trkpt lat="46.19055575272147" lon="13.303940653442957"><ele>194.0</ele><time>2026-04-04T14:12:18.999Z</time></trkpt><trkpt lat="46.19042002851619" lon="13.304085594326361"><ele>194.0</ele><time>2026-04-04T14:12:19.999Z</time></trkpt><trkpt lat="46.190292619322655" lon="13.304242968299643"><ele>194.0</ele><time>2026-04-04T14:12:20.999Z</time></trkpt><trkpt lat="46.19017624543588" lon="13.304412749550686"><ele>194.0</ele><time>2026-04-04T14:12:21.999Z</time></trkpt><trkpt lat="46.19008112336726" lon="13.304590752508513"><ele>194.0</ele><time>2026-04-04T14:12:22.999Z</time></trkpt><trkpt lat="46.18999480786878" lon="13.304768400331797"><ele>194.5</ele><time>2026-04-04T14:12:23.999Z</time></trkpt><trkpt lat="46.1899174388757" lon="13.304936984892192"><ele>195.0</ele><time>2026-04-04T14:12:24.999Z</time></trkpt><trkpt lat="46.189841932275" lon="13.305095792094068"><ele>195.5</ele><time>2026-04-04T14:12:25.999Z</time></trkpt><trkpt lat="46.18977841530964" lon="13.305235799086049"><ele>196.0</ele><time>2026-04-04T14:12:26.999Z</time></trkpt><trkpt lat="46.189707689111785" lon="13.305363529981813"><ele>196.0</ele><time>2026-04-04T14:12:27.999Z</time></trkpt><trkpt lat="46.189611303059415" lon="13.305463585545917"><ele>196.0</ele><time>2026-04-04T14:12:28.999Z</time></trkpt><trkpt lat="46.189487470522806" lon="13.305521411334057"><ele>196.0</ele><time>2026-04-04T14:12:29.999Z</time></trkpt><trkpt lat="46.18935018769014" lon="13.30553594616078"><ele>196.0</ele><time>2026-04-04T14:12:30.999Z</time></trkpt><trkpt lat="46.18920945892397" lon="13.305524079399836"><ele>196.0</ele><time>2026-04-04T14:12:31.999Z</time></trkpt><trkpt lat="46.18906969857607" lon="13.305510092111978"><ele>196.0</ele><time>2026-04-04T14:12:32.999Z</time></trkpt><trkpt lat="46.18893446013033" lon="13.305506608980778"><ele>196.0</ele><time>2026-04-04T14:12:33.999Z</time></trkpt><trkpt lat="46.188818972808555" lon="13.30552949998736"><ele>196.0</ele><time>2026-04-04T14:12:34.999Z</time></trkpt><trkpt lat="46.188707474950874" lon="13.305575254261123"><ele>195.75</ele><time>2026-04-04T14:12:35.999Z</time></trkpt><trkpt lat="46.188599448958165" lon="13.305637066853462"><ele>195.5</ele><time>2026-04-04T14:12:36.999Z</time></trkpt><trkpt lat="46.18850056820403" lon="13.305728391266408"><ele>195.25</ele><time>2026-04-04T14:12:37.999Z</time></trkpt><trkpt lat="46.18840098302445" lon="13.305842759795581"><ele>195.0</ele><time>2026-04-04T14:12:38.999Z</time></trkpt><trkpt lat="46.18829814356134" lon="13.305947507849135"><ele>195.0</ele><time>2026-04-04T14:12:39.999Z</time></trkpt><trkpt lat="46.18819620131707" lon="13.3060519765952"><ele>195.0</ele><time>2026-04-04T14:12:40.999Z</time></trkpt><trkpt lat="46.18810145131742" lon="13.306151595413018"><ele>195.0</ele><time>2026-04-04T14:12:41.999Z</time></trkpt><trkpt lat="46.187999740026356" lon="13.306243770100101"><ele>195.0</ele><time>2026-04-04T14:12:42.999Z</time></trkpt><trkpt lat="46.18788837304952" lon="13.306326320202759"><ele>194.75</ele><time>2026-04-04T14:12:43.999Z</time></trkpt><trkpt lat="46.187763431691735" lon="13.306389804561766"><ele>194.5</ele><time>2026-04-04T14:12:44.999Z</time></trkpt><trkpt lat="46.18762669746689" lon="13.306437843468107"><ele>194.25</ele><time>2026-04-04T14:12:45.999Z</time></trkpt><trkpt lat="46.187484525470765" lon="13.306476366480963"><ele>194.0</ele><time>2026-04-04T14:12:46.999Z</time></trkpt><trkpt lat="46.18734202751794" lon="13.306521073879322"><ele>194.0</ele><time>2026-04-04T14:12:47.999Z</time></trkpt><trkpt lat="46.187200385794746" lon="13.306560751329114"><ele>194.0</ele><time>2026-04-04T14:12:48.999Z</time></trkpt><trkpt lat="46.187061075965474" lon="13.3066056314864"><ele>194.0</ele><time>2026-04-04T14:12:49.999Z</time></trkpt><trkpt lat="46.18692152990807" lon="13.306665593990171"><ele>194.0</ele><time>2026-04-04T14:12:50.999Z</time></trkpt><trkpt lat="46.18678535017726" lon="13.30672521711236"><ele>194.0</ele><time>2026-04-04T14:12:51.999Z</time></trkpt><trkpt lat="46.186653196955355" lon="13.30680116603102"><ele>194.0</ele><time>2026-04-04T14:12:52.999Z</time></trkpt><trkpt lat="46.1865203190881" lon="13.306893246246945"><ele>194.0</ele><time>2026-04-04T14:12:53.999Z</time></trkpt><trkpt lat="46.186388557205994" lon="13.306976404374382"><ele>194.0</ele><time>2026-04-04T14:12:54.999Z</time></trkpt><trkpt lat="46.186255600349796" lon="13.307071176073801"><ele>194.0</ele><time>2026-04-04T14:12:55.999Z</time></trkpt><trkpt lat="46.1861254175973" lon="13.30716802025655"><ele>194.0</ele><time>2026-04-04T14:12:56.999Z</time></trkpt><trkpt lat="46.18599872195519" lon="13.3072519213771"><ele>194.0</ele><time>2026-04-04T14:12:57.999Z</time></trkpt><trkpt lat="46.18586735823246" lon="13.307325675682392"><ele>194.0</ele><time>2026-04-04T14:12:59Z</time></trkpt><trkpt lat="46.18572603463474" lon="13.307388082430487"><ele>192.66666666666669</ele><time>2026-04-04T14:13:00Z</time></trkpt><trkpt lat="46.18558025915036" lon="13.307447481572229"><ele>191.33333333333334</ele><time>2026-04-04T14:13:01Z</time></trkpt><trkpt lat="46.18542913330958" lon="13.307512439181501"><ele>190.0</ele><time>2026-04-04T14:13:02Z</time></trkpt><trkpt lat="46.18527203386415" lon="13.307572480665959"><ele>190.0</ele><time>2026-04-04T14:13:03Z</time></trkpt><trkpt lat="46.185109615995366" lon="13.30762717874103"><ele>190.0</ele><time>2026-04-04T14:13:04Z</time></trkpt><trkpt lat="46.18493732062987" lon="13.307680777258309"><ele>190.0</ele><time>2026-04-04T14:13:05Z</time></trkpt><trkpt lat="46.184755876333526" lon="13.307732142613057"><ele>189.0</ele><time>2026-04-04T14:13:06Z</time></trkpt><trkpt lat="46.18457099958313" lon="13.307788489014984"><ele>188.0</ele><time>2026-04-04T14:13:07Z</time></trkpt><trkpt lat="46.18438986958806" lon="13.307845167138767"><ele>187.0</ele><time>2026-04-04T14:13:08Z</time></trkpt><trkpt lat="46.184220302063" lon="13.307892090381849"><ele>187.0</ele><time>2026-04-04T14:13:09Z</time></trkpt><trkpt lat="46.18405975667371" lon="13.307937583285737"><ele>187.0</ele><time>2026-04-04T14:13:10Z</time></trkpt><trkpt lat="46.18390190087825" lon="13.307996353558776"><ele>187.0</ele><time>2026-04-04T14:13:11Z</time></trkpt><trkpt lat="46.18374360782988" lon="13.3080789846423"><ele>186.66666666666669</ele><time>2026-04-04T14:13:12Z</time></trkpt><trkpt lat="46.183583327803596" lon="13.308180490529539"><ele>186.33333333333334</ele><time>2026-04-04T14:13:13Z</time></trkpt><trkpt lat="46.18341858529369" lon="13.30831131115912"><ele>186.0</ele><time>2026-04-04T14:13:14Z</time></trkpt><trkpt lat="46.1832463435361" lon="13.30847176133215"><ele>186.0</ele><time>2026-04-04T14:13:15Z</time></trkpt><trkpt lat="46.183042737325366" lon="13.308639789466296"><ele>186.0</ele><time>2026-04-04T14:13:16Z</time></trkpt><trkpt lat="46.18278709343403" lon="13.308876852283827"><ele>189.0</ele><time>2026-04-04T14:13:17Z</time></trkpt><trkpt lat="46.18249472898651" lon="13.309148036825928"><ele>192.0</ele><time>2026-04-04T14:13:18Z</time></trkpt><trkpt lat="46.18217876584361" lon="13.309441036902337"><ele>192.0</ele><time>2026-04-04T14:13:19Z</time></trkpt><trkpt lat="46.18190103251237" lon="13.309721788384358"><ele>192.0</ele><time>2026-04-04T14:13:20Z</time></trkpt><trkpt lat="46.18162994466474" lon="13.309972926223447"><ele>195.0</ele><time>2026-04-04T14:13:21Z</time></trkpt><trkpt lat="46.18137623386056" lon="13.310209366068241"><ele>198.0</ele><time>2026-04-04T14:13:22Z</time></trkpt><trkpt lat="46.181134099817115" lon="13.310433037353146"><ele>197.0</ele><time>2026-04-04T14:13:23Z</time></trkpt><trkpt lat="46.180895049229335" lon="13.31064234496964"><ele>196.0</ele><time>2026-04-04T14:13:24Z</time></trkpt><trkpt lat="46.18065328506268" lon="13.310855368831646"><ele>193.5</ele><time>2026-04-04T14:13:25Z</time></trkpt><trkpt lat="46.1804056885265" lon="13.311068720996236"><ele>191.0</ele><time>2026-04-04T14:13:26Z</time></trkpt><trkpt lat="46.18015464105608" lon="13.311280690442747"><ele>186.0</ele><time>2026-04-04T14:13:27Z</time></trkpt><trkpt lat="46.17990454564997" lon="13.311493284691174"><ele>181.0</ele><time>2026-04-04T14:13:28Z</time></trkpt><trkpt lat="46.179657890758534" lon="13.311701115835758"><ele>180.0</ele><time>2026-04-04T14:13:29Z</time></trkpt><trkpt lat="46.179414191288394" lon="13.31190797630309"><ele>179.0</ele><time>2026-04-04T14:13:30Z</time></trkpt><trkpt lat="46.17917120460355" lon="13.31210839444994"><ele>176.5</ele><time>2026-04-04T14:13:31Z</time></trkpt><trkpt lat="46.17892759792184" lon="13.31231136239386"><ele>174.0</ele><time>2026-04-04T14:13:32Z</time></trkpt><trkpt lat="46.17868440564912" lon="13.312514779226188"><ele>174.0</ele><time>2026-04-04T14:13:33Z</time></trkpt><trkpt lat="46.178441582676406" lon="13.312717937732"><ele>174.0</ele><time>2026-04-04T14:13:34Z</time></trkpt><trkpt lat="46.17820389100366" lon="13.31291829967163"><ele>175.0</ele><time>2026-04-04T14:13:35Z</time></trkpt><trkpt lat="46.17797493696379" lon="13.313115235056738"><ele>176.0</ele><time>2026-04-04T14:13:36Z</time></trkpt><trkpt lat="46.17775541971539" lon="13.313301039384113"><ele>176.0</ele><time>2026-04-04T14:13:37Z</time></trkpt><trkpt lat="46.17755465374054" lon="13.313471979646256"><ele>176.0</ele><time>2026-04-04T14:13:38Z</time></trkpt><trkpt lat="46.177378245159254" lon="13.313619758992282"><ele>176.0</ele><time>2026-04-04T14:13:39Z</time></trkpt><trkpt lat="46.17721048197494" lon="13.31375948691284"><ele>176.33333333333331</ele><time>2026-04-04T14:13:40Z</time></trkpt><trkpt lat="46.17704378396179" lon="13.313901511917045"><ele>176.66666666666666</ele><time>2026-04-04T14:13:41Z</time></trkpt><trkpt lat="46.17687053421669" lon="13.314051518470816"><ele>177.0</ele><time>2026-04-04T14:13:42Z</time></trkpt><trkpt lat="46.17669399989365" lon="13.31420241960201"><ele>177.33333333333334</ele><time>2026-04-04T14:13:43Z</time></trkpt><trkpt lat="46.17651144162046" lon="13.314357116342313"><ele>177.66666666666669</ele><time>2026-04-04T14:13:44Z</time></trkpt><trkpt lat="46.176317420602786" lon="13.314491987983594"><ele>178.0</ele><time>2026-04-04T14:13:45Z</time></trkpt><trkpt lat="46.17613701591906" lon="13.314643083641085"><ele>178.33333333333334</ele><time>2026-04-04T14:13:46Z</time></trkpt><trkpt lat="46.17596518216793" lon="13.314799723513563"><ele>178.66666666666666</ele><time>2026-04-04T14:13:47Z</time></trkpt><trkpt lat="46.17579777371817" lon="13.31495878780463"><ele>179.0</ele><time>2026-04-04T14:13:48Z</time></trkpt><trkpt lat="46.17563172648541" lon="13.31511693494387"><ele>177.33333333333331</ele><time>2026-04-04T14:13:49Z</time></trkpt><trkpt lat="46.175467770482015" lon="13.3152730903769"><ele>175.66666666666666</ele><time>2026-04-04T14:13:50Z</time></trkpt><trkpt lat="46.17530193922998" lon="13.315431940324759"><ele>174.0</ele><time>2026-04-04T14:13:51Z</time></trkpt><trkpt lat="46.17514007843777" lon="13.315611737370936"><ele>174.0</ele><time>2026-04-04T14:13:52Z</time></trkpt><trkpt lat="46.174965131307324" lon="13.315778033705731"><ele>174.0</ele><time>2026-04-04T14:13:53Z</time></trkpt><trkpt lat="46.17479282946847" lon="13.315943003617061"><ele>174.0</ele><time>2026-04-04T14:13:54Z</time></trkpt><trkpt lat="46.17461827146084" lon="13.316106361486142"><ele>173.33333333333334</ele><time>2026-04-04T14:13:55Z</time></trkpt><trkpt lat="46.17444256161054" lon="13.316275072320524"><ele>172.66666666666669</ele><time>2026-04-04T14:13:56Z</time></trkpt><trkpt lat="46.17426685515731" lon="13.316447457664996"><ele>172.0</ele><time>2026-04-04T14:13:57Z</time></trkpt><trkpt lat="46.17409529952631" lon="13.31661760547187"><ele>171.0</ele><time>2026-04-04T14:13:57.999Z</time></trkpt><trkpt lat="46.17392878778534" lon="13.316778056409476"><ele>170.0</ele><time>2026-04-04T14:13:58.999Z</time></trkpt><trkpt lat="46.17376530973792" lon="13.316935157008036"><ele>169.0</ele><time>2026-04-04T14:13:59.999Z</time></trkpt><trkpt lat="46.17359361018143" lon="13.317069919955566"><ele>169.0</ele><time>2026-04-04T14:14:00.999Z</time></trkpt><trkpt lat="46.17342735908251" lon="13.317228204997768"><ele>169.0</ele><time>2026-04-04T14:14:01.999Z</time></trkpt><trkpt lat="46.173259701041296" lon="13.317387829568801"><ele>169.0</ele><time>2026-04-04T14:14:02.999Z</time></trkpt><trkpt lat="46.173106342552764" lon="13.317569133903307"><ele>169.66666666666669</ele><time>2026-04-04T14:14:03.999Z</time></trkpt><trkpt lat="46.172943052641514" lon="13.317725031743525"><ele>170.33333333333334</ele><time>2026-04-04T14:14:04.999Z</time></trkpt><trkpt lat="46.17277849103888" lon="13.317880589562114"><ele>171.0</ele><time>2026-04-04T14:14:05.999Z</time></trkpt><trkpt lat="46.1726114630836" lon="13.31803821459294"><ele>171.33333333333334</ele><time>2026-04-04T14:14:06.999Z</time></trkpt><trkpt lat="46.17244411784549" lon="13.318196814140066"><ele>171.66666666666669</ele><time>2026-04-04T14:14:07.999Z</time></trkpt><trkpt lat="46.17227734005544" lon="13.318353694529542"><ele>172.0</ele><time>2026-04-04T14:14:08.999Z</time></trkpt><trkpt lat="46.17211200257409" lon="13.318510976277363"><ele>174.0</ele><time>2026-04-04T14:14:09.999Z</time></trkpt><trkpt lat="46.17194713386805" lon="13.318669927295884"><ele>176.0</ele><time>2026-04-04T14:14:10.999Z</time></trkpt><trkpt lat="46.171783776301815" lon="13.318824835687149"><ele>178.0</ele><time>2026-04-04T14:14:11.999Z</time></trkpt><trkpt lat="46.17162300789977" lon="13.318975429731346"><ele>181.0</ele><time>2026-04-04T14:14:12.999Z</time></trkpt><trkpt lat="46.171467199330195" lon="13.31912210001071"><ele>184.0</ele><time>2026-04-04T14:14:13.999Z</time></trkpt><trkpt lat="46.17131545364423" lon="13.319270561323414"><ele>187.0</ele><time>2026-04-04T14:14:14.999Z</time></trkpt><trkpt lat="46.17116921515274" lon="13.319427398484986"><ele>187.0</ele><time>2026-04-04T14:14:15.999Z</time></trkpt><trkpt lat="46.171027537532005" lon="13.319595515005961"><ele>187.0</ele><time>2026-04-04T14:14:16.999Z</time></trkpt><trkpt lat="46.17089028936809" lon="13.319775767354738"><ele>187.0</ele><time>2026-04-04T14:14:17.999Z</time></trkpt><trkpt lat="46.17075118490944" lon="13.319958661686"><ele>182.66666666666669</ele><time>2026-04-04T14:14:18.999Z</time></trkpt><trkpt lat="46.170609297099205" lon="13.320135586022898"><ele>178.33333333333334</ele><time>2026-04-04T14:14:19.999Z</time></trkpt><trkpt lat="46.170465913650276" lon="13.320314379998633"><ele>174.0</ele><time>2026-04-04T14:14:20.999Z</time></trkpt><trkpt lat="46.17032465207197" lon="13.32049472445547"><ele>173.66666666666666</ele><time>2026-04-04T14:14:21.999Z</time></trkpt><trkpt lat="46.17018453903" lon="13.32067313085836"><ele>173.33333333333331</ele><time>2026-04-04T14:14:22.999Z</time></trkpt><trkpt lat="46.170045515893655" lon="13.320850928808424"><ele>173.0</ele><time>2026-04-04T14:14:23.999Z</time></trkpt><trkpt lat="46.16990735386318" lon="13.321031749005789"><ele>173.0</ele><time>2026-04-04T14:14:24.999Z</time></trkpt><trkpt lat="46.16976919068425" lon="13.321208793732152"><ele>173.0</ele><time>2026-04-04T14:14:25.999Z</time></trkpt><trkpt lat="46.169634772635355" lon="13.321390587020442"><ele>173.0</ele><time>2026-04-04T14:14:26.999Z</time></trkpt><trkpt lat="46.16949789854014" lon="13.321569395498685"><ele>173.0</ele><time>2026-04-04T14:14:27.999Z</time></trkpt><trkpt lat="46.169354680596925" lon="13.321744058943276"><ele>173.0</ele><time>2026-04-04T14:14:28.999Z</time></trkpt><trkpt lat="46.16921062739063" lon="13.321919596702985"><ele>173.0</ele><time>2026-04-04T14:14:29.999Z</time></trkpt><trkpt lat="46.169069384127425" lon="13.322101606747268"><ele>172.66666666666666</ele><time>2026-04-04T14:14:30.999Z</time></trkpt><trkpt lat="46.16892980786881" lon="13.322279990884178"><ele>172.33333333333334</ele><time>2026-04-04T14:14:31.999Z</time></trkpt><trkpt lat="46.16878837008454" lon="13.322454704986304"><ele>172.0</ele><time>2026-04-04T14:14:32.999Z</time></trkpt><trkpt lat="46.16865183961706" lon="13.322626604641187"><ele>172.0</ele><time>2026-04-04T14:14:33.999Z</time></trkpt><trkpt lat="46.16851871385216" lon="13.32279425820718"><ele>172.0</ele><time>2026-04-04T14:14:34.999Z</time></trkpt><trkpt lat="46.168391055668685" lon="13.322957915367525"><ele>172.0</ele><time>2026-04-04T14:14:35.999Z</time></trkpt><trkpt lat="46.16826682542865" lon="13.323116953220348"><ele>172.66666666666669</ele><time>2026-04-04T14:14:36.999Z</time></trkpt><trkpt lat="46.16814338877901" lon="13.323274557736186"><ele>173.33333333333334</ele><time>2026-04-04T14:14:37.999Z</time></trkpt><trkpt lat="46.16802301179092" lon="13.32342759674414"><ele>174.0</ele><time>2026-04-04T14:14:38.999Z</time></trkpt><trkpt lat="46.16790351881566" lon="13.323575735766099"><ele>174.0</ele><time>2026-04-04T14:14:39.999Z</time></trkpt><trkpt lat="46.16778726646271" lon="13.323723345691315"><ele>174.0</ele><time>2026-04-04T14:14:40.999Z</time></trkpt><trkpt lat="46.167674534546386" lon="13.323868831178803"><ele>174.0</ele><time>2026-04-04T14:14:41.999Z</time></trkpt><trkpt lat="46.16756191983774" lon="13.324010058644289"><ele>174.0</ele><time>2026-04-04T14:14:42.999Z</time></trkpt><trkpt lat="46.16745191758692" lon="13.324152345965409"><ele>174.0</ele><time>2026-04-04T14:14:43.999Z</time></trkpt><trkpt lat="46.16734331578565" lon="13.32429695954543"><ele>174.0</ele><time>2026-04-04T14:14:44.999Z</time></trkpt><trkpt lat="46.16723201761798" lon="13.324438105750575"><ele>174.0</ele><time>2026-04-04T14:14:45.999Z</time></trkpt><trkpt lat="46.16712247693769" lon="13.324582746467959"><ele>174.0</ele><time>2026-04-04T14:14:46.999Z</time></trkpt><trkpt lat="46.167015013760356" lon="13.324723982551232"><ele>174.0</ele><time>2026-04-04T14:14:47.999Z</time></trkpt><trkpt lat="46.16690683840714" lon="13.324859851809883"><ele>174.0</ele><time>2026-04-04T14:14:48.999Z</time></trkpt><trkpt lat="46.16680389081025" lon="13.324992845466031"><ele>174.0</ele><time>2026-04-04T14:14:49.999Z</time></trkpt><trkpt lat="46.16670071203911" lon="13.325125091847317"><ele>174.25</ele><time>2026-04-04T14:14:50.999Z</time></trkpt><trkpt lat="46.16659501516836" lon="13.325258443957342"><ele>174.5</ele><time>2026-04-04T14:14:51.999Z</time></trkpt><trkpt lat="46.166498073889926" lon="13.325377887561437"><ele>174.75</ele><time>2026-04-04T14:14:52.999Z</time></trkpt><trkpt lat="46.16639671902669" lon="13.325480353424675"><ele>175.0</ele><time>2026-04-04T14:14:53.999Z</time></trkpt><trkpt lat="46.16627788066051" lon="13.32556636458292"><ele>175.0</ele><time>2026-04-04T14:14:54.999Z</time></trkpt><trkpt lat="46.16615652201207" lon="13.325664740852861"><ele>175.0</ele><time>2026-04-04T14:14:55.999Z</time></trkpt><trkpt lat="46.16603728710213" lon="13.325758416751082"><ele>175.0</ele><time>2026-04-04T14:14:56.999Z</time></trkpt><trkpt lat="46.165917238618135" lon="13.325856750612118"><ele>175.0</ele><time>2026-04-04T14:14:57.999Z</time></trkpt><trkpt lat="46.1657963835368" lon="13.325950060680714"><ele>174.5</ele><time>2026-04-04T14:14:58.999Z</time></trkpt><trkpt lat="46.16567716229207" lon="13.3260294257711"><ele>174.0</ele><time>2026-04-04T14:14:59.999Z</time></trkpt><trkpt lat="46.16555757707825" lon="13.326103053570314"><ele>173.5</ele><time>2026-04-04T14:15:00.999Z</time></trkpt><trkpt lat="46.16544973898368" lon="13.32616474296248"><ele>173.0</ele><time>2026-04-04T14:15:01.999Z</time></trkpt><trkpt lat="46.16534440271543" lon="13.32622330958395"><ele>173.0</ele><time>2026-04-04T14:15:02.999Z</time></trkpt><trkpt lat="46.16524362946812" lon="13.326281093942693"><ele>173.0</ele><time>2026-04-04T14:15:03.999Z</time></trkpt><trkpt lat="46.16512988057469" lon="13.326344311481272"><ele>173.0</ele><time>2026-04-04T14:15:05Z</time></trkpt><trkpt lat="46.165002575443864" lon="13.32642275824124"><ele>173.0</ele><time>2026-04-04T14:15:06Z</time></trkpt><trkpt lat="46.16485729053781" lon="13.326497908847703"><ele>171.66666666666666</ele><time>2026-04-04T14:15:07Z</time></trkpt><trkpt lat="46.164706572632156" lon="13.326580354598038"><ele>170.33333333333334</ele><time>2026-04-04T14:15:08Z</time></trkpt><trkpt lat="46.16455695093487" lon="13.32665593659904"><ele>169.0</ele><time>2026-04-04T14:15:09Z</time></trkpt><trkpt lat="46.164409578865616" lon="13.326727227431647"><ele>169.0</ele><time>2026-04-04T14:15:10Z</time></trkpt><trkpt lat="46.16426812309602" lon="13.326797684062496"><ele>169.0</ele><time>2026-04-04T14:15:11Z</time></trkpt><trkpt lat="46.164129337304814" lon="13.32687175816915"><ele>169.0</ele><time>2026-04-04T14:15:12Z</time></trkpt><trkpt lat="46.163990702478976" lon="13.326950415924834"><ele>169.0</ele><time>2026-04-04T14:15:13Z</time></trkpt><trkpt lat="46.16384553878573" lon="13.327029387809063"><ele>168.75</ele><time>2026-04-04T14:15:14Z</time></trkpt><trkpt lat="46.16370240026659" lon="13.327104216123777"><ele>168.5</ele><time>2026-04-04T14:15:15Z</time></trkpt><trkpt lat="46.16355973230651" lon="13.327177821639212"><ele>168.25</ele><time>2026-04-04T14:15:16Z</time></trkpt><trkpt lat="46.16342325091504" lon="13.327249546744802"><ele>168.0</ele><time>2026-04-04T14:15:17Z</time></trkpt><trkpt lat="46.163290292697845" lon="13.327317269891484"><ele>167.0</ele><time>2026-04-04T14:15:18Z</time></trkpt><trkpt lat="46.163155407292834" lon="13.327383196821774"><ele>166.0</ele><time>2026-04-04T14:15:19Z</time></trkpt><trkpt lat="46.16301788667761" lon="13.327449061349194"><ele>165.0</ele><time>2026-04-04T14:15:20Z</time></trkpt><trkpt lat="46.16287896945723" lon="13.327522204234583"><ele>164.0</ele><time>2026-04-04T14:15:21Z</time></trkpt><trkpt lat="46.16273284599527" lon="13.327601855283241"><ele>164.0</ele><time>2026-04-04T14:15:22Z</time></trkpt><trkpt lat="46.16257417024644" lon="13.327717290027596"><ele>164.0</ele><time>2026-04-04T14:15:23Z</time></trkpt><trkpt lat="46.16238576680377" lon="13.327888753406786"><ele>164.0</ele><time>2026-04-04T14:15:24Z</time></trkpt><trkpt lat="46.16214550521629" lon="13.32809105598693"><ele>166.0</ele><time>2026-04-04T14:15:25Z</time></trkpt><trkpt lat="46.161862113676484" lon="13.328307759163243"><ele>168.0</ele><time>2026-04-04T14:15:26Z</time></trkpt><trkpt lat="46.16156675278223" lon="13.328520724707703"><ele>165.0</ele><time>2026-04-04T14:15:27Z</time></trkpt><trkpt lat="46.161297473307975" lon="13.328729667186291"><ele>162.0</ele><time>2026-04-04T14:15:28Z</time></trkpt><trkpt lat="46.161045038260255" lon="13.32893576059445"><ele>162.0</ele><time>2026-04-04T14:15:29Z</time></trkpt><trkpt lat="46.16080788900469" lon="13.329121556623022"><ele>162.0</ele><time>2026-04-04T14:15:30Z</time></trkpt><trkpt lat="46.16057963193665" lon="13.329302481282134"><ele>161.0</ele><time>2026-04-04T14:15:31Z</time></trkpt><trkpt lat="46.16036911382966" lon="13.329469387813145"><ele>160.0</ele><time>2026-04-04T14:15:32Z</time></trkpt><trkpt lat="46.16018436818962" lon="13.329615195264182"><ele>160.66666666666669</ele><time>2026-04-04T14:15:33Z</time></trkpt><trkpt lat="46.16002278820326" lon="13.32974807461494"><ele>161.33333333333334</ele><time>2026-04-04T14:15:34Z</time></trkpt><trkpt lat="46.15988860898591" lon="13.329890257511238"><ele>162.0</ele><time>2026-04-04T14:15:35Z</time></trkpt><trkpt lat="46.15978357793072" lon="13.33008267098738"><ele>162.0</ele><time>2026-04-04T14:15:36Z</time></trkpt><trkpt lat="46.15970893805024" lon="13.330338297728384"><ele>162.0</ele><time>2026-04-04T14:15:37Z</time></trkpt><trkpt lat="46.15965823779659" lon="13.330654395713056"><ele>162.0</ele><time>2026-04-04T14:15:38Z</time></trkpt><trkpt lat="46.15960589070398" lon="13.331015800074086"><ele>165.0</ele><time>2026-04-04T14:15:39Z</time></trkpt><trkpt lat="46.15954983409387" lon="13.331397276308213"><ele>168.0</ele><time>2026-04-04T14:15:40Z</time></trkpt><trkpt lat="46.15949166102013" lon="13.331786447795665"><ele>168.0</ele><time>2026-04-04T14:15:41Z</time></trkpt><trkpt lat="46.15943328171243" lon="13.33217400371957"><ele>168.0</ele><time>2026-04-04T14:15:42Z</time></trkpt><trkpt lat="46.15937904339019" lon="13.33255395466798"><ele>170.0</ele><time>2026-04-04T14:15:43Z</time></trkpt><trkpt lat="46.159324736433256" lon="13.332927715276739"><ele>172.0</ele><time>2026-04-04T14:15:44Z</time></trkpt><trkpt lat="46.15926784454585" lon="13.33329372898469"><ele>173.5</ele><time>2026-04-04T14:15:45Z</time></trkpt><trkpt lat="46.15921175843488" lon="13.333647342572327"><ele>175.0</ele><time>2026-04-04T14:15:46Z</time></trkpt><trkpt lat="46.15916114217478" lon="13.33399006569285"><ele>181.0</ele><time>2026-04-04T14:15:47Z</time></trkpt><trkpt lat="46.15911294374491" lon="13.334324985160535"><ele>187.0</ele><time>2026-04-04T14:15:48Z</time></trkpt><trkpt lat="46.159064174306536" lon="13.334642501557706"><ele>190.33333333333334</ele><time>2026-04-04T14:15:49Z</time></trkpt><trkpt lat="46.159017787235804" lon="13.334948028155416"><ele>193.66666666666669</ele><time>2026-04-04T14:15:50Z</time></trkpt><trkpt lat="46.15897172906855" lon="13.335238188338606"><ele>197.0</ele><time>2026-04-04T14:15:51Z</time></trkpt><trkpt lat="46.1589140256529" lon="13.335490596313218"><ele>196.33333333333334</ele><time>2026-04-04T14:15:52Z</time></trkpt><trkpt lat="46.15883551892987" lon="13.33572844528711"><ele>195.66666666666669</ele><time>2026-04-04T14:15:53Z</time></trkpt><trkpt lat="46.15872226551056" lon="13.335938658663007"><ele>195.0</ele><time>2026-04-04T14:15:54Z</time></trkpt><trkpt lat="46.158580870183656" lon="13.336135985561825"><ele>195.0</ele><time>2026-04-04T14:15:55Z</time></trkpt><trkpt lat="46.15843548144037" lon="13.336350906059355"><ele>195.0</ele><time>2026-04-04T14:15:56Z</time></trkpt><trkpt lat="46.158283409437715" lon="13.336578047825096"><ele>195.0</ele><time>2026-04-04T14:15:56.999Z</time></trkpt><trkpt lat="46.158122430580875" lon="13.3368067770167"><ele>193.5</ele><time>2026-04-04T14:15:57.999Z</time></trkpt><trkpt lat="46.157960648099014" lon="13.337039257495515"><ele>192.0</ele><time>2026-04-04T14:15:58.999Z</time></trkpt><trkpt lat="46.15780370405235" lon="13.337277227556784"><ele>192.0</ele><time>2026-04-04T14:15:59.999Z</time></trkpt><trkpt lat="46.15766424542729" lon="13.337536130200085"><ele>192.0</ele><time>2026-04-04T14:16:00.999Z</time></trkpt><trkpt lat="46.15754899243311" lon="13.337821490706776"><ele>191.0</ele><time>2026-04-04T14:16:01.999Z</time></trkpt><trkpt lat="46.15743856679508" lon="13.338116470061543"><ele>190.0</ele><time>2026-04-04T14:16:02.999Z</time></trkpt><trkpt lat="46.15732684671003" lon="13.338403706539296"><ele>190.0</ele><time>2026-04-04T14:16:03.999Z</time></trkpt><trkpt lat="46.15721899823113" lon="13.338677144697684"><ele>190.0</ele><time>2026-04-04T14:16:04.999Z</time></trkpt><trkpt lat="46.15712625151157" lon="13.33893261589155"><ele>190.0</ele><time>2026-04-04T14:16:05.999Z</time></trkpt><trkpt lat="46.15703406143517" lon="13.33916968181094"><ele>194.0</ele><time>2026-04-04T14:16:06.999Z</time></trkpt><trkpt lat="46.15693413455691" lon="13.339373459894944"><ele>198.0</ele><time>2026-04-04T14:16:07.999Z</time></trkpt><trkpt lat="46.156812808069546" lon="13.339537646510339"><ele>202.0</ele><time>2026-04-04T14:16:08.999Z</time></trkpt><trkpt lat="46.15665659614214" lon="13.339616657702523"><ele>199.0</ele><time>2026-04-04T14:16:09.999Z</time></trkpt><trkpt lat="46.156486871780935" lon="13.33971677479403"><ele>196.0</ele><time>2026-04-04T14:16:10.999Z</time></trkpt><trkpt lat="46.15629630626401" lon="13.339804747012943"><ele>193.0</ele><time>2026-04-04T14:16:11.999Z</time></trkpt><trkpt lat="46.156132477297845" lon="13.339895550403888"><ele>193.0</ele><time>2026-04-04T14:16:12.999Z</time></trkpt><trkpt lat="46.15598715533589" lon="13.339994461892577"><ele>193.0</ele><time>2026-04-04T14:16:13.999Z</time></trkpt><trkpt lat="46.15586560326219" lon="13.340119927814738"><ele>193.0</ele><time>2026-04-04T14:16:14.999Z</time></trkpt><trkpt lat="46.155757500758504" lon="13.340294843134782"><ele>192.33333333333331</ele><time>2026-04-04T14:16:15.999Z</time></trkpt><trkpt lat="46.15566792292219" lon="13.340519694915695"><ele>191.66666666666666</ele><time>2026-04-04T14:16:16.999Z</time></trkpt><trkpt lat="46.15557209617734" lon="13.340739060776896"><ele>191.0</ele><time>2026-04-04T14:16:17.999Z</time></trkpt><trkpt lat="46.15545047921645" lon="13.340919458304343"><ele>191.0</ele><time>2026-04-04T14:16:18.999Z</time></trkpt><trkpt lat="46.15528950539098" lon="13.341027190550834"><ele>191.0</ele><time>2026-04-04T14:16:19.999Z</time></trkpt><trkpt lat="46.155148544580044" lon="13.34116561506857"><ele>191.0</ele><time>2026-04-04T14:16:20.999Z</time></trkpt><trkpt lat="46.155012276239184" lon="13.341312988549557"><ele>193.33333333333331</ele><time>2026-04-04T14:16:21.999Z</time></trkpt><trkpt lat="46.154892794381134" lon="13.341520186098096"><ele>195.66666666666666</ele><time>2026-04-04T14:16:22.999Z</time></trkpt><trkpt lat="46.15478244562997" lon="13.341772809762348"><ele>198.0</ele><time>2026-04-04T14:16:23.999Z</time></trkpt><trkpt lat="46.15465107086852" lon="13.342030182774872"><ele>194.66666666666666</ele><time>2026-04-04T14:16:24.999Z</time></trkpt><trkpt lat="46.15455060601663" lon="13.342282833297734"><ele>191.33333333333331</ele><time>2026-04-04T14:16:25.999Z</time></trkpt><trkpt lat="46.15443443502963" lon="13.34247889057864"><ele>188.0</ele><time>2026-04-04T14:16:26.999Z</time></trkpt><trkpt lat="46.15431475264418" lon="13.342616451167832"><ele>188.0</ele><time>2026-04-04T14:16:27.999Z</time></trkpt><trkpt lat="46.15422194721735" lon="13.342712430029033"><ele>188.0</ele><time>2026-04-04T14:16:28.999Z</time></trkpt><trkpt lat="46.15417415732245" lon="13.342832147220518"><ele>188.0</ele><time>2026-04-04T14:16:29.999Z</time></trkpt><trkpt lat="46.15416173463055" lon="13.343025607491473"><ele>188.0</ele><time>2026-04-04T14:16:30.999Z</time></trkpt><trkpt lat="46.15415082803427" lon="13.343258286881174"><ele>189.66666666666666</ele><time>2026-04-04T14:16:31.999Z</time></trkpt><trkpt lat="46.15407575368335" lon="13.343501195754586"><ele>191.33333333333331</ele><time>2026-04-04T14:16:32.999Z</time></trkpt><trkpt lat="46.15395601637943" lon="13.343730358062396"><ele>193.0</ele><time>2026-04-04T14:16:33.999Z</time></trkpt><trkpt lat="46.153829365330076" lon="13.343969083901598"><ele>187.66666666666666</ele><time>2026-04-04T14:16:34.999Z</time></trkpt><trkpt lat="46.15373149366052" lon="13.34418380410613"><ele>182.33333333333331</ele><time>2026-04-04T14:16:35.999Z</time></trkpt><trkpt lat="46.15364760153633" lon="13.34436995367428"><ele>177.0</ele><time>2026-04-04T14:16:36.999Z</time></trkpt><trkpt lat="46.15357910545764" lon="13.344564755731632"><ele>177.0</ele><time>2026-04-04T14:16:37.999Z</time></trkpt><trkpt lat="46.153533105855935" lon="13.344798339667271"><ele>177.0</ele><time>2026-04-04T14:16:38.999Z</time></trkpt><trkpt lat="46.15350713411232" lon="13.345077715803772"><ele>177.0</ele><time>2026-04-04T14:16:39.999Z</time></trkpt><trkpt lat="46.15347494925" lon="13.345343651432424"><ele>176.75</ele><time>2026-04-04T14:16:40.999Z</time></trkpt><trkpt lat="46.15344192419104" lon="13.345571095706624"><ele>176.5</ele><time>2026-04-04T14:16:41.999Z</time></trkpt><trkpt lat="46.153416581625926" lon="13.345757290674841"><ele>176.25</ele><time>2026-04-04T14:16:42.999Z</time></trkpt><trkpt lat="46.15339608535169" lon="13.34589568568168"><ele>176.0</ele><time>2026-04-04T14:16:43.999Z</time></trkpt><trkpt lat="46.153362513020426" lon="13.34601525854122"><ele>176.0</ele><time>2026-04-04T14:16:44.999Z</time></trkpt><trkpt lat="46.153281798408386" lon="13.34610359283963"><ele>176.0</ele><time>2026-04-04T14:16:45.999Z</time></trkpt><trkpt lat="46.153191928071685" lon="13.346200758034637"><ele>176.0</ele><time>2026-04-04T14:16:46.999Z</time></trkpt><trkpt lat="46.15310774479381" lon="13.346278781540558"><ele>176.0</ele><time>2026-04-04T14:16:47.999Z</time></trkpt><trkpt lat="46.153039897987185" lon="13.346326905310658"><ele>176.0</ele><time>2026-04-04T14:16:48.999Z</time></trkpt><trkpt lat="46.15297129542287" lon="13.346346424062494"><ele>175.0</ele><time>2026-04-04T14:16:49.999Z</time></trkpt><trkpt lat="46.1528923450445" lon="13.34634218549524"><ele>174.0</ele><time>2026-04-04T14:16:50.999Z</time></trkpt><trkpt lat="46.1528131177853" lon="13.346261462626048"><ele>173.0</ele><time>2026-04-04T14:16:51.999Z</time></trkpt><trkpt lat="46.152728944622375" lon="13.346174055402788"><ele>172.0</ele><time>2026-04-04T14:16:52.999Z</time></trkpt><trkpt lat="46.15264822893168" lon="13.346096797990322"><ele>171.0</ele><time>2026-04-04T14:16:53.999Z</time></trkpt><trkpt lat="46.152576555446736" lon="13.346024458567948"><ele>171.0</ele><time>2026-04-04T14:16:54.999Z</time></trkpt><trkpt lat="46.152495568535635" lon="13.345939972047058"><ele>171.0</ele><time>2026-04-04T14:16:56.999Z</time></trkpt><trkpt lat="46.15243518831316" lon="13.345896572965595"><ele>171.0</ele><time>2026-04-04T14:17:00.999Z</time></trkpt><trkpt lat="46.152341458953934" lon="13.345975652396875"><ele>171.0</ele><time>2026-04-04T14:17:02.999Z</time></trkpt><trkpt lat="46.152318556727515" lon="13.346124994329072"><ele>171.0</ele><time>2026-04-04T14:17:03.999Z</time></trkpt><trkpt lat="46.152283944638626" lon="13.346296649521117"><ele>169.66666666666666</ele><time>2026-04-04T14:17:04.999Z</time></trkpt><trkpt lat="46.15224307932086" lon="13.34651981343179"><ele>168.33333333333331</ele><time>2026-04-04T14:17:05.999Z</time></trkpt><trkpt lat="46.15220541037619" lon="13.346766983285203"><ele>167.0</ele><time>2026-04-04T14:17:06.999Z</time></trkpt><trkpt lat="46.15217225780626" lon="13.346980070465532"><ele>167.0</ele><time>2026-04-04T14:17:07.999Z</time></trkpt><trkpt lat="46.15211973247564" lon="13.34715451337954"><ele>167.0</ele><time>2026-04-04T14:17:08.999Z</time></trkpt><trkpt lat="46.15203222633748" lon="13.34731175528313"><ele>167.0</ele><time>2026-04-04T14:17:09.999Z</time></trkpt><trkpt lat="46.15193814951162" lon="13.347485268661062"><ele>167.0</ele><time>2026-04-04T14:17:10.999Z</time></trkpt><trkpt lat="46.15187885086646" lon="13.347667561404563"><ele>166.8</ele><time>2026-04-04T14:17:11.999Z</time></trkpt><trkpt lat="46.15182922839609" lon="13.347807040106803"><ele>166.6</ele><time>2026-04-04T14:17:12.999Z</time></trkpt><trkpt lat="46.15178447174917" lon="13.347887752021151"><ele>166.4</ele><time>2026-04-04T14:17:13.999Z</time></trkpt><trkpt lat="46.151644418147484" lon="13.3478997746665"><ele>166.20000000000002</ele><time>2026-04-04T14:17:15.999Z</time></trkpt><trkpt lat="46.15154825084139" lon="13.347864765826582"><ele>166.0</ele><time>2026-04-04T14:17:16.999Z</time></trkpt><trkpt lat="46.15142617942509" lon="13.347864057920669"><ele>166.16666666666669</ele><time>2026-04-04T14:17:17.999Z</time></trkpt><trkpt lat="46.15130599911431" lon="13.347890887560359"><ele>166.33333333333334</ele><time>2026-04-04T14:17:18.999Z</time></trkpt><trkpt lat="46.1512190590349" lon="13.34793904029118"><ele>166.5</ele><time>2026-04-04T14:17:19.999Z</time></trkpt><trkpt lat="46.15114556716385" lon="13.34801864148291"><ele>166.66666666666666</ele><time>2026-04-04T14:17:21Z</time></trkpt><trkpt lat="46.151111671761626" lon="13.348097713467276"><ele>166.83333333333331</ele><time>2026-04-04T14:17:22Z</time></trkpt><trkpt lat="46.15106734726522" lon="13.348163348923288"><ele>167.0</ele><time>2026-04-04T14:17:24Z</time></trkpt><trkpt lat="46.151003088417774" lon="13.348196283235119"><ele>167.0</ele><time>2026-04-04T14:17:26Z</time></trkpt><trkpt lat="46.150937748941494" lon="13.348168863119794"><ele>167.0</ele><time>2026-04-04T14:17:27Z</time></trkpt><trkpt lat="46.150846525088916" lon="13.348081973778768"><ele>167.0</ele><time>2026-04-04T14:17:28Z</time></trkpt><trkpt lat="46.1507318893279" lon="13.347997624648327"><ele>167.0</ele><time>2026-04-04T14:17:29Z</time></trkpt><trkpt lat="46.150599930142796" lon="13.347866593860958"><ele>165.66666666666666</ele><time>2026-04-04T14:17:30Z</time></trkpt><trkpt lat="46.15042955451871" lon="13.347755186735458"><ele>164.33333333333334</ele><time>2026-04-04T14:17:31Z</time></trkpt><trkpt lat="46.150264611927916" lon="13.347612231736175"><ele>163.0</ele><time>2026-04-04T14:17:32Z</time></trkpt><trkpt lat="46.15010308349757" lon="13.34748666351194"><ele>163.0</ele><time>2026-04-04T14:17:33Z</time></trkpt><trkpt lat="46.14995390601581" lon="13.347371551106614"><ele>163.0</ele><time>2026-04-04T14:17:34Z</time></trkpt><trkpt lat="46.14981612322187" lon="13.347256500368406"><ele>163.0</ele><time>2026-04-04T14:17:35Z</time></trkpt><trkpt lat="46.149691847001044" lon="13.34715084772096"><ele>162.75</ele><time>2026-04-04T14:17:36Z</time></trkpt><trkpt lat="46.149561593283224" lon="13.347072540123127"><ele>162.5</ele><time>2026-04-04T14:17:37Z</time></trkpt><trkpt lat="46.149424218683095" lon="13.347025758750684"><ele>162.25</ele><time>2026-04-04T14:17:38Z</time></trkpt><trkpt lat="46.14927741406667" lon="13.347027164220751"><ele>162.0</ele><time>2026-04-04T14:17:39Z</time></trkpt><trkpt lat="46.14912125174063" lon="13.347070448765738"><ele>162.0</ele><time>2026-04-04T14:17:40Z</time></trkpt><trkpt lat="46.14895554283653" lon="13.347134850032043"><ele>162.0</ele><time>2026-04-04T14:17:41Z</time></trkpt><trkpt lat="46.14878368636023" lon="13.347197247496338"><ele>162.0</ele><time>2026-04-04T14:17:42Z</time></trkpt><trkpt lat="46.14860848627275" lon="13.347264360112588"><ele>162.0</ele><time>2026-04-04T14:17:43Z</time></trkpt><trkpt lat="46.1484280108911" lon="13.34732811480862"><ele>162.0</ele><time>2026-04-04T14:17:44Z</time></trkpt><trkpt lat="46.14824119707626" lon="13.34738411672554"><ele>162.0</ele><time>2026-04-04T14:17:45Z</time></trkpt><trkpt lat="46.1480480885516" lon="13.34742819618538"><ele>161.33333333333334</ele><time>2026-04-04T14:17:46Z</time></trkpt><trkpt lat="46.147846996318556" lon="13.34745075916846"><ele>160.66666666666669</ele><time>2026-04-04T14:17:47Z</time></trkpt><trkpt lat="46.14764187952521" lon="13.347462274446615"><ele>160.0</ele><time>2026-04-04T14:17:47.999Z</time></trkpt><trkpt lat="46.14743847181975" lon="13.347463469862108"><ele>159.0</ele><time>2026-04-04T14:17:48.999Z</time></trkpt><trkpt lat="46.147234669627984" lon="13.347443907225738"><ele>158.0</ele><time>2026-04-04T14:17:49.999Z</time></trkpt><trkpt lat="46.147028672812226" lon="13.347410343935683"><ele>157.0</ele><time>2026-04-04T14:17:50.999Z</time></trkpt><trkpt lat="46.14681999645111" lon="13.347378301034423"><ele>157.0</ele><time>2026-04-04T14:17:51.999Z</time></trkpt><trkpt lat="46.14661110004075" lon="13.347347640348106"><ele>157.0</ele><time>2026-04-04T14:17:52.999Z</time></trkpt><trkpt lat="46.14640274965994" lon="13.34731384188678"><ele>157.0</ele><time>2026-04-04T14:17:53.999Z</time></trkpt><trkpt lat="46.146195136378154" lon="13.347282393010047"><ele>156.0</ele><time>2026-04-04T14:17:54.999Z</time></trkpt><trkpt lat="46.14599060185101" lon="13.347254688495708"><ele>155.0</ele><time>2026-04-04T14:17:55.999Z</time></trkpt><trkpt lat="46.1457879507107" lon="13.347228740297709"><ele>154.0</ele><time>2026-04-04T14:17:56.999Z</time></trkpt><trkpt lat="46.145579485565875" lon="13.347208009626325"><ele>153.66666666666669</ele><time>2026-04-04T14:17:57.999Z</time></trkpt><trkpt lat="46.145366338020935" lon="13.347198300938881"><ele>153.33333333333334</ele><time>2026-04-04T14:17:58.999Z</time></trkpt><trkpt lat="46.145155190496475" lon="13.347193324260758"><ele>153.0</ele><time>2026-04-04T14:17:59.999Z</time></trkpt><trkpt lat="46.14494592812905" lon="13.347190000528597"><ele>152.0</ele><time>2026-04-04T14:18:00.999Z</time></trkpt><trkpt lat="46.14473562743044" lon="13.347182526552876"><ele>151.0</ele><time>2026-04-04T14:18:01.999Z</time></trkpt><trkpt lat="46.14451764279555" lon="13.347175368917505"><ele>150.0</ele><time>2026-04-04T14:18:02.999Z</time></trkpt><trkpt lat="46.14429324782589" lon="13.34717435186599"><ele>150.0</ele><time>2026-04-04T14:18:03.999Z</time></trkpt><trkpt lat="46.144059229850306" lon="13.347170154954778"><ele>150.0</ele><time>2026-04-04T14:18:04.999Z</time></trkpt><trkpt lat="46.14382111332203" lon="13.347161995126513"><ele>149.33333333333334</ele><time>2026-04-04T14:18:05.999Z</time></trkpt><trkpt lat="46.143610191731966" lon="13.347152157383768"><ele>148.66666666666669</ele><time>2026-04-04T14:18:06.999Z</time></trkpt><trkpt lat="46.14341547687128" lon="13.347146947389696"><ele>148.0</ele><time>2026-04-04T14:18:07.999Z</time></trkpt><trkpt lat="46.14321479614902" lon="13.347153576019746"><ele>148.33333333333334</ele><time>2026-04-04T14:18:08.999Z</time></trkpt><trkpt lat="46.14301219269153" lon="13.347189885256025"><ele>148.66666666666666</ele><time>2026-04-04T14:18:09.999Z</time></trkpt><trkpt lat="46.14281408768079" lon="13.347263282994517"><ele>149.0</ele><time>2026-04-04T14:18:10.999Z</time></trkpt><trkpt lat="46.142621108299544" lon="13.347397975357485"><ele>149.0</ele><time>2026-04-04T14:18:11.999Z</time></trkpt><trkpt lat="46.142418016074245" lon="13.34758242720881"><ele>149.0</ele><time>2026-04-04T14:18:12.999Z</time></trkpt><trkpt lat="46.142199945785826" lon="13.347782539627046"><ele>149.0</ele><time>2026-04-04T14:18:13.999Z</time></trkpt><trkpt lat="46.14198316207349" lon="13.34797807356228"><ele>149.0</ele><time>2026-04-04T14:18:14.999Z</time></trkpt><trkpt lat="46.14179082000735" lon="13.34815233973348"><ele>148.0</ele><time>2026-04-04T14:18:15.999Z</time></trkpt><trkpt lat="46.141612781185806" lon="13.348313377385773"><ele>147.0</ele><time>2026-04-04T14:18:16.999Z</time></trkpt><trkpt lat="46.14143515453694" lon="13.348456060867024"><ele>146.0</ele><time>2026-04-04T14:18:17.999Z</time></trkpt><trkpt lat="46.1412543900942" lon="13.348574692812686"><ele>146.0</ele><time>2026-04-04T14:18:18.999Z</time></trkpt><trkpt lat="46.1410532817724" lon="13.348632814455447"><ele>146.0</ele><time>2026-04-04T14:18:19.999Z</time></trkpt><trkpt lat="46.140847141983954" lon="13.348655360004958"><ele>146.0</ele><time>2026-04-04T14:18:20.999Z</time></trkpt><trkpt lat="46.14066525225107" lon="13.348689880798634"><ele>145.66666666666666</ele><time>2026-04-04T14:18:21.999Z</time></trkpt><trkpt lat="46.140502604283114" lon="13.348754512442675"><ele>145.33333333333334</ele><time>2026-04-04T14:18:22.999Z</time></trkpt><trkpt lat="46.140356683108905" lon="13.348855539678565"><ele>145.0</ele><time>2026-04-04T14:18:23.999Z</time></trkpt><trkpt lat="46.14021997180458" lon="13.349000934984081"><ele>145.0</ele><time>2026-04-04T14:18:24.999Z</time></trkpt><trkpt lat="46.140082745221726" lon="13.3491863954781"><ele>145.0</ele><time>2026-04-04T14:18:25.999Z</time></trkpt><trkpt lat="46.13992037549395" lon="13.34937459424353"><ele>145.0</ele><time>2026-04-04T14:18:26.999Z</time></trkpt><trkpt lat="46.13977455388997" lon="13.349600394876363"><ele>143.33333333333334</ele><time>2026-04-04T14:18:27.999Z</time></trkpt><trkpt lat="46.13961641342013" lon="13.349798630622285"><ele>141.66666666666666</ele><time>2026-04-04T14:18:28.999Z</time></trkpt><trkpt lat="46.13946977908645" lon="13.34998840052799"><ele>140.0</ele><time>2026-04-04T14:18:29.999Z</time></trkpt><trkpt lat="46.13932716611807" lon="13.350162558109991"><ele>140.0</ele><time>2026-04-04T14:18:30.999Z</time></trkpt><trkpt lat="46.13916875084206" lon="13.350309081587477"><ele>140.0</ele><time>2026-04-04T14:18:31.999Z</time></trkpt><trkpt lat="46.138987503352375" lon="13.350415968827887"><ele>140.0</ele><time>2026-04-04T14:18:32.999Z</time></trkpt><trkpt lat="46.13878338575834" lon="13.350488658646215"><ele>140.0</ele><time>2026-04-04T14:18:33.999Z</time></trkpt><trkpt lat="46.138554662728" lon="13.350537591837183"><ele>140.0</ele><time>2026-04-04T14:18:34.999Z</time></trkpt><trkpt lat="46.13830004620336" lon="13.350577838262138"><ele>141.0</ele><time>2026-04-04T14:18:35.999Z</time></trkpt><trkpt lat="46.13802904454357" lon="13.350627410470361"><ele>142.0</ele><time>2026-04-04T14:18:36.999Z</time></trkpt><trkpt lat="46.1377424334248" lon="13.350672164036446"><ele>142.0</ele><time>2026-04-04T14:18:37.999Z</time></trkpt><trkpt lat="46.13745877814337" lon="13.350715487162375"><ele>142.0</ele><time>2026-04-04T14:18:38.999Z</time></trkpt><trkpt lat="46.13718104573526" lon="13.350761747380211"><ele>141.0</ele><time>2026-04-04T14:18:39.999Z</time></trkpt><trkpt lat="46.136912195159354" lon="13.350809876460026"><ele>140.0</ele><time>2026-04-04T14:18:40.999Z</time></trkpt><trkpt lat="46.1366509075872" lon="13.350859885881658"><ele>140.5</ele><time>2026-04-04T14:18:41.999Z</time></trkpt><trkpt lat="46.13640430151428" lon="13.350891278850876"><ele>141.0</ele><time>2026-04-04T14:18:42.999Z</time></trkpt><trkpt lat="46.13616348713254" lon="13.350887825196056"><ele>141.0</ele><time>2026-04-04T14:18:43.999Z</time></trkpt><trkpt lat="46.13591999478346" lon="13.350838579108869"><ele>141.0</ele><time>2026-04-04T14:18:44.999Z</time></trkpt><trkpt lat="46.13567030966517" lon="13.350758263741342"><ele>142.0</ele><time>2026-04-04T14:18:45.999Z</time></trkpt><trkpt lat="46.135428631960075" lon="13.350670707298097"><ele>143.0</ele><time>2026-04-04T14:18:46.999Z</time></trkpt><trkpt lat="46.135202062669165" lon="13.35059719465467"><ele>140.66666666666666</ele><time>2026-04-04T14:18:47.999Z</time></trkpt><trkpt lat="46.13498450989107" lon="13.350537310443846"><ele>138.33333333333334</ele><time>2026-04-04T14:18:48.999Z</time></trkpt><trkpt lat="46.134767283478936" lon="13.350519556536227"><ele>136.0</ele><time>2026-04-04T14:18:49.999Z</time></trkpt><trkpt lat="46.13453741952212" lon="13.350549356697114"><ele>136.0</ele><time>2026-04-04T14:18:50.999Z</time></trkpt><trkpt lat="46.13429216523816" lon="13.350618605856157"><ele>136.0</ele><time>2026-04-04T14:18:51.999Z</time></trkpt><trkpt lat="46.13403078330566" lon="13.350684978624471"><ele>136.5</ele><time>2026-04-04T14:18:52.999Z</time></trkpt><trkpt lat="46.13376185863011" lon="13.350749032731068"><ele>137.0</ele><time>2026-04-04T14:18:53.999Z</time></trkpt><trkpt lat="46.13350187190243" lon="13.35080831696633"><ele>137.0</ele><time>2026-04-04T14:18:54.999Z</time></trkpt><trkpt lat="46.13324682683509" lon="13.35087226310516"><ele>137.0</ele><time>2026-04-04T14:18:55.999Z</time></trkpt><trkpt lat="46.133011448529835" lon="13.350934818979642"><ele>136.33333333333331</ele><time>2026-04-04T14:18:56.999Z</time></trkpt><trkpt lat="46.13279903245341" lon="13.351006790041039"><ele>135.66666666666666</ele><time>2026-04-04T14:18:57.999Z</time></trkpt><trkpt lat="46.13260344632156" lon="13.351106504656268"><ele>135.0</ele><time>2026-04-04T14:18:58.999Z</time></trkpt><trkpt lat="46.13242742416656" lon="13.351226189611804"><ele>135.33333333333334</ele><time>2026-04-04T14:18:59.999Z</time></trkpt><trkpt lat="46.13225786381003" lon="13.351379423611775"><ele>135.66666666666669</ele><time>2026-04-04T14:19:00.999Z</time></trkpt><trkpt lat="46.13208676934497" lon="13.351559096373208"><ele>136.0</ele><time>2026-04-04T14:19:01.999Z</time></trkpt><trkpt lat="46.13191676498357" lon="13.351737815362766"><ele>136.0</ele><time>2026-04-04T14:19:02.999Z</time></trkpt><trkpt lat="46.13174796124867" lon="13.351905267947936"><ele>136.0</ele><time>2026-04-04T14:19:03.999Z</time></trkpt><trkpt lat="46.131594156375115" lon="13.35206072446273"><ele>136.0</ele><time>2026-04-04T14:19:04.999Z</time></trkpt><trkpt lat="46.13145267372653" lon="13.352209121812095"><ele>135.66666666666669</ele><time>2026-04-04T14:19:05.999Z</time></trkpt><trkpt lat="46.13132747524631" lon="13.352347406598087"><ele>135.33333333333334</ele><time>2026-04-04T14:19:06.999Z</time></trkpt><trkpt lat="46.131213163981386" lon="13.352498777548755"><ele>135.0</ele><time>2026-04-04T14:19:07.999Z</time></trkpt><trkpt lat="46.131104306554604" lon="13.352694339296658"><ele>135.0</ele><time>2026-04-04T14:19:08.999Z</time></trkpt><trkpt lat="46.131007789787986" lon="13.352938343705489"><ele>135.0</ele><time>2026-04-04T14:19:09.999Z</time></trkpt><trkpt lat="46.13091417560402" lon="13.353214853202964"><ele>135.0</ele><time>2026-04-04T14:19:10.999Z</time></trkpt><trkpt lat="46.130817662106466" lon="13.353500192274398"><ele>134.33333333333334</ele><time>2026-04-04T14:19:11.999Z</time></trkpt><trkpt lat="46.13072117221368" lon="13.35377798022508"><ele>133.66666666666669</ele><time>2026-04-04T14:19:12.999Z</time></trkpt><trkpt lat="46.13062826007351" lon="13.354049011297384"><ele>133.0</ele><time>2026-04-04T14:19:13.999Z</time></trkpt><trkpt lat="46.130537358032946" lon="13.354314840418114"><ele>133.0</ele><time>2026-04-04T14:19:14.999Z</time></trkpt><trkpt lat="46.13043742493826" lon="13.354566763902053"><ele>133.0</ele><time>2026-04-04T14:19:15.999Z</time></trkpt><trkpt lat="46.13031911768921" lon="13.354800585609478"><ele>133.0</ele><time>2026-04-04T14:19:17Z</time></trkpt><trkpt lat="46.130190842002456" lon="13.355034342710258"><ele>133.0</ele><time>2026-04-04T14:19:18Z</time></trkpt><trkpt lat="46.13006105460085" lon="13.355271233052164"><ele>133.0</ele><time>2026-04-04T14:19:19Z</time></trkpt><trkpt lat="46.12993255428894" lon="13.355510595756302"><ele>133.0</ele><time>2026-04-04T14:19:20Z</time></trkpt><trkpt lat="46.129812189268605" lon="13.355771269322805"><ele>133.0</ele><time>2026-04-04T14:19:21Z</time></trkpt><trkpt lat="46.12970784574911" lon="13.356053008748267"><ele>133.0</ele><time>2026-04-04T14:19:22Z</time></trkpt><trkpt lat="46.12960629860881" lon="13.356344074410906"><ele>133.0</ele><time>2026-04-04T14:19:23Z</time></trkpt><trkpt lat="46.129503746511844" lon="13.356639617206786"><ele>132.5</ele><time>2026-04-04T14:19:24Z</time></trkpt><trkpt lat="46.12940106346247" lon="13.356936268752474"><ele>132.0</ele><time>2026-04-04T14:19:25Z</time></trkpt><trkpt lat="46.129302859292785" lon="13.357233938289484"><ele>132.0</ele><time>2026-04-04T14:19:26Z</time></trkpt><trkpt lat="46.1292037567801" lon="13.3575256439772"><ele>132.0</ele><time>2026-04-04T14:19:27Z</time></trkpt><trkpt lat="46.129103356421126" lon="13.357812256911165"><ele>132.0</ele><time>2026-04-04T14:19:28Z</time></trkpt><trkpt lat="46.129003767369746" lon="13.358092769911243"><ele>130.66666666666666</ele><time>2026-04-04T14:19:29Z</time></trkpt><trkpt lat="46.128909567393926" lon="13.358369876178333"><ele>129.33333333333331</ele><time>2026-04-04T14:19:30Z</time></trkpt><trkpt lat="46.12882506991499" lon="13.358641098877973"><ele>128.0</ele><time>2026-04-04T14:19:31Z</time></trkpt><trkpt lat="46.128752396340374" lon="13.358913798641371"><ele>127.66666666666666</ele><time>2026-04-04T14:19:32Z</time></trkpt><trkpt lat="46.1287016636797" lon="13.359209283410275"><ele>127.33333333333334</ele><time>2026-04-04T14:19:33Z</time></trkpt><trkpt lat="46.128670007842686" lon="13.359523703120654"><ele>127.0</ele><time>2026-04-04T14:19:34Z</time></trkpt><trkpt lat="46.12864957353157" lon="13.3598525967773"><ele>128.5</ele><time>2026-04-04T14:19:35Z</time></trkpt><trkpt lat="46.12862761250736" lon="13.360181820802303"><ele>130.0</ele><time>2026-04-04T14:19:36Z</time></trkpt><trkpt lat="46.1286087616239" lon="13.360506565691331"><ele>130.33333333333334</ele><time>2026-04-04T14:19:37Z</time></trkpt><trkpt lat="46.128594865350344" lon="13.360833869033927"><ele>130.66666666666666</ele><time>2026-04-04T14:19:38Z</time></trkpt><trkpt lat="46.12857964612631" lon="13.361150377035116"><ele>131.0</ele><time>2026-04-04T14:19:39Z</time></trkpt><trkpt lat="46.12856221506902" lon="13.361451795753993"><ele>131.33333333333331</ele><time>2026-04-04T14:19:40Z</time></trkpt><trkpt lat="46.128550155774775" lon="13.361736109445573"><ele>131.66666666666666</ele><time>2026-04-04T14:19:41Z</time></trkpt><trkpt lat="46.128542887728486" lon="13.361996150951798"><ele>132.0</ele><time>2026-04-04T14:19:42Z</time></trkpt><trkpt lat="46.128538670381666" lon="13.3622327609173"><ele>132.75</ele><time>2026-04-04T14:19:43Z</time></trkpt><trkpt lat="46.12853425231793" lon="13.362445764757078"><ele>133.5</ele><time>2026-04-04T14:19:44Z</time></trkpt><trkpt lat="46.128513057250004" lon="13.362639780078439"><ele>134.25</ele><time>2026-04-04T14:19:45Z</time></trkpt><trkpt lat="46.128438559205726" lon="13.362815493565298"><ele>135.0</ele><time>2026-04-04T14:19:46Z</time></trkpt><trkpt lat="46.128334112794654" lon="13.362988754723506"><ele>133.66666666666666</ele><time>2026-04-04T14:19:47Z</time></trkpt><trkpt lat="46.12821410802798" lon="13.36317466696729"><ele>132.33333333333331</ele><time>2026-04-04T14:19:48Z</time></trkpt><trkpt lat="46.12808729717289" lon="13.363388468410333"><ele>131.0</ele><time>2026-04-04T14:19:49Z</time></trkpt><trkpt lat="46.12796283345153" lon="13.36362404626795"><ele>131.66666666666666</ele><time>2026-04-04T14:19:50Z</time></trkpt><trkpt lat="46.12785507842523" lon="13.36387753180713"><ele>132.33333333333334</ele><time>2026-04-04T14:19:51Z</time></trkpt><trkpt lat="46.127768741971465" lon="13.36413265890094"><ele>133.0</ele><time>2026-04-04T14:19:52Z</time></trkpt><trkpt lat="46.127694897001554" lon="13.364382435705737"><ele>133.0</ele><time>2026-04-04T14:19:53Z</time></trkpt><trkpt lat="46.12763461351508" lon="13.364622878450598"><ele>133.0</ele><time>2026-04-04T14:19:54Z</time></trkpt><trkpt lat="46.127591713033205" lon="13.364830482949474"><ele>133.0</ele><time>2026-04-04T14:19:55Z</time></trkpt><trkpt lat="46.12755724979174" lon="13.364996529327646"><ele>133.0</ele><time>2026-04-04T14:19:56Z</time></trkpt><trkpt lat="46.12752798517006" lon="13.365141156083242"><ele>132.66666666666669</ele><time>2026-04-04T14:19:57Z</time></trkpt><trkpt lat="46.12750279049986" lon="13.365260845446333"><ele>132.33333333333334</ele><time>2026-04-04T14:19:58Z</time></trkpt><trkpt lat="46.12747861452026" lon="13.365370333569334"><ele>132.0</ele><time>2026-04-04T14:19:59Z</time></trkpt><trkpt lat="46.12746036553714" lon="13.365467757195717"><ele>131.66666666666666</ele><time>2026-04-04T14:19:59.999Z</time></trkpt><trkpt lat="46.12744557618957" lon="13.365557369113857"><ele>131.33333333333331</ele><time>2026-04-04T14:20:00.999Z</time></trkpt><trkpt lat="46.12743261769464" lon="13.365666241501156"><ele>131.0</ele><time>2026-04-04T14:20:01.999Z</time></trkpt><trkpt lat="46.12736117886261" lon="13.36577283225854"><ele>131.0</ele><time>2026-04-04T14:20:02.999Z</time></trkpt><trkpt lat="46.127326503510744" lon="13.365927453043685"><ele>131.0</ele><time>2026-04-04T14:20:03.999Z</time></trkpt><trkpt lat="46.12728396816176" lon="13.366112965909776"><ele>131.0</ele><time>2026-04-04T14:20:04.999Z</time></trkpt><trkpt lat="46.127232256388716" lon="13.366328308983277"><ele>131.0</ele><time>2026-04-04T14:20:05.999Z</time></trkpt><trkpt lat="46.127166241628274" lon="13.366554753294698"><ele>131.0</ele><time>2026-04-04T14:20:06.999Z</time></trkpt><trkpt lat="46.12707932603452" lon="13.366795863800798"><ele>131.0</ele><time>2026-04-04T14:20:07.999Z</time></trkpt><trkpt lat="46.12698044869739" lon="13.367049764522353"><ele>131.0</ele><time>2026-04-04T14:20:08.999Z</time></trkpt><trkpt lat="46.12687770373022" lon="13.367306479497175"><ele>130.33333333333331</ele><time>2026-04-04T14:20:09.999Z</time></trkpt><trkpt lat="46.12678060621881" lon="13.367557362838692"><ele>129.66666666666666</ele><time>2026-04-04T14:20:10.999Z</time></trkpt><trkpt lat="46.12668300203998" lon="13.367805806367071"><ele>129.0</ele><time>2026-04-04T14:20:11.999Z</time></trkpt><trkpt lat="46.12658428356656" lon="13.368051653331225"><ele>128.0</ele><time>2026-04-04T14:20:12.999Z</time></trkpt><trkpt lat="46.126487195517704" lon="13.368294686333254"><ele>127.0</ele><time>2026-04-04T14:20:13.999Z</time></trkpt><trkpt lat="46.126392312431136" lon="13.368531335052548"><ele>126.0</ele><time>2026-04-04T14:20:14.999Z</time></trkpt><trkpt lat="46.126303373320795" lon="13.36875315885078"><ele>125.66666666666666</ele><time>2026-04-04T14:20:15.999Z</time></trkpt><trkpt lat="46.12621840292991" lon="13.36896508423158"><ele>125.33333333333333</ele><time>2026-04-04T14:20:16.999Z</time></trkpt><trkpt lat="46.126137239636186" lon="13.369168590757011"><ele>125.0</ele><time>2026-04-04T14:20:17.999Z</time></trkpt><trkpt lat="46.12606727603666" lon="13.36937949498852"><ele>125.0</ele><time>2026-04-04T14:20:18.999Z</time></trkpt><trkpt lat="46.12603870603442" lon="13.369636495097735"><ele>125.0</ele><time>2026-04-04T14:20:19.999Z</time></trkpt><trkpt lat="46.1260264790455" lon="13.369904787333455"><ele>125.0</ele><time>2026-04-04T14:20:20.999Z</time></trkpt><trkpt lat="46.12601968593646" lon="13.37019235838764"><ele>125.0</ele><time>2026-04-04T14:20:21.999Z</time></trkpt><trkpt lat="46.126011872812" lon="13.370485197312494"><ele>125.0</ele><time>2026-04-04T14:20:22.999Z</time></trkpt><trkpt lat="46.12600301909777" lon="13.370801283558633"><ele>125.0</ele><time>2026-04-04T14:20:23.999Z</time></trkpt><trkpt lat="46.12599352193704" lon="13.371128509308875"><ele>125.5</ele><time>2026-04-04T14:20:24.999Z</time></trkpt><trkpt lat="46.125982406712154" lon="13.37146549825642"><ele>126.0</ele><time>2026-04-04T14:20:25.999Z</time></trkpt><trkpt lat="46.12597182207201" lon="13.371803804788945"><ele>126.0</ele><time>2026-04-04T14:20:26.999Z</time></trkpt><trkpt lat="46.12596142101144" lon="13.372136243735236"><ele>126.0</ele><time>2026-04-04T14:20:27.999Z</time></trkpt><trkpt lat="46.12595181878916" lon="13.372456771978593"><ele>125.33333333333334</ele><time>2026-04-04T14:20:28.999Z</time></trkpt><trkpt lat="46.125942869138555" lon="13.372755051971037"><ele>124.66666666666667</ele><time>2026-04-04T14:20:29.999Z</time></trkpt><trkpt lat="46.12594928060513" lon="13.373044798781391"><ele>124.0</ele><time>2026-04-04T14:20:30.999Z</time></trkpt><trkpt lat="46.12594002682797" lon="13.373333974888746"><ele>123.33333333333334</ele><time>2026-04-04T14:20:31.999Z</time></trkpt><trkpt lat="46.12591669508962" lon="13.37362849697306"><ele>122.66666666666666</ele><time>2026-04-04T14:20:32.999Z</time></trkpt><trkpt lat="46.125904779467966" lon="13.373925290871815"><ele>122.0</ele><time>2026-04-04T14:20:33.999Z</time></trkpt><trkpt lat="46.12587528449885" lon="13.374207143517657"><ele>123.0</ele><time>2026-04-04T14:20:34.999Z</time></trkpt><trkpt lat="46.125813035071566" lon="13.374469362476168"><ele>124.0</ele><time>2026-04-04T14:20:35.999Z</time></trkpt><trkpt lat="46.12571542240051" lon="13.374728594822155"><ele>125.0</ele><time>2026-04-04T14:20:36.999Z</time></trkpt><trkpt lat="46.125598448996314" lon="13.374998921477406"><ele>125.0</ele><time>2026-04-04T14:20:37.999Z</time></trkpt><trkpt lat="46.12547618303693" lon="13.375277365471826"><ele>125.0</ele><time>2026-04-04T14:20:38.999Z</time></trkpt><trkpt lat="46.12535509602181" lon="13.37555323652801"><ele>124.33333333333333</ele><time>2026-04-04T14:20:39.999Z</time></trkpt><trkpt lat="46.12523579024806" lon="13.375827357147726"><ele>123.66666666666666</ele><time>2026-04-04T14:20:40.999Z</time></trkpt><trkpt lat="46.12511776146567" lon="13.37609744050283"><ele>123.0</ele><time>2026-04-04T14:20:41.999Z</time></trkpt><trkpt lat="46.125003133460936" lon="13.376359602515915"><ele>123.0</ele><time>2026-04-04T14:20:42.999Z</time></trkpt><trkpt lat="46.12489042276472" lon="13.376619023934055"><ele>123.0</ele><time>2026-04-04T14:20:43.999Z</time></trkpt><trkpt lat="46.124779252529706" lon="13.37687431463371"><ele>123.0</ele><time>2026-04-04T14:20:44.999Z</time></trkpt><trkpt lat="46.12466964757188" lon="13.377125885657517"><ele>122.66666666666666</ele><time>2026-04-04T14:20:45.999Z</time></trkpt><trkpt lat="46.124560972255146" lon="13.37737532292026"><ele>122.33333333333333</ele><time>2026-04-04T14:20:46.999Z</time></trkpt><trkpt lat="46.124454067459716" lon="13.377620509660211"><ele>122.0</ele><time>2026-04-04T14:20:47.999Z</time></trkpt><trkpt lat="46.12434491385197" lon="13.37786868787547"><ele>122.33333333333333</ele><time>2026-04-04T14:20:48.999Z</time></trkpt><trkpt lat="46.1242344658164" lon="13.378119809179266"><ele>122.66666666666666</ele><time>2026-04-04T14:20:49.999Z</time></trkpt><trkpt lat="46.124124477137315" lon="13.378370836059409"><ele>123.0</ele><time>2026-04-04T14:20:50.999Z</time></trkpt><trkpt lat="46.124013855874644" lon="13.37862395562926"><ele>123.66666666666666</ele><time>2026-04-04T14:20:51.999Z</time></trkpt><trkpt lat="46.123903394494704" lon="13.37887795773374"><ele>124.33333333333333</ele><time>2026-04-04T14:20:52.999Z</time></trkpt><trkpt lat="46.123792327318206" lon="13.379133352846758"><ele>125.0</ele><time>2026-04-04T14:20:53.999Z</time></trkpt><trkpt lat="46.123681415661245" lon="13.379387594103884"><ele>125.0</ele><time>2026-04-04T14:20:54.999Z</time></trkpt><trkpt lat="46.12356821043175" lon="13.379640091000745"><ele>125.0</ele><time>2026-04-04T14:20:55.999Z</time></trkpt><trkpt lat="46.12345688777408" lon="13.379894634320706"><ele>125.0</ele><time>2026-04-04T14:20:56.999Z</time></trkpt><trkpt lat="46.123345371828314" lon="13.380149636257803"><ele>125.0</ele><time>2026-04-04T14:20:57.999Z</time></trkpt><trkpt lat="46.12323484586065" lon="13.380402129321062"><ele>125.0</ele><time>2026-04-04T14:20:58.999Z</time></trkpt><trkpt lat="46.12312278209137" lon="13.38065813544368"><ele>125.0</ele><time>2026-04-04T14:20:59.999Z</time></trkpt><trkpt lat="46.12301001672359" lon="13.380915744346066"><ele>124.66666666666666</ele><time>2026-04-04T14:21:00.999Z</time></trkpt><trkpt lat="46.12289657155708" lon="13.38117490730337"><ele>124.33333333333334</ele><time>2026-04-04T14:21:01.999Z</time></trkpt><trkpt lat="46.12278327467134" lon="13.381431446571618"><ele>124.0</ele><time>2026-04-04T14:21:02.999Z</time></trkpt><trkpt lat="46.122668613097666" lon="13.381688795794451"><ele>124.0</ele><time>2026-04-04T14:21:03.999Z</time></trkpt><trkpt lat="46.122556422618175" lon="13.381948002386647"><ele>124.0</ele><time>2026-04-04T14:21:04.999Z</time></trkpt><trkpt lat="46.122443228404514" lon="13.3822059234604"><ele>124.0</ele><time>2026-04-04T14:21:05.999Z</time></trkpt><trkpt lat="46.12232936203013" lon="13.382463672860913"><ele>123.66666666666667</ele><time>2026-04-04T14:21:06.999Z</time></trkpt><trkpt lat="46.12221623218267" lon="13.382720862920158"><ele>123.33333333333334</ele><time>2026-04-04T14:21:07.999Z</time></trkpt><trkpt lat="46.12210386971044" lon="13.382977513333097"><ele>123.0</ele><time>2026-04-04T14:21:08.999Z</time></trkpt><trkpt lat="46.12199016280539" lon="13.383238983832976"><ele>123.0</ele><time>2026-04-04T14:21:09.999Z</time></trkpt><trkpt lat="46.12187714385824" lon="13.38350534334571"><ele>123.0</ele><time>2026-04-04T14:21:10.999Z</time></trkpt><trkpt lat="46.12177781781593" lon="13.383788616226786"><ele>123.0</ele><time>2026-04-04T14:21:11.999Z</time></trkpt><trkpt lat="46.12169941841835" lon="13.384089286067578"><ele>124.0</ele><time>2026-04-04T14:21:12.999Z</time></trkpt><trkpt lat="46.12164691085164" lon="13.384404805504914"><ele>125.0</ele><time>2026-04-04T14:21:13.999Z</time></trkpt><trkpt lat="46.12159429010224" lon="13.384729438284445"><ele>123.5</ele><time>2026-04-04T14:21:14.999Z</time></trkpt><trkpt lat="46.12155795800537" lon="13.385063482997086"><ele>122.0</ele><time>2026-04-04T14:21:15.999Z</time></trkpt><trkpt lat="46.12149095159741" lon="13.385384730787107"><ele>122.33333333333333</ele><time>2026-04-04T14:21:16.999Z</time></trkpt><trkpt lat="46.12143873161838" lon="13.385701662767834"><ele>122.66666666666666</ele><time>2026-04-04T14:21:17.999Z</time></trkpt><trkpt lat="46.12138297877346" lon="13.386011693911222"><ele>123.0</ele><time>2026-04-04T14:21:18.999Z</time></trkpt><trkpt lat="46.121312632456046" lon="13.386301152124705"><ele>123.66666666666666</ele><time>2026-04-04T14:21:19.999Z</time></trkpt><trkpt lat="46.12120145323262" lon="13.386553648155783"><ele>124.33333333333333</ele><time>2026-04-04T14:21:20.999Z</time></trkpt><trkpt lat="46.121052311465036" lon="13.386781457979417"><ele>125.0</ele><time>2026-04-04T14:21:21.999Z</time></trkpt><trkpt lat="46.120884744965316" lon="13.387000070615816"><ele>124.5</ele><time>2026-04-04T14:21:23Z</time></trkpt><trkpt lat="46.12071102551114" lon="13.3872268351639"><ele>124.0</ele><time>2026-04-04T14:21:24Z</time></trkpt><trkpt lat="46.12053097864587" lon="13.387464813761579"><ele>124.0</ele><time>2026-04-04T14:21:25Z</time></trkpt><trkpt lat="46.12034636951526" lon="13.387707762723043"><ele>124.0</ele><time>2026-04-04T14:21:26Z</time></trkpt><trkpt lat="46.12016869333223" lon="13.387973232412367"><ele>124.5</ele><time>2026-04-04T14:21:27Z</time></trkpt><trkpt lat="46.119967628631535" lon="13.388204349681224"><ele>125.0</ele><time>2026-04-04T14:21:28Z</time></trkpt><trkpt lat="46.119777515733034" lon="13.388455886574032"><ele>125.0</ele><time>2026-04-04T14:21:29Z</time></trkpt><trkpt lat="46.11958941897912" lon="13.388705893721403"><ele>125.0</ele><time>2026-04-04T14:21:30Z</time></trkpt><trkpt lat="46.119404573205394" lon="13.388957520736932"><ele>125.5</ele><time>2026-04-04T14:21:31Z</time></trkpt><trkpt lat="46.119230586717094" lon="13.389220093380944"><ele>126.0</ele><time>2026-04-04T14:21:32Z</time></trkpt><trkpt lat="46.119074367360774" lon="13.389505659449608"><ele>125.5</ele><time>2026-04-04T14:21:33Z</time></trkpt><trkpt lat="46.118922111871846" lon="13.38978651237051"><ele>125.0</ele><time>2026-04-04T14:21:34Z</time></trkpt><trkpt lat="46.11877116863045" lon="13.390066799744012"><ele>125.0</ele><time>2026-04-04T14:21:35Z</time></trkpt><trkpt lat="46.11862196515997" lon="13.390343913154641"><ele>125.0</ele><time>2026-04-04T14:21:36Z</time></trkpt><trkpt lat="46.11847316249436" lon="13.3906218580296"><ele>125.5</ele><time>2026-04-04T14:21:37Z</time></trkpt><trkpt lat="46.11832412816486" lon="13.39089757916436"><ele>126.0</ele><time>2026-04-04T14:21:38Z</time></trkpt><trkpt lat="46.118190487093486" lon="13.391185218184726"><ele>127.0</ele><time>2026-04-04T14:21:39Z</time></trkpt><trkpt lat="46.11804530179887" lon="13.39145617387411"><ele>128.0</ele><time>2026-04-04T14:21:40Z</time></trkpt><trkpt lat="46.117904972000744" lon="13.391718996681517"><ele>128.0</ele><time>2026-04-04T14:21:41Z</time></trkpt><trkpt lat="46.11777247632545" lon="13.39196364172262"><ele>128.0</ele><time>2026-04-04T14:21:42Z</time></trkpt><trkpt lat="46.11764777935088" lon="13.392191383431273"><ele>128.0</ele><time>2026-04-04T14:21:43Z</time></trkpt><trkpt lat="46.11752959542577" lon="13.392411475780884"><ele>128.33333333333331</ele><time>2026-04-04T14:21:44Z</time></trkpt><trkpt lat="46.117395859915575" lon="13.3926458636613"><ele>128.66666666666666</ele><time>2026-04-04T14:21:45Z</time></trkpt><trkpt lat="46.1172941445805" lon="13.392923118003928"><ele>129.0</ele><time>2026-04-04T14:21:46Z</time></trkpt><trkpt lat="46.11722005242377" lon="13.393225840584973"><ele>129.66666666666666</ele><time>2026-04-04T14:21:47Z</time></trkpt><trkpt lat="46.11715283042787" lon="13.39353062854394"><ele>130.33333333333331</ele><time>2026-04-04T14:21:48Z</time></trkpt><trkpt lat="46.11706460684915" lon="13.393804062209727"><ele>131.0</ele><time>2026-04-04T14:21:49Z</time></trkpt><trkpt lat="46.11694077874814" lon="13.394046778799526"><ele>131.66666666666666</ele><time>2026-04-04T14:21:50Z</time></trkpt><trkpt lat="46.116782505715875" lon="13.394273898695678"><ele>132.33333333333334</ele><time>2026-04-04T14:21:51Z</time></trkpt><trkpt lat="46.11663735921388" lon="13.394513210006588"><ele>133.0</ele><time>2026-04-04T14:21:52Z</time></trkpt><trkpt lat="46.11650117039632" lon="13.394710960740168"><ele>133.0</ele><time>2026-04-04T14:21:53Z</time></trkpt><trkpt lat="46.11637351868801" lon="13.39489519804206"><ele>133.0</ele><time>2026-04-04T14:21:54Z</time></trkpt><trkpt lat="46.116239687927504" lon="13.395036076779405"><ele>133.0</ele><time>2026-04-04T14:21:55Z</time></trkpt><trkpt lat="46.116116585181615" lon="13.395183441093565"><ele>133.0</ele><time>2026-04-04T14:21:56Z</time></trkpt><trkpt lat="46.11597156670716" lon="13.395285794351937"><ele>133.0</ele><time>2026-04-04T14:21:57Z</time></trkpt><trkpt lat="46.115818157635815" lon="13.395354583914656"><ele>133.0</ele><time>2026-04-04T14:21:58Z</time></trkpt><trkpt lat="46.115656922748016" lon="13.395378789426113"><ele>132.33333333333334</ele><time>2026-04-04T14:21:59Z</time></trkpt><trkpt lat="46.1154926695646" lon="13.395379280656135"><ele>131.66666666666666</ele><time>2026-04-04T14:22:00Z</time></trkpt><trkpt lat="46.11533249494151" lon="13.395379637809274"><ele>131.0</ele><time>2026-04-04T14:22:01Z</time></trkpt><trkpt lat="46.115188032267135" lon="13.395394228805305"><ele>131.0</ele><time>2026-04-04T14:22:02Z</time></trkpt><trkpt lat="46.115050572703694" lon="13.395401519577968"><ele>131.0</ele><time>2026-04-04T14:22:03Z</time></trkpt><trkpt lat="46.114931703800835" lon="13.395480272561823"><ele>131.0</ele><time>2026-04-04T14:22:04Z</time></trkpt><trkpt lat="46.11481424377317" lon="13.395524466454766"><ele>131.0</ele><time>2026-04-04T14:22:05Z</time></trkpt><trkpt lat="46.114708377792134" lon="13.395630336748441"><ele>131.25</ele><time>2026-04-04T14:22:06Z</time></trkpt><trkpt lat="46.11462319931825" lon="13.395765137242837"><ele>131.5</ele><time>2026-04-04T14:22:07Z</time></trkpt><trkpt lat="46.11452059650172" lon="13.39587020548655"><ele>131.75</ele><time>2026-04-04T14:22:08Z</time></trkpt><trkpt lat="46.11442034563835" lon="13.395967575387164"><ele>132.0</ele><time>2026-04-04T14:22:09Z</time></trkpt><trkpt lat="46.11432472343097" lon="13.396069846844084"><ele>132.0</ele><time>2026-04-04T14:22:10Z</time></trkpt><trkpt lat="46.11422775772309" lon="13.396176623650362"><ele>132.0</ele><time>2026-04-04T14:22:11Z</time></trkpt><trkpt lat="46.11415038994406" lon="13.396311447974602"><ele>132.0</ele><time>2026-04-04T14:22:12Z</time></trkpt><trkpt lat="46.11407423790741" lon="13.396450709064629"><ele>132.0</ele><time>2026-04-04T14:22:13Z</time></trkpt><trkpt lat="46.11400236026636" lon="13.396590496150313"><ele>132.4</ele><time>2026-04-04T14:22:14Z</time></trkpt><trkpt lat="46.1139338824535" lon="13.39673627564372"><ele>132.79999999999998</ele><time>2026-04-04T14:22:15Z</time></trkpt><trkpt lat="46.113876332012694" lon="13.396870321595989"><ele>133.2</ele><time>2026-04-04T14:22:16Z</time></trkpt><trkpt lat="46.113828113334904" lon="13.396999161145168"><ele>133.6</ele><time>2026-04-04T14:22:17Z</time></trkpt><trkpt lat="46.113792968938085" lon="13.397130028398726"><ele>134.0</ele><time>2026-04-04T14:22:18Z</time></trkpt><trkpt lat="46.113770363801905" lon="13.397258908027377"><ele>134.0</ele><time>2026-04-04T14:22:19Z</time></trkpt><trkpt lat="46.113758232964635" lon="13.397375233959238"><ele>134.0</ele><time>2026-04-04T14:22:20Z</time></trkpt><trkpt lat="46.11369806804598" lon="13.39746486628861"><ele>134.0</ele><time>2026-04-04T14:22:21Z</time></trkpt><trkpt lat="46.1135986261846" lon="13.397487574612581"><ele>134.0</ele><time>2026-04-04T14:22:22Z</time></trkpt><trkpt lat="46.11350488528614" lon="13.397516468995773"><ele>134.0</ele><time>2026-04-04T14:22:23Z</time></trkpt><trkpt lat="46.11339737370108" lon="13.397534523961122"><ele>134.0</ele><time>2026-04-04T14:22:24Z</time></trkpt><trkpt lat="46.113271181023144" lon="13.397560438315995"><ele>134.0</ele><time>2026-04-04T14:22:25Z</time></trkpt><trkpt lat="46.11312171830162" lon="13.397538053660217"><ele>134.0</ele><time>2026-04-04T14:22:26Z</time></trkpt><trkpt lat="46.11295858938272" lon="13.397541564367092"><ele>134.0</ele><time>2026-04-04T14:22:27Z</time></trkpt><trkpt lat="46.11279478990195" lon="13.39754188895549"><ele>133.75</ele><time>2026-04-04T14:22:28Z</time></trkpt><trkpt lat="46.11263802298402" lon="13.397563213311132"><ele>133.5</ele><time>2026-04-04T14:22:29Z</time></trkpt><trkpt lat="46.112488792253295" lon="13.397541624999844"><ele>133.25</ele><time>2026-04-04T14:22:30Z</time></trkpt><trkpt lat="46.11235908379743" lon="13.39756724265398"><ele>133.0</ele><time>2026-04-04T14:22:31Z</time></trkpt><trkpt lat="46.112249034064554" lon="13.397633714797436"><ele>133.0</ele><time>2026-04-04T14:22:32Z</time></trkpt><trkpt lat="46.11217039046002" lon="13.397774670516103"><ele>133.0</ele><time>2026-04-04T14:22:33Z</time></trkpt><trkpt lat="46.112105841174795" lon="13.39793748512588"><ele>133.0</ele><time>2026-04-04T14:22:34Z</time></trkpt><trkpt lat="46.112049184290065" lon="13.39812307527413"><ele>133.0</ele><time>2026-04-04T14:22:35Z</time></trkpt><trkpt lat="46.11199333916025" lon="13.398322578717805"><ele>133.0</ele><time>2026-04-04T14:22:36Z</time></trkpt><trkpt lat="46.111939073663216" lon="13.398522641759607"><ele>133.0</ele><time>2026-04-04T14:22:37Z</time></trkpt><trkpt lat="46.11188268353954" lon="13.39872847642282"><ele>133.0</ele><time>2026-04-04T14:22:38Z</time></trkpt><trkpt lat="46.111824299607214" lon="13.398925531319339"><ele>133.33333333333334</ele><time>2026-04-04T14:22:38.999Z</time></trkpt><trkpt lat="46.111739567279784" lon="13.399107052945546"><ele>133.66666666666666</ele><time>2026-04-04T14:22:39.999Z</time></trkpt><trkpt lat="46.11164923753553" lon="13.39928216199022"><ele>134.0</ele><time>2026-04-04T14:22:40.999Z</time></trkpt><trkpt lat="46.1115430087804" lon="13.399444455156605"><ele>133.33333333333331</ele><time>2026-04-04T14:22:41.999Z</time></trkpt><trkpt lat="46.111414944514934" lon="13.399604093393549"><ele>132.66666666666666</ele><time>2026-04-04T14:22:42.999Z</time></trkpt><trkpt lat="46.11127469404527" lon="13.399780123701015"><ele>132.0</ele><time>2026-04-04T14:22:43.999Z</time></trkpt><trkpt lat="46.111128680861455" lon="13.399965558012532"><ele>132.0</ele><time>2026-04-04T14:22:44.999Z</time></trkpt><trkpt lat="46.110980140856334" lon="13.400152835131392"><ele>132.0</ele><time>2026-04-04T14:22:45.999Z</time></trkpt><trkpt lat="46.110823515964505" lon="13.400350206663973"><ele>132.0</ele><time>2026-04-04T14:22:46.999Z</time></trkpt><trkpt lat="46.11067648737042" lon="13.400532342358922"><ele>130.66666666666666</ele><time>2026-04-04T14:22:47.999Z</time></trkpt><trkpt lat="46.11053908333087" lon="13.400705459943806"><ele>129.33333333333331</ele><time>2026-04-04T14:22:48.999Z</time></trkpt><trkpt lat="46.1104215141682" lon="13.400864576453648"><ele>128.0</ele><time>2026-04-04T14:22:49.999Z</time></trkpt><trkpt lat="46.11032079537591" lon="13.401033624696794"><ele>128.0</ele><time>2026-04-04T14:22:50.999Z</time></trkpt><trkpt lat="46.110234142072024" lon="13.401214493667235"><ele>128.0</ele><time>2026-04-04T14:22:51.999Z</time></trkpt><trkpt lat="46.11020183776233" lon="13.40142886921021"><ele>128.0</ele><time>2026-04-04T14:22:52.999Z</time></trkpt><trkpt lat="46.110193011524345" lon="13.401641988030766"><ele>129.0</ele><time>2026-04-04T14:22:53.999Z</time></trkpt><trkpt lat="46.11022125357707" lon="13.401872323810222"><ele>130.0</ele><time>2026-04-04T14:22:54.999Z</time></trkpt><trkpt lat="46.110277248816764" lon="13.402109186028122"><ele>131.0</ele><time>2026-04-04T14:22:55.999Z</time></trkpt><trkpt lat="46.110369662145004" lon="13.402362506812059"><ele>131.0</ele><time>2026-04-04T14:22:56.999Z</time></trkpt><trkpt lat="46.11046420851498" lon="13.4026288229417"><ele>131.0</ele><time>2026-04-04T14:22:57.999Z</time></trkpt><trkpt lat="46.11055062890981" lon="13.402887977491565"><ele>131.0</ele><time>2026-04-04T14:22:58.999Z</time></trkpt><trkpt lat="46.110637862597684" lon="13.403143402913146"><ele>131.0</ele><time>2026-04-04T14:22:59.999Z</time></trkpt><trkpt lat="46.1107233939805" lon="13.403394536387502"><ele>131.0</ele><time>2026-04-04T14:23:00.999Z</time></trkpt><trkpt lat="46.11080151807119" lon="13.40363941679485"><ele>131.0</ele><time>2026-04-04T14:23:01.999Z</time></trkpt><trkpt lat="46.11086819269208" lon="13.403880671743073"><ele>132.0</ele><time>2026-04-04T14:23:02.999Z</time></trkpt><trkpt lat="46.11092098885019" lon="13.404121592069885"><ele>133.0</ele><time>2026-04-04T14:23:03.999Z</time></trkpt><trkpt lat="46.110971536613874" lon="13.404362047321046"><ele>134.0</ele><time>2026-04-04T14:23:04.999Z</time></trkpt><trkpt lat="46.11101844255797" lon="13.40459240555024"><ele>134.0</ele><time>2026-04-04T14:23:05.999Z</time></trkpt><trkpt lat="46.111063005683214" lon="13.40481249103822"><ele>134.0</ele><time>2026-04-04T14:23:06.999Z</time></trkpt><trkpt lat="46.111107775016045" lon="13.405030730558405"><ele>134.0</ele><time>2026-04-04T14:23:07.999Z</time></trkpt><trkpt lat="46.11114809375552" lon="13.405247932779323"><ele>134.0</ele><time>2026-04-04T14:23:08.999Z</time></trkpt><trkpt lat="46.11118496555248" lon="13.405461778566313"><ele>134.0</ele><time>2026-04-04T14:23:09.999Z</time></trkpt><trkpt lat="46.111226027033666" lon="13.405682872561915"><ele>134.0</ele><time>2026-04-04T14:23:10.999Z</time></trkpt><trkpt lat="46.111270528482294" lon="13.405903017936566"><ele>134.0</ele><time>2026-04-04T14:23:11.999Z</time></trkpt><trkpt lat="46.11131158472682" lon="13.406117882766758"><ele>134.0</ele><time>2026-04-04T14:23:12.999Z</time></trkpt><trkpt lat="46.11135171081836" lon="13.406336133855067"><ele>134.0</ele><time>2026-04-04T14:23:13.999Z</time></trkpt><trkpt lat="46.11139389800177" lon="13.406557504255353"><ele>134.0</ele><time>2026-04-04T14:23:14.999Z</time></trkpt><trkpt lat="46.11143756058628" lon="13.40677813138867"><ele>134.0</ele><time>2026-04-04T14:23:15.999Z</time></trkpt><trkpt lat="46.11147794614761" lon="13.406997423001135"><ele>134.0</ele><time>2026-04-04T14:23:16.999Z</time></trkpt><trkpt lat="46.11151126080286" lon="13.407208261141603"><ele>134.0</ele><time>2026-04-04T14:23:17.999Z</time></trkpt><trkpt lat="46.111540028241215" lon="13.407399398532899"><ele>134.0</ele><time>2026-04-04T14:23:18.999Z</time></trkpt><trkpt lat="46.11156977874767" lon="13.407584956625353"><ele>134.0</ele><time>2026-04-04T14:23:19.999Z</time></trkpt><trkpt lat="46.11159869893606" lon="13.407763593237632"><ele>134.0</ele><time>2026-04-04T14:23:20.999Z</time></trkpt><trkpt lat="46.11162314846445" lon="13.407928807586263"><ele>134.75</ele><time>2026-04-04T14:23:21.999Z</time></trkpt><trkpt lat="46.111647752013205" lon="13.40809499229552"><ele>135.5</ele><time>2026-04-04T14:23:22.999Z</time></trkpt><trkpt lat="46.111667829268704" lon="13.408276344029453"><ele>136.25</ele><time>2026-04-04T14:23:23.999Z</time></trkpt><trkpt lat="46.11166072390137" lon="13.40847776306586"><ele>137.0</ele><time>2026-04-04T14:23:24.999Z</time></trkpt><trkpt lat="46.111621140184134" lon="13.408681862170608"><ele>136.75</ele><time>2026-04-04T14:23:25.999Z</time></trkpt><trkpt lat="46.11155656367047" lon="13.40886832205858"><ele>136.5</ele><time>2026-04-04T14:23:26.999Z</time></trkpt><trkpt lat="46.111462819273264" lon="13.409026768498283"><ele>136.25</ele><time>2026-04-04T14:23:27.999Z</time></trkpt><trkpt lat="46.1113473421183" lon="13.409148479315276"><ele>136.0</ele><time>2026-04-04T14:23:29Z</time></trkpt><trkpt lat="46.111212226808476" lon="13.409236872865165"><ele>136.0</ele><time>2026-04-04T14:23:30Z</time></trkpt><trkpt lat="46.11108264072259" lon="13.409316256073263"><ele>136.0</ele><time>2026-04-04T14:23:31Z</time></trkpt><trkpt lat="46.11097262788611" lon="13.409407884679602"><ele>136.0</ele><time>2026-04-04T14:23:32Z</time></trkpt><trkpt lat="46.11085864983155" lon="13.409484520163193"><ele>136.0</ele><time>2026-04-04T14:23:33Z</time></trkpt><trkpt lat="46.110778320790104" lon="13.409617183145468"><ele>135.5</ele><time>2026-04-04T14:23:34Z</time></trkpt><trkpt lat="46.110686938281304" lon="13.409724398950472"><ele>135.0</ele><time>2026-04-04T14:23:35Z</time></trkpt><trkpt lat="46.11063353163803" lon="13.409882080074215"><ele>134.5</ele><time>2026-04-04T14:23:36Z</time></trkpt><trkpt lat="46.110562959222186" lon="13.410044773669306"><ele>134.0</ele><time>2026-04-04T14:23:37Z</time></trkpt><trkpt lat="46.110517777391706" lon="13.410237412625296"><ele>134.0</ele><time>2026-04-04T14:23:38Z</time></trkpt><trkpt lat="46.1104932394704" lon="13.410430270149284"><ele>134.0</ele><time>2026-04-04T14:23:39Z</time></trkpt><trkpt lat="46.11045655783001" lon="13.410611851634556"><ele>134.0</ele><time>2026-04-04T14:23:40Z</time></trkpt><trkpt lat="46.110417385229205" lon="13.410788640312674"><ele>134.0</ele><time>2026-04-04T14:23:41Z</time></trkpt><trkpt lat="46.110381025047154" lon="13.410962824430978"><ele>134.25</ele><time>2026-04-04T14:23:42Z</time></trkpt><trkpt lat="46.11034915079458" lon="13.411130674319757"><ele>134.5</ele><time>2026-04-04T14:23:43Z</time></trkpt><trkpt lat="46.11031526667485" lon="13.411293349246195"><ele>134.75</ele><time>2026-04-04T14:23:44Z</time></trkpt><trkpt lat="46.11028120146785" lon="13.411456202105182"><ele>135.0</ele><time>2026-04-04T14:23:45Z</time></trkpt><trkpt lat="46.110244008385834" lon="13.41162563326505"><ele>135.25</ele><time>2026-04-04T14:23:46Z</time></trkpt><trkpt lat="46.11019548308528" lon="13.41180903730432"><ele>135.5</ele><time>2026-04-04T14:23:47Z</time></trkpt><trkpt lat="46.11013518517078" lon="13.41199156209757"><ele>135.75</ele><time>2026-04-04T14:23:48Z</time></trkpt><trkpt lat="46.11006014426181" lon="13.412172284420569"><ele>136.0</ele><time>2026-04-04T14:23:49Z</time></trkpt><trkpt lat="46.109967223627734" lon="13.412343139097757"><ele>136.0</ele><time>2026-04-04T14:23:50Z</time></trkpt><trkpt lat="46.109863078993406" lon="13.412508812340713"><ele>136.0</ele><time>2026-04-04T14:23:51Z</time></trkpt><trkpt lat="46.10974741943093" lon="13.412664308674627"><ele>136.0</ele><time>2026-04-04T14:23:52Z</time></trkpt><trkpt lat="46.10961391007164" lon="13.412802516068496"><ele>136.0</ele><time>2026-04-04T14:23:53Z</time></trkpt><trkpt lat="46.109464675890905" lon="13.412921469082567"><ele>136.0</ele><time>2026-04-04T14:23:54Z</time></trkpt><trkpt lat="46.10929770562168" lon="13.413016056899561"><ele>136.0</ele><time>2026-04-04T14:23:55Z</time></trkpt><trkpt lat="46.10911684356503" lon="13.413076614612937"><ele>136.66666666666669</ele><time>2026-04-04T14:23:56Z</time></trkpt><trkpt lat="46.108938545347044" lon="13.413156424262727"><ele>137.33333333333334</ele><time>2026-04-04T14:23:57Z</time></trkpt><trkpt lat="46.10876176190699" lon="13.413236511348481"><ele>138.0</ele><time>2026-04-04T14:23:58Z</time></trkpt><trkpt lat="46.10858716910028" lon="13.413317633052214"><ele>138.0</ele><time>2026-04-04T14:23:59Z</time></trkpt><trkpt lat="46.10841368475113" lon="13.413398239751432"><ele>138.0</ele><time>2026-04-04T14:24:00Z</time></trkpt><trkpt lat="46.10823852409746" lon="13.413481228390037"><ele>138.0</ele><time>2026-04-04T14:24:01Z</time></trkpt><trkpt lat="46.10806556380322" lon="13.413566090702506"><ele>137.33333333333334</ele><time>2026-04-04T14:24:02Z</time></trkpt><trkpt lat="46.1078952165889" lon="13.41366107415395"><ele>136.66666666666669</ele><time>2026-04-04T14:24:03Z</time></trkpt><trkpt lat="46.1077290703217" lon="13.4137582905854"><ele>136.0</ele><time>2026-04-04T14:24:04Z</time></trkpt><trkpt lat="46.107565586697426" lon="13.413858156821036"><ele>136.0</ele><time>2026-04-04T14:24:05Z</time></trkpt><trkpt lat="46.10741317369287" lon="13.413977045275866"><ele>136.0</ele><time>2026-04-04T14:24:06Z</time></trkpt><trkpt lat="46.10725593467598" lon="13.414074106897967"><ele>136.0</ele><time>2026-04-04T14:24:07Z</time></trkpt><trkpt lat="46.10709932517041" lon="13.414173796755122"><ele>135.33333333333334</ele><time>2026-04-04T14:24:08Z</time></trkpt><trkpt lat="46.10694269280242" lon="13.414274897608841"><ele>134.66666666666666</ele><time>2026-04-04T14:24:09Z</time></trkpt><trkpt lat="46.1067877471283" lon="13.414376489491838"><ele>134.0</ele><time>2026-04-04T14:24:10Z</time></trkpt><trkpt lat="46.106632945744295" lon="13.414478580806271"><ele>133.66666666666666</ele><time>2026-04-04T14:24:11Z</time></trkpt><trkpt lat="46.10648033734745" lon="13.414577421026623"><ele>133.33333333333334</ele><time>2026-04-04T14:24:12Z</time></trkpt><trkpt lat="46.10632910448887" lon="13.414675456820797"><ele>133.0</ele><time>2026-04-04T14:24:13Z</time></trkpt><trkpt lat="46.106180733260636" lon="13.414772234579488"><ele>133.0</ele><time>2026-04-04T14:24:14Z</time></trkpt><trkpt lat="46.106031244532325" lon="13.414870970081664"><ele>133.0</ele><time>2026-04-04T14:24:15Z</time></trkpt><trkpt lat="46.10587886267077" lon="13.41497568130231"><ele>133.0</ele><time>2026-04-04T14:24:16Z</time></trkpt><trkpt lat="46.1057262494588" lon="13.415074167451303"><ele>135.33333333333334</ele><time>2026-04-04T14:24:17Z</time></trkpt><trkpt lat="46.105565661485564" lon="13.415152067268103"><ele>137.66666666666666</ele><time>2026-04-04T14:24:18Z</time></trkpt><trkpt lat="46.10541988324948" lon="13.415273583315606"><ele>140.0</ele><time>2026-04-04T14:24:19Z</time></trkpt><trkpt lat="46.10526510832316" lon="13.415372501812877"><ele>140.0</ele><time>2026-04-04T14:24:20Z</time></trkpt><trkpt lat="46.10510335645034" lon="13.415450001296044"><ele>140.0</ele><time>2026-04-04T14:24:21Z</time></trkpt><trkpt lat="46.10494990248972" lon="13.415548672086311"><ele>140.0</ele><time>2026-04-04T14:24:22Z</time></trkpt><trkpt lat="46.10480480027236" lon="13.415666774021016"><ele>139.66666666666666</ele><time>2026-04-04T14:24:23Z</time></trkpt><trkpt lat="46.104652016060875" lon="13.41575972624445"><ele>139.33333333333334</ele><time>2026-04-04T14:24:24Z</time></trkpt><trkpt lat="46.10450108936936" lon="13.415855532786145"><ele>139.0</ele><time>2026-04-04T14:24:25Z</time></trkpt><trkpt lat="46.1043504144992" lon="13.41595024866097"><ele>139.0</ele><time>2026-04-04T14:24:26Z</time></trkpt><trkpt lat="46.10420278026808" lon="13.416046716393675"><ele>139.0</ele><time>2026-04-04T14:24:27Z</time></trkpt><trkpt lat="46.10404831759105" lon="13.41612057933327"><ele>139.0</ele><time>2026-04-04T14:24:28Z</time></trkpt><trkpt lat="46.103903207749916" lon="13.416209717516107"><ele>138.0</ele><time>2026-04-04T14:24:29Z</time></trkpt><trkpt lat="46.103766650498635" lon="13.416325576689982"><ele>137.0</ele><time>2026-04-04T14:24:30Z</time></trkpt><trkpt lat="46.10362492355795" lon="13.41641619805283"><ele>136.0</ele><time>2026-04-04T14:24:31Z</time></trkpt><trkpt lat="46.10348171105534" lon="13.416483776991182"><ele>136.0</ele><time>2026-04-04T14:24:32Z</time></trkpt><trkpt lat="46.103357271575234" lon="13.416600599109925"><ele>136.0</ele><time>2026-04-04T14:24:33Z</time></trkpt><trkpt lat="46.103234176615565" lon="13.416713104960706"><ele>136.0</ele><time>2026-04-04T14:24:34Z</time></trkpt><trkpt lat="46.10312574673503" lon="13.416835743276078"><ele>136.0</ele><time>2026-04-04T14:24:35Z</time></trkpt><trkpt lat="46.103017981287856" lon="13.416926075139745"><ele>135.75</ele><time>2026-04-04T14:24:36Z</time></trkpt><trkpt lat="46.10292622282579" lon="13.417052887055322"><ele>135.5</ele><time>2026-04-04T14:24:37Z</time></trkpt><trkpt lat="46.10281756971051" lon="13.417141937588532"><ele>135.25</ele><time>2026-04-04T14:24:38Z</time></trkpt><trkpt lat="46.102700495144504" lon="13.41720775640265"><ele>135.0</ele><time>2026-04-04T14:24:39Z</time></trkpt><trkpt lat="46.10257385303662" lon="13.417219121620269"><ele>135.0</ele><time>2026-04-04T14:24:40Z</time></trkpt><trkpt lat="46.10244643328909" lon="13.417237217336586"><ele>135.0</ele><time>2026-04-04T14:24:41Z</time></trkpt><trkpt lat="46.10231723454662" lon="13.417256878104938"><ele>135.0</ele><time>2026-04-04T14:24:42Z</time></trkpt><trkpt lat="46.102190883834034" lon="13.417297543516172"><ele>135.0</ele><time>2026-04-04T14:24:43Z</time></trkpt><trkpt lat="46.102065813482035" lon="13.41731473147469"><ele>134.75</ele><time>2026-04-04T14:24:43.999Z</time></trkpt><trkpt lat="46.10193813336616" lon="13.417314984096416"><ele>134.5</ele><time>2026-04-04T14:24:44.999Z</time></trkpt><trkpt lat="46.10181165113594" lon="13.41735670348174"><ele>134.25</ele><time>2026-04-04T14:24:45.999Z</time></trkpt><trkpt lat="46.1016988981725" lon="13.41744508799619"><ele>134.0</ele><time>2026-04-04T14:24:46.999Z</time></trkpt><trkpt lat="46.101583010391124" lon="13.417509588382675"><ele>133.5</ele><time>2026-04-04T14:24:47.999Z</time></trkpt><trkpt lat="46.101484333773044" lon="13.417611185835879"><ele>133.0</ele><time>2026-04-04T14:24:48.999Z</time></trkpt><trkpt lat="46.10138835159718" lon="13.417716623535012"><ele>132.5</ele><time>2026-04-04T14:24:49.999Z</time></trkpt><trkpt lat="46.10129213508195" lon="13.417826626745084"><ele>132.0</ele><time>2026-04-04T14:24:50.999Z</time></trkpt><trkpt lat="46.10119387996076" lon="13.41794344106064"><ele>132.75</ele><time>2026-04-04T14:24:51.999Z</time></trkpt><trkpt lat="46.1010929681213" lon="13.41806403755484"><ele>133.5</ele><time>2026-04-04T14:24:52.999Z</time></trkpt><trkpt lat="46.100989595291" lon="13.418187575008613"><ele>134.25</ele><time>2026-04-04T14:24:53.999Z</time></trkpt><trkpt lat="46.1008831168449" lon="13.418314824044607"><ele>135.0</ele><time>2026-04-04T14:24:54.999Z</time></trkpt><trkpt lat="46.10077652990603" lon="13.418442205783888"><ele>134.5</ele><time>2026-04-04T14:24:55.999Z</time></trkpt><trkpt lat="46.10067256301578" lon="13.418576076063369"><ele>134.0</ele><time>2026-04-04T14:24:56.999Z</time></trkpt><trkpt lat="46.10058294917797" lon="13.418732344357865"><ele>133.5</ele><time>2026-04-04T14:24:57.999Z</time></trkpt><trkpt lat="46.100471036487114" lon="13.418855124901809"><ele>133.0</ele><time>2026-04-04T14:24:58.999Z</time></trkpt><trkpt lat="46.100371475396" lon="13.41899449406051"><ele>133.0</ele><time>2026-04-04T14:24:59.999Z</time></trkpt><trkpt lat="46.10027024125688" lon="13.419139339727211"><ele>133.0</ele><time>2026-04-04T14:25:00.999Z</time></trkpt><trkpt lat="46.100165842565296" lon="13.419288713156693"><ele>133.0</ele><time>2026-04-04T14:25:01.999Z</time></trkpt><trkpt lat="46.10005800999393" lon="13.419442999811755"><ele>133.0</ele><time>2026-04-04T14:25:02.999Z</time></trkpt><trkpt lat="46.0999504568213" lon="13.419597727193272"><ele>133.0</ele><time>2026-04-04T14:25:03.999Z</time></trkpt><trkpt lat="46.099844009650624" lon="13.419754026258776"><ele>133.0</ele><time>2026-04-04T14:25:04.999Z</time></trkpt><trkpt lat="46.09973753607308" lon="13.419915538004366"><ele>133.0</ele><time>2026-04-04T14:25:05.999Z</time></trkpt><trkpt lat="46.099646220770516" lon="13.42009291027486"><ele>133.0</ele><time>2026-04-04T14:25:06.999Z</time></trkpt><trkpt lat="46.09957545997163" lon="13.420288904185531"><ele>133.0</ele><time>2026-04-04T14:25:07.999Z</time></trkpt><trkpt lat="46.099517045758894" lon="13.42048999579523"><ele>133.0</ele><time>2026-04-04T14:25:08.999Z</time></trkpt><trkpt lat="46.09946530357853" lon="13.42069542438536"><ele>133.5</ele><time>2026-04-04T14:25:09.999Z</time></trkpt><trkpt lat="46.099413963622276" lon="13.420898728970093"><ele>134.0</ele><time>2026-04-04T14:25:10.999Z</time></trkpt><trkpt lat="46.09936220812496" lon="13.42110035392774"><ele>134.5</ele><time>2026-04-04T14:25:11.999Z</time></trkpt><trkpt lat="46.09932327797775" lon="13.4213064953943"><ele>135.0</ele><time>2026-04-04T14:25:12.999Z</time></trkpt><trkpt lat="46.099261537696634" lon="13.421496617624474"><ele>135.0</ele><time>2026-04-04T14:25:13.999Z</time></trkpt><trkpt lat="46.099181370565" lon="13.421674897442736"><ele>135.0</ele><time>2026-04-04T14:25:14.999Z</time></trkpt><trkpt lat="46.099087320867824" lon="13.421836093824679"><ele>135.0</ele><time>2026-04-04T14:25:15.999Z</time></trkpt><trkpt lat="46.09900003194035" lon="13.421981196309737"><ele>135.0</ele><time>2026-04-04T14:25:16.999Z</time></trkpt><trkpt lat="46.09892055251347" lon="13.422119354537704"><ele>135.0</ele><time>2026-04-04T14:25:17.999Z</time></trkpt><trkpt lat="46.09883369231184" lon="13.42223457962346"><ele>135.0</ele><time>2026-04-04T14:25:18.999Z</time></trkpt><trkpt lat="46.09876139155433" lon="13.422356677914536"><ele>135.0</ele><time>2026-04-04T14:25:19.999Z</time></trkpt><trkpt lat="46.098694224519875" lon="13.42247010647934"><ele>135.0</ele><time>2026-04-04T14:25:20.999Z</time></trkpt><trkpt lat="46.09863499231451" lon="13.422570135128158"><ele>135.0</ele><time>2026-04-04T14:25:21.999Z</time></trkpt><trkpt lat="46.09857591524622" lon="13.422669901863179"><ele>135.0</ele><time>2026-04-04T14:25:22.999Z</time></trkpt><trkpt lat="46.09852636280351" lon="13.422788743732921"><ele>135.0</ele><time>2026-04-04T14:25:23.999Z</time></trkpt><trkpt lat="46.09846313632897" lon="13.422890344184298"><ele>135.0</ele><time>2026-04-04T14:25:24.999Z</time></trkpt><trkpt lat="46.0984083094555" lon="13.422990424501783"><ele>135.0</ele><time>2026-04-04T14:25:25.999Z</time></trkpt><trkpt lat="46.09834078694101" lon="13.423070682481407"><ele>135.0</ele><time>2026-04-04T14:25:26.999Z</time></trkpt><trkpt lat="46.098294241809626" lon="13.423184124705884"><ele>134.5</ele><time>2026-04-04T14:25:27.999Z</time></trkpt><trkpt lat="46.09823174064684" lon="13.423280843310845"><ele>134.0</ele><time>2026-04-04T14:25:28.999Z</time></trkpt><trkpt lat="46.09817832352143" lon="13.423372876186418"><ele>133.5</ele><time>2026-04-04T14:25:29.999Z</time></trkpt><trkpt lat="46.0981390640931" lon="13.423465441299882"><ele>133.0</ele><time>2026-04-04T14:25:30.999Z</time></trkpt><trkpt lat="46.098109296767184" lon="13.423564727218853"><ele>132.5</ele><time>2026-04-04T14:25:31.999Z</time></trkpt><trkpt lat="46.09809294924491" lon="13.423652431346213"><ele>132.0</ele><time>2026-04-04T14:25:32.999Z</time></trkpt><trkpt lat="46.09807782811809" lon="13.423741194413008"><ele>132.4</ele><time>2026-04-04T14:25:33.999Z</time></trkpt><trkpt lat="46.098024847635465" lon="13.423904030663582"><ele>132.79999999999998</ele><time>2026-04-04T14:25:36Z</time></trkpt><trkpt lat="46.09791448502815" lon="13.424010626852171"><ele>133.2</ele><time>2026-04-04T14:25:38Z</time></trkpt><trkpt lat="46.09784775897817" lon="13.424070675518072"><ele>133.6</ele><time>2026-04-04T14:25:39Z</time></trkpt><trkpt lat="46.097781613835004" lon="13.424142124927858"><ele>134.0</ele><time>2026-04-04T14:25:40Z</time></trkpt><trkpt lat="46.09769893195099" lon="13.424180764419336"><ele>134.0</ele><time>2026-04-04T14:25:41Z</time></trkpt><trkpt lat="46.09761046307246" lon="13.424194371975727"><ele>134.0</ele><time>2026-04-04T14:25:42Z</time></trkpt><trkpt lat="46.097519073695395" lon="13.424204890581292"><ele>134.0</ele><time>2026-04-04T14:25:43Z</time></trkpt><trkpt lat="46.09741811462202" lon="13.424211253644822"><ele>134.0</ele><time>2026-04-04T14:25:44Z</time></trkpt><trkpt lat="46.097311397156155" lon="13.42421979870436"><ele>134.0</ele><time>2026-04-04T14:25:45Z</time></trkpt><trkpt lat="46.09720054572228" lon="13.42422936164062"><ele>133.4</ele><time>2026-04-04T14:25:46Z</time></trkpt><trkpt lat="46.097086531794496" lon="13.424232833662497"><ele>132.8</ele><time>2026-04-04T14:25:47Z</time></trkpt><trkpt lat="46.09697317065447" lon="13.424240927640314"><ele>132.2</ele><time>2026-04-04T14:25:48Z</time></trkpt><trkpt lat="46.096863230126786" lon="13.424254550929842"><ele>131.6</ele><time>2026-04-04T14:25:49Z</time></trkpt><trkpt lat="46.096759746060066" lon="13.424241774781532"><ele>131.0</ele><time>2026-04-04T14:25:50Z</time></trkpt><trkpt lat="46.09666739147915" lon="13.424265981776907"><ele>131.0</ele><time>2026-04-04T14:25:51Z</time></trkpt><trkpt lat="46.09658312937972" lon="13.42427148779926"><ele>131.0</ele><time>2026-04-04T14:25:52Z</time></trkpt><trkpt lat="46.09650085323055" lon="13.42428252717863"><ele>131.0</ele><time>2026-04-04T14:25:53Z</time></trkpt><trkpt lat="46.096420708529024" lon="13.424292937686673"><ele>131.0</ele><time>2026-04-04T14:25:54Z</time></trkpt><trkpt lat="46.09634110269934" lon="13.424292601409155"><ele>131.0</ele><time>2026-04-04T14:25:55Z</time></trkpt><trkpt lat="46.09626522389432" lon="13.42429023834546"><ele>131.0</ele><time>2026-04-04T14:25:56Z</time></trkpt><trkpt lat="46.09619930003462" lon="13.42429407113089"><ele>131.0</ele><time>2026-04-04T14:25:57Z</time></trkpt><trkpt lat="46.09609810720293" lon="13.424300782771665"><ele>131.0</ele><time>2026-04-04T14:25:59Z</time></trkpt><trkpt lat="46.09601741999451" lon="13.424296307395297"><ele>131.0</ele><time>2026-04-04T14:26:06Z</time></trkpt><trkpt lat="46.09591536948819" lon="13.424260268508187"><ele>131.0</ele><time>2026-04-04T14:26:14Z</time></trkpt><trkpt lat="46.09584401469225" lon="13.42423921876651"><ele>131.0</ele><time>2026-04-04T14:26:15Z</time></trkpt><trkpt lat="46.09576454909751" lon="13.424251643929047"><ele>131.0</ele><time>2026-04-04T14:26:16Z</time></trkpt><trkpt lat="46.09569629647554" lon="13.424274861955674"><ele>131.2</ele><time>2026-04-04T14:26:17Z</time></trkpt><trkpt lat="46.09559533005907" lon="13.42432392640349"><ele>131.39999999999998</ele><time>2026-04-04T14:26:19Z</time></trkpt><trkpt lat="46.09551641669878" lon="13.424355841850693"><ele>131.6</ele><time>2026-04-04T14:26:21Z</time></trkpt><trkpt lat="46.0954377969213" lon="13.424370508163934"><ele>131.79999999999998</ele><time>2026-04-04T14:26:23Z</time></trkpt><trkpt lat="46.09531088324185" lon="13.42438115055924"><ele>132.0</ele><time>2026-04-04T14:26:25Z</time></trkpt><trkpt lat="46.09523281447063" lon="13.424385805299597"><ele>132.0</ele><time>2026-04-04T14:26:26Z</time></trkpt><trkpt lat="46.09516766273666" lon="13.42438934000434"><ele>132.0</ele><time>2026-04-04T14:26:27Z</time></trkpt><trkpt lat="46.0950496996021" lon="13.424386925697702"><ele>132.0</ele><time>2026-04-04T14:26:29Z</time></trkpt><trkpt lat="46.09492890139319" lon="13.42430925545091"><ele>132.0</ele><time>2026-04-04T14:26:31Z</time></trkpt><trkpt lat="46.094872009095155" lon="13.424207730498201"><ele>132.0</ele><time>2026-04-04T14:26:32Z</time></trkpt><trkpt lat="46.09482874185566" lon="13.42406678554755"><ele>132.0</ele><time>2026-04-04T14:26:33Z</time></trkpt><trkpt lat="46.09479980131598" lon="13.423876137837269"><ele>132.0</ele><time>2026-04-04T14:26:34Z</time></trkpt><trkpt lat="46.09475364390905" lon="13.423679085061842"><ele>132.0</ele><time>2026-04-04T14:26:35Z</time></trkpt><trkpt lat="46.09469353841489" lon="13.423482651911929"><ele>132.0</ele><time>2026-04-04T14:26:36Z</time></trkpt><trkpt lat="46.09463423106694" lon="13.423293965274576"><ele>132.0</ele><time>2026-04-04T14:26:37Z</time></trkpt><trkpt lat="46.09456875263945" lon="13.423113412249771"><ele>132.0</ele><time>2026-04-04T14:26:38Z</time></trkpt><trkpt lat="46.09449117239049" lon="13.422939733059431"><ele>132.0</ele><time>2026-04-04T14:26:39Z</time></trkpt><trkpt lat="46.094405484402955" lon="13.422765223981681"><ele>132.0</ele><time>2026-04-04T14:26:40Z</time></trkpt><trkpt lat="46.094316476028276" lon="13.422597110564093"><ele>132.0</ele><time>2026-04-04T14:26:41Z</time></trkpt><trkpt lat="46.09421255381203" lon="13.422444429444015"><ele>132.0</ele><time>2026-04-04T14:26:42Z</time></trkpt><trkpt lat="46.09410790404504" lon="13.422308477323778"><ele>132.0</ele><time>2026-04-04T14:26:42.999Z</time></trkpt><trkpt lat="46.09400109354974" lon="13.422180203833928"><ele>132.0</ele><time>2026-04-04T14:26:43.999Z</time></trkpt><trkpt lat="46.09388848459353" lon="13.422059895486006"><ele>132.25</ele><time>2026-04-04T14:26:44.999Z</time></trkpt><trkpt lat="46.093771126166274" lon="13.421940914712494"><ele>132.5</ele><time>2026-04-04T14:26:45.999Z</time></trkpt><trkpt lat="46.093656093100044" lon="13.421818452434703"><ele>132.75</ele><time>2026-04-04T14:26:46.999Z</time></trkpt><trkpt lat="46.093538222057425" lon="13.421695541133124"><ele>133.0</ele><time>2026-04-04T14:26:47.999Z</time></trkpt><trkpt lat="46.093420068163624" lon="13.42157113666914"><ele>133.0</ele><time>2026-04-04T14:26:48.999Z</time></trkpt><trkpt lat="46.09330159415551" lon="13.421445124965103"><ele>133.0</ele><time>2026-04-04T14:26:49.999Z</time></trkpt><trkpt lat="46.09318104559217" lon="13.421323178516287"><ele>133.0</ele><time>2026-04-04T14:26:50.999Z</time></trkpt><trkpt lat="46.09306203216179" lon="13.421200019123008"><ele>133.0</ele><time>2026-04-04T14:26:51.999Z</time></trkpt><trkpt lat="46.09294282214288" lon="13.421077312263415"><ele>133.25</ele><time>2026-04-04T14:26:52.999Z</time></trkpt><trkpt lat="46.092821012703794" lon="13.420955990205238"><ele>133.5</ele><time>2026-04-04T14:26:53.999Z</time></trkpt><trkpt lat="46.09270090214145" lon="13.420835605529494"><ele>133.75</ele><time>2026-04-04T14:26:54.999Z</time></trkpt><trkpt lat="46.09258284588042" lon="13.420712948499478"><ele>134.0</ele><time>2026-04-04T14:26:55.999Z</time></trkpt><trkpt lat="46.09246539134701" lon="13.42059047065213"><ele>132.75</ele><time>2026-04-04T14:26:56.999Z</time></trkpt><trkpt lat="46.09234702578899" lon="13.420471106798379"><ele>131.5</ele><time>2026-04-04T14:26:57.999Z</time></trkpt><trkpt lat="46.092229780885596" lon="13.420351707078892"><ele>130.25</ele><time>2026-04-04T14:26:58.999Z</time></trkpt><trkpt lat="46.0921132626967" lon="13.420230028982559"><ele>129.0</ele><time>2026-04-04T14:26:59.999Z</time></trkpt><trkpt lat="46.092004385681825" lon="13.420113122408878"><ele>129.0</ele><time>2026-04-04T14:27:00.999Z</time></trkpt><trkpt lat="46.091915814674955" lon="13.420002741811697"><ele>129.0</ele><time>2026-04-04T14:27:01.999Z</time></trkpt><trkpt lat="46.091847201334446" lon="13.419892565851962"><ele>129.0</ele><time>2026-04-04T14:27:02.999Z</time></trkpt><trkpt lat="46.091798104079835" lon="13.419784907524727"><ele>129.0</ele><time>2026-04-04T14:27:03.999Z</time></trkpt><trkpt lat="46.09176572538098" lon="13.41967562147587"><ele>129.0</ele><time>2026-04-04T14:27:04.999Z</time></trkpt><trkpt lat="46.09174485001851" lon="13.419559635820278"><ele>129.16666666666666</ele><time>2026-04-04T14:27:05.999Z</time></trkpt><trkpt lat="46.09170766349624" lon="13.419469153932855"><ele>129.33333333333334</ele><time>2026-04-04T14:27:06.999Z</time></trkpt><trkpt lat="46.09164602994371" lon="13.419405673657183"><ele>129.5</ele><time>2026-04-04T14:27:07.999Z</time></trkpt><trkpt lat="46.09156839352256" lon="13.41939887415784"><ele>129.66666666666669</ele><time>2026-04-04T14:27:08.999Z</time></trkpt><trkpt lat="46.09148853223137" lon="13.4194337506237"><ele>129.83333333333334</ele><time>2026-04-04T14:27:09.999Z</time></trkpt><trkpt lat="46.09140852935769" lon="13.41946009740022"><ele>130.0</ele><time>2026-04-04T14:27:10.999Z</time></trkpt><trkpt lat="46.09132089249738" lon="13.419418862636487"><ele>129.33333333333334</ele><time>2026-04-04T14:27:11.999Z</time></trkpt><trkpt lat="46.09121620518292" lon="13.419329478880195"><ele>128.66666666666666</ele><time>2026-04-04T14:27:12.999Z</time></trkpt><trkpt lat="46.091077679288674" lon="13.419205088744922"><ele>128.0</ele><time>2026-04-04T14:27:13.999Z</time></trkpt><trkpt lat="46.09092281289628" lon="13.419082541819202"><ele>128.0</ele><time>2026-04-04T14:27:14.999Z</time></trkpt><trkpt lat="46.09076043295254" lon="13.418947132060303"><ele>128.0</ele><time>2026-04-04T14:27:15.999Z</time></trkpt><trkpt lat="46.09059505576701" lon="13.418800245514687"><ele>128.0</ele><time>2026-04-04T14:27:16.999Z</time></trkpt><trkpt lat="46.090432422430716" lon="13.418661773205555"><ele>128.66666666666666</ele><time>2026-04-04T14:27:17.999Z</time></trkpt><trkpt lat="46.09027329589608" lon="13.418529988579706"><ele>129.33333333333334</ele><time>2026-04-04T14:27:18.999Z</time></trkpt><trkpt lat="46.090116957592144" lon="13.418399485736455"><ele>130.0</ele><time>2026-04-04T14:27:19.999Z</time></trkpt><trkpt lat="46.08996304139827" lon="13.418268761224521"><ele>129.33333333333334</ele><time>2026-04-04T14:27:20.999Z</time></trkpt><trkpt lat="46.089808825687605" lon="13.418139597127347"><ele>128.66666666666666</ele><time>2026-04-04T14:27:21.999Z</time></trkpt><trkpt lat="46.08965621748501" lon="13.418012820107505"><ele>128.0</ele><time>2026-04-04T14:27:22.999Z</time></trkpt><trkpt lat="46.08950777976586" lon="13.41788937943351"><ele>128.0</ele><time>2026-04-04T14:27:23.999Z</time></trkpt><trkpt lat="46.08936372993551" lon="13.41776610167738"><ele>128.0</ele><time>2026-04-04T14:27:24.999Z</time></trkpt><trkpt lat="46.089225945693386" lon="13.417643461308591"><ele>128.0</ele><time>2026-04-04T14:27:25.999Z</time></trkpt><trkpt lat="46.08908509576454" lon="13.41753403522943"><ele>128.33333333333331</ele><time>2026-04-04T14:27:26.999Z</time></trkpt><trkpt lat="46.088942272095224" lon="13.41743208853143"><ele>128.66666666666666</ele><time>2026-04-04T14:27:27.999Z</time></trkpt><trkpt lat="46.088798871783304" lon="13.417326995916138"><ele>129.0</ele><time>2026-04-04T14:27:28.999Z</time></trkpt><trkpt lat="46.088651386016934" lon="13.417218148762059"><ele>129.33333333333334</ele><time>2026-04-04T14:27:29.999Z</time></trkpt><trkpt lat="46.08849165193396" lon="13.417109470869317"><ele>129.66666666666669</ele><time>2026-04-04T14:27:30.999Z</time></trkpt><trkpt lat="46.088312467588146" lon="13.417019373004262"><ele>130.0</ele><time>2026-04-04T14:27:31.999Z</time></trkpt><trkpt lat="46.088110627454185" lon="13.41694824856262"><ele>128.5</ele><time>2026-04-04T14:27:32.999Z</time></trkpt><trkpt lat="46.08789248998212" lon="13.416870452727279"><ele>127.0</ele><time>2026-04-04T14:27:33.999Z</time></trkpt><trkpt lat="46.08766108100345" lon="13.416779464822525"><ele>126.0</ele><time>2026-04-04T14:27:34.999Z</time></trkpt><trkpt lat="46.08742022420746" lon="13.416688507231465"><ele>125.0</ele><time>2026-04-04T14:27:35.999Z</time></trkpt><trkpt lat="46.0871754575945" lon="13.416602539175"><ele>125.0</ele><time>2026-04-04T14:27:36.999Z</time></trkpt><trkpt lat="46.08694016485024" lon="13.416517699533403"><ele>125.0</ele><time>2026-04-04T14:27:37.999Z</time></trkpt><trkpt lat="46.08671369442602" lon="13.416425088855652"><ele>125.0</ele><time>2026-04-04T14:27:38.999Z</time></trkpt><trkpt lat="46.08649799973815" lon="13.41630787434223"><ele>125.0</ele><time>2026-04-04T14:27:39.999Z</time></trkpt><trkpt lat="46.08628565178522" lon="13.416144024493397"><ele>125.0</ele><time>2026-04-04T14:27:41Z</time></trkpt><trkpt lat="46.086066854867525" lon="13.415951999469275"><ele>125.0</ele><time>2026-04-04T14:27:42Z</time></trkpt><trkpt lat="46.08583975618686" lon="13.415756338294646"><ele>123.5</ele><time>2026-04-04T14:27:43Z</time></trkpt><trkpt lat="46.08561009107169" lon="13.415555038083802"><ele>122.0</ele><time>2026-04-04T14:27:44Z</time></trkpt><trkpt lat="46.085378389056075" lon="13.41534678097531"><ele>122.0</ele><time>2026-04-04T14:27:45Z</time></trkpt><trkpt lat="46.08514559257702" lon="13.41513206297903"><ele>122.0</ele><time>2026-04-04T14:27:46Z</time></trkpt><trkpt lat="46.084916075545806" lon="13.414908896977309"><ele>121.5</ele><time>2026-04-04T14:27:47Z</time></trkpt><trkpt lat="46.0846941351575" lon="13.414675684735922"><ele>121.0</ele><time>2026-04-04T14:27:48Z</time></trkpt><trkpt lat="46.08447517205718" lon="13.414439767448094"><ele>121.0</ele><time>2026-04-04T14:27:49Z</time></trkpt><trkpt lat="46.084262244431564" lon="13.41420518592548"><ele>121.0</ele><time>2026-04-04T14:27:50Z</time></trkpt><trkpt lat="46.08405578708765" lon="13.413980476682882"><ele>121.0</ele><time>2026-04-04T14:27:51Z</time></trkpt><trkpt lat="46.08385094272409" lon="13.41376212914489"><ele>121.0</ele><time>2026-04-04T14:27:52Z</time></trkpt><trkpt lat="46.08364473894641" lon="13.413538795360404"><ele>121.0</ele><time>2026-04-04T14:27:53Z</time></trkpt><trkpt lat="46.083439448729294" lon="13.413308183421764"><ele>121.0</ele><time>2026-04-04T14:27:54Z</time></trkpt><trkpt lat="46.083234812182326" lon="13.413075223454278"><ele>123.0</ele><time>2026-04-04T14:27:55Z</time></trkpt><trkpt lat="46.08303031005329" lon="13.41284273562753"><ele>125.0</ele><time>2026-04-04T14:27:56Z</time></trkpt><trkpt lat="46.08282607680082" lon="13.41261448245318"><ele>125.0</ele><time>2026-04-04T14:27:57Z</time></trkpt><trkpt lat="46.08262240525198" lon="13.412390655109947"><ele>125.0</ele><time>2026-04-04T14:27:58Z</time></trkpt><trkpt lat="46.082420761455495" lon="13.412170938612508"><ele>123.5</ele><time>2026-04-04T14:27:59Z</time></trkpt><trkpt lat="46.082221039520164" lon="13.411952693893003"><ele>122.0</ele><time>2026-04-04T14:28:00Z</time></trkpt><trkpt lat="46.08202681344742" lon="13.41173113154346"><ele>122.0</ele><time>2026-04-04T14:28:01Z</time></trkpt><trkpt lat="46.08184266117209" lon="13.411495025729119"><ele>122.0</ele><time>2026-04-04T14:28:02Z</time></trkpt><trkpt lat="46.0816713824406" lon="13.411237575109464"><ele>122.0</ele><time>2026-04-04T14:28:03Z</time></trkpt><trkpt lat="46.081504075530034" lon="13.410963143898659"><ele>122.0</ele><time>2026-04-04T14:28:04Z</time></trkpt><trkpt lat="46.08134000339306" lon="13.410681869086694"><ele>121.5</ele><time>2026-04-04T14:28:05Z</time></trkpt><trkpt lat="46.08117589824281" lon="13.410401534194751"><ele>121.0</ele><time>2026-04-04T14:28:06Z</time></trkpt><trkpt lat="46.081015015255964" lon="13.410123761889139"><ele>121.0</ele><time>2026-04-04T14:28:07Z</time></trkpt><trkpt lat="46.08085600875181" lon="13.409848439126307"><ele>121.0</ele><time>2026-04-04T14:28:08Z</time></trkpt><trkpt lat="46.080705056785476" lon="13.409575248067446"><ele>122.5</ele><time>2026-04-04T14:28:09Z</time></trkpt><trkpt lat="46.08055554133121" lon="13.40930345994324"><ele>124.0</ele><time>2026-04-04T14:28:10Z</time></trkpt><trkpt lat="46.08041044808506" lon="13.409035313483349"><ele>123.33333333333334</ele><time>2026-04-04T14:28:11Z</time></trkpt><trkpt lat="46.080273430762766" lon="13.408774810386754"><ele>122.66666666666666</ele><time>2026-04-04T14:28:12Z</time></trkpt><trkpt lat="46.08014028923708" lon="13.408519157476997"><ele>122.0</ele><time>2026-04-04T14:28:13Z</time></trkpt><trkpt lat="46.080011110615466" lon="13.40826707639497"><ele>122.0</ele><time>2026-04-04T14:28:14Z</time></trkpt><trkpt lat="46.07988622171033" lon="13.408017781112312"><ele>122.0</ele><time>2026-04-04T14:28:15Z</time></trkpt><trkpt lat="46.07976393587775" lon="13.407770537612015"><ele>122.0</ele><time>2026-04-04T14:28:16Z</time></trkpt><trkpt lat="46.079640659346744" lon="13.407524069610282"><ele>122.0</ele><time>2026-04-04T14:28:17Z</time></trkpt><trkpt lat="46.07951431848062" lon="13.407274814581031"><ele>122.0</ele><time>2026-04-04T14:28:18Z</time></trkpt><trkpt lat="46.0793791686277" lon="13.407019807492834"><ele>122.0</ele><time>2026-04-04T14:28:19Z</time></trkpt><trkpt lat="46.07924052098388" lon="13.40676273094127"><ele>120.5</ele><time>2026-04-04T14:28:20Z</time></trkpt><trkpt lat="46.079095057726555" lon="13.406505357377155"><ele>119.0</ele><time>2026-04-04T14:28:21Z</time></trkpt><trkpt lat="46.078947325953315" lon="13.406251870391662"><ele>118.5</ele><time>2026-04-04T14:28:22Z</time></trkpt><trkpt lat="46.078792970946395" lon="13.406002729591783"><ele>118.0</ele><time>2026-04-04T14:28:23Z</time></trkpt><trkpt lat="46.07863195699824" lon="13.405759669351072"><ele>118.0</ele><time>2026-04-04T14:28:24Z</time></trkpt><trkpt lat="46.078463024422696" lon="13.405526424920032"><ele>118.0</ele><time>2026-04-04T14:28:25Z</time></trkpt><trkpt lat="46.07828415351719" lon="13.405297839816624"><ele>117.5</ele><time>2026-04-04T14:28:26Z</time></trkpt><trkpt lat="46.07810302425308" lon="13.405071121368712"><ele>117.0</ele><time>2026-04-04T14:28:27Z</time></trkpt><trkpt lat="46.077933482189174" lon="13.404822323832308"><ele>116.5</ele><time>2026-04-04T14:28:28Z</time></trkpt><trkpt lat="46.077755010499665" lon="13.404591314235793"><ele>116.0</ele><time>2026-04-04T14:28:29Z</time></trkpt><trkpt lat="46.07757273886476" lon="13.404369877222912"><ele>116.5</ele><time>2026-04-04T14:28:30Z</time></trkpt><trkpt lat="46.077234078392095" lon="13.404384526699692"><ele>117.0</ele><time>2026-04-04T14:28:31Z</time></trkpt><trkpt lat="46.07698240515179" lon="13.404237429508324"><ele>117.0</ele><time>2026-04-04T14:28:32Z</time></trkpt><trkpt lat="46.076724713059434" lon="13.404076036332732"><ele>117.0</ele><time>2026-04-04T14:28:33Z</time></trkpt><trkpt lat="46.076462142962576" lon="13.40391179074788"><ele>118.5</ele><time>2026-04-04T14:28:34Z</time></trkpt><trkpt lat="46.07619456149174" lon="13.403742081223953"><ele>120.0</ele><time>2026-04-04T14:28:35Z</time></trkpt><trkpt lat="46.07592879556634" lon="13.403557823644986"><ele>118.5</ele><time>2026-04-04T14:28:36Z</time></trkpt><trkpt lat="46.075676231586144" lon="13.403337867760706"><ele>117.0</ele><time>2026-04-04T14:28:37Z</time></trkpt><trkpt lat="46.075440119285304" lon="13.403083241475406"><ele>117.0</ele><time>2026-04-04T14:28:38Z</time></trkpt><trkpt lat="46.07520650948486" lon="13.402819883920461"><ele>117.0</ele><time>2026-04-04T14:28:39Z</time></trkpt><trkpt lat="46.0749682184835" lon="13.40256169614643"><ele>117.0</ele><time>2026-04-04T14:28:40Z</time></trkpt><trkpt lat="46.07472132193647" lon="13.4023187812684"><ele>117.0</ele><time>2026-04-04T14:28:41Z</time></trkpt><trkpt lat="46.07446109849319" lon="13.402105291601945"><ele>117.0</ele><time>2026-04-04T14:28:42Z</time></trkpt><trkpt lat="46.07418038946091" lon="13.401942987026194"><ele>117.0</ele><time>2026-04-04T14:28:42.999Z</time></trkpt><trkpt lat="46.07389613904954" lon="13.401781607991484"><ele>117.0</ele><time>2026-04-04T14:28:43.999Z</time></trkpt><trkpt lat="46.073620276877286" lon="13.401602979731484"><ele>117.0</ele><time>2026-04-04T14:28:44.999Z</time></trkpt><trkpt lat="46.07335976526143" lon="13.40142213046653"><ele>115.5</ele><time>2026-04-04T14:28:45.999Z</time></trkpt><trkpt lat="46.07311462315616" lon="13.401235880418099"><ele>114.0</ele><time>2026-04-04T14:28:46.999Z</time></trkpt><trkpt lat="46.07288552339687" lon="13.40105255381065"><ele>114.0</ele><time>2026-04-04T14:28:47.999Z</time></trkpt><trkpt lat="46.07266516576836" lon="13.40088382715464"><ele>114.0</ele><time>2026-04-04T14:28:48.999Z</time></trkpt><trkpt lat="46.07245702173334" lon="13.400729468612933"><ele>114.0</ele><time>2026-04-04T14:28:49.999Z</time></trkpt><trkpt lat="46.072261221931754" lon="13.400579637289725"><ele>114.0</ele><time>2026-04-04T14:28:50.999Z</time></trkpt><trkpt lat="46.072070648214606" lon="13.400427016374017"><ele>114.0</ele><time>2026-04-04T14:28:51.999Z</time></trkpt><trkpt lat="46.07188215380239" lon="13.400274345012706"><ele>114.0</ele><time>2026-04-04T14:28:52.999Z</time></trkpt><trkpt lat="46.07169330348182" lon="13.40012327845472"><ele>114.0</ele><time>2026-04-04T14:28:53.999Z</time></trkpt><trkpt lat="46.071506397475765" lon="13.399975698407054"><ele>114.0</ele><time>2026-04-04T14:28:54.999Z</time></trkpt><trkpt lat="46.07132015410495" lon="13.399831049888663"><ele>114.0</ele><time>2026-04-04T14:28:55.999Z</time></trkpt><trkpt lat="46.0711372151948" lon="13.399692431481018"><ele>114.0</ele><time>2026-04-04T14:28:56.999Z</time></trkpt><trkpt lat="46.07095873601384" lon="13.39955700420076"><ele>114.0</ele><time>2026-04-04T14:28:57.999Z</time></trkpt><trkpt lat="46.07078366014468" lon="13.399419632861173"><ele>114.33333333333334</ele><time>2026-04-04T14:28:58.999Z</time></trkpt><trkpt lat="46.07060861768216" lon="13.399277495664508"><ele>114.66666666666667</ele><time>2026-04-04T14:28:59.999Z</time></trkpt><trkpt lat="46.070433747154624" lon="13.399138494941912"><ele>115.0</ele><time>2026-04-04T14:29:00.999Z</time></trkpt><trkpt lat="46.07026149677976" lon="13.39900989731548"><ele>115.0</ele><time>2026-04-04T14:29:01.999Z</time></trkpt><trkpt lat="46.07009632937091" lon="13.398903370189418"><ele>115.0</ele><time>2026-04-04T14:29:02.999Z</time></trkpt><trkpt lat="46.06993647235064" lon="13.398818929534247"><ele>115.0</ele><time>2026-04-04T14:29:03.999Z</time></trkpt><trkpt lat="46.06976929227121" lon="13.398739758072177"><ele>115.0</ele><time>2026-04-04T14:29:04.999Z</time></trkpt><trkpt lat="46.06961941603514" lon="13.398670750030696"><ele>115.0</ele><time>2026-04-04T14:29:05.999Z</time></trkpt><trkpt lat="46.06947075619254" lon="13.398596795463838"><ele>115.0</ele><time>2026-04-04T14:29:06.999Z</time></trkpt><trkpt lat="46.06930898073257" lon="13.398514208557987"><ele>115.0</ele><time>2026-04-04T14:29:07.999Z</time></trkpt><trkpt lat="46.069142968795035" lon="13.398437302340595"><ele>115.0</ele><time>2026-04-04T14:29:08.999Z</time></trkpt><trkpt lat="46.06897624267327" lon="13.3983672279123"><ele>115.0</ele><time>2026-04-04T14:29:09.999Z</time></trkpt><trkpt lat="46.06881543854994" lon="13.398298310327533"><ele>115.0</ele><time>2026-04-04T14:29:10.999Z</time></trkpt><trkpt lat="46.06865804160639" lon="13.398234050148806"><ele>115.0</ele><time>2026-04-04T14:29:11.999Z</time></trkpt><trkpt lat="46.068500466046814" lon="13.398177144915321"><ele>115.0</ele><time>2026-04-04T14:29:12.999Z</time></trkpt><trkpt lat="46.06834546412879" lon="13.398125748068635"><ele>115.33333333333334</ele><time>2026-04-04T14:29:13.999Z</time></trkpt><trkpt lat="46.068192572320896" lon="13.398074431708462"><ele>115.66666666666666</ele><time>2026-04-04T14:29:14.999Z</time></trkpt><trkpt lat="46.068038725123785" lon="13.398024062367776"><ele>116.0</ele><time>2026-04-04T14:29:15.999Z</time></trkpt><trkpt lat="46.06788659605876" lon="13.397974790708204"><ele>116.0</ele><time>2026-04-04T14:29:16.999Z</time></trkpt><trkpt lat="46.067734864958815" lon="13.397922659470055"><ele>116.0</ele><time>2026-04-04T14:29:17.999Z</time></trkpt><trkpt lat="46.06758215541145" lon="13.397873950470489"><ele>116.0</ele><time>2026-04-04T14:29:18.999Z</time></trkpt><trkpt lat="46.067431067841554" lon="13.397825982096702"><ele>115.0</ele><time>2026-04-04T14:29:19.999Z</time></trkpt><trkpt lat="46.06727795264009" lon="13.397776998121435"><ele>114.0</ele><time>2026-04-04T14:29:20.999Z</time></trkpt><trkpt lat="46.06712199340275" lon="13.397726729373135"><ele>113.0</ele><time>2026-04-04T14:29:21.999Z</time></trkpt><trkpt lat="46.06696523580577" lon="13.397675724289147"><ele>113.0</ele><time>2026-04-04T14:29:22.999Z</time></trkpt><trkpt lat="46.066808222445445" lon="13.3976174423647"><ele>113.0</ele><time>2026-04-04T14:29:23.999Z</time></trkpt><trkpt lat="46.06664847659816" lon="13.397560968592922"><ele>113.0</ele><time>2026-04-04T14:29:24.999Z</time></trkpt><trkpt lat="46.06648798052684" lon="13.39751327391199"><ele>113.0</ele><time>2026-04-04T14:29:25.999Z</time></trkpt><trkpt lat="46.066326382391566" lon="13.397463048459826"><ele>113.0</ele><time>2026-04-04T14:29:26.999Z</time></trkpt><trkpt lat="46.06616412689434" lon="13.397409223537375"><ele>113.0</ele><time>2026-04-04T14:29:27.999Z</time></trkpt><trkpt lat="46.06600587101886" lon="13.39736163568266"><ele>113.0</ele><time>2026-04-04T14:29:28.999Z</time></trkpt><trkpt lat="46.06584766173179" lon="13.397312921047504"><ele>113.0</ele><time>2026-04-04T14:29:29.999Z</time></trkpt><trkpt lat="46.065689272233406" lon="13.39726136675387"><ele>113.0</ele><time>2026-04-04T14:29:30.999Z</time></trkpt><trkpt lat="46.06553050875535" lon="13.397208694025167"><ele>113.33333333333333</ele><time>2026-04-04T14:29:31.999Z</time></trkpt><trkpt lat="46.06537053231658" lon="13.397158093696255"><ele>113.66666666666666</ele><time>2026-04-04T14:29:32.999Z</time></trkpt><trkpt lat="46.065207132381275" lon="13.397106740061425"><ele>114.0</ele><time>2026-04-04T14:29:33.999Z</time></trkpt><trkpt lat="46.06504279009068" lon="13.39705311590311"><ele>113.66666666666666</ele><time>2026-04-04T14:29:34.999Z</time></trkpt><trkpt lat="46.064880420622785" lon="13.396994413736639"><ele>113.33333333333333</ele><time>2026-04-04T14:29:35.999Z</time></trkpt><trkpt lat="46.064718881306995" lon="13.396939204072492"><ele>113.0</ele><time>2026-04-04T14:29:36.999Z</time></trkpt><trkpt lat="46.06455951339359" lon="13.396882835889807"><ele>113.0</ele><time>2026-04-04T14:29:37.999Z</time></trkpt><trkpt lat="46.06440178251964" lon="13.396821594208667"><ele>113.0</ele><time>2026-04-04T14:29:38.999Z</time></trkpt><trkpt lat="46.06424339893346" lon="13.396756352068289"><ele>113.0</ele><time>2026-04-04T14:29:39.999Z</time></trkpt><trkpt lat="46.06408900154347" lon="13.39668997971404"><ele>113.33333333333333</ele><time>2026-04-04T14:29:40.999Z</time></trkpt><trkpt lat="46.06393437222998" lon="13.396626679651423"><ele>113.66666666666666</ele><time>2026-04-04T14:29:41.999Z</time></trkpt><trkpt lat="46.063782488681525" lon="13.396558445206898"><ele>114.0</ele><time>2026-04-04T14:29:42.999Z</time></trkpt><trkpt lat="46.063632210224085" lon="13.396481369995861"><ele>114.0</ele><time>2026-04-04T14:29:43.999Z</time></trkpt><trkpt lat="46.06348388255911" lon="13.396399345046394"><ele>114.0</ele><time>2026-04-04T14:29:44.999Z</time></trkpt><trkpt lat="46.06333621102445" lon="13.396319237440636"><ele>114.0</ele><time>2026-04-04T14:29:45.999Z</time></trkpt><trkpt lat="46.063188818552604" lon="13.396236178505406"><ele>113.33333333333334</ele><time>2026-04-04T14:29:47Z</time></trkpt><trkpt lat="46.063043496801804" lon="13.396155460919685"><ele>112.66666666666667</ele><time>2026-04-04T14:29:48Z</time></trkpt><trkpt lat="46.06289789563757" lon="13.396073957658153"><ele>112.0</ele><time>2026-04-04T14:29:49Z</time></trkpt><trkpt lat="46.062755742051685" lon="13.395991559000782"><ele>112.0</ele><time>2026-04-04T14:29:50Z</time></trkpt><trkpt lat="46.06261402257643" lon="13.39590944867756"><ele>112.0</ele><time>2026-04-04T14:29:51Z</time></trkpt><trkpt lat="46.062471441624254" lon="13.395827082889614"><ele>112.0</ele><time>2026-04-04T14:29:52Z</time></trkpt><trkpt lat="46.06233146056878" lon="13.39574590542053"><ele>112.33333333333334</ele><time>2026-04-04T14:29:53Z</time></trkpt><trkpt lat="46.0621894247566" lon="13.395665322005971"><ele>112.66666666666666</ele><time>2026-04-04T14:29:54Z</time></trkpt><trkpt lat="46.06204636852867" lon="13.395582653800014"><ele>113.0</ele><time>2026-04-04T14:29:55Z</time></trkpt><trkpt lat="46.06190307856301" lon="13.395497436760476"><ele>113.0</ele><time>2026-04-04T14:29:56Z</time></trkpt><trkpt lat="46.06176015739805" lon="13.395415738933618"><ele>113.0</ele><time>2026-04-04T14:29:57Z</time></trkpt><trkpt lat="46.06161653690986" lon="13.395335284262828"><ele>113.0</ele><time>2026-04-04T14:29:58Z</time></trkpt><trkpt lat="46.06147607376808" lon="13.395253190378975"><ele>112.75</ele><time>2026-04-04T14:29:59Z</time></trkpt><trkpt lat="46.06133985437337" lon="13.395168604103702"><ele>112.5</ele><time>2026-04-04T14:30:00Z</time></trkpt><trkpt lat="46.06120214243388" lon="13.395091525173386"><ele>112.25</ele><time>2026-04-04T14:30:01Z</time></trkpt><trkpt lat="46.06106465286987" lon="13.395014038234166"><ele>112.0</ele><time>2026-04-04T14:30:02Z</time></trkpt><trkpt lat="46.060929072899874" lon="13.394932412472029"><ele>112.0</ele><time>2026-04-04T14:30:03Z</time></trkpt><trkpt lat="46.06079122643716" lon="13.394851557875509"><ele>112.0</ele><time>2026-04-04T14:30:04Z</time></trkpt><trkpt lat="46.06064915737097" lon="13.394779034745156"><ele>112.0</ele><time>2026-04-04T14:30:05Z</time></trkpt><trkpt lat="46.06050804910185" lon="13.394710435555474"><ele>112.0</ele><time>2026-04-04T14:30:06Z</time></trkpt><trkpt lat="46.060369403949544" lon="13.394645203023105"><ele>112.0</ele><time>2026-04-04T14:30:07Z</time></trkpt><trkpt lat="46.06023017427667" lon="13.394588177785229"><ele>112.0</ele><time>2026-04-04T14:30:08Z</time></trkpt><trkpt lat="46.06009443857381" lon="13.394525170469946"><ele>112.0</ele><time>2026-04-04T14:30:09Z</time></trkpt><trkpt lat="46.0599586466806" lon="13.394466314129685"><ele>112.0</ele><time>2026-04-04T14:30:10Z</time></trkpt><trkpt lat="46.05982857867487" lon="13.39439232325353"><ele>112.0</ele><time>2026-04-04T14:30:11Z</time></trkpt><trkpt lat="46.0596848779092" lon="13.394385800493165"><ele>112.0</ele><time>2026-04-04T14:30:12Z</time></trkpt><trkpt lat="46.05954295572415" lon="13.394362019046394"><ele>112.0</ele><time>2026-04-04T14:30:13Z</time></trkpt><trkpt lat="46.05939948893764" lon="13.394342344609775"><ele>112.0</ele><time>2026-04-04T14:30:14Z</time></trkpt><trkpt lat="46.05925532935809" lon="13.394317845060566"><ele>111.5</ele><time>2026-04-04T14:30:15Z</time></trkpt><trkpt lat="46.05911027384142" lon="13.39429455577691"><ele>111.0</ele><time>2026-04-04T14:30:16Z</time></trkpt><trkpt lat="46.058965261031936" lon="13.394276242798119"><ele>110.5</ele><time>2026-04-04T14:30:17Z</time></trkpt><trkpt lat="46.05882067410636" lon="13.394259042655188"><ele>110.0</ele><time>2026-04-04T14:30:18Z</time></trkpt><trkpt lat="46.05868079871563" lon="13.394235476001736"><ele>110.0</ele><time>2026-04-04T14:30:19Z</time></trkpt><trkpt lat="46.058541557413555" lon="13.394218393365156"><ele>110.0</ele><time>2026-04-04T14:30:20Z</time></trkpt><trkpt lat="46.05840350194642" lon="13.394201027816889"><ele>110.0</ele><time>2026-04-04T14:30:21Z</time></trkpt><trkpt lat="46.058268002288635" lon="13.394188272996463"><ele>110.0</ele><time>2026-04-04T14:30:22Z</time></trkpt><trkpt lat="46.05813703715526" lon="13.394178301935412"><ele>110.2</ele><time>2026-04-04T14:30:23Z</time></trkpt><trkpt lat="46.05801439193259" lon="13.394182269932651"><ele>110.4</ele><time>2026-04-04T14:30:24Z</time></trkpt><trkpt lat="46.05790619378226" lon="13.39419053107763"><ele>110.6</ele><time>2026-04-04T14:30:25Z</time></trkpt><trkpt lat="46.05780521680787" lon="13.394197229519824"><ele>110.8</ele><time>2026-04-04T14:30:26Z</time></trkpt><trkpt lat="46.05771206951133" lon="13.394206192329987"><ele>111.0</ele><time>2026-04-04T14:30:27Z</time></trkpt><trkpt lat="46.05763007719962" lon="13.394209824426632"><ele>111.0</ele><time>2026-04-04T14:30:28Z</time></trkpt><trkpt lat="46.05756042959054" lon="13.394201740211356"><ele>111.0</ele><time>2026-04-04T14:30:29Z</time></trkpt><trkpt lat="46.05750075261818" lon="13.394167278572855"><ele>111.0</ele><time>2026-04-04T14:30:30Z</time></trkpt><trkpt lat="46.05743336051473" lon="13.394109107011793"><ele>111.0</ele><time>2026-04-04T14:30:31Z</time></trkpt><trkpt lat="46.057376535783995" lon="13.394027421460919"><ele>111.0</ele><time>2026-04-04T14:30:32Z</time></trkpt><trkpt lat="46.05741189045789" lon="13.3938401981996"><ele>111.0</ele><time>2026-04-04T14:30:33Z</time></trkpt><trkpt lat="46.057407201704464" lon="13.393697988176466"><ele>110.75</ele><time>2026-04-04T14:30:34Z</time></trkpt><trkpt lat="46.05739941599833" lon="13.39354418224447"><ele>110.5</ele><time>2026-04-04T14:30:34.999Z</time></trkpt><trkpt lat="46.05738959316158" lon="13.39336919410262"><ele>110.25</ele><time>2026-04-04T14:30:35.999Z</time></trkpt><trkpt lat="46.05737151496445" lon="13.393167960635333"><ele>110.0</ele><time>2026-04-04T14:30:36.999Z</time></trkpt><trkpt lat="46.05735600028523" lon="13.392957692266133"><ele>109.33333333333333</ele><time>2026-04-04T14:30:37.999Z</time></trkpt><trkpt lat="46.05734311535467" lon="13.392734651319945"><ele>108.66666666666666</ele><time>2026-04-04T14:30:38.999Z</time></trkpt><trkpt lat="46.057335248026824" lon="13.392517155609342"><ele>108.0</ele><time>2026-04-04T14:30:39.999Z</time></trkpt><trkpt lat="46.057337512457615" lon="13.392305424393264"><ele>108.25</ele><time>2026-04-04T14:30:40.999Z</time></trkpt><trkpt lat="46.05733009941928" lon="13.39209852410503"><ele>108.5</ele><time>2026-04-04T14:30:41.999Z</time></trkpt><trkpt lat="46.05732491599939" lon="13.391898599731741"><ele>108.75</ele><time>2026-04-04T14:30:42.999Z</time></trkpt><trkpt lat="46.05727455791247" lon="13.39170984575735"><ele>109.0</ele><time>2026-04-04T14:30:43.999Z</time></trkpt><trkpt lat="46.05724296770716" lon="13.391522202147875"><ele>109.25</ele><time>2026-04-04T14:30:44.999Z</time></trkpt><trkpt lat="46.05725782657796" lon="13.391326841716552"><ele>109.5</ele><time>2026-04-04T14:30:45.999Z</time></trkpt><trkpt lat="46.05726327516766" lon="13.391107025849335"><ele>109.75</ele><time>2026-04-04T14:30:46.999Z</time></trkpt><trkpt lat="46.05728771403138" lon="13.390883219282774"><ele>110.0</ele><time>2026-04-04T14:30:47.999Z</time></trkpt><trkpt lat="46.057318789245635" lon="13.390654612031142"><ele>110.0</ele><time>2026-04-04T14:30:48.999Z</time></trkpt><trkpt lat="46.05737499721622" lon="13.390423168168255"><ele>110.0</ele><time>2026-04-04T14:30:49.999Z</time></trkpt><trkpt lat="46.057444648691785" lon="13.390171228663274"><ele>110.0</ele><time>2026-04-04T14:30:50.999Z</time></trkpt><trkpt lat="46.05751564501517" lon="13.389886041808653"><ele>110.0</ele><time>2026-04-04T14:30:51.999Z</time></trkpt><trkpt lat="46.05760269168407" lon="13.389558987148716"><ele>110.0</ele><time>2026-04-04T14:30:52.999Z</time></trkpt><trkpt lat="46.05769326754948" lon="13.38920444872088"><ele>110.0</ele><time>2026-04-04T14:30:53.999Z</time></trkpt><trkpt lat="46.05778263799746" lon="13.38886645985287"><ele>110.0</ele><time>2026-04-04T14:30:54.999Z</time></trkpt><trkpt lat="46.057862950787865" lon="13.388570754388907"><ele>110.0</ele><time>2026-04-04T14:30:55.999Z</time></trkpt><trkpt lat="46.05792619848174" lon="13.388293258980825"><ele>110.0</ele><time>2026-04-04T14:30:56.999Z</time></trkpt><trkpt lat="46.05797207923402" lon="13.388018647021495"><ele>110.0</ele><time>2026-04-04T14:30:57.999Z</time></trkpt><trkpt lat="46.058002763411324" lon="13.387711519214916"><ele>109.5</ele><time>2026-04-04T14:30:58.999Z</time></trkpt><trkpt lat="46.057983669824694" lon="13.387375277439514"><ele>109.0</ele><time>2026-04-04T14:30:59.999Z</time></trkpt><trkpt lat="46.05797084486173" lon="13.387010276847306"><ele>109.0</ele><time>2026-04-04T14:31:00.999Z</time></trkpt><trkpt lat="46.057960541599094" lon="13.386620806230324"><ele>109.0</ele><time>2026-04-04T14:31:01.999Z</time></trkpt><trkpt lat="46.057964309276244" lon="13.386213776493854"><ele>109.0</ele><time>2026-04-04T14:31:02.999Z</time></trkpt><trkpt lat="46.05798416741465" lon="13.385833344496403"><ele>109.0</ele><time>2026-04-04T14:31:03.999Z</time></trkpt><trkpt lat="46.05801688875159" lon="13.38549743070813"><ele>109.0</ele><time>2026-04-04T14:31:04.999Z</time></trkpt><trkpt lat="46.05806314545998" lon="13.385178375226035"><ele>109.0</ele><time>2026-04-04T14:31:05.999Z</time></trkpt><trkpt lat="46.058113954991235" lon="13.384898799264358"><ele>109.0</ele><time>2026-04-04T14:31:06.999Z</time></trkpt><trkpt lat="46.05815786037732" lon="13.384655731551177"><ele>109.0</ele><time>2026-04-04T14:31:07.999Z</time></trkpt><trkpt lat="46.0581988334822" lon="13.384437448364466"><ele>109.0</ele><time>2026-04-04T14:31:08.999Z</time></trkpt><trkpt lat="46.05823628208157" lon="13.384243573657105"><ele>109.0</ele><time>2026-04-04T14:31:09.999Z</time></trkpt><trkpt lat="46.05826987713826" lon="13.384051992189438"><ele>109.0</ele><time>2026-04-04T14:31:10.999Z</time></trkpt><trkpt lat="46.05830146503022" lon="13.383873495129265"><ele>108.5</ele><time>2026-04-04T14:31:11.999Z</time></trkpt><trkpt lat="46.05832909661587" lon="13.383712606264574"><ele>108.0</ele><time>2026-04-04T14:31:12.999Z</time></trkpt><trkpt lat="46.05837547005928" lon="13.383533998259562"><ele>107.5</ele><time>2026-04-04T14:31:13.999Z</time></trkpt><trkpt lat="46.0584173801955" lon="13.383308144726175"><ele>107.0</ele><time>2026-04-04T14:31:14.999Z</time></trkpt><trkpt lat="46.0584378887634" lon="13.383012365011215"><ele>107.0</ele><time>2026-04-04T14:31:15.999Z</time></trkpt><trkpt lat="46.05851597492465" lon="13.382683937200637"><ele>107.0</ele><time>2026-04-04T14:31:16.999Z</time></trkpt><trkpt lat="46.058586546915684" lon="13.382345294815277"><ele>107.0</ele><time>2026-04-04T14:31:17.999Z</time></trkpt><trkpt lat="46.058639603858445" lon="13.38205443344484"><ele>107.0</ele><time>2026-04-04T14:31:18.999Z</time></trkpt><trkpt lat="46.05868870787339" lon="13.381808196623572"><ele>107.0</ele><time>2026-04-04T14:31:19.999Z</time></trkpt><trkpt lat="46.05873343088788" lon="13.381607429665815"><ele>107.0</ele><time>2026-04-04T14:31:20.999Z</time></trkpt><trkpt lat="46.05877593086422" lon="13.38144831142527"><ele>106.99999999999999</ele><time>2026-04-04T14:31:21.999Z</time></trkpt><trkpt lat="46.058819053208985" lon="13.381322054983139"><ele>106.99999999999999</ele><time>2026-04-04T14:31:22.999Z</time></trkpt><trkpt lat="46.05887330216144" lon="13.3812154635555"><ele>107.0</ele><time>2026-04-04T14:31:23.999Z</time></trkpt><trkpt lat="46.05894140342307" lon="13.381120438115197"><ele>107.0</ele><time>2026-04-04T14:31:24.999Z</time></trkpt><trkpt lat="46.05899431361853" lon="13.381020342090707"><ele>107.25</ele><time>2026-04-04T14:31:25.999Z</time></trkpt><trkpt lat="46.05903530036812" lon="13.380894894711581"><ele>107.5</ele><time>2026-04-04T14:31:26.999Z</time></trkpt><trkpt lat="46.059006332318425" lon="13.380730406610061"><ele>107.75</ele><time>2026-04-04T14:31:27.999Z</time></trkpt><trkpt lat="46.058973761844136" lon="13.380552011326506"><ele>108.0</ele><time>2026-04-04T14:31:28.999Z</time></trkpt><trkpt lat="46.0589744202121" lon="13.380382732539768"><ele>107.66666666666666</ele><time>2026-04-04T14:31:29.999Z</time></trkpt><trkpt lat="46.059003370231956" lon="13.380178880473961"><ele>107.33333333333333</ele><time>2026-04-04T14:31:30.999Z</time></trkpt><trkpt lat="46.0590417347694" lon="13.379933963565596"><ele>107.0</ele><time>2026-04-04T14:31:31.999Z</time></trkpt><trkpt lat="46.05909090912126" lon="13.37963984906444"><ele>107.5</ele><time>2026-04-04T14:31:32.999Z</time></trkpt><trkpt lat="46.05915376475134" lon="13.379302435090299"><ele>108.0</ele><time>2026-04-04T14:31:33.999Z</time></trkpt><trkpt lat="46.05921353687193" lon="13.378955531910664"><ele>107.0</ele><time>2026-04-04T14:31:34.999Z</time></trkpt><trkpt lat="46.05927452967499" lon="13.378611666527298"><ele>106.0</ele><time>2026-04-04T14:31:35.999Z</time></trkpt><trkpt lat="46.05934074232369" lon="13.378269383750595"><ele>105.5</ele><time>2026-04-04T14:31:36.999Z</time></trkpt><trkpt lat="46.05940344993629" lon="13.377924161733526"><ele>105.0</ele><time>2026-04-04T14:31:37.999Z</time></trkpt><trkpt lat="46.059465595733215" lon="13.377587711642178"><ele>105.0</ele><time>2026-04-04T14:31:38.999Z</time></trkpt><trkpt lat="46.05952612816044" lon="13.377247708963523"><ele>105.0</ele><time>2026-04-04T14:31:39.999Z</time></trkpt><trkpt lat="46.05961112581552" lon="13.37685149267613"><ele>105.0</ele><time>2026-04-04T14:31:40.999Z</time></trkpt><trkpt lat="46.05970176134543" lon="13.376364207087441"><ele>105.0</ele><time>2026-04-04T14:31:41.999Z</time></trkpt><trkpt lat="46.059787107416874" lon="13.375817500164713"><ele>105.0</ele><time>2026-04-04T14:31:42.999Z</time></trkpt><trkpt lat="46.05990487725402" lon="13.3752539668283"><ele>105.0</ele><time>2026-04-04T14:31:43.999Z</time></trkpt><trkpt lat="46.06001057606252" lon="13.37469028801816"><ele>105.5</ele><time>2026-04-04T14:31:44.999Z</time></trkpt><trkpt lat="46.060111927676104" lon="13.374144342136479"><ele>106.0</ele><time>2026-04-04T14:31:45.999Z</time></trkpt><trkpt lat="46.060212266940916" lon="13.373612413307917"><ele>106.0</ele><time>2026-04-04T14:31:46.999Z</time></trkpt><trkpt lat="46.060311773484756" lon="13.373094172330823"><ele>106.0</ele><time>2026-04-04T14:31:47.999Z</time></trkpt><trkpt lat="46.0604044845648" lon="13.372596007845404"><ele>106.5</ele><time>2026-04-04T14:31:48.999Z</time></trkpt><trkpt lat="46.0604931324688" lon="13.372110284940208"><ele>107.0</ele><time>2026-04-04T14:31:49.999Z</time></trkpt><trkpt lat="46.06057828885061" lon="13.371640648955424"><ele>106.0</ele><time>2026-04-04T14:31:50.999Z</time></trkpt><trkpt lat="46.060662250144134" lon="13.371182828274494"><ele>105.0</ele><time>2026-04-04T14:31:51.999Z</time></trkpt><trkpt lat="46.06074419653599" lon="13.370736956126988"><ele>105.5</ele><time>2026-04-04T14:31:53Z</time></trkpt><trkpt lat="46.06082230851428" lon="13.37030059256734"><ele>106.0</ele><time>2026-04-04T14:31:54Z</time></trkpt><trkpt lat="46.06089910930997" lon="13.369877939793286"><ele>105.5</ele><time>2026-04-04T14:31:55Z</time></trkpt><trkpt lat="46.06097634751877" lon="13.369464928030242"><ele>105.0</ele><time>2026-04-04T14:31:56Z</time></trkpt><trkpt lat="46.06105144508159" lon="13.369064245963346"><ele>105.5</ele><time>2026-04-04T14:31:57Z</time></trkpt><trkpt lat="46.06112373086856" lon="13.368667881312131"><ele>106.0</ele><time>2026-04-04T14:31:58Z</time></trkpt><trkpt lat="46.06119588731954" lon="13.368274409041318"><ele>106.0</ele><time>2026-04-04T14:31:59Z</time></trkpt><trkpt lat="46.06126737431229" lon="13.367884732060684"><ele>106.0</ele><time>2026-04-04T14:32:00Z</time></trkpt><trkpt lat="46.06133878298161" lon="13.367497547466613"><ele>105.0</ele><time>2026-04-04T14:32:01Z</time></trkpt><trkpt lat="46.061408725019895" lon="13.367111663505144"><ele>104.0</ele><time>2026-04-04T14:32:02Z</time></trkpt><trkpt lat="46.06147924343716" lon="13.36672366837207"><ele>103.0</ele><time>2026-04-04T14:32:03Z</time></trkpt><trkpt lat="46.06155075597522" lon="13.366330452883185"><ele>102.0</ele><time>2026-04-04T14:32:04Z</time></trkpt><trkpt lat="46.061624201004975" lon="13.365929432685784"><ele>103.0</ele><time>2026-04-04T14:32:05Z</time></trkpt><trkpt lat="46.061698783541026" lon="13.365520751157234"><ele>104.0</ele><time>2026-04-04T14:32:06Z</time></trkpt><trkpt lat="46.061775296049014" lon="13.365106140681865"><ele>103.5</ele><time>2026-04-04T14:32:07Z</time></trkpt><trkpt lat="46.06185384586438" lon="13.3646903446238"><ele>103.0</ele><time>2026-04-04T14:32:08Z</time></trkpt><trkpt lat="46.06193437058668" lon="13.36427621319221"><ele>103.0</ele><time>2026-04-04T14:32:09Z</time></trkpt><trkpt lat="46.06202011214485" lon="13.363865902971062"><ele>103.0</ele><time>2026-04-04T14:32:10Z</time></trkpt><trkpt lat="46.06211209706765" lon="13.363462670725399"><ele>103.0</ele><time>2026-04-04T14:32:11Z</time></trkpt><trkpt lat="46.06220556390562" lon="13.363065268634037"><ele>103.0</ele><time>2026-04-04T14:32:12Z</time></trkpt><trkpt lat="46.06230031435592" lon="13.362667433865346"><ele>103.0</ele><time>2026-04-04T14:32:13Z</time></trkpt><trkpt lat="46.06239547587352" lon="13.36227259834534"><ele>103.0</ele><time>2026-04-04T14:32:14Z</time></trkpt><trkpt lat="46.062490879456696" lon="13.361877349093701"><ele>103.0</ele><time>2026-04-04T14:32:15Z</time></trkpt><trkpt lat="46.06258621915837" lon="13.36148170411143"><ele>103.0</ele><time>2026-04-04T14:32:16Z</time></trkpt><trkpt lat="46.062682036551756" lon="13.36108812113026"><ele>102.0</ele><time>2026-04-04T14:32:17Z</time></trkpt><trkpt lat="46.0627765877046" lon="13.36069743110083"><ele>101.0</ele><time>2026-04-04T14:32:18Z</time></trkpt><trkpt lat="46.06286687280136" lon="13.360317698792073"><ele>101.0</ele><time>2026-04-04T14:32:19Z</time></trkpt><trkpt lat="46.062953336251965" lon="13.359946922355412"><ele>101.0</ele><time>2026-04-04T14:32:20Z</time></trkpt><trkpt lat="46.063039756547596" lon="13.35958358799202"><ele>100.5</ele><time>2026-04-04T14:32:21Z</time></trkpt><trkpt lat="46.06312438227278" lon="13.359227585910737"><ele>100.0</ele><time>2026-04-04T14:32:22Z</time></trkpt><trkpt lat="46.06320943242042" lon="13.358869447175344"><ele>101.0</ele><time>2026-04-04T14:32:23Z</time></trkpt><trkpt lat="46.06329537774003" lon="13.3585094883548"><ele>102.0</ele><time>2026-04-04T14:32:24Z</time></trkpt><trkpt lat="46.063382264458184" lon="13.35815078508454"><ele>101.5</ele><time>2026-04-04T14:32:25Z</time></trkpt><trkpt lat="46.06346872711562" lon="13.357792593556445"><ele>101.0</ele><time>2026-04-04T14:32:26Z</time></trkpt><trkpt lat="46.06354946506377" lon="13.35745497752529"><ele>100.5</ele><time>2026-04-04T14:32:27Z</time></trkpt><trkpt lat="46.06362543083123" lon="13.357139490326523"><ele>100.0</ele><time>2026-04-04T14:32:28Z</time></trkpt><trkpt lat="46.06369636302781" lon="13.356838605264391"><ele>100.0</ele><time>2026-04-04T14:32:29Z</time></trkpt><trkpt lat="46.06376701602225" lon="13.35654206932568"><ele>100.0</ele><time>2026-04-04T14:32:30Z</time></trkpt><trkpt lat="46.063838581531556" lon="13.356252871886388"><ele>100.0</ele><time>2026-04-04T14:32:31Z</time></trkpt><trkpt lat="46.06390302598816" lon="13.355984381063612"><ele>100.0</ele><time>2026-04-04T14:32:32Z</time></trkpt><trkpt lat="46.063963573640045" lon="13.355727387858265"><ele>100.0</ele><time>2026-04-04T14:32:33Z</time></trkpt><trkpt lat="46.06402081408512" lon="13.355476305951813"><ele>100.0</ele><time>2026-04-04T14:32:34Z</time></trkpt><trkpt lat="46.064074300054436" lon="13.355223779848421"><ele>100.33333333333334</ele><time>2026-04-04T14:32:35Z</time></trkpt><trkpt lat="46.064121281046575" lon="13.354967050427495"><ele>100.66666666666666</ele><time>2026-04-04T14:32:36Z</time></trkpt><trkpt lat="46.06416518346423" lon="13.354710137960048"><ele>101.0</ele><time>2026-04-04T14:32:37Z</time></trkpt><trkpt lat="46.064209447953054" lon="13.35445248180256"><ele>100.33333333333333</ele><time>2026-04-04T14:32:38Z</time></trkpt><trkpt lat="46.06425431975419" lon="13.354194708661819"><ele>99.66666666666666</ele><time>2026-04-04T14:32:39Z</time></trkpt><trkpt lat="46.06429584513273" lon="13.353937510596678"><ele>99.0</ele><time>2026-04-04T14:32:40Z</time></trkpt><trkpt lat="46.06433724928818" lon="13.353682001748938"><ele>99.0</ele><time>2026-04-04T14:32:41Z</time></trkpt><trkpt lat="46.06437792688345" lon="13.353435193844103"><ele>99.0</ele><time>2026-04-04T14:32:42Z</time></trkpt><trkpt lat="46.06441660660178" lon="13.353198272615844"><ele>99.0</ele><time>2026-04-04T14:32:42.999Z</time></trkpt><trkpt lat="46.06446870077349" lon="13.352964670416156"><ele>99.33333333333334</ele><time>2026-04-04T14:32:43.999Z</time></trkpt><trkpt lat="46.06451007137679" lon="13.352720285852818"><ele>99.66666666666667</ele><time>2026-04-04T14:32:44.999Z</time></trkpt><trkpt lat="46.064552574031275" lon="13.352469214072942"><ele>100.0</ele><time>2026-04-04T14:32:45.999Z</time></trkpt><trkpt lat="46.06458208056315" lon="13.35220644663738"><ele>100.33333333333334</ele><time>2026-04-04T14:32:46.999Z</time></trkpt><trkpt lat="46.06463744553407" lon="13.351947199600847"><ele>100.66666666666666</ele><time>2026-04-04T14:32:47.999Z</time></trkpt><trkpt lat="46.064681290146176" lon="13.351686426567603"><ele>101.0</ele><time>2026-04-04T14:32:48.999Z</time></trkpt><trkpt lat="46.06472053051057" lon="13.351446615869714"><ele>100.66666666666666</ele><time>2026-04-04T14:32:49.999Z</time></trkpt><trkpt lat="46.06475748456812" lon="13.351221816198617"><ele>100.33333333333334</ele><time>2026-04-04T14:32:50.999Z</time></trkpt><trkpt lat="46.0647934796054" lon="13.351013095088131"><ele>100.0</ele><time>2026-04-04T14:32:51.999Z</time></trkpt><trkpt lat="46.06482784445653" lon="13.350816584354433"><ele>100.0</ele><time>2026-04-04T14:32:52.999Z</time></trkpt><trkpt lat="46.06485804150965" lon="13.350631400629043"><ele>100.0</ele><time>2026-04-04T14:32:53.999Z</time></trkpt><trkpt lat="46.064888244398354" lon="13.350449898010085"><ele>100.0</ele><time>2026-04-04T14:32:54.999Z</time></trkpt><trkpt lat="46.064921544232554" lon="13.350257730603774"><ele>100.0</ele><time>2026-04-04T14:32:55.999Z</time></trkpt><trkpt lat="46.06495517743285" lon="13.35005912197101"><ele>100.5</ele><time>2026-04-04T14:32:56.999Z</time></trkpt><trkpt lat="46.06498995318205" lon="13.349855136578691"><ele>101.0</ele><time>2026-04-04T14:32:57.999Z</time></trkpt><trkpt lat="46.065025866062825" lon="13.34964811543663"><ele>101.5</ele><time>2026-04-04T14:32:58.999Z</time></trkpt><trkpt lat="46.065063077424476" lon="13.349435853657985"><ele>102.0</ele><time>2026-04-04T14:32:59.999Z</time></trkpt><trkpt lat="46.065099627898746" lon="13.349224547827255"><ele>102.33333333333334</ele><time>2026-04-04T14:33:00.999Z</time></trkpt><trkpt lat="46.06513515704801" lon="13.349009845136337"><ele>102.66666666666667</ele><time>2026-04-04T14:33:01.999Z</time></trkpt><trkpt lat="46.06517313197871" lon="13.348802373149097"><ele>103.0</ele><time>2026-04-04T14:33:02.999Z</time></trkpt><trkpt lat="46.06520854117413" lon="13.348591347415885"><ele>103.0</ele><time>2026-04-04T14:33:03.999Z</time></trkpt><trkpt lat="46.06524508028343" lon="13.348370406472503"><ele>103.0</ele><time>2026-04-04T14:33:04.999Z</time></trkpt><trkpt lat="46.06528463939612" lon="13.348151168451189"><ele>103.0</ele><time>2026-04-04T14:33:05.999Z</time></trkpt><trkpt lat="46.06532134355091" lon="13.347935236788725"><ele>103.0</ele><time>2026-04-04T14:33:06.999Z</time></trkpt><trkpt lat="46.06535606904309" lon="13.347730301923468"><ele>103.0</ele><time>2026-04-04T14:33:07.999Z</time></trkpt><trkpt lat="46.065390528211985" lon="13.34753033361651"><ele>103.0</ele><time>2026-04-04T14:33:08.999Z</time></trkpt><trkpt lat="46.06542738482871" lon="13.347332110466995"><ele>103.0</ele><time>2026-04-04T14:33:09.999Z</time></trkpt><trkpt lat="46.065459474358335" lon="13.347130938316804"><ele>102.75</ele><time>2026-04-04T14:33:10.999Z</time></trkpt><trkpt lat="46.06549329202194" lon="13.346930079308581"><ele>102.5</ele><time>2026-04-04T14:33:11.999Z</time></trkpt><trkpt lat="46.06552910840168" lon="13.346731269026137"><ele>102.25</ele><time>2026-04-04T14:33:12.999Z</time></trkpt><trkpt lat="46.06556488759454" lon="13.34652830937612"><ele>102.0</ele><time>2026-04-04T14:33:13.999Z</time></trkpt><trkpt lat="46.06559949982911" lon="13.346325020025457"><ele>102.0</ele><time>2026-04-04T14:33:14.999Z</time></trkpt><trkpt lat="46.065633878102254" lon="13.346115697105134"><ele>102.0</ele><time>2026-04-04T14:33:15.999Z</time></trkpt><trkpt lat="46.065668388876155" lon="13.345904720769877"><ele>102.0</ele><time>2026-04-04T14:33:16.999Z</time></trkpt><trkpt lat="46.06570594455845" lon="13.345694821189678"><ele>102.0</ele><time>2026-04-04T14:33:17.999Z</time></trkpt><trkpt lat="46.06574346187387" lon="13.34548847149021"><ele>102.0</ele><time>2026-04-04T14:33:18.999Z</time></trkpt><trkpt lat="46.06577885095514" lon="13.345282146619121"><ele>102.0</ele><time>2026-04-04T14:33:19.999Z</time></trkpt><trkpt lat="46.065812708636706" lon="13.345077857862542"><ele>102.0</ele><time>2026-04-04T14:33:20.999Z</time></trkpt><trkpt lat="46.065846329657305" lon="13.344877585195263"><ele>102.0</ele><time>2026-04-04T14:33:21.999Z</time></trkpt><trkpt lat="46.065878966782726" lon="13.34468410009356"><ele>102.0</ele><time>2026-04-04T14:33:22.999Z</time></trkpt><trkpt lat="46.06589840182852" lon="13.344502371947142"><ele>102.0</ele><time>2026-04-04T14:33:23.999Z</time></trkpt><trkpt lat="46.065899696742285" lon="13.344328935492943"><ele>102.0</ele><time>2026-04-04T14:33:24.999Z</time></trkpt><trkpt lat="46.06589146506916" lon="13.344175596609634"><ele>102.0</ele><time>2026-04-04T14:33:25.999Z</time></trkpt><trkpt lat="46.0658859784197" lon="13.344032458501811"><ele>102.0</ele><time>2026-04-04T14:33:26.999Z</time></trkpt><trkpt lat="46.06588336039772" lon="13.343906436988064"><ele>102.0</ele><time>2026-04-04T14:33:27.999Z</time></trkpt><trkpt lat="46.06588364661531" lon="13.343797956231478"><ele>102.0</ele><time>2026-04-04T14:33:28.999Z</time></trkpt><trkpt lat="46.06588437797692" lon="13.343628943293517"><ele>102.0</ele><time>2026-04-04T14:33:30.999Z</time></trkpt><trkpt lat="46.065884097558936" lon="13.343529373155429"><ele>102.0</ele><time>2026-04-04T14:33:31.999Z</time></trkpt><trkpt lat="46.06587534421073" lon="13.343431354018783"><ele>101.75</ele><time>2026-04-04T14:33:32.999Z</time></trkpt><trkpt lat="46.065785684542234" lon="13.343331729779683"><ele>101.5</ele><time>2026-04-04T14:33:34.999Z</time></trkpt><trkpt lat="46.065658335762414" lon="13.34342835578542"><ele>101.25</ele><time>2026-04-04T14:33:36.999Z</time></trkpt><trkpt lat="46.065549862479365" lon="13.34338502474375"><ele>101.0</ele><time>2026-04-04T14:33:37.999Z</time></trkpt><trkpt lat="46.06544401595745" lon="13.343375510144154"><ele>100.75</ele><time>2026-04-04T14:33:38.999Z</time></trkpt><trkpt lat="46.065334625880226" lon="13.343351839507408"><ele>100.5</ele><time>2026-04-04T14:33:39.999Z</time></trkpt><trkpt lat="46.06522455396883" lon="13.343327117645716"><ele>100.25</ele><time>2026-04-04T14:33:40.999Z</time></trkpt><trkpt lat="46.06511213494947" lon="13.343301906622191"><ele>100.0</ele><time>2026-04-04T14:33:41.999Z</time></trkpt><trkpt lat="46.06499832645016" lon="13.34327993837339"><ele>99.8</ele><time>2026-04-04T14:33:42.999Z</time></trkpt><trkpt lat="46.064880476922575" lon="13.343267121195602"><ele>99.6</ele><time>2026-04-04T14:33:43.999Z</time></trkpt><trkpt lat="46.06477023144552" lon="13.343249478200642"><ele>99.4</ele><time>2026-04-04T14:33:44.999Z</time></trkpt><trkpt lat="46.064668021818584" lon="13.343222767777645"><ele>99.2</ele><time>2026-04-04T14:33:45.999Z</time></trkpt><trkpt lat="46.06456390839749" lon="13.343185618094953"><ele>99.0</ele><time>2026-04-04T14:33:46.999Z</time></trkpt><trkpt lat="46.06446244014762" lon="13.34314513413356"><ele>99.0</ele><time>2026-04-04T14:33:47.999Z</time></trkpt><trkpt lat="46.06435965265763" lon="13.343099139458676"><ele>99.0</ele><time>2026-04-04T14:33:48.999Z</time></trkpt><trkpt lat="46.064255074753824" lon="13.343064891412753"><ele>99.0</ele><time>2026-04-04T14:33:49.999Z</time></trkpt><trkpt lat="46.06414551251944" lon="13.343043327737186"><ele>99.0</ele><time>2026-04-04T14:33:50.999Z</time></trkpt><trkpt lat="46.064048609208726" lon="13.343037004727812"><ele>99.0</ele><time>2026-04-04T14:33:51.999Z</time></trkpt><trkpt lat="46.063950779987344" lon="13.343036835741286"><ele>98.5</ele><time>2026-04-04T14:33:52.999Z</time></trkpt><trkpt lat="46.06385959453031" lon="13.343029196889336"><ele>98.0</ele><time>2026-04-04T14:33:53.999Z</time></trkpt><trkpt lat="46.0637565521532" lon="13.343008570312366"><ele>97.5</ele><time>2026-04-04T14:33:54.999Z</time></trkpt><trkpt lat="46.06363630522403" lon="13.34296694385325"><ele>97.0</ele><time>2026-04-04T14:33:55.999Z</time></trkpt><trkpt lat="46.0635030880526" lon="13.342917602483915"><ele>97.0</ele><time>2026-04-04T14:33:56.999Z</time></trkpt><trkpt lat="46.063351793966206" lon="13.342862593025917"><ele>97.0</ele><time>2026-04-04T14:33:57.999Z</time></trkpt><trkpt lat="46.063183021312625" lon="13.3427982516948"><ele>97.0</ele><time>2026-04-04T14:33:59Z</time></trkpt><trkpt lat="46.06301733793603" lon="13.342727829565222"><ele>96.5</ele><time>2026-04-04T14:34:00Z</time></trkpt><trkpt lat="46.062879250495" lon="13.342673220367459"><ele>96.0</ele><time>2026-04-04T14:34:01Z</time></trkpt><trkpt lat="46.062756581487086" lon="13.342612641168758"><ele>95.5</ele><time>2026-04-04T14:34:02Z</time></trkpt><trkpt lat="46.062646508507896" lon="13.342531630169074"><ele>95.0</ele><time>2026-04-04T14:34:03Z</time></trkpt><trkpt lat="46.06256916588117" lon="13.342380219549087"><ele>95.33333333333334</ele><time>2026-04-04T14:34:04Z</time></trkpt><trkpt lat="46.062484111794376" lon="13.34221169944566"><ele>95.66666666666667</ele><time>2026-04-04T14:34:05Z</time></trkpt><trkpt lat="46.062391278809855" lon="13.342011422702798"><ele>96.0</ele><time>2026-04-04T14:34:06Z</time></trkpt><trkpt lat="46.06228376597983" lon="13.34179464294524"><ele>96.33333333333334</ele><time>2026-04-04T14:34:07Z</time></trkpt><trkpt lat="46.06217945001841" lon="13.341550708889013"><ele>96.66666666666667</ele><time>2026-04-04T14:34:08Z</time></trkpt><trkpt lat="46.06207433730171" lon="13.34131265854203"><ele>97.0</ele><time>2026-04-04T14:34:09Z</time></trkpt><trkpt lat="46.0619810107784" lon="13.341090756506304"><ele>97.0</ele><time>2026-04-04T14:34:10Z</time></trkpt><trkpt lat="46.06189238992352" lon="13.34088537339222"><ele>97.0</ele><time>2026-04-04T14:34:11Z</time></trkpt><trkpt lat="46.06180476432915" lon="13.34067804832075"><ele>97.0</ele><time>2026-04-04T14:34:12Z</time></trkpt><trkpt lat="46.06167093959135" lon="13.340488262448963"><ele>95.5</ele><time>2026-04-04T14:34:13Z</time></trkpt><trkpt lat="46.06147005702081" lon="13.340324134368853"><ele>94.0</ele><time>2026-04-04T14:34:14Z</time></trkpt><trkpt lat="46.06121848714138" lon="13.340207123012291"><ele>94.0</ele><time>2026-04-04T14:34:15Z</time></trkpt><trkpt lat="46.060934818498616" lon="13.340063034815994"><ele>94.0</ele><time>2026-04-04T14:34:16Z</time></trkpt><trkpt lat="46.060645487494085" lon="13.33988777254628"><ele>94.0</ele><time>2026-04-04T14:34:17Z</time></trkpt><trkpt lat="46.06034109329157" lon="13.33974685949045"><ele>94.0</ele><time>2026-04-04T14:34:18Z</time></trkpt><trkpt lat="46.06004217508097" lon="13.339587745816706"><ele>94.5</ele><time>2026-04-04T14:34:19Z</time></trkpt><trkpt lat="46.05974991416376" lon="13.339436737967556"><ele>95.0</ele><time>2026-04-04T14:34:20Z</time></trkpt><trkpt lat="46.05947153016917" lon="13.339287314762773"><ele>95.0</ele><time>2026-04-04T14:34:21Z</time></trkpt><trkpt lat="46.05921340699119" lon="13.339096054878603"><ele>95.0</ele><time>2026-04-04T14:34:22Z</time></trkpt><trkpt lat="46.058952526034844" lon="13.338912361123947"><ele>94.5</ele><time>2026-04-04T14:34:23Z</time></trkpt><trkpt lat="46.05869526339373" lon="13.338694892427057"><ele>94.0</ele><time>2026-04-04T14:34:24Z</time></trkpt><trkpt lat="46.05843524430578" lon="13.338475972828231"><ele>94.5</ele><time>2026-04-04T14:34:25Z</time></trkpt><trkpt lat="46.05817146235114" lon="13.338255529680678"><ele>95.0</ele><time>2026-04-04T14:34:26Z</time></trkpt><trkpt lat="46.05790678590807" lon="13.338032658139497"><ele>95.0</ele><time>2026-04-04T14:34:27Z</time></trkpt><trkpt lat="46.05764017995074" lon="13.337808096450646"><ele>95.0</ele><time>2026-04-04T14:34:28Z</time></trkpt><trkpt lat="46.0573708965877" lon="13.337584247251993"><ele>95.0</ele><time>2026-04-04T14:34:29Z</time></trkpt><trkpt lat="46.05710191506206" lon="13.337359555093483"><ele>95.0</ele><time>2026-04-04T14:34:30Z</time></trkpt><trkpt lat="46.056832996323934" lon="13.337136095447587"><ele>94.0</ele><time>2026-04-04T14:34:31Z</time></trkpt><trkpt lat="46.056564787581124" lon="13.336913869913197"><ele>93.0</ele><time>2026-04-04T14:34:32Z</time></trkpt><trkpt lat="46.05629539224221" lon="13.336690257553931"><ele>93.0</ele><time>2026-04-04T14:34:33Z</time></trkpt><trkpt lat="46.056025310254576" lon="13.336466371137877"><ele>93.0</ele><time>2026-04-04T14:34:34Z</time></trkpt><trkpt lat="46.05575444731378" lon="13.336242342155096"><ele>93.5</ele><time>2026-04-04T14:34:35Z</time></trkpt><trkpt lat="46.05548143508747" lon="13.336019187255806"><ele>94.0</ele><time>2026-04-04T14:34:36Z</time></trkpt><trkpt lat="46.05521166307458" lon="13.335798450295968"><ele>94.0</ele><time>2026-04-04T14:34:37Z</time></trkpt><trkpt lat="46.05494628545653" lon="13.335576717162011"><ele>94.0</ele><time>2026-04-04T14:34:38Z</time></trkpt><trkpt lat="46.054688652227185" lon="13.335358963323403"><ele>94.0</ele><time>2026-04-04T14:34:39Z</time></trkpt><trkpt lat="46.054447270858994" lon="13.335160424430958"><ele>94.0</ele><time>2026-04-04T14:34:40Z</time></trkpt><trkpt lat="46.05422265342412" lon="13.33497655477825"><ele>94.0</ele><time>2026-04-04T14:34:41Z</time></trkpt><trkpt lat="46.054000612498875" lon="13.33478731957867"><ele>94.0</ele><time>2026-04-04T14:34:42Z</time></trkpt><trkpt lat="46.05377872068147" lon="13.33460266944995"><ele>94.0</ele><time>2026-04-04T14:34:43Z</time></trkpt><trkpt lat="46.05356314706773" lon="13.334428229482295"><ele>94.0</ele><time>2026-04-04T14:34:44Z</time></trkpt><trkpt lat="46.053347053686565" lon="13.334274588647249"><ele>93.0</ele><time>2026-04-04T14:34:44.999Z</time></trkpt><trkpt lat="46.053114003792864" lon="13.334117449106609"><ele>92.0</ele><time>2026-04-04T14:34:45.999Z</time></trkpt><trkpt lat="46.05284989723216" lon="13.334018198273997"><ele>92.0</ele><time>2026-04-04T14:34:46.999Z</time></trkpt><trkpt lat="46.05257782022991" lon="13.333924681936978"><ele>92.0</ele><time>2026-04-04T14:34:47.999Z</time></trkpt><trkpt lat="46.05230293152098" lon="13.333831954678555"><ele>91.5</ele><time>2026-04-04T14:34:48.999Z</time></trkpt><trkpt lat="46.05202988244362" lon="13.33374085346145"><ele>91.0</ele><time>2026-04-04T14:34:49.999Z</time></trkpt><trkpt lat="46.0517525545946" lon="13.333647663202967"><ele>90.5</ele><time>2026-04-04T14:34:50.999Z</time></trkpt><trkpt lat="46.05147644317646" lon="13.33355278424174"><ele>90.0</ele><time>2026-04-04T14:34:51.999Z</time></trkpt><trkpt lat="46.051223170786336" lon="13.333480569084099"><ele>90.0</ele><time>2026-04-04T14:34:52.999Z</time></trkpt><trkpt lat="46.05098984301876" lon="13.333396307858694"><ele>90.0</ele><time>2026-04-04T14:34:53.999Z</time></trkpt><trkpt lat="46.0507785018205" lon="13.333328914233244"><ele>90.0</ele><time>2026-04-04T14:34:54.999Z</time></trkpt><trkpt lat="46.05057412555223" lon="13.333276772599485"><ele>90.0</ele><time>2026-04-04T14:34:55.999Z</time></trkpt><trkpt lat="46.05035231208761" lon="13.333267161187418"><ele>90.0</ele><time>2026-04-04T14:34:56.999Z</time></trkpt><trkpt lat="46.05010982318077" lon="13.333278113512664"><ele>90.5</ele><time>2026-04-04T14:34:57.999Z</time></trkpt><trkpt lat="46.04985873220323" lon="13.333373866936359"><ele>91.0</ele><time>2026-04-04T14:34:58.999Z</time></trkpt><trkpt lat="46.049591183353144" lon="13.33346656666204"><ele>91.0</ele><time>2026-04-04T14:34:59.999Z</time></trkpt><trkpt lat="46.04930477738485" lon="13.33356778176867"><ele>91.0</ele><time>2026-04-04T14:35:00.999Z</time></trkpt><trkpt lat="46.04900913413587" lon="13.333667743210452"><ele>91.5</ele><time>2026-04-04T14:35:01.999Z</time></trkpt><trkpt lat="46.04871218336725" lon="13.333754166579373"><ele>92.0</ele><time>2026-04-04T14:35:02.999Z</time></trkpt><trkpt lat="46.04841351031398" lon="13.33378195106793"><ele>91.0</ele><time>2026-04-04T14:35:03.999Z</time></trkpt><trkpt lat="46.04813328504915" lon="13.333826561084198"><ele>90.0</ele><time>2026-04-04T14:35:04.999Z</time></trkpt><trkpt lat="46.047865925257156" lon="13.333827910863436"><ele>90.0</ele><time>2026-04-04T14:35:05.999Z</time></trkpt><trkpt lat="46.0476032194395" lon="13.333805130062252"><ele>90.0</ele><time>2026-04-04T14:35:06.999Z</time></trkpt><trkpt lat="46.047334984748844" lon="13.333761640241912"><ele>89.0</ele><time>2026-04-04T14:35:07.999Z</time></trkpt><trkpt lat="46.047053825344214" lon="13.333725475205698"><ele>88.0</ele><time>2026-04-04T14:35:08.999Z</time></trkpt><trkpt lat="46.04677104465866" lon="13.333658246816428"><ele>88.5</ele><time>2026-04-04T14:35:09.999Z</time></trkpt><trkpt lat="46.04648336750075" lon="13.333638184671003"><ele>89.0</ele><time>2026-04-04T14:35:10.999Z</time></trkpt><trkpt lat="46.04619660188526" lon="13.333595351833914"><ele>89.0</ele><time>2026-04-04T14:35:11.999Z</time></trkpt><trkpt lat="46.045920944322916" lon="13.333519665154196"><ele>89.0</ele><time>2026-04-04T14:35:12.999Z</time></trkpt><trkpt lat="46.04564902303917" lon="13.33346539334318"><ele>91.0</ele><time>2026-04-04T14:35:13.999Z</time></trkpt><trkpt lat="46.04538577801789" lon="13.333436767562942"><ele>93.0</ele><time>2026-04-04T14:35:14.999Z</time></trkpt><trkpt lat="46.045137733458134" lon="13.33338092482258"><ele>91.0</ele><time>2026-04-04T14:35:15.999Z</time></trkpt><trkpt lat="46.0449022915798" lon="13.333331647902906"><ele>89.0</ele><time>2026-04-04T14:35:16.999Z</time></trkpt><trkpt lat="46.044674850583704" lon="13.333283833123907"><ele>89.0</ele><time>2026-04-04T14:35:17.999Z</time></trkpt><trkpt lat="46.04444959636025" lon="13.33323559175668"><ele>89.0</ele><time>2026-04-04T14:35:18.999Z</time></trkpt><trkpt lat="46.044223433692814" lon="13.333184325227128"><ele>89.0</ele><time>2026-04-04T14:35:19.999Z</time></trkpt><trkpt lat="46.0439956822072" lon="13.333128658898872"><ele>89.0</ele><time>2026-04-04T14:35:20.999Z</time></trkpt><trkpt lat="46.043776113473484" lon="13.33303033888305"><ele>89.0</ele><time>2026-04-04T14:35:21.999Z</time></trkpt><trkpt lat="46.04355393256399" lon="13.332954116648057"><ele>89.0</ele><time>2026-04-04T14:35:22.999Z</time></trkpt><trkpt lat="46.04333344210383" lon="13.33287847432244"><ele>88.0</ele><time>2026-04-04T14:35:23.999Z</time></trkpt><trkpt lat="46.04311808531048" lon="13.332804593205642"><ele>87.0</ele><time>2026-04-04T14:35:24.999Z</time></trkpt><trkpt lat="46.04291855796695" lon="13.332732364262014"><ele>86.0</ele><time>2026-04-04T14:35:25.999Z</time></trkpt><trkpt lat="46.042736434730735" lon="13.3326661828284"><ele>86.0</ele><time>2026-04-04T14:35:26.999Z</time></trkpt><trkpt lat="46.04256179485641" lon="13.332606582689145"><ele>86.0</ele><time>2026-04-04T14:35:27.999Z</time></trkpt><trkpt lat="46.04240261190273" lon="13.332541664495318"><ele>86.0</ele><time>2026-04-04T14:35:28.999Z</time></trkpt><trkpt lat="46.04226069589043" lon="13.332488535311347"><ele>86.0</ele><time>2026-04-04T14:35:29.999Z</time></trkpt><trkpt lat="46.04213441056784" lon="13.33246227493161"><ele>86.0</ele><time>2026-04-04T14:35:30.999Z</time></trkpt><trkpt lat="46.042022101998214" lon="13.332404139884362"><ele>86.0</ele><time>2026-04-04T14:35:31.999Z</time></trkpt><trkpt lat="46.04191405215021" lon="13.332327014963296"><ele>86.0</ele><time>2026-04-04T14:35:32.999Z</time></trkpt><trkpt lat="46.04182932727831" lon="13.332220645045554"><ele>86.25</ele><time>2026-04-04T14:35:33.999Z</time></trkpt><trkpt lat="46.041718906020165" lon="13.33217162276767"><ele>86.5</ele><time>2026-04-04T14:35:34.999Z</time></trkpt><trkpt lat="46.041588633135206" lon="13.332256181111282"><ele>86.75</ele><time>2026-04-04T14:35:35.999Z</time></trkpt><trkpt lat="46.04144550849038" lon="13.332317219247635"><ele>87.0</ele><time>2026-04-04T14:35:36.999Z</time></trkpt><trkpt lat="46.04128059730719" lon="13.332371126038447"><ele>87.0</ele><time>2026-04-04T14:35:37.999Z</time></trkpt><trkpt lat="46.04106548762884" lon="13.332299349384051"><ele>87.0</ele><time>2026-04-04T14:35:38.999Z</time></trkpt><trkpt lat="46.040812473694864" lon="13.332247137521115"><ele>87.5</ele><time>2026-04-04T14:35:39.999Z</time></trkpt><trkpt lat="46.04051896985076" lon="13.332200319675168"><ele>88.0</ele><time>2026-04-04T14:35:40.999Z</time></trkpt><trkpt lat="46.04021804173577" lon="13.332106867988134"><ele>87.5</ele><time>2026-04-04T14:35:41.999Z</time></trkpt><trkpt lat="46.039914192696656" lon="13.332017221155926"><ele>87.0</ele><time>2026-04-04T14:35:42.999Z</time></trkpt><trkpt lat="46.03961115504015" lon="13.33191789141999"><ele>87.0</ele><time>2026-04-04T14:35:43.999Z</time></trkpt><trkpt lat="46.039313881389816" lon="13.3317654791984"><ele>87.0</ele><time>2026-04-04T14:35:44.999Z</time></trkpt><trkpt lat="46.0390203791909" lon="13.331588650120217"><ele>86.5</ele><time>2026-04-04T14:35:45.999Z</time></trkpt><trkpt lat="46.03872948098767" lon="13.331398971418322"><ele>86.0</ele><time>2026-04-04T14:35:46.999Z</time></trkpt><trkpt lat="46.038442794719714" lon="13.331201977202854"><ele>86.0</ele><time>2026-04-04T14:35:47.999Z</time></trkpt><trkpt lat="46.038161884894826" lon="13.331006755253643"><ele>86.0</ele><time>2026-04-04T14:35:48.999Z</time></trkpt><trkpt lat="46.037886099474754" lon="13.330827837818449"><ele>86.0</ele><time>2026-04-04T14:35:49.999Z</time></trkpt><trkpt lat="46.037609677602894" lon="13.330670360863282"><ele>86.0</ele><time>2026-04-04T14:35:50.999Z</time></trkpt><trkpt lat="46.0373284753198" lon="13.330529446743336"><ele>86.5</ele><time>2026-04-04T14:35:51.999Z</time></trkpt><trkpt lat="46.03703935102657" lon="13.33040366225301"><ele>87.0</ele><time>2026-04-04T14:35:52.999Z</time></trkpt><trkpt lat="46.03673132860346" lon="13.330302335415084"><ele>86.5</ele><time>2026-04-04T14:35:53.999Z</time></trkpt><trkpt lat="46.036406950095525" lon="13.33021790486585"><ele>86.0</ele><time>2026-04-04T14:35:54.999Z</time></trkpt><trkpt lat="46.03608347784255" lon="13.33014639605158"><ele>86.0</ele><time>2026-04-04T14:35:55.999Z</time></trkpt><trkpt lat="46.03579247622375" lon="13.330079291318704"><ele>86.0</ele><time>2026-04-04T14:35:56.999Z</time></trkpt><trkpt lat="46.03551970909887" lon="13.330012286221196"><ele>86.0</ele><time>2026-04-04T14:35:57.999Z</time></trkpt><trkpt lat="46.035259172003904" lon="13.32994872204124"><ele>86.0</ele><time>2026-04-04T14:35:58.999Z</time></trkpt><trkpt lat="46.03500507091377" lon="13.32989213004743"><ele>86.0</ele><time>2026-04-04T14:35:59.999Z</time></trkpt><trkpt lat="46.03475178566463" lon="13.329833665360184"><ele>86.0</ele><time>2026-04-04T14:36:00.999Z</time></trkpt><trkpt lat="46.03449265808831" lon="13.329770262646571"><ele>85.5</ele><time>2026-04-04T14:36:01.999Z</time></trkpt><trkpt lat="46.034228051148546" lon="13.329706998044042"><ele>85.0</ele><time>2026-04-04T14:36:02.999Z</time></trkpt><trkpt lat="46.03395439676296" lon="13.32964448449132"><ele>85.0</ele><time>2026-04-04T14:36:03.999Z</time></trkpt><trkpt lat="46.033663652786295" lon="13.329575250317822"><ele>85.0</ele><time>2026-04-04T14:36:05Z</time></trkpt><trkpt lat="46.03335001891781" lon="13.329478496230692"><ele>84.5</ele><time>2026-04-04T14:36:06Z</time></trkpt><trkpt lat="46.03300214228684" lon="13.32939613824389"><ele>84.0</ele><time>2026-04-04T14:36:07Z</time></trkpt><trkpt lat="46.03262857386116" lon="13.329307719036924"><ele>83.5</ele><time>2026-04-04T14:36:08Z</time></trkpt><trkpt lat="46.03222271019208" lon="13.32921218325606"><ele>83.0</ele><time>2026-04-04T14:36:09Z</time></trkpt><trkpt lat="46.03178874723332" lon="13.329146972807516"><ele>83.5</ele><time>2026-04-04T14:36:10Z</time></trkpt><trkpt lat="46.03139087976522" lon="13.329036758718404"><ele>84.0</ele><time>2026-04-04T14:36:11Z</time></trkpt><trkpt lat="46.031027139036865" lon="13.32894279151602"><ele>84.0</ele><time>2026-04-04T14:36:12Z</time></trkpt><trkpt lat="46.03068202819351" lon="13.328860999099353"><ele>84.0</ele><time>2026-04-04T14:36:13Z</time></trkpt><trkpt lat="46.03035532882971" lon="13.328790460556812"><ele>84.0</ele><time>2026-04-04T14:36:14Z</time></trkpt><trkpt lat="46.03005426841711" lon="13.328720667832162"><ele>84.0</ele><time>2026-04-04T14:36:15Z</time></trkpt><trkpt lat="46.02977725426294" lon="13.328651968164174"><ele>83.5</ele><time>2026-04-04T14:36:16Z</time></trkpt><trkpt lat="46.029523486654575" lon="13.328590261325411"><ele>83.0</ele><time>2026-04-04T14:36:17Z</time></trkpt><trkpt lat="46.02928777906019" lon="13.328533941950893"><ele>83.0</ele><time>2026-04-04T14:36:18Z</time></trkpt><trkpt lat="46.029069418852785" lon="13.328481215249903"><ele>83.0</ele><time>2026-04-04T14:36:19Z</time></trkpt><trkpt lat="46.02887273357212" lon="13.328434969345194"><ele>83.0</ele><time>2026-04-04T14:36:20Z</time></trkpt><trkpt lat="46.02869823254392" lon="13.328372597945345"><ele>83.0</ele><time>2026-04-04T14:36:21Z</time></trkpt><trkpt lat="46.028534718385956" lon="13.32835338425609"><ele>83.0</ele><time>2026-04-04T14:36:22Z</time></trkpt><trkpt lat="46.02840755817788" lon="13.328287300465067"><ele>83.0</ele><time>2026-04-04T14:36:23Z</time></trkpt><trkpt lat="46.02830442740961" lon="13.328196909639097"><ele>83.0</ele><time>2026-04-04T14:36:24Z</time></trkpt><trkpt lat="46.02822330636177" lon="13.328062852405187"><ele>83.0</ele><time>2026-04-04T14:36:25Z</time></trkpt><trkpt lat="46.028143163019465" lon="13.327906482575527"><ele>83.0</ele><time>2026-04-04T14:36:26Z</time></trkpt><trkpt lat="46.02799788273899" lon="13.32783779865602"><ele>83.0</ele><time>2026-04-04T14:36:27Z</time></trkpt><trkpt lat="46.02785564951956" lon="13.327758900699193"><ele>83.0</ele><time>2026-04-04T14:36:28Z</time></trkpt><trkpt lat="46.02773430165365" lon="13.327614642359668"><ele>83.0</ele><time>2026-04-04T14:36:29Z</time></trkpt><trkpt lat="46.027594588117395" lon="13.327456541503972"><ele>83.0</ele><time>2026-04-04T14:36:30Z</time></trkpt><trkpt lat="46.02742447402872" lon="13.327267077143468"><ele>83.0</ele><time>2026-04-04T14:36:31Z</time></trkpt><trkpt lat="46.02723388365385" lon="13.327035196124502"><ele>83.0</ele><time>2026-04-04T14:36:32Z</time></trkpt><trkpt lat="46.027195989962706" lon="13.326454190468766"><ele>83.0</ele><time>2026-04-04T14:36:33Z</time></trkpt><trkpt lat="46.02703487127238" lon="13.326094329322244"><ele>83.5</ele><time>2026-04-04T14:36:34Z</time></trkpt><trkpt lat="46.026884878103886" lon="13.32574532189465"><ele>84.0</ele><time>2026-04-04T14:36:35Z</time></trkpt><trkpt lat="46.02674996080644" lon="13.325400605855576"><ele>84.0</ele><time>2026-04-04T14:36:36Z</time></trkpt><trkpt lat="46.02663752632958" lon="13.325046692608305"><ele>84.0</ele><time>2026-04-04T14:36:37Z</time></trkpt><trkpt lat="46.026547005902906" lon="13.324679419144566"><ele>83.5</ele><time>2026-04-04T14:36:38Z</time></trkpt><trkpt lat="46.02647351202778" lon="13.324299345005745"><ele>83.0</ele><time>2026-04-04T14:36:39Z</time></trkpt><trkpt lat="46.02642526076703" lon="13.323896499422995"><ele>82.5</ele><time>2026-04-04T14:36:40Z</time></trkpt><trkpt lat="46.02638591650197" lon="13.323490276486654"><ele>82.0</ele><time>2026-04-04T14:36:41Z</time></trkpt><trkpt lat="46.02632944827482" lon="13.323085746283594"><ele>82.0</ele><time>2026-04-04T14:36:42Z</time></trkpt><trkpt lat="46.02625237263986" lon="13.322683101072725"><ele>82.0</ele><time>2026-04-04T14:36:43Z</time></trkpt><trkpt lat="46.02615336853842" lon="13.322273504785073"><ele>82.5</ele><time>2026-04-04T14:36:44Z</time></trkpt><trkpt lat="46.02603399071912" lon="13.321869822687065"><ele>83.0</ele><time>2026-04-04T14:36:45Z</time></trkpt><trkpt lat="46.02588601403915" lon="13.321472611277313"><ele>83.5</ele><time>2026-04-04T14:36:45.999Z</time></trkpt><trkpt lat="46.025719988217574" lon="13.321080609737235"><ele>84.0</ele><time>2026-04-04T14:36:46.999Z</time></trkpt><trkpt lat="46.02554335587873" lon="13.320691106173221"><ele>83.5</ele><time>2026-04-04T14:36:47.999Z</time></trkpt><trkpt lat="46.02536289248306" lon="13.320300697985637"><ele>83.0</ele><time>2026-04-04T14:36:48.999Z</time></trkpt><trkpt lat="46.0251874034021" lon="13.319908068186654"><ele>83.5</ele><time>2026-04-04T14:36:49.999Z</time></trkpt><trkpt lat="46.025012327501166" lon="13.319517726650705"><ele>84.0</ele><time>2026-04-04T14:36:50.999Z</time></trkpt><trkpt lat="46.02483857098124" lon="13.319130242176932"><ele>85.0</ele><time>2026-04-04T14:36:51.999Z</time></trkpt><trkpt lat="46.02466743713246" lon="13.318760214264582"><ele>86.0</ele><time>2026-04-04T14:36:52.999Z</time></trkpt><trkpt lat="46.024495661712805" lon="13.318412614599305"><ele>86.0</ele><time>2026-04-04T14:36:53.999Z</time></trkpt><trkpt lat="46.02431561722897" lon="13.318080867186923"><ele>86.0</ele><time>2026-04-04T14:36:54.999Z</time></trkpt><trkpt lat="46.02412694948581" lon="13.317765375342596"><ele>83.0</ele><time>2026-04-04T14:36:55.999Z</time></trkpt><trkpt lat="46.02392419084859" lon="13.317464959601564"><ele>80.0</ele><time>2026-04-04T14:36:56.999Z</time></trkpt><trkpt lat="46.023707326253785" lon="13.317172425278828"><ele>79.0</ele><time>2026-04-04T14:36:57.999Z</time></trkpt><trkpt lat="46.02347934968514" lon="13.316891439547007"><ele>78.0</ele><time>2026-04-04T14:36:58.999Z</time></trkpt><trkpt lat="46.02324115250612" lon="13.316623080733574"><ele>78.0</ele><time>2026-04-04T14:36:59.999Z</time></trkpt><trkpt lat="46.022987712438635" lon="13.316375827017183"><ele>78.0</ele><time>2026-04-04T14:37:00.999Z</time></trkpt><trkpt lat="46.02272307295213" lon="13.31614930589285"><ele>78.0</ele><time>2026-04-04T14:37:01.999Z</time></trkpt><trkpt lat="46.022449043080535" lon="13.315944428123782"><ele>78.0</ele><time>2026-04-04T14:37:02.999Z</time></trkpt><trkpt lat="46.02216604721265" lon="13.31576487953741"><ele>78.0</ele><time>2026-04-04T14:37:03.999Z</time></trkpt><trkpt lat="46.02187517783327" lon="13.315613573194627"><ele>78.0</ele><time>2026-04-04T14:37:04.999Z</time></trkpt><trkpt lat="46.021576946988695" lon="13.315483091185909"><ele>76.5</ele><time>2026-04-04T14:37:05.999Z</time></trkpt><trkpt lat="46.02127112776184" lon="13.315374351431258"><ele>75.0</ele><time>2026-04-04T14:37:06.999Z</time></trkpt><trkpt lat="46.020962249301164" lon="13.315292412214673"><ele>77.0</ele><time>2026-04-04T14:37:07.999Z</time></trkpt><trkpt lat="46.02064853457094" lon="13.315235557640062"><ele>79.0</ele><time>2026-04-04T14:37:08.999Z</time></trkpt><trkpt lat="46.02033388327408" lon="13.315202164190662"><ele>79.0</ele><time>2026-04-04T14:37:09.999Z</time></trkpt><trkpt lat="46.02001504096374" lon="13.315192837077632"><ele>79.0</ele><time>2026-04-04T14:37:10.999Z</time></trkpt><trkpt lat="46.0196904258878" lon="13.315200806752019"><ele>78.0</ele><time>2026-04-04T14:37:11.999Z</time></trkpt><trkpt lat="46.01936095472533" lon="13.315216734030358"><ele>77.0</ele><time>2026-04-04T14:37:12.999Z</time></trkpt><trkpt lat="46.01902840359679" lon="13.315232225387966"><ele>76.0</ele><time>2026-04-04T14:37:13.999Z</time></trkpt><trkpt lat="46.01869392600811" lon="13.315244217108514"><ele>75.0</ele><time>2026-04-04T14:37:14.999Z</time></trkpt><trkpt lat="46.018366560717595" lon="13.315259466231145"><ele>75.0</ele><time>2026-04-04T14:37:15.999Z</time></trkpt><trkpt lat="46.01803888622104" lon="13.31527237553525"><ele>75.0</ele><time>2026-04-04T14:37:16.999Z</time></trkpt><trkpt lat="46.01771351226883" lon="13.315283061892279"><ele>75.0</ele><time>2026-04-04T14:37:17.999Z</time></trkpt><trkpt lat="46.01741746295769" lon="13.315292305003368"><ele>75.0</ele><time>2026-04-04T14:37:18.999Z</time></trkpt><trkpt lat="46.01714830160732" lon="13.315304713124428"><ele>75.0</ele><time>2026-04-04T14:37:19.999Z</time></trkpt><trkpt lat="46.016896259946805" lon="13.31531899369672"><ele>75.0</ele><time>2026-04-04T14:37:20.999Z</time></trkpt><trkpt lat="46.01666358098722" lon="13.315336516488903"><ele>75.66666666666667</ele><time>2026-04-04T14:37:21.999Z</time></trkpt><trkpt lat="46.016447425886234" lon="13.315361019584902"><ele>76.33333333333334</ele><time>2026-04-04T14:37:22.999Z</time></trkpt><trkpt lat="46.01625121681488" lon="13.315388498172709"><ele>77.0</ele><time>2026-04-04T14:37:23.999Z</time></trkpt><trkpt lat="46.0160732814836" lon="13.315419790977465"><ele>77.0</ele><time>2026-04-04T14:37:24.999Z</time></trkpt><trkpt lat="46.015916590306205" lon="13.315449378279796"><ele>77.0</ele><time>2026-04-04T14:37:25.999Z</time></trkpt><trkpt lat="46.015774137573956" lon="13.315466376444235"><ele>77.0</ele><time>2026-04-04T14:37:26.999Z</time></trkpt><trkpt lat="46.01564661929958" lon="13.31547111710356"><ele>77.0</ele><time>2026-04-04T14:37:27.999Z</time></trkpt><trkpt lat="46.015538855611915" lon="13.315436728020314"><ele>76.6</ele><time>2026-04-04T14:37:28.999Z</time></trkpt><trkpt lat="46.01544680508912" lon="13.315353365931331"><ele>76.2</ele><time>2026-04-04T14:37:29.999Z</time></trkpt><trkpt lat="46.01539739758362" lon="13.31521671153061"><ele>75.8</ele><time>2026-04-04T14:37:30.999Z</time></trkpt><trkpt lat="46.015369045908606" lon="13.315057074470955"><ele>75.4</ele><time>2026-04-04T14:37:31.999Z</time></trkpt><trkpt lat="46.01538579665867" lon="13.31489567815458"><ele>75.0</ele><time>2026-04-04T14:37:32.999Z</time></trkpt><trkpt lat="46.015433324635474" lon="13.314740871723036"><ele>75.25</ele><time>2026-04-04T14:37:33.999Z</time></trkpt><trkpt lat="46.015531649880955" lon="13.314637912200395"><ele>75.5</ele><time>2026-04-04T14:37:34.999Z</time></trkpt><trkpt lat="46.01564638249945" lon="13.314596383103057"><ele>75.75</ele><time>2026-04-04T14:37:35.999Z</time></trkpt><trkpt lat="46.015762030674004" lon="13.314614493454462"><ele>76.0</ele><time>2026-04-04T14:37:36.999Z</time></trkpt><trkpt lat="46.015863412565956" lon="13.31468957965591"><ele>76.25</ele><time>2026-04-04T14:37:37.999Z</time></trkpt><trkpt lat="46.01593699008597" lon="13.31482103216992"><ele>76.5</ele><time>2026-04-04T14:37:38.999Z</time></trkpt><trkpt lat="46.015971094232555" lon="13.314984766431424"><ele>76.75</ele><time>2026-04-04T14:37:39.999Z</time></trkpt><trkpt lat="46.01596359840565" lon="13.315161185053617"><ele>77.0</ele><time>2026-04-04T14:37:40.999Z</time></trkpt><trkpt lat="46.015983544329885" lon="13.31534457983965"><ele>77.0</ele><time>2026-04-04T14:37:41.999Z</time></trkpt><trkpt lat="46.01590435137264" lon="13.315562421196335"><ele>77.0</ele><time>2026-04-04T14:37:42.999Z</time></trkpt><trkpt lat="46.01588580836732" lon="13.31581440427745"><ele>77.0</ele><time>2026-04-04T14:37:43.999Z</time></trkpt><trkpt lat="46.01585826113082" lon="13.316102082989593"><ele>74.5</ele><time>2026-04-04T14:37:44.999Z</time></trkpt><trkpt lat="46.0158094287256" lon="13.31640874828616"><ele>72.0</ele><time>2026-04-04T14:37:45.999Z</time></trkpt><trkpt lat="46.01574814884665" lon="13.31673539907427"><ele>72.0</ele><time>2026-04-04T14:37:46.999Z</time></trkpt><trkpt lat="46.01567345440819" lon="13.317071454295018"><ele>72.0</ele><time>2026-04-04T14:37:47.999Z</time></trkpt><trkpt lat="46.01558707614148" lon="13.31739824445022"><ele>72.5</ele><time>2026-04-04T14:37:48.999Z</time></trkpt><trkpt lat="46.01549319943865" lon="13.317699627236822"><ele>73.0</ele><time>2026-04-04T14:37:49.999Z</time></trkpt><trkpt lat="46.01539440633215" lon="13.317993214278033"><ele>73.33333333333333</ele><time>2026-04-04T14:37:50.999Z</time></trkpt><trkpt lat="46.01528164956137" lon="13.318272465870429"><ele>73.66666666666667</ele><time>2026-04-04T14:37:51.999Z</time></trkpt><trkpt lat="46.015156651964396" lon="13.31854107269724"><ele>74.0</ele><time>2026-04-04T14:37:52.999Z</time></trkpt><trkpt lat="46.01502347367626" lon="13.318798244181684"><ele>72.66666666666667</ele><time>2026-04-04T14:37:53.999Z</time></trkpt><trkpt lat="46.014890021029416" lon="13.31904697256834"><ele>71.33333333333333</ele><time>2026-04-04T14:37:54.999Z</time></trkpt><trkpt lat="46.01476544933554" lon="13.319282384165856"><ele>70.0</ele><time>2026-04-04T14:37:55.999Z</time></trkpt><trkpt lat="46.01465474942291" lon="13.319499367538233"><ele>70.0</ele><time>2026-04-04T14:37:56.999Z</time></trkpt><trkpt lat="46.014553669450244" lon="13.31969078380164"><ele>70.0</ele><time>2026-04-04T14:37:57.999Z</time></trkpt><trkpt lat="46.014457511787526" lon="13.319850952994237"><ele>70.0</ele><time>2026-04-04T14:37:58.999Z</time></trkpt><trkpt lat="46.01435864001563" lon="13.319977049574"><ele>70.0</ele><time>2026-04-04T14:37:59.999Z</time></trkpt><trkpt lat="46.01426821645414" lon="13.320073785814282"><ele>70.25</ele><time>2026-04-04T14:38:00.999Z</time></trkpt><trkpt lat="46.01415849710131" lon="13.320160337768847"><ele>70.5</ele><time>2026-04-04T14:38:01.999Z</time></trkpt><trkpt lat="46.01402060700823" lon="13.320240199148001"><ele>70.75</ele><time>2026-04-04T14:38:02.999Z</time></trkpt><trkpt lat="46.013883582819574" lon="13.320359477592755"><ele>71.0</ele><time>2026-04-04T14:38:03.999Z</time></trkpt><trkpt lat="46.01373459863791" lon="13.320486189755139"><ele>71.33333333333334</ele><time>2026-04-04T14:38:04.999Z</time></trkpt><trkpt lat="46.01357809035731" lon="13.320621141707626"><ele>71.66666666666667</ele><time>2026-04-04T14:38:05.999Z</time></trkpt><trkpt lat="46.013433805684286" lon="13.320773227872897"><ele>72.0</ele><time>2026-04-04T14:38:06.999Z</time></trkpt><trkpt lat="46.01328261785425" lon="13.32093927486518"><ele>72.33333333333333</ele><time>2026-04-04T14:38:07.999Z</time></trkpt><trkpt lat="46.013116253020385" lon="13.32110597806273"><ele>72.66666666666666</ele><time>2026-04-04T14:38:08.999Z</time></trkpt><trkpt lat="46.01294544510213" lon="13.321278534660573"><ele>73.0</ele><time>2026-04-04T14:38:09.999Z</time></trkpt><trkpt lat="46.012774585110634" lon="13.32145622276857"><ele>73.0</ele><time>2026-04-04T14:38:11Z</time></trkpt><trkpt lat="46.01260637695201" lon="13.3216298618551"><ele>73.0</ele><time>2026-04-04T14:38:12Z</time></trkpt><trkpt lat="46.01244240450438" lon="13.32180389960705"><ele>73.0</ele><time>2026-04-04T14:38:13Z</time></trkpt><trkpt lat="46.012279551972554" lon="13.3219729193896"><ele>73.0</ele><time>2026-04-04T14:38:14Z</time></trkpt><trkpt lat="46.01211533023813" lon="13.32213544662535"><ele>73.0</ele><time>2026-04-04T14:38:15Z</time></trkpt><trkpt lat="46.011950674290674" lon="13.322290846558406"><ele>73.0</ele><time>2026-04-04T14:38:16Z</time></trkpt><trkpt lat="46.01177540583102" lon="13.322419134583395"><ele>72.0</ele><time>2026-04-04T14:38:17Z</time></trkpt><trkpt lat="46.011610865136454" lon="13.322568650834443"><ele>71.0</ele><time>2026-04-04T14:38:18Z</time></trkpt><trkpt lat="46.011447756032915" lon="13.3227172861214"><ele>70.0</ele><time>2026-04-04T14:38:19Z</time></trkpt><trkpt lat="46.01130389093774" lon="13.322875697689417"><ele>70.0</ele><time>2026-04-04T14:38:20Z</time></trkpt><trkpt lat="46.01116828843941" lon="13.323002470496421"><ele>70.0</ele><time>2026-04-04T14:38:21Z</time></trkpt><trkpt lat="46.01105493691399" lon="13.323106905400483"><ele>70.0</ele><time>2026-04-04T14:38:22Z</time></trkpt><trkpt lat="46.01095429510019" lon="13.323197147085109"><ele>70.0</ele><time>2026-04-04T14:38:23Z</time></trkpt><trkpt lat="46.01087613582326" lon="13.323267128783847"><ele>70.4</ele><time>2026-04-04T14:38:24Z</time></trkpt><trkpt lat="46.010810639141674" lon="13.32332260014042"><ele>70.8</ele><time>2026-04-04T14:38:25Z</time></trkpt><trkpt lat="46.01072173120193" lon="13.323345389532088"><ele>71.2</ele><time>2026-04-04T14:38:26Z</time></trkpt><trkpt lat="46.01062253525726" lon="13.3234171166937"><ele>71.6</ele><time>2026-04-04T14:38:27Z</time></trkpt><trkpt lat="46.01051677441907" lon="13.323515238333895"><ele>72.0</ele><time>2026-04-04T14:38:28Z</time></trkpt><trkpt lat="46.01037464840818" lon="13.323584205510048"><ele>72.0</ele><time>2026-04-04T14:38:29Z</time></trkpt><trkpt lat="46.010219341167584" lon="13.323662968350757"><ele>72.0</ele><time>2026-04-04T14:38:30Z</time></trkpt><trkpt lat="46.010042623213764" lon="13.323754988497763"><ele>72.0</ele><time>2026-04-04T14:38:31Z</time></trkpt><trkpt lat="46.00984676818257" lon="13.323856737480902"><ele>70.5</ele><time>2026-04-04T14:38:32Z</time></trkpt><trkpt lat="46.00963779382657" lon="13.323965249055794"><ele>69.0</ele><time>2026-04-04T14:38:33Z</time></trkpt><trkpt lat="46.00941836378887" lon="13.324078578686793"><ele>69.0</ele><time>2026-04-04T14:38:34Z</time></trkpt><trkpt lat="46.0091912068733" lon="13.324194973859953"><ele>69.0</ele><time>2026-04-04T14:38:35Z</time></trkpt><trkpt lat="46.00895691594206" lon="13.324315024483733"><ele>69.0</ele><time>2026-04-04T14:38:36Z</time></trkpt><trkpt lat="46.00872284948825" lon="13.324458029176549"><ele>69.0</ele><time>2026-04-04T14:38:37Z</time></trkpt><trkpt lat="46.008484728190375" lon="13.324579013426446"><ele>69.5</ele><time>2026-04-04T14:38:38Z</time></trkpt><trkpt lat="46.008252975130404" lon="13.324697723763016"><ele>70.0</ele><time>2026-04-04T14:38:39Z</time></trkpt><trkpt lat="46.00802405024061" lon="13.324806992409185"><ele>70.5</ele><time>2026-04-04T14:38:40Z</time></trkpt><trkpt lat="46.007786971002076" lon="13.324899679126258"><ele>71.0</ele><time>2026-04-04T14:38:41Z</time></trkpt><trkpt lat="46.00754194009323" lon="13.32497031904784"><ele>69.0</ele><time>2026-04-04T14:38:42Z</time></trkpt><trkpt lat="46.0072900519861" lon="13.325040476797883"><ele>67.0</ele><time>2026-04-04T14:38:43Z</time></trkpt><trkpt lat="46.007048132256216" lon="13.32509389209373"><ele>67.0</ele><time>2026-04-04T14:38:44Z</time></trkpt><trkpt lat="46.00682617201806" lon="13.325162746408934"><ele>67.0</ele><time>2026-04-04T14:38:45Z</time></trkpt><trkpt lat="46.00660391972895" lon="13.325276912787123"><ele>66.0</ele><time>2026-04-04T14:38:46Z</time></trkpt><trkpt lat="46.00639799354935" lon="13.32544488678669"><ele>65.0</ele><time>2026-04-04T14:38:47Z</time></trkpt><trkpt lat="46.00617590007362" lon="13.325557366792822"><ele>65.0</ele><time>2026-04-04T14:38:48Z</time></trkpt><trkpt lat="46.00594971120216" lon="13.3256387711336"><ele>65.0</ele><time>2026-04-04T14:38:49Z</time></trkpt><trkpt lat="46.005734273016394" lon="13.325737813729226"><ele>65.0</ele><time>2026-04-04T14:38:49.999Z</time></trkpt><trkpt lat="46.00552705008133" lon="13.325833112385581"><ele>65.0</ele><time>2026-04-04T14:38:50.999Z</time></trkpt><trkpt lat="46.00533827611086" lon="13.325921472548597"><ele>65.0</ele><time>2026-04-04T14:38:51.999Z</time></trkpt><trkpt lat="46.00515239828235" lon="13.32600847706975"><ele>65.0</ele><time>2026-04-04T14:38:52.999Z</time></trkpt><trkpt lat="46.004974600846126" lon="13.326116466704537"><ele>65.0</ele><time>2026-04-04T14:38:53.999Z</time></trkpt><trkpt lat="46.00479504620557" lon="13.326193278497321"><ele>65.0</ele><time>2026-04-04T14:38:54.999Z</time></trkpt><trkpt lat="46.004626601902345" lon="13.326266153936864"><ele>65.0</ele><time>2026-04-04T14:38:55.999Z</time></trkpt><trkpt lat="46.004479041983494" lon="13.326337852160135"><ele>65.0</ele><time>2026-04-04T14:38:56.999Z</time></trkpt><trkpt lat="46.00435218978661" lon="13.326395722453508"><ele>65.0</ele><time>2026-04-04T14:38:57.999Z</time></trkpt><trkpt lat="46.004238438939986" lon="13.326451398993616"><ele>65.0</ele><time>2026-04-04T14:38:58.999Z</time></trkpt><trkpt lat="46.00412554100686" lon="13.326518765964064"><ele>65.33333333333334</ele><time>2026-04-04T14:38:59.999Z</time></trkpt><trkpt lat="46.00404613555489" lon="13.326670145453544"><ele>65.66666666666667</ele><time>2026-04-04T14:39:00.999Z</time></trkpt><trkpt lat="46.00395278700048" lon="13.326862048606266"><ele>66.0</ele><time>2026-04-04T14:39:01.999Z</time></trkpt><trkpt lat="46.00383607863224" lon="13.32707450987889"><ele>66.0</ele><time>2026-04-04T14:39:02.999Z</time></trkpt><trkpt lat="46.003695992780166" lon="13.327317204632621"><ele>66.0</ele><time>2026-04-04T14:39:03.999Z</time></trkpt><trkpt lat="46.003541324441315" lon="13.327589472610322"><ele>66.0</ele><time>2026-04-04T14:39:04.999Z</time></trkpt><trkpt lat="46.00338549948009" lon="13.327867137373255"><ele>66.0</ele><time>2026-04-04T14:39:05.999Z</time></trkpt><trkpt lat="46.00324113871894" lon="13.32812586469954"><ele>65.0</ele><time>2026-04-04T14:39:06.999Z</time></trkpt><trkpt lat="46.003113299427476" lon="13.328377309855838"><ele>64.0</ele><time>2026-04-04T14:39:07.999Z</time></trkpt><trkpt lat="46.00300649535531" lon="13.328647252688045"><ele>63.0</ele><time>2026-04-04T14:39:08.999Z</time></trkpt><trkpt lat="46.00291141179435" lon="13.328942392605608"><ele>63.0</ele><time>2026-04-04T14:39:09.999Z</time></trkpt><trkpt lat="46.00280600448393" lon="13.32924768514501"><ele>63.0</ele><time>2026-04-04T14:39:10.999Z</time></trkpt><trkpt lat="46.00270994134225" lon="13.329574153611036"><ele>64.0</ele><time>2026-04-04T14:39:11.999Z</time></trkpt><trkpt lat="46.00261445167596" lon="13.329898667655087"><ele>65.0</ele><time>2026-04-04T14:39:12.999Z</time></trkpt><trkpt lat="46.00253058099824" lon="13.330189923030279"><ele>65.0</ele><time>2026-04-04T14:39:13.999Z</time></trkpt><trkpt lat="46.00245386280998" lon="13.330455280548458"><ele>65.0</ele><time>2026-04-04T14:39:14.999Z</time></trkpt><trkpt lat="46.00238377097383" lon="13.330697719088096"><ele>65.0</ele><time>2026-04-04T14:39:15.999Z</time></trkpt><trkpt lat="46.00232544995742" lon="13.330899430854991"><ele>65.0</ele><time>2026-04-04T14:39:16.999Z</time></trkpt><trkpt lat="46.00227885062641" lon="13.331059626050004"><ele>65.0</ele><time>2026-04-04T14:39:17.999Z</time></trkpt><trkpt lat="46.00224222221585" lon="13.33118554473448"><ele>65.0</ele><time>2026-04-04T14:39:18.999Z</time></trkpt><trkpt lat="46.00221055132862" lon="13.331291659873816"><ele>65.0</ele><time>2026-04-04T14:39:19.999Z</time></trkpt><trkpt lat="46.002173898627206" lon="13.33139702983683"><ele>65.0</ele><time>2026-04-04T14:39:20.999Z</time></trkpt><trkpt lat="46.002189884614594" lon="13.331585188920721"><ele>65.0</ele><time>2026-04-04T14:39:21.999Z</time></trkpt><trkpt lat="46.00222057598599" lon="13.331763108763154"><ele>65.0</ele><time>2026-04-04T14:39:22.999Z</time></trkpt><trkpt lat="46.002273139787555" lon="13.331970527715974"><ele>65.0</ele><time>2026-04-04T14:39:23.999Z</time></trkpt><trkpt lat="46.00231382840541" lon="13.3322169281797"><ele>65.66666666666667</ele><time>2026-04-04T14:39:24.999Z</time></trkpt><trkpt lat="46.0023580024821" lon="13.332489961365772"><ele>66.33333333333333</ele><time>2026-04-04T14:39:25.999Z</time></trkpt><trkpt lat="46.00240660392327" lon="13.332765710074328"><ele>67.0</ele><time>2026-04-04T14:39:26.999Z</time></trkpt><trkpt lat="46.00244921398062" lon="13.33300642739521"><ele>67.0</ele><time>2026-04-04T14:39:27.999Z</time></trkpt><trkpt lat="46.002481434214204" lon="13.333202735195746"><ele>67.0</ele><time>2026-04-04T14:39:28.999Z</time></trkpt><trkpt lat="46.00251820128499" lon="13.33337265345774"><ele>67.0</ele><time>2026-04-04T14:39:29.999Z</time></trkpt><trkpt lat="46.002570626386046" lon="13.333504834711443"><ele>67.0</ele><time>2026-04-04T14:39:30.999Z</time></trkpt><trkpt lat="46.002638607422625" lon="13.333594257140428"><ele>67.0</ele><time>2026-04-04T14:39:31.999Z</time></trkpt><trkpt lat="46.00269791334003" lon="13.333690162198087"><ele>67.0</ele><time>2026-04-04T14:39:32.999Z</time></trkpt><trkpt lat="46.00273564389313" lon="13.333787965165437"><ele>67.0</ele><time>2026-04-04T14:39:33.999Z</time></trkpt><trkpt lat="46.00275325217099" lon="13.333877623133544"><ele>67.0</ele><time>2026-04-04T14:39:34.999Z</time></trkpt><trkpt lat="46.00272390721192" lon="13.334023102416866"><ele>67.0</ele><time>2026-04-04T14:39:36.999Z</time></trkpt><trkpt lat="46.00268626528564" lon="13.334102499292209"><ele>67.0</ele><time>2026-04-04T14:39:37.999Z</time></trkpt><trkpt lat="46.00262460506909" lon="13.33417028776621"><ele>67.25</ele><time>2026-04-04T14:39:38.999Z</time></trkpt><trkpt lat="46.00250648565812" lon="13.334211299273425"><ele>67.5</ele><time>2026-04-04T14:39:39.999Z</time></trkpt><trkpt lat="46.00236243137324" lon="13.334250107760074"><ele>67.75</ele><time>2026-04-04T14:39:40.999Z</time></trkpt><trkpt lat="46.00218853860508" lon="13.334317643249998"><ele>68.0</ele><time>2026-04-04T14:39:41.999Z</time></trkpt><trkpt lat="46.00199419516689" lon="13.33439312129841"><ele>67.33333333333334</ele><time>2026-04-04T14:39:42.999Z</time></trkpt><trkpt lat="46.00178392630619" lon="13.3344747845192"><ele>66.66666666666667</ele><time>2026-04-04T14:39:43.999Z</time></trkpt><trkpt lat="46.0015643398498" lon="13.334560066753827"><ele>66.0</ele><time>2026-04-04T14:39:44.999Z</time></trkpt><trkpt lat="46.00134766400113" lon="13.334644861337331"><ele>66.0</ele><time>2026-04-04T14:39:45.999Z</time></trkpt><trkpt lat="46.00113777461606" lon="13.334726914192812"><ele>66.0</ele><time>2026-04-04T14:39:46.999Z</time></trkpt><trkpt lat="46.00094054275137" lon="13.334804018773882"><ele>66.0</ele><time>2026-04-04T14:39:47.999Z</time></trkpt><trkpt lat="46.0007620361277" lon="13.334874114281945"><ele>65.33333333333333</ele><time>2026-04-04T14:39:48.999Z</time></trkpt><trkpt lat="46.000597760213076" lon="13.334940199351736"><ele>64.66666666666666</ele><time>2026-04-04T14:39:49.999Z</time></trkpt><trkpt lat="46.000451476147035" lon="13.334999046659627"><ele>64.0</ele><time>2026-04-04T14:39:50.999Z</time></trkpt><trkpt lat="46.00032536884341" lon="13.335071406921088"><ele>64.0</ele><time>2026-04-04T14:39:51.999Z</time></trkpt><trkpt lat="46.00021730464194" lon="13.335115374403882"><ele>64.0</ele><time>2026-04-04T14:39:52.999Z</time></trkpt><trkpt lat="46.00013460367792" lon="13.335151440366541"><ele>64.0</ele><time>2026-04-04T14:39:53.999Z</time></trkpt><trkpt lat="46.00006240930627" lon="13.335185066914537"><ele>64.0</ele><time>2026-04-04T14:39:54.999Z</time></trkpt><trkpt lat="46.00001960314178" lon="13.335312516527393"><ele>64.0</ele><time>2026-04-04T14:39:55.999Z</time></trkpt><trkpt lat="46.00004358840717" lon="13.335492501152567"><ele>64.25</ele><time>2026-04-04T14:39:56.999Z</time></trkpt><trkpt lat="46.00006987015311" lon="13.33568575449769"><ele>64.5</ele><time>2026-04-04T14:39:57.999Z</time></trkpt><trkpt lat="46.00010755047195" lon="13.335907867860021"><ele>64.75</ele><time>2026-04-04T14:39:58.999Z</time></trkpt><trkpt lat="46.000135685468855" lon="13.336115327675907"><ele>65.0</ele><time>2026-04-04T14:39:59.999Z</time></trkpt><trkpt lat="46.00016588127267" lon="13.3363017426775"><ele>65.25</ele><time>2026-04-04T14:40:00.999Z</time></trkpt><trkpt lat="46.0002003166343" lon="13.336465075624107"><ele>65.5</ele><time>2026-04-04T14:40:01.999Z</time></trkpt><trkpt lat="46.00022321597112" lon="13.336621515898132"><ele>65.75</ele><time>2026-04-04T14:40:02.999Z</time></trkpt><trkpt lat="46.0002179169828" lon="13.336787522638133"><ele>66.0</ele><time>2026-04-04T14:40:03.999Z</time></trkpt><trkpt lat="46.00016364978154" lon="13.336948832122953"><ele>66.0</ele><time>2026-04-04T14:40:04.999Z</time></trkpt><trkpt lat="46.000117365095846" lon="13.337131135510177"><ele>66.0</ele><time>2026-04-04T14:40:05.999Z</time></trkpt><trkpt lat="46.00010554918593" lon="13.33734348580134"><ele>66.0</ele><time>2026-04-04T14:40:06.999Z</time></trkpt><trkpt lat="46.0000992936112" lon="13.337578463168562"><ele>66.0</ele><time>2026-04-04T14:40:07.999Z</time></trkpt><trkpt lat="46.000082082583" lon="13.337805000001199"><ele>65.8</ele><time>2026-04-04T14:40:08.999Z</time></trkpt><trkpt lat="46.00008923283073" lon="13.337976847293136"><ele>65.6</ele><time>2026-04-04T14:40:09.999Z</time></trkpt><trkpt lat="46.00008341821103" lon="13.338090653812914"><ele>65.4</ele><time>2026-04-04T14:40:10.999Z</time></trkpt><trkpt lat="46.00003783160298" lon="13.338250269016012"><ele>65.2</ele><time>2026-04-04T14:40:12.999Z</time></trkpt><trkpt lat="45.99994493203921" lon="13.338259542362238"><ele>65.0</ele><time>2026-04-04T14:40:13.999Z</time></trkpt><trkpt lat="45.99986699912096" lon="13.338364461191624"><ele>65.0</ele><time>2026-04-04T14:40:14.999Z</time></trkpt><trkpt lat="45.999828832045" lon="13.338549692489112"><ele>65.0</ele><time>2026-04-04T14:40:16Z</time></trkpt><trkpt lat="45.99977478680242" lon="13.338731956284878"><ele>65.0</ele><time>2026-04-04T14:40:17Z</time></trkpt><trkpt lat="45.99972562228406" lon="13.338906029490046"><ele>65.0</ele><time>2026-04-04T14:40:18Z</time></trkpt><trkpt lat="45.99966088888667" lon="13.339060618864504"><ele>65.25</ele><time>2026-04-04T14:40:19Z</time></trkpt><trkpt lat="45.99957596413644" lon="13.339192063327246"><ele>65.5</ele><time>2026-04-04T14:40:20Z</time></trkpt><trkpt lat="45.99946338044855" lon="13.339273226293331"><ele>65.75</ele><time>2026-04-04T14:40:21Z</time></trkpt><trkpt lat="45.99934699240697" lon="13.339357976627618"><ele>66.0</ele><time>2026-04-04T14:40:22Z</time></trkpt><trkpt lat="45.99921863358252" lon="13.339467333697709"><ele>65.66666666666667</ele><time>2026-04-04T14:40:23Z</time></trkpt><trkpt lat="45.99906756308745" lon="13.339553808548692"><ele>65.33333333333334</ele><time>2026-04-04T14:40:24Z</time></trkpt><trkpt lat="45.998936739237955" lon="13.339670642516385"><ele>65.0</ele><time>2026-04-04T14:40:25Z</time></trkpt><trkpt lat="45.998796253566965" lon="13.339726498514459"><ele>65.0</ele><time>2026-04-04T14:40:26Z</time></trkpt><trkpt lat="45.99865103923839" lon="13.339755603136455"><ele>65.0</ele><time>2026-04-04T14:40:27Z</time></trkpt><trkpt lat="45.998501929280465" lon="13.339746549439374"><ele>65.0</ele><time>2026-04-04T14:40:28Z</time></trkpt><trkpt lat="45.99834391934342" lon="13.3397008834197"><ele>64.5</ele><time>2026-04-04T14:40:29Z</time></trkpt><trkpt lat="45.99819708463865" lon="13.339650597248747"><ele>64.0</ele><time>2026-04-04T14:40:30Z</time></trkpt><trkpt lat="45.99806670124236" lon="13.33961843028026"><ele>63.5</ele><time>2026-04-04T14:40:31Z</time></trkpt><trkpt lat="45.99795147661331" lon="13.339606432158861"><ele>63.0</ele><time>2026-04-04T14:40:32Z</time></trkpt><trkpt lat="45.99784778410481" lon="13.339635704419033"><ele>63.0</ele><time>2026-04-04T14:40:33Z</time></trkpt><trkpt lat="45.99775557598571" lon="13.339711873854082"><ele>63.0</ele><time>2026-04-04T14:40:34Z</time></trkpt><trkpt lat="45.997676950236546" lon="13.339842892126244"><ele>63.0</ele><time>2026-04-04T14:40:35Z</time></trkpt><trkpt lat="45.99760657960819" lon="13.340029405021737"><ele>63.0</ele><time>2026-04-04T14:40:36Z</time></trkpt><trkpt lat="45.99754076956476" lon="13.34021102475541"><ele>63.25</ele><time>2026-04-04T14:40:37Z</time></trkpt><trkpt lat="45.99747617667489" lon="13.340352229025456"><ele>63.5</ele><time>2026-04-04T14:40:38Z</time></trkpt><trkpt lat="45.99738712551253" lon="13.34046218307965"><ele>63.75</ele><time>2026-04-04T14:40:39Z</time></trkpt><trkpt lat="45.99727072635282" lon="13.340518164008168"><ele>64.0</ele><time>2026-04-04T14:40:40Z</time></trkpt><trkpt lat="45.997139574854984" lon="13.340539947573294"><ele>64.0</ele><time>2026-04-04T14:40:41Z</time></trkpt><trkpt lat="45.99700189726775" lon="13.340538465453026"><ele>64.0</ele><time>2026-04-04T14:40:42Z</time></trkpt><trkpt lat="45.99687936528018" lon="13.340464727954117"><ele>64.0</ele><time>2026-04-04T14:40:43Z</time></trkpt><trkpt lat="45.99677757174704" lon="13.340383309541743"><ele>64.0</ele><time>2026-04-04T14:40:44Z</time></trkpt><trkpt lat="45.99668714126661" lon="13.340321224659508"><ele>63.99999999999999</ele><time>2026-04-04T14:40:45Z</time></trkpt><trkpt lat="45.99660563219331" lon="13.34026872790216"><ele>64.0</ele><time>2026-04-04T14:40:46Z</time></trkpt><trkpt lat="45.99653265974554" lon="13.340218882782157"><ele>64.0</ele><time>2026-04-04T14:40:47Z</time></trkpt><trkpt lat="45.9964675220552" lon="13.340174720110648"><ele>64.0</ele><time>2026-04-04T14:40:48Z</time></trkpt><trkpt lat="45.99640375232216" lon="13.340132145928651"><ele>63.99999999999999</ele><time>2026-04-04T14:40:49Z</time></trkpt><trkpt lat="45.99633393096437" lon="13.340086220003265"><ele>64.0</ele><time>2026-04-04T14:40:50Z</time></trkpt><trkpt lat="45.99624474747244" lon="13.340018687861486"><ele>64.0</ele><time>2026-04-04T14:40:51Z</time></trkpt><trkpt lat="45.99612345853792" lon="13.339946355759585"><ele>64.0</ele><time>2026-04-04T14:40:52Z</time></trkpt><trkpt lat="45.995963353118206" lon="13.339913400678238"><ele>64.0</ele><time>2026-04-04T14:40:52.999Z</time></trkpt><trkpt lat="45.99579160432031" lon="13.339927577950784"><ele>63.33333333333333</ele><time>2026-04-04T14:40:53.999Z</time></trkpt><trkpt lat="45.995614992814915" lon="13.339990898084093"><ele>62.66666666666667</ele><time>2026-04-04T14:40:54.999Z</time></trkpt><trkpt lat="45.99543289054124" lon="13.340097975293688"><ele>62.0</ele><time>2026-04-04T14:40:55.999Z</time></trkpt><trkpt lat="45.995235824721306" lon="13.340227091194874"><ele>62.0</ele><time>2026-04-04T14:40:56.999Z</time></trkpt><trkpt lat="45.995030064830985" lon="13.340353654983948"><ele>62.0</ele><time>2026-04-04T14:40:57.999Z</time></trkpt><trkpt lat="45.99481537705751" lon="13.340490615566443"><ele>62.0</ele><time>2026-04-04T14:40:58.999Z</time></trkpt><trkpt lat="45.99459446783248" lon="13.34060490534968"><ele>62.0</ele><time>2026-04-04T14:40:59.999Z</time></trkpt><trkpt lat="45.99438566377846" lon="13.340734761066676"><ele>62.0</ele><time>2026-04-04T14:41:00.999Z</time></trkpt><trkpt lat="45.99418735159833" lon="13.340883597372423"><ele>62.0</ele><time>2026-04-04T14:41:01.999Z</time></trkpt><trkpt lat="45.9939844052177" lon="13.341000188499082"><ele>62.0</ele><time>2026-04-04T14:41:02.999Z</time></trkpt><trkpt lat="45.99376492525803" lon="13.341063491752895"><ele>62.0</ele><time>2026-04-04T14:41:03.999Z</time></trkpt><trkpt lat="45.993532490844615" lon="13.341146728948926"><ele>62.0</ele><time>2026-04-04T14:41:04.999Z</time></trkpt><trkpt lat="45.99328472951803" lon="13.341215929017947"><ele>61.0</ele><time>2026-04-04T14:41:05.999Z</time></trkpt><trkpt lat="45.99303164857948" lon="13.341293920333785"><ele>60.0</ele><time>2026-04-04T14:41:06.999Z</time></trkpt><trkpt lat="45.99277781895342" lon="13.341378818177123"><ele>60.0</ele><time>2026-04-04T14:41:07.999Z</time></trkpt><trkpt lat="45.992531417106385" lon="13.341468754958788"><ele>60.0</ele><time>2026-04-04T14:41:08.999Z</time></trkpt><trkpt lat="45.992288150236064" lon="13.341562462580432"><ele>59.5</ele><time>2026-04-04T14:41:09.999Z</time></trkpt><trkpt lat="45.99204465982298" lon="13.341629225626269"><ele>59.0</ele><time>2026-04-04T14:41:10.999Z</time></trkpt><trkpt lat="45.991810163612676" lon="13.34171567507441"><ele>58.0</ele><time>2026-04-04T14:41:11.999Z</time></trkpt><trkpt lat="45.99157915216941" lon="13.341800839914566"><ele>57.0</ele><time>2026-04-04T14:41:12.999Z</time></trkpt><trkpt lat="45.99135184839912" lon="13.341886407702889"><ele>57.0</ele><time>2026-04-04T14:41:13.999Z</time></trkpt><trkpt lat="45.99112495021714" lon="13.341972058506695"><ele>57.0</ele><time>2026-04-04T14:41:14.999Z</time></trkpt><trkpt lat="45.99089730616444" lon="13.342057787802538"><ele>57.0</ele><time>2026-04-04T14:41:15.999Z</time></trkpt><trkpt lat="45.990673052188356" lon="13.342140642211028"><ele>57.0</ele><time>2026-04-04T14:41:16.999Z</time></trkpt><trkpt lat="45.99045193771293" lon="13.342222336688206"><ele>57.0</ele><time>2026-04-04T14:41:17.999Z</time></trkpt><trkpt lat="45.990235532791694" lon="13.342326711115597"><ele>57.0</ele><time>2026-04-04T14:41:18.999Z</time></trkpt><trkpt lat="45.99001195855142" lon="13.342401704256163"><ele>57.5</ele><time>2026-04-04T14:41:19.999Z</time></trkpt><trkpt lat="45.98978363957369" lon="13.342467535098402"><ele>58.0</ele><time>2026-04-04T14:41:20.999Z</time></trkpt><trkpt lat="45.98954341359273" lon="13.342488541824466"><ele>58.0</ele><time>2026-04-04T14:41:21.999Z</time></trkpt><trkpt lat="45.98929045106075" lon="13.34254487516246"><ele>58.0</ele><time>2026-04-04T14:41:22.999Z</time></trkpt><trkpt lat="45.98902659804674" lon="13.342572904082889"><ele>58.5</ele><time>2026-04-04T14:41:23.999Z</time></trkpt><trkpt lat="45.988754416592116" lon="13.342604687826949"><ele>59.0</ele><time>2026-04-04T14:41:24.999Z</time></trkpt><trkpt lat="45.98847090147885" lon="13.342626438753216"><ele>58.5</ele><time>2026-04-04T14:41:25.999Z</time></trkpt><trkpt lat="45.98818366334229" lon="13.342694090180835"><ele>58.0</ele><time>2026-04-04T14:41:26.999Z</time></trkpt><trkpt lat="45.98789166274337" lon="13.34278936055293"><ele>58.0</ele><time>2026-04-04T14:41:27.999Z</time></trkpt><trkpt lat="45.9875968906436" lon="13.342915568627706"><ele>58.0</ele><time>2026-04-04T14:41:28.999Z</time></trkpt><trkpt lat="45.98731475277898" lon="13.343055796363625"><ele>57.5</ele><time>2026-04-04T14:41:29.999Z</time></trkpt><trkpt lat="45.98704812329651" lon="13.343193583398852"><ele>57.0</ele><time>2026-04-04T14:41:30.999Z</time></trkpt><trkpt lat="45.986809237347806" lon="13.343329706294371"><ele>57.0</ele><time>2026-04-04T14:41:31.999Z</time></trkpt><trkpt lat="45.98658886673937" lon="13.343455544721355"><ele>57.0</ele><time>2026-04-04T14:41:32.999Z</time></trkpt><trkpt lat="45.98638259770676" lon="13.343567588999651"><ele>57.0</ele><time>2026-04-04T14:41:33.999Z</time></trkpt><trkpt lat="45.98619721561706" lon="13.34366768321913"><ele>57.0</ele><time>2026-04-04T14:41:34.999Z</time></trkpt><trkpt lat="45.986035999417204" lon="13.343754729594897"><ele>57.0</ele><time>2026-04-04T14:41:35.999Z</time></trkpt><trkpt lat="45.98589788926376" lon="13.343829124575272"><ele>57.0</ele><time>2026-04-04T14:41:36.999Z</time></trkpt><trkpt lat="45.98577991538186" lon="13.343892414115473"><ele>57.0</ele><time>2026-04-04T14:41:37.999Z</time></trkpt><trkpt lat="45.98569549444644" lon="13.34395911267709"><ele>57.0</ele><time>2026-04-04T14:41:38.999Z</time></trkpt><trkpt lat="45.98561322621851" lon="13.343967623484291"><ele>57.0</ele><time>2026-04-04T14:41:39.999Z</time></trkpt><trkpt lat="45.98553952908436" lon="13.343915752004419"><ele>57.0</ele><time>2026-04-04T14:41:40.999Z</time></trkpt><trkpt lat="45.985452771950904" lon="13.343812709909882"><ele>57.0</ele><time>2026-04-04T14:41:41.999Z</time></trkpt><trkpt lat="45.98534950766615" lon="13.343688175237688"><ele>57.0</ele><time>2026-04-04T14:41:42.999Z</time></trkpt><trkpt lat="45.98522548732082" lon="13.343575082499019"><ele>57.0</ele><time>2026-04-04T14:41:43.999Z</time></trkpt><trkpt lat="45.98512917348184" lon="13.343475193031992"><ele>57.0</ele><time>2026-04-04T14:41:44.999Z</time></trkpt><trkpt lat="45.98503998768707" lon="13.343403891532576"><ele>57.400000000000006</ele><time>2026-04-04T14:41:45.999Z</time></trkpt><trkpt lat="45.98494145429242" lon="13.343357686025264"><ele>57.800000000000004</ele><time>2026-04-04T14:41:46.999Z</time></trkpt><trkpt lat="45.98483832477704" lon="13.343362524021131"><ele>58.2</ele><time>2026-04-04T14:41:47.999Z</time></trkpt><trkpt lat="45.984739093020394" lon="13.343424652964144"><ele>58.6</ele><time>2026-04-04T14:41:48.999Z</time></trkpt><trkpt lat="45.9846531310101" lon="13.343530621725659"><ele>59.0</ele><time>2026-04-04T14:41:49.999Z</time></trkpt><trkpt lat="45.98456228978888" lon="13.343625708985902"><ele>59.0</ele><time>2026-04-04T14:41:50.999Z</time></trkpt><trkpt lat="45.98448404922416" lon="13.343740502312293"><ele>59.0</ele><time>2026-04-04T14:41:51.999Z</time></trkpt><trkpt lat="45.98437956570489" lon="13.343797764031354"><ele>59.0</ele><time>2026-04-04T14:41:52.999Z</time></trkpt><trkpt lat="45.984266902898476" lon="13.343852898694408"><ele>59.0</ele><time>2026-04-04T14:41:53.999Z</time></trkpt><trkpt lat="45.984148861125504" lon="13.343891329458598"><ele>58.400000000000006</ele><time>2026-04-04T14:41:54.999Z</time></trkpt><trkpt lat="45.984029510574736" lon="13.34395691448574"><ele>57.800000000000004</ele><time>2026-04-04T14:41:55.999Z</time></trkpt><trkpt lat="45.983928165002176" lon="13.344035387424872"><ele>57.199999999999996</ele><time>2026-04-04T14:41:56.999Z</time></trkpt><trkpt lat="45.98384825507496" lon="13.344105674892678"><ele>56.599999999999994</ele><time>2026-04-04T14:41:57.999Z</time></trkpt><trkpt lat="45.983777927078194" lon="13.34416865284146"><ele>56.0</ele><time>2026-04-04T14:41:58.999Z</time></trkpt><trkpt lat="45.98368888413775" lon="13.344220242738494"><ele>56.0</ele><time>2026-04-04T14:42:00.999Z</time></trkpt><trkpt lat="45.983625318417" lon="13.344081492870705"><ele>56.0</ele><time>2026-04-04T14:42:01.999Z</time></trkpt><trkpt lat="45.98358001241295" lon="13.343930028563241"><ele>56.0</ele><time>2026-04-04T14:42:02.999Z</time></trkpt><trkpt lat="45.98351477450795" lon="13.343756363668968"><ele>56.0</ele><time>2026-04-04T14:42:03.999Z</time></trkpt><trkpt lat="45.983436295315734" lon="13.343558612312975"><ele>56.0</ele><time>2026-04-04T14:42:04.999Z</time></trkpt><trkpt lat="45.983354794958096" lon="13.343383744115481"><ele>56.0</ele><time>2026-04-04T14:42:05.999Z</time></trkpt><trkpt lat="45.98328122464195" lon="13.343231133959076"><ele>56.0</ele><time>2026-04-04T14:42:06.999Z</time></trkpt><trkpt lat="45.98320187997172" lon="13.343109422626771"><ele>56.0</ele><time>2026-04-04T14:42:07.999Z</time></trkpt><trkpt lat="45.98310112028164" lon="13.343030385538722"><ele>56.0</ele><time>2026-04-04T14:42:08.999Z</time></trkpt><trkpt lat="45.98298066574894" lon="13.34297709767451"><ele>56.0</ele><time>2026-04-04T14:42:09.999Z</time></trkpt><trkpt lat="45.982842695118" lon="13.343042579526301"><ele>56.0</ele><time>2026-04-04T14:42:10.999Z</time></trkpt><trkpt lat="45.98270597178668" lon="13.343097892805341"><ele>56.0</ele><time>2026-04-04T14:42:11.999Z</time></trkpt><trkpt lat="45.98256980643288" lon="13.34313047710446"><ele>56.0</ele><time>2026-04-04T14:42:12.999Z</time></trkpt><trkpt lat="45.98244023877776" lon="13.343093545749282"><ele>55.99999999999999</ele><time>2026-04-04T14:42:13.999Z</time></trkpt><trkpt lat="45.98233400961081" lon="13.342989619411306"><ele>55.99999999999999</ele><time>2026-04-04T14:42:14.999Z</time></trkpt><trkpt lat="45.982242645565385" lon="13.342921963573984"><ele>56.0</ele><time>2026-04-04T14:42:15.999Z</time></trkpt><trkpt lat="45.982170754613605" lon="13.342872289432105"><ele>56.0</ele><time>2026-04-04T14:42:16.999Z</time></trkpt><trkpt lat="45.982139123490704" lon="13.342789996690684"><ele>55.25</ele><time>2026-04-04T14:42:17.999Z</time></trkpt><trkpt lat="45.98207732636921" lon="13.34275935848684"><ele>54.5</ele><time>2026-04-04T14:42:18.999Z</time></trkpt><trkpt lat="45.98206462443877" lon="13.342498297796887"><ele>53.75</ele><time>2026-04-04T14:42:19.999Z</time></trkpt><trkpt lat="45.98199349245148" lon="13.342254294156273"><ele>53.0</ele><time>2026-04-04T14:42:20.999Z</time></trkpt><trkpt lat="45.981904853223725" lon="13.341947771141191"><ele>53.0</ele><time>2026-04-04T14:42:22Z</time></trkpt><trkpt lat="45.98180094526171" lon="13.341601369767485"><ele>53.0</ele><time>2026-04-04T14:42:23Z</time></trkpt><trkpt lat="45.9816916027954" lon="13.341228757569564"><ele>53.0</ele><time>2026-04-04T14:42:24Z</time></trkpt><trkpt lat="45.98158649293822" lon="13.340865449490455"><ele>53.0</ele><time>2026-04-04T14:42:25Z</time></trkpt><trkpt lat="45.98147650200823" lon="13.340524668459485"><ele>53.0</ele><time>2026-04-04T14:42:26Z</time></trkpt><trkpt lat="45.98134477172155" lon="13.340213142080568"><ele>53.0</ele><time>2026-04-04T14:42:27Z</time></trkpt><trkpt lat="45.981193975982926" lon="13.33990722764112"><ele>53.5</ele><time>2026-04-04T14:42:28Z</time></trkpt><trkpt lat="45.981039265236284" lon="13.339599234270882"><ele>54.0</ele><time>2026-04-04T14:42:29Z</time></trkpt><trkpt lat="45.98088415988988" lon="13.339289064203033"><ele>54.5</ele><time>2026-04-04T14:42:30Z</time></trkpt><trkpt lat="45.98072996294901" lon="13.338976024442326"><ele>55.0</ele><time>2026-04-04T14:42:31Z</time></trkpt><trkpt lat="45.980573077709074" lon="13.33866291080133"><ele>56.0</ele><time>2026-04-04T14:42:32Z</time></trkpt><trkpt lat="45.98042450565223" lon="13.33833657341772"><ele>57.0</ele><time>2026-04-04T14:42:33Z</time></trkpt><trkpt lat="45.980266249182044" lon="13.338016985022252"><ele>57.0</ele><time>2026-04-04T14:42:34Z</time></trkpt><trkpt lat="45.980107703984004" lon="13.337695313671118"><ele>57.0</ele><time>2026-04-04T14:42:35Z</time></trkpt><trkpt lat="45.97994800737433" lon="13.337371444042553"><ele>57.0</ele><time>2026-04-04T14:42:36Z</time></trkpt><trkpt lat="45.97977897183909" lon="13.337052932650915"><ele>57.0</ele><time>2026-04-04T14:42:37Z</time></trkpt><trkpt lat="45.97962351513572" lon="13.336717171703643"><ele>57.0</ele><time>2026-04-04T14:42:38Z</time></trkpt><trkpt lat="45.979468517632014" lon="13.336380666524956"><ele>57.0</ele><time>2026-04-04T14:42:39Z</time></trkpt><trkpt lat="45.97931693651884" lon="13.336046768593949"><ele>58.0</ele><time>2026-04-04T14:42:40Z</time></trkpt><trkpt lat="45.97916494067882" lon="13.335714299298248"><ele>59.0</ele><time>2026-04-04T14:42:41Z</time></trkpt><trkpt lat="45.97901497046952" lon="13.335380739858723"><ele>59.0</ele><time>2026-04-04T14:42:42Z</time></trkpt><trkpt lat="45.97886780500451" lon="13.335043687205728"><ele>59.0</ele><time>2026-04-04T14:42:43Z</time></trkpt><trkpt lat="45.9787161513699" lon="13.334698568889028"><ele>59.0</ele><time>2026-04-04T14:42:44Z</time></trkpt><trkpt lat="45.97856350921162" lon="13.334348281754824"><ele>59.0</ele><time>2026-04-04T14:42:45Z</time></trkpt><trkpt lat="45.978409825870315" lon="13.333993810699283"><ele>56.5</ele><time>2026-04-04T14:42:46Z</time></trkpt><trkpt lat="45.97825293605353" lon="13.333636055976868"><ele>54.0</ele><time>2026-04-04T14:42:47Z</time></trkpt><trkpt lat="45.97809407253469" lon="13.333275776203475"><ele>54.5</ele><time>2026-04-04T14:42:48Z</time></trkpt><trkpt lat="45.97793708058263" lon="13.332913839105524"><ele>55.0</ele><time>2026-04-04T14:42:49Z</time></trkpt><trkpt lat="45.977782906193404" lon="13.332559134205532"><ele>56.0</ele><time>2026-04-04T14:42:50Z</time></trkpt><trkpt lat="45.977636399913564" lon="13.33222300592768"><ele>57.0</ele><time>2026-04-04T14:42:51Z</time></trkpt><trkpt lat="45.97749747434459" lon="13.331908668393643"><ele>57.0</ele><time>2026-04-04T14:42:52Z</time></trkpt><trkpt lat="45.97736707212466" lon="13.331615268259338"><ele>57.0</ele><time>2026-04-04T14:42:53Z</time></trkpt><trkpt lat="45.97724672106523" lon="13.331345404283981"><ele>57.0</ele><time>2026-04-04T14:42:54Z</time></trkpt><trkpt lat="45.9771444614247" lon="13.331067248670205"><ele>57.0</ele><time>2026-04-04T14:42:55Z</time></trkpt><trkpt lat="45.977028293069466" lon="13.330802881081972"><ele>57.0</ele><time>2026-04-04T14:42:56Z</time></trkpt><trkpt lat="45.97691488207637" lon="13.330544788682118"><ele>57.66666666666667</ele><time>2026-04-04T14:42:57Z</time></trkpt><trkpt lat="45.97681019799996" lon="13.330306556165507"><ele>58.333333333333336</ele><time>2026-04-04T14:42:57.999Z</time></trkpt><trkpt lat="45.97670959445992" lon="13.330077614887465"><ele>59.0</ele><time>2026-04-04T14:42:58.999Z</time></trkpt><trkpt lat="45.97659571201061" lon="13.329864527393763"><ele>59.0</ele><time>2026-04-04T14:42:59.999Z</time></trkpt><trkpt lat="45.97650735136654" lon="13.329642479468543"><ele>59.0</ele><time>2026-04-04T14:43:00.999Z</time></trkpt><trkpt lat="45.97643087893552" lon="13.329425391033867"><ele>59.0</ele><time>2026-04-04T14:43:01.999Z</time></trkpt><trkpt lat="45.97636589228419" lon="13.329189556832354"><ele>59.0</ele><time>2026-04-04T14:43:02.999Z</time></trkpt><trkpt lat="45.97631311321193" lon="13.328965151063858"><ele>59.0</ele><time>2026-04-04T14:43:03.999Z</time></trkpt><trkpt lat="45.9762848402852" lon="13.32876198130118"><ele>59.0</ele><time>2026-04-04T14:43:04.999Z</time></trkpt><trkpt lat="45.976237591805926" lon="13.328587809961034"><ele>59.0</ele><time>2026-04-04T14:43:05.999Z</time></trkpt><trkpt lat="45.97619208885601" lon="13.328420105124346"><ele>59.0</ele><time>2026-04-04T14:43:06.999Z</time></trkpt><trkpt lat="45.976148433606326" lon="13.328259210436247"><ele>59.0</ele><time>2026-04-04T14:43:07.999Z</time></trkpt><trkpt lat="45.97606312244253" lon="13.328143073938097"><ele>59.0</ele><time>2026-04-04T14:43:08.999Z</time></trkpt><trkpt lat="45.9760015086696" lon="13.328015180248116"><ele>59.0</ele><time>2026-04-04T14:43:09.999Z</time></trkpt><trkpt lat="45.97595924506383" lon="13.327857853358575"><ele>59.0</ele><time>2026-04-04T14:43:10.999Z</time></trkpt><trkpt lat="45.97595319956651" lon="13.327666683249744"><ele>59.0</ele><time>2026-04-04T14:43:11.999Z</time></trkpt><trkpt lat="45.97589446367306" lon="13.327471163569198"><ele>59.0</ele><time>2026-04-04T14:43:12.999Z</time></trkpt><trkpt lat="45.97585015974175" lon="13.327255971443611"><ele>59.0</ele><time>2026-04-04T14:43:13.999Z</time></trkpt><trkpt lat="45.97579989503969" lon="13.327037801290405"><ele>59.0</ele><time>2026-04-04T14:43:14.999Z</time></trkpt><trkpt lat="45.97573895645172" lon="13.326822461518582"><ele>59.0</ele><time>2026-04-04T14:43:15.999Z</time></trkpt><trkpt lat="45.9756728203184" lon="13.326609711487604"><ele>59.0</ele><time>2026-04-04T14:43:16.999Z</time></trkpt><trkpt lat="45.97561405023109" lon="13.326401736789231"><ele>58.5</ele><time>2026-04-04T14:43:17.999Z</time></trkpt><trkpt lat="45.97555805934673" lon="13.326205445067792"><ele>58.0</ele><time>2026-04-04T14:43:18.999Z</time></trkpt><trkpt lat="45.97550130684842" lon="13.32601406532337"><ele>57.5</ele><time>2026-04-04T14:43:19.999Z</time></trkpt><trkpt lat="45.97544960151637" lon="13.3258217188564"><ele>57.0</ele><time>2026-04-04T14:43:20.999Z</time></trkpt><trkpt lat="45.97539960917496" lon="13.325632875116742"><ele>57.0</ele><time>2026-04-04T14:43:21.999Z</time></trkpt><trkpt lat="45.97534864378149" lon="13.325446818429315"><ele>57.0</ele><time>2026-04-04T14:43:22.999Z</time></trkpt><trkpt lat="45.9753128908114" lon="13.325250372059491"><ele>57.0</ele><time>2026-04-04T14:43:23.999Z</time></trkpt><trkpt lat="45.97526281036406" lon="13.325063132135838"><ele>57.0</ele><time>2026-04-04T14:43:24.999Z</time></trkpt><trkpt lat="45.975211022400686" lon="13.324875535791081"><ele>56.75</ele><time>2026-04-04T14:43:25.999Z</time></trkpt><trkpt lat="45.97515446765222" lon="13.32468801293894"><ele>56.5</ele><time>2026-04-04T14:43:26.999Z</time></trkpt><trkpt lat="45.975081062041546" lon="13.324513572185552"><ele>56.25</ele><time>2026-04-04T14:43:27.999Z</time></trkpt><trkpt lat="45.97502599715271" lon="13.324329731600843"><ele>56.0</ele><time>2026-04-04T14:43:28.999Z</time></trkpt><trkpt lat="45.97497026212748" lon="13.324146399909285"><ele>56.5</ele><time>2026-04-04T14:43:29.999Z</time></trkpt><trkpt lat="45.97491479334696" lon="13.323959703310248"><ele>57.0</ele><time>2026-04-04T14:43:30.999Z</time></trkpt><trkpt lat="45.974860835003085" lon="13.323774599697405"><ele>57.5</ele><time>2026-04-04T14:43:31.999Z</time></trkpt><trkpt lat="45.97480392316283" lon="13.323588698569187"><ele>58.0</ele><time>2026-04-04T14:43:32.999Z</time></trkpt><trkpt lat="45.97474727990312" lon="13.323404573493917"><ele>58.0</ele><time>2026-04-04T14:43:33.999Z</time></trkpt><trkpt lat="45.9746951478822" lon="13.323219991288266"><ele>58.0</ele><time>2026-04-04T14:43:34.999Z</time></trkpt><trkpt lat="45.974644123570435" lon="13.323038830065524"><ele>58.0</ele><time>2026-04-04T14:43:35.999Z</time></trkpt><trkpt lat="45.97459398742801" lon="13.32287397808239"><ele>58.0</ele><time>2026-04-04T14:43:36.999Z</time></trkpt><trkpt lat="45.974550839230915" lon="13.322727285627314"><ele>57.99999999999999</ele><time>2026-04-04T14:43:37.999Z</time></trkpt><trkpt lat="45.97451544559001" lon="13.322598228477952"><ele>58.0</ele><time>2026-04-04T14:43:38.999Z</time></trkpt><trkpt lat="45.97448748227459" lon="13.322478914468538"><ele>58.0</ele><time>2026-04-04T14:43:39.999Z</time></trkpt><trkpt lat="45.97446706588154" lon="13.322361135419404"><ele>58.0</ele><time>2026-04-04T14:43:40.999Z</time></trkpt><trkpt lat="45.97445546218223" lon="13.322256457525189"><ele>57.99999999999999</ele><time>2026-04-04T14:43:41.999Z</time></trkpt><trkpt lat="45.97445934250041" lon="13.322155902769643"><ele>58.0</ele><time>2026-04-04T14:43:42.999Z</time></trkpt><trkpt lat="45.97445402803235" lon="13.322056989593637"><ele>58.0</ele><time>2026-04-04T14:43:43.999Z</time></trkpt><trkpt lat="45.97434391099919" lon="13.321956184853745"><ele>58.0</ele><time>2026-04-04T14:43:44.999Z</time></trkpt><trkpt lat="45.974263176439635" lon="13.321860378975312"><ele>58.0</ele><time>2026-04-04T14:43:45.999Z</time></trkpt><trkpt lat="45.97417384635869" lon="13.321744491306127"><ele>58.0</ele><time>2026-04-04T14:43:46.999Z</time></trkpt><trkpt lat="45.9740836972546" lon="13.321601466238468"><ele>57.75</ele><time>2026-04-04T14:43:47.999Z</time></trkpt><trkpt lat="45.9740008432975" lon="13.321442557482081"><ele>57.5</ele><time>2026-04-04T14:43:48.999Z</time></trkpt><trkpt lat="45.973930213166604" lon="13.321277357277733"><ele>57.25</ele><time>2026-04-04T14:43:49.999Z</time></trkpt><trkpt lat="45.973865531280374" lon="13.321101557106351"><ele>57.0</ele><time>2026-04-04T14:43:50.999Z</time></trkpt><trkpt lat="45.97379206895609" lon="13.320920208934053"><ele>57.0</ele><time>2026-04-04T14:43:51.999Z</time></trkpt><trkpt lat="45.97372245508948" lon="13.320757159641879"><ele>57.0</ele><time>2026-04-04T14:43:52.999Z</time></trkpt><trkpt lat="45.9736531341862" lon="13.320630352327878"><ele>57.0</ele><time>2026-04-04T14:43:53.999Z</time></trkpt><trkpt lat="45.97360425467101" lon="13.32049928139454"><ele>57.0</ele><time>2026-04-04T14:43:54.999Z</time></trkpt><trkpt lat="45.973552605264054" lon="13.320370027222538"><ele>57.0</ele><time>2026-04-04T14:43:55.999Z</time></trkpt><trkpt lat="45.97349062412506" lon="13.320249651147966"><ele>57.0</ele><time>2026-04-04T14:43:56.999Z</time></trkpt><trkpt lat="45.97340806447585" lon="13.320163710996662"><ele>57.0</ele><time>2026-04-04T14:43:57.999Z</time></trkpt><trkpt lat="45.97329845397481" lon="13.320136483268703"><ele>57.0</ele><time>2026-04-04T14:43:58.999Z</time></trkpt><trkpt lat="45.97317690563941" lon="13.320138843652416"><ele>57.0</ele><time>2026-04-04T14:43:59.999Z</time></trkpt><trkpt lat="45.97305625900118" lon="13.32012925155753"><ele>56.8</ele><time>2026-04-04T14:44:00.999Z</time></trkpt><trkpt lat="45.97294735927061" lon="13.320091214044572"><ele>56.6</ele><time>2026-04-04T14:44:01.999Z</time></trkpt><trkpt lat="45.97284209581863" lon="13.320054652313019"><ele>56.39999999999999</ele><time>2026-04-04T14:44:02.999Z</time></trkpt><trkpt lat="45.97274907645091" lon="13.319984282558886"><ele>56.199999999999996</ele><time>2026-04-04T14:44:03.999Z</time></trkpt><trkpt lat="45.972651560142076" lon="13.31993098083202"><ele>56.0</ele><time>2026-04-04T14:44:04.999Z</time></trkpt><trkpt lat="45.9725568366085" lon="13.319864838551984"><ele>56.0</ele><time>2026-04-04T14:44:05.999Z</time></trkpt><trkpt lat="45.972474031545" lon="13.319776878673062"><ele>55.99999999999999</ele><time>2026-04-04T14:44:06.999Z</time></trkpt><trkpt lat="45.97240050240527" lon="13.319669453930587"><ele>55.99999999999999</ele><time>2026-04-04T14:44:07.999Z</time></trkpt><trkpt lat="45.97233138359445" lon="13.31955360322189"><ele>56.0</ele><time>2026-04-04T14:44:08.999Z</time></trkpt><trkpt lat="45.97227221194903" lon="13.319448721633487"><ele>56.0</ele><time>2026-04-04T14:44:09.999Z</time></trkpt><trkpt lat="45.97221167783687" lon="13.319345106480469"><ele>56.0</ele><time>2026-04-04T14:44:10.999Z</time></trkpt><trkpt lat="45.97214929560451" lon="13.319242240737617"><ele>55.99999999999999</ele><time>2026-04-04T14:44:11.999Z</time></trkpt><trkpt lat="45.972086643314476" lon="13.319132190648764"><ele>55.99999999999999</ele><time>2026-04-04T14:44:12.999Z</time></trkpt><trkpt lat="45.97202210906775" lon="13.319016455008185"><ele>56.0</ele><time>2026-04-04T14:44:13.999Z</time></trkpt><trkpt lat="45.97195722099275" lon="13.318885368528997"><ele>56.0</ele><time>2026-04-04T14:44:14.999Z</time></trkpt><trkpt lat="45.97187445675302" lon="13.318686235581128"><ele>55.66666666666667</ele><time>2026-04-04T14:44:15.999Z</time></trkpt><trkpt lat="45.971774583360705" lon="13.318423484824994"><ele>55.33333333333333</ele><time>2026-04-04T14:44:16.999Z</time></trkpt><trkpt lat="45.971677726438" lon="13.318167502111065"><ele>55.0</ele><time>2026-04-04T14:44:17.999Z</time></trkpt><trkpt lat="45.971599075218265" lon="13.317956779976175"><ele>54.75</ele><time>2026-04-04T14:44:18.999Z</time></trkpt><trkpt lat="45.97152734638531" lon="13.317765398675334"><ele>54.5</ele><time>2026-04-04T14:44:19.999Z</time></trkpt><trkpt lat="45.9714567585231" lon="13.317587920698548"><ele>54.25</ele><time>2026-04-04T14:44:20.999Z</time></trkpt><trkpt lat="45.97136359859989" lon="13.317432177042603"><ele>54.0</ele><time>2026-04-04T14:44:21.999Z</time></trkpt><trkpt lat="45.97125047297659" lon="13.317310279097986"><ele>54.0</ele><time>2026-04-04T14:44:22.999Z</time></trkpt><trkpt lat="45.97110261298779" lon="13.317237580578235"><ele>54.0</ele><time>2026-04-04T14:44:23.999Z</time></trkpt><trkpt lat="45.97093977509388" lon="13.317140407233806"><ele>54.0</ele><time>2026-04-04T14:44:24.999Z</time></trkpt><trkpt lat="45.970764527543324" lon="13.317016752749145"><ele>54.0</ele><time>2026-04-04T14:44:25.999Z</time></trkpt><trkpt lat="45.97057588379161" lon="13.316903371457224"><ele>54.0</ele><time>2026-04-04T14:44:26.999Z</time></trkpt><trkpt lat="45.970380108259725" lon="13.316789229797173"><ele>54.0</ele><time>2026-04-04T14:44:28Z</time></trkpt><trkpt lat="45.97018645604982" lon="13.316697220687887"><ele>54.0</ele><time>2026-04-04T14:44:29Z</time></trkpt><trkpt lat="45.969993724370426" lon="13.316641363112385"><ele>54.0</ele><time>2026-04-04T14:44:30Z</time></trkpt><trkpt lat="45.969808677199524" lon="13.316601879779917"><ele>54.0</ele><time>2026-04-04T14:44:31Z</time></trkpt><trkpt lat="45.96964030099376" lon="13.316567128413757"><ele>54.0</ele><time>2026-04-04T14:44:32Z</time></trkpt><trkpt lat="45.969483632454406" lon="13.316528013607124"><ele>54.0</ele><time>2026-04-04T14:44:33Z</time></trkpt><trkpt lat="45.969338337591836" lon="13.316458386183319"><ele>54.0</ele><time>2026-04-04T14:44:34Z</time></trkpt><trkpt lat="45.96923361253088" lon="13.316293016919554"><ele>53.66666666666667</ele><time>2026-04-04T14:44:35Z</time></trkpt><trkpt lat="45.96911751492202" lon="13.316130995167592"><ele>53.333333333333336</ele><time>2026-04-04T14:44:36Z</time></trkpt><trkpt lat="45.96901377421197" lon="13.315927128344054"><ele>53.0</ele><time>2026-04-04T14:44:37Z</time></trkpt><trkpt lat="45.968931980942614" lon="13.315758645740287"><ele>53.0</ele><time>2026-04-04T14:44:38Z</time></trkpt><trkpt lat="45.96884566456357" lon="13.315623956680724"><ele>53.0</ele><time>2026-04-04T14:44:39Z</time></trkpt><trkpt lat="45.96873783347479" lon="13.3155563542216"><ele>53.0</ele><time>2026-04-04T14:44:40Z</time></trkpt><trkpt lat="45.96860944980927" lon="13.315512145435797"><ele>53.0</ele><time>2026-04-04T14:44:41Z</time></trkpt><trkpt lat="45.96845760555021" lon="13.315490817483967"><ele>53.333333333333336</ele><time>2026-04-04T14:44:42Z</time></trkpt><trkpt lat="45.968285963809535" lon="13.315612714965853"><ele>53.66666666666667</ele><time>2026-04-04T14:44:43Z</time></trkpt><trkpt lat="45.96810477083019" lon="13.315739480506293"><ele>54.0</ele><time>2026-04-04T14:44:44Z</time></trkpt><trkpt lat="45.96791221835145" lon="13.315887974190993"><ele>54.0</ele><time>2026-04-04T14:44:45Z</time></trkpt><trkpt lat="45.96775271633112" lon="13.3160020093149"><ele>54.0</ele><time>2026-04-04T14:44:46Z</time></trkpt><trkpt lat="45.967614720791545" lon="13.316116774453647"><ele>54.0</ele><time>2026-04-04T14:44:47Z</time></trkpt><trkpt lat="45.96748155665902" lon="13.316179805787288"><ele>53.75</ele><time>2026-04-04T14:44:48Z</time></trkpt><trkpt lat="45.96734901996288" lon="13.31620255684502"><ele>53.5</ele><time>2026-04-04T14:44:49Z</time></trkpt><trkpt lat="45.967223346847696" lon="13.316134663651042"><ele>53.25</ele><time>2026-04-04T14:44:50Z</time></trkpt><trkpt lat="45.9670600185906" lon="13.316058763632128"><ele>53.0</ele><time>2026-04-04T14:44:51Z</time></trkpt><trkpt lat="45.96689491363066" lon="13.315935890070024"><ele>53.0</ele><time>2026-04-04T14:44:52Z</time></trkpt><trkpt lat="45.96675972874489" lon="13.315840609953797"><ele>53.0</ele><time>2026-04-04T14:44:53Z</time></trkpt><trkpt lat="45.96663446610464" lon="13.3157625240481"><ele>53.0</ele><time>2026-04-04T14:44:54Z</time></trkpt><trkpt lat="45.96652170831222" lon="13.31566044801716"><ele>53.0</ele><time>2026-04-04T14:44:55Z</time></trkpt><trkpt lat="45.96638497317017" lon="13.315565152478845"><ele>53.0</ele><time>2026-04-04T14:44:56Z</time></trkpt><trkpt lat="45.96622118396735" lon="13.31545544522995"><ele>53.0</ele><time>2026-04-04T14:44:57Z</time></trkpt><trkpt lat="45.966020863227726" lon="13.31532902767464"><ele>53.0</ele><time>2026-04-04T14:44:58Z</time></trkpt><trkpt lat="45.96584479124602" lon="13.315218912090367"><ele>53.25</ele><time>2026-04-04T14:44:59Z</time></trkpt><trkpt lat="45.9656917014126" lon="13.315148561996299"><ele>53.5</ele><time>2026-04-04T14:44:59.999Z</time></trkpt><trkpt lat="45.96556759061128" lon="13.315053022208811"><ele>53.75</ele><time>2026-04-04T14:45:00.999Z</time></trkpt><trkpt lat="45.96546295144297" lon="13.314905177268415"><ele>54.0</ele><time>2026-04-04T14:45:01.999Z</time></trkpt><trkpt lat="45.965382878506276" lon="13.314701763524974"><ele>54.0</ele><time>2026-04-04T14:45:02.999Z</time></trkpt><trkpt lat="45.9652946811738" lon="13.314471497924364"><ele>54.0</ele><time>2026-04-04T14:45:03.999Z</time></trkpt><trkpt lat="45.96517998646386" lon="13.31421150867972"><ele>54.0</ele><time>2026-04-04T14:45:04.999Z</time></trkpt><trkpt lat="45.96508226902842" lon="13.31393775020736"><ele>53.33333333333333</ele><time>2026-04-04T14:45:05.999Z</time></trkpt><trkpt lat="45.96499975075542" lon="13.313722564514162"><ele>52.666666666666664</ele><time>2026-04-04T14:45:06.999Z</time></trkpt><trkpt lat="45.964917597017596" lon="13.313532048993752"><ele>52.0</ele><time>2026-04-04T14:45:07.999Z</time></trkpt><trkpt lat="45.964842945084975" lon="13.313358630349311"><ele>52.0</ele><time>2026-04-04T14:45:08.999Z</time></trkpt><trkpt lat="45.964723355438856" lon="13.31322064601184"><ele>52.0</ele><time>2026-04-04T14:45:09.999Z</time></trkpt><trkpt lat="45.96457350674999" lon="13.313115183682084"><ele>52.0</ele><time>2026-04-04T14:45:10.999Z</time></trkpt><trkpt lat="45.964425769397515" lon="13.313043944050449"><ele>52.25</ele><time>2026-04-04T14:45:11.999Z</time></trkpt><trkpt lat="45.96429630975363" lon="13.312962118720707"><ele>52.5</ele><time>2026-04-04T14:45:12.999Z</time></trkpt><trkpt lat="45.96417561987691" lon="13.312845172455287"><ele>52.75</ele><time>2026-04-04T14:45:13.999Z</time></trkpt><trkpt lat="45.96409329211147" lon="13.3126603987197"><ele>53.0</ele><time>2026-04-04T14:45:14.999Z</time></trkpt><trkpt lat="45.96399076382821" lon="13.312492689247462"><ele>53.0</ele><time>2026-04-04T14:45:15.999Z</time></trkpt><trkpt lat="45.96390059695702" lon="13.312333421545256"><ele>53.0</ele><time>2026-04-04T14:45:16.999Z</time></trkpt><trkpt lat="45.963790357311915" lon="13.312188686756674"><ele>53.0</ele><time>2026-04-04T14:45:17.999Z</time></trkpt><trkpt lat="45.963640513271244" lon="13.312101444334772"><ele>53.0</ele><time>2026-04-04T14:45:18.999Z</time></trkpt><trkpt lat="45.96350773960897" lon="13.312044867629332"><ele>53.0</ele><time>2026-04-04T14:45:19.999Z</time></trkpt><trkpt lat="45.9634079622937" lon="13.311984598280784"><ele>53.0</ele><time>2026-04-04T14:45:20.999Z</time></trkpt><trkpt lat="45.96331891579235" lon="13.311917014111563"><ele>53.0</ele><time>2026-04-04T14:45:21.999Z</time></trkpt><trkpt lat="45.96328445925117" lon="13.311754058738762"><ele>53.0</ele><time>2026-04-04T14:45:22.999Z</time></trkpt><trkpt lat="45.96322178953428" lon="13.311535603703652"><ele>53.0</ele><time>2026-04-04T14:45:23.999Z</time></trkpt><trkpt lat="45.963142921283755" lon="13.311274902117468"><ele>53.0</ele><time>2026-04-04T14:45:24.999Z</time></trkpt><trkpt lat="45.96302839803026" lon="13.310971373555496"><ele>52.66666666666667</ele><time>2026-04-04T14:45:25.999Z</time></trkpt><trkpt lat="45.96290491124285" lon="13.310679607590812"><ele>52.33333333333333</ele><time>2026-04-04T14:45:26.999Z</time></trkpt><trkpt lat="45.962797066481265" lon="13.310439007792723"><ele>52.0</ele><time>2026-04-04T14:45:27.999Z</time></trkpt><trkpt lat="45.96270565222255" lon="13.310231481944767"><ele>52.0</ele><time>2026-04-04T14:45:28.999Z</time></trkpt><trkpt lat="45.962632151347755" lon="13.31006183744991"><ele>52.0</ele><time>2026-04-04T14:45:29.999Z</time></trkpt><trkpt lat="45.96255580058799" lon="13.309922324969678"><ele>52.0</ele><time>2026-04-04T14:45:30.999Z</time></trkpt><trkpt lat="45.962456128995534" lon="13.309817393863083"><ele>52.0</ele><time>2026-04-04T14:45:31.999Z</time></trkpt><trkpt lat="45.96230762960331" lon="13.309790240707638"><ele>52.0</ele><time>2026-04-04T14:45:32.999Z</time></trkpt><trkpt lat="45.96216595330948" lon="13.309816587286749"><ele>52.0</ele><time>2026-04-04T14:45:33.999Z</time></trkpt><trkpt lat="45.96203957583007" lon="13.30981434987527"><ele>52.0</ele><time>2026-04-04T14:45:34.999Z</time></trkpt><trkpt lat="45.96192447442069" lon="13.309792007995851"><ele>52.0</ele><time>2026-04-04T14:45:35.999Z</time></trkpt><trkpt lat="45.96181986409936" lon="13.309677122085443"><ele>52.0</ele><time>2026-04-04T14:45:36.999Z</time></trkpt><trkpt lat="45.961758596257965" lon="13.30948952909738"><ele>52.0</ele><time>2026-04-04T14:45:37.999Z</time></trkpt><trkpt lat="45.96167607802069" lon="13.309291686708603"><ele>52.0</ele><time>2026-04-04T14:45:38.999Z</time></trkpt><trkpt lat="45.96159525525135" lon="13.309100478233576"><ele>52.0</ele><time>2026-04-04T14:45:39.999Z</time></trkpt><trkpt lat="45.961516719723036" lon="13.30890664351629"><ele>52.0</ele><time>2026-04-04T14:45:40.999Z</time></trkpt><trkpt lat="45.961448304242076" lon="13.308720273635641"><ele>52.0</ele><time>2026-04-04T14:45:41.999Z</time></trkpt><trkpt lat="45.961392433878096" lon="13.308564697026576"><ele>52.0</ele><time>2026-04-04T14:45:42.999Z</time></trkpt><trkpt lat="45.96134325501976" lon="13.308428834753203"><ele>52.0</ele><time>2026-04-04T14:45:43.999Z</time></trkpt><trkpt lat="45.961299658864796" lon="13.308312068176443"><ele>52.0</ele><time>2026-04-04T14:45:44.999Z</time></trkpt><trkpt lat="45.961268312867645" lon="13.30821202465393"><ele>52.0</ele><time>2026-04-04T14:45:45.999Z</time></trkpt><trkpt lat="45.961311104601144" lon="13.308034965176232"><ele>52.0</ele><time>2026-04-04T14:45:47.999Z</time></trkpt><trkpt lat="45.961387899943674" lon="13.307975259685568"><ele>52.0</ele><time>2026-04-04T14:45:48.999Z</time></trkpt><trkpt lat="45.96143487068398" lon="13.3078939439468"><ele>52.0</ele><time>2026-04-04T14:45:49.999Z</time></trkpt><trkpt lat="45.961436674769715" lon="13.307772969137478"><ele>52.0</ele><time>2026-04-04T14:45:50.999Z</time></trkpt><trkpt lat="45.96139335770866" lon="13.307639756149328"><ele>52.0</ele><time>2026-04-04T14:45:51.999Z</time></trkpt><trkpt lat="45.96132559479315" lon="13.307476876687652"><ele>52.0</ele><time>2026-04-04T14:45:52.999Z</time></trkpt><trkpt lat="45.96125402248379" lon="13.30727355635982"><ele>51.666666666666664</ele><time>2026-04-04T14:45:53.999Z</time></trkpt><trkpt lat="45.961202706138145" lon="13.307112798513307"><ele>51.33333333333333</ele><time>2026-04-04T14:45:54.999Z</time></trkpt><trkpt lat="45.961162090653886" lon="13.306990152649094"><ele>51.0</ele><time>2026-04-04T14:45:55.999Z</time></trkpt><trkpt lat="45.961118180182105" lon="13.306905119718918"><ele>50.66666666666667</ele><time>2026-04-04T14:45:56.999Z</time></trkpt><trkpt lat="45.96105490293787" lon="13.30686635004493"><ele>50.333333333333336</ele><time>2026-04-04T14:45:57.999Z</time></trkpt><trkpt lat="45.960985946977615" lon="13.306891776409985"><ele>50.0</ele><time>2026-04-04T14:45:58.999Z</time></trkpt><trkpt lat="45.960918212785245" lon="13.306960627748644"><ele>50.0</ele><time>2026-04-04T14:45:59.999Z</time></trkpt><trkpt lat="45.96084604860365" lon="13.306983033844059"><ele>50.0</ele><time>2026-04-04T14:46:00.999Z</time></trkpt><trkpt lat="45.960776229986884" lon="13.30692422376423"><ele>50.0</ele><time>2026-04-04T14:46:01.999Z</time></trkpt><trkpt lat="45.96073068869044" lon="13.306776450530155"><ele>50.0</ele><time>2026-04-04T14:46:02.999Z</time></trkpt><trkpt lat="45.96065443653119" lon="13.30655831697395"><ele>50.0</ele><time>2026-04-04T14:46:03.999Z</time></trkpt><trkpt lat="45.960559747483906" lon="13.306291308953465"><ele>50.0</ele><time>2026-04-04T14:46:04.999Z</time></trkpt><trkpt lat="45.96044381579418" lon="13.30598030267126"><ele>50.0</ele><time>2026-04-04T14:46:05.999Z</time></trkpt><trkpt lat="45.96031080688352" lon="13.305623483066915"><ele>49.5</ele><time>2026-04-04T14:46:06.999Z</time></trkpt><trkpt lat="45.96019113656446" lon="13.305297172774326"><ele>49.0</ele><time>2026-04-04T14:46:07.999Z</time></trkpt><trkpt lat="45.96007244768096" lon="13.305021326996242"><ele>49.0</ele><time>2026-04-04T14:46:08.999Z</time></trkpt><trkpt lat="45.95997851529814" lon="13.304761031783922"><ele>49.0</ele><time>2026-04-04T14:46:09.999Z</time></trkpt><trkpt lat="45.959895249710726" lon="13.304533676465315"><ele>49.0</ele><time>2026-04-04T14:46:10.999Z</time></trkpt><trkpt lat="45.95982890127585" lon="13.304341691311482"><ele>49.0</ele><time>2026-04-04T14:46:11.999Z</time></trkpt><trkpt lat="45.95977221336697" lon="13.304176127497964"><ele>49.0</ele><time>2026-04-04T14:46:12.999Z</time></trkpt><trkpt lat="45.95972928483499" lon="13.30405562165397"><ele>49.0</ele><time>2026-04-04T14:46:13.999Z</time></trkpt><trkpt lat="45.959690480482394" lon="13.30396853099367"><ele>49.0</ele><time>2026-04-04T14:46:14.999Z</time></trkpt><trkpt lat="45.95965888231789" lon="13.303849622628388"><ele>49.0</ele><time>2026-04-04T14:46:16.999Z</time></trkpt><trkpt lat="45.95950214179479" lon="13.303945907995805"><ele>49.0</ele><time>2026-04-04T14:46:17.999Z</time></trkpt><trkpt lat="45.95939011073125" lon="13.304026322635202"><ele>49.0</ele><time>2026-04-04T14:46:18.999Z</time></trkpt><trkpt lat="45.959245091627984" lon="13.304114969331863"><ele>49.0</ele><time>2026-04-04T14:46:19.999Z</time></trkpt><trkpt lat="45.9590724130869" lon="13.304211663779773"><ele>48.33333333333333</ele><time>2026-04-04T14:46:20.999Z</time></trkpt><trkpt lat="45.95888054529023" lon="13.304323764443536"><ele>47.666666666666664</ele><time>2026-04-04T14:46:21.999Z</time></trkpt><trkpt lat="45.95866251269004" lon="13.304466692549346"><ele>47.0</ele><time>2026-04-04T14:46:22.999Z</time></trkpt><trkpt lat="45.95842290635372" lon="13.30461532971368"><ele>47.0</ele><time>2026-04-04T14:46:23.999Z</time></trkpt><trkpt lat="45.95819704327462" lon="13.30474790792402"><ele>47.0</ele><time>2026-04-04T14:46:24.999Z</time></trkpt><trkpt lat="45.95799437923318" lon="13.304880765074003"><ele>47.0</ele><time>2026-04-04T14:46:25.999Z</time></trkpt><trkpt lat="45.95779497129143" lon="13.305015793464179"><ele>47.0</ele><time>2026-04-04T14:46:26.999Z</time></trkpt><trkpt lat="45.95761825186867" lon="13.305230224631574"><ele>47.0</ele><time>2026-04-04T14:46:27.999Z</time></trkpt><trkpt lat="45.9574670201372" lon="13.305503611390902"><ele>47.0</ele><time>2026-04-04T14:46:28.999Z</time></trkpt><trkpt lat="45.95728005165919" lon="13.30573651543023"><ele>47.5</ele><time>2026-04-04T14:46:29.999Z</time></trkpt><trkpt lat="45.957056735023315" lon="13.305923442611789"><ele>48.0</ele><time>2026-04-04T14:46:30.999Z</time></trkpt><trkpt lat="45.95677445893862" lon="13.30606157238533"><ele>48.0</ele><time>2026-04-04T14:46:31.999Z</time></trkpt><trkpt lat="45.95645408443496" lon="13.306237485627058"><ele>48.0</ele><time>2026-04-04T14:46:33Z</time></trkpt><trkpt lat="45.95608697480087" lon="13.306465785094987"><ele>47.0</ele><time>2026-04-04T14:46:34Z</time></trkpt><trkpt lat="45.95568547965337" lon="13.306691625313135"><ele>46.0</ele><time>2026-04-04T14:46:35Z</time></trkpt><trkpt lat="45.95526380333065" lon="13.306929043703938"><ele>46.0</ele><time>2026-04-04T14:46:36Z</time></trkpt><trkpt lat="45.95486349508647" lon="13.307151859605575"><ele>46.0</ele><time>2026-04-04T14:46:37Z</time></trkpt><trkpt lat="45.95448082012969" lon="13.307354011513537"><ele>45.5</ele><time>2026-04-04T14:46:38Z</time></trkpt><trkpt lat="45.95410856380728" lon="13.3075320046713"><ele>45.0</ele><time>2026-04-04T14:46:39Z</time></trkpt><trkpt lat="45.95374070599941" lon="13.307680718472254"><ele>45.0</ele><time>2026-04-04T14:46:40Z</time></trkpt><trkpt lat="45.95338339391496" lon="13.307817038521367"><ele>45.0</ele><time>2026-04-04T14:46:41Z</time></trkpt><trkpt lat="45.953034543215125" lon="13.307958645673375"><ele>45.0</ele><time>2026-04-04T14:46:42Z</time></trkpt><trkpt lat="45.95269569298382" lon="13.308098093850557"><ele>45.0</ele><time>2026-04-04T14:46:43Z</time></trkpt><trkpt lat="45.95236859958123" lon="13.308234283307687"><ele>45.5</ele><time>2026-04-04T14:46:44Z</time></trkpt><trkpt lat="45.952067701459576" lon="13.308360547038593"><ele>46.0</ele><time>2026-04-04T14:46:45Z</time></trkpt><trkpt lat="45.95179183190496" lon="13.308475461534744"><ele>46.0</ele><time>2026-04-04T14:46:46Z</time></trkpt><trkpt lat="45.95153614687174" lon="13.308583064353066"><ele>46.0</ele><time>2026-04-04T14:46:47Z</time></trkpt><trkpt lat="45.95129546725611" lon="13.308679332550344"><ele>46.0</ele><time>2026-04-04T14:46:48Z</time></trkpt><trkpt lat="45.951077910642496" lon="13.30876593193654"><ele>46.0</ele><time>2026-04-04T14:46:49Z</time></trkpt><trkpt lat="45.95087830565593" lon="13.308844786085285"><ele>46.0</ele><time>2026-04-04T14:46:50Z</time></trkpt><trkpt lat="45.950693619021656" lon="13.308918780854128"><ele>45.66666666666667</ele><time>2026-04-04T14:46:51Z</time></trkpt><trkpt lat="45.95053111972738" lon="13.308984150744738"><ele>45.333333333333336</ele><time>2026-04-04T14:46:52Z</time></trkpt><trkpt lat="45.950384049492975" lon="13.309039789732923"><ele>45.0</ele><time>2026-04-04T14:46:53Z</time></trkpt><trkpt lat="45.95025303307939" lon="13.309089420813054"><ele>45.0</ele><time>2026-04-04T14:46:54Z</time></trkpt><trkpt lat="45.95013402005325" lon="13.309133301819195"><ele>45.0</ele><time>2026-04-04T14:46:55Z</time></trkpt><trkpt lat="45.95003436206432" lon="13.30917105557276"><ele>45.0</ele><time>2026-04-04T14:46:56Z</time></trkpt><trkpt lat="45.94994515877171" lon="13.309205488185452"><ele>45.0</ele><time>2026-04-04T14:46:57Z</time></trkpt><trkpt lat="45.9498695797581" lon="13.309236411834878"><ele>45.0</ele><time>2026-04-04T14:46:58Z</time></trkpt><trkpt lat="45.949783104550946" lon="13.30926716382973"><ele>45.14285714285714</ele><time>2026-04-04T14:47:00Z</time></trkpt><trkpt lat="45.94968752859293" lon="13.309244663201772"><ele>45.28571428571429</ele><time>2026-04-04T14:47:07.999Z</time></trkpt><trkpt lat="45.949672305076234" lon="13.309143213226264"><ele>45.42857142857143</ele><time>2026-04-04T14:47:08.999Z</time></trkpt><trkpt lat="45.94963995921287" lon="13.30905759386265"><ele>45.57142857142857</ele><time>2026-04-04T14:47:09.999Z</time></trkpt><trkpt lat="45.949607844508904" lon="13.3089708731066"><ele>45.71428571428571</ele><time>2026-04-04T14:47:11.999Z</time></trkpt><trkpt lat="45.94957674852747" lon="13.308886888041666"><ele>45.85714285714286</ele><time>2026-04-04T14:47:13.999Z</time></trkpt><trkpt lat="45.94950409569813" lon="13.308913139322962"><ele>46.0</ele><time>2026-04-04T14:47:28.999Z</time></trkpt><trkpt lat="45.94957553682484" lon="13.308989740630608"><ele>46.0</ele><time>2026-04-04T14:50:05.999Z</time></trkpt><trkpt lat="45.949616058596035" lon="13.309071035724136"><ele>46.0</ele><time>2026-04-04T14:50:06.999Z</time></trkpt><trkpt lat="45.949655005030465" lon="13.309197268744096"><ele>46.0</ele><time>2026-04-04T14:50:07.999Z</time></trkpt><trkpt lat="45.949721439688936" lon="13.309370322813763"><ele>46.0</ele><time>2026-04-04T14:50:08.999Z</time></trkpt><trkpt lat="45.94981242219627" lon="13.309585753296135"><ele>46.0</ele><time>2026-04-04T14:50:09.999Z</time></trkpt><trkpt lat="45.94991283102608" lon="13.309833580500309"><ele>46.0</ele><time>2026-04-04T14:50:10.999Z</time></trkpt><trkpt lat="45.95002345634682" lon="13.310087801396849"><ele>46.0</ele><time>2026-04-04T14:50:11.999Z</time></trkpt><trkpt lat="45.950144664475715" lon="13.310329137026168"><ele>46.0</ele><time>2026-04-04T14:50:12.999Z</time></trkpt><trkpt lat="45.95026908537548" lon="13.310553407722722"><ele>46.0</ele><time>2026-04-04T14:50:13.999Z</time></trkpt><trkpt lat="45.950401256311395" lon="13.310749262366137"><ele>46.0</ele><time>2026-04-04T14:50:14.999Z</time></trkpt><trkpt lat="45.950535189499035" lon="13.310937379069612"><ele>46.0</ele><time>2026-04-04T14:50:15.999Z</time></trkpt><trkpt lat="45.950658049517806" lon="13.311118226988413"><ele>46.0</ele><time>2026-04-04T14:50:16.999Z</time></trkpt><trkpt lat="45.95077621057183" lon="13.311294967694131"><ele>46.0</ele><time>2026-04-04T14:50:17.999Z</time></trkpt><trkpt lat="45.950892950712166" lon="13.31146971400545"><ele>46.333333333333336</ele><time>2026-04-04T14:50:18.999Z</time></trkpt><trkpt lat="45.95100544080143" lon="13.311640763958092"><ele>46.666666666666664</ele><time>2026-04-04T14:50:19.999Z</time></trkpt><trkpt lat="45.9511190303298" lon="13.311829696489523"><ele>47.0</ele><time>2026-04-04T14:50:20.999Z</time></trkpt><trkpt lat="45.951237299110524" lon="13.312044467701686"><ele>47.0</ele><time>2026-04-04T14:50:21.999Z</time></trkpt><trkpt lat="45.951359292507135" lon="13.312284312218726"><ele>47.0</ele><time>2026-04-04T14:50:22.999Z</time></trkpt><trkpt lat="45.951488363399555" lon="13.312538570639882"><ele>47.0</ele><time>2026-04-04T14:50:23.999Z</time></trkpt><trkpt lat="45.95162328144048" lon="13.312804353465824"><ele>47.0</ele><time>2026-04-04T14:50:24.999Z</time></trkpt><trkpt lat="45.95175863618604" lon="13.313071407541267"><ele>47.0</ele><time>2026-04-04T14:50:25.999Z</time></trkpt><trkpt lat="45.95188653006866" lon="13.313326609585234"><ele>47.0</ele><time>2026-04-04T14:50:26.999Z</time></trkpt><trkpt lat="45.95200715372985" lon="13.31355646730656"><ele>47.33333333333333</ele><time>2026-04-04T14:50:27.999Z</time></trkpt><trkpt lat="45.95211882006423" lon="13.31378030785015"><ele>47.666666666666664</ele><time>2026-04-04T14:50:28.999Z</time></trkpt><trkpt lat="45.95221826239232" lon="13.314005183546882"><ele>48.0</ele><time>2026-04-04T14:50:29.999Z</time></trkpt><trkpt lat="45.95229718704772" lon="13.314242373094634"><ele>48.33333333333333</ele><time>2026-04-04T14:50:30.999Z</time></trkpt><trkpt lat="45.952341762436625" lon="13.314503667006392"><ele>48.666666666666664</ele><time>2026-04-04T14:50:31.999Z</time></trkpt><trkpt lat="45.952332651956254" lon="13.314789054962654"><ele>49.0</ele><time>2026-04-04T14:50:32.999Z</time></trkpt><trkpt lat="45.95230842348997" lon="13.315097997812927"><ele>48.0</ele><time>2026-04-04T14:50:33.999Z</time></trkpt><trkpt lat="45.952287953237374" lon="13.315440708900939"><ele>47.0</ele><time>2026-04-04T14:50:34.999Z</time></trkpt><trkpt lat="45.952253831879275" lon="13.315804479996268"><ele>46.5</ele><time>2026-04-04T14:50:35.999Z</time></trkpt><trkpt lat="45.952226863793776" lon="13.316160980324577"><ele>46.0</ele><time>2026-04-04T14:50:36.999Z</time></trkpt><trkpt lat="45.952220995293594" lon="13.316512990584611"><ele>46.0</ele><time>2026-04-04T14:50:37.999Z</time></trkpt><trkpt lat="45.952249650841054" lon="13.316860956002095"><ele>46.0</ele><time>2026-04-04T14:50:38.999Z</time></trkpt><trkpt lat="45.95231054613261" lon="13.317215691407554"><ele>46.0</ele><time>2026-04-04T14:50:39.999Z</time></trkpt><trkpt lat="45.95239496262748" lon="13.317580592821853"><ele>46.0</ele><time>2026-04-04T14:50:40.999Z</time></trkpt><trkpt lat="45.952493132472725" lon="13.317956970576795"><ele>46.0</ele><time>2026-04-04T14:50:41.999Z</time></trkpt><trkpt lat="45.952592262621316" lon="13.31833928064454"><ele>46.0</ele><time>2026-04-04T14:50:42.999Z</time></trkpt><trkpt lat="45.952684511416614" lon="13.31871078910539"><ele>46.5</ele><time>2026-04-04T14:50:43.999Z</time></trkpt><trkpt lat="45.95277080110349" lon="13.319046895201645"><ele>47.0</ele><time>2026-04-04T14:50:45Z</time></trkpt><trkpt lat="45.952847672716864" lon="13.319355864861606"><ele>47.0</ele><time>2026-04-04T14:50:46Z</time></trkpt><trkpt lat="45.952914604482224" lon="13.319632547030077"><ele>47.0</ele><time>2026-04-04T14:50:47Z</time></trkpt><trkpt lat="45.95297302026942" lon="13.319871354569546"><ele>47.0</ele><time>2026-04-04T14:50:48Z</time></trkpt><trkpt lat="45.95302458015654" lon="13.32009456090412"><ele>47.0</ele><time>2026-04-04T14:50:49Z</time></trkpt><trkpt lat="45.95306961662993" lon="13.320300474239701"><ele>47.0</ele><time>2026-04-04T14:50:50Z</time></trkpt><trkpt lat="45.953121131526366" lon="13.32048506900501"><ele>47.0</ele><time>2026-04-04T14:50:51Z</time></trkpt><trkpt lat="45.95319563089369" lon="13.320650378094513"><ele>47.0</ele><time>2026-04-04T14:50:52Z</time></trkpt><trkpt lat="45.953299555973196" lon="13.320791075410536"><ele>47.0</ele><time>2026-04-04T14:50:53Z</time></trkpt><trkpt lat="45.953428161352406" lon="13.320912241363125"><ele>47.0</ele><time>2026-04-04T14:50:54Z</time></trkpt><trkpt lat="45.953563700599474" lon="13.32100242151533"><ele>47.0</ele><time>2026-04-04T14:50:55Z</time></trkpt><trkpt lat="45.953684631751166" lon="13.32108761391515"><ele>47.0</ele><time>2026-04-04T14:50:56Z</time></trkpt><trkpt lat="45.95379205065489" lon="13.32119087975045"><ele>47.0</ele><time>2026-04-04T14:50:57Z</time></trkpt><trkpt lat="45.95389582669497" lon="13.321311270493888"><ele>47.0</ele><time>2026-04-04T14:50:58Z</time></trkpt><trkpt lat="45.953994125036715" lon="13.321430795312208"><ele>47.0</ele><time>2026-04-04T14:50:59Z</time></trkpt><trkpt lat="45.95408156816031" lon="13.321538910274452"><ele>47.0</ele><time>2026-04-04T14:51:00Z</time></trkpt><trkpt lat="45.95415082994338" lon="13.321635063800425"><ele>47.2</ele><time>2026-04-04T14:51:00.999Z</time></trkpt><trkpt lat="45.954202523267206" lon="13.321720999795202"><ele>47.400000000000006</ele><time>2026-04-04T14:51:01.999Z</time></trkpt><trkpt lat="45.954274937390416" lon="13.321871205322523"><ele>47.599999999999994</ele><time>2026-04-04T14:51:03.999Z</time></trkpt><trkpt lat="45.95433254404447" lon="13.321950211334793"><ele>47.8</ele><time>2026-04-04T14:51:04.999Z</time></trkpt><trkpt lat="45.954420105413924" lon="13.322022266200955"><ele>48.0</ele><time>2026-04-04T14:51:05.999Z</time></trkpt><trkpt lat="45.95452558979908" lon="13.322094882996181"><ele>48.66666666666667</ele><time>2026-04-04T14:51:06.999Z</time></trkpt><trkpt lat="45.954602995426235" lon="13.32224469105006"><ele>49.333333333333336</ele><time>2026-04-04T14:51:07.999Z</time></trkpt><trkpt lat="45.954710502934105" lon="13.32245562726795"><ele>50.0</ele><time>2026-04-04T14:51:08.999Z</time></trkpt><trkpt lat="45.95486602347073" lon="13.322745705860727"><ele>49.5</ele><time>2026-04-04T14:51:09.999Z</time></trkpt><trkpt lat="45.95506354723002" lon="13.323080084412187"><ele>49.0</ele><time>2026-04-04T14:51:10.999Z</time></trkpt><trkpt lat="45.955261645173636" lon="13.323451526642046"><ele>49.0</ele><time>2026-04-04T14:51:11.999Z</time></trkpt><trkpt lat="45.955429553201014" lon="13.323768721723294"><ele>49.0</ele><time>2026-04-04T14:51:12.999Z</time></trkpt><trkpt lat="45.95557572361276" lon="13.324068786572235"><ele>48.5</ele><time>2026-04-04T14:51:13.999Z</time></trkpt><trkpt lat="45.95569626312183" lon="13.324370662703869"><ele>48.0</ele><time>2026-04-04T14:51:14.999Z</time></trkpt><trkpt lat="45.95578078443318" lon="13.324694277192117"><ele>48.0</ele><time>2026-04-04T14:51:15.999Z</time></trkpt><trkpt lat="45.95584505717309" lon="13.325057114460257"><ele>48.0</ele><time>2026-04-04T14:51:16.999Z</time></trkpt><trkpt lat="45.955884166284676" lon="13.325449719652077"><ele>47.5</ele><time>2026-04-04T14:51:17.999Z</time></trkpt><trkpt lat="45.95591407306769" lon="13.325864999594625"><ele>47.0</ele><time>2026-04-04T14:51:18.999Z</time></trkpt><trkpt lat="45.955953584671306" lon="13.326291883564835"><ele>47.5</ele><time>2026-04-04T14:51:19.999Z</time></trkpt><trkpt lat="45.95600055412569" lon="13.326726968910622"><ele>48.0</ele><time>2026-04-04T14:51:20.999Z</time></trkpt><trkpt lat="45.95604716713599" lon="13.327171789044883"><ele>47.5</ele><time>2026-04-04T14:51:21.999Z</time></trkpt><trkpt lat="45.95608420296073" lon="13.327623184012818"><ele>47.0</ele><time>2026-04-04T14:51:22.999Z</time></trkpt><trkpt lat="45.95612014646404" lon="13.328076053058187"><ele>47.0</ele><time>2026-04-04T14:51:23.999Z</time></trkpt><trkpt lat="45.956160799140385" lon="13.328518906238122"><ele>47.0</ele><time>2026-04-04T14:51:24.999Z</time></trkpt><trkpt lat="45.9562056092234" lon="13.328940768082656"><ele>46.5</ele><time>2026-04-04T14:51:25.999Z</time></trkpt><trkpt lat="45.95624640096389" lon="13.329356718706606"><ele>46.0</ele><time>2026-04-04T14:51:26.999Z</time></trkpt><trkpt lat="45.956274732704436" lon="13.329764555269495"><ele>46.0</ele><time>2026-04-04T14:51:27.999Z</time></trkpt><trkpt lat="45.95628117194943" lon="13.330170450109334"><ele>46.0</ele><time>2026-04-04T14:51:28.999Z</time></trkpt><trkpt lat="45.95624249090968" lon="13.330566659774366"><ele>46.5</ele><time>2026-04-04T14:51:29.999Z</time></trkpt><trkpt lat="45.956198072801875" lon="13.330972631197906"><ele>47.0</ele><time>2026-04-04T14:51:30.999Z</time></trkpt><trkpt lat="45.95616704036164" lon="13.331392078360745"><ele>47.0</ele><time>2026-04-04T14:51:31.999Z</time></trkpt><trkpt lat="45.95610990561659" lon="13.331800279399056"><ele>47.0</ele><time>2026-04-04T14:51:32.999Z</time></trkpt><trkpt lat="45.95607058142876" lon="13.332166828636229"><ele>47.5</ele><time>2026-04-04T14:51:33.999Z</time></trkpt><trkpt lat="45.95603354721099" lon="13.332508459281778"><ele>48.0</ele><time>2026-04-04T14:51:34.999Z</time></trkpt><trkpt lat="45.9560244642412" lon="13.33283974972054"><ele>48.0</ele><time>2026-04-04T14:51:35.999Z</time></trkpt><trkpt lat="45.95605408677387" lon="13.333171117796647"><ele>48.0</ele><time>2026-04-04T14:51:36.999Z</time></trkpt><trkpt lat="45.95611961633907" lon="13.333500959573044"><ele>48.0</ele><time>2026-04-04T14:51:37.999Z</time></trkpt><trkpt lat="45.9562564848373" lon="13.33381479141187"><ele>48.0</ele><time>2026-04-04T14:51:38.999Z</time></trkpt><trkpt lat="45.95639195983489" lon="13.334152328659465"><ele>47.5</ele><time>2026-04-04T14:51:39.999Z</time></trkpt><trkpt lat="45.95653942868865" lon="13.334501661521946"><ele>47.0</ele><time>2026-04-04T14:51:40.999Z</time></trkpt><trkpt lat="45.95667814625206" lon="13.33485165390516"><ele>47.0</ele><time>2026-04-04T14:51:41.999Z</time></trkpt><trkpt lat="45.95680141825158" lon="13.335166064605206"><ele>47.0</ele><time>2026-04-04T14:51:42.999Z</time></trkpt><trkpt lat="45.956911532509665" lon="13.335438724361435"><ele>47.25</ele><time>2026-04-04T14:51:43.999Z</time></trkpt><trkpt lat="45.95700095048128" lon="13.335661395797256"><ele>47.5</ele><time>2026-04-04T14:51:44.999Z</time></trkpt><trkpt lat="45.95706988180256" lon="13.33584304977912"><ele>47.75</ele><time>2026-04-04T14:51:45.999Z</time></trkpt><trkpt lat="45.957125745668534" lon="13.335994914148882"><ele>48.0</ele><time>2026-04-04T14:51:46.999Z</time></trkpt><trkpt lat="45.95715855608426" lon="13.336107024329982"><ele>48.0</ele><time>2026-04-04T14:51:47.999Z</time></trkpt><trkpt lat="45.95719718344958" lon="13.336241820072507"><ele>48.0</ele><time>2026-04-04T14:51:49.999Z</time></trkpt><trkpt lat="45.95711089680454" lon="13.336386371582773"><ele>48.0</ele><time>2026-04-04T14:51:51.999Z</time></trkpt><trkpt lat="45.95701484845383" lon="13.336439194082146"><ele>48.0</ele><time>2026-04-04T14:51:52.999Z</time></trkpt><trkpt lat="45.95688822934067" lon="13.33655085166716"><ele>48.0</ele><time>2026-04-04T14:51:53.999Z</time></trkpt><trkpt lat="45.956714798045994" lon="13.336659516877928"><ele>48.0</ele><time>2026-04-04T14:51:54.999Z</time></trkpt><trkpt lat="45.95651914271809" lon="13.336802753155887"><ele>48.0</ele><time>2026-04-04T14:51:55.999Z</time></trkpt><trkpt lat="45.95629631191756" lon="13.336984026509533"><ele>47.5</ele><time>2026-04-04T14:51:56.999Z</time></trkpt><trkpt lat="45.95604393246444" lon="13.337157634527445"><ele>47.0</ele><time>2026-04-04T14:51:57.999Z</time></trkpt><trkpt lat="45.95578757241017" lon="13.337311230065506"><ele>47.0</ele><time>2026-04-04T14:51:58.999Z</time></trkpt><trkpt lat="45.955543779863454" lon="13.33748022312777"><ele>47.0</ele><time>2026-04-04T14:51:59.999Z</time></trkpt><trkpt lat="45.9553101487098" lon="13.337643066712056"><ele>47.0</ele><time>2026-04-04T14:52:00.999Z</time></trkpt><trkpt lat="45.95508255959406" lon="13.33780170766615"><ele>47.0</ele><time>2026-04-04T14:52:01.999Z</time></trkpt><trkpt lat="45.95486558416072" lon="13.33795246636481"><ele>46.0</ele><time>2026-04-04T14:52:02.999Z</time></trkpt><trkpt lat="45.954667125637876" lon="13.33811643986371"><ele>45.0</ele><time>2026-04-04T14:52:03.999Z</time></trkpt><trkpt lat="45.9544673024461" lon="13.33825352919719"><ele>45.0</ele><time>2026-04-04T14:52:04.999Z</time></trkpt><trkpt lat="45.95427557459585" lon="13.338383565374192"><ele>45.0</ele><time>2026-04-04T14:52:05.999Z</time></trkpt><trkpt lat="45.954088030058394" lon="13.33851198309258"><ele>45.0</ele><time>2026-04-04T14:52:06.999Z</time></trkpt><trkpt lat="45.95390415946142" lon="13.338644309515887"><ele>45.0</ele><time>2026-04-04T14:52:07.999Z</time></trkpt><trkpt lat="45.95372201372377" lon="13.338773549988609"><ele>45.0</ele><time>2026-04-04T14:52:08.999Z</time></trkpt><trkpt lat="45.95354113631044" lon="13.338896606055913"><ele>45.0</ele><time>2026-04-04T14:52:09.999Z</time></trkpt><trkpt lat="45.953360445829496" lon="13.339019300785711"><ele>45.666666666666664</ele><time>2026-04-04T14:52:10.999Z</time></trkpt><trkpt lat="45.95318593611991" lon="13.339141654668966"><ele>46.33333333333333</ele><time>2026-04-04T14:52:11.999Z</time></trkpt><trkpt lat="45.95301399650255" lon="13.33925666832784"><ele>47.0</ele><time>2026-04-04T14:52:12.999Z</time></trkpt><trkpt lat="45.952844169716414" lon="13.339372184132813"><ele>47.0</ele><time>2026-04-04T14:52:13.999Z</time></trkpt><trkpt lat="45.9526761323912" lon="13.339490653878126"><ele>47.0</ele><time>2026-04-04T14:52:14.999Z</time></trkpt><trkpt lat="45.9525084937779" lon="13.339607691809718"><ele>47.0</ele><time>2026-04-04T14:52:15.999Z</time></trkpt><trkpt lat="45.952343591646134" lon="13.339720467010945"><ele>46.666666666666664</ele><time>2026-04-04T14:52:16.999Z</time></trkpt><trkpt lat="45.95217874489868" lon="13.33983318982985"><ele>46.333333333333336</ele><time>2026-04-04T14:52:17.999Z</time></trkpt><trkpt lat="45.95201473343042" lon="13.33994912286796"><ele>46.0</ele><time>2026-04-04T14:52:18.999Z</time></trkpt><trkpt lat="45.95185237300651" lon="13.340063979621217"><ele>46.0</ele><time>2026-04-04T14:52:19.999Z</time></trkpt><trkpt lat="45.95169062049393" lon="13.34017758724091"><ele>46.0</ele><time>2026-04-04T14:52:20.999Z</time></trkpt><trkpt lat="45.95152883001171" lon="13.340291650464987"><ele>46.0</ele><time>2026-04-04T14:52:21.999Z</time></trkpt><trkpt lat="45.95137067412147" lon="13.340411993513776"><ele>46.0</ele><time>2026-04-04T14:52:22.999Z</time></trkpt><trkpt lat="45.95120538179107" lon="13.340515145732091"><ele>46.0</ele><time>2026-04-04T14:52:23.999Z</time></trkpt><trkpt lat="45.95105004134772" lon="13.340647090705469"><ele>46.0</ele><time>2026-04-04T14:52:24.999Z</time></trkpt><trkpt lat="45.95089429297789" lon="13.340783276967345"><ele>46.0</ele><time>2026-04-04T14:52:25.999Z</time></trkpt><trkpt lat="45.950739717089235" lon="13.340927286344106"><ele>46.0</ele><time>2026-04-04T14:52:26.999Z</time></trkpt><trkpt lat="45.95059853632256" lon="13.341097149565163"><ele>46.0</ele><time>2026-04-04T14:52:27.999Z</time></trkpt><trkpt lat="45.95044757219734" lon="13.341251027578739"><ele>46.333333333333336</ele><time>2026-04-04T14:52:28.999Z</time></trkpt><trkpt lat="45.95028565968629" lon="13.341387106642754"><ele>46.666666666666664</ele><time>2026-04-04T14:52:29.999Z</time></trkpt><trkpt lat="45.950131713478264" lon="13.341545298172138"><ele>47.0</ele><time>2026-04-04T14:52:30.999Z</time></trkpt><trkpt lat="45.94998810057413" lon="13.341723299040282"><ele>46.33333333333333</ele><time>2026-04-04T14:52:31.999Z</time></trkpt><trkpt lat="45.94983422632565" lon="13.341884717031688"><ele>45.666666666666664</ele><time>2026-04-04T14:52:32.999Z</time></trkpt><trkpt lat="45.94968189843662" lon="13.34205233045855"><ele>45.0</ele><time>2026-04-04T14:52:33.999Z</time></trkpt><trkpt lat="45.949533798586806" lon="13.342228460750176"><ele>45.0</ele><time>2026-04-04T14:52:34.999Z</time></trkpt><trkpt lat="45.94939056857701" lon="13.342417220258412"><ele>45.0</ele><time>2026-04-04T14:52:35.999Z</time></trkpt><trkpt lat="45.94925421040293" lon="13.342621613405706"><ele>45.0</ele><time>2026-04-04T14:52:36.999Z</time></trkpt><trkpt lat="45.94912354546724" lon="13.3428399029108"><ele>44.333333333333336</ele><time>2026-04-04T14:52:37.999Z</time></trkpt><trkpt lat="45.949000843066685" lon="13.343069265739958"><ele>43.66666666666667</ele><time>2026-04-04T14:52:38.999Z</time></trkpt><trkpt lat="45.94888078633248" lon="13.34330614690155"><ele>43.0</ele><time>2026-04-04T14:52:39.999Z</time></trkpt><trkpt lat="45.9487600038055" lon="13.343544050909959"><ele>43.0</ele><time>2026-04-04T14:52:40.999Z</time></trkpt><trkpt lat="45.94862655715569" lon="13.343763627193528"><ele>43.0</ele><time>2026-04-04T14:52:41.999Z</time></trkpt><trkpt lat="45.94851383794745" lon="13.344017187949087"><ele>43.0</ele><time>2026-04-04T14:52:42.999Z</time></trkpt><trkpt lat="45.94838146632243" lon="13.344266405353933"><ele>43.5</ele><time>2026-04-04T14:52:43.999Z</time></trkpt><trkpt lat="45.94824323341843" lon="13.344535708253533"><ele>44.0</ele><time>2026-04-04T14:52:44.999Z</time></trkpt><trkpt lat="45.948082261762615" lon="13.344807726990378"><ele>43.0</ele><time>2026-04-04T14:52:45.999Z</time></trkpt><trkpt lat="45.947927612866266" lon="13.34510502984753"><ele>42.0</ele><time>2026-04-04T14:52:46.999Z</time></trkpt><trkpt lat="45.94777212476851" lon="13.345405984831922"><ele>41.5</ele><time>2026-04-04T14:52:47.999Z</time></trkpt><trkpt lat="45.94761568598224" lon="13.34569182665798"><ele>41.0</ele><time>2026-04-04T14:52:48.999Z</time></trkpt><trkpt lat="45.94746132459211" lon="13.345964459320266"><ele>41.0</ele><time>2026-04-04T14:52:49.999Z</time></trkpt><trkpt lat="45.94727274525669" lon="13.346180630684369"><ele>41.0</ele><time>2026-04-04T14:52:51Z</time></trkpt><trkpt lat="45.94706033911533" lon="13.346333793495136"><ele>41.5</ele><time>2026-04-04T14:52:52Z</time></trkpt><trkpt lat="45.94683516740482" lon="13.346457652364233"><ele>42.0</ele><time>2026-04-04T14:52:53Z</time></trkpt><trkpt lat="45.94659807317308" lon="13.346577380448633"><ele>42.0</ele><time>2026-04-04T14:52:54Z</time></trkpt><trkpt lat="45.94634897252835" lon="13.346698721391613"><ele>42.0</ele><time>2026-04-04T14:52:55Z</time></trkpt><trkpt lat="45.94609222332452" lon="13.346820997421034"><ele>41.5</ele><time>2026-04-04T14:52:56Z</time></trkpt><trkpt lat="45.94582609683444" lon="13.34694754874329"><ele>41.0</ele><time>2026-04-04T14:52:57Z</time></trkpt><trkpt lat="45.945555505369974" lon="13.347081220380623"><ele>41.5</ele><time>2026-04-04T14:52:58Z</time></trkpt><trkpt lat="45.945286700469175" lon="13.347215125312909"><ele>42.0</ele><time>2026-04-04T14:52:59Z</time></trkpt><trkpt lat="45.9450169430411" lon="13.347349504780437"><ele>42.0</ele><time>2026-04-04T14:53:00Z</time></trkpt><trkpt lat="45.9447533394926" lon="13.347478374489572"><ele>42.0</ele><time>2026-04-04T14:53:01Z</time></trkpt><trkpt lat="45.94449394228985" lon="13.347606402884454"><ele>42.0</ele><time>2026-04-04T14:53:02Z</time></trkpt><trkpt lat="45.94424265959886" lon="13.347730426275326"><ele>42.0</ele><time>2026-04-04T14:53:03Z</time></trkpt><trkpt lat="45.94399860471685" lon="13.347849580955527"><ele>42.0</ele><time>2026-04-04T14:53:04Z</time></trkpt><trkpt lat="45.9437629865956" lon="13.34796304265439"><ele>42.0</ele><time>2026-04-04T14:53:05Z</time></trkpt><trkpt lat="45.94353327305658" lon="13.348073661031252"><ele>41.5</ele><time>2026-04-04T14:53:06Z</time></trkpt><trkpt lat="45.94330980182483" lon="13.34818190842478"><ele>41.0</ele><time>2026-04-04T14:53:07Z</time></trkpt><trkpt lat="45.94310525891099" lon="13.348281069967491"><ele>41.0</ele><time>2026-04-04T14:53:08Z</time></trkpt><trkpt lat="45.94291143075107" lon="13.348400445882389"><ele>41.0</ele><time>2026-04-04T14:53:09Z</time></trkpt><trkpt lat="45.94271612131135" lon="13.348494327740255"><ele>41.0</ele><time>2026-04-04T14:53:09.999Z</time></trkpt><trkpt lat="45.94252268376689" lon="13.348570145413667"><ele>41.0</ele><time>2026-04-04T14:53:10.999Z</time></trkpt><trkpt lat="45.942348180781195" lon="13.348693929339431"><ele>41.0</ele><time>2026-04-04T14:53:11.999Z</time></trkpt><trkpt lat="45.94218262586016" lon="13.348848496626047"><ele>41.0</ele><time>2026-04-04T14:53:12.999Z</time></trkpt><trkpt lat="45.9420444910056" lon="13.349063321425668"><ele>41.0</ele><time>2026-04-04T14:53:13.999Z</time></trkpt><trkpt lat="45.94191191477691" lon="13.349278808472338"><ele>41.0</ele><time>2026-04-04T14:53:14.999Z</time></trkpt><trkpt lat="45.941800673479605" lon="13.349513994396212"><ele>41.0</ele><time>2026-04-04T14:53:15.999Z</time></trkpt><trkpt lat="45.94171669104909" lon="13.349781122285002"><ele>40.666666666666664</ele><time>2026-04-04T14:53:16.999Z</time></trkpt><trkpt lat="45.941660542254795" lon="13.350073693146284"><ele>40.333333333333336</ele><time>2026-04-04T14:53:17.999Z</time></trkpt><trkpt lat="45.94161057132901" lon="13.350392169744811"><ele>40.0</ele><time>2026-04-04T14:53:18.999Z</time></trkpt><trkpt lat="45.94155394541378" lon="13.350729247573643"><ele>40.0</ele><time>2026-04-04T14:53:19.999Z</time></trkpt><trkpt lat="45.9414887141615" lon="13.351088697034683"><ele>40.0</ele><time>2026-04-04T14:53:20.999Z</time></trkpt><trkpt lat="45.94142291917552" lon="13.351460807417727"><ele>40.0</ele><time>2026-04-04T14:53:21.999Z</time></trkpt><trkpt lat="45.94135628765642" lon="13.351847113037284"><ele>40.0</ele><time>2026-04-04T14:53:22.999Z</time></trkpt><trkpt lat="45.941288667495435" lon="13.35224209275127"><ele>40.0</ele><time>2026-04-04T14:53:23.999Z</time></trkpt><trkpt lat="45.94122143334684" lon="13.35263891332967"><ele>40.0</ele><time>2026-04-04T14:53:24.999Z</time></trkpt><trkpt lat="45.94115716708421" lon="13.353036525501734"><ele>39.5</ele><time>2026-04-04T14:53:25.999Z</time></trkpt><trkpt lat="45.941091297696744" lon="13.353424325006747"><ele>39.0</ele><time>2026-04-04T14:53:26.999Z</time></trkpt><trkpt lat="45.94101341028892" lon="13.353790475525233"><ele>39.0</ele><time>2026-04-04T14:53:27.999Z</time></trkpt><trkpt lat="45.94091108209192" lon="13.354138743119384"><ele>39.0</ele><time>2026-04-04T14:53:28.999Z</time></trkpt><trkpt lat="45.940785413215096" lon="13.354476704324432"><ele>38.5</ele><time>2026-04-04T14:53:29.999Z</time></trkpt><trkpt lat="45.94064732359791" lon="13.354812603634263"><ele>38.0</ele><time>2026-04-04T14:53:30.999Z</time></trkpt><trkpt lat="45.94049173574968" lon="13.35513899762504"><ele>38.0</ele><time>2026-04-04T14:53:31.999Z</time></trkpt><trkpt lat="45.940349812254844" lon="13.35547153781763"><ele>38.0</ele><time>2026-04-04T14:53:32.999Z</time></trkpt><trkpt lat="45.940216731855365" lon="13.35576807665702"><ele>38.5</ele><time>2026-04-04T14:53:33.999Z</time></trkpt><trkpt lat="45.94006628454362" lon="13.356026819941324"><ele>39.0</ele><time>2026-04-04T14:53:34.999Z</time></trkpt><trkpt lat="45.93988937705936" lon="13.356244403171308"><ele>39.0</ele><time>2026-04-04T14:53:35.999Z</time></trkpt><trkpt lat="45.93969035101243" lon="13.356445967971696"><ele>39.0</ele><time>2026-04-04T14:53:36.999Z</time></trkpt><trkpt lat="45.93948783583007" lon="13.356653232839367"><ele>39.0</ele><time>2026-04-04T14:53:37.999Z</time></trkpt><trkpt lat="45.93928444685722" lon="13.356879904582032"><ele>39.0</ele><time>2026-04-04T14:53:38.999Z</time></trkpt><trkpt lat="45.93909558525215" lon="13.35714412130248"><ele>38.5</ele><time>2026-04-04T14:53:39.999Z</time></trkpt><trkpt lat="45.938926527925666" lon="13.35745645813896"><ele>38.0</ele><time>2026-04-04T14:53:40.999Z</time></trkpt><trkpt lat="45.938792681265326" lon="13.357816227073446"><ele>38.5</ele><time>2026-04-04T14:53:41.999Z</time></trkpt><trkpt lat="45.93866097282168" lon="13.358202904341434"><ele>39.0</ele><time>2026-04-04T14:53:42.999Z</time></trkpt><trkpt lat="45.93853627864566" lon="13.35861381732974"><ele>39.0</ele><time>2026-04-04T14:53:43.999Z</time></trkpt><trkpt lat="45.938386146433565" lon="13.35902189413213"><ele>39.0</ele><time>2026-04-04T14:53:44.999Z</time></trkpt><trkpt lat="45.9382603410208" lon="13.359451252524854"><ele>39.0</ele><time>2026-04-04T14:53:45.999Z</time></trkpt><trkpt lat="45.938122874872256" lon="13.35986867395414"><ele>39.0</ele><time>2026-04-04T14:53:46.999Z</time></trkpt><trkpt lat="45.93798985844413" lon="13.360290084338692"><ele>38.5</ele><time>2026-04-04T14:53:47.999Z</time></trkpt><trkpt lat="45.93785455244996" lon="13.36071733312702"><ele>38.0</ele><time>2026-04-04T14:53:48.999Z</time></trkpt><trkpt lat="45.93777223449385" lon="13.361188004832178"><ele>38.0</ele><time>2026-04-04T14:53:49.999Z</time></trkpt><trkpt lat="45.93768063228388" lon="13.361667917032248"><ele>38.0</ele><time>2026-04-04T14:53:50.999Z</time></trkpt><trkpt lat="45.93757347367346" lon="13.36214006894609"><ele>38.0</ele><time>2026-04-04T14:53:51.999Z</time></trkpt><trkpt lat="45.93749161300372" lon="13.362569794871368"><ele>38.0</ele><time>2026-04-04T14:53:52.999Z</time></trkpt><trkpt lat="45.93741663355393" lon="13.362961751463965"><ele>38.0</ele><time>2026-04-04T14:53:53.999Z</time></trkpt><trkpt lat="45.937363412417454" lon="13.363317702776362"><ele>38.0</ele><time>2026-04-04T14:53:54.999Z</time></trkpt><trkpt lat="45.93730137306214" lon="13.36362003671575"><ele>39.0</ele><time>2026-04-04T14:53:55.999Z</time></trkpt><trkpt lat="45.937236310165154" lon="13.363894451733282"><ele>40.0</ele><time>2026-04-04T14:53:56.999Z</time></trkpt><trkpt lat="45.937136521887275" lon="13.36412738013474"><ele>41.0</ele><time>2026-04-04T14:53:57.999Z</time></trkpt><trkpt lat="45.937035021520856" lon="13.364352570009432"><ele>41.0</ele><time>2026-04-04T14:53:58.999Z</time></trkpt><trkpt lat="45.93689284808697" lon="13.364530975319086"><ele>41.0</ele><time>2026-04-04T14:53:59.999Z</time></trkpt><trkpt lat="45.93671763426872" lon="13.364661725717912"><ele>41.0</ele><time>2026-04-04T14:54:00.999Z</time></trkpt><trkpt lat="45.93652664134939" lon="13.364760532844283"><ele>39.5</ele><time>2026-04-04T14:54:01.999Z</time></trkpt><trkpt lat="45.93631445832559" lon="13.36480823063628"><ele>38.0</ele><time>2026-04-04T14:54:02.999Z</time></trkpt><trkpt lat="45.93606969954399" lon="13.364852926279632"><ele>37.0</ele><time>2026-04-04T14:54:03.999Z</time></trkpt><trkpt lat="45.935799370479394" lon="13.364901853407048"><ele>36.0</ele><time>2026-04-04T14:54:04.999Z</time></trkpt><trkpt lat="45.93549913407698" lon="13.36495517449005"><ele>36.0</ele><time>2026-04-04T14:54:05.999Z</time></trkpt><trkpt lat="45.93517141585932" lon="13.365012660274322"><ele>36.0</ele><time>2026-04-04T14:54:06.999Z</time></trkpt><trkpt lat="45.93482336650826" lon="13.365072833132277"><ele>36.5</ele><time>2026-04-04T14:54:07.999Z</time></trkpt><trkpt lat="45.93446860452012" lon="13.365136663983403"><ele>37.0</ele><time>2026-04-04T14:54:08.999Z</time></trkpt><trkpt lat="45.93411862839821" lon="13.365196658948536"><ele>37.0</ele><time>2026-04-04T14:54:09.999Z</time></trkpt><trkpt lat="45.93377559889052" lon="13.365256601615018"><ele>37.0</ele><time>2026-04-04T14:54:10.999Z</time></trkpt><trkpt lat="45.933441373506945" lon="13.365316252480811"><ele>36.0</ele><time>2026-04-04T14:54:11.999Z</time></trkpt><trkpt lat="45.93312095318382" lon="13.365372593720592"><ele>35.0</ele><time>2026-04-04T14:54:12.999Z</time></trkpt><trkpt lat="45.93280906950855" lon="13.365428259909415"><ele>35.0</ele><time>2026-04-04T14:54:13.999Z</time></trkpt><trkpt lat="45.932504624518074" lon="13.365482598395719"><ele>35.0</ele><time>2026-04-04T14:54:14.999Z</time></trkpt><trkpt lat="45.93219950643448" lon="13.36554328742753"><ele>35.0</ele><time>2026-04-04T14:54:15.999Z</time></trkpt><trkpt lat="45.931888527434616" lon="13.365666030679977"><ele>35.0</ele><time>2026-04-04T14:54:16.999Z</time></trkpt><trkpt lat="45.931567175271475" lon="13.365809619971632"><ele>35.0</ele><time>2026-04-04T14:54:17.999Z</time></trkpt><trkpt lat="45.93123055439212" lon="13.365960031796584"><ele>35.0</ele><time>2026-04-04T14:54:18.999Z</time></trkpt><trkpt lat="45.93088562126737" lon="13.366114157842912"><ele>35.0</ele><time>2026-04-04T14:54:19.999Z</time></trkpt><trkpt lat="45.930553255201495" lon="13.36626249155777"><ele>35.0</ele><time>2026-04-04T14:54:20.999Z</time></trkpt><trkpt lat="45.93023430309773" lon="13.366406729928038"><ele>35.0</ele><time>2026-04-04T14:54:21.999Z</time></trkpt><trkpt lat="45.92993535574156" lon="13.36656324411908"><ele>35.0</ele><time>2026-04-04T14:54:22.999Z</time></trkpt><trkpt lat="45.929647049286146" lon="13.366692244874299"><ele>35.0</ele><time>2026-04-04T14:54:23.999Z</time></trkpt><trkpt lat="45.92937012190486" lon="13.366789762495102"><ele>35.0</ele><time>2026-04-04T14:54:24.999Z</time></trkpt><trkpt lat="45.92910996918677" lon="13.366905640099269"><ele>34.5</ele><time>2026-04-04T14:54:25.999Z</time></trkpt><trkpt lat="45.92885918497061" lon="13.367017344852004"><ele>34.0</ele><time>2026-04-04T14:54:26.999Z</time></trkpt><trkpt lat="45.928614474937994" lon="13.367126343954544"><ele>34.0</ele><time>2026-04-04T14:54:27.999Z</time></trkpt><trkpt lat="45.928386456555884" lon="13.367230393945729"><ele>34.0</ele><time>2026-04-04T14:54:28.999Z</time></trkpt><trkpt lat="45.92816030377937" lon="13.367344929810557"><ele>34.0</ele><time>2026-04-04T14:54:29.999Z</time></trkpt><trkpt lat="45.92793221009477" lon="13.367487195049794"><ele>34.0</ele><time>2026-04-04T14:54:30.999Z</time></trkpt><trkpt lat="45.927707185435175" lon="13.367658706312147"><ele>34.0</ele><time>2026-04-04T14:54:31.999Z</time></trkpt><trkpt lat="45.927488458937304" lon="13.36785559812064"><ele>34.0</ele><time>2026-04-04T14:54:32.999Z</time></trkpt><trkpt lat="45.927271998207516" lon="13.368060336287144"><ele>34.0</ele><time>2026-04-04T14:54:33.999Z</time></trkpt><trkpt lat="45.92705411611912" lon="13.368266418815745"><ele>34.0</ele><time>2026-04-04T14:54:34.999Z</time></trkpt><trkpt lat="45.92683448362472" lon="13.368474708755384"><ele>34.0</ele><time>2026-04-04T14:54:35.999Z</time></trkpt><trkpt lat="45.926613927854405" lon="13.368683942904033"><ele>34.0</ele><time>2026-04-04T14:54:36.999Z</time></trkpt><trkpt lat="45.92640080717069" lon="13.368910004142188"><ele>34.0</ele><time>2026-04-04T14:54:37.999Z</time></trkpt><trkpt lat="45.92617705959396" lon="13.369112755146835"><ele>34.0</ele><time>2026-04-04T14:54:38.999Z</time></trkpt><trkpt lat="45.925952649711924" lon="13.369310785395603"><ele>34.0</ele><time>2026-04-04T14:54:39.999Z</time></trkpt><trkpt lat="45.92572787982352" lon="13.369509354106315"><ele>34.0</ele><time>2026-04-04T14:54:40.999Z</time></trkpt><trkpt lat="45.92550432718803" lon="13.369707660857905"><ele>34.0</ele><time>2026-04-04T14:54:41.999Z</time></trkpt><trkpt lat="45.92528152875533" lon="13.369904755677288"><ele>34.0</ele><time>2026-04-04T14:54:42.999Z</time></trkpt><trkpt lat="45.92505827665826" lon="13.3701014638005"><ele>33.5</ele><time>2026-04-04T14:54:43.999Z</time></trkpt><trkpt lat="45.92483722337746" lon="13.370294402154082"><ele>33.0</ele><time>2026-04-04T14:54:44.999Z</time></trkpt><trkpt lat="45.92461766739672" lon="13.370490292523579"><ele>33.0</ele><time>2026-04-04T14:54:45.999Z</time></trkpt><trkpt lat="45.9244002510653" lon="13.370685346045823"><ele>33.0</ele><time>2026-04-04T14:54:46.999Z</time></trkpt><trkpt lat="45.924174656750935" lon="13.370854608089392"><ele>33.0</ele><time>2026-04-04T14:54:47.999Z</time></trkpt><trkpt lat="45.92395984006496" lon="13.371043986734215"><ele>33.0</ele><time>2026-04-04T14:54:48.999Z</time></trkpt><trkpt lat="45.92374489869922" lon="13.371230465685924"><ele>33.0</ele><time>2026-04-04T14:54:49.999Z</time></trkpt><trkpt lat="45.92353760608087" lon="13.371432831134697"><ele>33.0</ele><time>2026-04-04T14:54:50.999Z</time></trkpt><trkpt lat="45.92332308285757" lon="13.371617226094166"><ele>33.0</ele><time>2026-04-04T14:54:51.999Z</time></trkpt><trkpt lat="45.92311180060711" lon="13.371803903820544"><ele>33.0</ele><time>2026-04-04T14:54:52.999Z</time></trkpt><trkpt lat="45.92290561999485" lon="13.371990806229116"><ele>33.0</ele><time>2026-04-04T14:54:53.999Z</time></trkpt><trkpt lat="45.9227062593004" lon="13.372169655212002"><ele>33.0</ele><time>2026-04-04T14:54:54.998Z</time></trkpt><trkpt lat="45.92251205917584" lon="13.37231329140204"><ele>33.333333333333336</ele><time>2026-04-04T14:54:55.998Z</time></trkpt><trkpt lat="45.92234902683601" lon="13.372488136747105"><ele>33.66666666666667</ele><time>2026-04-04T14:54:57Z</time></trkpt><trkpt lat="45.92219333708596" lon="13.37262545452821"><ele>34.0</ele><time>2026-04-04T14:54:58Z</time></trkpt><trkpt lat="45.92204882179592" lon="13.37274756855384"><ele>34.0</ele><time>2026-04-04T14:54:59Z</time></trkpt><trkpt lat="45.92192336430879" lon="13.372850204538514"><ele>34.0</ele><time>2026-04-04T14:55:00Z</time></trkpt><trkpt lat="45.921821736041046" lon="13.372929526094628"><ele>34.0</ele><time>2026-04-04T14:55:01Z</time></trkpt><trkpt lat="45.921747748342405" lon="13.372973659816642"><ele>34.0</ele><time>2026-04-04T14:55:02Z</time></trkpt><trkpt lat="45.92162229054007" lon="13.37300458956997"><ele>34.0</ele><time>2026-04-04T14:55:04Z</time></trkpt><trkpt lat="45.9215418735134" lon="13.373018862337831"><ele>34.0</ele><time>2026-04-04T14:55:05Z</time></trkpt><trkpt lat="45.92144818754304" lon="13.373026602582073"><ele>34.0</ele><time>2026-04-04T14:55:06Z</time></trkpt><trkpt lat="45.92135644790503" lon="13.37312578395313"><ele>34.0</ele><time>2026-04-04T14:55:07Z</time></trkpt><trkpt lat="45.92128445919827" lon="13.37331802435247"><ele>34.0</ele><time>2026-04-04T14:55:08Z</time></trkpt><trkpt lat="45.921150743796034" lon="13.37349831478833"><ele>33.0</ele><time>2026-04-04T14:55:09Z</time></trkpt><trkpt lat="45.920972330561554" lon="13.373674576340795"><ele>32.0</ele><time>2026-04-04T14:55:10Z</time></trkpt><trkpt lat="45.92075927031057" lon="13.373855580350025"><ele>32.0</ele><time>2026-04-04T14:55:11Z</time></trkpt><trkpt lat="45.920534009142294" lon="13.37404654234693"><ele>32.0</ele><time>2026-04-04T14:55:12Z</time></trkpt><trkpt lat="45.92029898557246" lon="13.374265444428572"><ele>32.0</ele><time>2026-04-04T14:55:13Z</time></trkpt><trkpt lat="45.920071605003024" lon="13.374489738323193"><ele>32.0</ele><time>2026-04-04T14:55:14Z</time></trkpt><trkpt lat="45.91985035991497" lon="13.374715602366713"><ele>31.5</ele><time>2026-04-04T14:55:15Z</time></trkpt><trkpt lat="45.919624224256815" lon="13.374923372776133"><ele>31.0</ele><time>2026-04-04T14:55:16Z</time></trkpt><trkpt lat="45.91941305896789" lon="13.375147166790684"><ele>31.0</ele><time>2026-04-04T14:55:16.999Z</time></trkpt><trkpt lat="45.91921297004817" lon="13.375347151708565"><ele>31.0</ele><time>2026-04-04T14:55:17.999Z</time></trkpt><trkpt lat="45.91901341123503" lon="13.375539839145553"><ele>31.5</ele><time>2026-04-04T14:55:18.999Z</time></trkpt><trkpt lat="45.918791975632786" lon="13.375687391953065"><ele>32.0</ele><time>2026-04-04T14:55:19.999Z</time></trkpt><trkpt lat="45.918561398728414" lon="13.375794065601049"><ele>32.0</ele><time>2026-04-04T14:55:20.999Z</time></trkpt><trkpt lat="45.91832171891447" lon="13.375865426397699"><ele>32.0</ele><time>2026-04-04T14:55:21.999Z</time></trkpt><trkpt lat="45.91807469814456" lon="13.375913138793093"><ele>32.0</ele><time>2026-04-04T14:55:22.999Z</time></trkpt><trkpt lat="45.917820027739026" lon="13.375960708705898"><ele>32.0</ele><time>2026-04-04T14:55:23.999Z</time></trkpt><trkpt lat="45.91756860698299" lon="13.37598308020043"><ele>31.0</ele><time>2026-04-04T14:55:24.999Z</time></trkpt><trkpt lat="45.91732732752617" lon="13.376026286243183"><ele>30.0</ele><time>2026-04-04T14:55:25.999Z</time></trkpt><trkpt lat="45.917100737685104" lon="13.376068242289099"><ele>30.0</ele><time>2026-04-04T14:55:26.999Z</time></trkpt><trkpt lat="45.91689017379046" lon="13.376129652915175"><ele>30.0</ele><time>2026-04-04T14:55:27.999Z</time></trkpt><trkpt lat="45.91667933241442" lon="13.376157053105105"><ele>30.0</ele><time>2026-04-04T14:55:28.999Z</time></trkpt><trkpt lat="45.9164693324343" lon="13.376147434864649"><ele>31.0</ele><time>2026-04-04T14:55:29.999Z</time></trkpt><trkpt lat="45.91626857791793" lon="13.37614958954592"><ele>32.0</ele><time>2026-04-04T14:55:30.999Z</time></trkpt><trkpt lat="45.916072860622414" lon="13.37617348498369"><ele>33.0</ele><time>2026-04-04T14:55:31.999Z</time></trkpt><trkpt lat="45.91587963574771" lon="13.37615319915839"><ele>33.333333333333336</ele><time>2026-04-04T14:55:32.999Z</time></trkpt><trkpt lat="45.91568633699421" lon="13.376163645393767"><ele>33.66666666666667</ele><time>2026-04-04T14:55:33.999Z</time></trkpt><trkpt lat="45.915491009260016" lon="13.376189712481471"><ele>34.0</ele><time>2026-04-04T14:55:34.999Z</time></trkpt><trkpt lat="45.915296270986715" lon="13.37622375997805"><ele>34.0</ele><time>2026-04-04T14:55:35.999Z</time></trkpt><trkpt lat="45.91510009869693" lon="13.376261314769197"><ele>34.0</ele><time>2026-04-04T14:55:36.999Z</time></trkpt><trkpt lat="45.91490420103319" lon="13.376315814795774"><ele>34.0</ele><time>2026-04-04T14:55:37.999Z</time></trkpt><trkpt lat="45.91470481127261" lon="13.376349242015957"><ele>33.66666666666667</ele><time>2026-04-04T14:55:38.999Z</time></trkpt><trkpt lat="45.91450423233793" lon="13.376387502230116"><ele>33.333333333333336</ele><time>2026-04-04T14:55:39.999Z</time></trkpt><trkpt lat="45.914304361355185" lon="13.376431521327873"><ele>33.0</ele><time>2026-04-04T14:55:40.999Z</time></trkpt><trkpt lat="45.91411405641756" lon="13.376485532367951"><ele>33.0</ele><time>2026-04-04T14:55:41.999Z</time></trkpt><trkpt lat="45.91393232624183" lon="13.376556608789603"><ele>33.0</ele><time>2026-04-04T14:55:42.999Z</time></trkpt><trkpt lat="45.91374926194536" lon="13.376613347033599"><ele>33.0</ele><time>2026-04-04T14:55:43.999Z</time></trkpt><trkpt lat="45.91357552650116" lon="13.376713061501466"><ele>33.333333333333336</ele><time>2026-04-04T14:55:44.999Z</time></trkpt><trkpt lat="45.91339735880369" lon="13.37677272287035"><ele>33.66666666666667</ele><time>2026-04-04T14:55:45.999Z</time></trkpt><trkpt lat="45.91322614488293" lon="13.376828835991104"><ele>34.0</ele><time>2026-04-04T14:55:46.999Z</time></trkpt><trkpt lat="45.913066126333995" lon="13.376916772596497"><ele>34.0</ele><time>2026-04-04T14:55:47.999Z</time></trkpt><trkpt lat="45.9129029097875" lon="13.377024285617749"><ele>34.0</ele><time>2026-04-04T14:55:48.999Z</time></trkpt><trkpt lat="45.912760628416834" lon="13.377197809059602"><ele>34.0</ele><time>2026-04-04T14:55:49.999Z</time></trkpt><trkpt lat="45.912608406344816" lon="13.377353705544751"><ele>33.333333333333336</ele><time>2026-04-04T14:55:50.999Z</time></trkpt><trkpt lat="45.912455225841974" lon="13.377508315813433"><ele>32.666666666666664</ele><time>2026-04-04T14:55:51.999Z</time></trkpt><trkpt lat="45.91229793099744" lon="13.377669097217474"><ele>32.0</ele><time>2026-04-04T14:55:52.999Z</time></trkpt><trkpt lat="45.91212295987489" lon="13.377821426291849"><ele>32.0</ele><time>2026-04-04T14:55:53.999Z</time></trkpt><trkpt lat="45.91195781555353" lon="13.377995262428005"><ele>32.0</ele><time>2026-04-04T14:55:54.999Z</time></trkpt><trkpt lat="45.91179697968587" lon="13.378155939220367"><ele>32.0</ele><time>2026-04-04T14:55:55.999Z</time></trkpt><trkpt lat="45.911639773324055" lon="13.378296795718741"><ele>31.666666666666664</ele><time>2026-04-04T14:55:56.999Z</time></trkpt><trkpt lat="45.91148819534895" lon="13.37841326025853"><ele>31.333333333333336</ele><time>2026-04-04T14:55:57.999Z</time></trkpt><trkpt lat="45.911320594533755" lon="13.378506076153114"><ele>31.0</ele><time>2026-04-04T14:55:58.999Z</time></trkpt><trkpt lat="45.911128135709895" lon="13.378586212649529"><ele>31.0</ele><time>2026-04-04T14:55:59.999Z</time></trkpt><trkpt lat="45.91090989877463" lon="13.378647636625248"><ele>31.0</ele><time>2026-04-04T14:56:00.999Z</time></trkpt><trkpt lat="45.91067291819557" lon="13.378672981343543"><ele>30.5</ele><time>2026-04-04T14:56:01.999Z</time></trkpt><trkpt lat="45.91041640205436" lon="13.378657682308994"><ele>30.0</ele><time>2026-04-04T14:56:02.999Z</time></trkpt><trkpt lat="45.91013284170354" lon="13.378635260891192"><ele>29.0</ele><time>2026-04-04T14:56:03.999Z</time></trkpt><trkpt lat="45.909835314543535" lon="13.378623887852374"><ele>28.0</ele><time>2026-04-04T14:56:04.999Z</time></trkpt><trkpt lat="45.90952253513886" lon="13.378624762289608"><ele>28.5</ele><time>2026-04-04T14:56:05.999Z</time></trkpt><trkpt lat="45.9092005151707" lon="13.378670294793427"><ele>29.0</ele><time>2026-04-04T14:56:06.999Z</time></trkpt><trkpt lat="45.908874614922716" lon="13.378703532487485"><ele>29.0</ele><time>2026-04-04T14:56:07.999Z</time></trkpt><trkpt lat="45.908550679285696" lon="13.3787530546912"><ele>29.0</ele><time>2026-04-04T14:56:08.999Z</time></trkpt><trkpt lat="45.9082247125516" lon="13.378803083978383"><ele>29.0</ele><time>2026-04-04T14:56:09.999Z</time></trkpt><trkpt lat="45.90789832542747" lon="13.37889671448513"><ele>29.0</ele><time>2026-04-04T14:56:10.999Z</time></trkpt><trkpt lat="45.90756860608068" lon="13.379026874716406"><ele>29.0</ele><time>2026-04-04T14:56:11.999Z</time></trkpt><trkpt lat="45.90723231813541" lon="13.379162106273592"><ele>29.0</ele><time>2026-04-04T14:56:12.999Z</time></trkpt><trkpt lat="45.906891037014915" lon="13.37929566243356"><ele>29.0</ele><time>2026-04-04T14:56:13.999Z</time></trkpt><trkpt lat="45.906538896061555" lon="13.379371202547702"><ele>29.0</ele><time>2026-04-04T14:56:14.999Z</time></trkpt><trkpt lat="45.90617616518151" lon="13.379416437014381"><ele>28.5</ele><time>2026-04-04T14:56:15.999Z</time></trkpt><trkpt lat="45.90580454358056" lon="13.379461105378669"><ele>28.0</ele><time>2026-04-04T14:56:16.999Z</time></trkpt><trkpt lat="45.90542873056554" lon="13.379510459125521"><ele>27.0</ele><time>2026-04-04T14:56:17.999Z</time></trkpt><trkpt lat="45.90505364535042" lon="13.379532594213869"><ele>26.0</ele><time>2026-04-04T14:56:18.999Z</time></trkpt><trkpt lat="45.9046846203514" lon="13.379582791071078"><ele>26.0</ele><time>2026-04-04T14:56:19.999Z</time></trkpt><trkpt lat="45.90433821098146" lon="13.37964130174471"><ele>26.0</ele><time>2026-04-04T14:56:20.999Z</time></trkpt><trkpt lat="45.904014286604685" lon="13.379732600400871"><ele>26.5</ele><time>2026-04-04T14:56:21.999Z</time></trkpt><trkpt lat="45.90370381324589" lon="13.379778120976836"><ele>27.0</ele><time>2026-04-04T14:56:22.999Z</time></trkpt><trkpt lat="45.903408442304816" lon="13.37986264768863"><ele>27.0</ele><time>2026-04-04T14:56:23.999Z</time></trkpt><trkpt lat="45.903112945686765" lon="13.379917312429624"><ele>27.0</ele><time>2026-04-04T14:56:24.999Z</time></trkpt><trkpt lat="45.902822792381315" lon="13.37998566124679"><ele>26.5</ele><time>2026-04-04T14:56:25.999Z</time></trkpt><trkpt lat="45.902532872450585" lon="13.380055546281053"><ele>26.0</ele><time>2026-04-04T14:56:26.999Z</time></trkpt><trkpt lat="45.90224680823825" lon="13.380114290759055"><ele>26.0</ele><time>2026-04-04T14:56:27.999Z</time></trkpt><trkpt lat="45.90196700537959" lon="13.38017125630173"><ele>26.0</ele><time>2026-04-04T14:56:28.999Z</time></trkpt><trkpt lat="45.9016969227166" lon="13.380221698516655"><ele>25.5</ele><time>2026-04-04T14:56:29.999Z</time></trkpt><trkpt lat="45.90144685520483" lon="13.38026485976041"><ele>25.0</ele><time>2026-04-04T14:56:30.999Z</time></trkpt><trkpt lat="45.90121294469437" lon="13.380304244929112"><ele>25.0</ele><time>2026-04-04T14:56:31.999Z</time></trkpt><trkpt lat="45.900997081499376" lon="13.380309159323343"><ele>25.0</ele><time>2026-04-04T14:56:32.999Z</time></trkpt><trkpt lat="45.90078122869128" lon="13.380337615465717"><ele>25.0</ele><time>2026-04-04T14:56:33.999Z</time></trkpt><trkpt lat="45.9005684462249" lon="13.3803656858026"><ele>25.333333333333336</ele><time>2026-04-04T14:56:34.999Z</time></trkpt><trkpt lat="45.90037341420997" lon="13.380392936287338"><ele>25.666666666666664</ele><time>2026-04-04T14:56:35.999Z</time></trkpt><trkpt lat="45.900194274619416" lon="13.380439112901767"><ele>26.0</ele><time>2026-04-04T14:56:36.999Z</time></trkpt><trkpt lat="45.900020869880045" lon="13.380465785187605"><ele>26.0</ele><time>2026-04-04T14:56:37.999Z</time></trkpt><trkpt lat="45.89985106562978" lon="13.38049432376595"><ele>26.0</ele><time>2026-04-04T14:56:38.999Z</time></trkpt><trkpt lat="45.89969369712909" lon="13.380521986059213"><ele>26.0</ele><time>2026-04-04T14:56:39.999Z</time></trkpt><trkpt lat="45.89954990203728" lon="13.380554431902537"><ele>26.0</ele><time>2026-04-04T14:56:40.999Z</time></trkpt><trkpt lat="45.8994151218567" lon="13.380586493333078"><ele>26.0</ele><time>2026-04-04T14:56:41.999Z</time></trkpt><trkpt lat="45.899290294268035" lon="13.380617858877581"><ele>26.0</ele><time>2026-04-04T14:56:42.999Z</time></trkpt><trkpt lat="45.89917485973584" lon="13.380624946757482"><ele>26.0</ele><time>2026-04-04T14:56:43.999Z</time></trkpt><trkpt lat="45.89907557999345" lon="13.38067783347781"><ele>25.666666666666664</ele><time>2026-04-04T14:56:44.999Z</time></trkpt><trkpt lat="45.89898549347085" lon="13.380707150199708"><ele>25.333333333333332</ele><time>2026-04-04T14:56:45.999Z</time></trkpt><trkpt lat="45.89890461669671" lon="13.380736607520753"><ele>25.0</ele><time>2026-04-04T14:56:46.999Z</time></trkpt><trkpt lat="45.89883152518746" lon="13.380763911010341"><ele>24.666666666666664</ele><time>2026-04-04T14:56:47.999Z</time></trkpt><trkpt lat="45.898766606653076" lon="13.38079288180547"><ele>24.333333333333332</ele><time>2026-04-04T14:56:48.999Z</time></trkpt><trkpt lat="45.898653735816325" lon="13.380835450276237"><ele>24.0</ele><time>2026-04-04T14:56:50.999Z</time></trkpt><trkpt lat="45.89858708438528" lon="13.380862893133935"><ele>24.0</ele><time>2026-04-04T14:56:52.999Z</time></trkpt><trkpt lat="45.89845945880045" lon="13.380906206545212"><ele>24.0</ele><time>2026-04-04T14:56:55.999Z</time></trkpt><trkpt lat="45.89834532214033" lon="13.38096028251083"><ele>24.0</ele><time>2026-04-04T14:56:56.999Z</time></trkpt><trkpt lat="45.898210690038766" lon="13.380994716030743"><ele>24.0</ele><time>2026-04-04T14:56:57.999Z</time></trkpt><trkpt lat="45.898088439717405" lon="13.381044302663808"><ele>24.666666666666664</ele><time>2026-04-04T14:56:58.999Z</time></trkpt><trkpt lat="45.89796008696016" lon="13.381096193819271"><ele>25.333333333333332</ele><time>2026-04-04T14:56:59.999Z</time></trkpt><trkpt lat="45.89779664062961" lon="13.381162215505752"><ele>26.0</ele><time>2026-04-04T14:57:00.999Z</time></trkpt><trkpt lat="45.89760824364374" lon="13.381238565259387"><ele>26.0</ele><time>2026-04-04T14:57:01.999Z</time></trkpt><trkpt lat="45.897399063954346" lon="13.381324312420569"><ele>26.0</ele><time>2026-04-04T14:57:03Z</time></trkpt><trkpt lat="45.897177342594595" lon="13.38142016331478"><ele>26.0</ele><time>2026-04-04T14:57:04Z</time></trkpt><trkpt lat="45.896946993762555" lon="13.38152083827553"><ele>26.0</ele><time>2026-04-04T14:57:05Z</time></trkpt><trkpt lat="45.896740051355735" lon="13.381613768918873"><ele>26.0</ele><time>2026-04-04T14:57:06Z</time></trkpt><trkpt lat="45.89655122625459" lon="13.381699169051801"><ele>26.0</ele><time>2026-04-04T14:57:07Z</time></trkpt><trkpt lat="45.89638028875577" lon="13.381801364563511"><ele>26.0</ele><time>2026-04-04T14:57:08Z</time></trkpt><trkpt lat="45.89621758383324" lon="13.381874628718737"><ele>26.0</ele><time>2026-04-04T14:57:09Z</time></trkpt><trkpt lat="45.89607411674918" lon="13.381937869139255"><ele>26.0</ele><time>2026-04-04T14:57:10Z</time></trkpt><trkpt lat="45.89596282031123" lon="13.381986294471098"><ele>26.0</ele><time>2026-04-04T14:57:11Z</time></trkpt><trkpt lat="45.895878955558004" lon="13.382024067323211"><ele>26.166666666666664</ele><time>2026-04-04T14:57:12Z</time></trkpt><trkpt lat="45.895786325530985" lon="13.38203376656899"><ele>26.333333333333332</ele><time>2026-04-04T14:57:14Z</time></trkpt><trkpt lat="45.89578226150764" lon="13.381932717851424"><ele>26.5</ele><time>2026-04-04T14:57:17Z</time></trkpt><trkpt lat="45.89579456176471" lon="13.381807828690304"><ele>26.666666666666664</ele><time>2026-04-04T14:57:19Z</time></trkpt><trkpt lat="45.89582041019354" lon="13.381679332528803"><ele>26.833333333333332</ele><time>2026-04-04T14:57:21Z</time></trkpt><trkpt lat="45.89584650630141" lon="13.381550418279872"><ele>27.0</ele><time>2026-04-04T14:57:23Z</time></trkpt><trkpt lat="45.89587171224049" lon="13.381429477944712"><ele>27.0</ele><time>2026-04-04T14:57:24.999Z</time></trkpt><trkpt lat="45.89590804856718" lon="13.381337893743375"><ele>25.0</ele><time>2026-04-04T14:57:26.999Z</time></trkpt><trkpt lat="45.89602232726689" lon="13.381306074853208"><ele>26.0</ele><time>2026-04-04T14:57:29.999Z</time></trkpt><trkpt lat="45.896093476759305" lon="13.381291265248558"><ele>26.0</ele><time>2026-04-04T14:57:31.999Z</time></trkpt><trkpt lat="45.89615211950734" lon="13.381248997815673"><ele>26.0</ele><time>2026-04-04T14:57:33.999Z</time></trkpt></trkseg></trk></gpx>